<?xml version="1.0" encoding="UTF-8" standalone="no" ?>
<gpx xmlns="http://www.topografix.com/GPX/1/1" xmlns:xsi="http://www.w3.org/2001/XMLSchema-instance" xsi:schemaLocation="http://www.topografix.com/GPX/1/1 http://www.topografix.com/GPX/1/1/gpx.xsd" version="1.1" creator="VisuGPX - https://www.visugpx.com">
  <metadata>
    <name>2016-10-08 Bike ride-Georges de Reneins O</name>
    <desc><![CDATA[2016-10-08 Bike ride-Georges de Reneins O]]></desc>
  </metadata>
  <wpt lat="45.92464" lon="4.73718">
    <ele>174</ele>
    <name><![CDATA[2016-10-08 10:53 (Start)]]></name>
  </wpt>
  <wpt lat="45.92462" lon="4.73705">
    <ele>174</ele>
    <name><![CDATA[2016-10-08 10:53 (End)]]></name>
    <desc><![CDATA[Created by Google My Tracks on Android  Name: 2016-10-08 10:53 Activity type: biking Description: - Total distance: 49.92 km (31.0 mi) Total time: 2:26:57 Moving time: 2:24:54 Average speed: 20.38 km/h (12.7 mi/h) Average moving speed: 20.67 km/h (12.8 mi/h) Max speed: 38.89 km/h (24.2 mi/h) Average pace: 2:57 min/km (4:44 min/mi) Average moving pace: 2:54 min/km (4:40 min/mi) Fastest pace: 1:33 min/km (2:29 min/mi) Max elevation: 253 m (829 ft) Min elevation: 159 m (521 ft) Elevation gain: 981 m (3219 ft) Max grade: 16 % Min grade: -38 % Recorded: 08/10/2016 10:53]]></desc>
  </wpt>
  <trk>
    <name><![CDATA[2016-10-08 10:53]]></name>
    <trkseg>
      <trkpt lat="45.92464" lon="4.73718">
        <ele>174</ele>
        <time>2016-10-08T08:53:43.035Z</time>
      </trkpt>
      <trkpt lat="45.92456" lon="4.73722">
        <ele>174</ele>
        <time>2016-10-08T08:54:16Z</time>
      </trkpt>
      <trkpt lat="45.92453" lon="4.73722">
        <ele>174</ele>
        <time>2016-10-08T08:54:17Z</time>
      </trkpt>
      <trkpt lat="45.9246" lon="4.73714">
        <ele>174</ele>
        <time>2016-10-08T08:55:06Z</time>
      </trkpt>
      <trkpt lat="45.92461" lon="4.73714">
        <ele>174</ele>
        <time>2016-10-08T08:55:07Z</time>
      </trkpt>
      <trkpt lat="45.92467" lon="4.73709">
        <ele>174</ele>
        <time>2016-10-08T08:55:10Z</time>
      </trkpt>
      <trkpt lat="45.92468" lon="4.73705">
        <ele>174</ele>
        <time>2016-10-08T08:55:11Z</time>
      </trkpt>
      <trkpt lat="45.92469" lon="4.73696">
        <ele>174</ele>
        <time>2016-10-08T08:55:13Z</time>
      </trkpt>
      <trkpt lat="45.92469" lon="4.73691">
        <ele>174</ele>
        <time>2016-10-08T08:55:14Z</time>
      </trkpt>
      <trkpt lat="45.9247" lon="4.7368">
        <ele>174</ele>
        <time>2016-10-08T08:55:17Z</time>
      </trkpt>
      <trkpt lat="45.92469" lon="4.73677">
        <ele>174</ele>
        <time>2016-10-08T08:55:18Z</time>
      </trkpt>
      <trkpt lat="45.92471" lon="4.73665">
        <ele>174</ele>
        <time>2016-10-08T08:55:20Z</time>
      </trkpt>
      <trkpt lat="45.92471" lon="4.73659">
        <ele>174</ele>
        <time>2016-10-08T08:55:21Z</time>
      </trkpt>
      <trkpt lat="45.92474" lon="4.73648">
        <ele>174</ele>
        <time>2016-10-08T08:55:23Z</time>
      </trkpt>
      <trkpt lat="45.92478" lon="4.73645">
        <ele>174</ele>
        <time>2016-10-08T08:55:24Z</time>
      </trkpt>
      <trkpt lat="45.92486" lon="4.73644">
        <ele>174</ele>
        <time>2016-10-08T08:55:26Z</time>
      </trkpt>
      <trkpt lat="45.9249" lon="4.73644">
        <ele>174</ele>
        <time>2016-10-08T08:55:27Z</time>
      </trkpt>
      <trkpt lat="45.92498" lon="4.73644">
        <ele>174</ele>
        <time>2016-10-08T08:55:29Z</time>
      </trkpt>
      <trkpt lat="45.92503" lon="4.73645">
        <ele>174</ele>
        <time>2016-10-08T08:55:30Z</time>
      </trkpt>
      <trkpt lat="45.92507" lon="4.73648">
        <ele>174</ele>
        <time>2016-10-08T08:55:31Z</time>
      </trkpt>
      <trkpt lat="45.92512" lon="4.73649">
        <ele>174</ele>
        <time>2016-10-08T08:55:32Z</time>
      </trkpt>
      <trkpt lat="45.92516" lon="4.7365">
        <ele>174</ele>
        <time>2016-10-08T08:55:33Z</time>
      </trkpt>
      <trkpt lat="45.92522" lon="4.73649">
        <ele>174</ele>
        <time>2016-10-08T08:55:34Z</time>
      </trkpt>
      <trkpt lat="45.92527" lon="4.73649">
        <ele>173</ele>
        <time>2016-10-08T08:55:35Z</time>
      </trkpt>
      <trkpt lat="45.92532" lon="4.73648">
        <ele>173</ele>
        <time>2016-10-08T08:55:36Z</time>
      </trkpt>
      <trkpt lat="45.92537" lon="4.73647">
        <ele>173</ele>
        <time>2016-10-08T08:55:37Z</time>
      </trkpt>
      <trkpt lat="45.92543" lon="4.73645">
        <ele>173</ele>
        <time>2016-10-08T08:55:38Z</time>
      </trkpt>
      <trkpt lat="45.92548" lon="4.73644">
        <ele>173</ele>
        <time>2016-10-08T08:55:39Z</time>
      </trkpt>
      <trkpt lat="45.92554" lon="4.73642">
        <ele>173</ele>
        <time>2016-10-08T08:55:40Z</time>
      </trkpt>
      <trkpt lat="45.92559" lon="4.73641">
        <ele>173</ele>
        <time>2016-10-08T08:55:41Z</time>
      </trkpt>
      <trkpt lat="45.92564" lon="4.73639">
        <ele>173</ele>
        <time>2016-10-08T08:55:42Z</time>
      </trkpt>
      <trkpt lat="45.9257" lon="4.73637">
        <ele>173</ele>
        <time>2016-10-08T08:55:43Z</time>
      </trkpt>
      <trkpt lat="45.92575" lon="4.73635">
        <ele>172</ele>
        <time>2016-10-08T08:55:44Z</time>
      </trkpt>
      <trkpt lat="45.92582" lon="4.73633">
        <ele>172</ele>
        <time>2016-10-08T08:55:46Z</time>
      </trkpt>
      <trkpt lat="45.92588" lon="4.73634">
        <ele>172</ele>
        <time>2016-10-08T08:55:47Z</time>
      </trkpt>
      <trkpt lat="45.92593" lon="4.73633">
        <ele>172</ele>
        <time>2016-10-08T08:55:48Z</time>
      </trkpt>
      <trkpt lat="45.92598" lon="4.73632">
        <ele>172</ele>
        <time>2016-10-08T08:55:49Z</time>
      </trkpt>
      <trkpt lat="45.92605" lon="4.73633">
        <ele>172</ele>
        <time>2016-10-08T08:55:50Z</time>
      </trkpt>
      <trkpt lat="45.92612" lon="4.73635">
        <ele>173</ele>
        <time>2016-10-08T08:55:51Z</time>
      </trkpt>
      <trkpt lat="45.92617" lon="4.7364">
        <ele>173</ele>
        <time>2016-10-08T08:55:52Z</time>
      </trkpt>
      <trkpt lat="45.92622" lon="4.73645">
        <ele>173</ele>
        <time>2016-10-08T08:55:53Z</time>
      </trkpt>
      <trkpt lat="45.92625" lon="4.73652">
        <ele>173</ele>
        <time>2016-10-08T08:55:54Z</time>
      </trkpt>
      <trkpt lat="45.92628" lon="4.73659">
        <ele>173</ele>
        <time>2016-10-08T08:55:55Z</time>
      </trkpt>
      <trkpt lat="45.9263" lon="4.73666">
        <ele>173</ele>
        <time>2016-10-08T08:55:56Z</time>
      </trkpt>
      <trkpt lat="45.92633" lon="4.73672">
        <ele>173</ele>
        <time>2016-10-08T08:55:57Z</time>
      </trkpt>
      <trkpt lat="45.92637" lon="4.73678">
        <ele>173</ele>
        <time>2016-10-08T08:55:58Z</time>
      </trkpt>
      <trkpt lat="45.9264" lon="4.73684">
        <ele>173</ele>
        <time>2016-10-08T08:55:59Z</time>
      </trkpt>
      <trkpt lat="45.92644" lon="4.7369">
        <ele>173</ele>
        <time>2016-10-08T08:56:00Z</time>
      </trkpt>
      <trkpt lat="45.92647" lon="4.73695">
        <ele>173</ele>
        <time>2016-10-08T08:56:01Z</time>
      </trkpt>
      <trkpt lat="45.92651" lon="4.737">
        <ele>173</ele>
        <time>2016-10-08T08:56:02Z</time>
      </trkpt>
      <trkpt lat="45.92656" lon="4.73704">
        <ele>173</ele>
        <time>2016-10-08T08:56:03Z</time>
      </trkpt>
      <trkpt lat="45.92661" lon="4.73707">
        <ele>173</ele>
        <time>2016-10-08T08:56:04Z</time>
      </trkpt>
      <trkpt lat="45.92666" lon="4.7371">
        <ele>173</ele>
        <time>2016-10-08T08:56:05Z</time>
      </trkpt>
      <trkpt lat="45.92671" lon="4.73712">
        <ele>174</ele>
        <time>2016-10-08T08:56:06Z</time>
      </trkpt>
      <trkpt lat="45.92677" lon="4.73714">
        <ele>174</ele>
        <time>2016-10-08T08:56:07Z</time>
      </trkpt>
      <trkpt lat="45.92682" lon="4.73717">
        <ele>173</ele>
        <time>2016-10-08T08:56:08Z</time>
      </trkpt>
      <trkpt lat="45.92688" lon="4.73719">
        <ele>173</ele>
        <time>2016-10-08T08:56:09Z</time>
      </trkpt>
      <trkpt lat="45.92694" lon="4.73721">
        <ele>173</ele>
        <time>2016-10-08T08:56:10Z</time>
      </trkpt>
      <trkpt lat="45.927" lon="4.73722">
        <ele>173</ele>
        <time>2016-10-08T08:56:11Z</time>
      </trkpt>
      <trkpt lat="45.92705" lon="4.73725">
        <ele>173</ele>
        <time>2016-10-08T08:56:12Z</time>
      </trkpt>
      <trkpt lat="45.92711" lon="4.73726">
        <ele>173</ele>
        <time>2016-10-08T08:56:13Z</time>
      </trkpt>
      <trkpt lat="45.92717" lon="4.73728">
        <ele>173</ele>
        <time>2016-10-08T08:56:14Z</time>
      </trkpt>
      <trkpt lat="45.92723" lon="4.73728">
        <ele>173</ele>
        <time>2016-10-08T08:56:15Z</time>
      </trkpt>
      <trkpt lat="45.92728" lon="4.73729">
        <ele>173</ele>
        <time>2016-10-08T08:56:16Z</time>
      </trkpt>
      <trkpt lat="45.92733" lon="4.7373">
        <ele>173</ele>
        <time>2016-10-08T08:56:17Z</time>
      </trkpt>
      <trkpt lat="45.92739" lon="4.73731">
        <ele>173</ele>
        <time>2016-10-08T08:56:18Z</time>
      </trkpt>
      <trkpt lat="45.92744" lon="4.73732">
        <ele>173</ele>
        <time>2016-10-08T08:56:19Z</time>
      </trkpt>
      <trkpt lat="45.92749" lon="4.73732">
        <ele>173</ele>
        <time>2016-10-08T08:56:20Z</time>
      </trkpt>
      <trkpt lat="45.92755" lon="4.73734">
        <ele>173</ele>
        <time>2016-10-08T08:56:21Z</time>
      </trkpt>
      <trkpt lat="45.92759" lon="4.73735">
        <ele>172</ele>
        <time>2016-10-08T08:56:22Z</time>
      </trkpt>
      <trkpt lat="45.92764" lon="4.73738">
        <ele>172</ele>
        <time>2016-10-08T08:56:23Z</time>
      </trkpt>
      <trkpt lat="45.92772" lon="4.73741">
        <ele>172</ele>
        <time>2016-10-08T08:56:25Z</time>
      </trkpt>
      <trkpt lat="45.92775" lon="4.73742">
        <ele>172</ele>
        <time>2016-10-08T08:56:26Z</time>
      </trkpt>
      <trkpt lat="45.92784" lon="4.73741">
        <ele>172</ele>
        <time>2016-10-08T08:56:28Z</time>
      </trkpt>
      <trkpt lat="45.92786" lon="4.73737">
        <ele>172</ele>
        <time>2016-10-08T08:56:29Z</time>
      </trkpt>
      <trkpt lat="45.92788" lon="4.73731">
        <ele>172</ele>
        <time>2016-10-08T08:56:30Z</time>
      </trkpt>
      <trkpt lat="45.92789" lon="4.73724">
        <ele>172</ele>
        <time>2016-10-08T08:56:31Z</time>
      </trkpt>
      <trkpt lat="45.9279" lon="4.73717">
        <ele>172</ele>
        <time>2016-10-08T08:56:32Z</time>
      </trkpt>
      <trkpt lat="45.92791" lon="4.73709">
        <ele>172</ele>
        <time>2016-10-08T08:56:33Z</time>
      </trkpt>
      <trkpt lat="45.92792" lon="4.73701">
        <ele>172</ele>
        <time>2016-10-08T08:56:34Z</time>
      </trkpt>
      <trkpt lat="45.92794" lon="4.73694">
        <ele>172</ele>
        <time>2016-10-08T08:56:35Z</time>
      </trkpt>
      <trkpt lat="45.92796" lon="4.73686">
        <ele>172</ele>
        <time>2016-10-08T08:56:36Z</time>
      </trkpt>
      <trkpt lat="45.92798" lon="4.73679">
        <ele>172</ele>
        <time>2016-10-08T08:56:37Z</time>
      </trkpt>
      <trkpt lat="45.92799" lon="4.73671">
        <ele>172</ele>
        <time>2016-10-08T08:56:38Z</time>
      </trkpt>
      <trkpt lat="45.92801" lon="4.73664">
        <ele>172</ele>
        <time>2016-10-08T08:56:39Z</time>
      </trkpt>
      <trkpt lat="45.92803" lon="4.73657">
        <ele>172</ele>
        <time>2016-10-08T08:56:40Z</time>
      </trkpt>
      <trkpt lat="45.92805" lon="4.7365">
        <ele>172</ele>
        <time>2016-10-08T08:56:41Z</time>
      </trkpt>
      <trkpt lat="45.92811" lon="4.73641">
        <ele>172</ele>
        <time>2016-10-08T08:56:43Z</time>
      </trkpt>
      <trkpt lat="45.92815" lon="4.73638">
        <ele>172</ele>
        <time>2016-10-08T08:56:44Z</time>
      </trkpt>
      <trkpt lat="45.9282" lon="4.73631">
        <ele>172</ele>
        <time>2016-10-08T08:56:46Z</time>
      </trkpt>
      <trkpt lat="45.92822" lon="4.73624">
        <ele>172</ele>
        <time>2016-10-08T08:56:47Z</time>
      </trkpt>
      <trkpt lat="45.92822" lon="4.73616">
        <ele>172</ele>
        <time>2016-10-08T08:56:48Z</time>
      </trkpt>
      <trkpt lat="45.92825" lon="4.7361">
        <ele>171</ele>
        <time>2016-10-08T08:56:49Z</time>
      </trkpt>
      <trkpt lat="45.92825" lon="4.73602">
        <ele>171</ele>
        <time>2016-10-08T08:56:50Z</time>
      </trkpt>
      <trkpt lat="45.92826" lon="4.73595">
        <ele>171</ele>
        <time>2016-10-08T08:56:51Z</time>
      </trkpt>
      <trkpt lat="45.92826" lon="4.73587">
        <ele>171</ele>
        <time>2016-10-08T08:56:52Z</time>
      </trkpt>
      <trkpt lat="45.92826" lon="4.7358">
        <ele>171</ele>
        <time>2016-10-08T08:56:53Z</time>
      </trkpt>
      <trkpt lat="45.92826" lon="4.73572">
        <ele>171</ele>
        <time>2016-10-08T08:56:54Z</time>
      </trkpt>
      <trkpt lat="45.92827" lon="4.73564">
        <ele>171</ele>
        <time>2016-10-08T08:56:55Z</time>
      </trkpt>
      <trkpt lat="45.92827" lon="4.73555">
        <ele>171</ele>
        <time>2016-10-08T08:56:56Z</time>
      </trkpt>
      <trkpt lat="45.92827" lon="4.73546">
        <ele>171</ele>
        <time>2016-10-08T08:56:57Z</time>
      </trkpt>
      <trkpt lat="45.92828" lon="4.73538">
        <ele>172</ele>
        <time>2016-10-08T08:56:58Z</time>
      </trkpt>
      <trkpt lat="45.92829" lon="4.7353">
        <ele>172</ele>
        <time>2016-10-08T08:56:59Z</time>
      </trkpt>
      <trkpt lat="45.9283" lon="4.73522">
        <ele>172</ele>
        <time>2016-10-08T08:57:00Z</time>
      </trkpt>
      <trkpt lat="45.92831" lon="4.73514">
        <ele>172</ele>
        <time>2016-10-08T08:57:01Z</time>
      </trkpt>
      <trkpt lat="45.92832" lon="4.73505">
        <ele>172</ele>
        <time>2016-10-08T08:57:02Z</time>
      </trkpt>
      <trkpt lat="45.92832" lon="4.73495">
        <ele>172</ele>
        <time>2016-10-08T08:57:03Z</time>
      </trkpt>
      <trkpt lat="45.92833" lon="4.73487">
        <ele>172</ele>
        <time>2016-10-08T08:57:04Z</time>
      </trkpt>
      <trkpt lat="45.92834" lon="4.73477">
        <ele>172</ele>
        <time>2016-10-08T08:57:05Z</time>
      </trkpt>
      <trkpt lat="45.92836" lon="4.73469">
        <ele>172</ele>
        <time>2016-10-08T08:57:06Z</time>
      </trkpt>
      <trkpt lat="45.92837" lon="4.73464">
        <ele>172</ele>
        <time>2016-10-08T08:57:07Z</time>
      </trkpt>
      <trkpt lat="45.92838" lon="4.73456">
        <ele>172</ele>
        <time>2016-10-08T08:57:08Z</time>
      </trkpt>
      <trkpt lat="45.92839" lon="4.73447">
        <ele>172</ele>
        <time>2016-10-08T08:57:09Z</time>
      </trkpt>
      <trkpt lat="45.9284" lon="4.73439">
        <ele>172</ele>
        <time>2016-10-08T08:57:10Z</time>
      </trkpt>
      <trkpt lat="45.92841" lon="4.7343">
        <ele>172</ele>
        <time>2016-10-08T08:57:11Z</time>
      </trkpt>
      <trkpt lat="45.92842" lon="4.73421">
        <ele>172</ele>
        <time>2016-10-08T08:57:12Z</time>
      </trkpt>
      <trkpt lat="45.92843" lon="4.73411">
        <ele>172</ele>
        <time>2016-10-08T08:57:13Z</time>
      </trkpt>
      <trkpt lat="45.92844" lon="4.73402">
        <ele>172</ele>
        <time>2016-10-08T08:57:14Z</time>
      </trkpt>
      <trkpt lat="45.92846" lon="4.73393">
        <ele>172</ele>
        <time>2016-10-08T08:57:15Z</time>
      </trkpt>
      <trkpt lat="45.92847" lon="4.73384">
        <ele>172</ele>
        <time>2016-10-08T08:57:16Z</time>
      </trkpt>
      <trkpt lat="45.92847" lon="4.73374">
        <ele>171</ele>
        <time>2016-10-08T08:57:17Z</time>
      </trkpt>
      <trkpt lat="45.92848" lon="4.73365">
        <ele>171</ele>
        <time>2016-10-08T08:57:18Z</time>
      </trkpt>
      <trkpt lat="45.92849" lon="4.73356">
        <ele>171</ele>
        <time>2016-10-08T08:57:19Z</time>
      </trkpt>
      <trkpt lat="45.9285" lon="4.73347">
        <ele>171</ele>
        <time>2016-10-08T08:57:20Z</time>
      </trkpt>
      <trkpt lat="45.9285" lon="4.73338">
        <ele>171</ele>
        <time>2016-10-08T08:57:21Z</time>
      </trkpt>
      <trkpt lat="45.92851" lon="4.73329">
        <ele>171</ele>
        <time>2016-10-08T08:57:22Z</time>
      </trkpt>
      <trkpt lat="45.92852" lon="4.73319">
        <ele>171</ele>
        <time>2016-10-08T08:57:23Z</time>
      </trkpt>
      <trkpt lat="45.92853" lon="4.73311">
        <ele>171</ele>
        <time>2016-10-08T08:57:24Z</time>
      </trkpt>
      <trkpt lat="45.92853" lon="4.73302">
        <ele>171</ele>
        <time>2016-10-08T08:57:25Z</time>
      </trkpt>
      <trkpt lat="45.92854" lon="4.73294">
        <ele>171</ele>
        <time>2016-10-08T08:57:26Z</time>
      </trkpt>
      <trkpt lat="45.92855" lon="4.73285">
        <ele>171</ele>
        <time>2016-10-08T08:57:27Z</time>
      </trkpt>
      <trkpt lat="45.92856" lon="4.73277">
        <ele>171</ele>
        <time>2016-10-08T08:57:28Z</time>
      </trkpt>
      <trkpt lat="45.92856" lon="4.73268">
        <ele>171</ele>
        <time>2016-10-08T08:57:29Z</time>
      </trkpt>
      <trkpt lat="45.92857" lon="4.7326">
        <ele>171</ele>
        <time>2016-10-08T08:57:30Z</time>
      </trkpt>
      <trkpt lat="45.92859" lon="4.73251">
        <ele>171</ele>
        <time>2016-10-08T08:57:31Z</time>
      </trkpt>
      <trkpt lat="45.9286" lon="4.73243">
        <ele>171</ele>
        <time>2016-10-08T08:57:32Z</time>
      </trkpt>
      <trkpt lat="45.92861" lon="4.73234">
        <ele>171</ele>
        <time>2016-10-08T08:57:33Z</time>
      </trkpt>
      <trkpt lat="45.92862" lon="4.73226">
        <ele>171</ele>
        <time>2016-10-08T08:57:34Z</time>
      </trkpt>
      <trkpt lat="45.92863" lon="4.73217">
        <ele>171</ele>
        <time>2016-10-08T08:57:35Z</time>
      </trkpt>
      <trkpt lat="45.92864" lon="4.73208">
        <ele>171</ele>
        <time>2016-10-08T08:57:36Z</time>
      </trkpt>
      <trkpt lat="45.92865" lon="4.732">
        <ele>171</ele>
        <time>2016-10-08T08:57:37Z</time>
      </trkpt>
      <trkpt lat="45.92866" lon="4.73191">
        <ele>171</ele>
        <time>2016-10-08T08:57:38Z</time>
      </trkpt>
      <trkpt lat="45.92867" lon="4.73182">
        <ele>171</ele>
        <time>2016-10-08T08:57:39Z</time>
      </trkpt>
      <trkpt lat="45.92868" lon="4.73173">
        <ele>171</ele>
        <time>2016-10-08T08:57:40Z</time>
      </trkpt>
      <trkpt lat="45.92869" lon="4.73165">
        <ele>171</ele>
        <time>2016-10-08T08:57:41Z</time>
      </trkpt>
      <trkpt lat="45.9287" lon="4.73156">
        <ele>171</ele>
        <time>2016-10-08T08:57:42Z</time>
      </trkpt>
      <trkpt lat="45.92871" lon="4.73147">
        <ele>171</ele>
        <time>2016-10-08T08:57:43Z</time>
      </trkpt>
      <trkpt lat="45.92872" lon="4.73138">
        <ele>171</ele>
        <time>2016-10-08T08:57:44Z</time>
      </trkpt>
      <trkpt lat="45.92874" lon="4.73129">
        <ele>171</ele>
        <time>2016-10-08T08:57:45Z</time>
      </trkpt>
      <trkpt lat="45.92876" lon="4.73121">
        <ele>172</ele>
        <time>2016-10-08T08:57:46Z</time>
      </trkpt>
      <trkpt lat="45.92878" lon="4.73113">
        <ele>172</ele>
        <time>2016-10-08T08:57:47Z</time>
      </trkpt>
      <trkpt lat="45.92881" lon="4.73105">
        <ele>172</ele>
        <time>2016-10-08T08:57:48Z</time>
      </trkpt>
      <trkpt lat="45.92883" lon="4.73097">
        <ele>172</ele>
        <time>2016-10-08T08:57:49Z</time>
      </trkpt>
      <trkpt lat="45.92885" lon="4.73089">
        <ele>172</ele>
        <time>2016-10-08T08:57:50Z</time>
      </trkpt>
      <trkpt lat="45.92889" lon="4.73082">
        <ele>172</ele>
        <time>2016-10-08T08:57:51Z</time>
      </trkpt>
      <trkpt lat="45.92892" lon="4.73075">
        <ele>172</ele>
        <time>2016-10-08T08:57:52Z</time>
      </trkpt>
      <trkpt lat="45.92895" lon="4.73069">
        <ele>172</ele>
        <time>2016-10-08T08:57:53Z</time>
      </trkpt>
      <trkpt lat="45.92899" lon="4.73063">
        <ele>172</ele>
        <time>2016-10-08T08:57:54Z</time>
      </trkpt>
      <trkpt lat="45.92903" lon="4.73056">
        <ele>172</ele>
        <time>2016-10-08T08:57:55Z</time>
      </trkpt>
      <trkpt lat="45.92907" lon="4.73051">
        <ele>172</ele>
        <time>2016-10-08T08:57:56Z</time>
      </trkpt>
      <trkpt lat="45.9291" lon="4.73044">
        <ele>172</ele>
        <time>2016-10-08T08:57:57Z</time>
      </trkpt>
      <trkpt lat="45.92914" lon="4.73038">
        <ele>172</ele>
        <time>2016-10-08T08:57:58Z</time>
      </trkpt>
      <trkpt lat="45.92919" lon="4.73032">
        <ele>172</ele>
        <time>2016-10-08T08:57:59Z</time>
      </trkpt>
      <trkpt lat="45.92924" lon="4.73026">
        <ele>171</ele>
        <time>2016-10-08T08:58:00Z</time>
      </trkpt>
      <trkpt lat="45.92928" lon="4.7302">
        <ele>171</ele>
        <time>2016-10-08T08:58:01Z</time>
      </trkpt>
      <trkpt lat="45.92933" lon="4.73015">
        <ele>171</ele>
        <time>2016-10-08T08:58:02Z</time>
      </trkpt>
      <trkpt lat="45.92938" lon="4.73009">
        <ele>171</ele>
        <time>2016-10-08T08:58:03Z</time>
      </trkpt>
      <trkpt lat="45.92943" lon="4.73004">
        <ele>171</ele>
        <time>2016-10-08T08:58:04Z</time>
      </trkpt>
      <trkpt lat="45.92947" lon="4.72999">
        <ele>171</ele>
        <time>2016-10-08T08:58:05Z</time>
      </trkpt>
      <trkpt lat="45.92952" lon="4.72993">
        <ele>171</ele>
        <time>2016-10-08T08:58:06Z</time>
      </trkpt>
      <trkpt lat="45.92956" lon="4.72988">
        <ele>171</ele>
        <time>2016-10-08T08:58:07Z</time>
      </trkpt>
      <trkpt lat="45.92961" lon="4.72982">
        <ele>171</ele>
        <time>2016-10-08T08:58:08Z</time>
      </trkpt>
      <trkpt lat="45.92965" lon="4.72976">
        <ele>171</ele>
        <time>2016-10-08T08:58:09Z</time>
      </trkpt>
      <trkpt lat="45.9297" lon="4.72972">
        <ele>171</ele>
        <time>2016-10-08T08:58:10Z</time>
      </trkpt>
      <trkpt lat="45.92974" lon="4.72967">
        <ele>171</ele>
        <time>2016-10-08T08:58:11Z</time>
      </trkpt>
      <trkpt lat="45.92979" lon="4.72961">
        <ele>171</ele>
        <time>2016-10-08T08:58:12Z</time>
      </trkpt>
      <trkpt lat="45.92984" lon="4.72955">
        <ele>171</ele>
        <time>2016-10-08T08:58:13Z</time>
      </trkpt>
      <trkpt lat="45.92989" lon="4.72949">
        <ele>171</ele>
        <time>2016-10-08T08:58:14Z</time>
      </trkpt>
      <trkpt lat="45.92994" lon="4.72943">
        <ele>171</ele>
        <time>2016-10-08T08:58:15Z</time>
      </trkpt>
      <trkpt lat="45.92999" lon="4.72937">
        <ele>171</ele>
        <time>2016-10-08T08:58:16Z</time>
      </trkpt>
      <trkpt lat="45.93004" lon="4.72931">
        <ele>170</ele>
        <time>2016-10-08T08:58:17Z</time>
      </trkpt>
      <trkpt lat="45.93009" lon="4.72925">
        <ele>170</ele>
        <time>2016-10-08T08:58:18Z</time>
      </trkpt>
      <trkpt lat="45.93013" lon="4.72919">
        <ele>170</ele>
        <time>2016-10-08T08:58:19Z</time>
      </trkpt>
      <trkpt lat="45.93018" lon="4.72913">
        <ele>171</ele>
        <time>2016-10-08T08:58:20Z</time>
      </trkpt>
      <trkpt lat="45.93022" lon="4.72907">
        <ele>172</ele>
        <time>2016-10-08T08:58:21Z</time>
      </trkpt>
      <trkpt lat="45.93026" lon="4.72902">
        <ele>172</ele>
        <time>2016-10-08T08:58:22Z</time>
      </trkpt>
      <trkpt lat="45.9303" lon="4.72896">
        <ele>172</ele>
        <time>2016-10-08T08:58:23Z</time>
      </trkpt>
      <trkpt lat="45.93035" lon="4.72891">
        <ele>172</ele>
        <time>2016-10-08T08:58:24Z</time>
      </trkpt>
      <trkpt lat="45.93039" lon="4.72885">
        <ele>172</ele>
        <time>2016-10-08T08:58:25Z</time>
      </trkpt>
      <trkpt lat="45.93044" lon="4.7288">
        <ele>172</ele>
        <time>2016-10-08T08:58:26Z</time>
      </trkpt>
      <trkpt lat="45.93049" lon="4.72875">
        <ele>172</ele>
        <time>2016-10-08T08:58:27Z</time>
      </trkpt>
      <trkpt lat="45.93054" lon="4.72869">
        <ele>172</ele>
        <time>2016-10-08T08:58:28Z</time>
      </trkpt>
      <trkpt lat="45.93059" lon="4.72863">
        <ele>172</ele>
        <time>2016-10-08T08:58:29Z</time>
      </trkpt>
      <trkpt lat="45.93064" lon="4.72858">
        <ele>172</ele>
        <time>2016-10-08T08:58:30Z</time>
      </trkpt>
      <trkpt lat="45.93069" lon="4.72853">
        <ele>172</ele>
        <time>2016-10-08T08:58:31Z</time>
      </trkpt>
      <trkpt lat="45.93073" lon="4.72847">
        <ele>172</ele>
        <time>2016-10-08T08:58:32Z</time>
      </trkpt>
      <trkpt lat="45.93077" lon="4.72841">
        <ele>173</ele>
        <time>2016-10-08T08:58:33Z</time>
      </trkpt>
      <trkpt lat="45.93082" lon="4.72835">
        <ele>173</ele>
        <time>2016-10-08T08:58:34Z</time>
      </trkpt>
      <trkpt lat="45.93087" lon="4.72829">
        <ele>173</ele>
        <time>2016-10-08T08:58:35Z</time>
      </trkpt>
      <trkpt lat="45.93092" lon="4.7282">
        <ele>172</ele>
        <time>2016-10-08T08:58:36Z</time>
      </trkpt>
      <trkpt lat="45.93099" lon="4.72815">
        <ele>172</ele>
        <time>2016-10-08T08:58:37Z</time>
      </trkpt>
      <trkpt lat="45.93105" lon="4.7281">
        <ele>171</ele>
        <time>2016-10-08T08:58:38Z</time>
      </trkpt>
      <trkpt lat="45.93111" lon="4.72805">
        <ele>171</ele>
        <time>2016-10-08T08:58:39Z</time>
      </trkpt>
      <trkpt lat="45.93117" lon="4.728">
        <ele>171</ele>
        <time>2016-10-08T08:58:40Z</time>
      </trkpt>
      <trkpt lat="45.93122" lon="4.72798">
        <ele>171</ele>
        <time>2016-10-08T08:58:41Z</time>
      </trkpt>
      <trkpt lat="45.93127" lon="4.72795">
        <ele>171</ele>
        <time>2016-10-08T08:58:42Z</time>
      </trkpt>
      <trkpt lat="45.93133" lon="4.72789">
        <ele>171</ele>
        <time>2016-10-08T08:58:43Z</time>
      </trkpt>
      <trkpt lat="45.93138" lon="4.72783">
        <ele>171</ele>
        <time>2016-10-08T08:58:44Z</time>
      </trkpt>
      <trkpt lat="45.93144" lon="4.72777">
        <ele>171</ele>
        <time>2016-10-08T08:58:45Z</time>
      </trkpt>
      <trkpt lat="45.93149" lon="4.7277">
        <ele>171</ele>
        <time>2016-10-08T08:58:46Z</time>
      </trkpt>
      <trkpt lat="45.93154" lon="4.72762">
        <ele>170</ele>
        <time>2016-10-08T08:58:47Z</time>
      </trkpt>
      <trkpt lat="45.93159" lon="4.72755">
        <ele>170</ele>
        <time>2016-10-08T08:58:48Z</time>
      </trkpt>
      <trkpt lat="45.93164" lon="4.72748">
        <ele>170</ele>
        <time>2016-10-08T08:58:49Z</time>
      </trkpt>
      <trkpt lat="45.9317" lon="4.72741">
        <ele>170</ele>
        <time>2016-10-08T08:58:50Z</time>
      </trkpt>
      <trkpt lat="45.93175" lon="4.72734">
        <ele>170</ele>
        <time>2016-10-08T08:58:51Z</time>
      </trkpt>
      <trkpt lat="45.93181" lon="4.72727">
        <ele>170</ele>
        <time>2016-10-08T08:58:52Z</time>
      </trkpt>
      <trkpt lat="45.93186" lon="4.72719">
        <ele>169</ele>
        <time>2016-10-08T08:58:53Z</time>
      </trkpt>
      <trkpt lat="45.93191" lon="4.72713">
        <ele>169</ele>
        <time>2016-10-08T08:58:54Z</time>
      </trkpt>
      <trkpt lat="45.93196" lon="4.72707">
        <ele>169</ele>
        <time>2016-10-08T08:58:55Z</time>
      </trkpt>
      <trkpt lat="45.93201" lon="4.72701">
        <ele>169</ele>
        <time>2016-10-08T08:58:56Z</time>
      </trkpt>
      <trkpt lat="45.93207" lon="4.72695">
        <ele>169</ele>
        <time>2016-10-08T08:58:57Z</time>
      </trkpt>
      <trkpt lat="45.93211" lon="4.72689">
        <ele>169</ele>
        <time>2016-10-08T08:58:58Z</time>
      </trkpt>
      <trkpt lat="45.93216" lon="4.72684">
        <ele>169</ele>
        <time>2016-10-08T08:58:59Z</time>
      </trkpt>
      <trkpt lat="45.93221" lon="4.72678">
        <ele>169</ele>
        <time>2016-10-08T08:59:00Z</time>
      </trkpt>
      <trkpt lat="45.93226" lon="4.72669">
        <ele>169</ele>
        <time>2016-10-08T08:59:01Z</time>
      </trkpt>
      <trkpt lat="45.93232" lon="4.72661">
        <ele>169</ele>
        <time>2016-10-08T08:59:02Z</time>
      </trkpt>
      <trkpt lat="45.93237" lon="4.72655">
        <ele>169</ele>
        <time>2016-10-08T08:59:03Z</time>
      </trkpt>
      <trkpt lat="45.93242" lon="4.72648">
        <ele>170</ele>
        <time>2016-10-08T08:59:04Z</time>
      </trkpt>
      <trkpt lat="45.93248" lon="4.72641">
        <ele>170</ele>
        <time>2016-10-08T08:59:05Z</time>
      </trkpt>
      <trkpt lat="45.93253" lon="4.72636">
        <ele>170</ele>
        <time>2016-10-08T08:59:06Z</time>
      </trkpt>
      <trkpt lat="45.93258" lon="4.7263">
        <ele>170</ele>
        <time>2016-10-08T08:59:07Z</time>
      </trkpt>
      <trkpt lat="45.93263" lon="4.72624">
        <ele>170</ele>
        <time>2016-10-08T08:59:08Z</time>
      </trkpt>
      <trkpt lat="45.93268" lon="4.72618">
        <ele>170</ele>
        <time>2016-10-08T08:59:09Z</time>
      </trkpt>
      <trkpt lat="45.93274" lon="4.72613">
        <ele>170</ele>
        <time>2016-10-08T08:59:10Z</time>
      </trkpt>
      <trkpt lat="45.93279" lon="4.72607">
        <ele>170</ele>
        <time>2016-10-08T08:59:11Z</time>
      </trkpt>
      <trkpt lat="45.93284" lon="4.72601">
        <ele>170</ele>
        <time>2016-10-08T08:59:12Z</time>
      </trkpt>
      <trkpt lat="45.9329" lon="4.72594">
        <ele>170</ele>
        <time>2016-10-08T08:59:13Z</time>
      </trkpt>
      <trkpt lat="45.93295" lon="4.72588">
        <ele>170</ele>
        <time>2016-10-08T08:59:14Z</time>
      </trkpt>
      <trkpt lat="45.933" lon="4.72582">
        <ele>171</ele>
        <time>2016-10-08T08:59:15Z</time>
      </trkpt>
      <trkpt lat="45.93305" lon="4.72575">
        <ele>171</ele>
        <time>2016-10-08T08:59:16Z</time>
      </trkpt>
      <trkpt lat="45.9331" lon="4.7257">
        <ele>171</ele>
        <time>2016-10-08T08:59:17Z</time>
      </trkpt>
      <trkpt lat="45.93316" lon="4.72563">
        <ele>171</ele>
        <time>2016-10-08T08:59:18Z</time>
      </trkpt>
      <trkpt lat="45.93321" lon="4.72557">
        <ele>171</ele>
        <time>2016-10-08T08:59:19Z</time>
      </trkpt>
      <trkpt lat="45.93327" lon="4.72551">
        <ele>172</ele>
        <time>2016-10-08T08:59:20Z</time>
      </trkpt>
      <trkpt lat="45.93333" lon="4.72545">
        <ele>172</ele>
        <time>2016-10-08T08:59:21Z</time>
      </trkpt>
      <trkpt lat="45.93338" lon="4.72539">
        <ele>171</ele>
        <time>2016-10-08T08:59:22Z</time>
      </trkpt>
      <trkpt lat="45.93343" lon="4.72533">
        <ele>172</ele>
        <time>2016-10-08T08:59:23Z</time>
      </trkpt>
      <trkpt lat="45.93349" lon="4.72527">
        <ele>172</ele>
        <time>2016-10-08T08:59:24Z</time>
      </trkpt>
      <trkpt lat="45.93354" lon="4.72521">
        <ele>172</ele>
        <time>2016-10-08T08:59:25Z</time>
      </trkpt>
      <trkpt lat="45.93359" lon="4.72516">
        <ele>172</ele>
        <time>2016-10-08T08:59:26Z</time>
      </trkpt>
      <trkpt lat="45.93363" lon="4.7251">
        <ele>172</ele>
        <time>2016-10-08T08:59:27Z</time>
      </trkpt>
      <trkpt lat="45.93368" lon="4.72505">
        <ele>172</ele>
        <time>2016-10-08T08:59:28Z</time>
      </trkpt>
      <trkpt lat="45.93372" lon="4.72501">
        <ele>172</ele>
        <time>2016-10-08T08:59:29Z</time>
      </trkpt>
      <trkpt lat="45.93377" lon="4.72496">
        <ele>173</ele>
        <time>2016-10-08T08:59:30Z</time>
      </trkpt>
      <trkpt lat="45.93381" lon="4.72491">
        <ele>173</ele>
        <time>2016-10-08T08:59:31Z</time>
      </trkpt>
      <trkpt lat="45.93388" lon="4.72485">
        <ele>173</ele>
        <time>2016-10-08T08:59:33Z</time>
      </trkpt>
      <trkpt lat="45.93392" lon="4.7248">
        <ele>173</ele>
        <time>2016-10-08T08:59:34Z</time>
      </trkpt>
      <trkpt lat="45.93396" lon="4.72473">
        <ele>173</ele>
        <time>2016-10-08T08:59:35Z</time>
      </trkpt>
      <trkpt lat="45.93398" lon="4.72467">
        <ele>173</ele>
        <time>2016-10-08T08:59:36Z</time>
      </trkpt>
      <trkpt lat="45.93402" lon="4.72456">
        <ele>173</ele>
        <time>2016-10-08T08:59:38Z</time>
      </trkpt>
      <trkpt lat="45.93403" lon="4.72448">
        <ele>173</ele>
        <time>2016-10-08T08:59:39Z</time>
      </trkpt>
      <trkpt lat="45.93406" lon="4.72441">
        <ele>173</ele>
        <time>2016-10-08T08:59:40Z</time>
      </trkpt>
      <trkpt lat="45.93409" lon="4.72435">
        <ele>173</ele>
        <time>2016-10-08T08:59:41Z</time>
      </trkpt>
      <trkpt lat="45.93413" lon="4.72429">
        <ele>174</ele>
        <time>2016-10-08T08:59:42Z</time>
      </trkpt>
      <trkpt lat="45.93418" lon="4.72425">
        <ele>174</ele>
        <time>2016-10-08T08:59:43Z</time>
      </trkpt>
      <trkpt lat="45.93423" lon="4.72421">
        <ele>174</ele>
        <time>2016-10-08T08:59:44Z</time>
      </trkpt>
      <trkpt lat="45.93428" lon="4.72419">
        <ele>174</ele>
        <time>2016-10-08T08:59:45Z</time>
      </trkpt>
      <trkpt lat="45.93433" lon="4.72416">
        <ele>174</ele>
        <time>2016-10-08T08:59:46Z</time>
      </trkpt>
      <trkpt lat="45.93439" lon="4.72413">
        <ele>174</ele>
        <time>2016-10-08T08:59:47Z</time>
      </trkpt>
      <trkpt lat="45.93444" lon="4.7241">
        <ele>173</ele>
        <time>2016-10-08T08:59:48Z</time>
      </trkpt>
      <trkpt lat="45.93449" lon="4.72406">
        <ele>173</ele>
        <time>2016-10-08T08:59:49Z</time>
      </trkpt>
      <trkpt lat="45.93454" lon="4.72402">
        <ele>173</ele>
        <time>2016-10-08T08:59:50Z</time>
      </trkpt>
      <trkpt lat="45.93459" lon="4.72397">
        <ele>173</ele>
        <time>2016-10-08T08:59:51Z</time>
      </trkpt>
      <trkpt lat="45.93464" lon="4.72392">
        <ele>173</ele>
        <time>2016-10-08T08:59:52Z</time>
      </trkpt>
      <trkpt lat="45.93469" lon="4.72386">
        <ele>173</ele>
        <time>2016-10-08T08:59:53Z</time>
      </trkpt>
      <trkpt lat="45.93474" lon="4.7238">
        <ele>173</ele>
        <time>2016-10-08T08:59:54Z</time>
      </trkpt>
      <trkpt lat="45.93478" lon="4.72374">
        <ele>173</ele>
        <time>2016-10-08T08:59:55Z</time>
      </trkpt>
      <trkpt lat="45.93483" lon="4.72367">
        <ele>173</ele>
        <time>2016-10-08T08:59:56Z</time>
      </trkpt>
      <trkpt lat="45.93488" lon="4.72361">
        <ele>173</ele>
        <time>2016-10-08T08:59:57Z</time>
      </trkpt>
      <trkpt lat="45.93492" lon="4.72355">
        <ele>173</ele>
        <time>2016-10-08T08:59:58Z</time>
      </trkpt>
      <trkpt lat="45.93497" lon="4.72349">
        <ele>173</ele>
        <time>2016-10-08T08:59:59Z</time>
      </trkpt>
      <trkpt lat="45.93501" lon="4.72342">
        <ele>173</ele>
        <time>2016-10-08T09:00:00Z</time>
      </trkpt>
      <trkpt lat="45.93506" lon="4.72335">
        <ele>173</ele>
        <time>2016-10-08T09:00:01Z</time>
      </trkpt>
      <trkpt lat="45.9351" lon="4.72329">
        <ele>173</ele>
        <time>2016-10-08T09:00:02Z</time>
      </trkpt>
      <trkpt lat="45.93515" lon="4.72324">
        <ele>173</ele>
        <time>2016-10-08T09:00:03Z</time>
      </trkpt>
      <trkpt lat="45.93519" lon="4.72317">
        <ele>173</ele>
        <time>2016-10-08T09:00:04Z</time>
      </trkpt>
      <trkpt lat="45.93522" lon="4.72311">
        <ele>173</ele>
        <time>2016-10-08T09:00:05Z</time>
      </trkpt>
      <trkpt lat="45.93525" lon="4.72304">
        <ele>173</ele>
        <time>2016-10-08T09:00:06Z</time>
      </trkpt>
      <trkpt lat="45.93528" lon="4.72297">
        <ele>172</ele>
        <time>2016-10-08T09:00:07Z</time>
      </trkpt>
      <trkpt lat="45.93531" lon="4.7229">
        <ele>172</ele>
        <time>2016-10-08T09:00:08Z</time>
      </trkpt>
      <trkpt lat="45.93533" lon="4.72283">
        <ele>172</ele>
        <time>2016-10-08T09:00:09Z</time>
      </trkpt>
      <trkpt lat="45.93536" lon="4.72276">
        <ele>172</ele>
        <time>2016-10-08T09:00:10Z</time>
      </trkpt>
      <trkpt lat="45.9354" lon="4.72269">
        <ele>172</ele>
        <time>2016-10-08T09:00:11Z</time>
      </trkpt>
      <trkpt lat="45.93542" lon="4.72262">
        <ele>172</ele>
        <time>2016-10-08T09:00:12Z</time>
      </trkpt>
      <trkpt lat="45.93545" lon="4.72255">
        <ele>172</ele>
        <time>2016-10-08T09:00:13Z</time>
      </trkpt>
      <trkpt lat="45.93548" lon="4.72248">
        <ele>172</ele>
        <time>2016-10-08T09:00:14Z</time>
      </trkpt>
      <trkpt lat="45.9355" lon="4.72241">
        <ele>172</ele>
        <time>2016-10-08T09:00:15Z</time>
      </trkpt>
      <trkpt lat="45.93554" lon="4.72235">
        <ele>173</ele>
        <time>2016-10-08T09:00:16Z</time>
      </trkpt>
      <trkpt lat="45.93558" lon="4.72231">
        <ele>173</ele>
        <time>2016-10-08T09:00:17Z</time>
      </trkpt>
      <trkpt lat="45.93563" lon="4.72229">
        <ele>173</ele>
        <time>2016-10-08T09:00:18Z</time>
      </trkpt>
      <trkpt lat="45.93568" lon="4.72231">
        <ele>173</ele>
        <time>2016-10-08T09:00:19Z</time>
      </trkpt>
      <trkpt lat="45.93573" lon="4.72235">
        <ele>173</ele>
        <time>2016-10-08T09:00:20Z</time>
      </trkpt>
      <trkpt lat="45.93577" lon="4.72238">
        <ele>173</ele>
        <time>2016-10-08T09:00:21Z</time>
      </trkpt>
      <trkpt lat="45.93581" lon="4.72247">
        <ele>173</ele>
        <time>2016-10-08T09:00:23Z</time>
      </trkpt>
      <trkpt lat="45.93584" lon="4.72256">
        <ele>173</ele>
        <time>2016-10-08T09:00:24Z</time>
      </trkpt>
      <trkpt lat="45.93585" lon="4.72266">
        <ele>173</ele>
        <time>2016-10-08T09:00:25Z</time>
      </trkpt>
      <trkpt lat="45.93587" lon="4.72268">
        <ele>173</ele>
        <time>2016-10-08T09:00:26Z</time>
      </trkpt>
      <trkpt lat="45.93592" lon="4.72277">
        <ele>173</ele>
        <time>2016-10-08T09:00:28Z</time>
      </trkpt>
      <trkpt lat="45.93598" lon="4.72277">
        <ele>173</ele>
        <time>2016-10-08T09:00:29Z</time>
      </trkpt>
      <trkpt lat="45.93602" lon="4.72282">
        <ele>172</ele>
        <time>2016-10-08T09:00:30Z</time>
      </trkpt>
      <trkpt lat="45.93606" lon="4.72286">
        <ele>172</ele>
        <time>2016-10-08T09:00:31Z</time>
      </trkpt>
      <trkpt lat="45.9361" lon="4.72289">
        <ele>172</ele>
        <time>2016-10-08T09:00:32Z</time>
      </trkpt>
      <trkpt lat="45.93615" lon="4.72294">
        <ele>172</ele>
        <time>2016-10-08T09:00:33Z</time>
      </trkpt>
      <trkpt lat="45.93618" lon="4.72296">
        <ele>172</ele>
        <time>2016-10-08T09:00:34Z</time>
      </trkpt>
      <trkpt lat="45.93625" lon="4.723">
        <ele>172</ele>
        <time>2016-10-08T09:00:35Z</time>
      </trkpt>
      <trkpt lat="45.93629" lon="4.72305">
        <ele>172</ele>
        <time>2016-10-08T09:00:36Z</time>
      </trkpt>
      <trkpt lat="45.93634" lon="4.72311">
        <ele>172</ele>
        <time>2016-10-08T09:00:37Z</time>
      </trkpt>
      <trkpt lat="45.9364" lon="4.72318">
        <ele>172</ele>
        <time>2016-10-08T09:00:38Z</time>
      </trkpt>
      <trkpt lat="45.93645" lon="4.72321">
        <ele>172</ele>
        <time>2016-10-08T09:00:39Z</time>
      </trkpt>
      <trkpt lat="45.93651" lon="4.72325">
        <ele>172</ele>
        <time>2016-10-08T09:00:40Z</time>
      </trkpt>
      <trkpt lat="45.93658" lon="4.72329">
        <ele>171</ele>
        <time>2016-10-08T09:00:41Z</time>
      </trkpt>
      <trkpt lat="45.93666" lon="4.72331">
        <ele>171</ele>
        <time>2016-10-08T09:00:42Z</time>
      </trkpt>
      <trkpt lat="45.93671" lon="4.72331">
        <ele>171</ele>
        <time>2016-10-08T09:00:43Z</time>
      </trkpt>
      <trkpt lat="45.93677" lon="4.72335">
        <ele>171</ele>
        <time>2016-10-08T09:00:44Z</time>
      </trkpt>
      <trkpt lat="45.93682" lon="4.72341">
        <ele>171</ele>
        <time>2016-10-08T09:00:45Z</time>
      </trkpt>
      <trkpt lat="45.93687" lon="4.72343">
        <ele>171</ele>
        <time>2016-10-08T09:00:46Z</time>
      </trkpt>
      <trkpt lat="45.93691" lon="4.72344">
        <ele>171</ele>
        <time>2016-10-08T09:00:47Z</time>
      </trkpt>
      <trkpt lat="45.93694" lon="4.72347">
        <ele>171</ele>
        <time>2016-10-08T09:00:48Z</time>
      </trkpt>
      <trkpt lat="45.93699" lon="4.72354">
        <ele>171</ele>
        <time>2016-10-08T09:00:49Z</time>
      </trkpt>
      <trkpt lat="45.93704" lon="4.72359">
        <ele>171</ele>
        <time>2016-10-08T09:00:50Z</time>
      </trkpt>
      <trkpt lat="45.93709" lon="4.72363">
        <ele>172</ele>
        <time>2016-10-08T09:00:51Z</time>
      </trkpt>
      <trkpt lat="45.93714" lon="4.72363">
        <ele>172</ele>
        <time>2016-10-08T09:00:52Z</time>
      </trkpt>
      <trkpt lat="45.93718" lon="4.7236">
        <ele>172</ele>
        <time>2016-10-08T09:00:53Z</time>
      </trkpt>
      <trkpt lat="45.93722" lon="4.72355">
        <ele>172</ele>
        <time>2016-10-08T09:00:54Z</time>
      </trkpt>
      <trkpt lat="45.93726" lon="4.7235">
        <ele>172</ele>
        <time>2016-10-08T09:00:55Z</time>
      </trkpt>
      <trkpt lat="45.93729" lon="4.72344">
        <ele>172</ele>
        <time>2016-10-08T09:00:56Z</time>
      </trkpt>
      <trkpt lat="45.93733" lon="4.72339">
        <ele>172</ele>
        <time>2016-10-08T09:00:57Z</time>
      </trkpt>
      <trkpt lat="45.93736" lon="4.72332">
        <ele>172</ele>
        <time>2016-10-08T09:00:58Z</time>
      </trkpt>
      <trkpt lat="45.93739" lon="4.72326">
        <ele>172</ele>
        <time>2016-10-08T09:00:59Z</time>
      </trkpt>
      <trkpt lat="45.93743" lon="4.72318">
        <ele>172</ele>
        <time>2016-10-08T09:01:00Z</time>
      </trkpt>
      <trkpt lat="45.93747" lon="4.7231">
        <ele>172</ele>
        <time>2016-10-08T09:01:01Z</time>
      </trkpt>
      <trkpt lat="45.93751" lon="4.72303">
        <ele>172</ele>
        <time>2016-10-08T09:01:02Z</time>
      </trkpt>
      <trkpt lat="45.93755" lon="4.72297">
        <ele>172</ele>
        <time>2016-10-08T09:01:03Z</time>
      </trkpt>
      <trkpt lat="45.93759" lon="4.7229">
        <ele>172</ele>
        <time>2016-10-08T09:01:04Z</time>
      </trkpt>
      <trkpt lat="45.93764" lon="4.72284">
        <ele>172</ele>
        <time>2016-10-08T09:01:05Z</time>
      </trkpt>
      <trkpt lat="45.93767" lon="4.72277">
        <ele>172</ele>
        <time>2016-10-08T09:01:06Z</time>
      </trkpt>
      <trkpt lat="45.93771" lon="4.72271">
        <ele>172</ele>
        <time>2016-10-08T09:01:07Z</time>
      </trkpt>
      <trkpt lat="45.93775" lon="4.72263">
        <ele>172</ele>
        <time>2016-10-08T09:01:08Z</time>
      </trkpt>
      <trkpt lat="45.93779" lon="4.72256">
        <ele>172</ele>
        <time>2016-10-08T09:01:09Z</time>
      </trkpt>
      <trkpt lat="45.93783" lon="4.72249">
        <ele>172</ele>
        <time>2016-10-08T09:01:10Z</time>
      </trkpt>
      <trkpt lat="45.93787" lon="4.72242">
        <ele>172</ele>
        <time>2016-10-08T09:01:11Z</time>
      </trkpt>
      <trkpt lat="45.93791" lon="4.72236">
        <ele>172</ele>
        <time>2016-10-08T09:01:12Z</time>
      </trkpt>
      <trkpt lat="45.93795" lon="4.72229">
        <ele>172</ele>
        <time>2016-10-08T09:01:13Z</time>
      </trkpt>
      <trkpt lat="45.93799" lon="4.72224">
        <ele>172</ele>
        <time>2016-10-08T09:01:14Z</time>
      </trkpt>
      <trkpt lat="45.93803" lon="4.72218">
        <ele>172</ele>
        <time>2016-10-08T09:01:15Z</time>
      </trkpt>
      <trkpt lat="45.93807" lon="4.72212">
        <ele>172</ele>
        <time>2016-10-08T09:01:16Z</time>
      </trkpt>
      <trkpt lat="45.9381" lon="4.72206">
        <ele>172</ele>
        <time>2016-10-08T09:01:17Z</time>
      </trkpt>
      <trkpt lat="45.93813" lon="4.72199">
        <ele>172</ele>
        <time>2016-10-08T09:01:18Z</time>
      </trkpt>
      <trkpt lat="45.93816" lon="4.7219">
        <ele>172</ele>
        <time>2016-10-08T09:01:19Z</time>
      </trkpt>
      <trkpt lat="45.93818" lon="4.72182">
        <ele>172</ele>
        <time>2016-10-08T09:01:20Z</time>
      </trkpt>
      <trkpt lat="45.93821" lon="4.72177">
        <ele>172</ele>
        <time>2016-10-08T09:01:21Z</time>
      </trkpt>
      <trkpt lat="45.93829" lon="4.72172">
        <ele>171</ele>
        <time>2016-10-08T09:01:23Z</time>
      </trkpt>
      <trkpt lat="45.93832" lon="4.72168">
        <ele>171</ele>
        <time>2016-10-08T09:01:24Z</time>
      </trkpt>
      <trkpt lat="45.93836" lon="4.72158">
        <ele>171</ele>
        <time>2016-10-08T09:01:26Z</time>
      </trkpt>
      <trkpt lat="45.93838" lon="4.72155">
        <ele>171</ele>
        <time>2016-10-08T09:01:27Z</time>
      </trkpt>
      <trkpt lat="45.93844" lon="4.72146">
        <ele>172</ele>
        <time>2016-10-08T09:01:30Z</time>
      </trkpt>
      <trkpt lat="45.93846" lon="4.72142">
        <ele>172</ele>
        <time>2016-10-08T09:01:31Z</time>
      </trkpt>
      <trkpt lat="45.9385" lon="4.72135">
        <ele>172</ele>
        <time>2016-10-08T09:01:33Z</time>
      </trkpt>
      <trkpt lat="45.93852" lon="4.72131">
        <ele>172</ele>
        <time>2016-10-08T09:01:34Z</time>
      </trkpt>
      <trkpt lat="45.93855" lon="4.72126">
        <ele>172</ele>
        <time>2016-10-08T09:01:35Z</time>
      </trkpt>
      <trkpt lat="45.93858" lon="4.72121">
        <ele>172</ele>
        <time>2016-10-08T09:01:36Z</time>
      </trkpt>
      <trkpt lat="45.93865" lon="4.72113">
        <ele>172</ele>
        <time>2016-10-08T09:01:38Z</time>
      </trkpt>
      <trkpt lat="45.93868" lon="4.72104">
        <ele>172</ele>
        <time>2016-10-08T09:01:39Z</time>
      </trkpt>
      <trkpt lat="45.93874" lon="4.72095">
        <ele>172</ele>
        <time>2016-10-08T09:01:41Z</time>
      </trkpt>
      <trkpt lat="45.93876" lon="4.72091">
        <ele>172</ele>
        <time>2016-10-08T09:01:42Z</time>
      </trkpt>
      <trkpt lat="45.93882" lon="4.72083">
        <ele>172</ele>
        <time>2016-10-08T09:01:44Z</time>
      </trkpt>
      <trkpt lat="45.93885" lon="4.7208">
        <ele>172</ele>
        <time>2016-10-08T09:01:45Z</time>
      </trkpt>
      <trkpt lat="45.93891" lon="4.72073">
        <ele>172</ele>
        <time>2016-10-08T09:01:47Z</time>
      </trkpt>
      <trkpt lat="45.93895" lon="4.72069">
        <ele>172</ele>
        <time>2016-10-08T09:01:48Z</time>
      </trkpt>
      <trkpt lat="45.93902" lon="4.72062">
        <ele>172</ele>
        <time>2016-10-08T09:01:50Z</time>
      </trkpt>
      <trkpt lat="45.93906" lon="4.72058">
        <ele>172</ele>
        <time>2016-10-08T09:01:51Z</time>
      </trkpt>
      <trkpt lat="45.9391" lon="4.72053">
        <ele>172</ele>
        <time>2016-10-08T09:01:52Z</time>
      </trkpt>
      <trkpt lat="45.93915" lon="4.72049">
        <ele>172</ele>
        <time>2016-10-08T09:01:53Z</time>
      </trkpt>
      <trkpt lat="45.9392" lon="4.72046">
        <ele>172</ele>
        <time>2016-10-08T09:01:54Z</time>
      </trkpt>
      <trkpt lat="45.93925" lon="4.72041">
        <ele>172</ele>
        <time>2016-10-08T09:01:55Z</time>
      </trkpt>
      <trkpt lat="45.93931" lon="4.72036">
        <ele>172</ele>
        <time>2016-10-08T09:01:56Z</time>
      </trkpt>
      <trkpt lat="45.93935" lon="4.7203">
        <ele>172</ele>
        <time>2016-10-08T09:01:57Z</time>
      </trkpt>
      <trkpt lat="45.9394" lon="4.72025">
        <ele>172</ele>
        <time>2016-10-08T09:01:58Z</time>
      </trkpt>
      <trkpt lat="45.93944" lon="4.72019">
        <ele>172</ele>
        <time>2016-10-08T09:01:59Z</time>
      </trkpt>
      <trkpt lat="45.93948" lon="4.72014">
        <ele>172</ele>
        <time>2016-10-08T09:02:00Z</time>
      </trkpt>
      <trkpt lat="45.93953" lon="4.72009">
        <ele>172</ele>
        <time>2016-10-08T09:02:01Z</time>
      </trkpt>
      <trkpt lat="45.93958" lon="4.72004">
        <ele>172</ele>
        <time>2016-10-08T09:02:02Z</time>
      </trkpt>
      <trkpt lat="45.93963" lon="4.71999">
        <ele>173</ele>
        <time>2016-10-08T09:02:03Z</time>
      </trkpt>
      <trkpt lat="45.93968" lon="4.71994">
        <ele>173</ele>
        <time>2016-10-08T09:02:04Z</time>
      </trkpt>
      <trkpt lat="45.93972" lon="4.71989">
        <ele>173</ele>
        <time>2016-10-08T09:02:05Z</time>
      </trkpt>
      <trkpt lat="45.93977" lon="4.71983">
        <ele>173</ele>
        <time>2016-10-08T09:02:06Z</time>
      </trkpt>
      <trkpt lat="45.93982" lon="4.71977">
        <ele>173</ele>
        <time>2016-10-08T09:02:07Z</time>
      </trkpt>
      <trkpt lat="45.93986" lon="4.71974">
        <ele>173</ele>
        <time>2016-10-08T09:02:08Z</time>
      </trkpt>
      <trkpt lat="45.93991" lon="4.71972">
        <ele>173</ele>
        <time>2016-10-08T09:02:09Z</time>
      </trkpt>
      <trkpt lat="45.93996" lon="4.71972">
        <ele>173</ele>
        <time>2016-10-08T09:02:10Z</time>
      </trkpt>
      <trkpt lat="45.94001" lon="4.71974">
        <ele>174</ele>
        <time>2016-10-08T09:02:11Z</time>
      </trkpt>
      <trkpt lat="45.94006" lon="4.71978">
        <ele>174</ele>
        <time>2016-10-08T09:02:12Z</time>
      </trkpt>
      <trkpt lat="45.9401" lon="4.71983">
        <ele>174</ele>
        <time>2016-10-08T09:02:13Z</time>
      </trkpt>
      <trkpt lat="45.94013" lon="4.71989">
        <ele>174</ele>
        <time>2016-10-08T09:02:14Z</time>
      </trkpt>
      <trkpt lat="45.94017" lon="4.71996">
        <ele>174</ele>
        <time>2016-10-08T09:02:15Z</time>
      </trkpt>
      <trkpt lat="45.94021" lon="4.72001">
        <ele>173</ele>
        <time>2016-10-08T09:02:16Z</time>
      </trkpt>
      <trkpt lat="45.94024" lon="4.72008">
        <ele>173</ele>
        <time>2016-10-08T09:02:17Z</time>
      </trkpt>
      <trkpt lat="45.94028" lon="4.72015">
        <ele>173</ele>
        <time>2016-10-08T09:02:18Z</time>
      </trkpt>
      <trkpt lat="45.94032" lon="4.72021">
        <ele>173</ele>
        <time>2016-10-08T09:02:19Z</time>
      </trkpt>
      <trkpt lat="45.94035" lon="4.72027">
        <ele>173</ele>
        <time>2016-10-08T09:02:20Z</time>
      </trkpt>
      <trkpt lat="45.94038" lon="4.72033">
        <ele>173</ele>
        <time>2016-10-08T09:02:21Z</time>
      </trkpt>
      <trkpt lat="45.94044" lon="4.72042">
        <ele>173</ele>
        <time>2016-10-08T09:02:23Z</time>
      </trkpt>
      <trkpt lat="45.94048" lon="4.72045">
        <ele>173</ele>
        <time>2016-10-08T09:02:24Z</time>
      </trkpt>
      <trkpt lat="45.94052" lon="4.72045">
        <ele>173</ele>
        <time>2016-10-08T09:02:25Z</time>
      </trkpt>
      <trkpt lat="45.94057" lon="4.72043">
        <ele>173</ele>
        <time>2016-10-08T09:02:26Z</time>
      </trkpt>
      <trkpt lat="45.94061" lon="4.72039">
        <ele>173</ele>
        <time>2016-10-08T09:02:27Z</time>
      </trkpt>
      <trkpt lat="45.94065" lon="4.72034">
        <ele>174</ele>
        <time>2016-10-08T09:02:28Z</time>
      </trkpt>
      <trkpt lat="45.9407" lon="4.72029">
        <ele>174</ele>
        <time>2016-10-08T09:02:29Z</time>
      </trkpt>
      <trkpt lat="45.94074" lon="4.72023">
        <ele>174</ele>
        <time>2016-10-08T09:02:30Z</time>
      </trkpt>
      <trkpt lat="45.94078" lon="4.72017">
        <ele>174</ele>
        <time>2016-10-08T09:02:31Z</time>
      </trkpt>
      <trkpt lat="45.94083" lon="4.72012">
        <ele>174</ele>
        <time>2016-10-08T09:02:32Z</time>
      </trkpt>
      <trkpt lat="45.94087" lon="4.72008">
        <ele>174</ele>
        <time>2016-10-08T09:02:33Z</time>
      </trkpt>
      <trkpt lat="45.94092" lon="4.72003">
        <ele>174</ele>
        <time>2016-10-08T09:02:34Z</time>
      </trkpt>
      <trkpt lat="45.94096" lon="4.71998">
        <ele>175</ele>
        <time>2016-10-08T09:02:35Z</time>
      </trkpt>
      <trkpt lat="45.941" lon="4.71993">
        <ele>174</ele>
        <time>2016-10-08T09:02:36Z</time>
      </trkpt>
      <trkpt lat="45.94104" lon="4.71988">
        <ele>174</ele>
        <time>2016-10-08T09:02:37Z</time>
      </trkpt>
      <trkpt lat="45.94108" lon="4.71984">
        <ele>174</ele>
        <time>2016-10-08T09:02:38Z</time>
      </trkpt>
      <trkpt lat="45.94112" lon="4.7198">
        <ele>174</ele>
        <time>2016-10-08T09:02:39Z</time>
      </trkpt>
      <trkpt lat="45.94116" lon="4.71977">
        <ele>174</ele>
        <time>2016-10-08T09:02:40Z</time>
      </trkpt>
      <trkpt lat="45.94121" lon="4.71974">
        <ele>174</ele>
        <time>2016-10-08T09:02:41Z</time>
      </trkpt>
      <trkpt lat="45.94125" lon="4.71973">
        <ele>174</ele>
        <time>2016-10-08T09:02:42Z</time>
      </trkpt>
      <trkpt lat="45.94134" lon="4.71975">
        <ele>174</ele>
        <time>2016-10-08T09:02:44Z</time>
      </trkpt>
      <trkpt lat="45.94138" lon="4.71978">
        <ele>174</ele>
        <time>2016-10-08T09:02:45Z</time>
      </trkpt>
      <trkpt lat="45.94145" lon="4.71986">
        <ele>173</ele>
        <time>2016-10-08T09:02:47Z</time>
      </trkpt>
      <trkpt lat="45.94148" lon="4.71991">
        <ele>173</ele>
        <time>2016-10-08T09:02:48Z</time>
      </trkpt>
      <trkpt lat="45.94153" lon="4.71999">
        <ele>173</ele>
        <time>2016-10-08T09:02:50Z</time>
      </trkpt>
      <trkpt lat="45.94155" lon="4.72003">
        <ele>173</ele>
        <time>2016-10-08T09:02:51Z</time>
      </trkpt>
      <trkpt lat="45.94159" lon="4.72011">
        <ele>173</ele>
        <time>2016-10-08T09:02:53Z</time>
      </trkpt>
      <trkpt lat="45.9416" lon="4.72015">
        <ele>173</ele>
        <time>2016-10-08T09:02:54Z</time>
      </trkpt>
      <trkpt lat="45.94164" lon="4.72023">
        <ele>173</ele>
        <time>2016-10-08T09:02:56Z</time>
      </trkpt>
      <trkpt lat="45.94166" lon="4.72027">
        <ele>173</ele>
        <time>2016-10-08T09:02:57Z</time>
      </trkpt>
      <trkpt lat="45.9417" lon="4.72035">
        <ele>173</ele>
        <time>2016-10-08T09:02:59Z</time>
      </trkpt>
      <trkpt lat="45.94172" lon="4.72039">
        <ele>173</ele>
        <time>2016-10-08T09:03:00Z</time>
      </trkpt>
      <trkpt lat="45.94176" lon="4.72047">
        <ele>173</ele>
        <time>2016-10-08T09:03:02Z</time>
      </trkpt>
      <trkpt lat="45.94177" lon="4.72051">
        <ele>173</ele>
        <time>2016-10-08T09:03:03Z</time>
      </trkpt>
      <trkpt lat="45.94182" lon="4.72059">
        <ele>173</ele>
        <time>2016-10-08T09:03:05Z</time>
      </trkpt>
      <trkpt lat="45.94184" lon="4.72063">
        <ele>173</ele>
        <time>2016-10-08T09:03:06Z</time>
      </trkpt>
      <trkpt lat="45.94188" lon="4.72073">
        <ele>173</ele>
        <time>2016-10-08T09:03:08Z</time>
      </trkpt>
      <trkpt lat="45.94191" lon="4.72078">
        <ele>173</ele>
        <time>2016-10-08T09:03:09Z</time>
      </trkpt>
      <trkpt lat="45.94193" lon="4.72084">
        <ele>172</ele>
        <time>2016-10-08T09:03:10Z</time>
      </trkpt>
      <trkpt lat="45.94196" lon="4.7209">
        <ele>172</ele>
        <time>2016-10-08T09:03:11Z</time>
      </trkpt>
      <trkpt lat="45.94199" lon="4.72096">
        <ele>173</ele>
        <time>2016-10-08T09:03:12Z</time>
      </trkpt>
      <trkpt lat="45.94202" lon="4.72103">
        <ele>173</ele>
        <time>2016-10-08T09:03:13Z</time>
      </trkpt>
      <trkpt lat="45.94205" lon="4.7211">
        <ele>173</ele>
        <time>2016-10-08T09:03:14Z</time>
      </trkpt>
      <trkpt lat="45.94208" lon="4.72117">
        <ele>173</ele>
        <time>2016-10-08T09:03:15Z</time>
      </trkpt>
      <trkpt lat="45.94211" lon="4.72124">
        <ele>173</ele>
        <time>2016-10-08T09:03:16Z</time>
      </trkpt>
      <trkpt lat="45.94214" lon="4.72132">
        <ele>173</ele>
        <time>2016-10-08T09:03:17Z</time>
      </trkpt>
      <trkpt lat="45.94217" lon="4.72141">
        <ele>173</ele>
        <time>2016-10-08T09:03:18Z</time>
      </trkpt>
      <trkpt lat="45.9422" lon="4.72151">
        <ele>173</ele>
        <time>2016-10-08T09:03:19Z</time>
      </trkpt>
      <trkpt lat="45.94224" lon="4.72159">
        <ele>173</ele>
        <time>2016-10-08T09:03:20Z</time>
      </trkpt>
      <trkpt lat="45.94229" lon="4.72168">
        <ele>172</ele>
        <time>2016-10-08T09:03:21Z</time>
      </trkpt>
      <trkpt lat="45.94233" lon="4.72177">
        <ele>172</ele>
        <time>2016-10-08T09:03:22Z</time>
      </trkpt>
      <trkpt lat="45.94237" lon="4.72187">
        <ele>172</ele>
        <time>2016-10-08T09:03:23Z</time>
      </trkpt>
      <trkpt lat="45.94241" lon="4.72197">
        <ele>172</ele>
        <time>2016-10-08T09:03:24Z</time>
      </trkpt>
      <trkpt lat="45.94246" lon="4.72207">
        <ele>172</ele>
        <time>2016-10-08T09:03:25Z</time>
      </trkpt>
      <trkpt lat="45.9425" lon="4.72217">
        <ele>171</ele>
        <time>2016-10-08T09:03:26Z</time>
      </trkpt>
      <trkpt lat="45.94254" lon="4.72226">
        <ele>172</ele>
        <time>2016-10-08T09:03:27Z</time>
      </trkpt>
      <trkpt lat="45.94257" lon="4.72234">
        <ele>171</ele>
        <time>2016-10-08T09:03:28Z</time>
      </trkpt>
      <trkpt lat="45.94261" lon="4.72243">
        <ele>171</ele>
        <time>2016-10-08T09:03:29Z</time>
      </trkpt>
      <trkpt lat="45.94265" lon="4.72251">
        <ele>171</ele>
        <time>2016-10-08T09:03:30Z</time>
      </trkpt>
      <trkpt lat="45.94268" lon="4.72259">
        <ele>171</ele>
        <time>2016-10-08T09:03:31Z</time>
      </trkpt>
      <trkpt lat="45.94271" lon="4.72267">
        <ele>171</ele>
        <time>2016-10-08T09:03:32Z</time>
      </trkpt>
      <trkpt lat="45.94274" lon="4.72274">
        <ele>171</ele>
        <time>2016-10-08T09:03:33Z</time>
      </trkpt>
      <trkpt lat="45.94276" lon="4.72283">
        <ele>171</ele>
        <time>2016-10-08T09:03:34Z</time>
      </trkpt>
      <trkpt lat="45.9428" lon="4.7229">
        <ele>171</ele>
        <time>2016-10-08T09:03:35Z</time>
      </trkpt>
      <trkpt lat="45.94283" lon="4.72297">
        <ele>171</ele>
        <time>2016-10-08T09:03:36Z</time>
      </trkpt>
      <trkpt lat="45.94286" lon="4.72304">
        <ele>171</ele>
        <time>2016-10-08T09:03:37Z</time>
      </trkpt>
      <trkpt lat="45.9429" lon="4.72311">
        <ele>171</ele>
        <time>2016-10-08T09:03:38Z</time>
      </trkpt>
      <trkpt lat="45.94293" lon="4.72318">
        <ele>171</ele>
        <time>2016-10-08T09:03:39Z</time>
      </trkpt>
      <trkpt lat="45.94296" lon="4.72324">
        <ele>171</ele>
        <time>2016-10-08T09:03:40Z</time>
      </trkpt>
      <trkpt lat="45.943" lon="4.72331">
        <ele>171</ele>
        <time>2016-10-08T09:03:41Z</time>
      </trkpt>
      <trkpt lat="45.94304" lon="4.72339">
        <ele>172</ele>
        <time>2016-10-08T09:03:42Z</time>
      </trkpt>
      <trkpt lat="45.94307" lon="4.72346">
        <ele>172</ele>
        <time>2016-10-08T09:03:43Z</time>
      </trkpt>
      <trkpt lat="45.9431" lon="4.72355">
        <ele>172</ele>
        <time>2016-10-08T09:03:44Z</time>
      </trkpt>
      <trkpt lat="45.94313" lon="4.72362">
        <ele>172</ele>
        <time>2016-10-08T09:03:45Z</time>
      </trkpt>
      <trkpt lat="45.94317" lon="4.72369">
        <ele>172</ele>
        <time>2016-10-08T09:03:46Z</time>
      </trkpt>
      <trkpt lat="45.9432" lon="4.72376">
        <ele>172</ele>
        <time>2016-10-08T09:03:47Z</time>
      </trkpt>
      <trkpt lat="45.94323" lon="4.72382">
        <ele>172</ele>
        <time>2016-10-08T09:03:48Z</time>
      </trkpt>
      <trkpt lat="45.94327" lon="4.72389">
        <ele>172</ele>
        <time>2016-10-08T09:03:49Z</time>
      </trkpt>
      <trkpt lat="45.9433" lon="4.72396">
        <ele>172</ele>
        <time>2016-10-08T09:03:50Z</time>
      </trkpt>
      <trkpt lat="45.94333" lon="4.72402">
        <ele>173</ele>
        <time>2016-10-08T09:03:51Z</time>
      </trkpt>
      <trkpt lat="45.94336" lon="4.72409">
        <ele>173</ele>
        <time>2016-10-08T09:03:52Z</time>
      </trkpt>
      <trkpt lat="45.94338" lon="4.72416">
        <ele>173</ele>
        <time>2016-10-08T09:03:53Z</time>
      </trkpt>
      <trkpt lat="45.94341" lon="4.72424">
        <ele>173</ele>
        <time>2016-10-08T09:03:54Z</time>
      </trkpt>
      <trkpt lat="45.94344" lon="4.72431">
        <ele>173</ele>
        <time>2016-10-08T09:03:55Z</time>
      </trkpt>
      <trkpt lat="45.94347" lon="4.72438">
        <ele>173</ele>
        <time>2016-10-08T09:03:56Z</time>
      </trkpt>
      <trkpt lat="45.9435" lon="4.72445">
        <ele>173</ele>
        <time>2016-10-08T09:03:57Z</time>
      </trkpt>
      <trkpt lat="45.94353" lon="4.72451">
        <ele>173</ele>
        <time>2016-10-08T09:03:58Z</time>
      </trkpt>
      <trkpt lat="45.94356" lon="4.72458">
        <ele>173</ele>
        <time>2016-10-08T09:03:59Z</time>
      </trkpt>
      <trkpt lat="45.94358" lon="4.72465">
        <ele>173</ele>
        <time>2016-10-08T09:04:00Z</time>
      </trkpt>
      <trkpt lat="45.94361" lon="4.72472">
        <ele>173</ele>
        <time>2016-10-08T09:04:01Z</time>
      </trkpt>
      <trkpt lat="45.94364" lon="4.72479">
        <ele>173</ele>
        <time>2016-10-08T09:04:02Z</time>
      </trkpt>
      <trkpt lat="45.94367" lon="4.72485">
        <ele>173</ele>
        <time>2016-10-08T09:04:03Z</time>
      </trkpt>
      <trkpt lat="45.94369" lon="4.72493">
        <ele>173</ele>
        <time>2016-10-08T09:04:04Z</time>
      </trkpt>
      <trkpt lat="45.94372" lon="4.725">
        <ele>173</ele>
        <time>2016-10-08T09:04:05Z</time>
      </trkpt>
      <trkpt lat="45.94374" lon="4.72507">
        <ele>173</ele>
        <time>2016-10-08T09:04:06Z</time>
      </trkpt>
      <trkpt lat="45.94376" lon="4.72514">
        <ele>174</ele>
        <time>2016-10-08T09:04:07Z</time>
      </trkpt>
      <trkpt lat="45.94379" lon="4.72521">
        <ele>174</ele>
        <time>2016-10-08T09:04:08Z</time>
      </trkpt>
      <trkpt lat="45.94381" lon="4.72528">
        <ele>174</ele>
        <time>2016-10-08T09:04:09Z</time>
      </trkpt>
      <trkpt lat="45.94382" lon="4.72535">
        <ele>174</ele>
        <time>2016-10-08T09:04:10Z</time>
      </trkpt>
      <trkpt lat="45.94384" lon="4.72542">
        <ele>173</ele>
        <time>2016-10-08T09:04:11Z</time>
      </trkpt>
      <trkpt lat="45.94385" lon="4.72549">
        <ele>173</ele>
        <time>2016-10-08T09:04:12Z</time>
      </trkpt>
      <trkpt lat="45.94386" lon="4.72556">
        <ele>173</ele>
        <time>2016-10-08T09:04:13Z</time>
      </trkpt>
      <trkpt lat="45.94388" lon="4.72564">
        <ele>173</ele>
        <time>2016-10-08T09:04:14Z</time>
      </trkpt>
      <trkpt lat="45.94389" lon="4.72571">
        <ele>173</ele>
        <time>2016-10-08T09:04:15Z</time>
      </trkpt>
      <trkpt lat="45.94391" lon="4.72579">
        <ele>173</ele>
        <time>2016-10-08T09:04:16Z</time>
      </trkpt>
      <trkpt lat="45.94393" lon="4.72587">
        <ele>173</ele>
        <time>2016-10-08T09:04:17Z</time>
      </trkpt>
      <trkpt lat="45.94394" lon="4.72593">
        <ele>173</ele>
        <time>2016-10-08T09:04:18Z</time>
      </trkpt>
      <trkpt lat="45.94395" lon="4.726">
        <ele>173</ele>
        <time>2016-10-08T09:04:19Z</time>
      </trkpt>
      <trkpt lat="45.94396" lon="4.72607">
        <ele>173</ele>
        <time>2016-10-08T09:04:20Z</time>
      </trkpt>
      <trkpt lat="45.94398" lon="4.72614">
        <ele>173</ele>
        <time>2016-10-08T09:04:21Z</time>
      </trkpt>
      <trkpt lat="45.94399" lon="4.72621">
        <ele>173</ele>
        <time>2016-10-08T09:04:22Z</time>
      </trkpt>
      <trkpt lat="45.944" lon="4.72628">
        <ele>174</ele>
        <time>2016-10-08T09:04:23Z</time>
      </trkpt>
      <trkpt lat="45.944" lon="4.72636">
        <ele>174</ele>
        <time>2016-10-08T09:04:24Z</time>
      </trkpt>
      <trkpt lat="45.94401" lon="4.72643">
        <ele>174</ele>
        <time>2016-10-08T09:04:25Z</time>
      </trkpt>
      <trkpt lat="45.94403" lon="4.72651">
        <ele>174</ele>
        <time>2016-10-08T09:04:26Z</time>
      </trkpt>
      <trkpt lat="45.94404" lon="4.72659">
        <ele>174</ele>
        <time>2016-10-08T09:04:27Z</time>
      </trkpt>
      <trkpt lat="45.94405" lon="4.72667">
        <ele>173</ele>
        <time>2016-10-08T09:04:28Z</time>
      </trkpt>
      <trkpt lat="45.94406" lon="4.72676">
        <ele>173</ele>
        <time>2016-10-08T09:04:29Z</time>
      </trkpt>
      <trkpt lat="45.94407" lon="4.72684">
        <ele>173</ele>
        <time>2016-10-08T09:04:30Z</time>
      </trkpt>
      <trkpt lat="45.94409" lon="4.72691">
        <ele>173</ele>
        <time>2016-10-08T09:04:31Z</time>
      </trkpt>
      <trkpt lat="45.94409" lon="4.72699">
        <ele>172</ele>
        <time>2016-10-08T09:04:32Z</time>
      </trkpt>
      <trkpt lat="45.9441" lon="4.72706">
        <ele>172</ele>
        <time>2016-10-08T09:04:33Z</time>
      </trkpt>
      <trkpt lat="45.94411" lon="4.72713">
        <ele>172</ele>
        <time>2016-10-08T09:04:34Z</time>
      </trkpt>
      <trkpt lat="45.94411" lon="4.72721">
        <ele>172</ele>
        <time>2016-10-08T09:04:35Z</time>
      </trkpt>
      <trkpt lat="45.94412" lon="4.72729">
        <ele>172</ele>
        <time>2016-10-08T09:04:36Z</time>
      </trkpt>
      <trkpt lat="45.94413" lon="4.72736">
        <ele>171</ele>
        <time>2016-10-08T09:04:37Z</time>
      </trkpt>
      <trkpt lat="45.94414" lon="4.72744">
        <ele>171</ele>
        <time>2016-10-08T09:04:38Z</time>
      </trkpt>
      <trkpt lat="45.94414" lon="4.72751">
        <ele>171</ele>
        <time>2016-10-08T09:04:39Z</time>
      </trkpt>
      <trkpt lat="45.94415" lon="4.72758">
        <ele>170</ele>
        <time>2016-10-08T09:04:40Z</time>
      </trkpt>
      <trkpt lat="45.94416" lon="4.72765">
        <ele>170</ele>
        <time>2016-10-08T09:04:41Z</time>
      </trkpt>
      <trkpt lat="45.94417" lon="4.72773">
        <ele>169</ele>
        <time>2016-10-08T09:04:42Z</time>
      </trkpt>
      <trkpt lat="45.94419" lon="4.7278">
        <ele>168</ele>
        <time>2016-10-08T09:04:43Z</time>
      </trkpt>
      <trkpt lat="45.9442" lon="4.72787">
        <ele>168</ele>
        <time>2016-10-08T09:04:44Z</time>
      </trkpt>
      <trkpt lat="45.94421" lon="4.72793">
        <ele>168</ele>
        <time>2016-10-08T09:04:45Z</time>
      </trkpt>
      <trkpt lat="45.94423" lon="4.72799">
        <ele>167</ele>
        <time>2016-10-08T09:04:46Z</time>
      </trkpt>
      <trkpt lat="45.94424" lon="4.72806">
        <ele>167</ele>
        <time>2016-10-08T09:04:47Z</time>
      </trkpt>
      <trkpt lat="45.94425" lon="4.72812">
        <ele>167</ele>
        <time>2016-10-08T09:04:48Z</time>
      </trkpt>
      <trkpt lat="45.94427" lon="4.72818">
        <ele>167</ele>
        <time>2016-10-08T09:04:49Z</time>
      </trkpt>
      <trkpt lat="45.94428" lon="4.72831">
        <ele>167</ele>
        <time>2016-10-08T09:04:51Z</time>
      </trkpt>
      <trkpt lat="45.94429" lon="4.72837">
        <ele>166</ele>
        <time>2016-10-08T09:04:52Z</time>
      </trkpt>
      <trkpt lat="45.9443" lon="4.72848">
        <ele>166</ele>
        <time>2016-10-08T09:04:54Z</time>
      </trkpt>
      <trkpt lat="45.94431" lon="4.72854">
        <ele>166</ele>
        <time>2016-10-08T09:04:55Z</time>
      </trkpt>
      <trkpt lat="45.94432" lon="4.72866">
        <ele>166</ele>
        <time>2016-10-08T09:04:57Z</time>
      </trkpt>
      <trkpt lat="45.94433" lon="4.72872">
        <ele>166</ele>
        <time>2016-10-08T09:04:58Z</time>
      </trkpt>
      <trkpt lat="45.94434" lon="4.72879">
        <ele>166</ele>
        <time>2016-10-08T09:04:59Z</time>
      </trkpt>
      <trkpt lat="45.94435" lon="4.72885">
        <ele>166</ele>
        <time>2016-10-08T09:05:00Z</time>
      </trkpt>
      <trkpt lat="45.94435" lon="4.72892">
        <ele>166</ele>
        <time>2016-10-08T09:05:01Z</time>
      </trkpt>
      <trkpt lat="45.94437" lon="4.72898">
        <ele>166</ele>
        <time>2016-10-08T09:05:02Z</time>
      </trkpt>
      <trkpt lat="45.94437" lon="4.72905">
        <ele>166</ele>
        <time>2016-10-08T09:05:03Z</time>
      </trkpt>
      <trkpt lat="45.94439" lon="4.72911">
        <ele>166</ele>
        <time>2016-10-08T09:05:04Z</time>
      </trkpt>
      <trkpt lat="45.9444" lon="4.72918">
        <ele>167</ele>
        <time>2016-10-08T09:05:05Z</time>
      </trkpt>
      <trkpt lat="45.9444" lon="4.72926">
        <ele>167</ele>
        <time>2016-10-08T09:05:06Z</time>
      </trkpt>
      <trkpt lat="45.94442" lon="4.72933">
        <ele>167</ele>
        <time>2016-10-08T09:05:07Z</time>
      </trkpt>
      <trkpt lat="45.94443" lon="4.72941">
        <ele>167</ele>
        <time>2016-10-08T09:05:08Z</time>
      </trkpt>
      <trkpt lat="45.94445" lon="4.72949">
        <ele>167</ele>
        <time>2016-10-08T09:05:09Z</time>
      </trkpt>
      <trkpt lat="45.94446" lon="4.72957">
        <ele>167</ele>
        <time>2016-10-08T09:05:10Z</time>
      </trkpt>
      <trkpt lat="45.94447" lon="4.72965">
        <ele>167</ele>
        <time>2016-10-08T09:05:11Z</time>
      </trkpt>
      <trkpt lat="45.94448" lon="4.72974">
        <ele>167</ele>
        <time>2016-10-08T09:05:12Z</time>
      </trkpt>
      <trkpt lat="45.9445" lon="4.72983">
        <ele>167</ele>
        <time>2016-10-08T09:05:13Z</time>
      </trkpt>
      <trkpt lat="45.94451" lon="4.72993">
        <ele>167</ele>
        <time>2016-10-08T09:05:14Z</time>
      </trkpt>
      <trkpt lat="45.94452" lon="4.73002">
        <ele>169</ele>
        <time>2016-10-08T09:05:15Z</time>
      </trkpt>
      <trkpt lat="45.94453" lon="4.73012">
        <ele>169</ele>
        <time>2016-10-08T09:05:16Z</time>
      </trkpt>
      <trkpt lat="45.94454" lon="4.73021">
        <ele>169</ele>
        <time>2016-10-08T09:05:17Z</time>
      </trkpt>
      <trkpt lat="45.94456" lon="4.73031">
        <ele>169</ele>
        <time>2016-10-08T09:05:18Z</time>
      </trkpt>
      <trkpt lat="45.94457" lon="4.73041">
        <ele>169</ele>
        <time>2016-10-08T09:05:19Z</time>
      </trkpt>
      <trkpt lat="45.94459" lon="4.73051">
        <ele>170</ele>
        <time>2016-10-08T09:05:20Z</time>
      </trkpt>
      <trkpt lat="45.94459" lon="4.73061">
        <ele>170</ele>
        <time>2016-10-08T09:05:21Z</time>
      </trkpt>
      <trkpt lat="45.9446" lon="4.73072">
        <ele>170</ele>
        <time>2016-10-08T09:05:22Z</time>
      </trkpt>
      <trkpt lat="45.94462" lon="4.73083">
        <ele>170</ele>
        <time>2016-10-08T09:05:23Z</time>
      </trkpt>
      <trkpt lat="45.94463" lon="4.73093">
        <ele>171</ele>
        <time>2016-10-08T09:05:24Z</time>
      </trkpt>
      <trkpt lat="45.94464" lon="4.73103">
        <ele>172</ele>
        <time>2016-10-08T09:05:25Z</time>
      </trkpt>
      <trkpt lat="45.94465" lon="4.73113">
        <ele>172</ele>
        <time>2016-10-08T09:05:26Z</time>
      </trkpt>
      <trkpt lat="45.94466" lon="4.73122">
        <ele>172</ele>
        <time>2016-10-08T09:05:27Z</time>
      </trkpt>
      <trkpt lat="45.94467" lon="4.73131">
        <ele>172</ele>
        <time>2016-10-08T09:05:28Z</time>
      </trkpt>
      <trkpt lat="45.94468" lon="4.7314">
        <ele>172</ele>
        <time>2016-10-08T09:05:29Z</time>
      </trkpt>
      <trkpt lat="45.94469" lon="4.73148">
        <ele>172</ele>
        <time>2016-10-08T09:05:30Z</time>
      </trkpt>
      <trkpt lat="45.94471" lon="4.73156">
        <ele>172</ele>
        <time>2016-10-08T09:05:31Z</time>
      </trkpt>
      <trkpt lat="45.94472" lon="4.73164">
        <ele>173</ele>
        <time>2016-10-08T09:05:32Z</time>
      </trkpt>
      <trkpt lat="45.94473" lon="4.73172">
        <ele>174</ele>
        <time>2016-10-08T09:05:33Z</time>
      </trkpt>
      <trkpt lat="45.94474" lon="4.7318">
        <ele>174</ele>
        <time>2016-10-08T09:05:34Z</time>
      </trkpt>
      <trkpt lat="45.94475" lon="4.73187">
        <ele>174</ele>
        <time>2016-10-08T09:05:35Z</time>
      </trkpt>
      <trkpt lat="45.94476" lon="4.73195">
        <ele>174</ele>
        <time>2016-10-08T09:05:36Z</time>
      </trkpt>
      <trkpt lat="45.94477" lon="4.73202">
        <ele>175</ele>
        <time>2016-10-08T09:05:37Z</time>
      </trkpt>
      <trkpt lat="45.94478" lon="4.7321">
        <ele>175</ele>
        <time>2016-10-08T09:05:38Z</time>
      </trkpt>
      <trkpt lat="45.94479" lon="4.73217">
        <ele>175</ele>
        <time>2016-10-08T09:05:39Z</time>
      </trkpt>
      <trkpt lat="45.9448" lon="4.73224">
        <ele>175</ele>
        <time>2016-10-08T09:05:40Z</time>
      </trkpt>
      <trkpt lat="45.94481" lon="4.73231">
        <ele>175</ele>
        <time>2016-10-08T09:05:41Z</time>
      </trkpt>
      <trkpt lat="45.94482" lon="4.73238">
        <ele>175</ele>
        <time>2016-10-08T09:05:42Z</time>
      </trkpt>
      <trkpt lat="45.94483" lon="4.73244">
        <ele>175</ele>
        <time>2016-10-08T09:05:43Z</time>
      </trkpt>
      <trkpt lat="45.94484" lon="4.73251">
        <ele>176</ele>
        <time>2016-10-08T09:05:44Z</time>
      </trkpt>
      <trkpt lat="45.94485" lon="4.73258">
        <ele>176</ele>
        <time>2016-10-08T09:05:45Z</time>
      </trkpt>
      <trkpt lat="45.94486" lon="4.73265">
        <ele>177</ele>
        <time>2016-10-08T09:05:46Z</time>
      </trkpt>
      <trkpt lat="45.94486" lon="4.73271">
        <ele>177</ele>
        <time>2016-10-08T09:05:47Z</time>
      </trkpt>
      <trkpt lat="45.94487" lon="4.73278">
        <ele>177</ele>
        <time>2016-10-08T09:05:48Z</time>
      </trkpt>
      <trkpt lat="45.94488" lon="4.73284">
        <ele>177</ele>
        <time>2016-10-08T09:05:49Z</time>
      </trkpt>
      <trkpt lat="45.94489" lon="4.7329">
        <ele>177</ele>
        <time>2016-10-08T09:05:50Z</time>
      </trkpt>
      <trkpt lat="45.94489" lon="4.73298">
        <ele>177</ele>
        <time>2016-10-08T09:05:51Z</time>
      </trkpt>
      <trkpt lat="45.9449" lon="4.73304">
        <ele>177</ele>
        <time>2016-10-08T09:05:52Z</time>
      </trkpt>
      <trkpt lat="45.94491" lon="4.73311">
        <ele>177</ele>
        <time>2016-10-08T09:05:53Z</time>
      </trkpt>
      <trkpt lat="45.94492" lon="4.73317">
        <ele>177</ele>
        <time>2016-10-08T09:05:54Z</time>
      </trkpt>
      <trkpt lat="45.94493" lon="4.73324">
        <ele>177</ele>
        <time>2016-10-08T09:05:55Z</time>
      </trkpt>
      <trkpt lat="45.94493" lon="4.7333">
        <ele>177</ele>
        <time>2016-10-08T09:05:56Z</time>
      </trkpt>
      <trkpt lat="45.94494" lon="4.73337">
        <ele>178</ele>
        <time>2016-10-08T09:05:57Z</time>
      </trkpt>
      <trkpt lat="45.94494" lon="4.73344">
        <ele>178</ele>
        <time>2016-10-08T09:05:58Z</time>
      </trkpt>
      <trkpt lat="45.94495" lon="4.7335">
        <ele>178</ele>
        <time>2016-10-08T09:05:59Z</time>
      </trkpt>
      <trkpt lat="45.94495" lon="4.73358">
        <ele>178</ele>
        <time>2016-10-08T09:06:00Z</time>
      </trkpt>
      <trkpt lat="45.94495" lon="4.73364">
        <ele>179</ele>
        <time>2016-10-08T09:06:01Z</time>
      </trkpt>
      <trkpt lat="45.94496" lon="4.73371">
        <ele>179</ele>
        <time>2016-10-08T09:06:02Z</time>
      </trkpt>
      <trkpt lat="45.94496" lon="4.73378">
        <ele>179</ele>
        <time>2016-10-08T09:06:03Z</time>
      </trkpt>
      <trkpt lat="45.94497" lon="4.73385">
        <ele>179</ele>
        <time>2016-10-08T09:06:04Z</time>
      </trkpt>
      <trkpt lat="45.94498" lon="4.73392">
        <ele>179</ele>
        <time>2016-10-08T09:06:05Z</time>
      </trkpt>
      <trkpt lat="45.94498" lon="4.73399">
        <ele>180</ele>
        <time>2016-10-08T09:06:06Z</time>
      </trkpt>
      <trkpt lat="45.94499" lon="4.73406">
        <ele>180</ele>
        <time>2016-10-08T09:06:07Z</time>
      </trkpt>
      <trkpt lat="45.94499" lon="4.73413">
        <ele>180</ele>
        <time>2016-10-08T09:06:08Z</time>
      </trkpt>
      <trkpt lat="45.945" lon="4.7342">
        <ele>180</ele>
        <time>2016-10-08T09:06:09Z</time>
      </trkpt>
      <trkpt lat="45.945" lon="4.73426">
        <ele>180</ele>
        <time>2016-10-08T09:06:10Z</time>
      </trkpt>
      <trkpt lat="45.94501" lon="4.73433">
        <ele>181</ele>
        <time>2016-10-08T09:06:11Z</time>
      </trkpt>
      <trkpt lat="45.94501" lon="4.7344">
        <ele>181</ele>
        <time>2016-10-08T09:06:12Z</time>
      </trkpt>
      <trkpt lat="45.94501" lon="4.73446">
        <ele>181</ele>
        <time>2016-10-08T09:06:13Z</time>
      </trkpt>
      <trkpt lat="45.94501" lon="4.73453">
        <ele>181</ele>
        <time>2016-10-08T09:06:14Z</time>
      </trkpt>
      <trkpt lat="45.94502" lon="4.73465">
        <ele>181</ele>
        <time>2016-10-08T09:06:16Z</time>
      </trkpt>
      <trkpt lat="45.94503" lon="4.73472">
        <ele>182</ele>
        <time>2016-10-08T09:06:17Z</time>
      </trkpt>
      <trkpt lat="45.94503" lon="4.73479">
        <ele>182</ele>
        <time>2016-10-08T09:06:18Z</time>
      </trkpt>
      <trkpt lat="45.94503" lon="4.73486">
        <ele>182</ele>
        <time>2016-10-08T09:06:19Z</time>
      </trkpt>
      <trkpt lat="45.94504" lon="4.73492">
        <ele>182</ele>
        <time>2016-10-08T09:06:20Z</time>
      </trkpt>
      <trkpt lat="45.94504" lon="4.73499">
        <ele>183</ele>
        <time>2016-10-08T09:06:21Z</time>
      </trkpt>
      <trkpt lat="45.94504" lon="4.73507">
        <ele>183</ele>
        <time>2016-10-08T09:06:22Z</time>
      </trkpt>
      <trkpt lat="45.94504" lon="4.73514">
        <ele>183</ele>
        <time>2016-10-08T09:06:23Z</time>
      </trkpt>
      <trkpt lat="45.94504" lon="4.73522">
        <ele>183</ele>
        <time>2016-10-08T09:06:24Z</time>
      </trkpt>
      <trkpt lat="45.94503" lon="4.73529">
        <ele>183</ele>
        <time>2016-10-08T09:06:25Z</time>
      </trkpt>
      <trkpt lat="45.94503" lon="4.73536">
        <ele>183</ele>
        <time>2016-10-08T09:06:26Z</time>
      </trkpt>
      <trkpt lat="45.94503" lon="4.73543">
        <ele>183</ele>
        <time>2016-10-08T09:06:27Z</time>
      </trkpt>
      <trkpt lat="45.94502" lon="4.7355">
        <ele>183</ele>
        <time>2016-10-08T09:06:28Z</time>
      </trkpt>
      <trkpt lat="45.94501" lon="4.73558">
        <ele>184</ele>
        <time>2016-10-08T09:06:29Z</time>
      </trkpt>
      <trkpt lat="45.94501" lon="4.73565">
        <ele>184</ele>
        <time>2016-10-08T09:06:30Z</time>
      </trkpt>
      <trkpt lat="45.94501" lon="4.73572">
        <ele>184</ele>
        <time>2016-10-08T09:06:31Z</time>
      </trkpt>
      <trkpt lat="45.94501" lon="4.7358">
        <ele>185</ele>
        <time>2016-10-08T09:06:32Z</time>
      </trkpt>
      <trkpt lat="45.945" lon="4.73587">
        <ele>185</ele>
        <time>2016-10-08T09:06:33Z</time>
      </trkpt>
      <trkpt lat="45.945" lon="4.73595">
        <ele>184</ele>
        <time>2016-10-08T09:06:34Z</time>
      </trkpt>
      <trkpt lat="45.94499" lon="4.73602">
        <ele>185</ele>
        <time>2016-10-08T09:06:35Z</time>
      </trkpt>
      <trkpt lat="45.945" lon="4.73609">
        <ele>186</ele>
        <time>2016-10-08T09:06:36Z</time>
      </trkpt>
      <trkpt lat="45.94499" lon="4.73616">
        <ele>186</ele>
        <time>2016-10-08T09:06:37Z</time>
      </trkpt>
      <trkpt lat="45.94498" lon="4.73623">
        <ele>186</ele>
        <time>2016-10-08T09:06:38Z</time>
      </trkpt>
      <trkpt lat="45.94498" lon="4.73632">
        <ele>186</ele>
        <time>2016-10-08T09:06:39Z</time>
      </trkpt>
      <trkpt lat="45.94497" lon="4.73639">
        <ele>186</ele>
        <time>2016-10-08T09:06:40Z</time>
      </trkpt>
      <trkpt lat="45.94496" lon="4.73647">
        <ele>186</ele>
        <time>2016-10-08T09:06:41Z</time>
      </trkpt>
      <trkpt lat="45.94495" lon="4.73654">
        <ele>185</ele>
        <time>2016-10-08T09:06:42Z</time>
      </trkpt>
      <trkpt lat="45.94494" lon="4.73662">
        <ele>185</ele>
        <time>2016-10-08T09:06:43Z</time>
      </trkpt>
      <trkpt lat="45.94493" lon="4.7367">
        <ele>185</ele>
        <time>2016-10-08T09:06:44Z</time>
      </trkpt>
      <trkpt lat="45.94492" lon="4.73679">
        <ele>185</ele>
        <time>2016-10-08T09:06:45Z</time>
      </trkpt>
      <trkpt lat="45.94491" lon="4.73686">
        <ele>186</ele>
        <time>2016-10-08T09:06:46Z</time>
      </trkpt>
      <trkpt lat="45.94491" lon="4.73694">
        <ele>186</ele>
        <time>2016-10-08T09:06:47Z</time>
      </trkpt>
      <trkpt lat="45.9449" lon="4.73702">
        <ele>186</ele>
        <time>2016-10-08T09:06:48Z</time>
      </trkpt>
      <trkpt lat="45.94489" lon="4.7371">
        <ele>186</ele>
        <time>2016-10-08T09:06:49Z</time>
      </trkpt>
      <trkpt lat="45.94488" lon="4.73718">
        <ele>186</ele>
        <time>2016-10-08T09:06:50Z</time>
      </trkpt>
      <trkpt lat="45.94487" lon="4.73725">
        <ele>186</ele>
        <time>2016-10-08T09:06:51Z</time>
      </trkpt>
      <trkpt lat="45.94486" lon="4.73732">
        <ele>186</ele>
        <time>2016-10-08T09:06:52Z</time>
      </trkpt>
      <trkpt lat="45.94485" lon="4.73739">
        <ele>186</ele>
        <time>2016-10-08T09:06:53Z</time>
      </trkpt>
      <trkpt lat="45.94484" lon="4.73745">
        <ele>186</ele>
        <time>2016-10-08T09:06:54Z</time>
      </trkpt>
      <trkpt lat="45.94483" lon="4.73752">
        <ele>186</ele>
        <time>2016-10-08T09:06:55Z</time>
      </trkpt>
      <trkpt lat="45.94481" lon="4.73763">
        <ele>186</ele>
        <time>2016-10-08T09:06:57Z</time>
      </trkpt>
      <trkpt lat="45.9448" lon="4.73769">
        <ele>186</ele>
        <time>2016-10-08T09:06:58Z</time>
      </trkpt>
      <trkpt lat="45.94484" lon="4.73775">
        <ele>186</ele>
        <time>2016-10-08T09:06:59Z</time>
      </trkpt>
      <trkpt lat="45.94488" lon="4.73778">
        <ele>186</ele>
        <time>2016-10-08T09:07:00Z</time>
      </trkpt>
      <trkpt lat="45.94493" lon="4.73781">
        <ele>186</ele>
        <time>2016-10-08T09:07:01Z</time>
      </trkpt>
      <trkpt lat="45.94497" lon="4.73785">
        <ele>186</ele>
        <time>2016-10-08T09:07:02Z</time>
      </trkpt>
      <trkpt lat="45.94501" lon="4.73789">
        <ele>186</ele>
        <time>2016-10-08T09:07:03Z</time>
      </trkpt>
      <trkpt lat="45.94505" lon="4.73793">
        <ele>186</ele>
        <time>2016-10-08T09:07:04Z</time>
      </trkpt>
      <trkpt lat="45.9451" lon="4.73796">
        <ele>186</ele>
        <time>2016-10-08T09:07:05Z</time>
      </trkpt>
      <trkpt lat="45.94514" lon="4.738">
        <ele>186</ele>
        <time>2016-10-08T09:07:06Z</time>
      </trkpt>
      <trkpt lat="45.94518" lon="4.73804">
        <ele>186</ele>
        <time>2016-10-08T09:07:07Z</time>
      </trkpt>
      <trkpt lat="45.94523" lon="4.73809">
        <ele>186</ele>
        <time>2016-10-08T09:07:08Z</time>
      </trkpt>
      <trkpt lat="45.94527" lon="4.73814">
        <ele>186</ele>
        <time>2016-10-08T09:07:09Z</time>
      </trkpt>
      <trkpt lat="45.94531" lon="4.73818">
        <ele>186</ele>
        <time>2016-10-08T09:07:10Z</time>
      </trkpt>
      <trkpt lat="45.94536" lon="4.73822">
        <ele>186</ele>
        <time>2016-10-08T09:07:11Z</time>
      </trkpt>
      <trkpt lat="45.94539" lon="4.73826">
        <ele>186</ele>
        <time>2016-10-08T09:07:12Z</time>
      </trkpt>
      <trkpt lat="45.94544" lon="4.7383">
        <ele>186</ele>
        <time>2016-10-08T09:07:13Z</time>
      </trkpt>
      <trkpt lat="45.94547" lon="4.73834">
        <ele>186</ele>
        <time>2016-10-08T09:07:14Z</time>
      </trkpt>
      <trkpt lat="45.94552" lon="4.73838">
        <ele>186</ele>
        <time>2016-10-08T09:07:15Z</time>
      </trkpt>
      <trkpt lat="45.94556" lon="4.73842">
        <ele>186</ele>
        <time>2016-10-08T09:07:16Z</time>
      </trkpt>
      <trkpt lat="45.94561" lon="4.73847">
        <ele>186</ele>
        <time>2016-10-08T09:07:17Z</time>
      </trkpt>
      <trkpt lat="45.94565" lon="4.73852">
        <ele>186</ele>
        <time>2016-10-08T09:07:18Z</time>
      </trkpt>
      <trkpt lat="45.9457" lon="4.73857">
        <ele>186</ele>
        <time>2016-10-08T09:07:19Z</time>
      </trkpt>
      <trkpt lat="45.94574" lon="4.73862">
        <ele>186</ele>
        <time>2016-10-08T09:07:20Z</time>
      </trkpt>
      <trkpt lat="45.94578" lon="4.73867">
        <ele>186</ele>
        <time>2016-10-08T09:07:21Z</time>
      </trkpt>
      <trkpt lat="45.94582" lon="4.73871">
        <ele>186</ele>
        <time>2016-10-08T09:07:22Z</time>
      </trkpt>
      <trkpt lat="45.94586" lon="4.73876">
        <ele>187</ele>
        <time>2016-10-08T09:07:23Z</time>
      </trkpt>
      <trkpt lat="45.9459" lon="4.73881">
        <ele>187</ele>
        <time>2016-10-08T09:07:24Z</time>
      </trkpt>
      <trkpt lat="45.94594" lon="4.73886">
        <ele>187</ele>
        <time>2016-10-08T09:07:25Z</time>
      </trkpt>
      <trkpt lat="45.94598" lon="4.73892">
        <ele>187</ele>
        <time>2016-10-08T09:07:26Z</time>
      </trkpt>
      <trkpt lat="45.94602" lon="4.73897">
        <ele>187</ele>
        <time>2016-10-08T09:07:27Z</time>
      </trkpt>
      <trkpt lat="45.94606" lon="4.73901">
        <ele>187</ele>
        <time>2016-10-08T09:07:28Z</time>
      </trkpt>
      <trkpt lat="45.94611" lon="4.73905">
        <ele>187</ele>
        <time>2016-10-08T09:07:29Z</time>
      </trkpt>
      <trkpt lat="45.94615" lon="4.7391">
        <ele>187</ele>
        <time>2016-10-08T09:07:30Z</time>
      </trkpt>
      <trkpt lat="45.94619" lon="4.73914">
        <ele>187</ele>
        <time>2016-10-08T09:07:31Z</time>
      </trkpt>
      <trkpt lat="45.94623" lon="4.7392">
        <ele>187</ele>
        <time>2016-10-08T09:07:32Z</time>
      </trkpt>
      <trkpt lat="45.94626" lon="4.73927">
        <ele>187</ele>
        <time>2016-10-08T09:07:33Z</time>
      </trkpt>
      <trkpt lat="45.9463" lon="4.73933">
        <ele>187</ele>
        <time>2016-10-08T09:07:34Z</time>
      </trkpt>
      <trkpt lat="45.94633" lon="4.73938">
        <ele>187</ele>
        <time>2016-10-08T09:07:35Z</time>
      </trkpt>
      <trkpt lat="45.94637" lon="4.73942">
        <ele>187</ele>
        <time>2016-10-08T09:07:36Z</time>
      </trkpt>
      <trkpt lat="45.9464" lon="4.73947">
        <ele>187</ele>
        <time>2016-10-08T09:07:37Z</time>
      </trkpt>
      <trkpt lat="45.94644" lon="4.73953">
        <ele>187</ele>
        <time>2016-10-08T09:07:38Z</time>
      </trkpt>
      <trkpt lat="45.94649" lon="4.73955">
        <ele>187</ele>
        <time>2016-10-08T09:07:39Z</time>
      </trkpt>
      <trkpt lat="45.94653" lon="4.73961">
        <ele>187</ele>
        <time>2016-10-08T09:07:40Z</time>
      </trkpt>
      <trkpt lat="45.94657" lon="4.73966">
        <ele>187</ele>
        <time>2016-10-08T09:07:41Z</time>
      </trkpt>
      <trkpt lat="45.94661" lon="4.73972">
        <ele>187</ele>
        <time>2016-10-08T09:07:42Z</time>
      </trkpt>
      <trkpt lat="45.94665" lon="4.73977">
        <ele>187</ele>
        <time>2016-10-08T09:07:43Z</time>
      </trkpt>
      <trkpt lat="45.94669" lon="4.73982">
        <ele>187</ele>
        <time>2016-10-08T09:07:44Z</time>
      </trkpt>
      <trkpt lat="45.94674" lon="4.73987">
        <ele>187</ele>
        <time>2016-10-08T09:07:45Z</time>
      </trkpt>
      <trkpt lat="45.94678" lon="4.73992">
        <ele>187</ele>
        <time>2016-10-08T09:07:46Z</time>
      </trkpt>
      <trkpt lat="45.94682" lon="4.73997">
        <ele>187</ele>
        <time>2016-10-08T09:07:47Z</time>
      </trkpt>
      <trkpt lat="45.94686" lon="4.74002">
        <ele>187</ele>
        <time>2016-10-08T09:07:48Z</time>
      </trkpt>
      <trkpt lat="45.9469" lon="4.74008">
        <ele>187</ele>
        <time>2016-10-08T09:07:49Z</time>
      </trkpt>
      <trkpt lat="45.94693" lon="4.74013">
        <ele>187</ele>
        <time>2016-10-08T09:07:50Z</time>
      </trkpt>
      <trkpt lat="45.94698" lon="4.74017">
        <ele>187</ele>
        <time>2016-10-08T09:07:51Z</time>
      </trkpt>
      <trkpt lat="45.94703" lon="4.74022">
        <ele>187</ele>
        <time>2016-10-08T09:07:52Z</time>
      </trkpt>
      <trkpt lat="45.94707" lon="4.74026">
        <ele>187</ele>
        <time>2016-10-08T09:07:53Z</time>
      </trkpt>
      <trkpt lat="45.94711" lon="4.74032">
        <ele>187</ele>
        <time>2016-10-08T09:07:54Z</time>
      </trkpt>
      <trkpt lat="45.94715" lon="4.74037">
        <ele>187</ele>
        <time>2016-10-08T09:07:55Z</time>
      </trkpt>
      <trkpt lat="45.94718" lon="4.74044">
        <ele>187</ele>
        <time>2016-10-08T09:07:56Z</time>
      </trkpt>
      <trkpt lat="45.94722" lon="4.7405">
        <ele>187</ele>
        <time>2016-10-08T09:07:57Z</time>
      </trkpt>
      <trkpt lat="45.94726" lon="4.74055">
        <ele>188</ele>
        <time>2016-10-08T09:07:58Z</time>
      </trkpt>
      <trkpt lat="45.9473" lon="4.74061">
        <ele>188</ele>
        <time>2016-10-08T09:07:59Z</time>
      </trkpt>
      <trkpt lat="45.94734" lon="4.74066">
        <ele>188</ele>
        <time>2016-10-08T09:08:00Z</time>
      </trkpt>
      <trkpt lat="45.94737" lon="4.74071">
        <ele>188</ele>
        <time>2016-10-08T09:08:01Z</time>
      </trkpt>
      <trkpt lat="45.94741" lon="4.74076">
        <ele>188</ele>
        <time>2016-10-08T09:08:02Z</time>
      </trkpt>
      <trkpt lat="45.94745" lon="4.74081">
        <ele>189</ele>
        <time>2016-10-08T09:08:03Z</time>
      </trkpt>
      <trkpt lat="45.94748" lon="4.74086">
        <ele>189</ele>
        <time>2016-10-08T09:08:04Z</time>
      </trkpt>
      <trkpt lat="45.94752" lon="4.74091">
        <ele>189</ele>
        <time>2016-10-08T09:08:05Z</time>
      </trkpt>
      <trkpt lat="45.94756" lon="4.74097">
        <ele>189</ele>
        <time>2016-10-08T09:08:06Z</time>
      </trkpt>
      <trkpt lat="45.94759" lon="4.74101">
        <ele>189</ele>
        <time>2016-10-08T09:08:07Z</time>
      </trkpt>
      <trkpt lat="45.94763" lon="4.74106">
        <ele>189</ele>
        <time>2016-10-08T09:08:08Z</time>
      </trkpt>
      <trkpt lat="45.94767" lon="4.74112">
        <ele>189</ele>
        <time>2016-10-08T09:08:09Z</time>
      </trkpt>
      <trkpt lat="45.94771" lon="4.74117">
        <ele>189</ele>
        <time>2016-10-08T09:08:10Z</time>
      </trkpt>
      <trkpt lat="45.94774" lon="4.74123">
        <ele>189</ele>
        <time>2016-10-08T09:08:11Z</time>
      </trkpt>
      <trkpt lat="45.94778" lon="4.74128">
        <ele>189</ele>
        <time>2016-10-08T09:08:12Z</time>
      </trkpt>
      <trkpt lat="45.94782" lon="4.74133">
        <ele>189</ele>
        <time>2016-10-08T09:08:13Z</time>
      </trkpt>
      <trkpt lat="45.94785" lon="4.74137">
        <ele>189</ele>
        <time>2016-10-08T09:08:14Z</time>
      </trkpt>
      <trkpt lat="45.94791" lon="4.74147">
        <ele>189</ele>
        <time>2016-10-08T09:08:16Z</time>
      </trkpt>
      <trkpt lat="45.94794" lon="4.74151">
        <ele>189</ele>
        <time>2016-10-08T09:08:17Z</time>
      </trkpt>
      <trkpt lat="45.94797" lon="4.74157">
        <ele>189</ele>
        <time>2016-10-08T09:08:18Z</time>
      </trkpt>
      <trkpt lat="45.948" lon="4.74162">
        <ele>189</ele>
        <time>2016-10-08T09:08:19Z</time>
      </trkpt>
      <trkpt lat="45.94802" lon="4.74169">
        <ele>189</ele>
        <time>2016-10-08T09:08:20Z</time>
      </trkpt>
      <trkpt lat="45.94805" lon="4.74174">
        <ele>189</ele>
        <time>2016-10-08T09:08:21Z</time>
      </trkpt>
      <trkpt lat="45.94807" lon="4.7418">
        <ele>189</ele>
        <time>2016-10-08T09:08:22Z</time>
      </trkpt>
      <trkpt lat="45.9481" lon="4.74186">
        <ele>189</ele>
        <time>2016-10-08T09:08:23Z</time>
      </trkpt>
      <trkpt lat="45.94814" lon="4.74192">
        <ele>189</ele>
        <time>2016-10-08T09:08:24Z</time>
      </trkpt>
      <trkpt lat="45.94818" lon="4.74197">
        <ele>189</ele>
        <time>2016-10-08T09:08:25Z</time>
      </trkpt>
      <trkpt lat="45.94821" lon="4.74203">
        <ele>189</ele>
        <time>2016-10-08T09:08:26Z</time>
      </trkpt>
      <trkpt lat="45.94825" lon="4.74209">
        <ele>188</ele>
        <time>2016-10-08T09:08:27Z</time>
      </trkpt>
      <trkpt lat="45.94828" lon="4.74214">
        <ele>188</ele>
        <time>2016-10-08T09:08:28Z</time>
      </trkpt>
      <trkpt lat="45.94831" lon="4.7422">
        <ele>188</ele>
        <time>2016-10-08T09:08:29Z</time>
      </trkpt>
      <trkpt lat="45.94834" lon="4.74227">
        <ele>190</ele>
        <time>2016-10-08T09:08:30Z</time>
      </trkpt>
      <trkpt lat="45.94838" lon="4.74233">
        <ele>190</ele>
        <time>2016-10-08T09:08:31Z</time>
      </trkpt>
      <trkpt lat="45.94841" lon="4.7424">
        <ele>190</ele>
        <time>2016-10-08T09:08:32Z</time>
      </trkpt>
      <trkpt lat="45.94844" lon="4.74246">
        <ele>190</ele>
        <time>2016-10-08T09:08:33Z</time>
      </trkpt>
      <trkpt lat="45.94848" lon="4.74253">
        <ele>190</ele>
        <time>2016-10-08T09:08:34Z</time>
      </trkpt>
      <trkpt lat="45.94851" lon="4.74259">
        <ele>190</ele>
        <time>2016-10-08T09:08:35Z</time>
      </trkpt>
      <trkpt lat="45.94855" lon="4.74265">
        <ele>190</ele>
        <time>2016-10-08T09:08:36Z</time>
      </trkpt>
      <trkpt lat="45.94858" lon="4.74272">
        <ele>190</ele>
        <time>2016-10-08T09:08:37Z</time>
      </trkpt>
      <trkpt lat="45.94862" lon="4.74278">
        <ele>190</ele>
        <time>2016-10-08T09:08:38Z</time>
      </trkpt>
      <trkpt lat="45.94865" lon="4.74285">
        <ele>191</ele>
        <time>2016-10-08T09:08:39Z</time>
      </trkpt>
      <trkpt lat="45.94868" lon="4.74293">
        <ele>191</ele>
        <time>2016-10-08T09:08:40Z</time>
      </trkpt>
      <trkpt lat="45.94871" lon="4.743">
        <ele>191</ele>
        <time>2016-10-08T09:08:41Z</time>
      </trkpt>
      <trkpt lat="45.94874" lon="4.74306">
        <ele>191</ele>
        <time>2016-10-08T09:08:42Z</time>
      </trkpt>
      <trkpt lat="45.94877" lon="4.74313">
        <ele>191</ele>
        <time>2016-10-08T09:08:43Z</time>
      </trkpt>
      <trkpt lat="45.94881" lon="4.7432">
        <ele>191</ele>
        <time>2016-10-08T09:08:44Z</time>
      </trkpt>
      <trkpt lat="45.94884" lon="4.74327">
        <ele>191</ele>
        <time>2016-10-08T09:08:45Z</time>
      </trkpt>
      <trkpt lat="45.94887" lon="4.74334">
        <ele>191</ele>
        <time>2016-10-08T09:08:46Z</time>
      </trkpt>
      <trkpt lat="45.9489" lon="4.7434">
        <ele>191</ele>
        <time>2016-10-08T09:08:47Z</time>
      </trkpt>
      <trkpt lat="45.94892" lon="4.74347">
        <ele>191</ele>
        <time>2016-10-08T09:08:48Z</time>
      </trkpt>
      <trkpt lat="45.94896" lon="4.74353">
        <ele>191</ele>
        <time>2016-10-08T09:08:49Z</time>
      </trkpt>
      <trkpt lat="45.94899" lon="4.74359">
        <ele>191</ele>
        <time>2016-10-08T09:08:50Z</time>
      </trkpt>
      <trkpt lat="45.94902" lon="4.74365">
        <ele>191</ele>
        <time>2016-10-08T09:08:51Z</time>
      </trkpt>
      <trkpt lat="45.94904" lon="4.74372">
        <ele>191</ele>
        <time>2016-10-08T09:08:52Z</time>
      </trkpt>
      <trkpt lat="45.94907" lon="4.74379">
        <ele>191</ele>
        <time>2016-10-08T09:08:53Z</time>
      </trkpt>
      <trkpt lat="45.9491" lon="4.74385">
        <ele>191</ele>
        <time>2016-10-08T09:08:54Z</time>
      </trkpt>
      <trkpt lat="45.94913" lon="4.7439">
        <ele>191</ele>
        <time>2016-10-08T09:08:55Z</time>
      </trkpt>
      <trkpt lat="45.94917" lon="4.74396">
        <ele>191</ele>
        <time>2016-10-08T09:08:56Z</time>
      </trkpt>
      <trkpt lat="45.9492" lon="4.74402">
        <ele>192</ele>
        <time>2016-10-08T09:08:57Z</time>
      </trkpt>
      <trkpt lat="45.94922" lon="4.74408">
        <ele>192</ele>
        <time>2016-10-08T09:08:58Z</time>
      </trkpt>
      <trkpt lat="45.94925" lon="4.74414">
        <ele>192</ele>
        <time>2016-10-08T09:08:59Z</time>
      </trkpt>
      <trkpt lat="45.94929" lon="4.7442">
        <ele>192</ele>
        <time>2016-10-08T09:09:00Z</time>
      </trkpt>
      <trkpt lat="45.94931" lon="4.74426">
        <ele>192</ele>
        <time>2016-10-08T09:09:01Z</time>
      </trkpt>
      <trkpt lat="45.94934" lon="4.74432">
        <ele>192</ele>
        <time>2016-10-08T09:09:02Z</time>
      </trkpt>
      <trkpt lat="45.94937" lon="4.74438">
        <ele>192</ele>
        <time>2016-10-08T09:09:03Z</time>
      </trkpt>
      <trkpt lat="45.94941" lon="4.74444">
        <ele>192</ele>
        <time>2016-10-08T09:09:04Z</time>
      </trkpt>
      <trkpt lat="45.94944" lon="4.7445">
        <ele>192</ele>
        <time>2016-10-08T09:09:05Z</time>
      </trkpt>
      <trkpt lat="45.94947" lon="4.74456">
        <ele>192</ele>
        <time>2016-10-08T09:09:06Z</time>
      </trkpt>
      <trkpt lat="45.9495" lon="4.74462">
        <ele>193</ele>
        <time>2016-10-08T09:09:07Z</time>
      </trkpt>
      <trkpt lat="45.94953" lon="4.74469">
        <ele>193</ele>
        <time>2016-10-08T09:09:08Z</time>
      </trkpt>
      <trkpt lat="45.94957" lon="4.74474">
        <ele>193</ele>
        <time>2016-10-08T09:09:09Z</time>
      </trkpt>
      <trkpt lat="45.9496" lon="4.74481">
        <ele>193</ele>
        <time>2016-10-08T09:09:10Z</time>
      </trkpt>
      <trkpt lat="45.94963" lon="4.74489">
        <ele>193</ele>
        <time>2016-10-08T09:09:11Z</time>
      </trkpt>
      <trkpt lat="45.94966" lon="4.74498">
        <ele>193</ele>
        <time>2016-10-08T09:09:12Z</time>
      </trkpt>
      <trkpt lat="45.94969" lon="4.74503">
        <ele>193</ele>
        <time>2016-10-08T09:09:13Z</time>
      </trkpt>
      <trkpt lat="45.94973" lon="4.74508">
        <ele>193</ele>
        <time>2016-10-08T09:09:14Z</time>
      </trkpt>
      <trkpt lat="45.94976" lon="4.74514">
        <ele>193</ele>
        <time>2016-10-08T09:09:15Z</time>
      </trkpt>
      <trkpt lat="45.9498" lon="4.74519">
        <ele>193</ele>
        <time>2016-10-08T09:09:16Z</time>
      </trkpt>
      <trkpt lat="45.94983" lon="4.74524">
        <ele>193</ele>
        <time>2016-10-08T09:09:17Z</time>
      </trkpt>
      <trkpt lat="45.94986" lon="4.7453">
        <ele>193</ele>
        <time>2016-10-08T09:09:18Z</time>
      </trkpt>
      <trkpt lat="45.94989" lon="4.74535">
        <ele>193</ele>
        <time>2016-10-08T09:09:19Z</time>
      </trkpt>
      <trkpt lat="45.94993" lon="4.74541">
        <ele>193</ele>
        <time>2016-10-08T09:09:20Z</time>
      </trkpt>
      <trkpt lat="45.94996" lon="4.74546">
        <ele>193</ele>
        <time>2016-10-08T09:09:21Z</time>
      </trkpt>
      <trkpt lat="45.94998" lon="4.74551">
        <ele>193</ele>
        <time>2016-10-08T09:09:22Z</time>
      </trkpt>
      <trkpt lat="45.95002" lon="4.74556">
        <ele>194</ele>
        <time>2016-10-08T09:09:23Z</time>
      </trkpt>
      <trkpt lat="45.95007" lon="4.74564">
        <ele>194</ele>
        <time>2016-10-08T09:09:25Z</time>
      </trkpt>
      <trkpt lat="45.95009" lon="4.74569">
        <ele>194</ele>
        <time>2016-10-08T09:09:26Z</time>
      </trkpt>
      <trkpt lat="45.95011" lon="4.74574">
        <ele>194</ele>
        <time>2016-10-08T09:09:27Z</time>
      </trkpt>
      <trkpt lat="45.95014" lon="4.7458">
        <ele>194</ele>
        <time>2016-10-08T09:09:28Z</time>
      </trkpt>
      <trkpt lat="45.95016" lon="4.74586">
        <ele>194</ele>
        <time>2016-10-08T09:09:29Z</time>
      </trkpt>
      <trkpt lat="45.9502" lon="4.74592">
        <ele>194</ele>
        <time>2016-10-08T09:09:30Z</time>
      </trkpt>
      <trkpt lat="45.95023" lon="4.74598">
        <ele>194</ele>
        <time>2016-10-08T09:09:31Z</time>
      </trkpt>
      <trkpt lat="45.95027" lon="4.74605">
        <ele>194</ele>
        <time>2016-10-08T09:09:32Z</time>
      </trkpt>
      <trkpt lat="45.9503" lon="4.74611">
        <ele>194</ele>
        <time>2016-10-08T09:09:33Z</time>
      </trkpt>
      <trkpt lat="45.95034" lon="4.74618">
        <ele>194</ele>
        <time>2016-10-08T09:09:34Z</time>
      </trkpt>
      <trkpt lat="45.95038" lon="4.74624">
        <ele>194</ele>
        <time>2016-10-08T09:09:35Z</time>
      </trkpt>
      <trkpt lat="45.95041" lon="4.74631">
        <ele>194</ele>
        <time>2016-10-08T09:09:36Z</time>
      </trkpt>
      <trkpt lat="45.95044" lon="4.74638">
        <ele>194</ele>
        <time>2016-10-08T09:09:37Z</time>
      </trkpt>
      <trkpt lat="45.95047" lon="4.74643">
        <ele>194</ele>
        <time>2016-10-08T09:09:38Z</time>
      </trkpt>
      <trkpt lat="45.95051" lon="4.74649">
        <ele>194</ele>
        <time>2016-10-08T09:09:39Z</time>
      </trkpt>
      <trkpt lat="45.95054" lon="4.74654">
        <ele>194</ele>
        <time>2016-10-08T09:09:40Z</time>
      </trkpt>
      <trkpt lat="45.95057" lon="4.7466">
        <ele>194</ele>
        <time>2016-10-08T09:09:41Z</time>
      </trkpt>
      <trkpt lat="45.9506" lon="4.74666">
        <ele>194</ele>
        <time>2016-10-08T09:09:42Z</time>
      </trkpt>
      <trkpt lat="45.95063" lon="4.74672">
        <ele>194</ele>
        <time>2016-10-08T09:09:43Z</time>
      </trkpt>
      <trkpt lat="45.95066" lon="4.74678">
        <ele>194</ele>
        <time>2016-10-08T09:09:44Z</time>
      </trkpt>
      <trkpt lat="45.9507" lon="4.74684">
        <ele>194</ele>
        <time>2016-10-08T09:09:45Z</time>
      </trkpt>
      <trkpt lat="45.95073" lon="4.74689">
        <ele>194</ele>
        <time>2016-10-08T09:09:46Z</time>
      </trkpt>
      <trkpt lat="45.95077" lon="4.74695">
        <ele>194</ele>
        <time>2016-10-08T09:09:47Z</time>
      </trkpt>
      <trkpt lat="45.9508" lon="4.74701">
        <ele>194</ele>
        <time>2016-10-08T09:09:48Z</time>
      </trkpt>
      <trkpt lat="45.95084" lon="4.74706">
        <ele>194</ele>
        <time>2016-10-08T09:09:49Z</time>
      </trkpt>
      <trkpt lat="45.95087" lon="4.74712">
        <ele>194</ele>
        <time>2016-10-08T09:09:50Z</time>
      </trkpt>
      <trkpt lat="45.95091" lon="4.74718">
        <ele>194</ele>
        <time>2016-10-08T09:09:51Z</time>
      </trkpt>
      <trkpt lat="45.95093" lon="4.74725">
        <ele>194</ele>
        <time>2016-10-08T09:09:52Z</time>
      </trkpt>
      <trkpt lat="45.95098" lon="4.7473">
        <ele>194</ele>
        <time>2016-10-08T09:09:53Z</time>
      </trkpt>
      <trkpt lat="45.95102" lon="4.74736">
        <ele>194</ele>
        <time>2016-10-08T09:09:54Z</time>
      </trkpt>
      <trkpt lat="45.95106" lon="4.7474">
        <ele>194</ele>
        <time>2016-10-08T09:09:55Z</time>
      </trkpt>
      <trkpt lat="45.95109" lon="4.74747">
        <ele>194</ele>
        <time>2016-10-08T09:09:56Z</time>
      </trkpt>
      <trkpt lat="45.95113" lon="4.74753">
        <ele>194</ele>
        <time>2016-10-08T09:09:57Z</time>
      </trkpt>
      <trkpt lat="45.95116" lon="4.74759">
        <ele>194</ele>
        <time>2016-10-08T09:09:58Z</time>
      </trkpt>
      <trkpt lat="45.9512" lon="4.74764">
        <ele>194</ele>
        <time>2016-10-08T09:09:59Z</time>
      </trkpt>
      <trkpt lat="45.95123" lon="4.7477">
        <ele>194</ele>
        <time>2016-10-08T09:10:00Z</time>
      </trkpt>
      <trkpt lat="45.95127" lon="4.74775">
        <ele>194</ele>
        <time>2016-10-08T09:10:01Z</time>
      </trkpt>
      <trkpt lat="45.9513" lon="4.74781">
        <ele>194</ele>
        <time>2016-10-08T09:10:02Z</time>
      </trkpt>
      <trkpt lat="45.95134" lon="4.74787">
        <ele>194</ele>
        <time>2016-10-08T09:10:03Z</time>
      </trkpt>
      <trkpt lat="45.95137" lon="4.74793">
        <ele>194</ele>
        <time>2016-10-08T09:10:04Z</time>
      </trkpt>
      <trkpt lat="45.95141" lon="4.74798">
        <ele>194</ele>
        <time>2016-10-08T09:10:05Z</time>
      </trkpt>
      <trkpt lat="45.95144" lon="4.74803">
        <ele>194</ele>
        <time>2016-10-08T09:10:06Z</time>
      </trkpt>
      <trkpt lat="45.95147" lon="4.74811">
        <ele>194</ele>
        <time>2016-10-08T09:10:07Z</time>
      </trkpt>
      <trkpt lat="45.9515" lon="4.74817">
        <ele>194</ele>
        <time>2016-10-08T09:10:08Z</time>
      </trkpt>
      <trkpt lat="45.95153" lon="4.74824">
        <ele>194</ele>
        <time>2016-10-08T09:10:09Z</time>
      </trkpt>
      <trkpt lat="45.95156" lon="4.74831">
        <ele>194</ele>
        <time>2016-10-08T09:10:10Z</time>
      </trkpt>
      <trkpt lat="45.9516" lon="4.74836">
        <ele>194</ele>
        <time>2016-10-08T09:10:11Z</time>
      </trkpt>
      <trkpt lat="45.95164" lon="4.74842">
        <ele>193</ele>
        <time>2016-10-08T09:10:12Z</time>
      </trkpt>
      <trkpt lat="45.95167" lon="4.74847">
        <ele>194</ele>
        <time>2016-10-08T09:10:13Z</time>
      </trkpt>
      <trkpt lat="45.95171" lon="4.74853">
        <ele>194</ele>
        <time>2016-10-08T09:10:14Z</time>
      </trkpt>
      <trkpt lat="45.95175" lon="4.74858">
        <ele>194</ele>
        <time>2016-10-08T09:10:15Z</time>
      </trkpt>
      <trkpt lat="45.95178" lon="4.74863">
        <ele>194</ele>
        <time>2016-10-08T09:10:16Z</time>
      </trkpt>
      <trkpt lat="45.95182" lon="4.74869">
        <ele>194</ele>
        <time>2016-10-08T09:10:17Z</time>
      </trkpt>
      <trkpt lat="45.95185" lon="4.74875">
        <ele>194</ele>
        <time>2016-10-08T09:10:18Z</time>
      </trkpt>
      <trkpt lat="45.9519" lon="4.74881">
        <ele>194</ele>
        <time>2016-10-08T09:10:19Z</time>
      </trkpt>
      <trkpt lat="45.95194" lon="4.74887">
        <ele>194</ele>
        <time>2016-10-08T09:10:20Z</time>
      </trkpt>
      <trkpt lat="45.95198" lon="4.74892">
        <ele>194</ele>
        <time>2016-10-08T09:10:21Z</time>
      </trkpt>
      <trkpt lat="45.95202" lon="4.74898">
        <ele>194</ele>
        <time>2016-10-08T09:10:22Z</time>
      </trkpt>
      <trkpt lat="45.95205" lon="4.74904">
        <ele>194</ele>
        <time>2016-10-08T09:10:23Z</time>
      </trkpt>
      <trkpt lat="45.95208" lon="4.7491">
        <ele>194</ele>
        <time>2016-10-08T09:10:24Z</time>
      </trkpt>
      <trkpt lat="45.95212" lon="4.74916">
        <ele>193</ele>
        <time>2016-10-08T09:10:25Z</time>
      </trkpt>
      <trkpt lat="45.95217" lon="4.74922">
        <ele>192</ele>
        <time>2016-10-08T09:10:26Z</time>
      </trkpt>
      <trkpt lat="45.9522" lon="4.74929">
        <ele>192</ele>
        <time>2016-10-08T09:10:27Z</time>
      </trkpt>
      <trkpt lat="45.95224" lon="4.74935">
        <ele>192</ele>
        <time>2016-10-08T09:10:28Z</time>
      </trkpt>
      <trkpt lat="45.95228" lon="4.7494">
        <ele>192</ele>
        <time>2016-10-08T09:10:29Z</time>
      </trkpt>
      <trkpt lat="45.95232" lon="4.74946">
        <ele>192</ele>
        <time>2016-10-08T09:10:30Z</time>
      </trkpt>
      <trkpt lat="45.95236" lon="4.74952">
        <ele>192</ele>
        <time>2016-10-08T09:10:31Z</time>
      </trkpt>
      <trkpt lat="45.9524" lon="4.74957">
        <ele>192</ele>
        <time>2016-10-08T09:10:32Z</time>
      </trkpt>
      <trkpt lat="45.95243" lon="4.74965">
        <ele>191</ele>
        <time>2016-10-08T09:10:33Z</time>
      </trkpt>
      <trkpt lat="45.95248" lon="4.7497">
        <ele>191</ele>
        <time>2016-10-08T09:10:34Z</time>
      </trkpt>
      <trkpt lat="45.95253" lon="4.74976">
        <ele>192</ele>
        <time>2016-10-08T09:10:35Z</time>
      </trkpt>
      <trkpt lat="45.95257" lon="4.74981">
        <ele>192</ele>
        <time>2016-10-08T09:10:36Z</time>
      </trkpt>
      <trkpt lat="45.95261" lon="4.74987">
        <ele>192</ele>
        <time>2016-10-08T09:10:37Z</time>
      </trkpt>
      <trkpt lat="45.95265" lon="4.74993">
        <ele>192</ele>
        <time>2016-10-08T09:10:38Z</time>
      </trkpt>
      <trkpt lat="45.95268" lon="4.74999">
        <ele>192</ele>
        <time>2016-10-08T09:10:39Z</time>
      </trkpt>
      <trkpt lat="45.95272" lon="4.75005">
        <ele>191</ele>
        <time>2016-10-08T09:10:40Z</time>
      </trkpt>
      <trkpt lat="45.95276" lon="4.75011">
        <ele>191</ele>
        <time>2016-10-08T09:10:41Z</time>
      </trkpt>
      <trkpt lat="45.9528" lon="4.75017">
        <ele>191</ele>
        <time>2016-10-08T09:10:42Z</time>
      </trkpt>
      <trkpt lat="45.95284" lon="4.75024">
        <ele>191</ele>
        <time>2016-10-08T09:10:43Z</time>
      </trkpt>
      <trkpt lat="45.95288" lon="4.7503">
        <ele>191</ele>
        <time>2016-10-08T09:10:44Z</time>
      </trkpt>
      <trkpt lat="45.95292" lon="4.75036">
        <ele>191</ele>
        <time>2016-10-08T09:10:45Z</time>
      </trkpt>
      <trkpt lat="45.95296" lon="4.75042">
        <ele>191</ele>
        <time>2016-10-08T09:10:46Z</time>
      </trkpt>
      <trkpt lat="45.953" lon="4.75048">
        <ele>191</ele>
        <time>2016-10-08T09:10:47Z</time>
      </trkpt>
      <trkpt lat="45.95304" lon="4.75054">
        <ele>191</ele>
        <time>2016-10-08T09:10:48Z</time>
      </trkpt>
      <trkpt lat="45.95307" lon="4.75061">
        <ele>192</ele>
        <time>2016-10-08T09:10:49Z</time>
      </trkpt>
      <trkpt lat="45.95312" lon="4.75067">
        <ele>192</ele>
        <time>2016-10-08T09:10:50Z</time>
      </trkpt>
      <trkpt lat="45.95316" lon="4.75074">
        <ele>192</ele>
        <time>2016-10-08T09:10:51Z</time>
      </trkpt>
      <trkpt lat="45.95321" lon="4.7508">
        <ele>192</ele>
        <time>2016-10-08T09:10:52Z</time>
      </trkpt>
      <trkpt lat="45.95325" lon="4.75086">
        <ele>192</ele>
        <time>2016-10-08T09:10:53Z</time>
      </trkpt>
      <trkpt lat="45.9533" lon="4.75092">
        <ele>191</ele>
        <time>2016-10-08T09:10:54Z</time>
      </trkpt>
      <trkpt lat="45.95334" lon="4.75099">
        <ele>192</ele>
        <time>2016-10-08T09:10:55Z</time>
      </trkpt>
      <trkpt lat="45.95338" lon="4.75105">
        <ele>192</ele>
        <time>2016-10-08T09:10:56Z</time>
      </trkpt>
      <trkpt lat="45.95342" lon="4.75111">
        <ele>192</ele>
        <time>2016-10-08T09:10:57Z</time>
      </trkpt>
      <trkpt lat="45.95346" lon="4.75117">
        <ele>191</ele>
        <time>2016-10-08T09:10:58Z</time>
      </trkpt>
      <trkpt lat="45.9535" lon="4.75124">
        <ele>191</ele>
        <time>2016-10-08T09:10:59Z</time>
      </trkpt>
      <trkpt lat="45.95354" lon="4.7513">
        <ele>191</ele>
        <time>2016-10-08T09:11:00Z</time>
      </trkpt>
      <trkpt lat="45.95359" lon="4.75137">
        <ele>191</ele>
        <time>2016-10-08T09:11:01Z</time>
      </trkpt>
      <trkpt lat="45.95363" lon="4.75144">
        <ele>191</ele>
        <time>2016-10-08T09:11:02Z</time>
      </trkpt>
      <trkpt lat="45.95367" lon="4.75152">
        <ele>191</ele>
        <time>2016-10-08T09:11:03Z</time>
      </trkpt>
      <trkpt lat="45.9537" lon="4.75161">
        <ele>191</ele>
        <time>2016-10-08T09:11:04Z</time>
      </trkpt>
      <trkpt lat="45.95374" lon="4.75168">
        <ele>189</ele>
        <time>2016-10-08T09:11:05Z</time>
      </trkpt>
      <trkpt lat="45.95379" lon="4.75174">
        <ele>189</ele>
        <time>2016-10-08T09:11:06Z</time>
      </trkpt>
      <trkpt lat="45.95383" lon="4.75179">
        <ele>189</ele>
        <time>2016-10-08T09:11:07Z</time>
      </trkpt>
      <trkpt lat="45.95388" lon="4.75185">
        <ele>189</ele>
        <time>2016-10-08T09:11:08Z</time>
      </trkpt>
      <trkpt lat="45.95391" lon="4.75191">
        <ele>189</ele>
        <time>2016-10-08T09:11:09Z</time>
      </trkpt>
      <trkpt lat="45.95394" lon="4.75199">
        <ele>189</ele>
        <time>2016-10-08T09:11:10Z</time>
      </trkpt>
      <trkpt lat="45.95397" lon="4.75206">
        <ele>189</ele>
        <time>2016-10-08T09:11:11Z</time>
      </trkpt>
      <trkpt lat="45.954" lon="4.75213">
        <ele>188</ele>
        <time>2016-10-08T09:11:12Z</time>
      </trkpt>
      <trkpt lat="45.95405" lon="4.7522">
        <ele>188</ele>
        <time>2016-10-08T09:11:13Z</time>
      </trkpt>
      <trkpt lat="45.95409" lon="4.75226">
        <ele>189</ele>
        <time>2016-10-08T09:11:14Z</time>
      </trkpt>
      <trkpt lat="45.95413" lon="4.75233">
        <ele>189</ele>
        <time>2016-10-08T09:11:15Z</time>
      </trkpt>
      <trkpt lat="45.95418" lon="4.75241">
        <ele>190</ele>
        <time>2016-10-08T09:11:16Z</time>
      </trkpt>
      <trkpt lat="45.95421" lon="4.75248">
        <ele>189</ele>
        <time>2016-10-08T09:11:17Z</time>
      </trkpt>
      <trkpt lat="45.95425" lon="4.75255">
        <ele>189</ele>
        <time>2016-10-08T09:11:18Z</time>
      </trkpt>
      <trkpt lat="45.95429" lon="4.75261">
        <ele>189</ele>
        <time>2016-10-08T09:11:19Z</time>
      </trkpt>
      <trkpt lat="45.95435" lon="4.75266">
        <ele>189</ele>
        <time>2016-10-08T09:11:20Z</time>
      </trkpt>
      <trkpt lat="45.95439" lon="4.75273">
        <ele>189</ele>
        <time>2016-10-08T09:11:21Z</time>
      </trkpt>
      <trkpt lat="45.95444" lon="4.7528">
        <ele>188</ele>
        <time>2016-10-08T09:11:22Z</time>
      </trkpt>
      <trkpt lat="45.95447" lon="4.75287">
        <ele>188</ele>
        <time>2016-10-08T09:11:23Z</time>
      </trkpt>
      <trkpt lat="45.9545" lon="4.75296">
        <ele>188</ele>
        <time>2016-10-08T09:11:24Z</time>
      </trkpt>
      <trkpt lat="45.95453" lon="4.75304">
        <ele>188</ele>
        <time>2016-10-08T09:11:25Z</time>
      </trkpt>
      <trkpt lat="45.95457" lon="4.75311">
        <ele>188</ele>
        <time>2016-10-08T09:11:26Z</time>
      </trkpt>
      <trkpt lat="45.95462" lon="4.7532">
        <ele>188</ele>
        <time>2016-10-08T09:11:27Z</time>
      </trkpt>
      <trkpt lat="45.95465" lon="4.75329">
        <ele>188</ele>
        <time>2016-10-08T09:11:28Z</time>
      </trkpt>
      <trkpt lat="45.95468" lon="4.75338">
        <ele>186</ele>
        <time>2016-10-08T09:11:29Z</time>
      </trkpt>
      <trkpt lat="45.95472" lon="4.75346">
        <ele>186</ele>
        <time>2016-10-08T09:11:30Z</time>
      </trkpt>
      <trkpt lat="45.95476" lon="4.75353">
        <ele>186</ele>
        <time>2016-10-08T09:11:31Z</time>
      </trkpt>
      <trkpt lat="45.9548" lon="4.75361">
        <ele>186</ele>
        <time>2016-10-08T09:11:32Z</time>
      </trkpt>
      <trkpt lat="45.95484" lon="4.75368">
        <ele>185</ele>
        <time>2016-10-08T09:11:33Z</time>
      </trkpt>
      <trkpt lat="45.95488" lon="4.75375">
        <ele>185</ele>
        <time>2016-10-08T09:11:34Z</time>
      </trkpt>
      <trkpt lat="45.95492" lon="4.75382">
        <ele>185</ele>
        <time>2016-10-08T09:11:35Z</time>
      </trkpt>
      <trkpt lat="45.95495" lon="4.75389">
        <ele>185</ele>
        <time>2016-10-08T09:11:36Z</time>
      </trkpt>
      <trkpt lat="45.95498" lon="4.75396">
        <ele>185</ele>
        <time>2016-10-08T09:11:37Z</time>
      </trkpt>
      <trkpt lat="45.95502" lon="4.75403">
        <ele>187</ele>
        <time>2016-10-08T09:11:38Z</time>
      </trkpt>
      <trkpt lat="45.95505" lon="4.75411">
        <ele>186</ele>
        <time>2016-10-08T09:11:39Z</time>
      </trkpt>
      <trkpt lat="45.95507" lon="4.75419">
        <ele>186</ele>
        <time>2016-10-08T09:11:40Z</time>
      </trkpt>
      <trkpt lat="45.95509" lon="4.75428">
        <ele>186</ele>
        <time>2016-10-08T09:11:41Z</time>
      </trkpt>
      <trkpt lat="45.95511" lon="4.75437">
        <ele>186</ele>
        <time>2016-10-08T09:11:42Z</time>
      </trkpt>
      <trkpt lat="45.95512" lon="4.75445">
        <ele>187</ele>
        <time>2016-10-08T09:11:43Z</time>
      </trkpt>
      <trkpt lat="45.95512" lon="4.75451">
        <ele>187</ele>
        <time>2016-10-08T09:11:44Z</time>
      </trkpt>
      <trkpt lat="45.95512" lon="4.75463">
        <ele>187</ele>
        <time>2016-10-08T09:11:47Z</time>
      </trkpt>
      <trkpt lat="45.95511" lon="4.75468">
        <ele>186</ele>
        <time>2016-10-08T09:11:48Z</time>
      </trkpt>
      <trkpt lat="45.9551" lon="4.75479">
        <ele>186</ele>
        <time>2016-10-08T09:11:50Z</time>
      </trkpt>
      <trkpt lat="45.95511" lon="4.75485">
        <ele>186</ele>
        <time>2016-10-08T09:11:51Z</time>
      </trkpt>
      <trkpt lat="45.95514" lon="4.7549">
        <ele>186</ele>
        <time>2016-10-08T09:11:52Z</time>
      </trkpt>
      <trkpt lat="45.95518" lon="4.75495">
        <ele>186</ele>
        <time>2016-10-08T09:11:53Z</time>
      </trkpt>
      <trkpt lat="45.95522" lon="4.75499">
        <ele>186</ele>
        <time>2016-10-08T09:11:54Z</time>
      </trkpt>
      <trkpt lat="45.95526" lon="4.75504">
        <ele>185</ele>
        <time>2016-10-08T09:11:55Z</time>
      </trkpt>
      <trkpt lat="45.95531" lon="4.75506">
        <ele>185</ele>
        <time>2016-10-08T09:11:56Z</time>
      </trkpt>
      <trkpt lat="45.95535" lon="4.75512">
        <ele>186</ele>
        <time>2016-10-08T09:11:57Z</time>
      </trkpt>
      <trkpt lat="45.95538" lon="4.75517">
        <ele>186</ele>
        <time>2016-10-08T09:11:58Z</time>
      </trkpt>
      <trkpt lat="45.95542" lon="4.75521">
        <ele>186</ele>
        <time>2016-10-08T09:11:59Z</time>
      </trkpt>
      <trkpt lat="45.95546" lon="4.75526">
        <ele>186</ele>
        <time>2016-10-08T09:12:00Z</time>
      </trkpt>
      <trkpt lat="45.95551" lon="4.7553">
        <ele>186</ele>
        <time>2016-10-08T09:12:01Z</time>
      </trkpt>
      <trkpt lat="45.95555" lon="4.75535">
        <ele>186</ele>
        <time>2016-10-08T09:12:02Z</time>
      </trkpt>
      <trkpt lat="45.95559" lon="4.75539">
        <ele>186</ele>
        <time>2016-10-08T09:12:03Z</time>
      </trkpt>
      <trkpt lat="45.95564" lon="4.75543">
        <ele>186</ele>
        <time>2016-10-08T09:12:04Z</time>
      </trkpt>
      <trkpt lat="45.95568" lon="4.75547">
        <ele>186</ele>
        <time>2016-10-08T09:12:05Z</time>
      </trkpt>
      <trkpt lat="45.95572" lon="4.75553">
        <ele>186</ele>
        <time>2016-10-08T09:12:06Z</time>
      </trkpt>
      <trkpt lat="45.95577" lon="4.75557">
        <ele>186</ele>
        <time>2016-10-08T09:12:07Z</time>
      </trkpt>
      <trkpt lat="45.95582" lon="4.75562">
        <ele>186</ele>
        <time>2016-10-08T09:12:08Z</time>
      </trkpt>
      <trkpt lat="45.95586" lon="4.75568">
        <ele>188</ele>
        <time>2016-10-08T09:12:09Z</time>
      </trkpt>
      <trkpt lat="45.95589" lon="4.75575">
        <ele>187</ele>
        <time>2016-10-08T09:12:10Z</time>
      </trkpt>
      <trkpt lat="45.95592" lon="4.75581">
        <ele>187</ele>
        <time>2016-10-08T09:12:11Z</time>
      </trkpt>
      <trkpt lat="45.95595" lon="4.75587">
        <ele>187</ele>
        <time>2016-10-08T09:12:12Z</time>
      </trkpt>
      <trkpt lat="45.95597" lon="4.75593">
        <ele>187</ele>
        <time>2016-10-08T09:12:13Z</time>
      </trkpt>
      <trkpt lat="45.956" lon="4.756">
        <ele>187</ele>
        <time>2016-10-08T09:12:14Z</time>
      </trkpt>
      <trkpt lat="45.95603" lon="4.75605">
        <ele>187</ele>
        <time>2016-10-08T09:12:15Z</time>
      </trkpt>
      <trkpt lat="45.95605" lon="4.75611">
        <ele>187</ele>
        <time>2016-10-08T09:12:16Z</time>
      </trkpt>
      <trkpt lat="45.95608" lon="4.75618">
        <ele>188</ele>
        <time>2016-10-08T09:12:17Z</time>
      </trkpt>
      <trkpt lat="45.9561" lon="4.75624">
        <ele>188</ele>
        <time>2016-10-08T09:12:18Z</time>
      </trkpt>
      <trkpt lat="45.95612" lon="4.7563">
        <ele>188</ele>
        <time>2016-10-08T09:12:19Z</time>
      </trkpt>
      <trkpt lat="45.95613" lon="4.75636">
        <ele>188</ele>
        <time>2016-10-08T09:12:20Z</time>
      </trkpt>
      <trkpt lat="45.95615" lon="4.75643">
        <ele>188</ele>
        <time>2016-10-08T09:12:21Z</time>
      </trkpt>
      <trkpt lat="45.95617" lon="4.7565">
        <ele>188</ele>
        <time>2016-10-08T09:12:22Z</time>
      </trkpt>
      <trkpt lat="45.95618" lon="4.75656">
        <ele>188</ele>
        <time>2016-10-08T09:12:23Z</time>
      </trkpt>
      <trkpt lat="45.9562" lon="4.75664">
        <ele>188</ele>
        <time>2016-10-08T09:12:24Z</time>
      </trkpt>
      <trkpt lat="45.95621" lon="4.75671">
        <ele>187</ele>
        <time>2016-10-08T09:12:25Z</time>
      </trkpt>
      <trkpt lat="45.95622" lon="4.75678">
        <ele>187</ele>
        <time>2016-10-08T09:12:26Z</time>
      </trkpt>
      <trkpt lat="45.95623" lon="4.75685">
        <ele>187</ele>
        <time>2016-10-08T09:12:27Z</time>
      </trkpt>
      <trkpt lat="45.95624" lon="4.75693">
        <ele>187</ele>
        <time>2016-10-08T09:12:28Z</time>
      </trkpt>
      <trkpt lat="45.95625" lon="4.757">
        <ele>187</ele>
        <time>2016-10-08T09:12:29Z</time>
      </trkpt>
      <trkpt lat="45.95626" lon="4.75708">
        <ele>187</ele>
        <time>2016-10-08T09:12:30Z</time>
      </trkpt>
      <trkpt lat="45.95628" lon="4.75715">
        <ele>187</ele>
        <time>2016-10-08T09:12:31Z</time>
      </trkpt>
      <trkpt lat="45.95629" lon="4.75723">
        <ele>187</ele>
        <time>2016-10-08T09:12:32Z</time>
      </trkpt>
      <trkpt lat="45.9563" lon="4.75731">
        <ele>187</ele>
        <time>2016-10-08T09:12:33Z</time>
      </trkpt>
      <trkpt lat="45.95631" lon="4.75738">
        <ele>187</ele>
        <time>2016-10-08T09:12:34Z</time>
      </trkpt>
      <trkpt lat="45.95632" lon="4.75746">
        <ele>187</ele>
        <time>2016-10-08T09:12:35Z</time>
      </trkpt>
      <trkpt lat="45.95632" lon="4.75754">
        <ele>186</ele>
        <time>2016-10-08T09:12:36Z</time>
      </trkpt>
      <trkpt lat="45.95632" lon="4.75761">
        <ele>186</ele>
        <time>2016-10-08T09:12:37Z</time>
      </trkpt>
      <trkpt lat="45.95633" lon="4.75769">
        <ele>185</ele>
        <time>2016-10-08T09:12:38Z</time>
      </trkpt>
      <trkpt lat="45.95634" lon="4.75778">
        <ele>185</ele>
        <time>2016-10-08T09:12:39Z</time>
      </trkpt>
      <trkpt lat="45.95636" lon="4.75786">
        <ele>185</ele>
        <time>2016-10-08T09:12:40Z</time>
      </trkpt>
      <trkpt lat="45.95637" lon="4.75793">
        <ele>185</ele>
        <time>2016-10-08T09:12:41Z</time>
      </trkpt>
      <trkpt lat="45.95639" lon="4.75801">
        <ele>185</ele>
        <time>2016-10-08T09:12:42Z</time>
      </trkpt>
      <trkpt lat="45.9564" lon="4.75809">
        <ele>185</ele>
        <time>2016-10-08T09:12:43Z</time>
      </trkpt>
      <trkpt lat="45.95642" lon="4.75817">
        <ele>185</ele>
        <time>2016-10-08T09:12:44Z</time>
      </trkpt>
      <trkpt lat="45.95644" lon="4.75824">
        <ele>185</ele>
        <time>2016-10-08T09:12:45Z</time>
      </trkpt>
      <trkpt lat="45.95646" lon="4.75832">
        <ele>185</ele>
        <time>2016-10-08T09:12:46Z</time>
      </trkpt>
      <trkpt lat="45.95648" lon="4.75839">
        <ele>185</ele>
        <time>2016-10-08T09:12:47Z</time>
      </trkpt>
      <trkpt lat="45.9565" lon="4.75847">
        <ele>184</ele>
        <time>2016-10-08T09:12:48Z</time>
      </trkpt>
      <trkpt lat="45.95652" lon="4.75855">
        <ele>184</ele>
        <time>2016-10-08T09:12:49Z</time>
      </trkpt>
      <trkpt lat="45.95654" lon="4.75863">
        <ele>184</ele>
        <time>2016-10-08T09:12:50Z</time>
      </trkpt>
      <trkpt lat="45.95656" lon="4.75871">
        <ele>184</ele>
        <time>2016-10-08T09:12:51Z</time>
      </trkpt>
      <trkpt lat="45.95659" lon="4.75878">
        <ele>184</ele>
        <time>2016-10-08T09:12:52Z</time>
      </trkpt>
      <trkpt lat="45.9566" lon="4.75887">
        <ele>184</ele>
        <time>2016-10-08T09:12:53Z</time>
      </trkpt>
      <trkpt lat="45.95664" lon="4.75894">
        <ele>184</ele>
        <time>2016-10-08T09:12:54Z</time>
      </trkpt>
      <trkpt lat="45.95666" lon="4.75902">
        <ele>184</ele>
        <time>2016-10-08T09:12:55Z</time>
      </trkpt>
      <trkpt lat="45.95669" lon="4.7591">
        <ele>185</ele>
        <time>2016-10-08T09:12:56Z</time>
      </trkpt>
      <trkpt lat="45.95672" lon="4.75917">
        <ele>184</ele>
        <time>2016-10-08T09:12:57Z</time>
      </trkpt>
      <trkpt lat="45.95675" lon="4.75924">
        <ele>184</ele>
        <time>2016-10-08T09:12:58Z</time>
      </trkpt>
      <trkpt lat="45.95678" lon="4.75932">
        <ele>185</ele>
        <time>2016-10-08T09:12:59Z</time>
      </trkpt>
      <trkpt lat="45.95681" lon="4.7594">
        <ele>185</ele>
        <time>2016-10-08T09:13:00Z</time>
      </trkpt>
      <trkpt lat="45.95685" lon="4.75947">
        <ele>185</ele>
        <time>2016-10-08T09:13:01Z</time>
      </trkpt>
      <trkpt lat="45.95688" lon="4.75955">
        <ele>185</ele>
        <time>2016-10-08T09:13:02Z</time>
      </trkpt>
      <trkpt lat="45.95692" lon="4.75961">
        <ele>185</ele>
        <time>2016-10-08T09:13:03Z</time>
      </trkpt>
      <trkpt lat="45.95695" lon="4.75968">
        <ele>185</ele>
        <time>2016-10-08T09:13:04Z</time>
      </trkpt>
      <trkpt lat="45.95698" lon="4.75976">
        <ele>185</ele>
        <time>2016-10-08T09:13:05Z</time>
      </trkpt>
      <trkpt lat="45.95701" lon="4.75983">
        <ele>185</ele>
        <time>2016-10-08T09:13:06Z</time>
      </trkpt>
      <trkpt lat="45.95704" lon="4.75989">
        <ele>185</ele>
        <time>2016-10-08T09:13:07Z</time>
      </trkpt>
      <trkpt lat="45.95707" lon="4.75996">
        <ele>185</ele>
        <time>2016-10-08T09:13:08Z</time>
      </trkpt>
      <trkpt lat="45.9571" lon="4.76003">
        <ele>184</ele>
        <time>2016-10-08T09:13:09Z</time>
      </trkpt>
      <trkpt lat="45.95713" lon="4.76009">
        <ele>184</ele>
        <time>2016-10-08T09:13:10Z</time>
      </trkpt>
      <trkpt lat="45.95716" lon="4.76016">
        <ele>184</ele>
        <time>2016-10-08T09:13:11Z</time>
      </trkpt>
      <trkpt lat="45.95719" lon="4.76022">
        <ele>184</ele>
        <time>2016-10-08T09:13:12Z</time>
      </trkpt>
      <trkpt lat="45.95722" lon="4.76029">
        <ele>184</ele>
        <time>2016-10-08T09:13:13Z</time>
      </trkpt>
      <trkpt lat="45.95725" lon="4.76035">
        <ele>184</ele>
        <time>2016-10-08T09:13:14Z</time>
      </trkpt>
      <trkpt lat="45.95728" lon="4.76042">
        <ele>184</ele>
        <time>2016-10-08T09:13:15Z</time>
      </trkpt>
      <trkpt lat="45.95731" lon="4.76048">
        <ele>184</ele>
        <time>2016-10-08T09:13:16Z</time>
      </trkpt>
      <trkpt lat="45.95734" lon="4.76054">
        <ele>184</ele>
        <time>2016-10-08T09:13:17Z</time>
      </trkpt>
      <trkpt lat="45.95737" lon="4.76061">
        <ele>184</ele>
        <time>2016-10-08T09:13:18Z</time>
      </trkpt>
      <trkpt lat="45.9574" lon="4.76067">
        <ele>185</ele>
        <time>2016-10-08T09:13:19Z</time>
      </trkpt>
      <trkpt lat="45.95743" lon="4.76073">
        <ele>185</ele>
        <time>2016-10-08T09:13:20Z</time>
      </trkpt>
      <trkpt lat="45.95746" lon="4.76079">
        <ele>185</ele>
        <time>2016-10-08T09:13:21Z</time>
      </trkpt>
      <trkpt lat="45.95748" lon="4.76086">
        <ele>185</ele>
        <time>2016-10-08T09:13:22Z</time>
      </trkpt>
      <trkpt lat="45.9575" lon="4.76092">
        <ele>185</ele>
        <time>2016-10-08T09:13:23Z</time>
      </trkpt>
      <trkpt lat="45.95751" lon="4.76098">
        <ele>186</ele>
        <time>2016-10-08T09:13:24Z</time>
      </trkpt>
      <trkpt lat="45.95753" lon="4.76104">
        <ele>186</ele>
        <time>2016-10-08T09:13:25Z</time>
      </trkpt>
      <trkpt lat="45.95755" lon="4.7611">
        <ele>186</ele>
        <time>2016-10-08T09:13:26Z</time>
      </trkpt>
      <trkpt lat="45.95756" lon="4.76117">
        <ele>186</ele>
        <time>2016-10-08T09:13:27Z</time>
      </trkpt>
      <trkpt lat="45.95758" lon="4.76125">
        <ele>186</ele>
        <time>2016-10-08T09:13:28Z</time>
      </trkpt>
      <trkpt lat="45.95758" lon="4.76132">
        <ele>186</ele>
        <time>2016-10-08T09:13:29Z</time>
      </trkpt>
      <trkpt lat="45.95759" lon="4.76139">
        <ele>186</ele>
        <time>2016-10-08T09:13:30Z</time>
      </trkpt>
      <trkpt lat="45.9576" lon="4.76147">
        <ele>186</ele>
        <time>2016-10-08T09:13:31Z</time>
      </trkpt>
      <trkpt lat="45.95761" lon="4.76154">
        <ele>186</ele>
        <time>2016-10-08T09:13:32Z</time>
      </trkpt>
      <trkpt lat="45.95762" lon="4.76161">
        <ele>186</ele>
        <time>2016-10-08T09:13:33Z</time>
      </trkpt>
      <trkpt lat="45.95762" lon="4.76169">
        <ele>185</ele>
        <time>2016-10-08T09:13:34Z</time>
      </trkpt>
      <trkpt lat="45.95763" lon="4.76176">
        <ele>185</ele>
        <time>2016-10-08T09:13:35Z</time>
      </trkpt>
      <trkpt lat="45.95763" lon="4.76184">
        <ele>186</ele>
        <time>2016-10-08T09:13:36Z</time>
      </trkpt>
      <trkpt lat="45.95763" lon="4.76191">
        <ele>186</ele>
        <time>2016-10-08T09:13:37Z</time>
      </trkpt>
      <trkpt lat="45.95764" lon="4.76198">
        <ele>186</ele>
        <time>2016-10-08T09:13:38Z</time>
      </trkpt>
      <trkpt lat="45.95764" lon="4.76205">
        <ele>186</ele>
        <time>2016-10-08T09:13:39Z</time>
      </trkpt>
      <trkpt lat="45.95764" lon="4.76212">
        <ele>186</ele>
        <time>2016-10-08T09:13:40Z</time>
      </trkpt>
      <trkpt lat="45.95764" lon="4.7622">
        <ele>186</ele>
        <time>2016-10-08T09:13:41Z</time>
      </trkpt>
      <trkpt lat="45.95765" lon="4.76227">
        <ele>186</ele>
        <time>2016-10-08T09:13:42Z</time>
      </trkpt>
      <trkpt lat="45.95766" lon="4.76234">
        <ele>186</ele>
        <time>2016-10-08T09:13:43Z</time>
      </trkpt>
      <trkpt lat="45.95766" lon="4.76241">
        <ele>186</ele>
        <time>2016-10-08T09:13:44Z</time>
      </trkpt>
      <trkpt lat="45.95767" lon="4.76248">
        <ele>186</ele>
        <time>2016-10-08T09:13:45Z</time>
      </trkpt>
      <trkpt lat="45.95767" lon="4.76256">
        <ele>185</ele>
        <time>2016-10-08T09:13:46Z</time>
      </trkpt>
      <trkpt lat="45.95767" lon="4.76263">
        <ele>185</ele>
        <time>2016-10-08T09:13:47Z</time>
      </trkpt>
      <trkpt lat="45.95768" lon="4.76271">
        <ele>186</ele>
        <time>2016-10-08T09:13:48Z</time>
      </trkpt>
      <trkpt lat="45.95768" lon="4.76279">
        <ele>186</ele>
        <time>2016-10-08T09:13:49Z</time>
      </trkpt>
      <trkpt lat="45.95769" lon="4.76287">
        <ele>186</ele>
        <time>2016-10-08T09:13:50Z</time>
      </trkpt>
      <trkpt lat="45.95769" lon="4.76295">
        <ele>186</ele>
        <time>2016-10-08T09:13:51Z</time>
      </trkpt>
      <trkpt lat="45.9577" lon="4.76303">
        <ele>186</ele>
        <time>2016-10-08T09:13:52Z</time>
      </trkpt>
      <trkpt lat="45.9577" lon="4.76311">
        <ele>186</ele>
        <time>2016-10-08T09:13:53Z</time>
      </trkpt>
      <trkpt lat="45.95771" lon="4.76319">
        <ele>185</ele>
        <time>2016-10-08T09:13:54Z</time>
      </trkpt>
      <trkpt lat="45.95771" lon="4.76327">
        <ele>185</ele>
        <time>2016-10-08T09:13:55Z</time>
      </trkpt>
      <trkpt lat="45.95772" lon="4.76334">
        <ele>186</ele>
        <time>2016-10-08T09:13:56Z</time>
      </trkpt>
      <trkpt lat="45.95772" lon="4.76342">
        <ele>186</ele>
        <time>2016-10-08T09:13:57Z</time>
      </trkpt>
      <trkpt lat="45.95773" lon="4.76349">
        <ele>186</ele>
        <time>2016-10-08T09:13:58Z</time>
      </trkpt>
      <trkpt lat="45.95774" lon="4.76357">
        <ele>186</ele>
        <time>2016-10-08T09:13:59Z</time>
      </trkpt>
      <trkpt lat="45.95775" lon="4.76363">
        <ele>186</ele>
        <time>2016-10-08T09:14:00Z</time>
      </trkpt>
      <trkpt lat="45.95777" lon="4.7637">
        <ele>186</ele>
        <time>2016-10-08T09:14:01Z</time>
      </trkpt>
      <trkpt lat="45.95779" lon="4.76375">
        <ele>186</ele>
        <time>2016-10-08T09:14:02Z</time>
      </trkpt>
      <trkpt lat="45.95779" lon="4.76383">
        <ele>186</ele>
        <time>2016-10-08T09:14:03Z</time>
      </trkpt>
      <trkpt lat="45.95778" lon="4.76393">
        <ele>186</ele>
        <time>2016-10-08T09:14:04Z</time>
      </trkpt>
      <trkpt lat="45.95778" lon="4.76402">
        <ele>186</ele>
        <time>2016-10-08T09:14:05Z</time>
      </trkpt>
      <trkpt lat="45.95778" lon="4.7641">
        <ele>186</ele>
        <time>2016-10-08T09:14:06Z</time>
      </trkpt>
      <trkpt lat="45.95779" lon="4.76418">
        <ele>186</ele>
        <time>2016-10-08T09:14:07Z</time>
      </trkpt>
      <trkpt lat="45.9578" lon="4.76426">
        <ele>186</ele>
        <time>2016-10-08T09:14:08Z</time>
      </trkpt>
      <trkpt lat="45.9578" lon="4.76435">
        <ele>186</ele>
        <time>2016-10-08T09:14:09Z</time>
      </trkpt>
      <trkpt lat="45.95781" lon="4.76442">
        <ele>186</ele>
        <time>2016-10-08T09:14:10Z</time>
      </trkpt>
      <trkpt lat="45.95782" lon="4.76451">
        <ele>186</ele>
        <time>2016-10-08T09:14:11Z</time>
      </trkpt>
      <trkpt lat="45.95782" lon="4.76459">
        <ele>186</ele>
        <time>2016-10-08T09:14:12Z</time>
      </trkpt>
      <trkpt lat="45.95783" lon="4.76468">
        <ele>186</ele>
        <time>2016-10-08T09:14:13Z</time>
      </trkpt>
      <trkpt lat="45.95784" lon="4.76476">
        <ele>186</ele>
        <time>2016-10-08T09:14:14Z</time>
      </trkpt>
      <trkpt lat="45.95784" lon="4.76485">
        <ele>186</ele>
        <time>2016-10-08T09:14:15Z</time>
      </trkpt>
      <trkpt lat="45.95786" lon="4.76492">
        <ele>186</ele>
        <time>2016-10-08T09:14:16Z</time>
      </trkpt>
      <trkpt lat="45.95788" lon="4.76499">
        <ele>186</ele>
        <time>2016-10-08T09:14:17Z</time>
      </trkpt>
      <trkpt lat="45.95789" lon="4.76507">
        <ele>187</ele>
        <time>2016-10-08T09:14:18Z</time>
      </trkpt>
      <trkpt lat="45.95789" lon="4.76514">
        <ele>187</ele>
        <time>2016-10-08T09:14:19Z</time>
      </trkpt>
      <trkpt lat="45.9579" lon="4.76521">
        <ele>187</ele>
        <time>2016-10-08T09:14:20Z</time>
      </trkpt>
      <trkpt lat="45.95791" lon="4.76528">
        <ele>187</ele>
        <time>2016-10-08T09:14:21Z</time>
      </trkpt>
      <trkpt lat="45.95792" lon="4.76535">
        <ele>187</ele>
        <time>2016-10-08T09:14:22Z</time>
      </trkpt>
      <trkpt lat="45.95793" lon="4.76542">
        <ele>187</ele>
        <time>2016-10-08T09:14:23Z</time>
      </trkpt>
      <trkpt lat="45.95794" lon="4.76549">
        <ele>187</ele>
        <time>2016-10-08T09:14:24Z</time>
      </trkpt>
      <trkpt lat="45.95795" lon="4.76557">
        <ele>187</ele>
        <time>2016-10-08T09:14:25Z</time>
      </trkpt>
      <trkpt lat="45.95796" lon="4.76565">
        <ele>187</ele>
        <time>2016-10-08T09:14:26Z</time>
      </trkpt>
      <trkpt lat="45.95798" lon="4.76573">
        <ele>187</ele>
        <time>2016-10-08T09:14:27Z</time>
      </trkpt>
      <trkpt lat="45.958" lon="4.76581">
        <ele>187</ele>
        <time>2016-10-08T09:14:28Z</time>
      </trkpt>
      <trkpt lat="45.95801" lon="4.76589">
        <ele>187</ele>
        <time>2016-10-08T09:14:29Z</time>
      </trkpt>
      <trkpt lat="45.95802" lon="4.76597">
        <ele>187</ele>
        <time>2016-10-08T09:14:30Z</time>
      </trkpt>
      <trkpt lat="45.95803" lon="4.76604">
        <ele>188</ele>
        <time>2016-10-08T09:14:31Z</time>
      </trkpt>
      <trkpt lat="45.95804" lon="4.7661">
        <ele>188</ele>
        <time>2016-10-08T09:14:32Z</time>
      </trkpt>
      <trkpt lat="45.95806" lon="4.76617">
        <ele>188</ele>
        <time>2016-10-08T09:14:33Z</time>
      </trkpt>
      <trkpt lat="45.95807" lon="4.76624">
        <ele>188</ele>
        <time>2016-10-08T09:14:34Z</time>
      </trkpt>
      <trkpt lat="45.95808" lon="4.76631">
        <ele>188</ele>
        <time>2016-10-08T09:14:35Z</time>
      </trkpt>
      <trkpt lat="45.95809" lon="4.76638">
        <ele>188</ele>
        <time>2016-10-08T09:14:36Z</time>
      </trkpt>
      <trkpt lat="45.9581" lon="4.76645">
        <ele>188</ele>
        <time>2016-10-08T09:14:37Z</time>
      </trkpt>
      <trkpt lat="45.95811" lon="4.76651">
        <ele>188</ele>
        <time>2016-10-08T09:14:38Z</time>
      </trkpt>
      <trkpt lat="45.95811" lon="4.76658">
        <ele>188</ele>
        <time>2016-10-08T09:14:39Z</time>
      </trkpt>
      <trkpt lat="45.95812" lon="4.76665">
        <ele>188</ele>
        <time>2016-10-08T09:14:40Z</time>
      </trkpt>
      <trkpt lat="45.95813" lon="4.76672">
        <ele>189</ele>
        <time>2016-10-08T09:14:41Z</time>
      </trkpt>
      <trkpt lat="45.95814" lon="4.76678">
        <ele>189</ele>
        <time>2016-10-08T09:14:42Z</time>
      </trkpt>
      <trkpt lat="45.95815" lon="4.76685">
        <ele>189</ele>
        <time>2016-10-08T09:14:43Z</time>
      </trkpt>
      <trkpt lat="45.95816" lon="4.76692">
        <ele>189</ele>
        <time>2016-10-08T09:14:44Z</time>
      </trkpt>
      <trkpt lat="45.95817" lon="4.76698">
        <ele>189</ele>
        <time>2016-10-08T09:14:45Z</time>
      </trkpt>
      <trkpt lat="45.95817" lon="4.76705">
        <ele>189</ele>
        <time>2016-10-08T09:14:46Z</time>
      </trkpt>
      <trkpt lat="45.95817" lon="4.76712">
        <ele>189</ele>
        <time>2016-10-08T09:14:47Z</time>
      </trkpt>
      <trkpt lat="45.95818" lon="4.7672">
        <ele>189</ele>
        <time>2016-10-08T09:14:48Z</time>
      </trkpt>
      <trkpt lat="45.95819" lon="4.76728">
        <ele>190</ele>
        <time>2016-10-08T09:14:49Z</time>
      </trkpt>
      <trkpt lat="45.95821" lon="4.76735">
        <ele>190</ele>
        <time>2016-10-08T09:14:50Z</time>
      </trkpt>
      <trkpt lat="45.95822" lon="4.76743">
        <ele>190</ele>
        <time>2016-10-08T09:14:51Z</time>
      </trkpt>
      <trkpt lat="45.95823" lon="4.7675">
        <ele>190</ele>
        <time>2016-10-08T09:14:52Z</time>
      </trkpt>
      <trkpt lat="45.95824" lon="4.76757">
        <ele>191</ele>
        <time>2016-10-08T09:14:53Z</time>
      </trkpt>
      <trkpt lat="45.95826" lon="4.76763">
        <ele>190</ele>
        <time>2016-10-08T09:14:54Z</time>
      </trkpt>
      <trkpt lat="45.95827" lon="4.7677">
        <ele>190</ele>
        <time>2016-10-08T09:14:55Z</time>
      </trkpt>
      <trkpt lat="45.95828" lon="4.76777">
        <ele>190</ele>
        <time>2016-10-08T09:14:56Z</time>
      </trkpt>
      <trkpt lat="45.95829" lon="4.76785">
        <ele>190</ele>
        <time>2016-10-08T09:14:57Z</time>
      </trkpt>
      <trkpt lat="45.9583" lon="4.76793">
        <ele>190</ele>
        <time>2016-10-08T09:14:58Z</time>
      </trkpt>
      <trkpt lat="45.95831" lon="4.76801">
        <ele>190</ele>
        <time>2016-10-08T09:14:59Z</time>
      </trkpt>
      <trkpt lat="45.95831" lon="4.76809">
        <ele>190</ele>
        <time>2016-10-08T09:15:00Z</time>
      </trkpt>
      <trkpt lat="45.95831" lon="4.76817">
        <ele>190</ele>
        <time>2016-10-08T09:15:01Z</time>
      </trkpt>
      <trkpt lat="45.9583" lon="4.76824">
        <ele>190</ele>
        <time>2016-10-08T09:15:02Z</time>
      </trkpt>
      <trkpt lat="45.95829" lon="4.76831">
        <ele>190</ele>
        <time>2016-10-08T09:15:03Z</time>
      </trkpt>
      <trkpt lat="45.95828" lon="4.76838">
        <ele>190</ele>
        <time>2016-10-08T09:15:04Z</time>
      </trkpt>
      <trkpt lat="45.95827" lon="4.76845">
        <ele>190</ele>
        <time>2016-10-08T09:15:05Z</time>
      </trkpt>
      <trkpt lat="45.95826" lon="4.76853">
        <ele>190</ele>
        <time>2016-10-08T09:15:06Z</time>
      </trkpt>
      <trkpt lat="45.95824" lon="4.7686">
        <ele>189</ele>
        <time>2016-10-08T09:15:07Z</time>
      </trkpt>
      <trkpt lat="45.95823" lon="4.76868">
        <ele>189</ele>
        <time>2016-10-08T09:15:08Z</time>
      </trkpt>
      <trkpt lat="45.95821" lon="4.76876">
        <ele>189</ele>
        <time>2016-10-08T09:15:09Z</time>
      </trkpt>
      <trkpt lat="45.9582" lon="4.76883">
        <ele>189</ele>
        <time>2016-10-08T09:15:10Z</time>
      </trkpt>
      <trkpt lat="45.95818" lon="4.76891">
        <ele>189</ele>
        <time>2016-10-08T09:15:11Z</time>
      </trkpt>
      <trkpt lat="45.95817" lon="4.76898">
        <ele>189</ele>
        <time>2016-10-08T09:15:12Z</time>
      </trkpt>
      <trkpt lat="45.95815" lon="4.76906">
        <ele>189</ele>
        <time>2016-10-08T09:15:13Z</time>
      </trkpt>
      <trkpt lat="45.95814" lon="4.76913">
        <ele>189</ele>
        <time>2016-10-08T09:15:14Z</time>
      </trkpt>
      <trkpt lat="45.95812" lon="4.76921">
        <ele>189</ele>
        <time>2016-10-08T09:15:15Z</time>
      </trkpt>
      <trkpt lat="45.9581" lon="4.76928">
        <ele>189</ele>
        <time>2016-10-08T09:15:16Z</time>
      </trkpt>
      <trkpt lat="45.95808" lon="4.76935">
        <ele>189</ele>
        <time>2016-10-08T09:15:17Z</time>
      </trkpt>
      <trkpt lat="45.95807" lon="4.76942">
        <ele>189</ele>
        <time>2016-10-08T09:15:18Z</time>
      </trkpt>
      <trkpt lat="45.95805" lon="4.76949">
        <ele>189</ele>
        <time>2016-10-08T09:15:19Z</time>
      </trkpt>
      <trkpt lat="45.95804" lon="4.76956">
        <ele>189</ele>
        <time>2016-10-08T09:15:20Z</time>
      </trkpt>
      <trkpt lat="45.95803" lon="4.76963">
        <ele>189</ele>
        <time>2016-10-08T09:15:21Z</time>
      </trkpt>
      <trkpt lat="45.95802" lon="4.7697">
        <ele>189</ele>
        <time>2016-10-08T09:15:22Z</time>
      </trkpt>
      <trkpt lat="45.95802" lon="4.76977">
        <ele>189</ele>
        <time>2016-10-08T09:15:23Z</time>
      </trkpt>
      <trkpt lat="45.95801" lon="4.76985">
        <ele>189</ele>
        <time>2016-10-08T09:15:24Z</time>
      </trkpt>
      <trkpt lat="45.95801" lon="4.76992">
        <ele>189</ele>
        <time>2016-10-08T09:15:25Z</time>
      </trkpt>
      <trkpt lat="45.95801" lon="4.76999">
        <ele>189</ele>
        <time>2016-10-08T09:15:26Z</time>
      </trkpt>
      <trkpt lat="45.95802" lon="4.77007">
        <ele>190</ele>
        <time>2016-10-08T09:15:27Z</time>
      </trkpt>
      <trkpt lat="45.95803" lon="4.77014">
        <ele>190</ele>
        <time>2016-10-08T09:15:28Z</time>
      </trkpt>
      <trkpt lat="45.95806" lon="4.77022">
        <ele>190</ele>
        <time>2016-10-08T09:15:29Z</time>
      </trkpt>
      <trkpt lat="45.95809" lon="4.77028">
        <ele>190</ele>
        <time>2016-10-08T09:15:30Z</time>
      </trkpt>
      <trkpt lat="45.95811" lon="4.77035">
        <ele>190</ele>
        <time>2016-10-08T09:15:31Z</time>
      </trkpt>
      <trkpt lat="45.95814" lon="4.77041">
        <ele>190</ele>
        <time>2016-10-08T09:15:32Z</time>
      </trkpt>
      <trkpt lat="45.95817" lon="4.77047">
        <ele>190</ele>
        <time>2016-10-08T09:15:33Z</time>
      </trkpt>
      <trkpt lat="45.95821" lon="4.77054">
        <ele>190</ele>
        <time>2016-10-08T09:15:34Z</time>
      </trkpt>
      <trkpt lat="45.95823" lon="4.77061">
        <ele>190</ele>
        <time>2016-10-08T09:15:35Z</time>
      </trkpt>
      <trkpt lat="45.95826" lon="4.77067">
        <ele>191</ele>
        <time>2016-10-08T09:15:36Z</time>
      </trkpt>
      <trkpt lat="45.95829" lon="4.77075">
        <ele>191</ele>
        <time>2016-10-08T09:15:37Z</time>
      </trkpt>
      <trkpt lat="45.95832" lon="4.77083">
        <ele>192</ele>
        <time>2016-10-08T09:15:38Z</time>
      </trkpt>
      <trkpt lat="45.95834" lon="4.7709">
        <ele>192</ele>
        <time>2016-10-08T09:15:39Z</time>
      </trkpt>
      <trkpt lat="45.95836" lon="4.77097">
        <ele>193</ele>
        <time>2016-10-08T09:15:40Z</time>
      </trkpt>
      <trkpt lat="45.95839" lon="4.77104">
        <ele>193</ele>
        <time>2016-10-08T09:15:41Z</time>
      </trkpt>
      <trkpt lat="45.95841" lon="4.77111">
        <ele>193</ele>
        <time>2016-10-08T09:15:42Z</time>
      </trkpt>
      <trkpt lat="45.95842" lon="4.77117">
        <ele>193</ele>
        <time>2016-10-08T09:15:43Z</time>
      </trkpt>
      <trkpt lat="45.95844" lon="4.77124">
        <ele>193</ele>
        <time>2016-10-08T09:15:44Z</time>
      </trkpt>
      <trkpt lat="45.95846" lon="4.77131">
        <ele>193</ele>
        <time>2016-10-08T09:15:45Z</time>
      </trkpt>
      <trkpt lat="45.95848" lon="4.77139">
        <ele>193</ele>
        <time>2016-10-08T09:15:46Z</time>
      </trkpt>
      <trkpt lat="45.95849" lon="4.77147">
        <ele>192</ele>
        <time>2016-10-08T09:15:47Z</time>
      </trkpt>
      <trkpt lat="45.95852" lon="4.77153">
        <ele>192</ele>
        <time>2016-10-08T09:15:48Z</time>
      </trkpt>
      <trkpt lat="45.95853" lon="4.7716">
        <ele>192</ele>
        <time>2016-10-08T09:15:49Z</time>
      </trkpt>
      <trkpt lat="45.95855" lon="4.77168">
        <ele>192</ele>
        <time>2016-10-08T09:15:50Z</time>
      </trkpt>
      <trkpt lat="45.95858" lon="4.77175">
        <ele>192</ele>
        <time>2016-10-08T09:15:51Z</time>
      </trkpt>
      <trkpt lat="45.9586" lon="4.77183">
        <ele>192</ele>
        <time>2016-10-08T09:15:52Z</time>
      </trkpt>
      <trkpt lat="45.95862" lon="4.7719">
        <ele>192</ele>
        <time>2016-10-08T09:15:53Z</time>
      </trkpt>
      <trkpt lat="45.95864" lon="4.77197">
        <ele>193</ele>
        <time>2016-10-08T09:15:54Z</time>
      </trkpt>
      <trkpt lat="45.95866" lon="4.77204">
        <ele>193</ele>
        <time>2016-10-08T09:15:55Z</time>
      </trkpt>
      <trkpt lat="45.95867" lon="4.77211">
        <ele>193</ele>
        <time>2016-10-08T09:15:56Z</time>
      </trkpt>
      <trkpt lat="45.95869" lon="4.77217">
        <ele>193</ele>
        <time>2016-10-08T09:15:57Z</time>
      </trkpt>
      <trkpt lat="45.95871" lon="4.77224">
        <ele>193</ele>
        <time>2016-10-08T09:15:58Z</time>
      </trkpt>
      <trkpt lat="45.95872" lon="4.77231">
        <ele>193</ele>
        <time>2016-10-08T09:15:59Z</time>
      </trkpt>
      <trkpt lat="45.95873" lon="4.77238">
        <ele>193</ele>
        <time>2016-10-08T09:16:00Z</time>
      </trkpt>
      <trkpt lat="45.95875" lon="4.77244">
        <ele>193</ele>
        <time>2016-10-08T09:16:01Z</time>
      </trkpt>
      <trkpt lat="45.95876" lon="4.77251">
        <ele>193</ele>
        <time>2016-10-08T09:16:02Z</time>
      </trkpt>
      <trkpt lat="45.95877" lon="4.77258">
        <ele>193</ele>
        <time>2016-10-08T09:16:03Z</time>
      </trkpt>
      <trkpt lat="45.95879" lon="4.77264">
        <ele>193</ele>
        <time>2016-10-08T09:16:04Z</time>
      </trkpt>
      <trkpt lat="45.95881" lon="4.77271">
        <ele>193</ele>
        <time>2016-10-08T09:16:05Z</time>
      </trkpt>
      <trkpt lat="45.95882" lon="4.77279">
        <ele>193</ele>
        <time>2016-10-08T09:16:06Z</time>
      </trkpt>
      <trkpt lat="45.95884" lon="4.77286">
        <ele>193</ele>
        <time>2016-10-08T09:16:07Z</time>
      </trkpt>
      <trkpt lat="45.95885" lon="4.77293">
        <ele>193</ele>
        <time>2016-10-08T09:16:08Z</time>
      </trkpt>
      <trkpt lat="45.95887" lon="4.773">
        <ele>193</ele>
        <time>2016-10-08T09:16:09Z</time>
      </trkpt>
      <trkpt lat="45.95889" lon="4.77307">
        <ele>193</ele>
        <time>2016-10-08T09:16:10Z</time>
      </trkpt>
      <trkpt lat="45.95891" lon="4.77314">
        <ele>193</ele>
        <time>2016-10-08T09:16:11Z</time>
      </trkpt>
      <trkpt lat="45.95893" lon="4.77321">
        <ele>193</ele>
        <time>2016-10-08T09:16:12Z</time>
      </trkpt>
      <trkpt lat="45.95895" lon="4.77328">
        <ele>193</ele>
        <time>2016-10-08T09:16:13Z</time>
      </trkpt>
      <trkpt lat="45.95897" lon="4.77334">
        <ele>193</ele>
        <time>2016-10-08T09:16:14Z</time>
      </trkpt>
      <trkpt lat="45.95899" lon="4.7734">
        <ele>193</ele>
        <time>2016-10-08T09:16:15Z</time>
      </trkpt>
      <trkpt lat="45.95902" lon="4.77352">
        <ele>193</ele>
        <time>2016-10-08T09:16:17Z</time>
      </trkpt>
      <trkpt lat="45.95904" lon="4.77357">
        <ele>193</ele>
        <time>2016-10-08T09:16:18Z</time>
      </trkpt>
      <trkpt lat="45.95906" lon="4.77363">
        <ele>193</ele>
        <time>2016-10-08T09:16:19Z</time>
      </trkpt>
      <trkpt lat="45.95908" lon="4.77369">
        <ele>193</ele>
        <time>2016-10-08T09:16:20Z</time>
      </trkpt>
      <trkpt lat="45.95912" lon="4.7738">
        <ele>193</ele>
        <time>2016-10-08T09:16:22Z</time>
      </trkpt>
      <trkpt lat="45.95914" lon="4.77386">
        <ele>193</ele>
        <time>2016-10-08T09:16:23Z</time>
      </trkpt>
      <trkpt lat="45.95918" lon="4.77397">
        <ele>196</ele>
        <time>2016-10-08T09:16:25Z</time>
      </trkpt>
      <trkpt lat="45.9592" lon="4.77403">
        <ele>195</ele>
        <time>2016-10-08T09:16:26Z</time>
      </trkpt>
      <trkpt lat="45.95922" lon="4.7741">
        <ele>195</ele>
        <time>2016-10-08T09:16:27Z</time>
      </trkpt>
      <trkpt lat="45.95925" lon="4.77416">
        <ele>195</ele>
        <time>2016-10-08T09:16:28Z</time>
      </trkpt>
      <trkpt lat="45.95927" lon="4.77422">
        <ele>195</ele>
        <time>2016-10-08T09:16:29Z</time>
      </trkpt>
      <trkpt lat="45.95929" lon="4.77428">
        <ele>195</ele>
        <time>2016-10-08T09:16:30Z</time>
      </trkpt>
      <trkpt lat="45.95931" lon="4.77435">
        <ele>195</ele>
        <time>2016-10-08T09:16:31Z</time>
      </trkpt>
      <trkpt lat="45.95933" lon="4.77442">
        <ele>195</ele>
        <time>2016-10-08T09:16:32Z</time>
      </trkpt>
      <trkpt lat="45.95934" lon="4.77449">
        <ele>195</ele>
        <time>2016-10-08T09:16:33Z</time>
      </trkpt>
      <trkpt lat="45.95937" lon="4.77455">
        <ele>195</ele>
        <time>2016-10-08T09:16:34Z</time>
      </trkpt>
      <trkpt lat="45.95939" lon="4.77461">
        <ele>195</ele>
        <time>2016-10-08T09:16:35Z</time>
      </trkpt>
      <trkpt lat="45.95941" lon="4.77467">
        <ele>195</ele>
        <time>2016-10-08T09:16:36Z</time>
      </trkpt>
      <trkpt lat="45.95945" lon="4.77478">
        <ele>195</ele>
        <time>2016-10-08T09:16:38Z</time>
      </trkpt>
      <trkpt lat="45.95947" lon="4.77484">
        <ele>195</ele>
        <time>2016-10-08T09:16:39Z</time>
      </trkpt>
      <trkpt lat="45.95949" lon="4.7749">
        <ele>195</ele>
        <time>2016-10-08T09:16:40Z</time>
      </trkpt>
      <trkpt lat="45.95951" lon="4.77496">
        <ele>195</ele>
        <time>2016-10-08T09:16:41Z</time>
      </trkpt>
      <trkpt lat="45.95953" lon="4.77502">
        <ele>195</ele>
        <time>2016-10-08T09:16:42Z</time>
      </trkpt>
      <trkpt lat="45.95955" lon="4.77507">
        <ele>195</ele>
        <time>2016-10-08T09:16:43Z</time>
      </trkpt>
      <trkpt lat="45.95958" lon="4.77512">
        <ele>195</ele>
        <time>2016-10-08T09:16:44Z</time>
      </trkpt>
      <trkpt lat="45.95961" lon="4.77518">
        <ele>195</ele>
        <time>2016-10-08T09:16:45Z</time>
      </trkpt>
      <trkpt lat="45.95964" lon="4.77522">
        <ele>195</ele>
        <time>2016-10-08T09:16:46Z</time>
      </trkpt>
      <trkpt lat="45.95967" lon="4.77529">
        <ele>195</ele>
        <time>2016-10-08T09:16:47Z</time>
      </trkpt>
      <trkpt lat="45.95969" lon="4.77534">
        <ele>195</ele>
        <time>2016-10-08T09:16:48Z</time>
      </trkpt>
      <trkpt lat="45.95972" lon="4.77539">
        <ele>195</ele>
        <time>2016-10-08T09:16:49Z</time>
      </trkpt>
      <trkpt lat="45.95978" lon="4.77549">
        <ele>195</ele>
        <time>2016-10-08T09:16:51Z</time>
      </trkpt>
      <trkpt lat="45.9598" lon="4.77554">
        <ele>196</ele>
        <time>2016-10-08T09:16:52Z</time>
      </trkpt>
      <trkpt lat="45.95982" lon="4.77559">
        <ele>196</ele>
        <time>2016-10-08T09:16:53Z</time>
      </trkpt>
      <trkpt lat="45.95984" lon="4.77565">
        <ele>196</ele>
        <time>2016-10-08T09:16:54Z</time>
      </trkpt>
      <trkpt lat="45.95987" lon="4.77572">
        <ele>196</ele>
        <time>2016-10-08T09:16:55Z</time>
      </trkpt>
      <trkpt lat="45.95989" lon="4.77578">
        <ele>196</ele>
        <time>2016-10-08T09:16:56Z</time>
      </trkpt>
      <trkpt lat="45.95991" lon="4.77585">
        <ele>196</ele>
        <time>2016-10-08T09:16:57Z</time>
      </trkpt>
      <trkpt lat="45.95993" lon="4.77591">
        <ele>196</ele>
        <time>2016-10-08T09:16:58Z</time>
      </trkpt>
      <trkpt lat="45.95995" lon="4.77604">
        <ele>195</ele>
        <time>2016-10-08T09:17:05Z</time>
      </trkpt>
      <trkpt lat="45.95996" lon="4.77606">
        <ele>195</ele>
        <time>2016-10-08T09:17:06Z</time>
      </trkpt>
      <trkpt lat="45.96001" lon="4.77608">
        <ele>198</ele>
        <time>2016-10-08T09:17:08Z</time>
      </trkpt>
      <trkpt lat="45.96005" lon="4.77605">
        <ele>198</ele>
        <time>2016-10-08T09:17:09Z</time>
      </trkpt>
      <trkpt lat="45.96012" lon="4.77608">
        <ele>199</ele>
        <time>2016-10-08T09:17:12Z</time>
      </trkpt>
      <trkpt lat="45.96015" lon="4.77611">
        <ele>199</ele>
        <time>2016-10-08T09:17:13Z</time>
      </trkpt>
      <trkpt lat="45.96021" lon="4.77618">
        <ele>199</ele>
        <time>2016-10-08T09:17:15Z</time>
      </trkpt>
      <trkpt lat="45.96024" lon="4.77623">
        <ele>199</ele>
        <time>2016-10-08T09:17:16Z</time>
      </trkpt>
      <trkpt lat="45.96027" lon="4.77627">
        <ele>199</ele>
        <time>2016-10-08T09:17:17Z</time>
      </trkpt>
      <trkpt lat="45.9603" lon="4.77632">
        <ele>199</ele>
        <time>2016-10-08T09:17:18Z</time>
      </trkpt>
      <trkpt lat="45.96036" lon="4.7764">
        <ele>199</ele>
        <time>2016-10-08T09:17:20Z</time>
      </trkpt>
      <trkpt lat="45.9604" lon="4.77644">
        <ele>199</ele>
        <time>2016-10-08T09:17:21Z</time>
      </trkpt>
      <trkpt lat="45.96046" lon="4.77652">
        <ele>199</ele>
        <time>2016-10-08T09:17:23Z</time>
      </trkpt>
      <trkpt lat="45.96049" lon="4.77656">
        <ele>200</ele>
        <time>2016-10-08T09:17:24Z</time>
      </trkpt>
      <trkpt lat="45.96052" lon="4.77661">
        <ele>200</ele>
        <time>2016-10-08T09:17:25Z</time>
      </trkpt>
      <trkpt lat="45.96055" lon="4.77666">
        <ele>200</ele>
        <time>2016-10-08T09:17:26Z</time>
      </trkpt>
      <trkpt lat="45.96061" lon="4.77674">
        <ele>198</ele>
        <time>2016-10-08T09:17:28Z</time>
      </trkpt>
      <trkpt lat="45.96064" lon="4.77678">
        <ele>198</ele>
        <time>2016-10-08T09:17:29Z</time>
      </trkpt>
      <trkpt lat="45.9607" lon="4.77687">
        <ele>198</ele>
        <time>2016-10-08T09:17:31Z</time>
      </trkpt>
      <trkpt lat="45.96073" lon="4.77692">
        <ele>197</ele>
        <time>2016-10-08T09:17:32Z</time>
      </trkpt>
      <trkpt lat="45.96079" lon="4.77702">
        <ele>197</ele>
        <time>2016-10-08T09:17:34Z</time>
      </trkpt>
      <trkpt lat="45.96082" lon="4.77706">
        <ele>197</ele>
        <time>2016-10-08T09:17:35Z</time>
      </trkpt>
      <trkpt lat="45.96087" lon="4.77715">
        <ele>199</ele>
        <time>2016-10-08T09:17:37Z</time>
      </trkpt>
      <trkpt lat="45.9609" lon="4.7772">
        <ele>199</ele>
        <time>2016-10-08T09:17:38Z</time>
      </trkpt>
      <trkpt lat="45.96093" lon="4.77725">
        <ele>199</ele>
        <time>2016-10-08T09:17:39Z</time>
      </trkpt>
      <trkpt lat="45.96096" lon="4.77729">
        <ele>199</ele>
        <time>2016-10-08T09:17:40Z</time>
      </trkpt>
      <trkpt lat="45.96102" lon="4.77739">
        <ele>198</ele>
        <time>2016-10-08T09:17:42Z</time>
      </trkpt>
      <trkpt lat="45.96105" lon="4.77744">
        <ele>198</ele>
        <time>2016-10-08T09:17:43Z</time>
      </trkpt>
      <trkpt lat="45.96108" lon="4.77749">
        <ele>199</ele>
        <time>2016-10-08T09:17:44Z</time>
      </trkpt>
      <trkpt lat="45.96111" lon="4.77754">
        <ele>197</ele>
        <time>2016-10-08T09:17:45Z</time>
      </trkpt>
      <trkpt lat="45.96116" lon="4.77764">
        <ele>197</ele>
        <time>2016-10-08T09:17:47Z</time>
      </trkpt>
      <trkpt lat="45.9612" lon="4.7777">
        <ele>197</ele>
        <time>2016-10-08T09:17:48Z</time>
      </trkpt>
      <trkpt lat="45.96126" lon="4.77779">
        <ele>197</ele>
        <time>2016-10-08T09:17:50Z</time>
      </trkpt>
      <trkpt lat="45.96129" lon="4.77783">
        <ele>198</ele>
        <time>2016-10-08T09:17:51Z</time>
      </trkpt>
      <trkpt lat="45.96134" lon="4.77793">
        <ele>198</ele>
        <time>2016-10-08T09:17:53Z</time>
      </trkpt>
      <trkpt lat="45.96137" lon="4.77797">
        <ele>198</ele>
        <time>2016-10-08T09:17:54Z</time>
      </trkpt>
      <trkpt lat="45.96141" lon="4.77807">
        <ele>198</ele>
        <time>2016-10-08T09:17:56Z</time>
      </trkpt>
      <trkpt lat="45.96144" lon="4.77811">
        <ele>198</ele>
        <time>2016-10-08T09:17:57Z</time>
      </trkpt>
      <trkpt lat="45.96148" lon="4.7782">
        <ele>198</ele>
        <time>2016-10-08T09:17:59Z</time>
      </trkpt>
      <trkpt lat="45.9615" lon="4.77825">
        <ele>198</ele>
        <time>2016-10-08T09:18:00Z</time>
      </trkpt>
      <trkpt lat="45.96153" lon="4.7783">
        <ele>198</ele>
        <time>2016-10-08T09:18:01Z</time>
      </trkpt>
      <trkpt lat="45.96156" lon="4.77835">
        <ele>197</ele>
        <time>2016-10-08T09:18:02Z</time>
      </trkpt>
      <trkpt lat="45.96159" lon="4.7784">
        <ele>197</ele>
        <time>2016-10-08T09:18:03Z</time>
      </trkpt>
      <trkpt lat="45.96163" lon="4.77845">
        <ele>197</ele>
        <time>2016-10-08T09:18:04Z</time>
      </trkpt>
      <trkpt lat="45.96167" lon="4.77851">
        <ele>196</ele>
        <time>2016-10-08T09:18:05Z</time>
      </trkpt>
      <trkpt lat="45.96171" lon="4.77858">
        <ele>201</ele>
        <time>2016-10-08T09:18:06Z</time>
      </trkpt>
      <trkpt lat="45.96175" lon="4.77863">
        <ele>201</ele>
        <time>2016-10-08T09:18:07Z</time>
      </trkpt>
      <trkpt lat="45.96178" lon="4.77869">
        <ele>201</ele>
        <time>2016-10-08T09:18:08Z</time>
      </trkpt>
      <trkpt lat="45.96181" lon="4.77874">
        <ele>201</ele>
        <time>2016-10-08T09:18:09Z</time>
      </trkpt>
      <trkpt lat="45.96185" lon="4.77879">
        <ele>201</ele>
        <time>2016-10-08T09:18:10Z</time>
      </trkpt>
      <trkpt lat="45.96188" lon="4.77884">
        <ele>201</ele>
        <time>2016-10-08T09:18:11Z</time>
      </trkpt>
      <trkpt lat="45.96191" lon="4.77888">
        <ele>201</ele>
        <time>2016-10-08T09:18:12Z</time>
      </trkpt>
      <trkpt lat="45.96194" lon="4.77893">
        <ele>201</ele>
        <time>2016-10-08T09:18:13Z</time>
      </trkpt>
      <trkpt lat="45.96198" lon="4.77898">
        <ele>201</ele>
        <time>2016-10-08T09:18:14Z</time>
      </trkpt>
      <trkpt lat="45.96201" lon="4.77903">
        <ele>202</ele>
        <time>2016-10-08T09:18:15Z</time>
      </trkpt>
      <trkpt lat="45.96204" lon="4.77908">
        <ele>202</ele>
        <time>2016-10-08T09:18:16Z</time>
      </trkpt>
      <trkpt lat="45.96207" lon="4.77913">
        <ele>202</ele>
        <time>2016-10-08T09:18:17Z</time>
      </trkpt>
      <trkpt lat="45.9621" lon="4.77919">
        <ele>199</ele>
        <time>2016-10-08T09:18:18Z</time>
      </trkpt>
      <trkpt lat="45.96213" lon="4.77924">
        <ele>199</ele>
        <time>2016-10-08T09:18:19Z</time>
      </trkpt>
      <trkpt lat="45.96217" lon="4.77929">
        <ele>200</ele>
        <time>2016-10-08T09:18:20Z</time>
      </trkpt>
      <trkpt lat="45.96219" lon="4.77937">
        <ele>200</ele>
        <time>2016-10-08T09:18:21Z</time>
      </trkpt>
      <trkpt lat="45.96222" lon="4.77944">
        <ele>199</ele>
        <time>2016-10-08T09:18:22Z</time>
      </trkpt>
      <trkpt lat="45.96226" lon="4.77949">
        <ele>199</ele>
        <time>2016-10-08T09:18:23Z</time>
      </trkpt>
      <trkpt lat="45.9623" lon="4.77952">
        <ele>199</ele>
        <time>2016-10-08T09:18:24Z</time>
      </trkpt>
      <trkpt lat="45.96234" lon="4.77956">
        <ele>199</ele>
        <time>2016-10-08T09:18:25Z</time>
      </trkpt>
      <trkpt lat="45.96239" lon="4.77961">
        <ele>199</ele>
        <time>2016-10-08T09:18:26Z</time>
      </trkpt>
      <trkpt lat="45.96243" lon="4.77965">
        <ele>199</ele>
        <time>2016-10-08T09:18:27Z</time>
      </trkpt>
      <trkpt lat="45.96245" lon="4.77972">
        <ele>198</ele>
        <time>2016-10-08T09:18:28Z</time>
      </trkpt>
      <trkpt lat="45.9625" lon="4.77977">
        <ele>198</ele>
        <time>2016-10-08T09:18:29Z</time>
      </trkpt>
      <trkpt lat="45.96255" lon="4.77981">
        <ele>202</ele>
        <time>2016-10-08T09:18:30Z</time>
      </trkpt>
      <trkpt lat="45.96259" lon="4.77986">
        <ele>201</ele>
        <time>2016-10-08T09:18:31Z</time>
      </trkpt>
      <trkpt lat="45.96264" lon="4.77987">
        <ele>202</ele>
        <time>2016-10-08T09:18:32Z</time>
      </trkpt>
      <trkpt lat="45.9627" lon="4.77989">
        <ele>202</ele>
        <time>2016-10-08T09:18:33Z</time>
      </trkpt>
      <trkpt lat="45.96274" lon="4.77992">
        <ele>202</ele>
        <time>2016-10-08T09:18:34Z</time>
      </trkpt>
      <trkpt lat="45.96279" lon="4.77996">
        <ele>203</ele>
        <time>2016-10-08T09:18:35Z</time>
      </trkpt>
      <trkpt lat="45.96283" lon="4.78001">
        <ele>198</ele>
        <time>2016-10-08T09:18:36Z</time>
      </trkpt>
      <trkpt lat="45.96288" lon="4.78005">
        <ele>199</ele>
        <time>2016-10-08T09:18:37Z</time>
      </trkpt>
      <trkpt lat="45.96292" lon="4.78009">
        <ele>199</ele>
        <time>2016-10-08T09:18:38Z</time>
      </trkpt>
      <trkpt lat="45.96296" lon="4.78013">
        <ele>199</ele>
        <time>2016-10-08T09:18:39Z</time>
      </trkpt>
      <trkpt lat="45.963" lon="4.78016">
        <ele>199</ele>
        <time>2016-10-08T09:18:40Z</time>
      </trkpt>
      <trkpt lat="45.96307" lon="4.78023">
        <ele>200</ele>
        <time>2016-10-08T09:18:42Z</time>
      </trkpt>
      <trkpt lat="45.96311" lon="4.78027">
        <ele>200</ele>
        <time>2016-10-08T09:18:43Z</time>
      </trkpt>
      <trkpt lat="45.96318" lon="4.78035">
        <ele>200</ele>
        <time>2016-10-08T09:18:45Z</time>
      </trkpt>
      <trkpt lat="45.96322" lon="4.7804">
        <ele>199</ele>
        <time>2016-10-08T09:18:46Z</time>
      </trkpt>
      <trkpt lat="45.96325" lon="4.78046">
        <ele>199</ele>
        <time>2016-10-08T09:18:47Z</time>
      </trkpt>
      <trkpt lat="45.96329" lon="4.78052">
        <ele>199</ele>
        <time>2016-10-08T09:18:48Z</time>
      </trkpt>
      <trkpt lat="45.96334" lon="4.78056">
        <ele>202</ele>
        <time>2016-10-08T09:18:49Z</time>
      </trkpt>
      <trkpt lat="45.96338" lon="4.78061">
        <ele>202</ele>
        <time>2016-10-08T09:18:50Z</time>
      </trkpt>
      <trkpt lat="45.96342" lon="4.78065">
        <ele>201</ele>
        <time>2016-10-08T09:18:51Z</time>
      </trkpt>
      <trkpt lat="45.96346" lon="4.78069">
        <ele>201</ele>
        <time>2016-10-08T09:18:52Z</time>
      </trkpt>
      <trkpt lat="45.96353" lon="4.78076">
        <ele>201</ele>
        <time>2016-10-08T09:18:54Z</time>
      </trkpt>
      <trkpt lat="45.96356" lon="4.78079">
        <ele>202</ele>
        <time>2016-10-08T09:18:55Z</time>
      </trkpt>
      <trkpt lat="45.96363" lon="4.78086">
        <ele>199</ele>
        <time>2016-10-08T09:18:57Z</time>
      </trkpt>
      <trkpt lat="45.96366" lon="4.7809">
        <ele>199</ele>
        <time>2016-10-08T09:18:58Z</time>
      </trkpt>
      <trkpt lat="45.96373" lon="4.78097">
        <ele>200</ele>
        <time>2016-10-08T09:19:00Z</time>
      </trkpt>
      <trkpt lat="45.96376" lon="4.781">
        <ele>200</ele>
        <time>2016-10-08T09:19:01Z</time>
      </trkpt>
      <trkpt lat="45.96379" lon="4.78105">
        <ele>200</ele>
        <time>2016-10-08T09:19:02Z</time>
      </trkpt>
      <trkpt lat="45.96383" lon="4.78109">
        <ele>200</ele>
        <time>2016-10-08T09:19:03Z</time>
      </trkpt>
      <trkpt lat="45.96388" lon="4.78114">
        <ele>200</ele>
        <time>2016-10-08T09:19:04Z</time>
      </trkpt>
      <trkpt lat="45.96392" lon="4.78118">
        <ele>200</ele>
        <time>2016-10-08T09:19:05Z</time>
      </trkpt>
      <trkpt lat="45.964" lon="4.78123">
        <ele>200</ele>
        <time>2016-10-08T09:19:07Z</time>
      </trkpt>
      <trkpt lat="45.96403" lon="4.78126">
        <ele>200</ele>
        <time>2016-10-08T09:19:08Z</time>
      </trkpt>
      <trkpt lat="45.96411" lon="4.78133">
        <ele>199</ele>
        <time>2016-10-08T09:19:10Z</time>
      </trkpt>
      <trkpt lat="45.96415" lon="4.78136">
        <ele>199</ele>
        <time>2016-10-08T09:19:11Z</time>
      </trkpt>
      <trkpt lat="45.96419" lon="4.78141">
        <ele>203</ele>
        <time>2016-10-08T09:19:12Z</time>
      </trkpt>
      <trkpt lat="45.96423" lon="4.78145">
        <ele>202</ele>
        <time>2016-10-08T09:19:13Z</time>
      </trkpt>
      <trkpt lat="45.96428" lon="4.7815">
        <ele>202</ele>
        <time>2016-10-08T09:19:14Z</time>
      </trkpt>
      <trkpt lat="45.96432" lon="4.78155">
        <ele>202</ele>
        <time>2016-10-08T09:19:15Z</time>
      </trkpt>
      <trkpt lat="45.96437" lon="4.78159">
        <ele>202</ele>
        <time>2016-10-08T09:19:16Z</time>
      </trkpt>
      <trkpt lat="45.96441" lon="4.78163">
        <ele>203</ele>
        <time>2016-10-08T09:19:17Z</time>
      </trkpt>
      <trkpt lat="45.96445" lon="4.78167">
        <ele>199</ele>
        <time>2016-10-08T09:19:18Z</time>
      </trkpt>
      <trkpt lat="45.9645" lon="4.78171">
        <ele>199</ele>
        <time>2016-10-08T09:19:19Z</time>
      </trkpt>
      <trkpt lat="45.96455" lon="4.78175">
        <ele>200</ele>
        <time>2016-10-08T09:19:20Z</time>
      </trkpt>
      <trkpt lat="45.96459" lon="4.78179">
        <ele>200</ele>
        <time>2016-10-08T09:19:21Z</time>
      </trkpt>
      <trkpt lat="45.96464" lon="4.78182">
        <ele>200</ele>
        <time>2016-10-08T09:19:22Z</time>
      </trkpt>
      <trkpt lat="45.96469" lon="4.78185">
        <ele>200</ele>
        <time>2016-10-08T09:19:23Z</time>
      </trkpt>
      <trkpt lat="45.96474" lon="4.78188">
        <ele>200</ele>
        <time>2016-10-08T09:19:24Z</time>
      </trkpt>
      <trkpt lat="45.96479" lon="4.78191">
        <ele>200</ele>
        <time>2016-10-08T09:19:25Z</time>
      </trkpt>
      <trkpt lat="45.96483" lon="4.78194">
        <ele>200</ele>
        <time>2016-10-08T09:19:26Z</time>
      </trkpt>
      <trkpt lat="45.96488" lon="4.78197">
        <ele>200</ele>
        <time>2016-10-08T09:19:27Z</time>
      </trkpt>
      <trkpt lat="45.96492" lon="4.782">
        <ele>200</ele>
        <time>2016-10-08T09:19:28Z</time>
      </trkpt>
      <trkpt lat="45.96496" lon="4.78203">
        <ele>200</ele>
        <time>2016-10-08T09:19:29Z</time>
      </trkpt>
      <trkpt lat="45.965" lon="4.78206">
        <ele>205</ele>
        <time>2016-10-08T09:19:30Z</time>
      </trkpt>
      <trkpt lat="45.96504" lon="4.7821">
        <ele>205</ele>
        <time>2016-10-08T09:19:31Z</time>
      </trkpt>
      <trkpt lat="45.96507" lon="4.78216">
        <ele>205</ele>
        <time>2016-10-08T09:19:32Z</time>
      </trkpt>
      <trkpt lat="45.96509" lon="4.78223">
        <ele>204</ele>
        <time>2016-10-08T09:19:33Z</time>
      </trkpt>
      <trkpt lat="45.96513" lon="4.78229">
        <ele>203</ele>
        <time>2016-10-08T09:19:34Z</time>
      </trkpt>
      <trkpt lat="45.96516" lon="4.78234">
        <ele>203</ele>
        <time>2016-10-08T09:19:35Z</time>
      </trkpt>
      <trkpt lat="45.9652" lon="4.78239">
        <ele>203</ele>
        <time>2016-10-08T09:19:36Z</time>
      </trkpt>
      <trkpt lat="45.96524" lon="4.78245">
        <ele>203</ele>
        <time>2016-10-08T09:19:37Z</time>
      </trkpt>
      <trkpt lat="45.96528" lon="4.78251">
        <ele>200</ele>
        <time>2016-10-08T09:19:38Z</time>
      </trkpt>
      <trkpt lat="45.96531" lon="4.78255">
        <ele>200</ele>
        <time>2016-10-08T09:19:39Z</time>
      </trkpt>
      <trkpt lat="45.96536" lon="4.78264">
        <ele>200</ele>
        <time>2016-10-08T09:19:41Z</time>
      </trkpt>
      <trkpt lat="45.96539" lon="4.78269">
        <ele>200</ele>
        <time>2016-10-08T09:19:42Z</time>
      </trkpt>
      <trkpt lat="45.96545" lon="4.78277">
        <ele>200</ele>
        <time>2016-10-08T09:19:44Z</time>
      </trkpt>
      <trkpt lat="45.96548" lon="4.78282">
        <ele>200</ele>
        <time>2016-10-08T09:19:45Z</time>
      </trkpt>
      <trkpt lat="45.96551" lon="4.78287">
        <ele>200</ele>
        <time>2016-10-08T09:19:46Z</time>
      </trkpt>
      <trkpt lat="45.96555" lon="4.78292">
        <ele>200</ele>
        <time>2016-10-08T09:19:47Z</time>
      </trkpt>
      <trkpt lat="45.96559" lon="4.78295">
        <ele>200</ele>
        <time>2016-10-08T09:19:48Z</time>
      </trkpt>
      <trkpt lat="45.96562" lon="4.783">
        <ele>200</ele>
        <time>2016-10-08T09:19:49Z</time>
      </trkpt>
      <trkpt lat="45.96566" lon="4.78303">
        <ele>200</ele>
        <time>2016-10-08T09:19:50Z</time>
      </trkpt>
      <trkpt lat="45.9657" lon="4.78307">
        <ele>200</ele>
        <time>2016-10-08T09:19:51Z</time>
      </trkpt>
      <trkpt lat="45.96577" lon="4.78314">
        <ele>199</ele>
        <time>2016-10-08T09:19:53Z</time>
      </trkpt>
      <trkpt lat="45.96581" lon="4.78318">
        <ele>199</ele>
        <time>2016-10-08T09:19:54Z</time>
      </trkpt>
      <trkpt lat="45.96585" lon="4.78322">
        <ele>201</ele>
        <time>2016-10-08T09:19:55Z</time>
      </trkpt>
      <trkpt lat="45.96589" lon="4.78327">
        <ele>201</ele>
        <time>2016-10-08T09:19:56Z</time>
      </trkpt>
      <trkpt lat="45.96593" lon="4.78331">
        <ele>201</ele>
        <time>2016-10-08T09:19:57Z</time>
      </trkpt>
      <trkpt lat="45.96596" lon="4.78335">
        <ele>199</ele>
        <time>2016-10-08T09:19:58Z</time>
      </trkpt>
      <trkpt lat="45.966" lon="4.78339">
        <ele>200</ele>
        <time>2016-10-08T09:19:59Z</time>
      </trkpt>
      <trkpt lat="45.96604" lon="4.78342">
        <ele>200</ele>
        <time>2016-10-08T09:20:00Z</time>
      </trkpt>
      <trkpt lat="45.96608" lon="4.78346">
        <ele>200</ele>
        <time>2016-10-08T09:20:01Z</time>
      </trkpt>
      <trkpt lat="45.96612" lon="4.78349">
        <ele>200</ele>
        <time>2016-10-08T09:20:02Z</time>
      </trkpt>
      <trkpt lat="45.96616" lon="4.78352">
        <ele>201</ele>
        <time>2016-10-08T09:20:03Z</time>
      </trkpt>
      <trkpt lat="45.9662" lon="4.78355">
        <ele>201</ele>
        <time>2016-10-08T09:20:04Z</time>
      </trkpt>
      <trkpt lat="45.96624" lon="4.78359">
        <ele>201</ele>
        <time>2016-10-08T09:20:05Z</time>
      </trkpt>
      <trkpt lat="45.96629" lon="4.78364">
        <ele>201</ele>
        <time>2016-10-08T09:20:06Z</time>
      </trkpt>
      <trkpt lat="45.96633" lon="4.78368">
        <ele>201</ele>
        <time>2016-10-08T09:20:07Z</time>
      </trkpt>
      <trkpt lat="45.96637" lon="4.78372">
        <ele>201</ele>
        <time>2016-10-08T09:20:08Z</time>
      </trkpt>
      <trkpt lat="45.96641" lon="4.78376">
        <ele>201</ele>
        <time>2016-10-08T09:20:09Z</time>
      </trkpt>
      <trkpt lat="45.96645" lon="4.78379">
        <ele>201</ele>
        <time>2016-10-08T09:20:10Z</time>
      </trkpt>
      <trkpt lat="45.96652" lon="4.78386">
        <ele>201</ele>
        <time>2016-10-08T09:20:12Z</time>
      </trkpt>
      <trkpt lat="45.96655" lon="4.78389">
        <ele>201</ele>
        <time>2016-10-08T09:20:13Z</time>
      </trkpt>
      <trkpt lat="45.96662" lon="4.78395">
        <ele>201</ele>
        <time>2016-10-08T09:20:15Z</time>
      </trkpt>
      <trkpt lat="45.96666" lon="4.78398">
        <ele>201</ele>
        <time>2016-10-08T09:20:16Z</time>
      </trkpt>
      <trkpt lat="45.96673" lon="4.78405">
        <ele>203</ele>
        <time>2016-10-08T09:20:18Z</time>
      </trkpt>
      <trkpt lat="45.96676" lon="4.78409">
        <ele>203</ele>
        <time>2016-10-08T09:20:19Z</time>
      </trkpt>
      <trkpt lat="45.96683" lon="4.78416">
        <ele>204</ele>
        <time>2016-10-08T09:20:21Z</time>
      </trkpt>
      <trkpt lat="45.96686" lon="4.78419">
        <ele>202</ele>
        <time>2016-10-08T09:20:22Z</time>
      </trkpt>
      <trkpt lat="45.96692" lon="4.78426">
        <ele>202</ele>
        <time>2016-10-08T09:20:24Z</time>
      </trkpt>
      <trkpt lat="45.96695" lon="4.7843">
        <ele>202</ele>
        <time>2016-10-08T09:20:25Z</time>
      </trkpt>
      <trkpt lat="45.96702" lon="4.78438">
        <ele>203</ele>
        <time>2016-10-08T09:20:27Z</time>
      </trkpt>
      <trkpt lat="45.96706" lon="4.78443">
        <ele>203</ele>
        <time>2016-10-08T09:20:28Z</time>
      </trkpt>
      <trkpt lat="45.96713" lon="4.7845">
        <ele>203</ele>
        <time>2016-10-08T09:20:30Z</time>
      </trkpt>
      <trkpt lat="45.96717" lon="4.78454">
        <ele>203</ele>
        <time>2016-10-08T09:20:31Z</time>
      </trkpt>
      <trkpt lat="45.96721" lon="4.78458">
        <ele>203</ele>
        <time>2016-10-08T09:20:32Z</time>
      </trkpt>
      <trkpt lat="45.96724" lon="4.78462">
        <ele>203</ele>
        <time>2016-10-08T09:20:33Z</time>
      </trkpt>
      <trkpt lat="45.96728" lon="4.78467">
        <ele>203</ele>
        <time>2016-10-08T09:20:34Z</time>
      </trkpt>
      <trkpt lat="45.96733" lon="4.78472">
        <ele>203</ele>
        <time>2016-10-08T09:20:35Z</time>
      </trkpt>
      <trkpt lat="45.96738" lon="4.78476">
        <ele>203</ele>
        <time>2016-10-08T09:20:36Z</time>
      </trkpt>
      <trkpt lat="45.96744" lon="4.7848">
        <ele>203</ele>
        <time>2016-10-08T09:20:37Z</time>
      </trkpt>
      <trkpt lat="45.96749" lon="4.78484">
        <ele>203</ele>
        <time>2016-10-08T09:20:38Z</time>
      </trkpt>
      <trkpt lat="45.96754" lon="4.78488">
        <ele>204</ele>
        <time>2016-10-08T09:20:39Z</time>
      </trkpt>
      <trkpt lat="45.96758" lon="4.78493">
        <ele>204</ele>
        <time>2016-10-08T09:20:40Z</time>
      </trkpt>
      <trkpt lat="45.96762" lon="4.78498">
        <ele>204</ele>
        <time>2016-10-08T09:20:41Z</time>
      </trkpt>
      <trkpt lat="45.96765" lon="4.78503">
        <ele>203</ele>
        <time>2016-10-08T09:20:42Z</time>
      </trkpt>
      <trkpt lat="45.96769" lon="4.78508">
        <ele>203</ele>
        <time>2016-10-08T09:20:43Z</time>
      </trkpt>
      <trkpt lat="45.96772" lon="4.78513">
        <ele>203</ele>
        <time>2016-10-08T09:20:44Z</time>
      </trkpt>
      <trkpt lat="45.96776" lon="4.78518">
        <ele>203</ele>
        <time>2016-10-08T09:20:45Z</time>
      </trkpt>
      <trkpt lat="45.96779" lon="4.78523">
        <ele>203</ele>
        <time>2016-10-08T09:20:46Z</time>
      </trkpt>
      <trkpt lat="45.96782" lon="4.78528">
        <ele>203</ele>
        <time>2016-10-08T09:20:47Z</time>
      </trkpt>
      <trkpt lat="45.96788" lon="4.78538">
        <ele>203</ele>
        <time>2016-10-08T09:20:49Z</time>
      </trkpt>
      <trkpt lat="45.9679" lon="4.78543">
        <ele>203</ele>
        <time>2016-10-08T09:20:50Z</time>
      </trkpt>
      <trkpt lat="45.96795" lon="4.78552">
        <ele>203</ele>
        <time>2016-10-08T09:20:52Z</time>
      </trkpt>
      <trkpt lat="45.96798" lon="4.78556">
        <ele>203</ele>
        <time>2016-10-08T09:20:53Z</time>
      </trkpt>
      <trkpt lat="45.96804" lon="4.78564">
        <ele>203</ele>
        <time>2016-10-08T09:20:55Z</time>
      </trkpt>
      <trkpt lat="45.96807" lon="4.78568">
        <ele>203</ele>
        <time>2016-10-08T09:20:56Z</time>
      </trkpt>
      <trkpt lat="45.96812" lon="4.78574">
        <ele>203</ele>
        <time>2016-10-08T09:20:58Z</time>
      </trkpt>
      <trkpt lat="45.96814" lon="4.78577">
        <ele>203</ele>
        <time>2016-10-08T09:20:59Z</time>
      </trkpt>
      <trkpt lat="45.96821" lon="4.7858">
        <ele>203</ele>
        <time>2016-10-08T09:21:01Z</time>
      </trkpt>
      <trkpt lat="45.96824" lon="4.78579">
        <ele>203</ele>
        <time>2016-10-08T09:21:02Z</time>
      </trkpt>
      <trkpt lat="45.9683" lon="4.78575">
        <ele>203</ele>
        <time>2016-10-08T09:21:04Z</time>
      </trkpt>
      <trkpt lat="45.96833" lon="4.78572">
        <ele>203</ele>
        <time>2016-10-08T09:21:05Z</time>
      </trkpt>
      <trkpt lat="45.96838" lon="4.78563">
        <ele>205</ele>
        <time>2016-10-08T09:21:08Z</time>
      </trkpt>
      <trkpt lat="45.9684" lon="4.78563">
        <ele>205</ele>
        <time>2016-10-08T09:21:09Z</time>
      </trkpt>
      <trkpt lat="45.96845" lon="4.78555">
        <ele>206</ele>
        <time>2016-10-08T09:21:12Z</time>
      </trkpt>
      <trkpt lat="45.96847" lon="4.78553">
        <ele>206</ele>
        <time>2016-10-08T09:21:13Z</time>
      </trkpt>
      <trkpt lat="45.96852" lon="4.78545">
        <ele>207</ele>
        <time>2016-10-08T09:21:16Z</time>
      </trkpt>
      <trkpt lat="45.96854" lon="4.78544">
        <ele>207</ele>
        <time>2016-10-08T09:21:17Z</time>
      </trkpt>
      <trkpt lat="45.96862" lon="4.78542">
        <ele>207</ele>
        <time>2016-10-08T09:21:23Z</time>
      </trkpt>
      <trkpt lat="45.96863" lon="4.7854">
        <ele>207</ele>
        <time>2016-10-08T09:21:24Z</time>
      </trkpt>
      <trkpt lat="45.96869" lon="4.78533">
        <ele>207</ele>
        <time>2016-10-08T09:21:28Z</time>
      </trkpt>
      <trkpt lat="45.96871" lon="4.78533">
        <ele>208</ele>
        <time>2016-10-08T09:21:29Z</time>
      </trkpt>
      <trkpt lat="45.96877" lon="4.78528">
        <ele>208</ele>
        <time>2016-10-08T09:21:32Z</time>
      </trkpt>
      <trkpt lat="45.96879" lon="4.78526">
        <ele>208</ele>
        <time>2016-10-08T09:21:33Z</time>
      </trkpt>
      <trkpt lat="45.96885" lon="4.7852">
        <ele>209</ele>
        <time>2016-10-08T09:21:36Z</time>
      </trkpt>
      <trkpt lat="45.96888" lon="4.78519">
        <ele>209</ele>
        <time>2016-10-08T09:21:37Z</time>
      </trkpt>
      <trkpt lat="45.96892" lon="4.78513">
        <ele>209</ele>
        <time>2016-10-08T09:21:40Z</time>
      </trkpt>
      <trkpt lat="45.96894" lon="4.7851">
        <ele>210</ele>
        <time>2016-10-08T09:21:41Z</time>
      </trkpt>
      <trkpt lat="45.96899" lon="4.78502">
        <ele>211</ele>
        <time>2016-10-08T09:21:44Z</time>
      </trkpt>
      <trkpt lat="45.96901" lon="4.785">
        <ele>213</ele>
        <time>2016-10-08T09:21:45Z</time>
      </trkpt>
      <trkpt lat="45.96907" lon="4.78493">
        <ele>214</ele>
        <time>2016-10-08T09:21:49Z</time>
      </trkpt>
      <trkpt lat="45.96909" lon="4.78491">
        <ele>214</ele>
        <time>2016-10-08T09:21:50Z</time>
      </trkpt>
      <trkpt lat="45.96914" lon="4.78482">
        <ele>214</ele>
        <time>2016-10-08T09:21:54Z</time>
      </trkpt>
      <trkpt lat="45.96916" lon="4.7848">
        <ele>214</ele>
        <time>2016-10-08T09:21:55Z</time>
      </trkpt>
      <trkpt lat="45.96921" lon="4.78474">
        <ele>219</ele>
        <time>2016-10-08T09:21:58Z</time>
      </trkpt>
      <trkpt lat="45.96922" lon="4.78471">
        <ele>219</ele>
        <time>2016-10-08T09:21:59Z</time>
      </trkpt>
      <trkpt lat="45.96929" lon="4.78464">
        <ele>220</ele>
        <time>2016-10-08T09:22:03Z</time>
      </trkpt>
      <trkpt lat="45.96931" lon="4.78462">
        <ele>220</ele>
        <time>2016-10-08T09:22:04Z</time>
      </trkpt>
      <trkpt lat="45.96935" lon="4.78453">
        <ele>221</ele>
        <time>2016-10-08T09:22:08Z</time>
      </trkpt>
      <trkpt lat="45.96936" lon="4.78451">
        <ele>221</ele>
        <time>2016-10-08T09:22:09Z</time>
      </trkpt>
      <trkpt lat="45.9694" lon="4.78446">
        <ele>221</ele>
        <time>2016-10-08T09:22:12Z</time>
      </trkpt>
      <trkpt lat="45.96943" lon="4.78441">
        <ele>222</ele>
        <time>2016-10-08T09:22:13Z</time>
      </trkpt>
      <trkpt lat="45.96952" lon="4.78438">
        <ele>222</ele>
        <time>2016-10-08T09:22:19Z</time>
      </trkpt>
      <trkpt lat="45.96953" lon="4.78438">
        <ele>222</ele>
        <time>2016-10-08T09:22:20Z</time>
      </trkpt>
      <trkpt lat="45.9696" lon="4.78439">
        <ele>223</ele>
        <time>2016-10-08T09:22:24Z</time>
      </trkpt>
      <trkpt lat="45.96962" lon="4.78439">
        <ele>223</ele>
        <time>2016-10-08T09:22:25Z</time>
      </trkpt>
      <trkpt lat="45.96971" lon="4.78437">
        <ele>223</ele>
        <time>2016-10-08T09:22:30Z</time>
      </trkpt>
      <trkpt lat="45.96973" lon="4.78436">
        <ele>223</ele>
        <time>2016-10-08T09:22:31Z</time>
      </trkpt>
      <trkpt lat="45.96982" lon="4.78436">
        <ele>224</ele>
        <time>2016-10-08T09:22:37Z</time>
      </trkpt>
      <trkpt lat="45.96983" lon="4.78434">
        <ele>224</ele>
        <time>2016-10-08T09:22:38Z</time>
      </trkpt>
      <trkpt lat="45.96992" lon="4.78432">
        <ele>225</ele>
        <time>2016-10-08T09:22:43Z</time>
      </trkpt>
      <trkpt lat="45.96994" lon="4.78431">
        <ele>225</ele>
        <time>2016-10-08T09:22:44Z</time>
      </trkpt>
      <trkpt lat="45.97001" lon="4.78427">
        <ele>227</ele>
        <time>2016-10-08T09:22:48Z</time>
      </trkpt>
      <trkpt lat="45.97003" lon="4.78426">
        <ele>227</ele>
        <time>2016-10-08T09:22:49Z</time>
      </trkpt>
      <trkpt lat="45.97011" lon="4.78421">
        <ele>227</ele>
        <time>2016-10-08T09:22:54Z</time>
      </trkpt>
      <trkpt lat="45.97012" lon="4.78419">
        <ele>227</ele>
        <time>2016-10-08T09:22:55Z</time>
      </trkpt>
      <trkpt lat="45.97019" lon="4.78414">
        <ele>228</ele>
        <time>2016-10-08T09:23:00Z</time>
      </trkpt>
      <trkpt lat="45.9702" lon="4.78413">
        <ele>228</ele>
        <time>2016-10-08T09:23:01Z</time>
      </trkpt>
      <trkpt lat="45.97028" lon="4.78407">
        <ele>229</ele>
        <time>2016-10-08T09:23:06Z</time>
      </trkpt>
      <trkpt lat="45.97029" lon="4.78406">
        <ele>229</ele>
        <time>2016-10-08T09:23:07Z</time>
      </trkpt>
      <trkpt lat="45.97036" lon="4.78401">
        <ele>229</ele>
        <time>2016-10-08T09:23:11Z</time>
      </trkpt>
      <trkpt lat="45.97037" lon="4.78399">
        <ele>229</ele>
        <time>2016-10-08T09:23:12Z</time>
      </trkpt>
      <trkpt lat="45.97043" lon="4.78393">
        <ele>229</ele>
        <time>2016-10-08T09:23:16Z</time>
      </trkpt>
      <trkpt lat="45.97045" lon="4.78391">
        <ele>229</ele>
        <time>2016-10-08T09:23:17Z</time>
      </trkpt>
      <trkpt lat="45.97052" lon="4.78385">
        <ele>229</ele>
        <time>2016-10-08T09:23:20Z</time>
      </trkpt>
      <trkpt lat="45.97054" lon="4.78383">
        <ele>229</ele>
        <time>2016-10-08T09:23:21Z</time>
      </trkpt>
      <trkpt lat="45.97061" lon="4.78378">
        <ele>229</ele>
        <time>2016-10-08T09:23:24Z</time>
      </trkpt>
      <trkpt lat="45.97063" lon="4.78376">
        <ele>230</ele>
        <time>2016-10-08T09:23:25Z</time>
      </trkpt>
      <trkpt lat="45.97069" lon="4.78369">
        <ele>230</ele>
        <time>2016-10-08T09:23:28Z</time>
      </trkpt>
      <trkpt lat="45.97071" lon="4.78367">
        <ele>230</ele>
        <time>2016-10-08T09:23:29Z</time>
      </trkpt>
      <trkpt lat="45.97079" lon="4.78362">
        <ele>230</ele>
        <time>2016-10-08T09:23:32Z</time>
      </trkpt>
      <trkpt lat="45.97081" lon="4.7836">
        <ele>230</ele>
        <time>2016-10-08T09:23:33Z</time>
      </trkpt>
      <trkpt lat="45.97088" lon="4.78354">
        <ele>231</ele>
        <time>2016-10-08T09:23:36Z</time>
      </trkpt>
      <trkpt lat="45.97091" lon="4.78352">
        <ele>231</ele>
        <time>2016-10-08T09:23:37Z</time>
      </trkpt>
      <trkpt lat="45.97099" lon="4.78345">
        <ele>231</ele>
        <time>2016-10-08T09:23:40Z</time>
      </trkpt>
      <trkpt lat="45.97101" lon="4.78343">
        <ele>231</ele>
        <time>2016-10-08T09:23:41Z</time>
      </trkpt>
      <trkpt lat="45.97107" lon="4.78338">
        <ele>231</ele>
        <time>2016-10-08T09:23:43Z</time>
      </trkpt>
      <trkpt lat="45.97109" lon="4.78336">
        <ele>231</ele>
        <time>2016-10-08T09:23:44Z</time>
      </trkpt>
      <trkpt lat="45.97114" lon="4.78333">
        <ele>231</ele>
        <time>2016-10-08T09:23:46Z</time>
      </trkpt>
      <trkpt lat="45.97117" lon="4.7833">
        <ele>231</ele>
        <time>2016-10-08T09:23:47Z</time>
      </trkpt>
      <trkpt lat="45.97122" lon="4.78326">
        <ele>231</ele>
        <time>2016-10-08T09:23:49Z</time>
      </trkpt>
      <trkpt lat="45.97125" lon="4.78324">
        <ele>231</ele>
        <time>2016-10-08T09:23:50Z</time>
      </trkpt>
      <trkpt lat="45.97131" lon="4.7832">
        <ele>230</ele>
        <time>2016-10-08T09:23:52Z</time>
      </trkpt>
      <trkpt lat="45.97133" lon="4.78318">
        <ele>230</ele>
        <time>2016-10-08T09:23:53Z</time>
      </trkpt>
      <trkpt lat="45.97139" lon="4.78313">
        <ele>230</ele>
        <time>2016-10-08T09:23:55Z</time>
      </trkpt>
      <trkpt lat="45.97142" lon="4.7831">
        <ele>230</ele>
        <time>2016-10-08T09:23:56Z</time>
      </trkpt>
      <trkpt lat="45.97147" lon="4.78306">
        <ele>230</ele>
        <time>2016-10-08T09:23:58Z</time>
      </trkpt>
      <trkpt lat="45.9715" lon="4.78304">
        <ele>230</ele>
        <time>2016-10-08T09:23:59Z</time>
      </trkpt>
      <trkpt lat="45.97156" lon="4.78299">
        <ele>230</ele>
        <time>2016-10-08T09:24:01Z</time>
      </trkpt>
      <trkpt lat="45.97159" lon="4.78297">
        <ele>230</ele>
        <time>2016-10-08T09:24:02Z</time>
      </trkpt>
      <trkpt lat="45.97165" lon="4.78292">
        <ele>230</ele>
        <time>2016-10-08T09:24:04Z</time>
      </trkpt>
      <trkpt lat="45.97168" lon="4.7829">
        <ele>230</ele>
        <time>2016-10-08T09:24:05Z</time>
      </trkpt>
      <trkpt lat="45.97174" lon="4.78285">
        <ele>230</ele>
        <time>2016-10-08T09:24:07Z</time>
      </trkpt>
      <trkpt lat="45.97177" lon="4.78282">
        <ele>230</ele>
        <time>2016-10-08T09:24:08Z</time>
      </trkpt>
      <trkpt lat="45.97183" lon="4.78278">
        <ele>230</ele>
        <time>2016-10-08T09:24:10Z</time>
      </trkpt>
      <trkpt lat="45.97186" lon="4.78276">
        <ele>230</ele>
        <time>2016-10-08T09:24:11Z</time>
      </trkpt>
      <trkpt lat="45.97191" lon="4.78271">
        <ele>230</ele>
        <time>2016-10-08T09:24:13Z</time>
      </trkpt>
      <trkpt lat="45.97194" lon="4.78269">
        <ele>230</ele>
        <time>2016-10-08T09:24:14Z</time>
      </trkpt>
      <trkpt lat="45.972" lon="4.78265">
        <ele>230</ele>
        <time>2016-10-08T09:24:16Z</time>
      </trkpt>
      <trkpt lat="45.97203" lon="4.78262">
        <ele>230</ele>
        <time>2016-10-08T09:24:17Z</time>
      </trkpt>
      <trkpt lat="45.97209" lon="4.78258">
        <ele>231</ele>
        <time>2016-10-08T09:24:19Z</time>
      </trkpt>
      <trkpt lat="45.97212" lon="4.78256">
        <ele>231</ele>
        <time>2016-10-08T09:24:20Z</time>
      </trkpt>
      <trkpt lat="45.97218" lon="4.78251">
        <ele>231</ele>
        <time>2016-10-08T09:24:22Z</time>
      </trkpt>
      <trkpt lat="45.97221" lon="4.78249">
        <ele>231</ele>
        <time>2016-10-08T09:24:23Z</time>
      </trkpt>
      <trkpt lat="45.97227" lon="4.78247">
        <ele>231</ele>
        <time>2016-10-08T09:24:25Z</time>
      </trkpt>
      <trkpt lat="45.97231" lon="4.78247">
        <ele>231</ele>
        <time>2016-10-08T09:24:26Z</time>
      </trkpt>
      <trkpt lat="45.97236" lon="4.78251">
        <ele>231</ele>
        <time>2016-10-08T09:24:28Z</time>
      </trkpt>
      <trkpt lat="45.97239" lon="4.78255">
        <ele>231</ele>
        <time>2016-10-08T09:24:29Z</time>
      </trkpt>
      <trkpt lat="45.97243" lon="4.78263">
        <ele>231</ele>
        <time>2016-10-08T09:24:31Z</time>
      </trkpt>
      <trkpt lat="45.97246" lon="4.78267">
        <ele>231</ele>
        <time>2016-10-08T09:24:32Z</time>
      </trkpt>
      <trkpt lat="45.97251" lon="4.78275">
        <ele>232</ele>
        <time>2016-10-08T09:24:34Z</time>
      </trkpt>
      <trkpt lat="45.97253" lon="4.78279">
        <ele>232</ele>
        <time>2016-10-08T09:24:35Z</time>
      </trkpt>
      <trkpt lat="45.97258" lon="4.78287">
        <ele>232</ele>
        <time>2016-10-08T09:24:37Z</time>
      </trkpt>
      <trkpt lat="45.97261" lon="4.78291">
        <ele>232</ele>
        <time>2016-10-08T09:24:38Z</time>
      </trkpt>
      <trkpt lat="45.97266" lon="4.78298">
        <ele>232</ele>
        <time>2016-10-08T09:24:40Z</time>
      </trkpt>
      <trkpt lat="45.97269" lon="4.78302">
        <ele>232</ele>
        <time>2016-10-08T09:24:41Z</time>
      </trkpt>
      <trkpt lat="45.97274" lon="4.7831">
        <ele>232</ele>
        <time>2016-10-08T09:24:43Z</time>
      </trkpt>
      <trkpt lat="45.97277" lon="4.78314">
        <ele>232</ele>
        <time>2016-10-08T09:24:44Z</time>
      </trkpt>
      <trkpt lat="45.97282" lon="4.78322">
        <ele>232</ele>
        <time>2016-10-08T09:24:46Z</time>
      </trkpt>
      <trkpt lat="45.97285" lon="4.78325">
        <ele>232</ele>
        <time>2016-10-08T09:24:47Z</time>
      </trkpt>
      <trkpt lat="45.97291" lon="4.78333">
        <ele>232</ele>
        <time>2016-10-08T09:24:49Z</time>
      </trkpt>
      <trkpt lat="45.97293" lon="4.78337">
        <ele>232</ele>
        <time>2016-10-08T09:24:50Z</time>
      </trkpt>
      <trkpt lat="45.97299" lon="4.78346">
        <ele>232</ele>
        <time>2016-10-08T09:24:52Z</time>
      </trkpt>
      <trkpt lat="45.97303" lon="4.7835">
        <ele>232</ele>
        <time>2016-10-08T09:24:53Z</time>
      </trkpt>
      <trkpt lat="45.97309" lon="4.78358">
        <ele>232</ele>
        <time>2016-10-08T09:24:55Z</time>
      </trkpt>
      <trkpt lat="45.97312" lon="4.78362">
        <ele>232</ele>
        <time>2016-10-08T09:24:56Z</time>
      </trkpt>
      <trkpt lat="45.97318" lon="4.78369">
        <ele>232</ele>
        <time>2016-10-08T09:24:58Z</time>
      </trkpt>
      <trkpt lat="45.97322" lon="4.78373">
        <ele>232</ele>
        <time>2016-10-08T09:24:59Z</time>
      </trkpt>
      <trkpt lat="45.97326" lon="4.78377">
        <ele>232</ele>
        <time>2016-10-08T09:25:00Z</time>
      </trkpt>
      <trkpt lat="45.97329" lon="4.78382">
        <ele>232</ele>
        <time>2016-10-08T09:25:01Z</time>
      </trkpt>
      <trkpt lat="45.97333" lon="4.78387">
        <ele>232</ele>
        <time>2016-10-08T09:25:02Z</time>
      </trkpt>
      <trkpt lat="45.97337" lon="4.78391">
        <ele>233</ele>
        <time>2016-10-08T09:25:03Z</time>
      </trkpt>
      <trkpt lat="45.9734" lon="4.78395">
        <ele>232</ele>
        <time>2016-10-08T09:25:04Z</time>
      </trkpt>
      <trkpt lat="45.97344" lon="4.78398">
        <ele>232</ele>
        <time>2016-10-08T09:25:05Z</time>
      </trkpt>
      <trkpt lat="45.97351" lon="4.78405">
        <ele>232</ele>
        <time>2016-10-08T09:25:07Z</time>
      </trkpt>
      <trkpt lat="45.97355" lon="4.78407">
        <ele>232</ele>
        <time>2016-10-08T09:25:08Z</time>
      </trkpt>
      <trkpt lat="45.97362" lon="4.78405">
        <ele>233</ele>
        <time>2016-10-08T09:25:10Z</time>
      </trkpt>
      <trkpt lat="45.97366" lon="4.78402">
        <ele>233</ele>
        <time>2016-10-08T09:25:11Z</time>
      </trkpt>
      <trkpt lat="45.97371" lon="4.78394">
        <ele>233</ele>
        <time>2016-10-08T09:25:13Z</time>
      </trkpt>
      <trkpt lat="45.97374" lon="4.78391">
        <ele>233</ele>
        <time>2016-10-08T09:25:14Z</time>
      </trkpt>
      <trkpt lat="45.97378" lon="4.78384">
        <ele>233</ele>
        <time>2016-10-08T09:25:16Z</time>
      </trkpt>
      <trkpt lat="45.97382" lon="4.78381">
        <ele>233</ele>
        <time>2016-10-08T09:25:17Z</time>
      </trkpt>
      <trkpt lat="45.97388" lon="4.78375">
        <ele>233</ele>
        <time>2016-10-08T09:25:19Z</time>
      </trkpt>
      <trkpt lat="45.97391" lon="4.7837">
        <ele>233</ele>
        <time>2016-10-08T09:25:20Z</time>
      </trkpt>
      <trkpt lat="45.97397" lon="4.78363">
        <ele>233</ele>
        <time>2016-10-08T09:25:22Z</time>
      </trkpt>
      <trkpt lat="45.974" lon="4.7836">
        <ele>233</ele>
        <time>2016-10-08T09:25:23Z</time>
      </trkpt>
      <trkpt lat="45.97406" lon="4.78352">
        <ele>233</ele>
        <time>2016-10-08T09:25:25Z</time>
      </trkpt>
      <trkpt lat="45.97409" lon="4.78348">
        <ele>233</ele>
        <time>2016-10-08T09:25:26Z</time>
      </trkpt>
      <trkpt lat="45.97415" lon="4.78342">
        <ele>233</ele>
        <time>2016-10-08T09:25:28Z</time>
      </trkpt>
      <trkpt lat="45.97418" lon="4.78339">
        <ele>233</ele>
        <time>2016-10-08T09:25:29Z</time>
      </trkpt>
      <trkpt lat="45.97424" lon="4.78332">
        <ele>233</ele>
        <time>2016-10-08T09:25:31Z</time>
      </trkpt>
      <trkpt lat="45.97427" lon="4.78329">
        <ele>233</ele>
        <time>2016-10-08T09:25:32Z</time>
      </trkpt>
      <trkpt lat="45.97433" lon="4.78322">
        <ele>234</ele>
        <time>2016-10-08T09:25:34Z</time>
      </trkpt>
      <trkpt lat="45.97436" lon="4.78318">
        <ele>234</ele>
        <time>2016-10-08T09:25:35Z</time>
      </trkpt>
      <trkpt lat="45.97442" lon="4.78313">
        <ele>234</ele>
        <time>2016-10-08T09:25:37Z</time>
      </trkpt>
      <trkpt lat="45.97445" lon="4.7831">
        <ele>234</ele>
        <time>2016-10-08T09:25:38Z</time>
      </trkpt>
      <trkpt lat="45.97451" lon="4.78302">
        <ele>234</ele>
        <time>2016-10-08T09:25:40Z</time>
      </trkpt>
      <trkpt lat="45.97454" lon="4.78299">
        <ele>234</ele>
        <time>2016-10-08T09:25:41Z</time>
      </trkpt>
      <trkpt lat="45.9746" lon="4.78292">
        <ele>234</ele>
        <time>2016-10-08T09:25:43Z</time>
      </trkpt>
      <trkpt lat="45.97462" lon="4.78288">
        <ele>234</ele>
        <time>2016-10-08T09:25:44Z</time>
      </trkpt>
      <trkpt lat="45.97468" lon="4.78282">
        <ele>234</ele>
        <time>2016-10-08T09:25:46Z</time>
      </trkpt>
      <trkpt lat="45.97471" lon="4.78279">
        <ele>235</ele>
        <time>2016-10-08T09:25:47Z</time>
      </trkpt>
      <trkpt lat="45.97476" lon="4.78273">
        <ele>235</ele>
        <time>2016-10-08T09:25:49Z</time>
      </trkpt>
      <trkpt lat="45.97478" lon="4.7827">
        <ele>235</ele>
        <time>2016-10-08T09:25:50Z</time>
      </trkpt>
      <trkpt lat="45.97484" lon="4.78264">
        <ele>235</ele>
        <time>2016-10-08T09:25:52Z</time>
      </trkpt>
      <trkpt lat="45.97487" lon="4.7826">
        <ele>235</ele>
        <time>2016-10-08T09:25:53Z</time>
      </trkpt>
      <trkpt lat="45.97494" lon="4.78254">
        <ele>236</ele>
        <time>2016-10-08T09:25:55Z</time>
      </trkpt>
      <trkpt lat="45.97496" lon="4.78251">
        <ele>236</ele>
        <time>2016-10-08T09:25:56Z</time>
      </trkpt>
      <trkpt lat="45.97502" lon="4.78245">
        <ele>236</ele>
        <time>2016-10-08T09:25:58Z</time>
      </trkpt>
      <trkpt lat="45.97505" lon="4.78242">
        <ele>237</ele>
        <time>2016-10-08T09:25:59Z</time>
      </trkpt>
      <trkpt lat="45.9751" lon="4.78236">
        <ele>237</ele>
        <time>2016-10-08T09:26:01Z</time>
      </trkpt>
      <trkpt lat="45.97513" lon="4.78232">
        <ele>237</ele>
        <time>2016-10-08T09:26:02Z</time>
      </trkpt>
      <trkpt lat="45.97518" lon="4.78225">
        <ele>238</ele>
        <time>2016-10-08T09:26:04Z</time>
      </trkpt>
      <trkpt lat="45.9752" lon="4.78223">
        <ele>238</ele>
        <time>2016-10-08T09:26:05Z</time>
      </trkpt>
      <trkpt lat="45.97525" lon="4.78217">
        <ele>238</ele>
        <time>2016-10-08T09:26:07Z</time>
      </trkpt>
      <trkpt lat="45.97528" lon="4.78214">
        <ele>238</ele>
        <time>2016-10-08T09:26:08Z</time>
      </trkpt>
      <trkpt lat="45.97533" lon="4.78208">
        <ele>238</ele>
        <time>2016-10-08T09:26:10Z</time>
      </trkpt>
      <trkpt lat="45.97535" lon="4.78204">
        <ele>238</ele>
        <time>2016-10-08T09:26:11Z</time>
      </trkpt>
      <trkpt lat="45.9754" lon="4.78199">
        <ele>239</ele>
        <time>2016-10-08T09:26:13Z</time>
      </trkpt>
      <trkpt lat="45.97542" lon="4.78196">
        <ele>239</ele>
        <time>2016-10-08T09:26:14Z</time>
      </trkpt>
      <trkpt lat="45.97548" lon="4.78188">
        <ele>239</ele>
        <time>2016-10-08T09:26:17Z</time>
      </trkpt>
      <trkpt lat="45.9755" lon="4.78186">
        <ele>239</ele>
        <time>2016-10-08T09:26:18Z</time>
      </trkpt>
      <trkpt lat="45.97557" lon="4.78179">
        <ele>240</ele>
        <time>2016-10-08T09:26:21Z</time>
      </trkpt>
      <trkpt lat="45.97559" lon="4.78176">
        <ele>240</ele>
        <time>2016-10-08T09:26:22Z</time>
      </trkpt>
      <trkpt lat="45.97566" lon="4.78169">
        <ele>240</ele>
        <time>2016-10-08T09:26:25Z</time>
      </trkpt>
      <trkpt lat="45.97568" lon="4.78167">
        <ele>240</ele>
        <time>2016-10-08T09:26:26Z</time>
      </trkpt>
      <trkpt lat="45.97575" lon="4.7816">
        <ele>242</ele>
        <time>2016-10-08T09:26:29Z</time>
      </trkpt>
      <trkpt lat="45.97577" lon="4.78158">
        <ele>242</ele>
        <time>2016-10-08T09:26:30Z</time>
      </trkpt>
      <trkpt lat="45.97583" lon="4.78151">
        <ele>242</ele>
        <time>2016-10-08T09:26:33Z</time>
      </trkpt>
      <trkpt lat="45.97585" lon="4.78149">
        <ele>244</ele>
        <time>2016-10-08T09:26:34Z</time>
      </trkpt>
      <trkpt lat="45.97591" lon="4.78142">
        <ele>245</ele>
        <time>2016-10-08T09:26:37Z</time>
      </trkpt>
      <trkpt lat="45.97592" lon="4.7814">
        <ele>245</ele>
        <time>2016-10-08T09:26:38Z</time>
      </trkpt>
      <trkpt lat="45.97599" lon="4.78134">
        <ele>245</ele>
        <time>2016-10-08T09:26:41Z</time>
      </trkpt>
      <trkpt lat="45.97601" lon="4.78133">
        <ele>245</ele>
        <time>2016-10-08T09:26:42Z</time>
      </trkpt>
      <trkpt lat="45.97606" lon="4.78125">
        <ele>245</ele>
        <time>2016-10-08T09:26:45Z</time>
      </trkpt>
      <trkpt lat="45.97608" lon="4.78122">
        <ele>246</ele>
        <time>2016-10-08T09:26:46Z</time>
      </trkpt>
      <trkpt lat="45.97615" lon="4.78114">
        <ele>246</ele>
        <time>2016-10-08T09:26:49Z</time>
      </trkpt>
      <trkpt lat="45.97617" lon="4.78112">
        <ele>246</ele>
        <time>2016-10-08T09:26:50Z</time>
      </trkpt>
      <trkpt lat="45.97624" lon="4.78104">
        <ele>246</ele>
        <time>2016-10-08T09:26:53Z</time>
      </trkpt>
      <trkpt lat="45.97626" lon="4.78101">
        <ele>246</ele>
        <time>2016-10-08T09:26:54Z</time>
      </trkpt>
      <trkpt lat="45.9763" lon="4.78094">
        <ele>246</ele>
        <time>2016-10-08T09:26:56Z</time>
      </trkpt>
      <trkpt lat="45.97632" lon="4.78091">
        <ele>247</ele>
        <time>2016-10-08T09:26:57Z</time>
      </trkpt>
      <trkpt lat="45.97638" lon="4.78085">
        <ele>247</ele>
        <time>2016-10-08T09:26:59Z</time>
      </trkpt>
      <trkpt lat="45.97641" lon="4.78083">
        <ele>247</ele>
        <time>2016-10-08T09:27:00Z</time>
      </trkpt>
      <trkpt lat="45.97647" lon="4.78078">
        <ele>247</ele>
        <time>2016-10-08T09:27:02Z</time>
      </trkpt>
      <trkpt lat="45.97649" lon="4.78075">
        <ele>247</ele>
        <time>2016-10-08T09:27:03Z</time>
      </trkpt>
      <trkpt lat="45.97655" lon="4.7807">
        <ele>247</ele>
        <time>2016-10-08T09:27:05Z</time>
      </trkpt>
      <trkpt lat="45.97658" lon="4.78067">
        <ele>247</ele>
        <time>2016-10-08T09:27:06Z</time>
      </trkpt>
      <trkpt lat="45.97664" lon="4.78064">
        <ele>247</ele>
        <time>2016-10-08T09:27:08Z</time>
      </trkpt>
      <trkpt lat="45.97667" lon="4.78063">
        <ele>248</ele>
        <time>2016-10-08T09:27:09Z</time>
      </trkpt>
      <trkpt lat="45.97674" lon="4.7806">
        <ele>248</ele>
        <time>2016-10-08T09:27:11Z</time>
      </trkpt>
      <trkpt lat="45.97677" lon="4.78058">
        <ele>248</ele>
        <time>2016-10-08T09:27:12Z</time>
      </trkpt>
      <trkpt lat="45.97685" lon="4.78055">
        <ele>247</ele>
        <time>2016-10-08T09:27:14Z</time>
      </trkpt>
      <trkpt lat="45.97688" lon="4.78054">
        <ele>247</ele>
        <time>2016-10-08T09:27:15Z</time>
      </trkpt>
      <trkpt lat="45.97695" lon="4.78051">
        <ele>247</ele>
        <time>2016-10-08T09:27:17Z</time>
      </trkpt>
      <trkpt lat="45.97699" lon="4.78049">
        <ele>247</ele>
        <time>2016-10-08T09:27:18Z</time>
      </trkpt>
      <trkpt lat="45.97706" lon="4.78046">
        <ele>247</ele>
        <time>2016-10-08T09:27:20Z</time>
      </trkpt>
      <trkpt lat="45.9771" lon="4.78045">
        <ele>247</ele>
        <time>2016-10-08T09:27:21Z</time>
      </trkpt>
      <trkpt lat="45.97717" lon="4.78042">
        <ele>247</ele>
        <time>2016-10-08T09:27:23Z</time>
      </trkpt>
      <trkpt lat="45.97721" lon="4.7804">
        <ele>247</ele>
        <time>2016-10-08T09:27:24Z</time>
      </trkpt>
      <trkpt lat="45.97728" lon="4.78037">
        <ele>247</ele>
        <time>2016-10-08T09:27:26Z</time>
      </trkpt>
      <trkpt lat="45.97732" lon="4.78035">
        <ele>247</ele>
        <time>2016-10-08T09:27:27Z</time>
      </trkpt>
      <trkpt lat="45.97739" lon="4.78032">
        <ele>247</ele>
        <time>2016-10-08T09:27:29Z</time>
      </trkpt>
      <trkpt lat="45.97743" lon="4.7803">
        <ele>247</ele>
        <time>2016-10-08T09:27:30Z</time>
      </trkpt>
      <trkpt lat="45.97751" lon="4.78028">
        <ele>246</ele>
        <time>2016-10-08T09:27:32Z</time>
      </trkpt>
      <trkpt lat="45.97754" lon="4.78026">
        <ele>246</ele>
        <time>2016-10-08T09:27:33Z</time>
      </trkpt>
      <trkpt lat="45.97761" lon="4.78024">
        <ele>246</ele>
        <time>2016-10-08T09:27:35Z</time>
      </trkpt>
      <trkpt lat="45.97765" lon="4.78022">
        <ele>246</ele>
        <time>2016-10-08T09:27:36Z</time>
      </trkpt>
      <trkpt lat="45.97773" lon="4.7802">
        <ele>246</ele>
        <time>2016-10-08T09:27:38Z</time>
      </trkpt>
      <trkpt lat="45.97777" lon="4.78019">
        <ele>246</ele>
        <time>2016-10-08T09:27:39Z</time>
      </trkpt>
      <trkpt lat="45.97784" lon="4.78016">
        <ele>246</ele>
        <time>2016-10-08T09:27:41Z</time>
      </trkpt>
      <trkpt lat="45.97788" lon="4.78014">
        <ele>246</ele>
        <time>2016-10-08T09:27:42Z</time>
      </trkpt>
      <trkpt lat="45.97796" lon="4.78011">
        <ele>246</ele>
        <time>2016-10-08T09:27:44Z</time>
      </trkpt>
      <trkpt lat="45.978" lon="4.78009">
        <ele>246</ele>
        <time>2016-10-08T09:27:45Z</time>
      </trkpt>
      <trkpt lat="45.97808" lon="4.78006">
        <ele>246</ele>
        <time>2016-10-08T09:27:47Z</time>
      </trkpt>
      <trkpt lat="45.97812" lon="4.78004">
        <ele>246</ele>
        <time>2016-10-08T09:27:48Z</time>
      </trkpt>
      <trkpt lat="45.97821" lon="4.78001">
        <ele>246</ele>
        <time>2016-10-08T09:27:50Z</time>
      </trkpt>
      <trkpt lat="45.97825" lon="4.78">
        <ele>246</ele>
        <time>2016-10-08T09:27:51Z</time>
      </trkpt>
      <trkpt lat="45.97833" lon="4.77997">
        <ele>246</ele>
        <time>2016-10-08T09:27:53Z</time>
      </trkpt>
      <trkpt lat="45.97837" lon="4.77995">
        <ele>246</ele>
        <time>2016-10-08T09:27:54Z</time>
      </trkpt>
      <trkpt lat="45.97845" lon="4.77991">
        <ele>246</ele>
        <time>2016-10-08T09:27:56Z</time>
      </trkpt>
      <trkpt lat="45.9785" lon="4.7799">
        <ele>246</ele>
        <time>2016-10-08T09:27:57Z</time>
      </trkpt>
      <trkpt lat="45.97858" lon="4.77987">
        <ele>246</ele>
        <time>2016-10-08T09:27:59Z</time>
      </trkpt>
      <trkpt lat="45.97862" lon="4.77985">
        <ele>246</ele>
        <time>2016-10-08T09:28:00Z</time>
      </trkpt>
      <trkpt lat="45.97867" lon="4.77983">
        <ele>246</ele>
        <time>2016-10-08T09:28:01Z</time>
      </trkpt>
      <trkpt lat="45.97872" lon="4.77982">
        <ele>246</ele>
        <time>2016-10-08T09:28:02Z</time>
      </trkpt>
      <trkpt lat="45.97877" lon="4.7798">
        <ele>246</ele>
        <time>2016-10-08T09:28:03Z</time>
      </trkpt>
      <trkpt lat="45.97881" lon="4.77978">
        <ele>246</ele>
        <time>2016-10-08T09:28:04Z</time>
      </trkpt>
      <trkpt lat="45.97886" lon="4.77977">
        <ele>246</ele>
        <time>2016-10-08T09:28:05Z</time>
      </trkpt>
      <trkpt lat="45.97891" lon="4.77975">
        <ele>246</ele>
        <time>2016-10-08T09:28:06Z</time>
      </trkpt>
      <trkpt lat="45.97896" lon="4.77973">
        <ele>246</ele>
        <time>2016-10-08T09:28:07Z</time>
      </trkpt>
      <trkpt lat="45.97901" lon="4.77972">
        <ele>246</ele>
        <time>2016-10-08T09:28:08Z</time>
      </trkpt>
      <trkpt lat="45.97906" lon="4.7797">
        <ele>246</ele>
        <time>2016-10-08T09:28:09Z</time>
      </trkpt>
      <trkpt lat="45.97911" lon="4.77969">
        <ele>246</ele>
        <time>2016-10-08T09:28:10Z</time>
      </trkpt>
      <trkpt lat="45.9792" lon="4.77967">
        <ele>246</ele>
        <time>2016-10-08T09:28:12Z</time>
      </trkpt>
      <trkpt lat="45.97924" lon="4.77966">
        <ele>246</ele>
        <time>2016-10-08T09:28:13Z</time>
      </trkpt>
      <trkpt lat="45.97929" lon="4.77966">
        <ele>246</ele>
        <time>2016-10-08T09:28:14Z</time>
      </trkpt>
      <trkpt lat="45.97934" lon="4.77965">
        <ele>246</ele>
        <time>2016-10-08T09:28:15Z</time>
      </trkpt>
      <trkpt lat="45.97939" lon="4.77963">
        <ele>246</ele>
        <time>2016-10-08T09:28:16Z</time>
      </trkpt>
      <trkpt lat="45.97943" lon="4.77962">
        <ele>246</ele>
        <time>2016-10-08T09:28:17Z</time>
      </trkpt>
      <trkpt lat="45.97948" lon="4.77961">
        <ele>246</ele>
        <time>2016-10-08T09:28:18Z</time>
      </trkpt>
      <trkpt lat="45.97953" lon="4.7796">
        <ele>246</ele>
        <time>2016-10-08T09:28:19Z</time>
      </trkpt>
      <trkpt lat="45.97958" lon="4.7796">
        <ele>246</ele>
        <time>2016-10-08T09:28:20Z</time>
      </trkpt>
      <trkpt lat="45.97963" lon="4.77959">
        <ele>246</ele>
        <time>2016-10-08T09:28:21Z</time>
      </trkpt>
      <trkpt lat="45.97968" lon="4.77958">
        <ele>246</ele>
        <time>2016-10-08T09:28:22Z</time>
      </trkpt>
      <trkpt lat="45.97973" lon="4.77958">
        <ele>246</ele>
        <time>2016-10-08T09:28:23Z</time>
      </trkpt>
      <trkpt lat="45.97978" lon="4.77957">
        <ele>246</ele>
        <time>2016-10-08T09:28:24Z</time>
      </trkpt>
      <trkpt lat="45.97984" lon="4.77956">
        <ele>246</ele>
        <time>2016-10-08T09:28:25Z</time>
      </trkpt>
      <trkpt lat="45.97989" lon="4.77956">
        <ele>246</ele>
        <time>2016-10-08T09:28:26Z</time>
      </trkpt>
      <trkpt lat="45.97994" lon="4.77955">
        <ele>246</ele>
        <time>2016-10-08T09:28:27Z</time>
      </trkpt>
      <trkpt lat="45.98" lon="4.77954">
        <ele>246</ele>
        <time>2016-10-08T09:28:28Z</time>
      </trkpt>
      <trkpt lat="45.98006" lon="4.77954">
        <ele>247</ele>
        <time>2016-10-08T09:28:29Z</time>
      </trkpt>
      <trkpt lat="45.98012" lon="4.77953">
        <ele>247</ele>
        <time>2016-10-08T09:28:30Z</time>
      </trkpt>
      <trkpt lat="45.98018" lon="4.77952">
        <ele>247</ele>
        <time>2016-10-08T09:28:31Z</time>
      </trkpt>
      <trkpt lat="45.98024" lon="4.7795">
        <ele>247</ele>
        <time>2016-10-08T09:28:32Z</time>
      </trkpt>
      <trkpt lat="45.9803" lon="4.7795">
        <ele>247</ele>
        <time>2016-10-08T09:28:33Z</time>
      </trkpt>
      <trkpt lat="45.98036" lon="4.77949">
        <ele>247</ele>
        <time>2016-10-08T09:28:34Z</time>
      </trkpt>
      <trkpt lat="45.98042" lon="4.77948">
        <ele>247</ele>
        <time>2016-10-08T09:28:35Z</time>
      </trkpt>
      <trkpt lat="45.98048" lon="4.77948">
        <ele>247</ele>
        <time>2016-10-08T09:28:36Z</time>
      </trkpt>
      <trkpt lat="45.98054" lon="4.77947">
        <ele>247</ele>
        <time>2016-10-08T09:28:37Z</time>
      </trkpt>
      <trkpt lat="45.9806" lon="4.77946">
        <ele>247</ele>
        <time>2016-10-08T09:28:38Z</time>
      </trkpt>
      <trkpt lat="45.98066" lon="4.77945">
        <ele>247</ele>
        <time>2016-10-08T09:28:39Z</time>
      </trkpt>
      <trkpt lat="45.98072" lon="4.77944">
        <ele>247</ele>
        <time>2016-10-08T09:28:40Z</time>
      </trkpt>
      <trkpt lat="45.98077" lon="4.77943">
        <ele>247</ele>
        <time>2016-10-08T09:28:41Z</time>
      </trkpt>
      <trkpt lat="45.98083" lon="4.77942">
        <ele>247</ele>
        <time>2016-10-08T09:28:42Z</time>
      </trkpt>
      <trkpt lat="45.98089" lon="4.77941">
        <ele>246</ele>
        <time>2016-10-08T09:28:43Z</time>
      </trkpt>
      <trkpt lat="45.98094" lon="4.7794">
        <ele>246</ele>
        <time>2016-10-08T09:28:44Z</time>
      </trkpt>
      <trkpt lat="45.981" lon="4.77939">
        <ele>246</ele>
        <time>2016-10-08T09:28:45Z</time>
      </trkpt>
      <trkpt lat="45.98105" lon="4.77938">
        <ele>246</ele>
        <time>2016-10-08T09:28:46Z</time>
      </trkpt>
      <trkpt lat="45.9811" lon="4.77938">
        <ele>246</ele>
        <time>2016-10-08T09:28:47Z</time>
      </trkpt>
      <trkpt lat="45.98115" lon="4.77937">
        <ele>246</ele>
        <time>2016-10-08T09:28:48Z</time>
      </trkpt>
      <trkpt lat="45.98119" lon="4.77936">
        <ele>246</ele>
        <time>2016-10-08T09:28:49Z</time>
      </trkpt>
      <trkpt lat="45.98124" lon="4.77936">
        <ele>246</ele>
        <time>2016-10-08T09:28:50Z</time>
      </trkpt>
      <trkpt lat="45.98129" lon="4.77935">
        <ele>246</ele>
        <time>2016-10-08T09:28:51Z</time>
      </trkpt>
      <trkpt lat="45.98135" lon="4.77934">
        <ele>246</ele>
        <time>2016-10-08T09:28:52Z</time>
      </trkpt>
      <trkpt lat="45.9814" lon="4.77932">
        <ele>246</ele>
        <time>2016-10-08T09:28:53Z</time>
      </trkpt>
      <trkpt lat="45.98145" lon="4.77931">
        <ele>246</ele>
        <time>2016-10-08T09:28:54Z</time>
      </trkpt>
      <trkpt lat="45.98151" lon="4.7793">
        <ele>246</ele>
        <time>2016-10-08T09:28:55Z</time>
      </trkpt>
      <trkpt lat="45.98156" lon="4.77928">
        <ele>246</ele>
        <time>2016-10-08T09:28:56Z</time>
      </trkpt>
      <trkpt lat="45.98161" lon="4.77927">
        <ele>245</ele>
        <time>2016-10-08T09:28:57Z</time>
      </trkpt>
      <trkpt lat="45.98166" lon="4.77925">
        <ele>245</ele>
        <time>2016-10-08T09:28:58Z</time>
      </trkpt>
      <trkpt lat="45.9817" lon="4.77924">
        <ele>245</ele>
        <time>2016-10-08T09:28:59Z</time>
      </trkpt>
      <trkpt lat="45.98175" lon="4.77922">
        <ele>245</ele>
        <time>2016-10-08T09:29:00Z</time>
      </trkpt>
      <trkpt lat="45.98179" lon="4.77921">
        <ele>245</ele>
        <time>2016-10-08T09:29:01Z</time>
      </trkpt>
      <trkpt lat="45.98184" lon="4.7792">
        <ele>245</ele>
        <time>2016-10-08T09:29:02Z</time>
      </trkpt>
      <trkpt lat="45.98189" lon="4.77919">
        <ele>245</ele>
        <time>2016-10-08T09:29:03Z</time>
      </trkpt>
      <trkpt lat="45.98194" lon="4.77918">
        <ele>245</ele>
        <time>2016-10-08T09:29:04Z</time>
      </trkpt>
      <trkpt lat="45.98199" lon="4.77916">
        <ele>244</ele>
        <time>2016-10-08T09:29:05Z</time>
      </trkpt>
      <trkpt lat="45.98203" lon="4.77915">
        <ele>244</ele>
        <time>2016-10-08T09:29:06Z</time>
      </trkpt>
      <trkpt lat="45.98208" lon="4.77913">
        <ele>244</ele>
        <time>2016-10-08T09:29:07Z</time>
      </trkpt>
      <trkpt lat="45.98213" lon="4.77912">
        <ele>244</ele>
        <time>2016-10-08T09:29:08Z</time>
      </trkpt>
      <trkpt lat="45.98218" lon="4.77911">
        <ele>244</ele>
        <time>2016-10-08T09:29:09Z</time>
      </trkpt>
      <trkpt lat="45.98223" lon="4.77909">
        <ele>244</ele>
        <time>2016-10-08T09:29:10Z</time>
      </trkpt>
      <trkpt lat="45.98228" lon="4.77907">
        <ele>244</ele>
        <time>2016-10-08T09:29:11Z</time>
      </trkpt>
      <trkpt lat="45.98233" lon="4.77905">
        <ele>244</ele>
        <time>2016-10-08T09:29:12Z</time>
      </trkpt>
      <trkpt lat="45.98238" lon="4.77904">
        <ele>244</ele>
        <time>2016-10-08T09:29:13Z</time>
      </trkpt>
      <trkpt lat="45.98243" lon="4.77902">
        <ele>244</ele>
        <time>2016-10-08T09:29:14Z</time>
      </trkpt>
      <trkpt lat="45.98248" lon="4.779">
        <ele>244</ele>
        <time>2016-10-08T09:29:15Z</time>
      </trkpt>
      <trkpt lat="45.98253" lon="4.77899">
        <ele>244</ele>
        <time>2016-10-08T09:29:16Z</time>
      </trkpt>
      <trkpt lat="45.98258" lon="4.77897">
        <ele>244</ele>
        <time>2016-10-08T09:29:17Z</time>
      </trkpt>
      <trkpt lat="45.98263" lon="4.77896">
        <ele>244</ele>
        <time>2016-10-08T09:29:18Z</time>
      </trkpt>
      <trkpt lat="45.98267" lon="4.77894">
        <ele>244</ele>
        <time>2016-10-08T09:29:19Z</time>
      </trkpt>
      <trkpt lat="45.98272" lon="4.77893">
        <ele>244</ele>
        <time>2016-10-08T09:29:20Z</time>
      </trkpt>
      <trkpt lat="45.98276" lon="4.77891">
        <ele>244</ele>
        <time>2016-10-08T09:29:21Z</time>
      </trkpt>
      <trkpt lat="45.98281" lon="4.77889">
        <ele>244</ele>
        <time>2016-10-08T09:29:22Z</time>
      </trkpt>
      <trkpt lat="45.98285" lon="4.77887">
        <ele>244</ele>
        <time>2016-10-08T09:29:23Z</time>
      </trkpt>
      <trkpt lat="45.9829" lon="4.77886">
        <ele>244</ele>
        <time>2016-10-08T09:29:24Z</time>
      </trkpt>
      <trkpt lat="45.98295" lon="4.77884">
        <ele>244</ele>
        <time>2016-10-08T09:29:25Z</time>
      </trkpt>
      <trkpt lat="45.983" lon="4.77882">
        <ele>244</ele>
        <time>2016-10-08T09:29:26Z</time>
      </trkpt>
      <trkpt lat="45.98305" lon="4.7788">
        <ele>243</ele>
        <time>2016-10-08T09:29:27Z</time>
      </trkpt>
      <trkpt lat="45.9831" lon="4.77878">
        <ele>243</ele>
        <time>2016-10-08T09:29:28Z</time>
      </trkpt>
      <trkpt lat="45.98315" lon="4.77876">
        <ele>243</ele>
        <time>2016-10-08T09:29:29Z</time>
      </trkpt>
      <trkpt lat="45.9832" lon="4.77874">
        <ele>243</ele>
        <time>2016-10-08T09:29:30Z</time>
      </trkpt>
      <trkpt lat="45.98325" lon="4.77872">
        <ele>243</ele>
        <time>2016-10-08T09:29:31Z</time>
      </trkpt>
      <trkpt lat="45.98329" lon="4.7787">
        <ele>243</ele>
        <time>2016-10-08T09:29:32Z</time>
      </trkpt>
      <trkpt lat="45.98334" lon="4.77867">
        <ele>243</ele>
        <time>2016-10-08T09:29:33Z</time>
      </trkpt>
      <trkpt lat="45.98338" lon="4.77866">
        <ele>243</ele>
        <time>2016-10-08T09:29:34Z</time>
      </trkpt>
      <trkpt lat="45.98343" lon="4.77864">
        <ele>242</ele>
        <time>2016-10-08T09:29:35Z</time>
      </trkpt>
      <trkpt lat="45.98348" lon="4.77862">
        <ele>242</ele>
        <time>2016-10-08T09:29:36Z</time>
      </trkpt>
      <trkpt lat="45.98352" lon="4.77861">
        <ele>242</ele>
        <time>2016-10-08T09:29:37Z</time>
      </trkpt>
      <trkpt lat="45.98358" lon="4.77859">
        <ele>242</ele>
        <time>2016-10-08T09:29:38Z</time>
      </trkpt>
      <trkpt lat="45.98363" lon="4.77857">
        <ele>242</ele>
        <time>2016-10-08T09:29:39Z</time>
      </trkpt>
      <trkpt lat="45.98368" lon="4.77857">
        <ele>242</ele>
        <time>2016-10-08T09:29:40Z</time>
      </trkpt>
      <trkpt lat="45.98373" lon="4.77857">
        <ele>242</ele>
        <time>2016-10-08T09:29:41Z</time>
      </trkpt>
      <trkpt lat="45.98378" lon="4.77854">
        <ele>242</ele>
        <time>2016-10-08T09:29:42Z</time>
      </trkpt>
      <trkpt lat="45.98383" lon="4.7785">
        <ele>242</ele>
        <time>2016-10-08T09:29:43Z</time>
      </trkpt>
      <trkpt lat="45.98388" lon="4.77848">
        <ele>242</ele>
        <time>2016-10-08T09:29:44Z</time>
      </trkpt>
      <trkpt lat="45.98393" lon="4.77846">
        <ele>242</ele>
        <time>2016-10-08T09:29:45Z</time>
      </trkpt>
      <trkpt lat="45.98398" lon="4.77843">
        <ele>242</ele>
        <time>2016-10-08T09:29:46Z</time>
      </trkpt>
      <trkpt lat="45.98403" lon="4.7784">
        <ele>242</ele>
        <time>2016-10-08T09:29:47Z</time>
      </trkpt>
      <trkpt lat="45.98408" lon="4.77838">
        <ele>241</ele>
        <time>2016-10-08T09:29:48Z</time>
      </trkpt>
      <trkpt lat="45.98413" lon="4.77836">
        <ele>241</ele>
        <time>2016-10-08T09:29:49Z</time>
      </trkpt>
      <trkpt lat="45.98419" lon="4.77833">
        <ele>241</ele>
        <time>2016-10-08T09:29:50Z</time>
      </trkpt>
      <trkpt lat="45.98424" lon="4.77831">
        <ele>240</ele>
        <time>2016-10-08T09:29:51Z</time>
      </trkpt>
      <trkpt lat="45.98429" lon="4.77828">
        <ele>240</ele>
        <time>2016-10-08T09:29:52Z</time>
      </trkpt>
      <trkpt lat="45.98434" lon="4.77826">
        <ele>240</ele>
        <time>2016-10-08T09:29:53Z</time>
      </trkpt>
      <trkpt lat="45.98439" lon="4.77823">
        <ele>239</ele>
        <time>2016-10-08T09:29:54Z</time>
      </trkpt>
      <trkpt lat="45.98443" lon="4.7782">
        <ele>239</ele>
        <time>2016-10-08T09:29:55Z</time>
      </trkpt>
      <trkpt lat="45.98449" lon="4.77817">
        <ele>239</ele>
        <time>2016-10-08T09:29:56Z</time>
      </trkpt>
      <trkpt lat="45.98454" lon="4.77815">
        <ele>239</ele>
        <time>2016-10-08T09:29:57Z</time>
      </trkpt>
      <trkpt lat="45.9846" lon="4.77812">
        <ele>239</ele>
        <time>2016-10-08T09:29:58Z</time>
      </trkpt>
      <trkpt lat="45.98465" lon="4.7781">
        <ele>239</ele>
        <time>2016-10-08T09:29:59Z</time>
      </trkpt>
      <trkpt lat="45.98471" lon="4.77808">
        <ele>238</ele>
        <time>2016-10-08T09:30:00Z</time>
      </trkpt>
      <trkpt lat="45.98477" lon="4.77805">
        <ele>238</ele>
        <time>2016-10-08T09:30:01Z</time>
      </trkpt>
      <trkpt lat="45.98483" lon="4.77802">
        <ele>238</ele>
        <time>2016-10-08T09:30:02Z</time>
      </trkpt>
      <trkpt lat="45.98489" lon="4.77799">
        <ele>238</ele>
        <time>2016-10-08T09:30:03Z</time>
      </trkpt>
      <trkpt lat="45.98495" lon="4.77796">
        <ele>238</ele>
        <time>2016-10-08T09:30:04Z</time>
      </trkpt>
      <trkpt lat="45.985" lon="4.77793">
        <ele>236</ele>
        <time>2016-10-08T09:30:05Z</time>
      </trkpt>
      <trkpt lat="45.98505" lon="4.77791">
        <ele>236</ele>
        <time>2016-10-08T09:30:06Z</time>
      </trkpt>
      <trkpt lat="45.9851" lon="4.77789">
        <ele>236</ele>
        <time>2016-10-08T09:30:07Z</time>
      </trkpt>
      <trkpt lat="45.98517" lon="4.77784">
        <ele>236</ele>
        <time>2016-10-08T09:30:09Z</time>
      </trkpt>
      <trkpt lat="45.98519" lon="4.77783">
        <ele>236</ele>
        <time>2016-10-08T09:30:10Z</time>
      </trkpt>
      <trkpt lat="45.98522" lon="4.77782">
        <ele>236</ele>
        <time>2016-10-08T09:30:11Z</time>
      </trkpt>
      <trkpt lat="45.98523" lon="4.77781">
        <ele>236</ele>
        <time>2016-10-08T09:30:12Z</time>
      </trkpt>
      <trkpt lat="45.98523" lon="4.77783">
        <ele>236</ele>
        <time>2016-10-08T09:30:22Z</time>
      </trkpt>
      <trkpt lat="45.98524" lon="4.77784">
        <ele>236</ele>
        <time>2016-10-08T09:30:23Z</time>
      </trkpt>
      <trkpt lat="45.9853" lon="4.77782">
        <ele>236</ele>
        <time>2016-10-08T09:30:26Z</time>
      </trkpt>
      <trkpt lat="45.98533" lon="4.77781">
        <ele>236</ele>
        <time>2016-10-08T09:30:27Z</time>
      </trkpt>
      <trkpt lat="45.9854" lon="4.77776">
        <ele>236</ele>
        <time>2016-10-08T09:30:29Z</time>
      </trkpt>
      <trkpt lat="45.98543" lon="4.77772">
        <ele>235</ele>
        <time>2016-10-08T09:30:30Z</time>
      </trkpt>
      <trkpt lat="45.98547" lon="4.77768">
        <ele>235</ele>
        <time>2016-10-08T09:30:31Z</time>
      </trkpt>
      <trkpt lat="45.98552" lon="4.77765">
        <ele>235</ele>
        <time>2016-10-08T09:30:32Z</time>
      </trkpt>
      <trkpt lat="45.98556" lon="4.77762">
        <ele>235</ele>
        <time>2016-10-08T09:30:33Z</time>
      </trkpt>
      <trkpt lat="45.98561" lon="4.77758">
        <ele>235</ele>
        <time>2016-10-08T09:30:34Z</time>
      </trkpt>
      <trkpt lat="45.98566" lon="4.77756">
        <ele>234</ele>
        <time>2016-10-08T09:30:35Z</time>
      </trkpt>
      <trkpt lat="45.98571" lon="4.77753">
        <ele>234</ele>
        <time>2016-10-08T09:30:36Z</time>
      </trkpt>
      <trkpt lat="45.98577" lon="4.7775">
        <ele>233</ele>
        <time>2016-10-08T09:30:37Z</time>
      </trkpt>
      <trkpt lat="45.98583" lon="4.77746">
        <ele>233</ele>
        <time>2016-10-08T09:30:38Z</time>
      </trkpt>
      <trkpt lat="45.98589" lon="4.77742">
        <ele>232</ele>
        <time>2016-10-08T09:30:39Z</time>
      </trkpt>
      <trkpt lat="45.98595" lon="4.77739">
        <ele>232</ele>
        <time>2016-10-08T09:30:40Z</time>
      </trkpt>
      <trkpt lat="45.98601" lon="4.77735">
        <ele>231</ele>
        <time>2016-10-08T09:30:41Z</time>
      </trkpt>
      <trkpt lat="45.98608" lon="4.77731">
        <ele>231</ele>
        <time>2016-10-08T09:30:42Z</time>
      </trkpt>
      <trkpt lat="45.98614" lon="4.77726">
        <ele>231</ele>
        <time>2016-10-08T09:30:43Z</time>
      </trkpt>
      <trkpt lat="45.98621" lon="4.77721">
        <ele>231</ele>
        <time>2016-10-08T09:30:44Z</time>
      </trkpt>
      <trkpt lat="45.98629" lon="4.77716">
        <ele>231</ele>
        <time>2016-10-08T09:30:45Z</time>
      </trkpt>
      <trkpt lat="45.98636" lon="4.7771">
        <ele>230</ele>
        <time>2016-10-08T09:30:46Z</time>
      </trkpt>
      <trkpt lat="45.98643" lon="4.77705">
        <ele>230</ele>
        <time>2016-10-08T09:30:47Z</time>
      </trkpt>
      <trkpt lat="45.98651" lon="4.77698">
        <ele>230</ele>
        <time>2016-10-08T09:30:48Z</time>
      </trkpt>
      <trkpt lat="45.98658" lon="4.7769">
        <ele>230</ele>
        <time>2016-10-08T09:30:49Z</time>
      </trkpt>
      <trkpt lat="45.98665" lon="4.77682">
        <ele>229</ele>
        <time>2016-10-08T09:30:50Z</time>
      </trkpt>
      <trkpt lat="45.98672" lon="4.77673">
        <ele>228</ele>
        <time>2016-10-08T09:30:51Z</time>
      </trkpt>
      <trkpt lat="45.98679" lon="4.77665">
        <ele>226</ele>
        <time>2016-10-08T09:30:52Z</time>
      </trkpt>
      <trkpt lat="45.98686" lon="4.77657">
        <ele>225</ele>
        <time>2016-10-08T09:30:53Z</time>
      </trkpt>
      <trkpt lat="45.98693" lon="4.77648">
        <ele>225</ele>
        <time>2016-10-08T09:30:54Z</time>
      </trkpt>
      <trkpt lat="45.987" lon="4.77641">
        <ele>224</ele>
        <time>2016-10-08T09:30:55Z</time>
      </trkpt>
      <trkpt lat="45.98708" lon="4.77633">
        <ele>224</ele>
        <time>2016-10-08T09:30:56Z</time>
      </trkpt>
      <trkpt lat="45.98715" lon="4.77625">
        <ele>223</ele>
        <time>2016-10-08T09:30:57Z</time>
      </trkpt>
      <trkpt lat="45.98723" lon="4.77618">
        <ele>223</ele>
        <time>2016-10-08T09:30:58Z</time>
      </trkpt>
      <trkpt lat="45.98731" lon="4.7761">
        <ele>223</ele>
        <time>2016-10-08T09:30:59Z</time>
      </trkpt>
      <trkpt lat="45.98739" lon="4.77603">
        <ele>222</ele>
        <time>2016-10-08T09:31:00Z</time>
      </trkpt>
      <trkpt lat="45.98746" lon="4.77595">
        <ele>221</ele>
        <time>2016-10-08T09:31:01Z</time>
      </trkpt>
      <trkpt lat="45.98754" lon="4.77588">
        <ele>220</ele>
        <time>2016-10-08T09:31:02Z</time>
      </trkpt>
      <trkpt lat="45.98762" lon="4.77581">
        <ele>219</ele>
        <time>2016-10-08T09:31:03Z</time>
      </trkpt>
      <trkpt lat="45.9877" lon="4.77574">
        <ele>218</ele>
        <time>2016-10-08T09:31:04Z</time>
      </trkpt>
      <trkpt lat="45.98778" lon="4.77567">
        <ele>218</ele>
        <time>2016-10-08T09:31:05Z</time>
      </trkpt>
      <trkpt lat="45.98787" lon="4.7756">
        <ele>218</ele>
        <time>2016-10-08T09:31:06Z</time>
      </trkpt>
      <trkpt lat="45.98795" lon="4.77552">
        <ele>218</ele>
        <time>2016-10-08T09:31:07Z</time>
      </trkpt>
      <trkpt lat="45.98802" lon="4.77544">
        <ele>217</ele>
        <time>2016-10-08T09:31:08Z</time>
      </trkpt>
      <trkpt lat="45.98809" lon="4.77534">
        <ele>217</ele>
        <time>2016-10-08T09:31:09Z</time>
      </trkpt>
      <trkpt lat="45.98815" lon="4.77523">
        <ele>217</ele>
        <time>2016-10-08T09:31:10Z</time>
      </trkpt>
      <trkpt lat="45.98821" lon="4.77513">
        <ele>216</ele>
        <time>2016-10-08T09:31:11Z</time>
      </trkpt>
      <trkpt lat="45.98825" lon="4.77501">
        <ele>216</ele>
        <time>2016-10-08T09:31:12Z</time>
      </trkpt>
      <trkpt lat="45.98828" lon="4.7749">
        <ele>214</ele>
        <time>2016-10-08T09:31:13Z</time>
      </trkpt>
      <trkpt lat="45.98832" lon="4.77479">
        <ele>213</ele>
        <time>2016-10-08T09:31:14Z</time>
      </trkpt>
      <trkpt lat="45.98837" lon="4.77468">
        <ele>210</ele>
        <time>2016-10-08T09:31:15Z</time>
      </trkpt>
      <trkpt lat="45.98842" lon="4.7746">
        <ele>210</ele>
        <time>2016-10-08T09:31:16Z</time>
      </trkpt>
      <trkpt lat="45.9885" lon="4.77456">
        <ele>209</ele>
        <time>2016-10-08T09:31:17Z</time>
      </trkpt>
      <trkpt lat="45.98858" lon="4.77455">
        <ele>209</ele>
        <time>2016-10-08T09:31:18Z</time>
      </trkpt>
      <trkpt lat="45.98867" lon="4.77452">
        <ele>209</ele>
        <time>2016-10-08T09:31:19Z</time>
      </trkpt>
      <trkpt lat="45.98876" lon="4.77448">
        <ele>208</ele>
        <time>2016-10-08T09:31:20Z</time>
      </trkpt>
      <trkpt lat="45.98885" lon="4.77444">
        <ele>208</ele>
        <time>2016-10-08T09:31:21Z</time>
      </trkpt>
      <trkpt lat="45.98895" lon="4.7744">
        <ele>208</ele>
        <time>2016-10-08T09:31:22Z</time>
      </trkpt>
      <trkpt lat="45.98904" lon="4.77435">
        <ele>207</ele>
        <time>2016-10-08T09:31:23Z</time>
      </trkpt>
      <trkpt lat="45.98914" lon="4.77431">
        <ele>207</ele>
        <time>2016-10-08T09:31:24Z</time>
      </trkpt>
      <trkpt lat="45.98923" lon="4.77426">
        <ele>205</ele>
        <time>2016-10-08T09:31:25Z</time>
      </trkpt>
      <trkpt lat="45.98932" lon="4.77423">
        <ele>205</ele>
        <time>2016-10-08T09:31:26Z</time>
      </trkpt>
      <trkpt lat="45.98942" lon="4.77418">
        <ele>205</ele>
        <time>2016-10-08T09:31:27Z</time>
      </trkpt>
      <trkpt lat="45.98951" lon="4.77414">
        <ele>203</ele>
        <time>2016-10-08T09:31:28Z</time>
      </trkpt>
      <trkpt lat="45.98959" lon="4.7741">
        <ele>203</ele>
        <time>2016-10-08T09:31:29Z</time>
      </trkpt>
      <trkpt lat="45.98966" lon="4.77406">
        <ele>202</ele>
        <time>2016-10-08T09:31:30Z</time>
      </trkpt>
      <trkpt lat="45.98973" lon="4.77404">
        <ele>202</ele>
        <time>2016-10-08T09:31:31Z</time>
      </trkpt>
      <trkpt lat="45.98978" lon="4.77402">
        <ele>202</ele>
        <time>2016-10-08T09:31:32Z</time>
      </trkpt>
      <trkpt lat="45.98982" lon="4.774">
        <ele>202</ele>
        <time>2016-10-08T09:31:33Z</time>
      </trkpt>
      <trkpt lat="45.98986" lon="4.77398">
        <ele>202</ele>
        <time>2016-10-08T09:31:34Z</time>
      </trkpt>
      <trkpt lat="45.9899" lon="4.77395">
        <ele>202</ele>
        <time>2016-10-08T09:31:35Z</time>
      </trkpt>
      <trkpt lat="45.98995" lon="4.77392">
        <ele>202</ele>
        <time>2016-10-08T09:31:36Z</time>
      </trkpt>
      <trkpt lat="45.99" lon="4.77389">
        <ele>201</ele>
        <time>2016-10-08T09:31:37Z</time>
      </trkpt>
      <trkpt lat="45.99006" lon="4.77387">
        <ele>201</ele>
        <time>2016-10-08T09:31:38Z</time>
      </trkpt>
      <trkpt lat="45.99014" lon="4.77386">
        <ele>201</ele>
        <time>2016-10-08T09:31:40Z</time>
      </trkpt>
      <trkpt lat="45.99019" lon="4.77385">
        <ele>201</ele>
        <time>2016-10-08T09:31:41Z</time>
      </trkpt>
      <trkpt lat="45.99024" lon="4.77384">
        <ele>201</ele>
        <time>2016-10-08T09:31:42Z</time>
      </trkpt>
      <trkpt lat="45.99029" lon="4.77381">
        <ele>201</ele>
        <time>2016-10-08T09:31:43Z</time>
      </trkpt>
      <trkpt lat="45.99035" lon="4.77377">
        <ele>201</ele>
        <time>2016-10-08T09:31:44Z</time>
      </trkpt>
      <trkpt lat="45.99041" lon="4.77373">
        <ele>200</ele>
        <time>2016-10-08T09:31:45Z</time>
      </trkpt>
      <trkpt lat="45.99046" lon="4.77373">
        <ele>200</ele>
        <time>2016-10-08T09:31:46Z</time>
      </trkpt>
      <trkpt lat="45.99052" lon="4.7737">
        <ele>200</ele>
        <time>2016-10-08T09:31:47Z</time>
      </trkpt>
      <trkpt lat="45.99058" lon="4.77369">
        <ele>200</ele>
        <time>2016-10-08T09:31:48Z</time>
      </trkpt>
      <trkpt lat="45.99065" lon="4.77368">
        <ele>200</ele>
        <time>2016-10-08T09:31:49Z</time>
      </trkpt>
      <trkpt lat="45.99072" lon="4.77368">
        <ele>200</ele>
        <time>2016-10-08T09:31:50Z</time>
      </trkpt>
      <trkpt lat="45.99078" lon="4.77367">
        <ele>200</ele>
        <time>2016-10-08T09:31:51Z</time>
      </trkpt>
      <trkpt lat="45.99083" lon="4.77365">
        <ele>200</ele>
        <time>2016-10-08T09:31:52Z</time>
      </trkpt>
      <trkpt lat="45.99087" lon="4.77362">
        <ele>201</ele>
        <time>2016-10-08T09:31:53Z</time>
      </trkpt>
      <trkpt lat="45.99092" lon="4.77363">
        <ele>201</ele>
        <time>2016-10-08T09:31:54Z</time>
      </trkpt>
      <trkpt lat="45.99097" lon="4.77363">
        <ele>201</ele>
        <time>2016-10-08T09:31:55Z</time>
      </trkpt>
      <trkpt lat="45.99102" lon="4.77364">
        <ele>201</ele>
        <time>2016-10-08T09:31:56Z</time>
      </trkpt>
      <trkpt lat="45.99106" lon="4.77363">
        <ele>201</ele>
        <time>2016-10-08T09:31:57Z</time>
      </trkpt>
      <trkpt lat="45.99111" lon="4.77362">
        <ele>201</ele>
        <time>2016-10-08T09:31:58Z</time>
      </trkpt>
      <trkpt lat="45.99116" lon="4.77363">
        <ele>201</ele>
        <time>2016-10-08T09:31:59Z</time>
      </trkpt>
      <trkpt lat="45.99123" lon="4.77356">
        <ele>201</ele>
        <time>2016-10-08T09:32:01Z</time>
      </trkpt>
      <trkpt lat="45.99128" lon="4.77353">
        <ele>201</ele>
        <time>2016-10-08T09:32:02Z</time>
      </trkpt>
      <trkpt lat="45.99133" lon="4.77352">
        <ele>201</ele>
        <time>2016-10-08T09:32:03Z</time>
      </trkpt>
      <trkpt lat="45.99137" lon="4.7735">
        <ele>201</ele>
        <time>2016-10-08T09:32:04Z</time>
      </trkpt>
      <trkpt lat="45.99144" lon="4.77346">
        <ele>201</ele>
        <time>2016-10-08T09:32:06Z</time>
      </trkpt>
      <trkpt lat="45.99148" lon="4.77346">
        <ele>201</ele>
        <time>2016-10-08T09:32:07Z</time>
      </trkpt>
      <trkpt lat="45.99155" lon="4.77343">
        <ele>201</ele>
        <time>2016-10-08T09:32:10Z</time>
      </trkpt>
      <trkpt lat="45.99157" lon="4.7734">
        <ele>201</ele>
        <time>2016-10-08T09:32:11Z</time>
      </trkpt>
      <trkpt lat="45.99158" lon="4.77332">
        <ele>201</ele>
        <time>2016-10-08T09:32:13Z</time>
      </trkpt>
      <trkpt lat="45.99157" lon="4.77326">
        <ele>201</ele>
        <time>2016-10-08T09:32:14Z</time>
      </trkpt>
      <trkpt lat="45.99157" lon="4.7732">
        <ele>201</ele>
        <time>2016-10-08T09:32:15Z</time>
      </trkpt>
      <trkpt lat="45.99157" lon="4.77313">
        <ele>200</ele>
        <time>2016-10-08T09:32:16Z</time>
      </trkpt>
      <trkpt lat="45.99158" lon="4.77306">
        <ele>200</ele>
        <time>2016-10-08T09:32:17Z</time>
      </trkpt>
      <trkpt lat="45.99155" lon="4.77298">
        <ele>200</ele>
        <time>2016-10-08T09:32:18Z</time>
      </trkpt>
      <trkpt lat="45.99154" lon="4.7729">
        <ele>200</ele>
        <time>2016-10-08T09:32:19Z</time>
      </trkpt>
      <trkpt lat="45.99154" lon="4.77283">
        <ele>200</ele>
        <time>2016-10-08T09:32:20Z</time>
      </trkpt>
      <trkpt lat="45.99155" lon="4.77275">
        <ele>200</ele>
        <time>2016-10-08T09:32:21Z</time>
      </trkpt>
      <trkpt lat="45.99156" lon="4.77268">
        <ele>200</ele>
        <time>2016-10-08T09:32:22Z</time>
      </trkpt>
      <trkpt lat="45.99157" lon="4.77261">
        <ele>200</ele>
        <time>2016-10-08T09:32:23Z</time>
      </trkpt>
      <trkpt lat="45.99157" lon="4.77254">
        <ele>200</ele>
        <time>2016-10-08T09:32:24Z</time>
      </trkpt>
      <trkpt lat="45.99158" lon="4.77248">
        <ele>200</ele>
        <time>2016-10-08T09:32:25Z</time>
      </trkpt>
      <trkpt lat="45.99158" lon="4.7724">
        <ele>200</ele>
        <time>2016-10-08T09:32:26Z</time>
      </trkpt>
      <trkpt lat="45.99159" lon="4.77233">
        <ele>200</ele>
        <time>2016-10-08T09:32:27Z</time>
      </trkpt>
      <trkpt lat="45.99159" lon="4.77225">
        <ele>200</ele>
        <time>2016-10-08T09:32:28Z</time>
      </trkpt>
      <trkpt lat="45.99159" lon="4.77217">
        <ele>200</ele>
        <time>2016-10-08T09:32:29Z</time>
      </trkpt>
      <trkpt lat="45.99158" lon="4.77209">
        <ele>200</ele>
        <time>2016-10-08T09:32:30Z</time>
      </trkpt>
      <trkpt lat="45.99156" lon="4.77201">
        <ele>200</ele>
        <time>2016-10-08T09:32:31Z</time>
      </trkpt>
      <trkpt lat="45.99156" lon="4.77193">
        <ele>200</ele>
        <time>2016-10-08T09:32:32Z</time>
      </trkpt>
      <trkpt lat="45.99153" lon="4.77185">
        <ele>200</ele>
        <time>2016-10-08T09:32:33Z</time>
      </trkpt>
      <trkpt lat="45.9915" lon="4.77177">
        <ele>200</ele>
        <time>2016-10-08T09:32:34Z</time>
      </trkpt>
      <trkpt lat="45.99149" lon="4.77169">
        <ele>200</ele>
        <time>2016-10-08T09:32:35Z</time>
      </trkpt>
      <trkpt lat="45.99147" lon="4.77161">
        <ele>201</ele>
        <time>2016-10-08T09:32:36Z</time>
      </trkpt>
      <trkpt lat="45.99145" lon="4.77154">
        <ele>201</ele>
        <time>2016-10-08T09:32:37Z</time>
      </trkpt>
      <trkpt lat="45.99143" lon="4.77147">
        <ele>201</ele>
        <time>2016-10-08T09:32:38Z</time>
      </trkpt>
      <trkpt lat="45.99141" lon="4.77139">
        <ele>201</ele>
        <time>2016-10-08T09:32:39Z</time>
      </trkpt>
      <trkpt lat="45.99139" lon="4.77131">
        <ele>201</ele>
        <time>2016-10-08T09:32:40Z</time>
      </trkpt>
      <trkpt lat="45.99137" lon="4.77123">
        <ele>201</ele>
        <time>2016-10-08T09:32:41Z</time>
      </trkpt>
      <trkpt lat="45.99135" lon="4.77115">
        <ele>201</ele>
        <time>2016-10-08T09:32:42Z</time>
      </trkpt>
      <trkpt lat="45.99132" lon="4.77107">
        <ele>201</ele>
        <time>2016-10-08T09:32:43Z</time>
      </trkpt>
      <trkpt lat="45.9913" lon="4.77099">
        <ele>201</ele>
        <time>2016-10-08T09:32:44Z</time>
      </trkpt>
      <trkpt lat="45.99127" lon="4.77091">
        <ele>201</ele>
        <time>2016-10-08T09:32:45Z</time>
      </trkpt>
      <trkpt lat="45.99125" lon="4.77083">
        <ele>202</ele>
        <time>2016-10-08T09:32:46Z</time>
      </trkpt>
      <trkpt lat="45.99122" lon="4.77075">
        <ele>202</ele>
        <time>2016-10-08T09:32:47Z</time>
      </trkpt>
      <trkpt lat="45.99121" lon="4.77067">
        <ele>202</ele>
        <time>2016-10-08T09:32:48Z</time>
      </trkpt>
      <trkpt lat="45.99119" lon="4.77059">
        <ele>202</ele>
        <time>2016-10-08T09:32:49Z</time>
      </trkpt>
      <trkpt lat="45.99116" lon="4.77051">
        <ele>202</ele>
        <time>2016-10-08T09:32:50Z</time>
      </trkpt>
      <trkpt lat="45.99111" lon="4.77043">
        <ele>202</ele>
        <time>2016-10-08T09:32:51Z</time>
      </trkpt>
      <trkpt lat="45.99108" lon="4.77035">
        <ele>202</ele>
        <time>2016-10-08T09:32:52Z</time>
      </trkpt>
      <trkpt lat="45.99106" lon="4.77028">
        <ele>202</ele>
        <time>2016-10-08T09:32:53Z</time>
      </trkpt>
      <trkpt lat="45.99104" lon="4.77021">
        <ele>202</ele>
        <time>2016-10-08T09:32:54Z</time>
      </trkpt>
      <trkpt lat="45.99101" lon="4.77014">
        <ele>201</ele>
        <time>2016-10-08T09:32:55Z</time>
      </trkpt>
      <trkpt lat="45.99098" lon="4.77007">
        <ele>201</ele>
        <time>2016-10-08T09:32:56Z</time>
      </trkpt>
      <trkpt lat="45.99095" lon="4.77001">
        <ele>200</ele>
        <time>2016-10-08T09:32:57Z</time>
      </trkpt>
      <trkpt lat="45.99091" lon="4.76994">
        <ele>201</ele>
        <time>2016-10-08T09:32:58Z</time>
      </trkpt>
      <trkpt lat="45.99088" lon="4.76987">
        <ele>201</ele>
        <time>2016-10-08T09:32:59Z</time>
      </trkpt>
      <trkpt lat="45.99084" lon="4.7698">
        <ele>202</ele>
        <time>2016-10-08T09:33:00Z</time>
      </trkpt>
      <trkpt lat="45.9908" lon="4.76973">
        <ele>198</ele>
        <time>2016-10-08T09:33:01Z</time>
      </trkpt>
      <trkpt lat="45.99077" lon="4.76965">
        <ele>198</ele>
        <time>2016-10-08T09:33:02Z</time>
      </trkpt>
      <trkpt lat="45.99074" lon="4.76958">
        <ele>198</ele>
        <time>2016-10-08T09:33:03Z</time>
      </trkpt>
      <trkpt lat="45.99071" lon="4.7695">
        <ele>198</ele>
        <time>2016-10-08T09:33:04Z</time>
      </trkpt>
      <trkpt lat="45.99068" lon="4.76944">
        <ele>198</ele>
        <time>2016-10-08T09:33:05Z</time>
      </trkpt>
      <trkpt lat="45.99065" lon="4.76938">
        <ele>198</ele>
        <time>2016-10-08T09:33:06Z</time>
      </trkpt>
      <trkpt lat="45.99062" lon="4.76932">
        <ele>198</ele>
        <time>2016-10-08T09:33:07Z</time>
      </trkpt>
      <trkpt lat="45.9906" lon="4.76926">
        <ele>198</ele>
        <time>2016-10-08T09:33:08Z</time>
      </trkpt>
      <trkpt lat="45.99057" lon="4.76919">
        <ele>198</ele>
        <time>2016-10-08T09:33:09Z</time>
      </trkpt>
      <trkpt lat="45.99053" lon="4.76912">
        <ele>199</ele>
        <time>2016-10-08T09:33:10Z</time>
      </trkpt>
      <trkpt lat="45.99049" lon="4.76905">
        <ele>199</ele>
        <time>2016-10-08T09:33:11Z</time>
      </trkpt>
      <trkpt lat="45.99045" lon="4.76898">
        <ele>199</ele>
        <time>2016-10-08T09:33:12Z</time>
      </trkpt>
      <trkpt lat="45.99041" lon="4.7689">
        <ele>199</ele>
        <time>2016-10-08T09:33:13Z</time>
      </trkpt>
      <trkpt lat="45.99038" lon="4.76883">
        <ele>199</ele>
        <time>2016-10-08T09:33:14Z</time>
      </trkpt>
      <trkpt lat="45.99034" lon="4.76876">
        <ele>199</ele>
        <time>2016-10-08T09:33:15Z</time>
      </trkpt>
      <trkpt lat="45.99031" lon="4.76869">
        <ele>199</ele>
        <time>2016-10-08T09:33:16Z</time>
      </trkpt>
      <trkpt lat="45.99028" lon="4.76862">
        <ele>199</ele>
        <time>2016-10-08T09:33:17Z</time>
      </trkpt>
      <trkpt lat="45.99024" lon="4.76855">
        <ele>199</ele>
        <time>2016-10-08T09:33:18Z</time>
      </trkpt>
      <trkpt lat="45.99021" lon="4.76848">
        <ele>199</ele>
        <time>2016-10-08T09:33:19Z</time>
      </trkpt>
      <trkpt lat="45.99018" lon="4.76841">
        <ele>199</ele>
        <time>2016-10-08T09:33:20Z</time>
      </trkpt>
      <trkpt lat="45.99014" lon="4.76835">
        <ele>199</ele>
        <time>2016-10-08T09:33:21Z</time>
      </trkpt>
      <trkpt lat="45.9901" lon="4.76828">
        <ele>200</ele>
        <time>2016-10-08T09:33:22Z</time>
      </trkpt>
      <trkpt lat="45.99007" lon="4.76821">
        <ele>200</ele>
        <time>2016-10-08T09:33:23Z</time>
      </trkpt>
      <trkpt lat="45.99004" lon="4.76814">
        <ele>200</ele>
        <time>2016-10-08T09:33:24Z</time>
      </trkpt>
      <trkpt lat="45.99001" lon="4.76807">
        <ele>201</ele>
        <time>2016-10-08T09:33:25Z</time>
      </trkpt>
      <trkpt lat="45.98998" lon="4.768">
        <ele>197</ele>
        <time>2016-10-08T09:33:26Z</time>
      </trkpt>
      <trkpt lat="45.98996" lon="4.76793">
        <ele>197</ele>
        <time>2016-10-08T09:33:27Z</time>
      </trkpt>
      <trkpt lat="45.98993" lon="4.76786">
        <ele>197</ele>
        <time>2016-10-08T09:33:28Z</time>
      </trkpt>
      <trkpt lat="45.9899" lon="4.76779">
        <ele>197</ele>
        <time>2016-10-08T09:33:29Z</time>
      </trkpt>
      <trkpt lat="45.98987" lon="4.76772">
        <ele>197</ele>
        <time>2016-10-08T09:33:30Z</time>
      </trkpt>
      <trkpt lat="45.98984" lon="4.76765">
        <ele>197</ele>
        <time>2016-10-08T09:33:31Z</time>
      </trkpt>
      <trkpt lat="45.9898" lon="4.76759">
        <ele>197</ele>
        <time>2016-10-08T09:33:32Z</time>
      </trkpt>
      <trkpt lat="45.98976" lon="4.76754">
        <ele>197</ele>
        <time>2016-10-08T09:33:33Z</time>
      </trkpt>
      <trkpt lat="45.98971" lon="4.76748">
        <ele>198</ele>
        <time>2016-10-08T09:33:34Z</time>
      </trkpt>
      <trkpt lat="45.98967" lon="4.76744">
        <ele>198</ele>
        <time>2016-10-08T09:33:35Z</time>
      </trkpt>
      <trkpt lat="45.98962" lon="4.76739">
        <ele>198</ele>
        <time>2016-10-08T09:33:36Z</time>
      </trkpt>
      <trkpt lat="45.98957" lon="4.76735">
        <ele>198</ele>
        <time>2016-10-08T09:33:37Z</time>
      </trkpt>
      <trkpt lat="45.98952" lon="4.7673">
        <ele>198</ele>
        <time>2016-10-08T09:33:38Z</time>
      </trkpt>
      <trkpt lat="45.98947" lon="4.76725">
        <ele>198</ele>
        <time>2016-10-08T09:33:39Z</time>
      </trkpt>
      <trkpt lat="45.98942" lon="4.7672">
        <ele>198</ele>
        <time>2016-10-08T09:33:40Z</time>
      </trkpt>
      <trkpt lat="45.98937" lon="4.76715">
        <ele>198</ele>
        <time>2016-10-08T09:33:41Z</time>
      </trkpt>
      <trkpt lat="45.98931" lon="4.76711">
        <ele>198</ele>
        <time>2016-10-08T09:33:42Z</time>
      </trkpt>
      <trkpt lat="45.98926" lon="4.76705">
        <ele>198</ele>
        <time>2016-10-08T09:33:43Z</time>
      </trkpt>
      <trkpt lat="45.98921" lon="4.767">
        <ele>198</ele>
        <time>2016-10-08T09:33:44Z</time>
      </trkpt>
      <trkpt lat="45.98915" lon="4.76695">
        <ele>194</ele>
        <time>2016-10-08T09:33:45Z</time>
      </trkpt>
      <trkpt lat="45.9891" lon="4.7669">
        <ele>195</ele>
        <time>2016-10-08T09:33:46Z</time>
      </trkpt>
      <trkpt lat="45.98905" lon="4.76685">
        <ele>195</ele>
        <time>2016-10-08T09:33:47Z</time>
      </trkpt>
      <trkpt lat="45.989" lon="4.7668">
        <ele>195</ele>
        <time>2016-10-08T09:33:48Z</time>
      </trkpt>
      <trkpt lat="45.98896" lon="4.76675">
        <ele>195</ele>
        <time>2016-10-08T09:33:49Z</time>
      </trkpt>
      <trkpt lat="45.98891" lon="4.76669">
        <ele>194</ele>
        <time>2016-10-08T09:33:50Z</time>
      </trkpt>
      <trkpt lat="45.98885" lon="4.76664">
        <ele>196</ele>
        <time>2016-10-08T09:33:51Z</time>
      </trkpt>
      <trkpt lat="45.9888" lon="4.76659">
        <ele>196</ele>
        <time>2016-10-08T09:33:52Z</time>
      </trkpt>
      <trkpt lat="45.98874" lon="4.76654">
        <ele>196</ele>
        <time>2016-10-08T09:33:53Z</time>
      </trkpt>
      <trkpt lat="45.98869" lon="4.76648">
        <ele>196</ele>
        <time>2016-10-08T09:33:54Z</time>
      </trkpt>
      <trkpt lat="45.98864" lon="4.76642">
        <ele>196</ele>
        <time>2016-10-08T09:33:55Z</time>
      </trkpt>
      <trkpt lat="45.98858" lon="4.76636">
        <ele>196</ele>
        <time>2016-10-08T09:33:56Z</time>
      </trkpt>
      <trkpt lat="45.98853" lon="4.7663">
        <ele>196</ele>
        <time>2016-10-08T09:33:57Z</time>
      </trkpt>
      <trkpt lat="45.98848" lon="4.76625">
        <ele>196</ele>
        <time>2016-10-08T09:33:58Z</time>
      </trkpt>
      <trkpt lat="45.98842" lon="4.76619">
        <ele>196</ele>
        <time>2016-10-08T09:33:59Z</time>
      </trkpt>
      <trkpt lat="45.98836" lon="4.76614">
        <ele>196</ele>
        <time>2016-10-08T09:34:00Z</time>
      </trkpt>
      <trkpt lat="45.98831" lon="4.76608">
        <ele>193</ele>
        <time>2016-10-08T09:34:01Z</time>
      </trkpt>
      <trkpt lat="45.98825" lon="4.76602">
        <ele>193</ele>
        <time>2016-10-08T09:34:02Z</time>
      </trkpt>
      <trkpt lat="45.98819" lon="4.76594">
        <ele>193</ele>
        <time>2016-10-08T09:34:03Z</time>
      </trkpt>
      <trkpt lat="45.98814" lon="4.76588">
        <ele>193</ele>
        <time>2016-10-08T09:34:04Z</time>
      </trkpt>
      <trkpt lat="45.98808" lon="4.76582">
        <ele>193</ele>
        <time>2016-10-08T09:34:05Z</time>
      </trkpt>
      <trkpt lat="45.98803" lon="4.76577">
        <ele>192</ele>
        <time>2016-10-08T09:34:06Z</time>
      </trkpt>
      <trkpt lat="45.98796" lon="4.7657">
        <ele>192</ele>
        <time>2016-10-08T09:34:07Z</time>
      </trkpt>
      <trkpt lat="45.98791" lon="4.76564">
        <ele>192</ele>
        <time>2016-10-08T09:34:08Z</time>
      </trkpt>
      <trkpt lat="45.98784" lon="4.76557">
        <ele>191</ele>
        <time>2016-10-08T09:34:09Z</time>
      </trkpt>
      <trkpt lat="45.98778" lon="4.7655">
        <ele>191</ele>
        <time>2016-10-08T09:34:10Z</time>
      </trkpt>
      <trkpt lat="45.98771" lon="4.76543">
        <ele>191</ele>
        <time>2016-10-08T09:34:11Z</time>
      </trkpt>
      <trkpt lat="45.98764" lon="4.76536">
        <ele>191</ele>
        <time>2016-10-08T09:34:12Z</time>
      </trkpt>
      <trkpt lat="45.98758" lon="4.76529">
        <ele>190</ele>
        <time>2016-10-08T09:34:13Z</time>
      </trkpt>
      <trkpt lat="45.98751" lon="4.76522">
        <ele>190</ele>
        <time>2016-10-08T09:34:14Z</time>
      </trkpt>
      <trkpt lat="45.98744" lon="4.76516">
        <ele>188</ele>
        <time>2016-10-08T09:34:15Z</time>
      </trkpt>
      <trkpt lat="45.98737" lon="4.7651">
        <ele>188</ele>
        <time>2016-10-08T09:34:16Z</time>
      </trkpt>
      <trkpt lat="45.98731" lon="4.76503">
        <ele>188</ele>
        <time>2016-10-08T09:34:17Z</time>
      </trkpt>
      <trkpt lat="45.98724" lon="4.76497">
        <ele>188</ele>
        <time>2016-10-08T09:34:18Z</time>
      </trkpt>
      <trkpt lat="45.98718" lon="4.76491">
        <ele>187</ele>
        <time>2016-10-08T09:34:19Z</time>
      </trkpt>
      <trkpt lat="45.98712" lon="4.76485">
        <ele>187</ele>
        <time>2016-10-08T09:34:20Z</time>
      </trkpt>
      <trkpt lat="45.98706" lon="4.7648">
        <ele>187</ele>
        <time>2016-10-08T09:34:21Z</time>
      </trkpt>
      <trkpt lat="45.987" lon="4.76474">
        <ele>187</ele>
        <time>2016-10-08T09:34:22Z</time>
      </trkpt>
      <trkpt lat="45.98693" lon="4.76468">
        <ele>187</ele>
        <time>2016-10-08T09:34:23Z</time>
      </trkpt>
      <trkpt lat="45.98688" lon="4.76463">
        <ele>187</ele>
        <time>2016-10-08T09:34:24Z</time>
      </trkpt>
      <trkpt lat="45.98682" lon="4.76458">
        <ele>187</ele>
        <time>2016-10-08T09:34:25Z</time>
      </trkpt>
      <trkpt lat="45.98677" lon="4.76453">
        <ele>187</ele>
        <time>2016-10-08T09:34:26Z</time>
      </trkpt>
      <trkpt lat="45.98672" lon="4.76448">
        <ele>187</ele>
        <time>2016-10-08T09:34:27Z</time>
      </trkpt>
      <trkpt lat="45.98667" lon="4.76443">
        <ele>187</ele>
        <time>2016-10-08T09:34:28Z</time>
      </trkpt>
      <trkpt lat="45.98662" lon="4.7644">
        <ele>188</ele>
        <time>2016-10-08T09:34:29Z</time>
      </trkpt>
      <trkpt lat="45.98656" lon="4.76437">
        <ele>188</ele>
        <time>2016-10-08T09:34:30Z</time>
      </trkpt>
      <trkpt lat="45.98651" lon="4.76434">
        <ele>188</ele>
        <time>2016-10-08T09:34:31Z</time>
      </trkpt>
      <trkpt lat="45.98647" lon="4.76431">
        <ele>188</ele>
        <time>2016-10-08T09:34:32Z</time>
      </trkpt>
      <trkpt lat="45.98643" lon="4.76426">
        <ele>188</ele>
        <time>2016-10-08T09:34:33Z</time>
      </trkpt>
      <trkpt lat="45.98639" lon="4.76422">
        <ele>188</ele>
        <time>2016-10-08T09:34:34Z</time>
      </trkpt>
      <trkpt lat="45.98634" lon="4.76416">
        <ele>188</ele>
        <time>2016-10-08T09:34:35Z</time>
      </trkpt>
      <trkpt lat="45.98631" lon="4.76411">
        <ele>188</ele>
        <time>2016-10-08T09:34:36Z</time>
      </trkpt>
      <trkpt lat="45.98627" lon="4.76407">
        <ele>188</ele>
        <time>2016-10-08T09:34:37Z</time>
      </trkpt>
      <trkpt lat="45.98624" lon="4.76401">
        <ele>188</ele>
        <time>2016-10-08T09:34:38Z</time>
      </trkpt>
      <trkpt lat="45.98621" lon="4.76393">
        <ele>188</ele>
        <time>2016-10-08T09:34:39Z</time>
      </trkpt>
      <trkpt lat="45.9862" lon="4.76385">
        <ele>188</ele>
        <time>2016-10-08T09:34:40Z</time>
      </trkpt>
      <trkpt lat="45.98618" lon="4.76376">
        <ele>188</ele>
        <time>2016-10-08T09:34:41Z</time>
      </trkpt>
      <trkpt lat="45.98617" lon="4.76368">
        <ele>188</ele>
        <time>2016-10-08T09:34:42Z</time>
      </trkpt>
      <trkpt lat="45.98615" lon="4.76359">
        <ele>188</ele>
        <time>2016-10-08T09:34:43Z</time>
      </trkpt>
      <trkpt lat="45.98616" lon="4.76351">
        <ele>188</ele>
        <time>2016-10-08T09:34:44Z</time>
      </trkpt>
      <trkpt lat="45.98615" lon="4.76342">
        <ele>188</ele>
        <time>2016-10-08T09:34:45Z</time>
      </trkpt>
      <trkpt lat="45.98613" lon="4.76334">
        <ele>188</ele>
        <time>2016-10-08T09:34:46Z</time>
      </trkpt>
      <trkpt lat="45.98611" lon="4.76326">
        <ele>187</ele>
        <time>2016-10-08T09:34:47Z</time>
      </trkpt>
      <trkpt lat="45.98609" lon="4.76318">
        <ele>187</ele>
        <time>2016-10-08T09:34:48Z</time>
      </trkpt>
      <trkpt lat="45.98607" lon="4.7631">
        <ele>187</ele>
        <time>2016-10-08T09:34:49Z</time>
      </trkpt>
      <trkpt lat="45.98606" lon="4.76301">
        <ele>187</ele>
        <time>2016-10-08T09:34:50Z</time>
      </trkpt>
      <trkpt lat="45.98606" lon="4.76292">
        <ele>187</ele>
        <time>2016-10-08T09:34:51Z</time>
      </trkpt>
      <trkpt lat="45.98607" lon="4.76283">
        <ele>187</ele>
        <time>2016-10-08T09:34:52Z</time>
      </trkpt>
      <trkpt lat="45.98607" lon="4.76274">
        <ele>187</ele>
        <time>2016-10-08T09:34:53Z</time>
      </trkpt>
      <trkpt lat="45.98607" lon="4.76264">
        <ele>187</ele>
        <time>2016-10-08T09:34:54Z</time>
      </trkpt>
      <trkpt lat="45.98607" lon="4.76255">
        <ele>187</ele>
        <time>2016-10-08T09:34:55Z</time>
      </trkpt>
      <trkpt lat="45.98607" lon="4.76247">
        <ele>187</ele>
        <time>2016-10-08T09:34:56Z</time>
      </trkpt>
      <trkpt lat="45.98607" lon="4.76239">
        <ele>187</ele>
        <time>2016-10-08T09:34:57Z</time>
      </trkpt>
      <trkpt lat="45.98608" lon="4.76233">
        <ele>187</ele>
        <time>2016-10-08T09:34:58Z</time>
      </trkpt>
      <trkpt lat="45.98613" lon="4.76228">
        <ele>187</ele>
        <time>2016-10-08T09:34:59Z</time>
      </trkpt>
      <trkpt lat="45.98615" lon="4.76224">
        <ele>186</ele>
        <time>2016-10-08T09:35:00Z</time>
      </trkpt>
      <trkpt lat="45.98623" lon="4.76225">
        <ele>186</ele>
        <time>2016-10-08T09:35:01Z</time>
      </trkpt>
      <trkpt lat="45.98627" lon="4.76229">
        <ele>186</ele>
        <time>2016-10-08T09:35:02Z</time>
      </trkpt>
      <trkpt lat="45.98634" lon="4.76232">
        <ele>186</ele>
        <time>2016-10-08T09:35:04Z</time>
      </trkpt>
      <trkpt lat="45.98639" lon="4.76233">
        <ele>185</ele>
        <time>2016-10-08T09:35:05Z</time>
      </trkpt>
      <trkpt lat="45.98644" lon="4.76234">
        <ele>185</ele>
        <time>2016-10-08T09:35:06Z</time>
      </trkpt>
      <trkpt lat="45.9865" lon="4.76235">
        <ele>185</ele>
        <time>2016-10-08T09:35:07Z</time>
      </trkpt>
      <trkpt lat="45.98656" lon="4.76236">
        <ele>185</ele>
        <time>2016-10-08T09:35:08Z</time>
      </trkpt>
      <trkpt lat="45.98663" lon="4.76237">
        <ele>184</ele>
        <time>2016-10-08T09:35:09Z</time>
      </trkpt>
      <trkpt lat="45.9867" lon="4.76239">
        <ele>183</ele>
        <time>2016-10-08T09:35:10Z</time>
      </trkpt>
      <trkpt lat="45.98676" lon="4.76241">
        <ele>184</ele>
        <time>2016-10-08T09:35:11Z</time>
      </trkpt>
      <trkpt lat="45.98681" lon="4.76241">
        <ele>184</ele>
        <time>2016-10-08T09:35:12Z</time>
      </trkpt>
      <trkpt lat="45.98686" lon="4.76241">
        <ele>184</ele>
        <time>2016-10-08T09:35:13Z</time>
      </trkpt>
      <trkpt lat="45.9869" lon="4.76236">
        <ele>184</ele>
        <time>2016-10-08T09:35:14Z</time>
      </trkpt>
      <trkpt lat="45.98695" lon="4.76233">
        <ele>184</ele>
        <time>2016-10-08T09:35:15Z</time>
      </trkpt>
      <trkpt lat="45.98699" lon="4.7623">
        <ele>184</ele>
        <time>2016-10-08T09:35:16Z</time>
      </trkpt>
      <trkpt lat="45.98703" lon="4.76225">
        <ele>184</ele>
        <time>2016-10-08T09:35:17Z</time>
      </trkpt>
      <trkpt lat="45.98706" lon="4.76219">
        <ele>184</ele>
        <time>2016-10-08T09:35:18Z</time>
      </trkpt>
      <trkpt lat="45.98708" lon="4.76213">
        <ele>184</ele>
        <time>2016-10-08T09:35:19Z</time>
      </trkpt>
      <trkpt lat="45.98709" lon="4.76205">
        <ele>184</ele>
        <time>2016-10-08T09:35:20Z</time>
      </trkpt>
      <trkpt lat="45.98711" lon="4.76197">
        <ele>184</ele>
        <time>2016-10-08T09:35:21Z</time>
      </trkpt>
      <trkpt lat="45.98713" lon="4.76189">
        <ele>184</ele>
        <time>2016-10-08T09:35:22Z</time>
      </trkpt>
      <trkpt lat="45.98713" lon="4.76179">
        <ele>184</ele>
        <time>2016-10-08T09:35:23Z</time>
      </trkpt>
      <trkpt lat="45.98713" lon="4.7617">
        <ele>184</ele>
        <time>2016-10-08T09:35:24Z</time>
      </trkpt>
      <trkpt lat="45.98714" lon="4.76162">
        <ele>184</ele>
        <time>2016-10-08T09:35:25Z</time>
      </trkpt>
      <trkpt lat="45.98715" lon="4.76153">
        <ele>183</ele>
        <time>2016-10-08T09:35:26Z</time>
      </trkpt>
      <trkpt lat="45.98716" lon="4.76145">
        <ele>183</ele>
        <time>2016-10-08T09:35:27Z</time>
      </trkpt>
      <trkpt lat="45.98717" lon="4.76138">
        <ele>183</ele>
        <time>2016-10-08T09:35:28Z</time>
      </trkpt>
      <trkpt lat="45.98718" lon="4.7613">
        <ele>183</ele>
        <time>2016-10-08T09:35:29Z</time>
      </trkpt>
      <trkpt lat="45.98718" lon="4.76122">
        <ele>183</ele>
        <time>2016-10-08T09:35:30Z</time>
      </trkpt>
      <trkpt lat="45.98719" lon="4.76115">
        <ele>183</ele>
        <time>2016-10-08T09:35:31Z</time>
      </trkpt>
      <trkpt lat="45.9872" lon="4.76107">
        <ele>183</ele>
        <time>2016-10-08T09:35:32Z</time>
      </trkpt>
      <trkpt lat="45.9872" lon="4.761">
        <ele>183</ele>
        <time>2016-10-08T09:35:33Z</time>
      </trkpt>
      <trkpt lat="45.98721" lon="4.76092">
        <ele>183</ele>
        <time>2016-10-08T09:35:34Z</time>
      </trkpt>
      <trkpt lat="45.98722" lon="4.76084">
        <ele>183</ele>
        <time>2016-10-08T09:35:35Z</time>
      </trkpt>
      <trkpt lat="45.98722" lon="4.76076">
        <ele>182</ele>
        <time>2016-10-08T09:35:36Z</time>
      </trkpt>
      <trkpt lat="45.98722" lon="4.76068">
        <ele>182</ele>
        <time>2016-10-08T09:35:37Z</time>
      </trkpt>
      <trkpt lat="45.98724" lon="4.7606">
        <ele>182</ele>
        <time>2016-10-08T09:35:38Z</time>
      </trkpt>
      <trkpt lat="45.98725" lon="4.76051">
        <ele>182</ele>
        <time>2016-10-08T09:35:39Z</time>
      </trkpt>
      <trkpt lat="45.98726" lon="4.76042">
        <ele>182</ele>
        <time>2016-10-08T09:35:40Z</time>
      </trkpt>
      <trkpt lat="45.98727" lon="4.76033">
        <ele>182</ele>
        <time>2016-10-08T09:35:41Z</time>
      </trkpt>
      <trkpt lat="45.98728" lon="4.76024">
        <ele>182</ele>
        <time>2016-10-08T09:35:42Z</time>
      </trkpt>
      <trkpt lat="45.98729" lon="4.76015">
        <ele>181</ele>
        <time>2016-10-08T09:35:43Z</time>
      </trkpt>
      <trkpt lat="45.98729" lon="4.76007">
        <ele>181</ele>
        <time>2016-10-08T09:35:44Z</time>
      </trkpt>
      <trkpt lat="45.9873" lon="4.75998">
        <ele>181</ele>
        <time>2016-10-08T09:35:45Z</time>
      </trkpt>
      <trkpt lat="45.98731" lon="4.7599">
        <ele>181</ele>
        <time>2016-10-08T09:35:46Z</time>
      </trkpt>
      <trkpt lat="45.98732" lon="4.75982">
        <ele>181</ele>
        <time>2016-10-08T09:35:47Z</time>
      </trkpt>
      <trkpt lat="45.98733" lon="4.75974">
        <ele>181</ele>
        <time>2016-10-08T09:35:48Z</time>
      </trkpt>
      <trkpt lat="45.98733" lon="4.75966">
        <ele>181</ele>
        <time>2016-10-08T09:35:49Z</time>
      </trkpt>
      <trkpt lat="45.98734" lon="4.75958">
        <ele>180</ele>
        <time>2016-10-08T09:35:50Z</time>
      </trkpt>
      <trkpt lat="45.98735" lon="4.7595">
        <ele>180</ele>
        <time>2016-10-08T09:35:51Z</time>
      </trkpt>
      <trkpt lat="45.98737" lon="4.75945">
        <ele>180</ele>
        <time>2016-10-08T09:35:52Z</time>
      </trkpt>
      <trkpt lat="45.98739" lon="4.75936">
        <ele>180</ele>
        <time>2016-10-08T09:35:53Z</time>
      </trkpt>
      <trkpt lat="45.98741" lon="4.75927">
        <ele>180</ele>
        <time>2016-10-08T09:35:54Z</time>
      </trkpt>
      <trkpt lat="45.98743" lon="4.75918">
        <ele>180</ele>
        <time>2016-10-08T09:35:55Z</time>
      </trkpt>
      <trkpt lat="45.98744" lon="4.75909">
        <ele>180</ele>
        <time>2016-10-08T09:35:56Z</time>
      </trkpt>
      <trkpt lat="45.98746" lon="4.759">
        <ele>179</ele>
        <time>2016-10-08T09:35:57Z</time>
      </trkpt>
      <trkpt lat="45.98747" lon="4.75891">
        <ele>179</ele>
        <time>2016-10-08T09:35:58Z</time>
      </trkpt>
      <trkpt lat="45.98748" lon="4.75882">
        <ele>179</ele>
        <time>2016-10-08T09:35:59Z</time>
      </trkpt>
      <trkpt lat="45.98749" lon="4.75873">
        <ele>179</ele>
        <time>2016-10-08T09:36:00Z</time>
      </trkpt>
      <trkpt lat="45.98751" lon="4.75865">
        <ele>180</ele>
        <time>2016-10-08T09:36:01Z</time>
      </trkpt>
      <trkpt lat="45.98752" lon="4.75856">
        <ele>179</ele>
        <time>2016-10-08T09:36:02Z</time>
      </trkpt>
      <trkpt lat="45.98752" lon="4.75847">
        <ele>179</ele>
        <time>2016-10-08T09:36:03Z</time>
      </trkpt>
      <trkpt lat="45.98753" lon="4.75837">
        <ele>178</ele>
        <time>2016-10-08T09:36:04Z</time>
      </trkpt>
      <trkpt lat="45.98754" lon="4.75829">
        <ele>178</ele>
        <time>2016-10-08T09:36:05Z</time>
      </trkpt>
      <trkpt lat="45.98756" lon="4.75821">
        <ele>179</ele>
        <time>2016-10-08T09:36:06Z</time>
      </trkpt>
      <trkpt lat="45.98757" lon="4.75813">
        <ele>179</ele>
        <time>2016-10-08T09:36:07Z</time>
      </trkpt>
      <trkpt lat="45.98759" lon="4.75806">
        <ele>179</ele>
        <time>2016-10-08T09:36:08Z</time>
      </trkpt>
      <trkpt lat="45.9876" lon="4.75798">
        <ele>179</ele>
        <time>2016-10-08T09:36:09Z</time>
      </trkpt>
      <trkpt lat="45.98761" lon="4.7579">
        <ele>179</ele>
        <time>2016-10-08T09:36:10Z</time>
      </trkpt>
      <trkpt lat="45.98762" lon="4.75782">
        <ele>179</ele>
        <time>2016-10-08T09:36:11Z</time>
      </trkpt>
      <trkpt lat="45.98764" lon="4.75775">
        <ele>179</ele>
        <time>2016-10-08T09:36:12Z</time>
      </trkpt>
      <trkpt lat="45.98765" lon="4.75767">
        <ele>179</ele>
        <time>2016-10-08T09:36:13Z</time>
      </trkpt>
      <trkpt lat="45.98766" lon="4.7576">
        <ele>179</ele>
        <time>2016-10-08T09:36:14Z</time>
      </trkpt>
      <trkpt lat="45.98768" lon="4.75752">
        <ele>179</ele>
        <time>2016-10-08T09:36:15Z</time>
      </trkpt>
      <trkpt lat="45.9877" lon="4.75746">
        <ele>178</ele>
        <time>2016-10-08T09:36:16Z</time>
      </trkpt>
      <trkpt lat="45.98774" lon="4.7574">
        <ele>178</ele>
        <time>2016-10-08T09:36:17Z</time>
      </trkpt>
      <trkpt lat="45.98778" lon="4.75735">
        <ele>178</ele>
        <time>2016-10-08T09:36:18Z</time>
      </trkpt>
      <trkpt lat="45.98783" lon="4.75731">
        <ele>178</ele>
        <time>2016-10-08T09:36:19Z</time>
      </trkpt>
      <trkpt lat="45.98787" lon="4.75729">
        <ele>178</ele>
        <time>2016-10-08T09:36:20Z</time>
      </trkpt>
      <trkpt lat="45.98793" lon="4.75728">
        <ele>179</ele>
        <time>2016-10-08T09:36:21Z</time>
      </trkpt>
      <trkpt lat="45.98798" lon="4.75728">
        <ele>179</ele>
        <time>2016-10-08T09:36:22Z</time>
      </trkpt>
      <trkpt lat="45.98804" lon="4.75727">
        <ele>179</ele>
        <time>2016-10-08T09:36:23Z</time>
      </trkpt>
      <trkpt lat="45.9881" lon="4.75726">
        <ele>179</ele>
        <time>2016-10-08T09:36:24Z</time>
      </trkpt>
      <trkpt lat="45.98816" lon="4.75726">
        <ele>179</ele>
        <time>2016-10-08T09:36:25Z</time>
      </trkpt>
      <trkpt lat="45.98823" lon="4.75725">
        <ele>179</ele>
        <time>2016-10-08T09:36:26Z</time>
      </trkpt>
      <trkpt lat="45.98829" lon="4.75725">
        <ele>179</ele>
        <time>2016-10-08T09:36:27Z</time>
      </trkpt>
      <trkpt lat="45.98835" lon="4.75725">
        <ele>180</ele>
        <time>2016-10-08T09:36:28Z</time>
      </trkpt>
      <trkpt lat="45.9884" lon="4.75724">
        <ele>180</ele>
        <time>2016-10-08T09:36:29Z</time>
      </trkpt>
      <trkpt lat="45.98846" lon="4.75723">
        <ele>180</ele>
        <time>2016-10-08T09:36:30Z</time>
      </trkpt>
      <trkpt lat="45.98851" lon="4.75722">
        <ele>180</ele>
        <time>2016-10-08T09:36:31Z</time>
      </trkpt>
      <trkpt lat="45.98857" lon="4.75722">
        <ele>180</ele>
        <time>2016-10-08T09:36:32Z</time>
      </trkpt>
      <trkpt lat="45.98863" lon="4.75721">
        <ele>180</ele>
        <time>2016-10-08T09:36:33Z</time>
      </trkpt>
      <trkpt lat="45.98868" lon="4.7572">
        <ele>180</ele>
        <time>2016-10-08T09:36:34Z</time>
      </trkpt>
      <trkpt lat="45.98874" lon="4.75718">
        <ele>180</ele>
        <time>2016-10-08T09:36:35Z</time>
      </trkpt>
      <trkpt lat="45.98879" lon="4.75715">
        <ele>180</ele>
        <time>2016-10-08T09:36:36Z</time>
      </trkpt>
      <trkpt lat="45.98885" lon="4.75712">
        <ele>180</ele>
        <time>2016-10-08T09:36:37Z</time>
      </trkpt>
      <trkpt lat="45.9889" lon="4.75709">
        <ele>180</ele>
        <time>2016-10-08T09:36:38Z</time>
      </trkpt>
      <trkpt lat="45.98896" lon="4.75706">
        <ele>180</ele>
        <time>2016-10-08T09:36:39Z</time>
      </trkpt>
      <trkpt lat="45.98901" lon="4.75704">
        <ele>180</ele>
        <time>2016-10-08T09:36:40Z</time>
      </trkpt>
      <trkpt lat="45.98907" lon="4.75701">
        <ele>180</ele>
        <time>2016-10-08T09:36:41Z</time>
      </trkpt>
      <trkpt lat="45.98913" lon="4.75698">
        <ele>180</ele>
        <time>2016-10-08T09:36:42Z</time>
      </trkpt>
      <trkpt lat="45.98919" lon="4.75695">
        <ele>181</ele>
        <time>2016-10-08T09:36:43Z</time>
      </trkpt>
      <trkpt lat="45.98926" lon="4.75691">
        <ele>181</ele>
        <time>2016-10-08T09:36:44Z</time>
      </trkpt>
      <trkpt lat="45.98931" lon="4.75688">
        <ele>181</ele>
        <time>2016-10-08T09:36:45Z</time>
      </trkpt>
      <trkpt lat="45.98937" lon="4.75685">
        <ele>181</ele>
        <time>2016-10-08T09:36:46Z</time>
      </trkpt>
      <trkpt lat="45.98943" lon="4.75681">
        <ele>181</ele>
        <time>2016-10-08T09:36:47Z</time>
      </trkpt>
      <trkpt lat="45.98948" lon="4.75678">
        <ele>181</ele>
        <time>2016-10-08T09:36:48Z</time>
      </trkpt>
      <trkpt lat="45.98954" lon="4.75677">
        <ele>181</ele>
        <time>2016-10-08T09:36:49Z</time>
      </trkpt>
      <trkpt lat="45.98959" lon="4.75675">
        <ele>181</ele>
        <time>2016-10-08T09:36:50Z</time>
      </trkpt>
      <trkpt lat="45.98964" lon="4.75673">
        <ele>181</ele>
        <time>2016-10-08T09:36:51Z</time>
      </trkpt>
      <trkpt lat="45.9897" lon="4.75671">
        <ele>181</ele>
        <time>2016-10-08T09:36:52Z</time>
      </trkpt>
      <trkpt lat="45.98976" lon="4.7567">
        <ele>181</ele>
        <time>2016-10-08T09:36:53Z</time>
      </trkpt>
      <trkpt lat="45.98981" lon="4.75669">
        <ele>181</ele>
        <time>2016-10-08T09:36:54Z</time>
      </trkpt>
      <trkpt lat="45.98986" lon="4.75668">
        <ele>181</ele>
        <time>2016-10-08T09:36:55Z</time>
      </trkpt>
      <trkpt lat="45.98993" lon="4.75667">
        <ele>179</ele>
        <time>2016-10-08T09:36:56Z</time>
      </trkpt>
      <trkpt lat="45.98998" lon="4.75665">
        <ele>180</ele>
        <time>2016-10-08T09:36:57Z</time>
      </trkpt>
      <trkpt lat="45.99004" lon="4.75665">
        <ele>179</ele>
        <time>2016-10-08T09:36:58Z</time>
      </trkpt>
      <trkpt lat="45.9901" lon="4.75665">
        <ele>179</ele>
        <time>2016-10-08T09:36:59Z</time>
      </trkpt>
      <trkpt lat="45.99015" lon="4.75665">
        <ele>179</ele>
        <time>2016-10-08T09:37:00Z</time>
      </trkpt>
      <trkpt lat="45.99021" lon="4.75665">
        <ele>178</ele>
        <time>2016-10-08T09:37:01Z</time>
      </trkpt>
      <trkpt lat="45.99026" lon="4.75665">
        <ele>178</ele>
        <time>2016-10-08T09:37:02Z</time>
      </trkpt>
      <trkpt lat="45.99031" lon="4.75665">
        <ele>178</ele>
        <time>2016-10-08T09:37:03Z</time>
      </trkpt>
      <trkpt lat="45.99036" lon="4.75664">
        <ele>178</ele>
        <time>2016-10-08T09:37:04Z</time>
      </trkpt>
      <trkpt lat="45.99042" lon="4.75665">
        <ele>178</ele>
        <time>2016-10-08T09:37:05Z</time>
      </trkpt>
      <trkpt lat="45.99046" lon="4.75664">
        <ele>178</ele>
        <time>2016-10-08T09:37:06Z</time>
      </trkpt>
      <trkpt lat="45.99053" lon="4.75666">
        <ele>178</ele>
        <time>2016-10-08T09:37:07Z</time>
      </trkpt>
      <trkpt lat="45.99058" lon="4.75666">
        <ele>178</ele>
        <time>2016-10-08T09:37:08Z</time>
      </trkpt>
      <trkpt lat="45.99063" lon="4.75666">
        <ele>178</ele>
        <time>2016-10-08T09:37:09Z</time>
      </trkpt>
      <trkpt lat="45.99068" lon="4.75666">
        <ele>179</ele>
        <time>2016-10-08T09:37:10Z</time>
      </trkpt>
      <trkpt lat="45.99073" lon="4.75666">
        <ele>179</ele>
        <time>2016-10-08T09:37:11Z</time>
      </trkpt>
      <trkpt lat="45.99078" lon="4.75667">
        <ele>179</ele>
        <time>2016-10-08T09:37:12Z</time>
      </trkpt>
      <trkpt lat="45.99083" lon="4.75666">
        <ele>180</ele>
        <time>2016-10-08T09:37:13Z</time>
      </trkpt>
      <trkpt lat="45.99087" lon="4.75664">
        <ele>179</ele>
        <time>2016-10-08T09:37:14Z</time>
      </trkpt>
      <trkpt lat="45.99092" lon="4.75663">
        <ele>179</ele>
        <time>2016-10-08T09:37:15Z</time>
      </trkpt>
      <trkpt lat="45.99098" lon="4.75661">
        <ele>179</ele>
        <time>2016-10-08T09:37:16Z</time>
      </trkpt>
      <trkpt lat="45.99103" lon="4.75659">
        <ele>178</ele>
        <time>2016-10-08T09:37:17Z</time>
      </trkpt>
      <trkpt lat="45.99108" lon="4.75655">
        <ele>178</ele>
        <time>2016-10-08T09:37:18Z</time>
      </trkpt>
      <trkpt lat="45.99113" lon="4.75652">
        <ele>178</ele>
        <time>2016-10-08T09:37:19Z</time>
      </trkpt>
      <trkpt lat="45.99119" lon="4.75649">
        <ele>178</ele>
        <time>2016-10-08T09:37:20Z</time>
      </trkpt>
      <trkpt lat="45.99123" lon="4.75645">
        <ele>178</ele>
        <time>2016-10-08T09:37:21Z</time>
      </trkpt>
      <trkpt lat="45.99128" lon="4.75645">
        <ele>178</ele>
        <time>2016-10-08T09:37:22Z</time>
      </trkpt>
      <trkpt lat="45.99134" lon="4.75643">
        <ele>178</ele>
        <time>2016-10-08T09:37:23Z</time>
      </trkpt>
      <trkpt lat="45.9914" lon="4.75641">
        <ele>178</ele>
        <time>2016-10-08T09:37:24Z</time>
      </trkpt>
      <trkpt lat="45.99145" lon="4.75637">
        <ele>178</ele>
        <time>2016-10-08T09:37:25Z</time>
      </trkpt>
      <trkpt lat="45.99149" lon="4.75633">
        <ele>177</ele>
        <time>2016-10-08T09:37:26Z</time>
      </trkpt>
      <trkpt lat="45.99154" lon="4.75628">
        <ele>177</ele>
        <time>2016-10-08T09:37:27Z</time>
      </trkpt>
      <trkpt lat="45.99159" lon="4.75623">
        <ele>177</ele>
        <time>2016-10-08T09:37:28Z</time>
      </trkpt>
      <trkpt lat="45.99164" lon="4.7562">
        <ele>177</ele>
        <time>2016-10-08T09:37:29Z</time>
      </trkpt>
      <trkpt lat="45.9917" lon="4.75616">
        <ele>178</ele>
        <time>2016-10-08T09:37:30Z</time>
      </trkpt>
      <trkpt lat="45.99175" lon="4.75612">
        <ele>178</ele>
        <time>2016-10-08T09:37:31Z</time>
      </trkpt>
      <trkpt lat="45.9918" lon="4.75608">
        <ele>178</ele>
        <time>2016-10-08T09:37:32Z</time>
      </trkpt>
      <trkpt lat="45.99185" lon="4.75606">
        <ele>178</ele>
        <time>2016-10-08T09:37:33Z</time>
      </trkpt>
      <trkpt lat="45.99191" lon="4.75602">
        <ele>178</ele>
        <time>2016-10-08T09:37:34Z</time>
      </trkpt>
      <trkpt lat="45.99196" lon="4.75598">
        <ele>178</ele>
        <time>2016-10-08T09:37:35Z</time>
      </trkpt>
      <trkpt lat="45.99201" lon="4.75595">
        <ele>178</ele>
        <time>2016-10-08T09:37:36Z</time>
      </trkpt>
      <trkpt lat="45.99206" lon="4.75592">
        <ele>178</ele>
        <time>2016-10-08T09:37:37Z</time>
      </trkpt>
      <trkpt lat="45.99211" lon="4.75589">
        <ele>178</ele>
        <time>2016-10-08T09:37:38Z</time>
      </trkpt>
      <trkpt lat="45.99217" lon="4.75587">
        <ele>178</ele>
        <time>2016-10-08T09:37:39Z</time>
      </trkpt>
      <trkpt lat="45.99222" lon="4.75584">
        <ele>178</ele>
        <time>2016-10-08T09:37:40Z</time>
      </trkpt>
      <trkpt lat="45.99227" lon="4.75581">
        <ele>175</ele>
        <time>2016-10-08T09:37:41Z</time>
      </trkpt>
      <trkpt lat="45.99232" lon="4.75577">
        <ele>175</ele>
        <time>2016-10-08T09:37:42Z</time>
      </trkpt>
      <trkpt lat="45.99237" lon="4.75574">
        <ele>176</ele>
        <time>2016-10-08T09:37:43Z</time>
      </trkpt>
      <trkpt lat="45.99241" lon="4.75571">
        <ele>176</ele>
        <time>2016-10-08T09:37:44Z</time>
      </trkpt>
      <trkpt lat="45.99246" lon="4.75567">
        <ele>176</ele>
        <time>2016-10-08T09:37:45Z</time>
      </trkpt>
      <trkpt lat="45.99252" lon="4.75564">
        <ele>177</ele>
        <time>2016-10-08T09:37:46Z</time>
      </trkpt>
      <trkpt lat="45.99257" lon="4.7556">
        <ele>177</ele>
        <time>2016-10-08T09:37:47Z</time>
      </trkpt>
      <trkpt lat="45.99263" lon="4.75556">
        <ele>177</ele>
        <time>2016-10-08T09:37:48Z</time>
      </trkpt>
      <trkpt lat="45.99268" lon="4.75553">
        <ele>177</ele>
        <time>2016-10-08T09:37:49Z</time>
      </trkpt>
      <trkpt lat="45.99273" lon="4.75549">
        <ele>177</ele>
        <time>2016-10-08T09:37:50Z</time>
      </trkpt>
      <trkpt lat="45.99277" lon="4.75545">
        <ele>177</ele>
        <time>2016-10-08T09:37:51Z</time>
      </trkpt>
      <trkpt lat="45.99282" lon="4.75541">
        <ele>177</ele>
        <time>2016-10-08T09:37:52Z</time>
      </trkpt>
      <trkpt lat="45.99286" lon="4.75537">
        <ele>177</ele>
        <time>2016-10-08T09:37:53Z</time>
      </trkpt>
      <trkpt lat="45.99292" lon="4.75532">
        <ele>177</ele>
        <time>2016-10-08T09:37:54Z</time>
      </trkpt>
      <trkpt lat="45.99297" lon="4.75527">
        <ele>177</ele>
        <time>2016-10-08T09:37:55Z</time>
      </trkpt>
      <trkpt lat="45.99302" lon="4.75521">
        <ele>177</ele>
        <time>2016-10-08T09:37:56Z</time>
      </trkpt>
      <trkpt lat="45.99307" lon="4.75514">
        <ele>177</ele>
        <time>2016-10-08T09:37:57Z</time>
      </trkpt>
      <trkpt lat="45.99312" lon="4.75507">
        <ele>177</ele>
        <time>2016-10-08T09:37:58Z</time>
      </trkpt>
      <trkpt lat="45.99317" lon="4.75501">
        <ele>177</ele>
        <time>2016-10-08T09:37:59Z</time>
      </trkpt>
      <trkpt lat="45.99322" lon="4.75495">
        <ele>175</ele>
        <time>2016-10-08T09:38:00Z</time>
      </trkpt>
      <trkpt lat="45.99326" lon="4.75489">
        <ele>175</ele>
        <time>2016-10-08T09:38:01Z</time>
      </trkpt>
      <trkpt lat="45.9933" lon="4.75482">
        <ele>175</ele>
        <time>2016-10-08T09:38:02Z</time>
      </trkpt>
      <trkpt lat="45.99334" lon="4.75475">
        <ele>177</ele>
        <time>2016-10-08T09:38:03Z</time>
      </trkpt>
      <trkpt lat="45.99338" lon="4.75469">
        <ele>177</ele>
        <time>2016-10-08T09:38:04Z</time>
      </trkpt>
      <trkpt lat="45.99342" lon="4.75462">
        <ele>177</ele>
        <time>2016-10-08T09:38:05Z</time>
      </trkpt>
      <trkpt lat="45.99345" lon="4.75456">
        <ele>177</ele>
        <time>2016-10-08T09:38:06Z</time>
      </trkpt>
      <trkpt lat="45.99348" lon="4.7545">
        <ele>177</ele>
        <time>2016-10-08T09:38:07Z</time>
      </trkpt>
      <trkpt lat="45.99351" lon="4.75446">
        <ele>176</ele>
        <time>2016-10-08T09:38:08Z</time>
      </trkpt>
      <trkpt lat="45.99356" lon="4.75441">
        <ele>176</ele>
        <time>2016-10-08T09:38:09Z</time>
      </trkpt>
      <trkpt lat="45.9936" lon="4.75436">
        <ele>176</ele>
        <time>2016-10-08T09:38:10Z</time>
      </trkpt>
      <trkpt lat="45.99363" lon="4.7543">
        <ele>176</ele>
        <time>2016-10-08T09:38:11Z</time>
      </trkpt>
      <trkpt lat="45.99365" lon="4.75423">
        <ele>176</ele>
        <time>2016-10-08T09:38:12Z</time>
      </trkpt>
      <trkpt lat="45.99366" lon="4.75416">
        <ele>173</ele>
        <time>2016-10-08T09:38:13Z</time>
      </trkpt>
      <trkpt lat="45.99366" lon="4.75408">
        <ele>173</ele>
        <time>2016-10-08T09:38:14Z</time>
      </trkpt>
      <trkpt lat="45.99367" lon="4.75401">
        <ele>173</ele>
        <time>2016-10-08T09:38:15Z</time>
      </trkpt>
      <trkpt lat="45.99368" lon="4.75393">
        <ele>173</ele>
        <time>2016-10-08T09:38:16Z</time>
      </trkpt>
      <trkpt lat="45.9937" lon="4.75386">
        <ele>172</ele>
        <time>2016-10-08T09:38:17Z</time>
      </trkpt>
      <trkpt lat="45.99372" lon="4.75379">
        <ele>172</ele>
        <time>2016-10-08T09:38:18Z</time>
      </trkpt>
      <trkpt lat="45.99375" lon="4.75372">
        <ele>172</ele>
        <time>2016-10-08T09:38:19Z</time>
      </trkpt>
      <trkpt lat="45.99378" lon="4.75366">
        <ele>172</ele>
        <time>2016-10-08T09:38:20Z</time>
      </trkpt>
      <trkpt lat="45.99381" lon="4.75359">
        <ele>172</ele>
        <time>2016-10-08T09:38:21Z</time>
      </trkpt>
      <trkpt lat="45.99385" lon="4.75353">
        <ele>172</ele>
        <time>2016-10-08T09:38:22Z</time>
      </trkpt>
      <trkpt lat="45.99389" lon="4.75348">
        <ele>172</ele>
        <time>2016-10-08T09:38:23Z</time>
      </trkpt>
      <trkpt lat="45.99393" lon="4.75342">
        <ele>171</ele>
        <time>2016-10-08T09:38:24Z</time>
      </trkpt>
      <trkpt lat="45.99398" lon="4.75338">
        <ele>171</ele>
        <time>2016-10-08T09:38:25Z</time>
      </trkpt>
      <trkpt lat="45.99403" lon="4.75335">
        <ele>171</ele>
        <time>2016-10-08T09:38:26Z</time>
      </trkpt>
      <trkpt lat="45.99408" lon="4.75331">
        <ele>170</ele>
        <time>2016-10-08T09:38:27Z</time>
      </trkpt>
      <trkpt lat="45.99413" lon="4.75329">
        <ele>170</ele>
        <time>2016-10-08T09:38:28Z</time>
      </trkpt>
      <trkpt lat="45.99418" lon="4.75327">
        <ele>170</ele>
        <time>2016-10-08T09:38:29Z</time>
      </trkpt>
      <trkpt lat="45.99423" lon="4.75326">
        <ele>170</ele>
        <time>2016-10-08T09:38:30Z</time>
      </trkpt>
      <trkpt lat="45.99428" lon="4.75324">
        <ele>170</ele>
        <time>2016-10-08T09:38:31Z</time>
      </trkpt>
      <trkpt lat="45.99434" lon="4.75322">
        <ele>171</ele>
        <time>2016-10-08T09:38:32Z</time>
      </trkpt>
      <trkpt lat="45.99439" lon="4.75321">
        <ele>171</ele>
        <time>2016-10-08T09:38:33Z</time>
      </trkpt>
      <trkpt lat="45.99443" lon="4.75322">
        <ele>171</ele>
        <time>2016-10-08T09:38:34Z</time>
      </trkpt>
      <trkpt lat="45.99448" lon="4.75323">
        <ele>171</ele>
        <time>2016-10-08T09:38:35Z</time>
      </trkpt>
      <trkpt lat="45.99453" lon="4.75322">
        <ele>171</ele>
        <time>2016-10-08T09:38:36Z</time>
      </trkpt>
      <trkpt lat="45.99457" lon="4.75321">
        <ele>171</ele>
        <time>2016-10-08T09:38:37Z</time>
      </trkpt>
      <trkpt lat="45.99466" lon="4.7532">
        <ele>171</ele>
        <time>2016-10-08T09:38:39Z</time>
      </trkpt>
      <trkpt lat="45.9947" lon="4.75319">
        <ele>171</ele>
        <time>2016-10-08T09:38:40Z</time>
      </trkpt>
      <trkpt lat="45.99479" lon="4.75318">
        <ele>171</ele>
        <time>2016-10-08T09:38:42Z</time>
      </trkpt>
      <trkpt lat="45.99483" lon="4.75317">
        <ele>171</ele>
        <time>2016-10-08T09:38:43Z</time>
      </trkpt>
      <trkpt lat="45.99492" lon="4.75315">
        <ele>171</ele>
        <time>2016-10-08T09:38:45Z</time>
      </trkpt>
      <trkpt lat="45.99496" lon="4.75315">
        <ele>171</ele>
        <time>2016-10-08T09:38:46Z</time>
      </trkpt>
      <trkpt lat="45.99501" lon="4.75314">
        <ele>172</ele>
        <time>2016-10-08T09:38:47Z</time>
      </trkpt>
      <trkpt lat="45.99505" lon="4.75313">
        <ele>172</ele>
        <time>2016-10-08T09:38:48Z</time>
      </trkpt>
      <trkpt lat="45.99514" lon="4.75313">
        <ele>172</ele>
        <time>2016-10-08T09:38:50Z</time>
      </trkpt>
      <trkpt lat="45.99519" lon="4.75313">
        <ele>172</ele>
        <time>2016-10-08T09:38:51Z</time>
      </trkpt>
      <trkpt lat="45.99527" lon="4.75312">
        <ele>172</ele>
        <time>2016-10-08T09:38:53Z</time>
      </trkpt>
      <trkpt lat="45.99532" lon="4.75311">
        <ele>172</ele>
        <time>2016-10-08T09:38:54Z</time>
      </trkpt>
      <trkpt lat="45.99539" lon="4.75311">
        <ele>172</ele>
        <time>2016-10-08T09:38:56Z</time>
      </trkpt>
      <trkpt lat="45.99543" lon="4.75312">
        <ele>172</ele>
        <time>2016-10-08T09:38:57Z</time>
      </trkpt>
      <trkpt lat="45.9955" lon="4.75315">
        <ele>172</ele>
        <time>2016-10-08T09:38:59Z</time>
      </trkpt>
      <trkpt lat="45.99553" lon="4.75319">
        <ele>172</ele>
        <time>2016-10-08T09:39:00Z</time>
      </trkpt>
      <trkpt lat="45.9956" lon="4.75327">
        <ele>172</ele>
        <time>2016-10-08T09:39:02Z</time>
      </trkpt>
      <trkpt lat="45.99564" lon="4.7533">
        <ele>172</ele>
        <time>2016-10-08T09:39:03Z</time>
      </trkpt>
      <trkpt lat="45.99569" lon="4.75332">
        <ele>173</ele>
        <time>2016-10-08T09:39:04Z</time>
      </trkpt>
      <trkpt lat="45.99574" lon="4.75333">
        <ele>173</ele>
        <time>2016-10-08T09:39:05Z</time>
      </trkpt>
      <trkpt lat="45.99579" lon="4.75331">
        <ele>173</ele>
        <time>2016-10-08T09:39:06Z</time>
      </trkpt>
      <trkpt lat="45.99584" lon="4.75328">
        <ele>173</ele>
        <time>2016-10-08T09:39:07Z</time>
      </trkpt>
      <trkpt lat="45.99588" lon="4.75324">
        <ele>173</ele>
        <time>2016-10-08T09:39:08Z</time>
      </trkpt>
      <trkpt lat="45.99592" lon="4.7532">
        <ele>173</ele>
        <time>2016-10-08T09:39:09Z</time>
      </trkpt>
      <trkpt lat="45.99595" lon="4.75314">
        <ele>174</ele>
        <time>2016-10-08T09:39:10Z</time>
      </trkpt>
      <trkpt lat="45.99597" lon="4.75308">
        <ele>174</ele>
        <time>2016-10-08T09:39:11Z</time>
      </trkpt>
      <trkpt lat="45.99601" lon="4.75297">
        <ele>174</ele>
        <time>2016-10-08T09:39:13Z</time>
      </trkpt>
      <trkpt lat="45.99605" lon="4.75292">
        <ele>174</ele>
        <time>2016-10-08T09:39:14Z</time>
      </trkpt>
      <trkpt lat="45.99609" lon="4.75288">
        <ele>174</ele>
        <time>2016-10-08T09:39:15Z</time>
      </trkpt>
      <trkpt lat="45.99614" lon="4.75286">
        <ele>174</ele>
        <time>2016-10-08T09:39:16Z</time>
      </trkpt>
      <trkpt lat="45.9962" lon="4.75284">
        <ele>174</ele>
        <time>2016-10-08T09:39:17Z</time>
      </trkpt>
      <trkpt lat="45.99626" lon="4.75283">
        <ele>174</ele>
        <time>2016-10-08T09:39:18Z</time>
      </trkpt>
      <trkpt lat="45.99633" lon="4.75283">
        <ele>174</ele>
        <time>2016-10-08T09:39:19Z</time>
      </trkpt>
      <trkpt lat="45.99639" lon="4.75284">
        <ele>174</ele>
        <time>2016-10-08T09:39:20Z</time>
      </trkpt>
      <trkpt lat="45.99646" lon="4.75283">
        <ele>174</ele>
        <time>2016-10-08T09:39:21Z</time>
      </trkpt>
      <trkpt lat="45.99654" lon="4.75282">
        <ele>174</ele>
        <time>2016-10-08T09:39:22Z</time>
      </trkpt>
      <trkpt lat="45.99661" lon="4.7528">
        <ele>174</ele>
        <time>2016-10-08T09:39:23Z</time>
      </trkpt>
      <trkpt lat="45.99668" lon="4.75277">
        <ele>176</ele>
        <time>2016-10-08T09:39:24Z</time>
      </trkpt>
      <trkpt lat="45.99675" lon="4.75273">
        <ele>176</ele>
        <time>2016-10-08T09:39:25Z</time>
      </trkpt>
      <trkpt lat="45.99682" lon="4.7527">
        <ele>176</ele>
        <time>2016-10-08T09:39:26Z</time>
      </trkpt>
      <trkpt lat="45.99689" lon="4.75267">
        <ele>176</ele>
        <time>2016-10-08T09:39:27Z</time>
      </trkpt>
      <trkpt lat="45.99696" lon="4.75264">
        <ele>176</ele>
        <time>2016-10-08T09:39:28Z</time>
      </trkpt>
      <trkpt lat="45.99703" lon="4.75261">
        <ele>176</ele>
        <time>2016-10-08T09:39:29Z</time>
      </trkpt>
      <trkpt lat="45.99709" lon="4.75258">
        <ele>176</ele>
        <time>2016-10-08T09:39:30Z</time>
      </trkpt>
      <trkpt lat="45.99715" lon="4.75255">
        <ele>176</ele>
        <time>2016-10-08T09:39:31Z</time>
      </trkpt>
      <trkpt lat="45.99722" lon="4.75253">
        <ele>176</ele>
        <time>2016-10-08T09:39:32Z</time>
      </trkpt>
      <trkpt lat="45.99728" lon="4.7525">
        <ele>176</ele>
        <time>2016-10-08T09:39:33Z</time>
      </trkpt>
      <trkpt lat="45.99733" lon="4.75248">
        <ele>175</ele>
        <time>2016-10-08T09:39:34Z</time>
      </trkpt>
      <trkpt lat="45.99739" lon="4.75245">
        <ele>175</ele>
        <time>2016-10-08T09:39:35Z</time>
      </trkpt>
      <trkpt lat="45.99745" lon="4.75241">
        <ele>175</ele>
        <time>2016-10-08T09:39:36Z</time>
      </trkpt>
      <trkpt lat="45.99751" lon="4.75238">
        <ele>175</ele>
        <time>2016-10-08T09:39:37Z</time>
      </trkpt>
      <trkpt lat="45.99757" lon="4.75235">
        <ele>175</ele>
        <time>2016-10-08T09:39:38Z</time>
      </trkpt>
      <trkpt lat="45.99763" lon="4.75233">
        <ele>175</ele>
        <time>2016-10-08T09:39:39Z</time>
      </trkpt>
      <trkpt lat="45.99769" lon="4.7523">
        <ele>175</ele>
        <time>2016-10-08T09:39:40Z</time>
      </trkpt>
      <trkpt lat="45.99775" lon="4.75227">
        <ele>175</ele>
        <time>2016-10-08T09:39:41Z</time>
      </trkpt>
      <trkpt lat="45.99781" lon="4.75224">
        <ele>175</ele>
        <time>2016-10-08T09:39:42Z</time>
      </trkpt>
      <trkpt lat="45.99787" lon="4.75221">
        <ele>175</ele>
        <time>2016-10-08T09:39:43Z</time>
      </trkpt>
      <trkpt lat="45.99793" lon="4.75219">
        <ele>174</ele>
        <time>2016-10-08T09:39:44Z</time>
      </trkpt>
      <trkpt lat="45.99799" lon="4.75216">
        <ele>174</ele>
        <time>2016-10-08T09:39:45Z</time>
      </trkpt>
      <trkpt lat="45.99806" lon="4.75213">
        <ele>174</ele>
        <time>2016-10-08T09:39:46Z</time>
      </trkpt>
      <trkpt lat="45.99812" lon="4.7521">
        <ele>174</ele>
        <time>2016-10-08T09:39:47Z</time>
      </trkpt>
      <trkpt lat="45.99818" lon="4.75207">
        <ele>174</ele>
        <time>2016-10-08T09:39:48Z</time>
      </trkpt>
      <trkpt lat="45.99824" lon="4.75204">
        <ele>174</ele>
        <time>2016-10-08T09:39:49Z</time>
      </trkpt>
      <trkpt lat="45.99831" lon="4.75201">
        <ele>174</ele>
        <time>2016-10-08T09:39:50Z</time>
      </trkpt>
      <trkpt lat="45.99837" lon="4.75199">
        <ele>174</ele>
        <time>2016-10-08T09:39:51Z</time>
      </trkpt>
      <trkpt lat="45.99843" lon="4.75196">
        <ele>174</ele>
        <time>2016-10-08T09:39:52Z</time>
      </trkpt>
      <trkpt lat="45.99848" lon="4.75193">
        <ele>174</ele>
        <time>2016-10-08T09:39:53Z</time>
      </trkpt>
      <trkpt lat="45.99854" lon="4.7519">
        <ele>174</ele>
        <time>2016-10-08T09:39:54Z</time>
      </trkpt>
      <trkpt lat="45.99859" lon="4.75187">
        <ele>174</ele>
        <time>2016-10-08T09:39:55Z</time>
      </trkpt>
      <trkpt lat="45.99865" lon="4.75183">
        <ele>174</ele>
        <time>2016-10-08T09:39:56Z</time>
      </trkpt>
      <trkpt lat="45.9987" lon="4.75179">
        <ele>174</ele>
        <time>2016-10-08T09:39:57Z</time>
      </trkpt>
      <trkpt lat="45.99876" lon="4.75176">
        <ele>174</ele>
        <time>2016-10-08T09:39:58Z</time>
      </trkpt>
      <trkpt lat="45.99884" lon="4.75174">
        <ele>174</ele>
        <time>2016-10-08T09:40:00Z</time>
      </trkpt>
      <trkpt lat="45.99889" lon="4.75172">
        <ele>174</ele>
        <time>2016-10-08T09:40:01Z</time>
      </trkpt>
      <trkpt lat="45.99893" lon="4.7517">
        <ele>174</ele>
        <time>2016-10-08T09:40:02Z</time>
      </trkpt>
      <trkpt lat="45.99899" lon="4.75167">
        <ele>174</ele>
        <time>2016-10-08T09:40:03Z</time>
      </trkpt>
      <trkpt lat="45.99904" lon="4.75163">
        <ele>173</ele>
        <time>2016-10-08T09:40:04Z</time>
      </trkpt>
      <trkpt lat="45.99909" lon="4.7516">
        <ele>173</ele>
        <time>2016-10-08T09:40:05Z</time>
      </trkpt>
      <trkpt lat="45.99915" lon="4.75157">
        <ele>173</ele>
        <time>2016-10-08T09:40:06Z</time>
      </trkpt>
      <trkpt lat="45.99921" lon="4.75155">
        <ele>173</ele>
        <time>2016-10-08T09:40:07Z</time>
      </trkpt>
      <trkpt lat="45.99926" lon="4.75154">
        <ele>173</ele>
        <time>2016-10-08T09:40:08Z</time>
      </trkpt>
      <trkpt lat="45.99932" lon="4.75152">
        <ele>173</ele>
        <time>2016-10-08T09:40:09Z</time>
      </trkpt>
      <trkpt lat="45.99937" lon="4.7515">
        <ele>173</ele>
        <time>2016-10-08T09:40:10Z</time>
      </trkpt>
      <trkpt lat="45.99942" lon="4.75148">
        <ele>173</ele>
        <time>2016-10-08T09:40:11Z</time>
      </trkpt>
      <trkpt lat="45.99948" lon="4.75146">
        <ele>173</ele>
        <time>2016-10-08T09:40:12Z</time>
      </trkpt>
      <trkpt lat="45.99953" lon="4.75143">
        <ele>173</ele>
        <time>2016-10-08T09:40:13Z</time>
      </trkpt>
      <trkpt lat="45.99958" lon="4.7514">
        <ele>173</ele>
        <time>2016-10-08T09:40:14Z</time>
      </trkpt>
      <trkpt lat="45.99963" lon="4.75137">
        <ele>173</ele>
        <time>2016-10-08T09:40:15Z</time>
      </trkpt>
      <trkpt lat="45.99968" lon="4.75135">
        <ele>173</ele>
        <time>2016-10-08T09:40:16Z</time>
      </trkpt>
      <trkpt lat="45.99973" lon="4.75132">
        <ele>173</ele>
        <time>2016-10-08T09:40:17Z</time>
      </trkpt>
      <trkpt lat="45.99978" lon="4.7513">
        <ele>173</ele>
        <time>2016-10-08T09:40:18Z</time>
      </trkpt>
      <trkpt lat="45.99983" lon="4.75129">
        <ele>173</ele>
        <time>2016-10-08T09:40:19Z</time>
      </trkpt>
      <trkpt lat="45.99988" lon="4.75127">
        <ele>173</ele>
        <time>2016-10-08T09:40:20Z</time>
      </trkpt>
      <trkpt lat="45.99993" lon="4.75126">
        <ele>173</ele>
        <time>2016-10-08T09:40:21Z</time>
      </trkpt>
      <trkpt lat="45.99999" lon="4.75125">
        <ele>173</ele>
        <time>2016-10-08T09:40:22Z</time>
      </trkpt>
      <trkpt lat="46.00004" lon="4.75124">
        <ele>174</ele>
        <time>2016-10-08T09:40:23Z</time>
      </trkpt>
      <trkpt lat="46.00009" lon="4.75123">
        <ele>174</ele>
        <time>2016-10-08T09:40:24Z</time>
      </trkpt>
      <trkpt lat="46.00014" lon="4.75121">
        <ele>174</ele>
        <time>2016-10-08T09:40:25Z</time>
      </trkpt>
      <trkpt lat="46.0002" lon="4.75119">
        <ele>174</ele>
        <time>2016-10-08T09:40:26Z</time>
      </trkpt>
      <trkpt lat="46.00025" lon="4.75118">
        <ele>174</ele>
        <time>2016-10-08T09:40:27Z</time>
      </trkpt>
      <trkpt lat="46.00031" lon="4.75117">
        <ele>174</ele>
        <time>2016-10-08T09:40:28Z</time>
      </trkpt>
      <trkpt lat="46.00037" lon="4.75116">
        <ele>174</ele>
        <time>2016-10-08T09:40:29Z</time>
      </trkpt>
      <trkpt lat="46.00042" lon="4.75116">
        <ele>174</ele>
        <time>2016-10-08T09:40:30Z</time>
      </trkpt>
      <trkpt lat="46.00048" lon="4.75115">
        <ele>174</ele>
        <time>2016-10-08T09:40:31Z</time>
      </trkpt>
      <trkpt lat="46.00053" lon="4.75114">
        <ele>174</ele>
        <time>2016-10-08T09:40:32Z</time>
      </trkpt>
      <trkpt lat="46.00059" lon="4.75114">
        <ele>174</ele>
        <time>2016-10-08T09:40:33Z</time>
      </trkpt>
      <trkpt lat="46.00064" lon="4.75114">
        <ele>174</ele>
        <time>2016-10-08T09:40:34Z</time>
      </trkpt>
      <trkpt lat="46.0007" lon="4.75114">
        <ele>174</ele>
        <time>2016-10-08T09:40:35Z</time>
      </trkpt>
      <trkpt lat="46.00078" lon="4.75115">
        <ele>174</ele>
        <time>2016-10-08T09:40:37Z</time>
      </trkpt>
      <trkpt lat="46.00083" lon="4.75115">
        <ele>174</ele>
        <time>2016-10-08T09:40:38Z</time>
      </trkpt>
      <trkpt lat="46.00088" lon="4.75115">
        <ele>175</ele>
        <time>2016-10-08T09:40:39Z</time>
      </trkpt>
      <trkpt lat="46.00092" lon="4.75115">
        <ele>175</ele>
        <time>2016-10-08T09:40:40Z</time>
      </trkpt>
      <trkpt lat="46.00097" lon="4.75114">
        <ele>175</ele>
        <time>2016-10-08T09:40:41Z</time>
      </trkpt>
      <trkpt lat="46.00101" lon="4.75115">
        <ele>175</ele>
        <time>2016-10-08T09:40:42Z</time>
      </trkpt>
      <trkpt lat="46.00106" lon="4.75117">
        <ele>175</ele>
        <time>2016-10-08T09:40:43Z</time>
      </trkpt>
      <trkpt lat="46.00111" lon="4.75114">
        <ele>175</ele>
        <time>2016-10-08T09:40:44Z</time>
      </trkpt>
      <trkpt lat="46.00115" lon="4.75112">
        <ele>175</ele>
        <time>2016-10-08T09:40:45Z</time>
      </trkpt>
      <trkpt lat="46.0012" lon="4.75112">
        <ele>175</ele>
        <time>2016-10-08T09:40:46Z</time>
      </trkpt>
      <trkpt lat="46.00126" lon="4.75114">
        <ele>175</ele>
        <time>2016-10-08T09:40:47Z</time>
      </trkpt>
      <trkpt lat="46.00132" lon="4.75114">
        <ele>175</ele>
        <time>2016-10-08T09:40:48Z</time>
      </trkpt>
      <trkpt lat="46.0014" lon="4.7512">
        <ele>175</ele>
        <time>2016-10-08T09:40:50Z</time>
      </trkpt>
      <trkpt lat="46.00145" lon="4.7512">
        <ele>175</ele>
        <time>2016-10-08T09:40:51Z</time>
      </trkpt>
      <trkpt lat="46.00151" lon="4.75118">
        <ele>175</ele>
        <time>2016-10-08T09:40:52Z</time>
      </trkpt>
      <trkpt lat="46.00156" lon="4.75117">
        <ele>175</ele>
        <time>2016-10-08T09:40:53Z</time>
      </trkpt>
      <trkpt lat="46.00161" lon="4.75115">
        <ele>175</ele>
        <time>2016-10-08T09:40:54Z</time>
      </trkpt>
      <trkpt lat="46.00167" lon="4.75114">
        <ele>175</ele>
        <time>2016-10-08T09:40:55Z</time>
      </trkpt>
      <trkpt lat="46.00172" lon="4.75115">
        <ele>176</ele>
        <time>2016-10-08T09:40:56Z</time>
      </trkpt>
      <trkpt lat="46.00178" lon="4.75115">
        <ele>176</ele>
        <time>2016-10-08T09:40:57Z</time>
      </trkpt>
      <trkpt lat="46.00186" lon="4.7511">
        <ele>176</ele>
        <time>2016-10-08T09:40:59Z</time>
      </trkpt>
      <trkpt lat="46.00189" lon="4.75108">
        <ele>176</ele>
        <time>2016-10-08T09:41:00Z</time>
      </trkpt>
      <trkpt lat="46.00193" lon="4.75108">
        <ele>176</ele>
        <time>2016-10-08T09:41:01Z</time>
      </trkpt>
      <trkpt lat="46.00198" lon="4.7511">
        <ele>176</ele>
        <time>2016-10-08T09:41:02Z</time>
      </trkpt>
      <trkpt lat="46.00204" lon="4.75117">
        <ele>176</ele>
        <time>2016-10-08T09:41:04Z</time>
      </trkpt>
      <trkpt lat="46.00205" lon="4.75122">
        <ele>176</ele>
        <time>2016-10-08T09:41:05Z</time>
      </trkpt>
      <trkpt lat="46.00206" lon="4.75135">
        <ele>176</ele>
        <time>2016-10-08T09:41:07Z</time>
      </trkpt>
      <trkpt lat="46.00206" lon="4.75141">
        <ele>176</ele>
        <time>2016-10-08T09:41:08Z</time>
      </trkpt>
      <trkpt lat="46.00209" lon="4.75149">
        <ele>177</ele>
        <time>2016-10-08T09:41:09Z</time>
      </trkpt>
      <trkpt lat="46.0021" lon="4.75155">
        <ele>177</ele>
        <time>2016-10-08T09:41:10Z</time>
      </trkpt>
      <trkpt lat="46.0021" lon="4.75162">
        <ele>177</ele>
        <time>2016-10-08T09:41:11Z</time>
      </trkpt>
      <trkpt lat="46.0021" lon="4.75169">
        <ele>179</ele>
        <time>2016-10-08T09:41:12Z</time>
      </trkpt>
      <trkpt lat="46.0021" lon="4.75181">
        <ele>179</ele>
        <time>2016-10-08T09:41:14Z</time>
      </trkpt>
      <trkpt lat="46.0021" lon="4.75187">
        <ele>179</ele>
        <time>2016-10-08T09:41:15Z</time>
      </trkpt>
      <trkpt lat="46.00209" lon="4.75199">
        <ele>179</ele>
        <time>2016-10-08T09:41:17Z</time>
      </trkpt>
      <trkpt lat="46.00209" lon="4.75204">
        <ele>179</ele>
        <time>2016-10-08T09:41:18Z</time>
      </trkpt>
      <trkpt lat="46.0021" lon="4.75214">
        <ele>180</ele>
        <time>2016-10-08T09:41:20Z</time>
      </trkpt>
      <trkpt lat="46.00211" lon="4.75219">
        <ele>180</ele>
        <time>2016-10-08T09:41:21Z</time>
      </trkpt>
      <trkpt lat="46.00212" lon="4.7523">
        <ele>180</ele>
        <time>2016-10-08T09:41:23Z</time>
      </trkpt>
      <trkpt lat="46.00212" lon="4.75234">
        <ele>180</ele>
        <time>2016-10-08T09:41:24Z</time>
      </trkpt>
      <trkpt lat="46.00211" lon="4.75243">
        <ele>180</ele>
        <time>2016-10-08T09:41:26Z</time>
      </trkpt>
      <trkpt lat="46.00211" lon="4.75248">
        <ele>180</ele>
        <time>2016-10-08T09:41:27Z</time>
      </trkpt>
      <trkpt lat="46.0021" lon="4.75257">
        <ele>184</ele>
        <time>2016-10-08T09:41:29Z</time>
      </trkpt>
      <trkpt lat="46.0021" lon="4.75261">
        <ele>184</ele>
        <time>2016-10-08T09:41:30Z</time>
      </trkpt>
      <trkpt lat="46.00215" lon="4.75271">
        <ele>184</ele>
        <time>2016-10-08T09:41:34Z</time>
      </trkpt>
      <trkpt lat="46.00214" lon="4.75274">
        <ele>184</ele>
        <time>2016-10-08T09:41:35Z</time>
      </trkpt>
      <trkpt lat="46.00213" lon="4.75286">
        <ele>185</ele>
        <time>2016-10-08T09:41:38Z</time>
      </trkpt>
      <trkpt lat="46.00212" lon="4.7529">
        <ele>185</ele>
        <time>2016-10-08T09:41:39Z</time>
      </trkpt>
      <trkpt lat="46.00213" lon="4.75302">
        <ele>185</ele>
        <time>2016-10-08T09:41:42Z</time>
      </trkpt>
      <trkpt lat="46.00214" lon="4.75305">
        <ele>186</ele>
        <time>2016-10-08T09:41:43Z</time>
      </trkpt>
      <trkpt lat="46.00214" lon="4.75315">
        <ele>186</ele>
        <time>2016-10-08T09:41:45Z</time>
      </trkpt>
      <trkpt lat="46.00213" lon="4.7532">
        <ele>186</ele>
        <time>2016-10-08T09:41:46Z</time>
      </trkpt>
      <trkpt lat="46.00213" lon="4.75329">
        <ele>186</ele>
        <time>2016-10-08T09:41:48Z</time>
      </trkpt>
      <trkpt lat="46.00213" lon="4.75333">
        <ele>186</ele>
        <time>2016-10-08T09:41:49Z</time>
      </trkpt>
      <trkpt lat="46.00213" lon="4.75344">
        <ele>190</ele>
        <time>2016-10-08T09:41:52Z</time>
      </trkpt>
      <trkpt lat="46.00213" lon="4.75347">
        <ele>190</ele>
        <time>2016-10-08T09:41:53Z</time>
      </trkpt>
      <trkpt lat="46.00214" lon="4.75359">
        <ele>191</ele>
        <time>2016-10-08T09:41:56Z</time>
      </trkpt>
      <trkpt lat="46.00214" lon="4.75363">
        <ele>191</ele>
        <time>2016-10-08T09:41:57Z</time>
      </trkpt>
      <trkpt lat="46.00213" lon="4.75375">
        <ele>191</ele>
        <time>2016-10-08T09:42:00Z</time>
      </trkpt>
      <trkpt lat="46.00213" lon="4.75378">
        <ele>192</ele>
        <time>2016-10-08T09:42:01Z</time>
      </trkpt>
      <trkpt lat="46.00212" lon="4.75389">
        <ele>192</ele>
        <time>2016-10-08T09:42:04Z</time>
      </trkpt>
      <trkpt lat="46.00213" lon="4.75392">
        <ele>192</ele>
        <time>2016-10-08T09:42:05Z</time>
      </trkpt>
      <trkpt lat="46.00215" lon="4.75404">
        <ele>192</ele>
        <time>2016-10-08T09:42:08Z</time>
      </trkpt>
      <trkpt lat="46.00215" lon="4.75408">
        <ele>192</ele>
        <time>2016-10-08T09:42:09Z</time>
      </trkpt>
      <trkpt lat="46.00216" lon="4.7542">
        <ele>196</ele>
        <time>2016-10-08T09:42:12Z</time>
      </trkpt>
      <trkpt lat="46.00216" lon="4.75424">
        <ele>196</ele>
        <time>2016-10-08T09:42:13Z</time>
      </trkpt>
      <trkpt lat="46.00216" lon="4.75436">
        <ele>197</ele>
        <time>2016-10-08T09:42:16Z</time>
      </trkpt>
      <trkpt lat="46.00216" lon="4.75441">
        <ele>197</ele>
        <time>2016-10-08T09:42:17Z</time>
      </trkpt>
      <trkpt lat="46.00214" lon="4.75451">
        <ele>197</ele>
        <time>2016-10-08T09:42:20Z</time>
      </trkpt>
      <trkpt lat="46.00214" lon="4.75455">
        <ele>197</ele>
        <time>2016-10-08T09:42:21Z</time>
      </trkpt>
      <trkpt lat="46.00214" lon="4.75465">
        <ele>198</ele>
        <time>2016-10-08T09:42:24Z</time>
      </trkpt>
      <trkpt lat="46.00213" lon="4.75468">
        <ele>198</ele>
        <time>2016-10-08T09:42:25Z</time>
      </trkpt>
      <trkpt lat="46.00214" lon="4.7548">
        <ele>198</ele>
        <time>2016-10-08T09:42:28Z</time>
      </trkpt>
      <trkpt lat="46.00214" lon="4.75484">
        <ele>198</ele>
        <time>2016-10-08T09:42:29Z</time>
      </trkpt>
      <trkpt lat="46.00214" lon="4.75496">
        <ele>198</ele>
        <time>2016-10-08T09:42:32Z</time>
      </trkpt>
      <trkpt lat="46.00214" lon="4.755">
        <ele>198</ele>
        <time>2016-10-08T09:42:33Z</time>
      </trkpt>
      <trkpt lat="46.00214" lon="4.75511">
        <ele>204</ele>
        <time>2016-10-08T09:42:36Z</time>
      </trkpt>
      <trkpt lat="46.00215" lon="4.75515">
        <ele>204</ele>
        <time>2016-10-08T09:42:37Z</time>
      </trkpt>
      <trkpt lat="46.00217" lon="4.75526">
        <ele>205</ele>
        <time>2016-10-08T09:42:40Z</time>
      </trkpt>
      <trkpt lat="46.00217" lon="4.7553">
        <ele>205</ele>
        <time>2016-10-08T09:42:41Z</time>
      </trkpt>
      <trkpt lat="46.00219" lon="4.75541">
        <ele>205</ele>
        <time>2016-10-08T09:42:44Z</time>
      </trkpt>
      <trkpt lat="46.0022" lon="4.75545">
        <ele>206</ele>
        <time>2016-10-08T09:42:45Z</time>
      </trkpt>
      <trkpt lat="46.00222" lon="4.75555">
        <ele>206</ele>
        <time>2016-10-08T09:42:48Z</time>
      </trkpt>
      <trkpt lat="46.00223" lon="4.75559">
        <ele>206</ele>
        <time>2016-10-08T09:42:49Z</time>
      </trkpt>
      <trkpt lat="46.00228" lon="4.75568">
        <ele>206</ele>
        <time>2016-10-08T09:42:52Z</time>
      </trkpt>
      <trkpt lat="46.00229" lon="4.75571">
        <ele>206</ele>
        <time>2016-10-08T09:42:53Z</time>
      </trkpt>
      <trkpt lat="46.00233" lon="4.7558">
        <ele>206</ele>
        <time>2016-10-08T09:42:56Z</time>
      </trkpt>
      <trkpt lat="46.00235" lon="4.75583">
        <ele>206</ele>
        <time>2016-10-08T09:42:57Z</time>
      </trkpt>
      <trkpt lat="46.00239" lon="4.75591">
        <ele>209</ele>
        <time>2016-10-08T09:43:00Z</time>
      </trkpt>
      <trkpt lat="46.00241" lon="4.75593">
        <ele>209</ele>
        <time>2016-10-08T09:43:01Z</time>
      </trkpt>
      <trkpt lat="46.00247" lon="4.756">
        <ele>210</ele>
        <time>2016-10-08T09:43:04Z</time>
      </trkpt>
      <trkpt lat="46.00248" lon="4.75603">
        <ele>210</ele>
        <time>2016-10-08T09:43:05Z</time>
      </trkpt>
      <trkpt lat="46.00253" lon="4.75613">
        <ele>206</ele>
        <time>2016-10-08T09:43:09Z</time>
      </trkpt>
      <trkpt lat="46.00255" lon="4.75615">
        <ele>206</ele>
        <time>2016-10-08T09:43:10Z</time>
      </trkpt>
      <trkpt lat="46.00262" lon="4.75624">
        <ele>206</ele>
        <time>2016-10-08T09:43:14Z</time>
      </trkpt>
      <trkpt lat="46.00263" lon="4.75627">
        <ele>206</ele>
        <time>2016-10-08T09:43:15Z</time>
      </trkpt>
      <trkpt lat="46.00269" lon="4.75637">
        <ele>207</ele>
        <time>2016-10-08T09:43:18Z</time>
      </trkpt>
      <trkpt lat="46.00271" lon="4.7564">
        <ele>207</ele>
        <time>2016-10-08T09:43:19Z</time>
      </trkpt>
      <trkpt lat="46.00277" lon="4.75649">
        <ele>207</ele>
        <time>2016-10-08T09:43:22Z</time>
      </trkpt>
      <trkpt lat="46.00279" lon="4.75652">
        <ele>207</ele>
        <time>2016-10-08T09:43:23Z</time>
      </trkpt>
      <trkpt lat="46.00284" lon="4.75661">
        <ele>207</ele>
        <time>2016-10-08T09:43:26Z</time>
      </trkpt>
      <trkpt lat="46.00285" lon="4.75663">
        <ele>207</ele>
        <time>2016-10-08T09:43:27Z</time>
      </trkpt>
      <trkpt lat="46.00291" lon="4.75673">
        <ele>209</ele>
        <time>2016-10-08T09:43:30Z</time>
      </trkpt>
      <trkpt lat="46.00293" lon="4.75675">
        <ele>208</ele>
        <time>2016-10-08T09:43:31Z</time>
      </trkpt>
      <trkpt lat="46.00298" lon="4.75682">
        <ele>208</ele>
        <time>2016-10-08T09:43:34Z</time>
      </trkpt>
      <trkpt lat="46.003" lon="4.75685">
        <ele>208</ele>
        <time>2016-10-08T09:43:35Z</time>
      </trkpt>
      <trkpt lat="46.00304" lon="4.75692">
        <ele>208</ele>
        <time>2016-10-08T09:43:37Z</time>
      </trkpt>
      <trkpt lat="46.00308" lon="4.75694">
        <ele>208</ele>
        <time>2016-10-08T09:43:38Z</time>
      </trkpt>
      <trkpt lat="46.00314" lon="4.75701">
        <ele>208</ele>
        <time>2016-10-08T09:43:41Z</time>
      </trkpt>
      <trkpt lat="46.00316" lon="4.75704">
        <ele>208</ele>
        <time>2016-10-08T09:43:42Z</time>
      </trkpt>
      <trkpt lat="46.00318" lon="4.75713">
        <ele>208</ele>
        <time>2016-10-08T09:43:45Z</time>
      </trkpt>
      <trkpt lat="46.0032" lon="4.75716">
        <ele>208</ele>
        <time>2016-10-08T09:43:46Z</time>
      </trkpt>
      <trkpt lat="46.00326" lon="4.75724">
        <ele>208</ele>
        <time>2016-10-08T09:43:49Z</time>
      </trkpt>
      <trkpt lat="46.00328" lon="4.75727">
        <ele>208</ele>
        <time>2016-10-08T09:43:50Z</time>
      </trkpt>
      <trkpt lat="46.00336" lon="4.75731">
        <ele>210</ele>
        <time>2016-10-08T09:43:53Z</time>
      </trkpt>
      <trkpt lat="46.00338" lon="4.75733">
        <ele>210</ele>
        <time>2016-10-08T09:43:54Z</time>
      </trkpt>
      <trkpt lat="46.00344" lon="4.7574">
        <ele>210</ele>
        <time>2016-10-08T09:43:57Z</time>
      </trkpt>
      <trkpt lat="46.00345" lon="4.75744">
        <ele>210</ele>
        <time>2016-10-08T09:43:58Z</time>
      </trkpt>
      <trkpt lat="46.00349" lon="4.75751">
        <ele>210</ele>
        <time>2016-10-08T09:44:00Z</time>
      </trkpt>
      <trkpt lat="46.00351" lon="4.75755">
        <ele>211</ele>
        <time>2016-10-08T09:44:01Z</time>
      </trkpt>
      <trkpt lat="46.00356" lon="4.75764">
        <ele>212</ele>
        <time>2016-10-08T09:44:04Z</time>
      </trkpt>
      <trkpt lat="46.00358" lon="4.75767">
        <ele>212</ele>
        <time>2016-10-08T09:44:05Z</time>
      </trkpt>
      <trkpt lat="46.00362" lon="4.75777">
        <ele>212</ele>
        <time>2016-10-08T09:44:08Z</time>
      </trkpt>
      <trkpt lat="46.00364" lon="4.75779">
        <ele>212</ele>
        <time>2016-10-08T09:44:09Z</time>
      </trkpt>
      <trkpt lat="46.00368" lon="4.75789">
        <ele>213</ele>
        <time>2016-10-08T09:44:12Z</time>
      </trkpt>
      <trkpt lat="46.0037" lon="4.75792">
        <ele>213</ele>
        <time>2016-10-08T09:44:13Z</time>
      </trkpt>
      <trkpt lat="46.00375" lon="4.758">
        <ele>213</ele>
        <time>2016-10-08T09:44:16Z</time>
      </trkpt>
      <trkpt lat="46.00377" lon="4.75802">
        <ele>213</ele>
        <time>2016-10-08T09:44:17Z</time>
      </trkpt>
      <trkpt lat="46.00381" lon="4.75811">
        <ele>213</ele>
        <time>2016-10-08T09:44:20Z</time>
      </trkpt>
      <trkpt lat="46.00383" lon="4.75814">
        <ele>213</ele>
        <time>2016-10-08T09:44:21Z</time>
      </trkpt>
      <trkpt lat="46.00388" lon="4.75824">
        <ele>213</ele>
        <time>2016-10-08T09:44:24Z</time>
      </trkpt>
      <trkpt lat="46.0039" lon="4.75827">
        <ele>213</ele>
        <time>2016-10-08T09:44:25Z</time>
      </trkpt>
      <trkpt lat="46.00396" lon="4.75834">
        <ele>214</ele>
        <time>2016-10-08T09:44:28Z</time>
      </trkpt>
      <trkpt lat="46.00398" lon="4.75837">
        <ele>214</ele>
        <time>2016-10-08T09:44:29Z</time>
      </trkpt>
      <trkpt lat="46.00402" lon="4.75845">
        <ele>214</ele>
        <time>2016-10-08T09:44:32Z</time>
      </trkpt>
      <trkpt lat="46.00404" lon="4.75848">
        <ele>214</ele>
        <time>2016-10-08T09:44:33Z</time>
      </trkpt>
      <trkpt lat="46.00407" lon="4.75856">
        <ele>215</ele>
        <time>2016-10-08T09:44:36Z</time>
      </trkpt>
      <trkpt lat="46.00408" lon="4.7586">
        <ele>215</ele>
        <time>2016-10-08T09:44:37Z</time>
      </trkpt>
      <trkpt lat="46.00412" lon="4.75867">
        <ele>215</ele>
        <time>2016-10-08T09:44:40Z</time>
      </trkpt>
      <trkpt lat="46.00414" lon="4.7587">
        <ele>215</ele>
        <time>2016-10-08T09:44:41Z</time>
      </trkpt>
      <trkpt lat="46.0042" lon="4.75876">
        <ele>217</ele>
        <time>2016-10-08T09:44:44Z</time>
      </trkpt>
      <trkpt lat="46.00422" lon="4.75879">
        <ele>217</ele>
        <time>2016-10-08T09:44:45Z</time>
      </trkpt>
      <trkpt lat="46.00426" lon="4.75888">
        <ele>217</ele>
        <time>2016-10-08T09:44:48Z</time>
      </trkpt>
      <trkpt lat="46.00428" lon="4.75891">
        <ele>217</ele>
        <time>2016-10-08T09:44:49Z</time>
      </trkpt>
      <trkpt lat="46.00432" lon="4.759">
        <ele>217</ele>
        <time>2016-10-08T09:44:52Z</time>
      </trkpt>
      <trkpt lat="46.00433" lon="4.75903">
        <ele>217</ele>
        <time>2016-10-08T09:44:53Z</time>
      </trkpt>
      <trkpt lat="46.00438" lon="4.75912">
        <ele>217</ele>
        <time>2016-10-08T09:44:56Z</time>
      </trkpt>
      <trkpt lat="46.00439" lon="4.75915">
        <ele>217</ele>
        <time>2016-10-08T09:44:57Z</time>
      </trkpt>
      <trkpt lat="46.00442" lon="4.75924">
        <ele>218</ele>
        <time>2016-10-08T09:45:00Z</time>
      </trkpt>
      <trkpt lat="46.00443" lon="4.75927">
        <ele>218</ele>
        <time>2016-10-08T09:45:01Z</time>
      </trkpt>
      <trkpt lat="46.00445" lon="4.75938">
        <ele>218</ele>
        <time>2016-10-08T09:45:04Z</time>
      </trkpt>
      <trkpt lat="46.00446" lon="4.75941">
        <ele>218</ele>
        <time>2016-10-08T09:45:05Z</time>
      </trkpt>
      <trkpt lat="46.00447" lon="4.75953">
        <ele>219</ele>
        <time>2016-10-08T09:45:09Z</time>
      </trkpt>
      <trkpt lat="46.00446" lon="4.75955">
        <ele>219</ele>
        <time>2016-10-08T09:45:10Z</time>
      </trkpt>
      <trkpt lat="46.00441" lon="4.75963">
        <ele>219</ele>
        <time>2016-10-08T09:45:13Z</time>
      </trkpt>
      <trkpt lat="46.0044" lon="4.75965">
        <ele>219</ele>
        <time>2016-10-08T09:45:14Z</time>
      </trkpt>
      <trkpt lat="46.00434" lon="4.75972">
        <ele>219</ele>
        <time>2016-10-08T09:45:17Z</time>
      </trkpt>
      <trkpt lat="46.00432" lon="4.75974">
        <ele>219</ele>
        <time>2016-10-08T09:45:18Z</time>
      </trkpt>
      <trkpt lat="46.00427" lon="4.75981">
        <ele>220</ele>
        <time>2016-10-08T09:45:21Z</time>
      </trkpt>
      <trkpt lat="46.00425" lon="4.75983">
        <ele>220</ele>
        <time>2016-10-08T09:45:22Z</time>
      </trkpt>
      <trkpt lat="46.00418" lon="4.7599">
        <ele>220</ele>
        <time>2016-10-08T09:45:25Z</time>
      </trkpt>
      <trkpt lat="46.00416" lon="4.75993">
        <ele>221</ele>
        <time>2016-10-08T09:45:26Z</time>
      </trkpt>
      <trkpt lat="46.00409" lon="4.76">
        <ele>221</ele>
        <time>2016-10-08T09:45:29Z</time>
      </trkpt>
      <trkpt lat="46.00407" lon="4.76002">
        <ele>222</ele>
        <time>2016-10-08T09:45:30Z</time>
      </trkpt>
      <trkpt lat="46.00401" lon="4.76008">
        <ele>223</ele>
        <time>2016-10-08T09:45:33Z</time>
      </trkpt>
      <trkpt lat="46.00399" lon="4.7601">
        <ele>223</ele>
        <time>2016-10-08T09:45:34Z</time>
      </trkpt>
      <trkpt lat="46.00392" lon="4.76016">
        <ele>224</ele>
        <time>2016-10-08T09:45:37Z</time>
      </trkpt>
      <trkpt lat="46.0039" lon="4.76018">
        <ele>224</ele>
        <time>2016-10-08T09:45:38Z</time>
      </trkpt>
      <trkpt lat="46.00383" lon="4.76023">
        <ele>225</ele>
        <time>2016-10-08T09:45:41Z</time>
      </trkpt>
      <trkpt lat="46.00381" lon="4.76024">
        <ele>225</ele>
        <time>2016-10-08T09:45:42Z</time>
      </trkpt>
      <trkpt lat="46.00374" lon="4.76032">
        <ele>225</ele>
        <time>2016-10-08T09:45:45Z</time>
      </trkpt>
      <trkpt lat="46.00372" lon="4.76034">
        <ele>225</ele>
        <time>2016-10-08T09:45:46Z</time>
      </trkpt>
      <trkpt lat="46.00368" lon="4.76043">
        <ele>225</ele>
        <time>2016-10-08T09:45:49Z</time>
      </trkpt>
      <trkpt lat="46.00368" lon="4.76047">
        <ele>226</ele>
        <time>2016-10-08T09:45:50Z</time>
      </trkpt>
      <trkpt lat="46.00368" lon="4.76056">
        <ele>226</ele>
        <time>2016-10-08T09:45:52Z</time>
      </trkpt>
      <trkpt lat="46.00369" lon="4.7606">
        <ele>226</ele>
        <time>2016-10-08T09:45:53Z</time>
      </trkpt>
      <trkpt lat="46.00374" lon="4.76069">
        <ele>226</ele>
        <time>2016-10-08T09:45:56Z</time>
      </trkpt>
      <trkpt lat="46.00376" lon="4.7607">
        <ele>226</ele>
        <time>2016-10-08T09:45:57Z</time>
      </trkpt>
      <trkpt lat="46.00382" lon="4.76072">
        <ele>226</ele>
        <time>2016-10-08T09:45:59Z</time>
      </trkpt>
      <trkpt lat="46.00385" lon="4.76073">
        <ele>226</ele>
        <time>2016-10-08T09:46:00Z</time>
      </trkpt>
      <trkpt lat="46.00394" lon="4.76072">
        <ele>226</ele>
        <time>2016-10-08T09:46:03Z</time>
      </trkpt>
      <trkpt lat="46.00397" lon="4.76072">
        <ele>226</ele>
        <time>2016-10-08T09:46:04Z</time>
      </trkpt>
      <trkpt lat="46.00405" lon="4.76075">
        <ele>226</ele>
        <time>2016-10-08T09:46:07Z</time>
      </trkpt>
      <trkpt lat="46.00408" lon="4.76076">
        <ele>226</ele>
        <time>2016-10-08T09:46:08Z</time>
      </trkpt>
      <trkpt lat="46.00414" lon="4.76078">
        <ele>226</ele>
        <time>2016-10-08T09:46:10Z</time>
      </trkpt>
      <trkpt lat="46.00417" lon="4.7608">
        <ele>226</ele>
        <time>2016-10-08T09:46:11Z</time>
      </trkpt>
      <trkpt lat="46.00425" lon="4.76082">
        <ele>225</ele>
        <time>2016-10-08T09:46:14Z</time>
      </trkpt>
      <trkpt lat="46.00427" lon="4.76083">
        <ele>225</ele>
        <time>2016-10-08T09:46:15Z</time>
      </trkpt>
      <trkpt lat="46.00434" lon="4.76086">
        <ele>227</ele>
        <time>2016-10-08T09:46:18Z</time>
      </trkpt>
      <trkpt lat="46.00436" lon="4.76087">
        <ele>227</ele>
        <time>2016-10-08T09:46:19Z</time>
      </trkpt>
      <trkpt lat="46.00443" lon="4.7609">
        <ele>227</ele>
        <time>2016-10-08T09:46:22Z</time>
      </trkpt>
      <trkpt lat="46.00445" lon="4.76091">
        <ele>227</ele>
        <time>2016-10-08T09:46:23Z</time>
      </trkpt>
      <trkpt lat="46.00452" lon="4.76093">
        <ele>227</ele>
        <time>2016-10-08T09:46:26Z</time>
      </trkpt>
      <trkpt lat="46.00454" lon="4.76095">
        <ele>227</ele>
        <time>2016-10-08T09:46:27Z</time>
      </trkpt>
      <trkpt lat="46.00461" lon="4.76101">
        <ele>227</ele>
        <time>2016-10-08T09:46:30Z</time>
      </trkpt>
      <trkpt lat="46.00463" lon="4.76103">
        <ele>227</ele>
        <time>2016-10-08T09:46:31Z</time>
      </trkpt>
      <trkpt lat="46.00469" lon="4.76109">
        <ele>227</ele>
        <time>2016-10-08T09:46:34Z</time>
      </trkpt>
      <trkpt lat="46.00472" lon="4.76112">
        <ele>227</ele>
        <time>2016-10-08T09:46:35Z</time>
      </trkpt>
      <trkpt lat="46.00477" lon="4.76117">
        <ele>227</ele>
        <time>2016-10-08T09:46:37Z</time>
      </trkpt>
      <trkpt lat="46.0048" lon="4.7612">
        <ele>227</ele>
        <time>2016-10-08T09:46:38Z</time>
      </trkpt>
      <trkpt lat="46.00486" lon="4.76128">
        <ele>228</ele>
        <time>2016-10-08T09:46:41Z</time>
      </trkpt>
      <trkpt lat="46.00488" lon="4.76131">
        <ele>228</ele>
        <time>2016-10-08T09:46:42Z</time>
      </trkpt>
      <trkpt lat="46.00496" lon="4.76138">
        <ele>228</ele>
        <time>2016-10-08T09:46:46Z</time>
      </trkpt>
      <trkpt lat="46.00498" lon="4.7614">
        <ele>228</ele>
        <time>2016-10-08T09:46:47Z</time>
      </trkpt>
      <trkpt lat="46.00504" lon="4.76146">
        <ele>228</ele>
        <time>2016-10-08T09:46:50Z</time>
      </trkpt>
      <trkpt lat="46.00506" lon="4.76147">
        <ele>228</ele>
        <time>2016-10-08T09:46:51Z</time>
      </trkpt>
      <trkpt lat="46.00512" lon="4.76153">
        <ele>228</ele>
        <time>2016-10-08T09:46:54Z</time>
      </trkpt>
      <trkpt lat="46.00513" lon="4.76156">
        <ele>228</ele>
        <time>2016-10-08T09:46:55Z</time>
      </trkpt>
      <trkpt lat="46.00518" lon="4.76164">
        <ele>228</ele>
        <time>2016-10-08T09:46:58Z</time>
      </trkpt>
      <trkpt lat="46.00521" lon="4.76167">
        <ele>228</ele>
        <time>2016-10-08T09:46:59Z</time>
      </trkpt>
      <trkpt lat="46.00528" lon="4.76172">
        <ele>230</ele>
        <time>2016-10-08T09:47:02Z</time>
      </trkpt>
      <trkpt lat="46.00531" lon="4.76174">
        <ele>230</ele>
        <time>2016-10-08T09:47:03Z</time>
      </trkpt>
      <trkpt lat="46.00536" lon="4.76177">
        <ele>230</ele>
        <time>2016-10-08T09:47:05Z</time>
      </trkpt>
      <trkpt lat="46.00539" lon="4.76178">
        <ele>230</ele>
        <time>2016-10-08T09:47:06Z</time>
      </trkpt>
      <trkpt lat="46.00548" lon="4.76182">
        <ele>230</ele>
        <time>2016-10-08T09:47:09Z</time>
      </trkpt>
      <trkpt lat="46.0055" lon="4.76183">
        <ele>230</ele>
        <time>2016-10-08T09:47:10Z</time>
      </trkpt>
      <trkpt lat="46.00558" lon="4.76186">
        <ele>230</ele>
        <time>2016-10-08T09:47:13Z</time>
      </trkpt>
      <trkpt lat="46.0056" lon="4.76188">
        <ele>231</ele>
        <time>2016-10-08T09:47:14Z</time>
      </trkpt>
      <trkpt lat="46.00567" lon="4.76191">
        <ele>231</ele>
        <time>2016-10-08T09:47:16Z</time>
      </trkpt>
      <trkpt lat="46.0057" lon="4.76192">
        <ele>231</ele>
        <time>2016-10-08T09:47:17Z</time>
      </trkpt>
      <trkpt lat="46.00576" lon="4.76194">
        <ele>231</ele>
        <time>2016-10-08T09:47:19Z</time>
      </trkpt>
      <trkpt lat="46.00579" lon="4.76195">
        <ele>231</ele>
        <time>2016-10-08T09:47:20Z</time>
      </trkpt>
      <trkpt lat="46.00587" lon="4.76197">
        <ele>230</ele>
        <time>2016-10-08T09:47:23Z</time>
      </trkpt>
      <trkpt lat="46.0059" lon="4.76198">
        <ele>230</ele>
        <time>2016-10-08T09:47:24Z</time>
      </trkpt>
      <trkpt lat="46.00597" lon="4.76201">
        <ele>230</ele>
        <time>2016-10-08T09:47:27Z</time>
      </trkpt>
      <trkpt lat="46.00599" lon="4.76201">
        <ele>230</ele>
        <time>2016-10-08T09:47:28Z</time>
      </trkpt>
      <trkpt lat="46.00608" lon="4.76203">
        <ele>230</ele>
        <time>2016-10-08T09:47:31Z</time>
      </trkpt>
      <trkpt lat="46.00611" lon="4.76204">
        <ele>230</ele>
        <time>2016-10-08T09:47:32Z</time>
      </trkpt>
      <trkpt lat="46.00618" lon="4.76208">
        <ele>230</ele>
        <time>2016-10-08T09:47:35Z</time>
      </trkpt>
      <trkpt lat="46.0062" lon="4.76209">
        <ele>230</ele>
        <time>2016-10-08T09:47:36Z</time>
      </trkpt>
      <trkpt lat="46.00627" lon="4.76205">
        <ele>230</ele>
        <time>2016-10-08T09:47:39Z</time>
      </trkpt>
      <trkpt lat="46.00629" lon="4.76201">
        <ele>230</ele>
        <time>2016-10-08T09:47:40Z</time>
      </trkpt>
      <trkpt lat="46.0063" lon="4.7619">
        <ele>230</ele>
        <time>2016-10-08T09:47:42Z</time>
      </trkpt>
      <trkpt lat="46.0063" lon="4.76185">
        <ele>230</ele>
        <time>2016-10-08T09:47:43Z</time>
      </trkpt>
      <trkpt lat="46.00634" lon="4.76175">
        <ele>230</ele>
        <time>2016-10-08T09:47:45Z</time>
      </trkpt>
      <trkpt lat="46.00636" lon="4.76169">
        <ele>230</ele>
        <time>2016-10-08T09:47:46Z</time>
      </trkpt>
      <trkpt lat="46.0064" lon="4.76164">
        <ele>228</ele>
        <time>2016-10-08T09:47:47Z</time>
      </trkpt>
      <trkpt lat="46.00644" lon="4.76159">
        <ele>228</ele>
        <time>2016-10-08T09:47:48Z</time>
      </trkpt>
      <trkpt lat="46.00649" lon="4.76153">
        <ele>228</ele>
        <time>2016-10-08T09:47:49Z</time>
      </trkpt>
      <trkpt lat="46.00655" lon="4.76146">
        <ele>228</ele>
        <time>2016-10-08T09:47:50Z</time>
      </trkpt>
      <trkpt lat="46.00661" lon="4.76139">
        <ele>228</ele>
        <time>2016-10-08T09:47:51Z</time>
      </trkpt>
      <trkpt lat="46.00668" lon="4.76133">
        <ele>226</ele>
        <time>2016-10-08T09:47:52Z</time>
      </trkpt>
      <trkpt lat="46.00677" lon="4.76128">
        <ele>226</ele>
        <time>2016-10-08T09:47:53Z</time>
      </trkpt>
      <trkpt lat="46.00685" lon="4.76125">
        <ele>225</ele>
        <time>2016-10-08T09:47:54Z</time>
      </trkpt>
      <trkpt lat="46.00694" lon="4.76124">
        <ele>225</ele>
        <time>2016-10-08T09:47:55Z</time>
      </trkpt>
      <trkpt lat="46.00703" lon="4.76124">
        <ele>225</ele>
        <time>2016-10-08T09:47:56Z</time>
      </trkpt>
      <trkpt lat="46.00713" lon="4.76123">
        <ele>224</ele>
        <time>2016-10-08T09:47:57Z</time>
      </trkpt>
      <trkpt lat="46.00724" lon="4.76123">
        <ele>224</ele>
        <time>2016-10-08T09:47:58Z</time>
      </trkpt>
      <trkpt lat="46.00734" lon="4.76122">
        <ele>223</ele>
        <time>2016-10-08T09:47:59Z</time>
      </trkpt>
      <trkpt lat="46.00745" lon="4.7612">
        <ele>223</ele>
        <time>2016-10-08T09:48:00Z</time>
      </trkpt>
      <trkpt lat="46.00756" lon="4.76118">
        <ele>219</ele>
        <time>2016-10-08T09:48:01Z</time>
      </trkpt>
      <trkpt lat="46.00766" lon="4.76117">
        <ele>219</ele>
        <time>2016-10-08T09:48:02Z</time>
      </trkpt>
      <trkpt lat="46.00777" lon="4.76115">
        <ele>219</ele>
        <time>2016-10-08T09:48:03Z</time>
      </trkpt>
      <trkpt lat="46.00787" lon="4.76114">
        <ele>219</ele>
        <time>2016-10-08T09:48:04Z</time>
      </trkpt>
      <trkpt lat="46.00797" lon="4.76113">
        <ele>218</ele>
        <time>2016-10-08T09:48:05Z</time>
      </trkpt>
      <trkpt lat="46.00808" lon="4.76112">
        <ele>218</ele>
        <time>2016-10-08T09:48:06Z</time>
      </trkpt>
      <trkpt lat="46.00818" lon="4.76111">
        <ele>218</ele>
        <time>2016-10-08T09:48:07Z</time>
      </trkpt>
      <trkpt lat="46.00827" lon="4.7611">
        <ele>218</ele>
        <time>2016-10-08T09:48:08Z</time>
      </trkpt>
      <trkpt lat="46.00837" lon="4.76109">
        <ele>216</ele>
        <time>2016-10-08T09:48:09Z</time>
      </trkpt>
      <trkpt lat="46.00847" lon="4.76106">
        <ele>216</ele>
        <time>2016-10-08T09:48:10Z</time>
      </trkpt>
      <trkpt lat="46.00856" lon="4.76104">
        <ele>215</ele>
        <time>2016-10-08T09:48:11Z</time>
      </trkpt>
      <trkpt lat="46.00865" lon="4.76101">
        <ele>215</ele>
        <time>2016-10-08T09:48:12Z</time>
      </trkpt>
      <trkpt lat="46.00874" lon="4.76099">
        <ele>215</ele>
        <time>2016-10-08T09:48:13Z</time>
      </trkpt>
      <trkpt lat="46.00883" lon="4.76096">
        <ele>215</ele>
        <time>2016-10-08T09:48:14Z</time>
      </trkpt>
      <trkpt lat="46.00892" lon="4.76094">
        <ele>215</ele>
        <time>2016-10-08T09:48:15Z</time>
      </trkpt>
      <trkpt lat="46.009" lon="4.76092">
        <ele>214</ele>
        <time>2016-10-08T09:48:16Z</time>
      </trkpt>
      <trkpt lat="46.00909" lon="4.7609">
        <ele>214</ele>
        <time>2016-10-08T09:48:17Z</time>
      </trkpt>
      <trkpt lat="46.00917" lon="4.76087">
        <ele>213</ele>
        <time>2016-10-08T09:48:18Z</time>
      </trkpt>
      <trkpt lat="46.00925" lon="4.76086">
        <ele>213</ele>
        <time>2016-10-08T09:48:19Z</time>
      </trkpt>
      <trkpt lat="46.00934" lon="4.76084">
        <ele>213</ele>
        <time>2016-10-08T09:48:20Z</time>
      </trkpt>
      <trkpt lat="46.00942" lon="4.76082">
        <ele>212</ele>
        <time>2016-10-08T09:48:21Z</time>
      </trkpt>
      <trkpt lat="46.0095" lon="4.76081">
        <ele>212</ele>
        <time>2016-10-08T09:48:22Z</time>
      </trkpt>
      <trkpt lat="46.00959" lon="4.76078">
        <ele>212</ele>
        <time>2016-10-08T09:48:23Z</time>
      </trkpt>
      <trkpt lat="46.00966" lon="4.76077">
        <ele>212</ele>
        <time>2016-10-08T09:48:24Z</time>
      </trkpt>
      <trkpt lat="46.00974" lon="4.76074">
        <ele>212</ele>
        <time>2016-10-08T09:48:25Z</time>
      </trkpt>
      <trkpt lat="46.00981" lon="4.76072">
        <ele>212</ele>
        <time>2016-10-08T09:48:26Z</time>
      </trkpt>
      <trkpt lat="46.00989" lon="4.76071">
        <ele>212</ele>
        <time>2016-10-08T09:48:27Z</time>
      </trkpt>
      <trkpt lat="46.00997" lon="4.7607">
        <ele>212</ele>
        <time>2016-10-08T09:48:28Z</time>
      </trkpt>
      <trkpt lat="46.01005" lon="4.76069">
        <ele>211</ele>
        <time>2016-10-08T09:48:29Z</time>
      </trkpt>
      <trkpt lat="46.01013" lon="4.76069">
        <ele>211</ele>
        <time>2016-10-08T09:48:30Z</time>
      </trkpt>
      <trkpt lat="46.0102" lon="4.76068">
        <ele>210</ele>
        <time>2016-10-08T09:48:31Z</time>
      </trkpt>
      <trkpt lat="46.01028" lon="4.76067">
        <ele>210</ele>
        <time>2016-10-08T09:48:32Z</time>
      </trkpt>
      <trkpt lat="46.01035" lon="4.76066">
        <ele>210</ele>
        <time>2016-10-08T09:48:33Z</time>
      </trkpt>
      <trkpt lat="46.01043" lon="4.76066">
        <ele>210</ele>
        <time>2016-10-08T09:48:34Z</time>
      </trkpt>
      <trkpt lat="46.0105" lon="4.76065">
        <ele>210</ele>
        <time>2016-10-08T09:48:35Z</time>
      </trkpt>
      <trkpt lat="46.01058" lon="4.76065">
        <ele>209</ele>
        <time>2016-10-08T09:48:36Z</time>
      </trkpt>
      <trkpt lat="46.01066" lon="4.76064">
        <ele>209</ele>
        <time>2016-10-08T09:48:37Z</time>
      </trkpt>
      <trkpt lat="46.01073" lon="4.76064">
        <ele>209</ele>
        <time>2016-10-08T09:48:38Z</time>
      </trkpt>
      <trkpt lat="46.01081" lon="4.76064">
        <ele>209</ele>
        <time>2016-10-08T09:48:39Z</time>
      </trkpt>
      <trkpt lat="46.01088" lon="4.76065">
        <ele>208</ele>
        <time>2016-10-08T09:48:40Z</time>
      </trkpt>
      <trkpt lat="46.01095" lon="4.76063">
        <ele>208</ele>
        <time>2016-10-08T09:48:41Z</time>
      </trkpt>
      <trkpt lat="46.01102" lon="4.76062">
        <ele>208</ele>
        <time>2016-10-08T09:48:42Z</time>
      </trkpt>
      <trkpt lat="46.0111" lon="4.76062">
        <ele>208</ele>
        <time>2016-10-08T09:48:43Z</time>
      </trkpt>
      <trkpt lat="46.01117" lon="4.76061">
        <ele>208</ele>
        <time>2016-10-08T09:48:44Z</time>
      </trkpt>
      <trkpt lat="46.01124" lon="4.76059">
        <ele>208</ele>
        <time>2016-10-08T09:48:45Z</time>
      </trkpt>
      <trkpt lat="46.01131" lon="4.76058">
        <ele>208</ele>
        <time>2016-10-08T09:48:46Z</time>
      </trkpt>
      <trkpt lat="46.01138" lon="4.76057">
        <ele>208</ele>
        <time>2016-10-08T09:48:47Z</time>
      </trkpt>
      <trkpt lat="46.01145" lon="4.76057">
        <ele>208</ele>
        <time>2016-10-08T09:48:48Z</time>
      </trkpt>
      <trkpt lat="46.01152" lon="4.76056">
        <ele>208</ele>
        <time>2016-10-08T09:48:49Z</time>
      </trkpt>
      <trkpt lat="46.01159" lon="4.76056">
        <ele>208</ele>
        <time>2016-10-08T09:48:50Z</time>
      </trkpt>
      <trkpt lat="46.01166" lon="4.76057">
        <ele>208</ele>
        <time>2016-10-08T09:48:51Z</time>
      </trkpt>
      <trkpt lat="46.01172" lon="4.76057">
        <ele>207</ele>
        <time>2016-10-08T09:48:52Z</time>
      </trkpt>
      <trkpt lat="46.01179" lon="4.76058">
        <ele>207</ele>
        <time>2016-10-08T09:48:53Z</time>
      </trkpt>
      <trkpt lat="46.01184" lon="4.76059">
        <ele>206</ele>
        <time>2016-10-08T09:48:54Z</time>
      </trkpt>
      <trkpt lat="46.01191" lon="4.7606">
        <ele>206</ele>
        <time>2016-10-08T09:48:55Z</time>
      </trkpt>
      <trkpt lat="46.01197" lon="4.76062">
        <ele>206</ele>
        <time>2016-10-08T09:48:56Z</time>
      </trkpt>
      <trkpt lat="46.01204" lon="4.76065">
        <ele>206</ele>
        <time>2016-10-08T09:48:57Z</time>
      </trkpt>
      <trkpt lat="46.01211" lon="4.76068">
        <ele>206</ele>
        <time>2016-10-08T09:48:58Z</time>
      </trkpt>
      <trkpt lat="46.01218" lon="4.7607">
        <ele>206</ele>
        <time>2016-10-08T09:48:59Z</time>
      </trkpt>
      <trkpt lat="46.01225" lon="4.76072">
        <ele>206</ele>
        <time>2016-10-08T09:49:00Z</time>
      </trkpt>
      <trkpt lat="46.01232" lon="4.76073">
        <ele>205</ele>
        <time>2016-10-08T09:49:01Z</time>
      </trkpt>
      <trkpt lat="46.01239" lon="4.76074">
        <ele>205</ele>
        <time>2016-10-08T09:49:02Z</time>
      </trkpt>
      <trkpt lat="46.01247" lon="4.76075">
        <ele>205</ele>
        <time>2016-10-08T09:49:03Z</time>
      </trkpt>
      <trkpt lat="46.01254" lon="4.76075">
        <ele>204</ele>
        <time>2016-10-08T09:49:04Z</time>
      </trkpt>
      <trkpt lat="46.01261" lon="4.76074">
        <ele>204</ele>
        <time>2016-10-08T09:49:05Z</time>
      </trkpt>
      <trkpt lat="46.01269" lon="4.76074">
        <ele>204</ele>
        <time>2016-10-08T09:49:06Z</time>
      </trkpt>
      <trkpt lat="46.01276" lon="4.76072">
        <ele>204</ele>
        <time>2016-10-08T09:49:07Z</time>
      </trkpt>
      <trkpt lat="46.01283" lon="4.76071">
        <ele>204</ele>
        <time>2016-10-08T09:49:08Z</time>
      </trkpt>
      <trkpt lat="46.0129" lon="4.76068">
        <ele>204</ele>
        <time>2016-10-08T09:49:09Z</time>
      </trkpt>
      <trkpt lat="46.01297" lon="4.76066">
        <ele>203</ele>
        <time>2016-10-08T09:49:10Z</time>
      </trkpt>
      <trkpt lat="46.01304" lon="4.76063">
        <ele>203</ele>
        <time>2016-10-08T09:49:11Z</time>
      </trkpt>
      <trkpt lat="46.01311" lon="4.76061">
        <ele>203</ele>
        <time>2016-10-08T09:49:12Z</time>
      </trkpt>
      <trkpt lat="46.01318" lon="4.76059">
        <ele>203</ele>
        <time>2016-10-08T09:49:13Z</time>
      </trkpt>
      <trkpt lat="46.01324" lon="4.76058">
        <ele>203</ele>
        <time>2016-10-08T09:49:14Z</time>
      </trkpt>
      <trkpt lat="46.01331" lon="4.76056">
        <ele>203</ele>
        <time>2016-10-08T09:49:15Z</time>
      </trkpt>
      <trkpt lat="46.01338" lon="4.76054">
        <ele>203</ele>
        <time>2016-10-08T09:49:16Z</time>
      </trkpt>
      <trkpt lat="46.01344" lon="4.76052">
        <ele>203</ele>
        <time>2016-10-08T09:49:17Z</time>
      </trkpt>
      <trkpt lat="46.01351" lon="4.76051">
        <ele>203</ele>
        <time>2016-10-08T09:49:18Z</time>
      </trkpt>
      <trkpt lat="46.01357" lon="4.76049">
        <ele>203</ele>
        <time>2016-10-08T09:49:19Z</time>
      </trkpt>
      <trkpt lat="46.01363" lon="4.76047">
        <ele>203</ele>
        <time>2016-10-08T09:49:20Z</time>
      </trkpt>
      <trkpt lat="46.01369" lon="4.76045">
        <ele>203</ele>
        <time>2016-10-08T09:49:21Z</time>
      </trkpt>
      <trkpt lat="46.01375" lon="4.76043">
        <ele>203</ele>
        <time>2016-10-08T09:49:22Z</time>
      </trkpt>
      <trkpt lat="46.01381" lon="4.76043">
        <ele>203</ele>
        <time>2016-10-08T09:49:23Z</time>
      </trkpt>
      <trkpt lat="46.01386" lon="4.7604">
        <ele>203</ele>
        <time>2016-10-08T09:49:24Z</time>
      </trkpt>
      <trkpt lat="46.01392" lon="4.7604">
        <ele>203</ele>
        <time>2016-10-08T09:49:25Z</time>
      </trkpt>
      <trkpt lat="46.01398" lon="4.76041">
        <ele>203</ele>
        <time>2016-10-08T09:49:26Z</time>
      </trkpt>
      <trkpt lat="46.01403" lon="4.76042">
        <ele>203</ele>
        <time>2016-10-08T09:49:27Z</time>
      </trkpt>
      <trkpt lat="46.01409" lon="4.76045">
        <ele>203</ele>
        <time>2016-10-08T09:49:28Z</time>
      </trkpt>
      <trkpt lat="46.01415" lon="4.76049">
        <ele>203</ele>
        <time>2016-10-08T09:49:29Z</time>
      </trkpt>
      <trkpt lat="46.01421" lon="4.76053">
        <ele>204</ele>
        <time>2016-10-08T09:49:30Z</time>
      </trkpt>
      <trkpt lat="46.01427" lon="4.76057">
        <ele>203</ele>
        <time>2016-10-08T09:49:31Z</time>
      </trkpt>
      <trkpt lat="46.01432" lon="4.76061">
        <ele>203</ele>
        <time>2016-10-08T09:49:32Z</time>
      </trkpt>
      <trkpt lat="46.01438" lon="4.76065">
        <ele>203</ele>
        <time>2016-10-08T09:49:33Z</time>
      </trkpt>
      <trkpt lat="46.01443" lon="4.76068">
        <ele>203</ele>
        <time>2016-10-08T09:49:34Z</time>
      </trkpt>
      <trkpt lat="46.01449" lon="4.7607">
        <ele>203</ele>
        <time>2016-10-08T09:49:35Z</time>
      </trkpt>
      <trkpt lat="46.01456" lon="4.76072">
        <ele>203</ele>
        <time>2016-10-08T09:49:36Z</time>
      </trkpt>
      <trkpt lat="46.01462" lon="4.76074">
        <ele>203</ele>
        <time>2016-10-08T09:49:37Z</time>
      </trkpt>
      <trkpt lat="46.01469" lon="4.76076">
        <ele>203</ele>
        <time>2016-10-08T09:49:38Z</time>
      </trkpt>
      <trkpt lat="46.01475" lon="4.76077">
        <ele>203</ele>
        <time>2016-10-08T09:49:39Z</time>
      </trkpt>
      <trkpt lat="46.01482" lon="4.7608">
        <ele>203</ele>
        <time>2016-10-08T09:49:40Z</time>
      </trkpt>
      <trkpt lat="46.01488" lon="4.76082">
        <ele>203</ele>
        <time>2016-10-08T09:49:41Z</time>
      </trkpt>
      <trkpt lat="46.01495" lon="4.76083">
        <ele>203</ele>
        <time>2016-10-08T09:49:42Z</time>
      </trkpt>
      <trkpt lat="46.01501" lon="4.76084">
        <ele>203</ele>
        <time>2016-10-08T09:49:43Z</time>
      </trkpt>
      <trkpt lat="46.01508" lon="4.76085">
        <ele>203</ele>
        <time>2016-10-08T09:49:44Z</time>
      </trkpt>
      <trkpt lat="46.01515" lon="4.76087">
        <ele>203</ele>
        <time>2016-10-08T09:49:45Z</time>
      </trkpt>
      <trkpt lat="46.01521" lon="4.76089">
        <ele>203</ele>
        <time>2016-10-08T09:49:46Z</time>
      </trkpt>
      <trkpt lat="46.01527" lon="4.76092">
        <ele>202</ele>
        <time>2016-10-08T09:49:47Z</time>
      </trkpt>
      <trkpt lat="46.01533" lon="4.76094">
        <ele>202</ele>
        <time>2016-10-08T09:49:48Z</time>
      </trkpt>
      <trkpt lat="46.01539" lon="4.76096">
        <ele>202</ele>
        <time>2016-10-08T09:49:49Z</time>
      </trkpt>
      <trkpt lat="46.01545" lon="4.76098">
        <ele>202</ele>
        <time>2016-10-08T09:49:50Z</time>
      </trkpt>
      <trkpt lat="46.01551" lon="4.76101">
        <ele>202</ele>
        <time>2016-10-08T09:49:51Z</time>
      </trkpt>
      <trkpt lat="46.01556" lon="4.76104">
        <ele>202</ele>
        <time>2016-10-08T09:49:52Z</time>
      </trkpt>
      <trkpt lat="46.01562" lon="4.76107">
        <ele>202</ele>
        <time>2016-10-08T09:49:53Z</time>
      </trkpt>
      <trkpt lat="46.01568" lon="4.76109">
        <ele>202</ele>
        <time>2016-10-08T09:49:54Z</time>
      </trkpt>
      <trkpt lat="46.01572" lon="4.76113">
        <ele>202</ele>
        <time>2016-10-08T09:49:55Z</time>
      </trkpt>
      <trkpt lat="46.01577" lon="4.76115">
        <ele>202</ele>
        <time>2016-10-08T09:49:56Z</time>
      </trkpt>
      <trkpt lat="46.01584" lon="4.76116">
        <ele>200</ele>
        <time>2016-10-08T09:49:57Z</time>
      </trkpt>
      <trkpt lat="46.01591" lon="4.76116">
        <ele>200</ele>
        <time>2016-10-08T09:49:58Z</time>
      </trkpt>
      <trkpt lat="46.01598" lon="4.76117">
        <ele>200</ele>
        <time>2016-10-08T09:49:59Z</time>
      </trkpt>
      <trkpt lat="46.01606" lon="4.76119">
        <ele>200</ele>
        <time>2016-10-08T09:50:00Z</time>
      </trkpt>
      <trkpt lat="46.01614" lon="4.76117">
        <ele>200</ele>
        <time>2016-10-08T09:50:01Z</time>
      </trkpt>
      <trkpt lat="46.01622" lon="4.76115">
        <ele>200</ele>
        <time>2016-10-08T09:50:02Z</time>
      </trkpt>
      <trkpt lat="46.01631" lon="4.76112">
        <ele>199</ele>
        <time>2016-10-08T09:50:03Z</time>
      </trkpt>
      <trkpt lat="46.01639" lon="4.76107">
        <ele>199</ele>
        <time>2016-10-08T09:50:04Z</time>
      </trkpt>
      <trkpt lat="46.01646" lon="4.7611">
        <ele>199</ele>
        <time>2016-10-08T09:50:05Z</time>
      </trkpt>
      <trkpt lat="46.01652" lon="4.76112">
        <ele>199</ele>
        <time>2016-10-08T09:50:06Z</time>
      </trkpt>
      <trkpt lat="46.01659" lon="4.76115">
        <ele>199</ele>
        <time>2016-10-08T09:50:07Z</time>
      </trkpt>
      <trkpt lat="46.01665" lon="4.76116">
        <ele>199</ele>
        <time>2016-10-08T09:50:08Z</time>
      </trkpt>
      <trkpt lat="46.01672" lon="4.76117">
        <ele>198</ele>
        <time>2016-10-08T09:50:09Z</time>
      </trkpt>
      <trkpt lat="46.01678" lon="4.76117">
        <ele>198</ele>
        <time>2016-10-08T09:50:10Z</time>
      </trkpt>
      <trkpt lat="46.01685" lon="4.76119">
        <ele>198</ele>
        <time>2016-10-08T09:50:11Z</time>
      </trkpt>
      <trkpt lat="46.01691" lon="4.7612">
        <ele>198</ele>
        <time>2016-10-08T09:50:12Z</time>
      </trkpt>
      <trkpt lat="46.01697" lon="4.76122">
        <ele>198</ele>
        <time>2016-10-08T09:50:13Z</time>
      </trkpt>
      <trkpt lat="46.01703" lon="4.76125">
        <ele>198</ele>
        <time>2016-10-08T09:50:14Z</time>
      </trkpt>
      <trkpt lat="46.0171" lon="4.76128">
        <ele>197</ele>
        <time>2016-10-08T09:50:15Z</time>
      </trkpt>
      <trkpt lat="46.01712" lon="4.76134">
        <ele>197</ele>
        <time>2016-10-08T09:50:16Z</time>
      </trkpt>
      <trkpt lat="46.01719" lon="4.76138">
        <ele>197</ele>
        <time>2016-10-08T09:50:18Z</time>
      </trkpt>
      <trkpt lat="46.01725" lon="4.7614">
        <ele>197</ele>
        <time>2016-10-08T09:50:19Z</time>
      </trkpt>
      <trkpt lat="46.01732" lon="4.76138">
        <ele>197</ele>
        <time>2016-10-08T09:50:20Z</time>
      </trkpt>
      <trkpt lat="46.01739" lon="4.76137">
        <ele>197</ele>
        <time>2016-10-08T09:50:21Z</time>
      </trkpt>
      <trkpt lat="46.01746" lon="4.76137">
        <ele>197</ele>
        <time>2016-10-08T09:50:22Z</time>
      </trkpt>
      <trkpt lat="46.01753" lon="4.76138">
        <ele>197</ele>
        <time>2016-10-08T09:50:23Z</time>
      </trkpt>
      <trkpt lat="46.01763" lon="4.76139">
        <ele>197</ele>
        <time>2016-10-08T09:50:24Z</time>
      </trkpt>
      <trkpt lat="46.01773" lon="4.76146">
        <ele>198</ele>
        <time>2016-10-08T09:50:25Z</time>
      </trkpt>
      <trkpt lat="46.01781" lon="4.76149">
        <ele>198</ele>
        <time>2016-10-08T09:50:26Z</time>
      </trkpt>
      <trkpt lat="46.01788" lon="4.76152">
        <ele>198</ele>
        <time>2016-10-08T09:50:27Z</time>
      </trkpt>
      <trkpt lat="46.01793" lon="4.76146">
        <ele>198</ele>
        <time>2016-10-08T09:50:28Z</time>
      </trkpt>
      <trkpt lat="46.01798" lon="4.76144">
        <ele>198</ele>
        <time>2016-10-08T09:50:29Z</time>
      </trkpt>
      <trkpt lat="46.01804" lon="4.76143">
        <ele>198</ele>
        <time>2016-10-08T09:50:30Z</time>
      </trkpt>
      <trkpt lat="46.01809" lon="4.76143">
        <ele>198</ele>
        <time>2016-10-08T09:50:31Z</time>
      </trkpt>
      <trkpt lat="46.01815" lon="4.76141">
        <ele>198</ele>
        <time>2016-10-08T09:50:32Z</time>
      </trkpt>
      <trkpt lat="46.0182" lon="4.7614">
        <ele>198</ele>
        <time>2016-10-08T09:50:33Z</time>
      </trkpt>
      <trkpt lat="46.01825" lon="4.76141">
        <ele>198</ele>
        <time>2016-10-08T09:50:34Z</time>
      </trkpt>
      <trkpt lat="46.0183" lon="4.76141">
        <ele>198</ele>
        <time>2016-10-08T09:50:35Z</time>
      </trkpt>
      <trkpt lat="46.01835" lon="4.76142">
        <ele>199</ele>
        <time>2016-10-08T09:50:36Z</time>
      </trkpt>
      <trkpt lat="46.0184" lon="4.76143">
        <ele>199</ele>
        <time>2016-10-08T09:50:37Z</time>
      </trkpt>
      <trkpt lat="46.01846" lon="4.76143">
        <ele>199</ele>
        <time>2016-10-08T09:50:38Z</time>
      </trkpt>
      <trkpt lat="46.01851" lon="4.76143">
        <ele>199</ele>
        <time>2016-10-08T09:50:39Z</time>
      </trkpt>
      <trkpt lat="46.01856" lon="4.76143">
        <ele>199</ele>
        <time>2016-10-08T09:50:40Z</time>
      </trkpt>
      <trkpt lat="46.01861" lon="4.76143">
        <ele>199</ele>
        <time>2016-10-08T09:50:41Z</time>
      </trkpt>
      <trkpt lat="46.01868" lon="4.76143">
        <ele>199</ele>
        <time>2016-10-08T09:50:42Z</time>
      </trkpt>
      <trkpt lat="46.01873" lon="4.76143">
        <ele>199</ele>
        <time>2016-10-08T09:50:43Z</time>
      </trkpt>
      <trkpt lat="46.01879" lon="4.7614">
        <ele>199</ele>
        <time>2016-10-08T09:50:45Z</time>
      </trkpt>
      <trkpt lat="46.01884" lon="4.76138">
        <ele>199</ele>
        <time>2016-10-08T09:50:46Z</time>
      </trkpt>
      <trkpt lat="46.01889" lon="4.76136">
        <ele>199</ele>
        <time>2016-10-08T09:50:47Z</time>
      </trkpt>
      <trkpt lat="46.01894" lon="4.76135">
        <ele>199</ele>
        <time>2016-10-08T09:50:48Z</time>
      </trkpt>
      <trkpt lat="46.019" lon="4.76133">
        <ele>199</ele>
        <time>2016-10-08T09:50:49Z</time>
      </trkpt>
      <trkpt lat="46.01905" lon="4.76131">
        <ele>199</ele>
        <time>2016-10-08T09:50:50Z</time>
      </trkpt>
      <trkpt lat="46.01912" lon="4.76128">
        <ele>199</ele>
        <time>2016-10-08T09:50:51Z</time>
      </trkpt>
      <trkpt lat="46.01918" lon="4.76127">
        <ele>199</ele>
        <time>2016-10-08T09:50:52Z</time>
      </trkpt>
      <trkpt lat="46.01923" lon="4.76126">
        <ele>199</ele>
        <time>2016-10-08T09:50:53Z</time>
      </trkpt>
      <trkpt lat="46.01927" lon="4.76125">
        <ele>199</ele>
        <time>2016-10-08T09:50:54Z</time>
      </trkpt>
      <trkpt lat="46.01932" lon="4.76124">
        <ele>198</ele>
        <time>2016-10-08T09:50:55Z</time>
      </trkpt>
      <trkpt lat="46.01937" lon="4.76123">
        <ele>198</ele>
        <time>2016-10-08T09:50:56Z</time>
      </trkpt>
      <trkpt lat="46.01942" lon="4.76115">
        <ele>198</ele>
        <time>2016-10-08T09:50:57Z</time>
      </trkpt>
      <trkpt lat="46.01948" lon="4.76112">
        <ele>198</ele>
        <time>2016-10-08T09:50:58Z</time>
      </trkpt>
      <trkpt lat="46.01953" lon="4.76111">
        <ele>198</ele>
        <time>2016-10-08T09:50:59Z</time>
      </trkpt>
      <trkpt lat="46.01958" lon="4.7611">
        <ele>198</ele>
        <time>2016-10-08T09:51:00Z</time>
      </trkpt>
      <trkpt lat="46.01962" lon="4.7611">
        <ele>198</ele>
        <time>2016-10-08T09:51:01Z</time>
      </trkpt>
      <trkpt lat="46.01967" lon="4.7611">
        <ele>198</ele>
        <time>2016-10-08T09:51:02Z</time>
      </trkpt>
      <trkpt lat="46.01972" lon="4.76109">
        <ele>198</ele>
        <time>2016-10-08T09:51:03Z</time>
      </trkpt>
      <trkpt lat="46.01977" lon="4.76107">
        <ele>198</ele>
        <time>2016-10-08T09:51:04Z</time>
      </trkpt>
      <trkpt lat="46.01982" lon="4.76104">
        <ele>198</ele>
        <time>2016-10-08T09:51:05Z</time>
      </trkpt>
      <trkpt lat="46.01986" lon="4.76104">
        <ele>198</ele>
        <time>2016-10-08T09:51:06Z</time>
      </trkpt>
      <trkpt lat="46.01995" lon="4.76103">
        <ele>198</ele>
        <time>2016-10-08T09:51:08Z</time>
      </trkpt>
      <trkpt lat="46.02" lon="4.76103">
        <ele>198</ele>
        <time>2016-10-08T09:51:09Z</time>
      </trkpt>
      <trkpt lat="46.02005" lon="4.76102">
        <ele>197</ele>
        <time>2016-10-08T09:51:10Z</time>
      </trkpt>
      <trkpt lat="46.02009" lon="4.761">
        <ele>197</ele>
        <time>2016-10-08T09:51:11Z</time>
      </trkpt>
      <trkpt lat="46.02014" lon="4.76099">
        <ele>197</ele>
        <time>2016-10-08T09:51:12Z</time>
      </trkpt>
      <trkpt lat="46.02019" lon="4.76097">
        <ele>197</ele>
        <time>2016-10-08T09:51:13Z</time>
      </trkpt>
      <trkpt lat="46.02025" lon="4.76095">
        <ele>197</ele>
        <time>2016-10-08T09:51:14Z</time>
      </trkpt>
      <trkpt lat="46.02031" lon="4.76093">
        <ele>197</ele>
        <time>2016-10-08T09:51:15Z</time>
      </trkpt>
      <trkpt lat="46.02037" lon="4.76092">
        <ele>197</ele>
        <time>2016-10-08T09:51:16Z</time>
      </trkpt>
      <trkpt lat="46.02043" lon="4.76089">
        <ele>197</ele>
        <time>2016-10-08T09:51:17Z</time>
      </trkpt>
      <trkpt lat="46.02048" lon="4.76085">
        <ele>197</ele>
        <time>2016-10-08T09:51:18Z</time>
      </trkpt>
      <trkpt lat="46.02055" lon="4.76083">
        <ele>195</ele>
        <time>2016-10-08T09:51:19Z</time>
      </trkpt>
      <trkpt lat="46.02061" lon="4.76083">
        <ele>195</ele>
        <time>2016-10-08T09:51:20Z</time>
      </trkpt>
      <trkpt lat="46.02067" lon="4.76083">
        <ele>195</ele>
        <time>2016-10-08T09:51:21Z</time>
      </trkpt>
      <trkpt lat="46.02074" lon="4.76084">
        <ele>196</ele>
        <time>2016-10-08T09:51:22Z</time>
      </trkpt>
      <trkpt lat="46.0208" lon="4.76083">
        <ele>196</ele>
        <time>2016-10-08T09:51:23Z</time>
      </trkpt>
      <trkpt lat="46.02086" lon="4.76081">
        <ele>196</ele>
        <time>2016-10-08T09:51:24Z</time>
      </trkpt>
      <trkpt lat="46.02092" lon="4.76078">
        <ele>195</ele>
        <time>2016-10-08T09:51:25Z</time>
      </trkpt>
      <trkpt lat="46.02098" lon="4.76074">
        <ele>195</ele>
        <time>2016-10-08T09:51:26Z</time>
      </trkpt>
      <trkpt lat="46.02104" lon="4.76071">
        <ele>194</ele>
        <time>2016-10-08T09:51:27Z</time>
      </trkpt>
      <trkpt lat="46.0211" lon="4.76067">
        <ele>194</ele>
        <time>2016-10-08T09:51:28Z</time>
      </trkpt>
      <trkpt lat="46.02115" lon="4.76063">
        <ele>194</ele>
        <time>2016-10-08T09:51:29Z</time>
      </trkpt>
      <trkpt lat="46.02121" lon="4.76058">
        <ele>194</ele>
        <time>2016-10-08T09:51:30Z</time>
      </trkpt>
      <trkpt lat="46.02127" lon="4.76053">
        <ele>194</ele>
        <time>2016-10-08T09:51:31Z</time>
      </trkpt>
      <trkpt lat="46.02133" lon="4.76048">
        <ele>194</ele>
        <time>2016-10-08T09:51:32Z</time>
      </trkpt>
      <trkpt lat="46.02139" lon="4.76044">
        <ele>193</ele>
        <time>2016-10-08T09:51:33Z</time>
      </trkpt>
      <trkpt lat="46.02144" lon="4.76039">
        <ele>193</ele>
        <time>2016-10-08T09:51:34Z</time>
      </trkpt>
      <trkpt lat="46.0215" lon="4.76034">
        <ele>193</ele>
        <time>2016-10-08T09:51:35Z</time>
      </trkpt>
      <trkpt lat="46.02155" lon="4.76029">
        <ele>193</ele>
        <time>2016-10-08T09:51:36Z</time>
      </trkpt>
      <trkpt lat="46.02161" lon="4.76024">
        <ele>193</ele>
        <time>2016-10-08T09:51:37Z</time>
      </trkpt>
      <trkpt lat="46.02166" lon="4.7602">
        <ele>193</ele>
        <time>2016-10-08T09:51:38Z</time>
      </trkpt>
      <trkpt lat="46.02171" lon="4.76015">
        <ele>193</ele>
        <time>2016-10-08T09:51:39Z</time>
      </trkpt>
      <trkpt lat="46.02177" lon="4.7601">
        <ele>193</ele>
        <time>2016-10-08T09:51:40Z</time>
      </trkpt>
      <trkpt lat="46.02182" lon="4.76005">
        <ele>193</ele>
        <time>2016-10-08T09:51:41Z</time>
      </trkpt>
      <trkpt lat="46.02188" lon="4.76001">
        <ele>193</ele>
        <time>2016-10-08T09:51:42Z</time>
      </trkpt>
      <trkpt lat="46.02193" lon="4.75996">
        <ele>192</ele>
        <time>2016-10-08T09:51:43Z</time>
      </trkpt>
      <trkpt lat="46.02198" lon="4.75991">
        <ele>192</ele>
        <time>2016-10-08T09:51:44Z</time>
      </trkpt>
      <trkpt lat="46.02202" lon="4.75986">
        <ele>192</ele>
        <time>2016-10-08T09:51:45Z</time>
      </trkpt>
      <trkpt lat="46.02208" lon="4.75981">
        <ele>193</ele>
        <time>2016-10-08T09:51:46Z</time>
      </trkpt>
      <trkpt lat="46.02213" lon="4.75976">
        <ele>193</ele>
        <time>2016-10-08T09:51:47Z</time>
      </trkpt>
      <trkpt lat="46.02218" lon="4.75972">
        <ele>193</ele>
        <time>2016-10-08T09:51:48Z</time>
      </trkpt>
      <trkpt lat="46.02224" lon="4.75968">
        <ele>193</ele>
        <time>2016-10-08T09:51:49Z</time>
      </trkpt>
      <trkpt lat="46.02229" lon="4.75964">
        <ele>193</ele>
        <time>2016-10-08T09:51:50Z</time>
      </trkpt>
      <trkpt lat="46.02235" lon="4.7596">
        <ele>193</ele>
        <time>2016-10-08T09:51:51Z</time>
      </trkpt>
      <trkpt lat="46.0224" lon="4.75956">
        <ele>193</ele>
        <time>2016-10-08T09:51:52Z</time>
      </trkpt>
      <trkpt lat="46.02245" lon="4.75953">
        <ele>193</ele>
        <time>2016-10-08T09:51:53Z</time>
      </trkpt>
      <trkpt lat="46.02251" lon="4.75949">
        <ele>194</ele>
        <time>2016-10-08T09:51:54Z</time>
      </trkpt>
      <trkpt lat="46.02255" lon="4.75945">
        <ele>194</ele>
        <time>2016-10-08T09:51:55Z</time>
      </trkpt>
      <trkpt lat="46.0226" lon="4.75941">
        <ele>194</ele>
        <time>2016-10-08T09:51:56Z</time>
      </trkpt>
      <trkpt lat="46.02265" lon="4.75936">
        <ele>194</ele>
        <time>2016-10-08T09:51:57Z</time>
      </trkpt>
      <trkpt lat="46.0227" lon="4.75932">
        <ele>194</ele>
        <time>2016-10-08T09:51:58Z</time>
      </trkpt>
      <trkpt lat="46.02274" lon="4.75927">
        <ele>194</ele>
        <time>2016-10-08T09:51:59Z</time>
      </trkpt>
      <trkpt lat="46.02279" lon="4.75923">
        <ele>194</ele>
        <time>2016-10-08T09:52:00Z</time>
      </trkpt>
      <trkpt lat="46.02283" lon="4.75918">
        <ele>194</ele>
        <time>2016-10-08T09:52:01Z</time>
      </trkpt>
      <trkpt lat="46.02288" lon="4.75914">
        <ele>193</ele>
        <time>2016-10-08T09:52:02Z</time>
      </trkpt>
      <trkpt lat="46.02292" lon="4.75909">
        <ele>193</ele>
        <time>2016-10-08T09:52:03Z</time>
      </trkpt>
      <trkpt lat="46.02297" lon="4.75905">
        <ele>193</ele>
        <time>2016-10-08T09:52:04Z</time>
      </trkpt>
      <trkpt lat="46.02301" lon="4.75899">
        <ele>193</ele>
        <time>2016-10-08T09:52:05Z</time>
      </trkpt>
      <trkpt lat="46.02305" lon="4.75895">
        <ele>193</ele>
        <time>2016-10-08T09:52:06Z</time>
      </trkpt>
      <trkpt lat="46.0231" lon="4.7589">
        <ele>193</ele>
        <time>2016-10-08T09:52:07Z</time>
      </trkpt>
      <trkpt lat="46.02314" lon="4.75886">
        <ele>193</ele>
        <time>2016-10-08T09:52:08Z</time>
      </trkpt>
      <trkpt lat="46.02319" lon="4.75882">
        <ele>193</ele>
        <time>2016-10-08T09:52:09Z</time>
      </trkpt>
      <trkpt lat="46.02323" lon="4.75878">
        <ele>193</ele>
        <time>2016-10-08T09:52:10Z</time>
      </trkpt>
      <trkpt lat="46.02327" lon="4.75874">
        <ele>193</ele>
        <time>2016-10-08T09:52:11Z</time>
      </trkpt>
      <trkpt lat="46.02331" lon="4.7587">
        <ele>193</ele>
        <time>2016-10-08T09:52:12Z</time>
      </trkpt>
      <trkpt lat="46.02335" lon="4.75867">
        <ele>193</ele>
        <time>2016-10-08T09:52:13Z</time>
      </trkpt>
      <trkpt lat="46.02339" lon="4.75863">
        <ele>193</ele>
        <time>2016-10-08T09:52:14Z</time>
      </trkpt>
      <trkpt lat="46.02344" lon="4.75859">
        <ele>193</ele>
        <time>2016-10-08T09:52:15Z</time>
      </trkpt>
      <trkpt lat="46.02348" lon="4.75856">
        <ele>193</ele>
        <time>2016-10-08T09:52:16Z</time>
      </trkpt>
      <trkpt lat="46.02353" lon="4.75852">
        <ele>193</ele>
        <time>2016-10-08T09:52:17Z</time>
      </trkpt>
      <trkpt lat="46.02357" lon="4.75848">
        <ele>193</ele>
        <time>2016-10-08T09:52:18Z</time>
      </trkpt>
      <trkpt lat="46.02362" lon="4.75845">
        <ele>193</ele>
        <time>2016-10-08T09:52:19Z</time>
      </trkpt>
      <trkpt lat="46.02366" lon="4.75842">
        <ele>193</ele>
        <time>2016-10-08T09:52:20Z</time>
      </trkpt>
      <trkpt lat="46.0237" lon="4.75839">
        <ele>193</ele>
        <time>2016-10-08T09:52:21Z</time>
      </trkpt>
      <trkpt lat="46.02375" lon="4.75835">
        <ele>193</ele>
        <time>2016-10-08T09:52:22Z</time>
      </trkpt>
      <trkpt lat="46.0238" lon="4.7583">
        <ele>192</ele>
        <time>2016-10-08T09:52:23Z</time>
      </trkpt>
      <trkpt lat="46.02385" lon="4.75826">
        <ele>192</ele>
        <time>2016-10-08T09:52:24Z</time>
      </trkpt>
      <trkpt lat="46.02389" lon="4.75822">
        <ele>192</ele>
        <time>2016-10-08T09:52:25Z</time>
      </trkpt>
      <trkpt lat="46.02394" lon="4.75819">
        <ele>192</ele>
        <time>2016-10-08T09:52:26Z</time>
      </trkpt>
      <trkpt lat="46.024" lon="4.75815">
        <ele>192</ele>
        <time>2016-10-08T09:52:27Z</time>
      </trkpt>
      <trkpt lat="46.02405" lon="4.75811">
        <ele>192</ele>
        <time>2016-10-08T09:52:28Z</time>
      </trkpt>
      <trkpt lat="46.0241" lon="4.75807">
        <ele>192</ele>
        <time>2016-10-08T09:52:29Z</time>
      </trkpt>
      <trkpt lat="46.02415" lon="4.75804">
        <ele>192</ele>
        <time>2016-10-08T09:52:30Z</time>
      </trkpt>
      <trkpt lat="46.0242" lon="4.758">
        <ele>192</ele>
        <time>2016-10-08T09:52:31Z</time>
      </trkpt>
      <trkpt lat="46.02425" lon="4.75797">
        <ele>192</ele>
        <time>2016-10-08T09:52:32Z</time>
      </trkpt>
      <trkpt lat="46.0243" lon="4.75794">
        <ele>191</ele>
        <time>2016-10-08T09:52:33Z</time>
      </trkpt>
      <trkpt lat="46.02435" lon="4.7579">
        <ele>191</ele>
        <time>2016-10-08T09:52:34Z</time>
      </trkpt>
      <trkpt lat="46.02441" lon="4.75789">
        <ele>191</ele>
        <time>2016-10-08T09:52:35Z</time>
      </trkpt>
      <trkpt lat="46.02446" lon="4.75787">
        <ele>191</ele>
        <time>2016-10-08T09:52:36Z</time>
      </trkpt>
      <trkpt lat="46.02451" lon="4.75785">
        <ele>191</ele>
        <time>2016-10-08T09:52:37Z</time>
      </trkpt>
      <trkpt lat="46.02456" lon="4.7578">
        <ele>191</ele>
        <time>2016-10-08T09:52:38Z</time>
      </trkpt>
      <trkpt lat="46.02461" lon="4.75776">
        <ele>191</ele>
        <time>2016-10-08T09:52:39Z</time>
      </trkpt>
      <trkpt lat="46.02468" lon="4.75774">
        <ele>191</ele>
        <time>2016-10-08T09:52:40Z</time>
      </trkpt>
      <trkpt lat="46.02473" lon="4.75771">
        <ele>191</ele>
        <time>2016-10-08T09:52:41Z</time>
      </trkpt>
      <trkpt lat="46.02479" lon="4.75768">
        <ele>191</ele>
        <time>2016-10-08T09:52:42Z</time>
      </trkpt>
      <trkpt lat="46.02485" lon="4.75765">
        <ele>191</ele>
        <time>2016-10-08T09:52:43Z</time>
      </trkpt>
      <trkpt lat="46.02491" lon="4.75763">
        <ele>190</ele>
        <time>2016-10-08T09:52:44Z</time>
      </trkpt>
      <trkpt lat="46.02498" lon="4.75761">
        <ele>190</ele>
        <time>2016-10-08T09:52:45Z</time>
      </trkpt>
      <trkpt lat="46.02504" lon="4.75758">
        <ele>189</ele>
        <time>2016-10-08T09:52:46Z</time>
      </trkpt>
      <trkpt lat="46.0251" lon="4.75755">
        <ele>189</ele>
        <time>2016-10-08T09:52:47Z</time>
      </trkpt>
      <trkpt lat="46.02517" lon="4.75752">
        <ele>188</ele>
        <time>2016-10-08T09:52:48Z</time>
      </trkpt>
      <trkpt lat="46.02524" lon="4.7575">
        <ele>187</ele>
        <time>2016-10-08T09:52:49Z</time>
      </trkpt>
      <trkpt lat="46.02532" lon="4.75748">
        <ele>187</ele>
        <time>2016-10-08T09:52:50Z</time>
      </trkpt>
      <trkpt lat="46.02539" lon="4.75745">
        <ele>186</ele>
        <time>2016-10-08T09:52:51Z</time>
      </trkpt>
      <trkpt lat="46.02548" lon="4.75741">
        <ele>186</ele>
        <time>2016-10-08T09:52:52Z</time>
      </trkpt>
      <trkpt lat="46.02557" lon="4.75739">
        <ele>186</ele>
        <time>2016-10-08T09:52:53Z</time>
      </trkpt>
      <trkpt lat="46.02566" lon="4.75738">
        <ele>185</ele>
        <time>2016-10-08T09:52:54Z</time>
      </trkpt>
      <trkpt lat="46.02575" lon="4.75738">
        <ele>185</ele>
        <time>2016-10-08T09:52:55Z</time>
      </trkpt>
      <trkpt lat="46.02583" lon="4.75739">
        <ele>184</ele>
        <time>2016-10-08T09:52:56Z</time>
      </trkpt>
      <trkpt lat="46.02592" lon="4.7574">
        <ele>183</ele>
        <time>2016-10-08T09:52:57Z</time>
      </trkpt>
      <trkpt lat="46.02601" lon="4.75741">
        <ele>183</ele>
        <time>2016-10-08T09:52:58Z</time>
      </trkpt>
      <trkpt lat="46.0261" lon="4.75741">
        <ele>182</ele>
        <time>2016-10-08T09:52:59Z</time>
      </trkpt>
      <trkpt lat="46.0262" lon="4.75742">
        <ele>182</ele>
        <time>2016-10-08T09:53:00Z</time>
      </trkpt>
      <trkpt lat="46.0263" lon="4.75743">
        <ele>182</ele>
        <time>2016-10-08T09:53:01Z</time>
      </trkpt>
      <trkpt lat="46.02639" lon="4.75743">
        <ele>182</ele>
        <time>2016-10-08T09:53:02Z</time>
      </trkpt>
      <trkpt lat="46.02649" lon="4.75744">
        <ele>182</ele>
        <time>2016-10-08T09:53:03Z</time>
      </trkpt>
      <trkpt lat="46.02659" lon="4.75745">
        <ele>181</ele>
        <time>2016-10-08T09:53:04Z</time>
      </trkpt>
      <trkpt lat="46.02669" lon="4.75744">
        <ele>181</ele>
        <time>2016-10-08T09:53:05Z</time>
      </trkpt>
      <trkpt lat="46.02678" lon="4.75743">
        <ele>181</ele>
        <time>2016-10-08T09:53:06Z</time>
      </trkpt>
      <trkpt lat="46.02688" lon="4.75742">
        <ele>182</ele>
        <time>2016-10-08T09:53:07Z</time>
      </trkpt>
      <trkpt lat="46.02697" lon="4.75739">
        <ele>182</ele>
        <time>2016-10-08T09:53:08Z</time>
      </trkpt>
      <trkpt lat="46.02705" lon="4.75736">
        <ele>182</ele>
        <time>2016-10-08T09:53:09Z</time>
      </trkpt>
      <trkpt lat="46.02713" lon="4.75733">
        <ele>182</ele>
        <time>2016-10-08T09:53:10Z</time>
      </trkpt>
      <trkpt lat="46.02721" lon="4.7573">
        <ele>182</ele>
        <time>2016-10-08T09:53:11Z</time>
      </trkpt>
      <trkpt lat="46.02728" lon="4.75728">
        <ele>183</ele>
        <time>2016-10-08T09:53:12Z</time>
      </trkpt>
      <trkpt lat="46.02735" lon="4.75726">
        <ele>183</ele>
        <time>2016-10-08T09:53:13Z</time>
      </trkpt>
      <trkpt lat="46.02742" lon="4.75724">
        <ele>183</ele>
        <time>2016-10-08T09:53:14Z</time>
      </trkpt>
      <trkpt lat="46.02748" lon="4.75722">
        <ele>183</ele>
        <time>2016-10-08T09:53:15Z</time>
      </trkpt>
      <trkpt lat="46.02755" lon="4.75721">
        <ele>183</ele>
        <time>2016-10-08T09:53:16Z</time>
      </trkpt>
      <trkpt lat="46.02761" lon="4.7572">
        <ele>183</ele>
        <time>2016-10-08T09:53:17Z</time>
      </trkpt>
      <trkpt lat="46.02767" lon="4.75719">
        <ele>183</ele>
        <time>2016-10-08T09:53:18Z</time>
      </trkpt>
      <trkpt lat="46.02773" lon="4.75719">
        <ele>183</ele>
        <time>2016-10-08T09:53:19Z</time>
      </trkpt>
      <trkpt lat="46.02779" lon="4.75719">
        <ele>183</ele>
        <time>2016-10-08T09:53:20Z</time>
      </trkpt>
      <trkpt lat="46.02784" lon="4.75718">
        <ele>183</ele>
        <time>2016-10-08T09:53:21Z</time>
      </trkpt>
      <trkpt lat="46.02788" lon="4.75717">
        <ele>183</ele>
        <time>2016-10-08T09:53:22Z</time>
      </trkpt>
      <trkpt lat="46.02796" lon="4.75719">
        <ele>183</ele>
        <time>2016-10-08T09:53:24Z</time>
      </trkpt>
      <trkpt lat="46.028" lon="4.7572">
        <ele>183</ele>
        <time>2016-10-08T09:53:25Z</time>
      </trkpt>
      <trkpt lat="46.02805" lon="4.75721">
        <ele>183</ele>
        <time>2016-10-08T09:53:26Z</time>
      </trkpt>
      <trkpt lat="46.0281" lon="4.75723">
        <ele>184</ele>
        <time>2016-10-08T09:53:27Z</time>
      </trkpt>
      <trkpt lat="46.02815" lon="4.75723">
        <ele>184</ele>
        <time>2016-10-08T09:53:28Z</time>
      </trkpt>
      <trkpt lat="46.0282" lon="4.75724">
        <ele>184</ele>
        <time>2016-10-08T09:53:29Z</time>
      </trkpt>
      <trkpt lat="46.02828" lon="4.75725">
        <ele>184</ele>
        <time>2016-10-08T09:53:31Z</time>
      </trkpt>
      <trkpt lat="46.02832" lon="4.75726">
        <ele>184</ele>
        <time>2016-10-08T09:53:32Z</time>
      </trkpt>
      <trkpt lat="46.02841" lon="4.75726">
        <ele>184</ele>
        <time>2016-10-08T09:53:34Z</time>
      </trkpt>
      <trkpt lat="46.02845" lon="4.75727">
        <ele>184</ele>
        <time>2016-10-08T09:53:35Z</time>
      </trkpt>
      <trkpt lat="46.0285" lon="4.75727">
        <ele>184</ele>
        <time>2016-10-08T09:53:36Z</time>
      </trkpt>
      <trkpt lat="46.02855" lon="4.75727">
        <ele>184</ele>
        <time>2016-10-08T09:53:37Z</time>
      </trkpt>
      <trkpt lat="46.02863" lon="4.75728">
        <ele>184</ele>
        <time>2016-10-08T09:53:39Z</time>
      </trkpt>
      <trkpt lat="46.02868" lon="4.75728">
        <ele>183</ele>
        <time>2016-10-08T09:53:40Z</time>
      </trkpt>
      <trkpt lat="46.02877" lon="4.75728">
        <ele>183</ele>
        <time>2016-10-08T09:53:42Z</time>
      </trkpt>
      <trkpt lat="46.02881" lon="4.75728">
        <ele>183</ele>
        <time>2016-10-08T09:53:43Z</time>
      </trkpt>
      <trkpt lat="46.02885" lon="4.75727">
        <ele>183</ele>
        <time>2016-10-08T09:53:44Z</time>
      </trkpt>
      <trkpt lat="46.0289" lon="4.75727">
        <ele>183</ele>
        <time>2016-10-08T09:53:45Z</time>
      </trkpt>
      <trkpt lat="46.02899" lon="4.75727">
        <ele>183</ele>
        <time>2016-10-08T09:53:47Z</time>
      </trkpt>
      <trkpt lat="46.02903" lon="4.75727">
        <ele>183</ele>
        <time>2016-10-08T09:53:48Z</time>
      </trkpt>
      <trkpt lat="46.02907" lon="4.75726">
        <ele>183</ele>
        <time>2016-10-08T09:53:49Z</time>
      </trkpt>
      <trkpt lat="46.02912" lon="4.75726">
        <ele>183</ele>
        <time>2016-10-08T09:53:50Z</time>
      </trkpt>
      <trkpt lat="46.02917" lon="4.75726">
        <ele>183</ele>
        <time>2016-10-08T09:53:51Z</time>
      </trkpt>
      <trkpt lat="46.02922" lon="4.75725">
        <ele>183</ele>
        <time>2016-10-08T09:53:52Z</time>
      </trkpt>
      <trkpt lat="46.02927" lon="4.75724">
        <ele>183</ele>
        <time>2016-10-08T09:53:53Z</time>
      </trkpt>
      <trkpt lat="46.02931" lon="4.75722">
        <ele>183</ele>
        <time>2016-10-08T09:53:54Z</time>
      </trkpt>
      <trkpt lat="46.02936" lon="4.75721">
        <ele>183</ele>
        <time>2016-10-08T09:53:55Z</time>
      </trkpt>
      <trkpt lat="46.02941" lon="4.75723">
        <ele>183</ele>
        <time>2016-10-08T09:53:56Z</time>
      </trkpt>
      <trkpt lat="46.02946" lon="4.75723">
        <ele>183</ele>
        <time>2016-10-08T09:53:57Z</time>
      </trkpt>
      <trkpt lat="46.02951" lon="4.75723">
        <ele>183</ele>
        <time>2016-10-08T09:53:58Z</time>
      </trkpt>
      <trkpt lat="46.02955" lon="4.75722">
        <ele>183</ele>
        <time>2016-10-08T09:53:59Z</time>
      </trkpt>
      <trkpt lat="46.0296" lon="4.75722">
        <ele>183</ele>
        <time>2016-10-08T09:54:00Z</time>
      </trkpt>
      <trkpt lat="46.02968" lon="4.75721">
        <ele>183</ele>
        <time>2016-10-08T09:54:02Z</time>
      </trkpt>
      <trkpt lat="46.02973" lon="4.75719">
        <ele>183</ele>
        <time>2016-10-08T09:54:03Z</time>
      </trkpt>
      <trkpt lat="46.02977" lon="4.75718">
        <ele>183</ele>
        <time>2016-10-08T09:54:04Z</time>
      </trkpt>
      <trkpt lat="46.02982" lon="4.75717">
        <ele>183</ele>
        <time>2016-10-08T09:54:05Z</time>
      </trkpt>
      <trkpt lat="46.02991" lon="4.75716">
        <ele>183</ele>
        <time>2016-10-08T09:54:07Z</time>
      </trkpt>
      <trkpt lat="46.02995" lon="4.75715">
        <ele>183</ele>
        <time>2016-10-08T09:54:08Z</time>
      </trkpt>
      <trkpt lat="46.03" lon="4.75712">
        <ele>183</ele>
        <time>2016-10-08T09:54:09Z</time>
      </trkpt>
      <trkpt lat="46.03004" lon="4.75711">
        <ele>184</ele>
        <time>2016-10-08T09:54:10Z</time>
      </trkpt>
      <trkpt lat="46.03008" lon="4.75709">
        <ele>184</ele>
        <time>2016-10-08T09:54:11Z</time>
      </trkpt>
      <trkpt lat="46.03013" lon="4.75708">
        <ele>184</ele>
        <time>2016-10-08T09:54:12Z</time>
      </trkpt>
      <trkpt lat="46.03017" lon="4.75707">
        <ele>184</ele>
        <time>2016-10-08T09:54:13Z</time>
      </trkpt>
      <trkpt lat="46.03022" lon="4.75705">
        <ele>184</ele>
        <time>2016-10-08T09:54:14Z</time>
      </trkpt>
      <trkpt lat="46.03026" lon="4.75703">
        <ele>184</ele>
        <time>2016-10-08T09:54:15Z</time>
      </trkpt>
      <trkpt lat="46.03031" lon="4.75701">
        <ele>184</ele>
        <time>2016-10-08T09:54:16Z</time>
      </trkpt>
      <trkpt lat="46.03035" lon="4.75699">
        <ele>184</ele>
        <time>2016-10-08T09:54:17Z</time>
      </trkpt>
      <trkpt lat="46.0304" lon="4.75698">
        <ele>184</ele>
        <time>2016-10-08T09:54:18Z</time>
      </trkpt>
      <trkpt lat="46.03044" lon="4.75696">
        <ele>184</ele>
        <time>2016-10-08T09:54:19Z</time>
      </trkpt>
      <trkpt lat="46.03049" lon="4.75695">
        <ele>184</ele>
        <time>2016-10-08T09:54:20Z</time>
      </trkpt>
      <trkpt lat="46.03053" lon="4.75693">
        <ele>184</ele>
        <time>2016-10-08T09:54:21Z</time>
      </trkpt>
      <trkpt lat="46.03058" lon="4.75693">
        <ele>184</ele>
        <time>2016-10-08T09:54:22Z</time>
      </trkpt>
      <trkpt lat="46.03062" lon="4.75691">
        <ele>184</ele>
        <time>2016-10-08T09:54:23Z</time>
      </trkpt>
      <trkpt lat="46.03067" lon="4.7569">
        <ele>184</ele>
        <time>2016-10-08T09:54:24Z</time>
      </trkpt>
      <trkpt lat="46.03072" lon="4.7569">
        <ele>184</ele>
        <time>2016-10-08T09:54:25Z</time>
      </trkpt>
      <trkpt lat="46.03077" lon="4.75689">
        <ele>184</ele>
        <time>2016-10-08T09:54:26Z</time>
      </trkpt>
      <trkpt lat="46.03082" lon="4.75688">
        <ele>184</ele>
        <time>2016-10-08T09:54:27Z</time>
      </trkpt>
      <trkpt lat="46.03087" lon="4.75688">
        <ele>185</ele>
        <time>2016-10-08T09:54:28Z</time>
      </trkpt>
      <trkpt lat="46.03092" lon="4.75687">
        <ele>185</ele>
        <time>2016-10-08T09:54:29Z</time>
      </trkpt>
      <trkpt lat="46.03097" lon="4.75686">
        <ele>186</ele>
        <time>2016-10-08T09:54:30Z</time>
      </trkpt>
      <trkpt lat="46.03102" lon="4.75685">
        <ele>186</ele>
        <time>2016-10-08T09:54:31Z</time>
      </trkpt>
      <trkpt lat="46.03107" lon="4.75685">
        <ele>186</ele>
        <time>2016-10-08T09:54:32Z</time>
      </trkpt>
      <trkpt lat="46.03111" lon="4.75685">
        <ele>186</ele>
        <time>2016-10-08T09:54:33Z</time>
      </trkpt>
      <trkpt lat="46.03116" lon="4.75684">
        <ele>186</ele>
        <time>2016-10-08T09:54:34Z</time>
      </trkpt>
      <trkpt lat="46.0312" lon="4.75683">
        <ele>186</ele>
        <time>2016-10-08T09:54:35Z</time>
      </trkpt>
      <trkpt lat="46.03125" lon="4.75681">
        <ele>187</ele>
        <time>2016-10-08T09:54:36Z</time>
      </trkpt>
      <trkpt lat="46.0313" lon="4.75681">
        <ele>187</ele>
        <time>2016-10-08T09:54:37Z</time>
      </trkpt>
      <trkpt lat="46.03134" lon="4.7568">
        <ele>187</ele>
        <time>2016-10-08T09:54:38Z</time>
      </trkpt>
      <trkpt lat="46.03139" lon="4.7568">
        <ele>187</ele>
        <time>2016-10-08T09:54:39Z</time>
      </trkpt>
      <trkpt lat="46.03144" lon="4.7568">
        <ele>187</ele>
        <time>2016-10-08T09:54:40Z</time>
      </trkpt>
      <trkpt lat="46.0315" lon="4.7568">
        <ele>187</ele>
        <time>2016-10-08T09:54:41Z</time>
      </trkpt>
      <trkpt lat="46.03154" lon="4.7568">
        <ele>187</ele>
        <time>2016-10-08T09:54:42Z</time>
      </trkpt>
      <trkpt lat="46.03159" lon="4.75678">
        <ele>188</ele>
        <time>2016-10-08T09:54:43Z</time>
      </trkpt>
      <trkpt lat="46.03164" lon="4.75677">
        <ele>188</ele>
        <time>2016-10-08T09:54:44Z</time>
      </trkpt>
      <trkpt lat="46.03172" lon="4.75675">
        <ele>190</ele>
        <time>2016-10-08T09:54:46Z</time>
      </trkpt>
      <trkpt lat="46.03177" lon="4.75674">
        <ele>190</ele>
        <time>2016-10-08T09:54:47Z</time>
      </trkpt>
      <trkpt lat="46.03185" lon="4.75672">
        <ele>191</ele>
        <time>2016-10-08T09:54:49Z</time>
      </trkpt>
      <trkpt lat="46.03189" lon="4.75671">
        <ele>191</ele>
        <time>2016-10-08T09:54:50Z</time>
      </trkpt>
      <trkpt lat="46.03197" lon="4.7567">
        <ele>192</ele>
        <time>2016-10-08T09:54:52Z</time>
      </trkpt>
      <trkpt lat="46.03202" lon="4.75669">
        <ele>192</ele>
        <time>2016-10-08T09:54:53Z</time>
      </trkpt>
      <trkpt lat="46.03209" lon="4.75666">
        <ele>190</ele>
        <time>2016-10-08T09:54:55Z</time>
      </trkpt>
      <trkpt lat="46.03214" lon="4.75664">
        <ele>190</ele>
        <time>2016-10-08T09:54:56Z</time>
      </trkpt>
      <trkpt lat="46.03221" lon="4.75666">
        <ele>191</ele>
        <time>2016-10-08T09:54:58Z</time>
      </trkpt>
      <trkpt lat="46.03225" lon="4.75665">
        <ele>191</ele>
        <time>2016-10-08T09:54:59Z</time>
      </trkpt>
      <trkpt lat="46.03232" lon="4.75667">
        <ele>194</ele>
        <time>2016-10-08T09:55:01Z</time>
      </trkpt>
      <trkpt lat="46.03236" lon="4.75666">
        <ele>192</ele>
        <time>2016-10-08T09:55:02Z</time>
      </trkpt>
      <trkpt lat="46.03244" lon="4.75667">
        <ele>194</ele>
        <time>2016-10-08T09:55:04Z</time>
      </trkpt>
      <trkpt lat="46.03249" lon="4.75666">
        <ele>195</ele>
        <time>2016-10-08T09:55:05Z</time>
      </trkpt>
      <trkpt lat="46.03257" lon="4.75664">
        <ele>193</ele>
        <time>2016-10-08T09:55:07Z</time>
      </trkpt>
      <trkpt lat="46.03262" lon="4.75664">
        <ele>193</ele>
        <time>2016-10-08T09:55:08Z</time>
      </trkpt>
      <trkpt lat="46.03267" lon="4.75664">
        <ele>192</ele>
        <time>2016-10-08T09:55:09Z</time>
      </trkpt>
      <trkpt lat="46.03271" lon="4.75662">
        <ele>192</ele>
        <time>2016-10-08T09:55:10Z</time>
      </trkpt>
      <trkpt lat="46.03279" lon="4.75657">
        <ele>191</ele>
        <time>2016-10-08T09:55:12Z</time>
      </trkpt>
      <trkpt lat="46.03283" lon="4.75654">
        <ele>190</ele>
        <time>2016-10-08T09:55:13Z</time>
      </trkpt>
      <trkpt lat="46.0329" lon="4.75648">
        <ele>190</ele>
        <time>2016-10-08T09:55:15Z</time>
      </trkpt>
      <trkpt lat="46.03294" lon="4.75645">
        <ele>190</ele>
        <time>2016-10-08T09:55:16Z</time>
      </trkpt>
      <trkpt lat="46.03299" lon="4.75643">
        <ele>189</ele>
        <time>2016-10-08T09:55:17Z</time>
      </trkpt>
      <trkpt lat="46.03303" lon="4.75642">
        <ele>189</ele>
        <time>2016-10-08T09:55:18Z</time>
      </trkpt>
      <trkpt lat="46.03308" lon="4.75642">
        <ele>189</ele>
        <time>2016-10-08T09:55:19Z</time>
      </trkpt>
      <trkpt lat="46.03312" lon="4.75643">
        <ele>189</ele>
        <time>2016-10-08T09:55:20Z</time>
      </trkpt>
      <trkpt lat="46.03317" lon="4.75644">
        <ele>189</ele>
        <time>2016-10-08T09:55:21Z</time>
      </trkpt>
      <trkpt lat="46.03321" lon="4.75644">
        <ele>189</ele>
        <time>2016-10-08T09:55:22Z</time>
      </trkpt>
      <trkpt lat="46.0333" lon="4.75643">
        <ele>189</ele>
        <time>2016-10-08T09:55:24Z</time>
      </trkpt>
      <trkpt lat="46.03335" lon="4.75644">
        <ele>188</ele>
        <time>2016-10-08T09:55:25Z</time>
      </trkpt>
      <trkpt lat="46.0334" lon="4.75643">
        <ele>188</ele>
        <time>2016-10-08T09:55:26Z</time>
      </trkpt>
      <trkpt lat="46.03345" lon="4.75643">
        <ele>188</ele>
        <time>2016-10-08T09:55:27Z</time>
      </trkpt>
      <trkpt lat="46.0335" lon="4.75643">
        <ele>188</ele>
        <time>2016-10-08T09:55:28Z</time>
      </trkpt>
      <trkpt lat="46.03354" lon="4.75642">
        <ele>188</ele>
        <time>2016-10-08T09:55:29Z</time>
      </trkpt>
      <trkpt lat="46.03363" lon="4.75641">
        <ele>188</ele>
        <time>2016-10-08T09:55:31Z</time>
      </trkpt>
      <trkpt lat="46.03368" lon="4.7564">
        <ele>188</ele>
        <time>2016-10-08T09:55:32Z</time>
      </trkpt>
      <trkpt lat="46.03372" lon="4.7564">
        <ele>188</ele>
        <time>2016-10-08T09:55:33Z</time>
      </trkpt>
      <trkpt lat="46.03377" lon="4.7564">
        <ele>188</ele>
        <time>2016-10-08T09:55:34Z</time>
      </trkpt>
      <trkpt lat="46.03382" lon="4.75639">
        <ele>188</ele>
        <time>2016-10-08T09:55:35Z</time>
      </trkpt>
      <trkpt lat="46.03386" lon="4.75639">
        <ele>188</ele>
        <time>2016-10-08T09:55:36Z</time>
      </trkpt>
      <trkpt lat="46.03391" lon="4.75639">
        <ele>188</ele>
        <time>2016-10-08T09:55:37Z</time>
      </trkpt>
      <trkpt lat="46.03396" lon="4.75637">
        <ele>188</ele>
        <time>2016-10-08T09:55:38Z</time>
      </trkpt>
      <trkpt lat="46.034" lon="4.75636">
        <ele>188</ele>
        <time>2016-10-08T09:55:39Z</time>
      </trkpt>
      <trkpt lat="46.03405" lon="4.75635">
        <ele>188</ele>
        <time>2016-10-08T09:55:40Z</time>
      </trkpt>
      <trkpt lat="46.0341" lon="4.75633">
        <ele>188</ele>
        <time>2016-10-08T09:55:41Z</time>
      </trkpt>
      <trkpt lat="46.03415" lon="4.75632">
        <ele>188</ele>
        <time>2016-10-08T09:55:42Z</time>
      </trkpt>
      <trkpt lat="46.0342" lon="4.75631">
        <ele>188</ele>
        <time>2016-10-08T09:55:43Z</time>
      </trkpt>
      <trkpt lat="46.03425" lon="4.75631">
        <ele>188</ele>
        <time>2016-10-08T09:55:44Z</time>
      </trkpt>
      <trkpt lat="46.03429" lon="4.75631">
        <ele>188</ele>
        <time>2016-10-08T09:55:45Z</time>
      </trkpt>
      <trkpt lat="46.03434" lon="4.75632">
        <ele>188</ele>
        <time>2016-10-08T09:55:46Z</time>
      </trkpt>
      <trkpt lat="46.03438" lon="4.75635">
        <ele>188</ele>
        <time>2016-10-08T09:55:47Z</time>
      </trkpt>
      <trkpt lat="46.03442" lon="4.75638">
        <ele>188</ele>
        <time>2016-10-08T09:55:48Z</time>
      </trkpt>
      <trkpt lat="46.03446" lon="4.75643">
        <ele>188</ele>
        <time>2016-10-08T09:55:49Z</time>
      </trkpt>
      <trkpt lat="46.03449" lon="4.75648">
        <ele>188</ele>
        <time>2016-10-08T09:55:50Z</time>
      </trkpt>
      <trkpt lat="46.03451" lon="4.75654">
        <ele>188</ele>
        <time>2016-10-08T09:55:51Z</time>
      </trkpt>
      <trkpt lat="46.03454" lon="4.75661">
        <ele>188</ele>
        <time>2016-10-08T09:55:52Z</time>
      </trkpt>
      <trkpt lat="46.03456" lon="4.75667">
        <ele>189</ele>
        <time>2016-10-08T09:55:53Z</time>
      </trkpt>
      <trkpt lat="46.03457" lon="4.75674">
        <ele>189</ele>
        <time>2016-10-08T09:55:54Z</time>
      </trkpt>
      <trkpt lat="46.03462" lon="4.75683">
        <ele>189</ele>
        <time>2016-10-08T09:55:56Z</time>
      </trkpt>
      <trkpt lat="46.03465" lon="4.75688">
        <ele>189</ele>
        <time>2016-10-08T09:55:57Z</time>
      </trkpt>
      <trkpt lat="46.03469" lon="4.75697">
        <ele>189</ele>
        <time>2016-10-08T09:55:59Z</time>
      </trkpt>
      <trkpt lat="46.03471" lon="4.75703">
        <ele>189</ele>
        <time>2016-10-08T09:56:00Z</time>
      </trkpt>
      <trkpt lat="46.03475" lon="4.75713">
        <ele>189</ele>
        <time>2016-10-08T09:56:02Z</time>
      </trkpt>
      <trkpt lat="46.03476" lon="4.75717">
        <ele>189</ele>
        <time>2016-10-08T09:56:03Z</time>
      </trkpt>
      <trkpt lat="46.03479" lon="4.75725">
        <ele>189</ele>
        <time>2016-10-08T09:56:05Z</time>
      </trkpt>
      <trkpt lat="46.03481" lon="4.7573">
        <ele>189</ele>
        <time>2016-10-08T09:56:06Z</time>
      </trkpt>
      <trkpt lat="46.03483" lon="4.75741">
        <ele>189</ele>
        <time>2016-10-08T09:56:08Z</time>
      </trkpt>
      <trkpt lat="46.03484" lon="4.75746">
        <ele>189</ele>
        <time>2016-10-08T09:56:09Z</time>
      </trkpt>
      <trkpt lat="46.03488" lon="4.75756">
        <ele>189</ele>
        <time>2016-10-08T09:56:11Z</time>
      </trkpt>
      <trkpt lat="46.0349" lon="4.75761">
        <ele>189</ele>
        <time>2016-10-08T09:56:12Z</time>
      </trkpt>
      <trkpt lat="46.03495" lon="4.75771">
        <ele>189</ele>
        <time>2016-10-08T09:56:14Z</time>
      </trkpt>
      <trkpt lat="46.03497" lon="4.75777">
        <ele>190</ele>
        <time>2016-10-08T09:56:15Z</time>
      </trkpt>
      <trkpt lat="46.03501" lon="4.75787">
        <ele>189</ele>
        <time>2016-10-08T09:56:17Z</time>
      </trkpt>
      <trkpt lat="46.03503" lon="4.75792">
        <ele>189</ele>
        <time>2016-10-08T09:56:18Z</time>
      </trkpt>
      <trkpt lat="46.03507" lon="4.758">
        <ele>189</ele>
        <time>2016-10-08T09:56:20Z</time>
      </trkpt>
      <trkpt lat="46.03509" lon="4.75804">
        <ele>189</ele>
        <time>2016-10-08T09:56:21Z</time>
      </trkpt>
      <trkpt lat="46.03512" lon="4.75813">
        <ele>190</ele>
        <time>2016-10-08T09:56:23Z</time>
      </trkpt>
      <trkpt lat="46.03514" lon="4.75818">
        <ele>190</ele>
        <time>2016-10-08T09:56:24Z</time>
      </trkpt>
      <trkpt lat="46.03517" lon="4.7583">
        <ele>190</ele>
        <time>2016-10-08T09:56:26Z</time>
      </trkpt>
      <trkpt lat="46.03519" lon="4.75834">
        <ele>190</ele>
        <time>2016-10-08T09:56:27Z</time>
      </trkpt>
      <trkpt lat="46.03524" lon="4.75845">
        <ele>190</ele>
        <time>2016-10-08T09:56:29Z</time>
      </trkpt>
      <trkpt lat="46.03527" lon="4.7585">
        <ele>190</ele>
        <time>2016-10-08T09:56:30Z</time>
      </trkpt>
      <trkpt lat="46.03533" lon="4.75859">
        <ele>190</ele>
        <time>2016-10-08T09:56:32Z</time>
      </trkpt>
      <trkpt lat="46.03536" lon="4.75864">
        <ele>190</ele>
        <time>2016-10-08T09:56:33Z</time>
      </trkpt>
      <trkpt lat="46.03538" lon="4.75869">
        <ele>190</ele>
        <time>2016-10-08T09:56:34Z</time>
      </trkpt>
      <trkpt lat="46.03541" lon="4.75875">
        <ele>190</ele>
        <time>2016-10-08T09:56:35Z</time>
      </trkpt>
      <trkpt lat="46.03543" lon="4.7588">
        <ele>189</ele>
        <time>2016-10-08T09:56:36Z</time>
      </trkpt>
      <trkpt lat="46.03546" lon="4.75886">
        <ele>189</ele>
        <time>2016-10-08T09:56:37Z</time>
      </trkpt>
      <trkpt lat="46.03549" lon="4.75891">
        <ele>189</ele>
        <time>2016-10-08T09:56:38Z</time>
      </trkpt>
      <trkpt lat="46.03552" lon="4.75897">
        <ele>189</ele>
        <time>2016-10-08T09:56:39Z</time>
      </trkpt>
      <trkpt lat="46.03554" lon="4.75902">
        <ele>189</ele>
        <time>2016-10-08T09:56:40Z</time>
      </trkpt>
      <trkpt lat="46.03556" lon="4.75909">
        <ele>189</ele>
        <time>2016-10-08T09:56:41Z</time>
      </trkpt>
      <trkpt lat="46.03559" lon="4.75916">
        <ele>189</ele>
        <time>2016-10-08T09:56:42Z</time>
      </trkpt>
      <trkpt lat="46.03563" lon="4.75922">
        <ele>190</ele>
        <time>2016-10-08T09:56:43Z</time>
      </trkpt>
      <trkpt lat="46.03566" lon="4.75928">
        <ele>190</ele>
        <time>2016-10-08T09:56:44Z</time>
      </trkpt>
      <trkpt lat="46.03568" lon="4.75935">
        <ele>190</ele>
        <time>2016-10-08T09:56:45Z</time>
      </trkpt>
      <trkpt lat="46.03571" lon="4.75941">
        <ele>190</ele>
        <time>2016-10-08T09:56:46Z</time>
      </trkpt>
      <trkpt lat="46.03574" lon="4.75946">
        <ele>190</ele>
        <time>2016-10-08T09:56:47Z</time>
      </trkpt>
      <trkpt lat="46.03578" lon="4.75957">
        <ele>190</ele>
        <time>2016-10-08T09:56:49Z</time>
      </trkpt>
      <trkpt lat="46.03581" lon="4.75961">
        <ele>190</ele>
        <time>2016-10-08T09:56:50Z</time>
      </trkpt>
      <trkpt lat="46.03586" lon="4.75971">
        <ele>190</ele>
        <time>2016-10-08T09:56:52Z</time>
      </trkpt>
      <trkpt lat="46.03588" lon="4.75976">
        <ele>190</ele>
        <time>2016-10-08T09:56:53Z</time>
      </trkpt>
      <trkpt lat="46.03592" lon="4.75987">
        <ele>190</ele>
        <time>2016-10-08T09:56:55Z</time>
      </trkpt>
      <trkpt lat="46.03594" lon="4.75993">
        <ele>190</ele>
        <time>2016-10-08T09:56:56Z</time>
      </trkpt>
      <trkpt lat="46.03595" lon="4.75999">
        <ele>191</ele>
        <time>2016-10-08T09:56:57Z</time>
      </trkpt>
      <trkpt lat="46.03597" lon="4.76006">
        <ele>191</ele>
        <time>2016-10-08T09:56:58Z</time>
      </trkpt>
      <trkpt lat="46.03599" lon="4.76013">
        <ele>191</ele>
        <time>2016-10-08T09:56:59Z</time>
      </trkpt>
      <trkpt lat="46.03601" lon="4.76018">
        <ele>191</ele>
        <time>2016-10-08T09:57:00Z</time>
      </trkpt>
      <trkpt lat="46.03603" lon="4.76024">
        <ele>191</ele>
        <time>2016-10-08T09:57:01Z</time>
      </trkpt>
      <trkpt lat="46.03605" lon="4.7603">
        <ele>191</ele>
        <time>2016-10-08T09:57:02Z</time>
      </trkpt>
      <trkpt lat="46.03609" lon="4.76041">
        <ele>191</ele>
        <time>2016-10-08T09:57:04Z</time>
      </trkpt>
      <trkpt lat="46.03611" lon="4.76047">
        <ele>191</ele>
        <time>2016-10-08T09:57:05Z</time>
      </trkpt>
      <trkpt lat="46.03613" lon="4.76052">
        <ele>191</ele>
        <time>2016-10-08T09:57:06Z</time>
      </trkpt>
      <trkpt lat="46.03615" lon="4.76058">
        <ele>191</ele>
        <time>2016-10-08T09:57:07Z</time>
      </trkpt>
      <trkpt lat="46.03619" lon="4.7607">
        <ele>191</ele>
        <time>2016-10-08T09:57:09Z</time>
      </trkpt>
      <trkpt lat="46.0362" lon="4.76076">
        <ele>191</ele>
        <time>2016-10-08T09:57:10Z</time>
      </trkpt>
      <trkpt lat="46.03622" lon="4.76083">
        <ele>191</ele>
        <time>2016-10-08T09:57:11Z</time>
      </trkpt>
      <trkpt lat="46.03623" lon="4.76088">
        <ele>192</ele>
        <time>2016-10-08T09:57:12Z</time>
      </trkpt>
      <trkpt lat="46.03625" lon="4.76101">
        <ele>192</ele>
        <time>2016-10-08T09:57:14Z</time>
      </trkpt>
      <trkpt lat="46.03625" lon="4.76108">
        <ele>192</ele>
        <time>2016-10-08T09:57:15Z</time>
      </trkpt>
      <trkpt lat="46.03626" lon="4.76114">
        <ele>192</ele>
        <time>2016-10-08T09:57:16Z</time>
      </trkpt>
      <trkpt lat="46.03626" lon="4.76121">
        <ele>192</ele>
        <time>2016-10-08T09:57:17Z</time>
      </trkpt>
      <trkpt lat="46.03627" lon="4.76133">
        <ele>192</ele>
        <time>2016-10-08T09:57:19Z</time>
      </trkpt>
      <trkpt lat="46.03627" lon="4.76139">
        <ele>192</ele>
        <time>2016-10-08T09:57:20Z</time>
      </trkpt>
      <trkpt lat="46.03627" lon="4.76152">
        <ele>192</ele>
        <time>2016-10-08T09:57:22Z</time>
      </trkpt>
      <trkpt lat="46.03627" lon="4.76157">
        <ele>192</ele>
        <time>2016-10-08T09:57:23Z</time>
      </trkpt>
      <trkpt lat="46.03627" lon="4.76166">
        <ele>192</ele>
        <time>2016-10-08T09:57:24Z</time>
      </trkpt>
      <trkpt lat="46.03627" lon="4.76174">
        <ele>192</ele>
        <time>2016-10-08T09:57:25Z</time>
      </trkpt>
      <trkpt lat="46.03626" lon="4.76181">
        <ele>193</ele>
        <time>2016-10-08T09:57:26Z</time>
      </trkpt>
      <trkpt lat="46.03624" lon="4.76188">
        <ele>193</ele>
        <time>2016-10-08T09:57:27Z</time>
      </trkpt>
      <trkpt lat="46.03623" lon="4.76195">
        <ele>193</ele>
        <time>2016-10-08T09:57:28Z</time>
      </trkpt>
      <trkpt lat="46.03623" lon="4.76202">
        <ele>193</ele>
        <time>2016-10-08T09:57:29Z</time>
      </trkpt>
      <trkpt lat="46.03623" lon="4.76208">
        <ele>193</ele>
        <time>2016-10-08T09:57:30Z</time>
      </trkpt>
      <trkpt lat="46.03622" lon="4.76214">
        <ele>193</ele>
        <time>2016-10-08T09:57:31Z</time>
      </trkpt>
      <trkpt lat="46.03621" lon="4.76221">
        <ele>193</ele>
        <time>2016-10-08T09:57:32Z</time>
      </trkpt>
      <trkpt lat="46.03619" lon="4.76227">
        <ele>193</ele>
        <time>2016-10-08T09:57:33Z</time>
      </trkpt>
      <trkpt lat="46.03619" lon="4.7624">
        <ele>193</ele>
        <time>2016-10-08T09:57:35Z</time>
      </trkpt>
      <trkpt lat="46.03618" lon="4.76246">
        <ele>193</ele>
        <time>2016-10-08T09:57:36Z</time>
      </trkpt>
      <trkpt lat="46.03617" lon="4.76253">
        <ele>194</ele>
        <time>2016-10-08T09:57:37Z</time>
      </trkpt>
      <trkpt lat="46.03617" lon="4.76259">
        <ele>194</ele>
        <time>2016-10-08T09:57:38Z</time>
      </trkpt>
      <trkpt lat="46.03615" lon="4.76266">
        <ele>194</ele>
        <time>2016-10-08T09:57:39Z</time>
      </trkpt>
      <trkpt lat="46.03614" lon="4.76273">
        <ele>194</ele>
        <time>2016-10-08T09:57:40Z</time>
      </trkpt>
      <trkpt lat="46.03613" lon="4.76285">
        <ele>194</ele>
        <time>2016-10-08T09:57:42Z</time>
      </trkpt>
      <trkpt lat="46.03612" lon="4.76291">
        <ele>194</ele>
        <time>2016-10-08T09:57:43Z</time>
      </trkpt>
      <trkpt lat="46.0361" lon="4.76303">
        <ele>195</ele>
        <time>2016-10-08T09:57:45Z</time>
      </trkpt>
      <trkpt lat="46.03609" lon="4.76309">
        <ele>195</ele>
        <time>2016-10-08T09:57:46Z</time>
      </trkpt>
      <trkpt lat="46.03608" lon="4.76315">
        <ele>195</ele>
        <time>2016-10-08T09:57:47Z</time>
      </trkpt>
      <trkpt lat="46.03607" lon="4.76322">
        <ele>195</ele>
        <time>2016-10-08T09:57:48Z</time>
      </trkpt>
      <trkpt lat="46.03607" lon="4.76328">
        <ele>195</ele>
        <time>2016-10-08T09:57:49Z</time>
      </trkpt>
      <trkpt lat="46.03606" lon="4.76335">
        <ele>196</ele>
        <time>2016-10-08T09:57:50Z</time>
      </trkpt>
      <trkpt lat="46.03605" lon="4.76341">
        <ele>196</ele>
        <time>2016-10-08T09:57:51Z</time>
      </trkpt>
      <trkpt lat="46.03604" lon="4.76347">
        <ele>196</ele>
        <time>2016-10-08T09:57:52Z</time>
      </trkpt>
      <trkpt lat="46.03604" lon="4.76355">
        <ele>196</ele>
        <time>2016-10-08T09:57:53Z</time>
      </trkpt>
      <trkpt lat="46.03603" lon="4.76361">
        <ele>196</ele>
        <time>2016-10-08T09:57:54Z</time>
      </trkpt>
      <trkpt lat="46.03602" lon="4.76372">
        <ele>197</ele>
        <time>2016-10-08T09:57:56Z</time>
      </trkpt>
      <trkpt lat="46.03602" lon="4.76378">
        <ele>197</ele>
        <time>2016-10-08T09:57:57Z</time>
      </trkpt>
      <trkpt lat="46.036" lon="4.76389">
        <ele>197</ele>
        <time>2016-10-08T09:57:59Z</time>
      </trkpt>
      <trkpt lat="46.036" lon="4.76395">
        <ele>197</ele>
        <time>2016-10-08T09:58:00Z</time>
      </trkpt>
      <trkpt lat="46.03599" lon="4.76407">
        <ele>198</ele>
        <time>2016-10-08T09:58:02Z</time>
      </trkpt>
      <trkpt lat="46.03598" lon="4.76413">
        <ele>198</ele>
        <time>2016-10-08T09:58:03Z</time>
      </trkpt>
      <trkpt lat="46.03598" lon="4.76425">
        <ele>199</ele>
        <time>2016-10-08T09:58:05Z</time>
      </trkpt>
      <trkpt lat="46.03597" lon="4.76431">
        <ele>199</ele>
        <time>2016-10-08T09:58:06Z</time>
      </trkpt>
      <trkpt lat="46.03596" lon="4.76437">
        <ele>199</ele>
        <time>2016-10-08T09:58:07Z</time>
      </trkpt>
      <trkpt lat="46.03596" lon="4.76444">
        <ele>199</ele>
        <time>2016-10-08T09:58:08Z</time>
      </trkpt>
      <trkpt lat="46.03596" lon="4.7645">
        <ele>199</ele>
        <time>2016-10-08T09:58:09Z</time>
      </trkpt>
      <trkpt lat="46.03597" lon="4.76457">
        <ele>199</ele>
        <time>2016-10-08T09:58:10Z</time>
      </trkpt>
      <trkpt lat="46.03599" lon="4.76468">
        <ele>199</ele>
        <time>2016-10-08T09:58:12Z</time>
      </trkpt>
      <trkpt lat="46.03601" lon="4.76473">
        <ele>199</ele>
        <time>2016-10-08T09:58:13Z</time>
      </trkpt>
      <trkpt lat="46.03607" lon="4.76482">
        <ele>199</ele>
        <time>2016-10-08T09:58:15Z</time>
      </trkpt>
      <trkpt lat="46.03609" lon="4.76486">
        <ele>199</ele>
        <time>2016-10-08T09:58:16Z</time>
      </trkpt>
      <trkpt lat="46.03615" lon="4.76495">
        <ele>199</ele>
        <time>2016-10-08T09:58:18Z</time>
      </trkpt>
      <trkpt lat="46.03618" lon="4.76499">
        <ele>199</ele>
        <time>2016-10-08T09:58:19Z</time>
      </trkpt>
      <trkpt lat="46.03624" lon="4.76508">
        <ele>200</ele>
        <time>2016-10-08T09:58:21Z</time>
      </trkpt>
      <trkpt lat="46.03626" lon="4.76513">
        <ele>200</ele>
        <time>2016-10-08T09:58:22Z</time>
      </trkpt>
      <trkpt lat="46.03629" lon="4.76521">
        <ele>200</ele>
        <time>2016-10-08T09:58:24Z</time>
      </trkpt>
      <trkpt lat="46.03631" lon="4.76527">
        <ele>200</ele>
        <time>2016-10-08T09:58:25Z</time>
      </trkpt>
      <trkpt lat="46.03635" lon="4.76535">
        <ele>200</ele>
        <time>2016-10-08T09:58:27Z</time>
      </trkpt>
      <trkpt lat="46.03637" lon="4.76539">
        <ele>200</ele>
        <time>2016-10-08T09:58:28Z</time>
      </trkpt>
      <trkpt lat="46.03641" lon="4.76548">
        <ele>200</ele>
        <time>2016-10-08T09:58:30Z</time>
      </trkpt>
      <trkpt lat="46.03643" lon="4.76554">
        <ele>201</ele>
        <time>2016-10-08T09:58:31Z</time>
      </trkpt>
      <trkpt lat="46.03647" lon="4.76565">
        <ele>201</ele>
        <time>2016-10-08T09:58:33Z</time>
      </trkpt>
      <trkpt lat="46.0365" lon="4.7657">
        <ele>201</ele>
        <time>2016-10-08T09:58:34Z</time>
      </trkpt>
      <trkpt lat="46.03656" lon="4.76578">
        <ele>201</ele>
        <time>2016-10-08T09:58:36Z</time>
      </trkpt>
      <trkpt lat="46.0366" lon="4.76582">
        <ele>202</ele>
        <time>2016-10-08T09:58:37Z</time>
      </trkpt>
      <trkpt lat="46.03663" lon="4.76586">
        <ele>202</ele>
        <time>2016-10-08T09:58:38Z</time>
      </trkpt>
      <trkpt lat="46.03668" lon="4.76588">
        <ele>202</ele>
        <time>2016-10-08T09:58:39Z</time>
      </trkpt>
      <trkpt lat="46.03671" lon="4.76594">
        <ele>203</ele>
        <time>2016-10-08T09:58:40Z</time>
      </trkpt>
      <trkpt lat="46.03674" lon="4.766">
        <ele>203</ele>
        <time>2016-10-08T09:58:41Z</time>
      </trkpt>
      <trkpt lat="46.03677" lon="4.76611">
        <ele>203</ele>
        <time>2016-10-08T09:58:43Z</time>
      </trkpt>
      <trkpt lat="46.03679" lon="4.76617">
        <ele>203</ele>
        <time>2016-10-08T09:58:44Z</time>
      </trkpt>
      <trkpt lat="46.03681" lon="4.76627">
        <ele>203</ele>
        <time>2016-10-08T09:58:46Z</time>
      </trkpt>
      <trkpt lat="46.03681" lon="4.76632">
        <ele>203</ele>
        <time>2016-10-08T09:58:47Z</time>
      </trkpt>
      <trkpt lat="46.03683" lon="4.76643">
        <ele>204</ele>
        <time>2016-10-08T09:58:49Z</time>
      </trkpt>
      <trkpt lat="46.03685" lon="4.76648">
        <ele>204</ele>
        <time>2016-10-08T09:58:50Z</time>
      </trkpt>
      <trkpt lat="46.0369" lon="4.76659">
        <ele>204</ele>
        <time>2016-10-08T09:58:52Z</time>
      </trkpt>
      <trkpt lat="46.03692" lon="4.76664">
        <ele>204</ele>
        <time>2016-10-08T09:58:53Z</time>
      </trkpt>
      <trkpt lat="46.03695" lon="4.76669">
        <ele>205</ele>
        <time>2016-10-08T09:58:54Z</time>
      </trkpt>
      <trkpt lat="46.03698" lon="4.76676">
        <ele>205</ele>
        <time>2016-10-08T09:58:55Z</time>
      </trkpt>
      <trkpt lat="46.03702" lon="4.76681">
        <ele>205</ele>
        <time>2016-10-08T09:58:56Z</time>
      </trkpt>
      <trkpt lat="46.03706" lon="4.76684">
        <ele>205</ele>
        <time>2016-10-08T09:58:57Z</time>
      </trkpt>
      <trkpt lat="46.0371" lon="4.76687">
        <ele>205</ele>
        <time>2016-10-08T09:58:58Z</time>
      </trkpt>
      <trkpt lat="46.03714" lon="4.7669">
        <ele>205</ele>
        <time>2016-10-08T09:58:59Z</time>
      </trkpt>
      <trkpt lat="46.03722" lon="4.76694">
        <ele>205</ele>
        <time>2016-10-08T09:59:01Z</time>
      </trkpt>
      <trkpt lat="46.03725" lon="4.76696">
        <ele>205</ele>
        <time>2016-10-08T09:59:02Z</time>
      </trkpt>
      <trkpt lat="46.03733" lon="4.76699">
        <ele>205</ele>
        <time>2016-10-08T09:59:04Z</time>
      </trkpt>
      <trkpt lat="46.03737" lon="4.767">
        <ele>205</ele>
        <time>2016-10-08T09:59:05Z</time>
      </trkpt>
      <trkpt lat="46.03745" lon="4.76703">
        <ele>205</ele>
        <time>2016-10-08T09:59:07Z</time>
      </trkpt>
      <trkpt lat="46.0375" lon="4.76704">
        <ele>205</ele>
        <time>2016-10-08T09:59:08Z</time>
      </trkpt>
      <trkpt lat="46.03754" lon="4.76706">
        <ele>205</ele>
        <time>2016-10-08T09:59:09Z</time>
      </trkpt>
      <trkpt lat="46.03758" lon="4.76708">
        <ele>205</ele>
        <time>2016-10-08T09:59:10Z</time>
      </trkpt>
      <trkpt lat="46.03767" lon="4.76711">
        <ele>205</ele>
        <time>2016-10-08T09:59:12Z</time>
      </trkpt>
      <trkpt lat="46.03771" lon="4.76712">
        <ele>205</ele>
        <time>2016-10-08T09:59:13Z</time>
      </trkpt>
      <trkpt lat="46.0378" lon="4.76714">
        <ele>205</ele>
        <time>2016-10-08T09:59:15Z</time>
      </trkpt>
      <trkpt lat="46.03784" lon="4.76715">
        <ele>205</ele>
        <time>2016-10-08T09:59:16Z</time>
      </trkpt>
      <trkpt lat="46.03789" lon="4.76715">
        <ele>205</ele>
        <time>2016-10-08T09:59:17Z</time>
      </trkpt>
      <trkpt lat="46.03793" lon="4.76714">
        <ele>205</ele>
        <time>2016-10-08T09:59:18Z</time>
      </trkpt>
      <trkpt lat="46.03802" lon="4.76715">
        <ele>205</ele>
        <time>2016-10-08T09:59:20Z</time>
      </trkpt>
      <trkpt lat="46.03806" lon="4.76715">
        <ele>205</ele>
        <time>2016-10-08T09:59:21Z</time>
      </trkpt>
      <trkpt lat="46.03815" lon="4.76714">
        <ele>205</ele>
        <time>2016-10-08T09:59:23Z</time>
      </trkpt>
      <trkpt lat="46.03819" lon="4.76714">
        <ele>205</ele>
        <time>2016-10-08T09:59:24Z</time>
      </trkpt>
      <trkpt lat="46.03824" lon="4.76714">
        <ele>205</ele>
        <time>2016-10-08T09:59:25Z</time>
      </trkpt>
      <trkpt lat="46.03828" lon="4.76713">
        <ele>205</ele>
        <time>2016-10-08T09:59:26Z</time>
      </trkpt>
      <trkpt lat="46.03833" lon="4.76712">
        <ele>205</ele>
        <time>2016-10-08T09:59:27Z</time>
      </trkpt>
      <trkpt lat="46.03839" lon="4.76712">
        <ele>205</ele>
        <time>2016-10-08T09:59:28Z</time>
      </trkpt>
      <trkpt lat="46.03843" lon="4.76712">
        <ele>205</ele>
        <time>2016-10-08T09:59:29Z</time>
      </trkpt>
      <trkpt lat="46.03848" lon="4.76712">
        <ele>205</ele>
        <time>2016-10-08T09:59:30Z</time>
      </trkpt>
      <trkpt lat="46.03853" lon="4.76711">
        <ele>205</ele>
        <time>2016-10-08T09:59:31Z</time>
      </trkpt>
      <trkpt lat="46.03858" lon="4.76709">
        <ele>205</ele>
        <time>2016-10-08T09:59:32Z</time>
      </trkpt>
      <trkpt lat="46.03863" lon="4.76707">
        <ele>205</ele>
        <time>2016-10-08T09:59:33Z</time>
      </trkpt>
      <trkpt lat="46.03867" lon="4.76705">
        <ele>205</ele>
        <time>2016-10-08T09:59:34Z</time>
      </trkpt>
      <trkpt lat="46.03872" lon="4.76703">
        <ele>205</ele>
        <time>2016-10-08T09:59:35Z</time>
      </trkpt>
      <trkpt lat="46.03877" lon="4.76702">
        <ele>205</ele>
        <time>2016-10-08T09:59:36Z</time>
      </trkpt>
      <trkpt lat="46.03881" lon="4.767">
        <ele>205</ele>
        <time>2016-10-08T09:59:37Z</time>
      </trkpt>
      <trkpt lat="46.03886" lon="4.76699">
        <ele>205</ele>
        <time>2016-10-08T09:59:38Z</time>
      </trkpt>
      <trkpt lat="46.03891" lon="4.76697">
        <ele>205</ele>
        <time>2016-10-08T09:59:39Z</time>
      </trkpt>
      <trkpt lat="46.03895" lon="4.76696">
        <ele>205</ele>
        <time>2016-10-08T09:59:40Z</time>
      </trkpt>
      <trkpt lat="46.03899" lon="4.76694">
        <ele>205</ele>
        <time>2016-10-08T09:59:41Z</time>
      </trkpt>
      <trkpt lat="46.03905" lon="4.76692">
        <ele>205</ele>
        <time>2016-10-08T09:59:42Z</time>
      </trkpt>
      <trkpt lat="46.0391" lon="4.7669">
        <ele>205</ele>
        <time>2016-10-08T09:59:43Z</time>
      </trkpt>
      <trkpt lat="46.03915" lon="4.76688">
        <ele>205</ele>
        <time>2016-10-08T09:59:44Z</time>
      </trkpt>
      <trkpt lat="46.03921" lon="4.7669">
        <ele>204</ele>
        <time>2016-10-08T09:59:45Z</time>
      </trkpt>
      <trkpt lat="46.03927" lon="4.76689">
        <ele>204</ele>
        <time>2016-10-08T09:59:46Z</time>
      </trkpt>
      <trkpt lat="46.03932" lon="4.76689">
        <ele>204</ele>
        <time>2016-10-08T09:59:47Z</time>
      </trkpt>
      <trkpt lat="46.03937" lon="4.76688">
        <ele>204</ele>
        <time>2016-10-08T09:59:48Z</time>
      </trkpt>
      <trkpt lat="46.03942" lon="4.76687">
        <ele>204</ele>
        <time>2016-10-08T09:59:49Z</time>
      </trkpt>
      <trkpt lat="46.03947" lon="4.76686">
        <ele>204</ele>
        <time>2016-10-08T09:59:50Z</time>
      </trkpt>
      <trkpt lat="46.03952" lon="4.76684">
        <ele>204</ele>
        <time>2016-10-08T09:59:51Z</time>
      </trkpt>
      <trkpt lat="46.03957" lon="4.76683">
        <ele>204</ele>
        <time>2016-10-08T09:59:52Z</time>
      </trkpt>
      <trkpt lat="46.03961" lon="4.76682">
        <ele>203</ele>
        <time>2016-10-08T09:59:53Z</time>
      </trkpt>
      <trkpt lat="46.03966" lon="4.76681">
        <ele>203</ele>
        <time>2016-10-08T09:59:54Z</time>
      </trkpt>
      <trkpt lat="46.03975" lon="4.76681">
        <ele>203</ele>
        <time>2016-10-08T09:59:56Z</time>
      </trkpt>
      <trkpt lat="46.0398" lon="4.76679">
        <ele>203</ele>
        <time>2016-10-08T09:59:57Z</time>
      </trkpt>
      <trkpt lat="46.03985" lon="4.76678">
        <ele>203</ele>
        <time>2016-10-08T09:59:58Z</time>
      </trkpt>
      <trkpt lat="46.0399" lon="4.76678">
        <ele>203</ele>
        <time>2016-10-08T09:59:59Z</time>
      </trkpt>
      <trkpt lat="46.03995" lon="4.76677">
        <ele>203</ele>
        <time>2016-10-08T10:00:00Z</time>
      </trkpt>
      <trkpt lat="46.04" lon="4.76676">
        <ele>202</ele>
        <time>2016-10-08T10:00:01Z</time>
      </trkpt>
      <trkpt lat="46.04006" lon="4.76674">
        <ele>202</ele>
        <time>2016-10-08T10:00:02Z</time>
      </trkpt>
      <trkpt lat="46.04011" lon="4.76673">
        <ele>202</ele>
        <time>2016-10-08T10:00:03Z</time>
      </trkpt>
      <trkpt lat="46.04016" lon="4.76672">
        <ele>202</ele>
        <time>2016-10-08T10:00:04Z</time>
      </trkpt>
      <trkpt lat="46.04021" lon="4.7667">
        <ele>202</ele>
        <time>2016-10-08T10:00:05Z</time>
      </trkpt>
      <trkpt lat="46.04026" lon="4.7667">
        <ele>202</ele>
        <time>2016-10-08T10:00:06Z</time>
      </trkpt>
      <trkpt lat="46.04031" lon="4.7667">
        <ele>202</ele>
        <time>2016-10-08T10:00:07Z</time>
      </trkpt>
      <trkpt lat="46.04036" lon="4.76669">
        <ele>202</ele>
        <time>2016-10-08T10:00:08Z</time>
      </trkpt>
      <trkpt lat="46.04041" lon="4.76668">
        <ele>202</ele>
        <time>2016-10-08T10:00:09Z</time>
      </trkpt>
      <trkpt lat="46.04046" lon="4.76668">
        <ele>202</ele>
        <time>2016-10-08T10:00:10Z</time>
      </trkpt>
      <trkpt lat="46.04051" lon="4.76667">
        <ele>202</ele>
        <time>2016-10-08T10:00:11Z</time>
      </trkpt>
      <trkpt lat="46.04057" lon="4.76666">
        <ele>201</ele>
        <time>2016-10-08T10:00:12Z</time>
      </trkpt>
      <trkpt lat="46.04062" lon="4.76664">
        <ele>201</ele>
        <time>2016-10-08T10:00:13Z</time>
      </trkpt>
      <trkpt lat="46.04068" lon="4.76662">
        <ele>201</ele>
        <time>2016-10-08T10:00:14Z</time>
      </trkpt>
      <trkpt lat="46.04073" lon="4.76661">
        <ele>202</ele>
        <time>2016-10-08T10:00:15Z</time>
      </trkpt>
      <trkpt lat="46.04079" lon="4.76659">
        <ele>202</ele>
        <time>2016-10-08T10:00:16Z</time>
      </trkpt>
      <trkpt lat="46.04085" lon="4.76658">
        <ele>201</ele>
        <time>2016-10-08T10:00:17Z</time>
      </trkpt>
      <trkpt lat="46.04091" lon="4.76657">
        <ele>201</ele>
        <time>2016-10-08T10:00:18Z</time>
      </trkpt>
      <trkpt lat="46.04096" lon="4.76656">
        <ele>201</ele>
        <time>2016-10-08T10:00:19Z</time>
      </trkpt>
      <trkpt lat="46.04102" lon="4.76656">
        <ele>201</ele>
        <time>2016-10-08T10:00:20Z</time>
      </trkpt>
      <trkpt lat="46.04108" lon="4.76655">
        <ele>200</ele>
        <time>2016-10-08T10:00:21Z</time>
      </trkpt>
      <trkpt lat="46.04114" lon="4.76653">
        <ele>200</ele>
        <time>2016-10-08T10:00:22Z</time>
      </trkpt>
      <trkpt lat="46.0412" lon="4.76651">
        <ele>200</ele>
        <time>2016-10-08T10:00:23Z</time>
      </trkpt>
      <trkpt lat="46.04126" lon="4.76649">
        <ele>200</ele>
        <time>2016-10-08T10:00:24Z</time>
      </trkpt>
      <trkpt lat="46.04132" lon="4.76647">
        <ele>200</ele>
        <time>2016-10-08T10:00:25Z</time>
      </trkpt>
      <trkpt lat="46.04138" lon="4.76644">
        <ele>200</ele>
        <time>2016-10-08T10:00:26Z</time>
      </trkpt>
      <trkpt lat="46.04144" lon="4.76643">
        <ele>200</ele>
        <time>2016-10-08T10:00:27Z</time>
      </trkpt>
      <trkpt lat="46.04149" lon="4.7664">
        <ele>200</ele>
        <time>2016-10-08T10:00:28Z</time>
      </trkpt>
      <trkpt lat="46.04154" lon="4.76635">
        <ele>200</ele>
        <time>2016-10-08T10:00:29Z</time>
      </trkpt>
      <trkpt lat="46.04159" lon="4.76631">
        <ele>200</ele>
        <time>2016-10-08T10:00:30Z</time>
      </trkpt>
      <trkpt lat="46.04165" lon="4.76626">
        <ele>199</ele>
        <time>2016-10-08T10:00:31Z</time>
      </trkpt>
      <trkpt lat="46.0417" lon="4.76621">
        <ele>198</ele>
        <time>2016-10-08T10:00:32Z</time>
      </trkpt>
      <trkpt lat="46.04175" lon="4.76616">
        <ele>198</ele>
        <time>2016-10-08T10:00:33Z</time>
      </trkpt>
      <trkpt lat="46.0418" lon="4.76611">
        <ele>198</ele>
        <time>2016-10-08T10:00:34Z</time>
      </trkpt>
      <trkpt lat="46.04186" lon="4.76606">
        <ele>198</ele>
        <time>2016-10-08T10:00:35Z</time>
      </trkpt>
      <trkpt lat="46.04191" lon="4.76602">
        <ele>198</ele>
        <time>2016-10-08T10:00:36Z</time>
      </trkpt>
      <trkpt lat="46.04196" lon="4.76599">
        <ele>198</ele>
        <time>2016-10-08T10:00:37Z</time>
      </trkpt>
      <trkpt lat="46.04202" lon="4.76596">
        <ele>198</ele>
        <time>2016-10-08T10:00:38Z</time>
      </trkpt>
      <trkpt lat="46.04208" lon="4.76594">
        <ele>198</ele>
        <time>2016-10-08T10:00:39Z</time>
      </trkpt>
      <trkpt lat="46.04215" lon="4.76592">
        <ele>198</ele>
        <time>2016-10-08T10:00:40Z</time>
      </trkpt>
      <trkpt lat="46.04221" lon="4.76591">
        <ele>198</ele>
        <time>2016-10-08T10:00:41Z</time>
      </trkpt>
      <trkpt lat="46.04228" lon="4.76591">
        <ele>198</ele>
        <time>2016-10-08T10:00:42Z</time>
      </trkpt>
      <trkpt lat="46.04235" lon="4.7659">
        <ele>198</ele>
        <time>2016-10-08T10:00:43Z</time>
      </trkpt>
      <trkpt lat="46.04241" lon="4.76589">
        <ele>197</ele>
        <time>2016-10-08T10:00:44Z</time>
      </trkpt>
      <trkpt lat="46.04248" lon="4.76587">
        <ele>197</ele>
        <time>2016-10-08T10:00:45Z</time>
      </trkpt>
      <trkpt lat="46.04254" lon="4.76587">
        <ele>197</ele>
        <time>2016-10-08T10:00:46Z</time>
      </trkpt>
      <trkpt lat="46.04261" lon="4.76587">
        <ele>197</ele>
        <time>2016-10-08T10:00:47Z</time>
      </trkpt>
      <trkpt lat="46.04268" lon="4.76586">
        <ele>197</ele>
        <time>2016-10-08T10:00:48Z</time>
      </trkpt>
      <trkpt lat="46.04275" lon="4.76586">
        <ele>198</ele>
        <time>2016-10-08T10:00:49Z</time>
      </trkpt>
      <trkpt lat="46.04282" lon="4.76586">
        <ele>198</ele>
        <time>2016-10-08T10:00:50Z</time>
      </trkpt>
      <trkpt lat="46.04289" lon="4.76585">
        <ele>198</ele>
        <time>2016-10-08T10:00:51Z</time>
      </trkpt>
      <trkpt lat="46.04296" lon="4.76584">
        <ele>198</ele>
        <time>2016-10-08T10:00:52Z</time>
      </trkpt>
      <trkpt lat="46.04303" lon="4.76583">
        <ele>197</ele>
        <time>2016-10-08T10:00:53Z</time>
      </trkpt>
      <trkpt lat="46.0431" lon="4.76582">
        <ele>197</ele>
        <time>2016-10-08T10:00:54Z</time>
      </trkpt>
      <trkpt lat="46.04317" lon="4.76581">
        <ele>198</ele>
        <time>2016-10-08T10:00:55Z</time>
      </trkpt>
      <trkpt lat="46.04324" lon="4.76583">
        <ele>198</ele>
        <time>2016-10-08T10:00:56Z</time>
      </trkpt>
      <trkpt lat="46.04332" lon="4.76582">
        <ele>199</ele>
        <time>2016-10-08T10:00:57Z</time>
      </trkpt>
      <trkpt lat="46.04339" lon="4.7658">
        <ele>198</ele>
        <time>2016-10-08T10:00:58Z</time>
      </trkpt>
      <trkpt lat="46.04345" lon="4.76578">
        <ele>198</ele>
        <time>2016-10-08T10:00:59Z</time>
      </trkpt>
      <trkpt lat="46.04352" lon="4.76576">
        <ele>198</ele>
        <time>2016-10-08T10:01:00Z</time>
      </trkpt>
      <trkpt lat="46.04358" lon="4.76574">
        <ele>197</ele>
        <time>2016-10-08T10:01:01Z</time>
      </trkpt>
      <trkpt lat="46.04365" lon="4.76573">
        <ele>197</ele>
        <time>2016-10-08T10:01:02Z</time>
      </trkpt>
      <trkpt lat="46.04371" lon="4.76573">
        <ele>197</ele>
        <time>2016-10-08T10:01:03Z</time>
      </trkpt>
      <trkpt lat="46.04378" lon="4.76573">
        <ele>197</ele>
        <time>2016-10-08T10:01:04Z</time>
      </trkpt>
      <trkpt lat="46.04385" lon="4.76573">
        <ele>197</ele>
        <time>2016-10-08T10:01:05Z</time>
      </trkpt>
      <trkpt lat="46.04391" lon="4.76571">
        <ele>197</ele>
        <time>2016-10-08T10:01:06Z</time>
      </trkpt>
      <trkpt lat="46.04397" lon="4.76571">
        <ele>198</ele>
        <time>2016-10-08T10:01:07Z</time>
      </trkpt>
      <trkpt lat="46.04404" lon="4.7657">
        <ele>198</ele>
        <time>2016-10-08T10:01:08Z</time>
      </trkpt>
      <trkpt lat="46.0441" lon="4.7657">
        <ele>198</ele>
        <time>2016-10-08T10:01:09Z</time>
      </trkpt>
      <trkpt lat="46.04417" lon="4.7657">
        <ele>198</ele>
        <time>2016-10-08T10:01:10Z</time>
      </trkpt>
      <trkpt lat="46.04422" lon="4.76571">
        <ele>197</ele>
        <time>2016-10-08T10:01:11Z</time>
      </trkpt>
      <trkpt lat="46.04429" lon="4.7657">
        <ele>196</ele>
        <time>2016-10-08T10:01:12Z</time>
      </trkpt>
      <trkpt lat="46.04435" lon="4.76571">
        <ele>196</ele>
        <time>2016-10-08T10:01:13Z</time>
      </trkpt>
      <trkpt lat="46.04441" lon="4.7657">
        <ele>195</ele>
        <time>2016-10-08T10:01:14Z</time>
      </trkpt>
      <trkpt lat="46.04447" lon="4.7657">
        <ele>195</ele>
        <time>2016-10-08T10:01:15Z</time>
      </trkpt>
      <trkpt lat="46.04453" lon="4.7657">
        <ele>194</ele>
        <time>2016-10-08T10:01:16Z</time>
      </trkpt>
      <trkpt lat="46.0446" lon="4.76569">
        <ele>194</ele>
        <time>2016-10-08T10:01:17Z</time>
      </trkpt>
      <trkpt lat="46.04466" lon="4.76569">
        <ele>194</ele>
        <time>2016-10-08T10:01:18Z</time>
      </trkpt>
      <trkpt lat="46.04472" lon="4.76569">
        <ele>193</ele>
        <time>2016-10-08T10:01:19Z</time>
      </trkpt>
      <trkpt lat="46.04477" lon="4.7657">
        <ele>193</ele>
        <time>2016-10-08T10:01:20Z</time>
      </trkpt>
      <trkpt lat="46.04483" lon="4.7657">
        <ele>193</ele>
        <time>2016-10-08T10:01:21Z</time>
      </trkpt>
      <trkpt lat="46.04488" lon="4.7657">
        <ele>192</ele>
        <time>2016-10-08T10:01:22Z</time>
      </trkpt>
      <trkpt lat="46.04494" lon="4.7657">
        <ele>192</ele>
        <time>2016-10-08T10:01:23Z</time>
      </trkpt>
      <trkpt lat="46.04499" lon="4.76569">
        <ele>192</ele>
        <time>2016-10-08T10:01:24Z</time>
      </trkpt>
      <trkpt lat="46.04504" lon="4.76569">
        <ele>190</ele>
        <time>2016-10-08T10:01:25Z</time>
      </trkpt>
      <trkpt lat="46.04511" lon="4.76569">
        <ele>189</ele>
        <time>2016-10-08T10:01:26Z</time>
      </trkpt>
      <trkpt lat="46.04514" lon="4.7657">
        <ele>189</ele>
        <time>2016-10-08T10:01:27Z</time>
      </trkpt>
      <trkpt lat="46.04521" lon="4.76569">
        <ele>189</ele>
        <time>2016-10-08T10:01:29Z</time>
      </trkpt>
      <trkpt lat="46.0453" lon="4.76569">
        <ele>189</ele>
        <time>2016-10-08T10:01:30Z</time>
      </trkpt>
      <trkpt lat="46.04537" lon="4.76567">
        <ele>188</ele>
        <time>2016-10-08T10:01:31Z</time>
      </trkpt>
      <trkpt lat="46.04541" lon="4.76565">
        <ele>188</ele>
        <time>2016-10-08T10:01:32Z</time>
      </trkpt>
      <trkpt lat="46.04546" lon="4.76564">
        <ele>188</ele>
        <time>2016-10-08T10:01:33Z</time>
      </trkpt>
      <trkpt lat="46.04551" lon="4.76563">
        <ele>188</ele>
        <time>2016-10-08T10:01:34Z</time>
      </trkpt>
      <trkpt lat="46.04559" lon="4.76559">
        <ele>188</ele>
        <time>2016-10-08T10:01:36Z</time>
      </trkpt>
      <trkpt lat="46.04564" lon="4.76557">
        <ele>187</ele>
        <time>2016-10-08T10:01:37Z</time>
      </trkpt>
      <trkpt lat="46.0457" lon="4.76554">
        <ele>187</ele>
        <time>2016-10-08T10:01:38Z</time>
      </trkpt>
      <trkpt lat="46.04576" lon="4.76551">
        <ele>187</ele>
        <time>2016-10-08T10:01:39Z</time>
      </trkpt>
      <trkpt lat="46.04581" lon="4.76548">
        <ele>187</ele>
        <time>2016-10-08T10:01:40Z</time>
      </trkpt>
      <trkpt lat="46.04587" lon="4.76545">
        <ele>186</ele>
        <time>2016-10-08T10:01:41Z</time>
      </trkpt>
      <trkpt lat="46.04593" lon="4.76542">
        <ele>186</ele>
        <time>2016-10-08T10:01:42Z</time>
      </trkpt>
      <trkpt lat="46.04599" lon="4.7654">
        <ele>186</ele>
        <time>2016-10-08T10:01:43Z</time>
      </trkpt>
      <trkpt lat="46.04605" lon="4.76537">
        <ele>186</ele>
        <time>2016-10-08T10:01:44Z</time>
      </trkpt>
      <trkpt lat="46.0461" lon="4.76534">
        <ele>186</ele>
        <time>2016-10-08T10:01:45Z</time>
      </trkpt>
      <trkpt lat="46.04616" lon="4.76531">
        <ele>186</ele>
        <time>2016-10-08T10:01:46Z</time>
      </trkpt>
      <trkpt lat="46.04621" lon="4.76529">
        <ele>186</ele>
        <time>2016-10-08T10:01:47Z</time>
      </trkpt>
      <trkpt lat="46.04627" lon="4.76527">
        <ele>186</ele>
        <time>2016-10-08T10:01:48Z</time>
      </trkpt>
      <trkpt lat="46.04632" lon="4.76524">
        <ele>186</ele>
        <time>2016-10-08T10:01:49Z</time>
      </trkpt>
      <trkpt lat="46.04637" lon="4.76521">
        <ele>186</ele>
        <time>2016-10-08T10:01:50Z</time>
      </trkpt>
      <trkpt lat="46.04642" lon="4.76518">
        <ele>186</ele>
        <time>2016-10-08T10:01:51Z</time>
      </trkpt>
      <trkpt lat="46.04647" lon="4.76516">
        <ele>186</ele>
        <time>2016-10-08T10:01:52Z</time>
      </trkpt>
      <trkpt lat="46.04651" lon="4.76515">
        <ele>186</ele>
        <time>2016-10-08T10:01:53Z</time>
      </trkpt>
      <trkpt lat="46.0466" lon="4.76513">
        <ele>186</ele>
        <time>2016-10-08T10:01:55Z</time>
      </trkpt>
      <trkpt lat="46.04663" lon="4.76512">
        <ele>186</ele>
        <time>2016-10-08T10:01:56Z</time>
      </trkpt>
      <trkpt lat="46.04669" lon="4.76503">
        <ele>186</ele>
        <time>2016-10-08T10:02:00Z</time>
      </trkpt>
      <trkpt lat="46.04668" lon="4.765">
        <ele>186</ele>
        <time>2016-10-08T10:02:01Z</time>
      </trkpt>
      <trkpt lat="46.04668" lon="4.76497">
        <ele>186</ele>
        <time>2016-10-08T10:02:02Z</time>
      </trkpt>
      <trkpt lat="46.04668" lon="4.76496">
        <ele>186</ele>
        <time>2016-10-08T10:02:03Z</time>
      </trkpt>
      <trkpt lat="46.04669" lon="4.76494">
        <ele>187</ele>
        <time>2016-10-08T10:02:12Z</time>
      </trkpt>
      <trkpt lat="46.04672" lon="4.76492">
        <ele>187</ele>
        <time>2016-10-08T10:02:13Z</time>
      </trkpt>
      <trkpt lat="46.04676" lon="4.76487">
        <ele>187</ele>
        <time>2016-10-08T10:02:15Z</time>
      </trkpt>
      <trkpt lat="46.0468" lon="4.76483">
        <ele>188</ele>
        <time>2016-10-08T10:02:16Z</time>
      </trkpt>
      <trkpt lat="46.04686" lon="4.7649">
        <ele>188</ele>
        <time>2016-10-08T10:02:19Z</time>
      </trkpt>
      <trkpt lat="46.04689" lon="4.76492">
        <ele>188</ele>
        <time>2016-10-08T10:02:20Z</time>
      </trkpt>
      <trkpt lat="46.04695" lon="4.76492">
        <ele>188</ele>
        <time>2016-10-08T10:02:22Z</time>
      </trkpt>
      <trkpt lat="46.04698" lon="4.76491">
        <ele>188</ele>
        <time>2016-10-08T10:02:23Z</time>
      </trkpt>
      <trkpt lat="46.04703" lon="4.76488">
        <ele>188</ele>
        <time>2016-10-08T10:02:24Z</time>
      </trkpt>
      <trkpt lat="46.04707" lon="4.76486">
        <ele>189</ele>
        <time>2016-10-08T10:02:25Z</time>
      </trkpt>
      <trkpt lat="46.04714" lon="4.76486">
        <ele>189</ele>
        <time>2016-10-08T10:02:27Z</time>
      </trkpt>
      <trkpt lat="46.04717" lon="4.76486">
        <ele>189</ele>
        <time>2016-10-08T10:02:28Z</time>
      </trkpt>
      <trkpt lat="46.04724" lon="4.76485">
        <ele>189</ele>
        <time>2016-10-08T10:02:30Z</time>
      </trkpt>
      <trkpt lat="46.04728" lon="4.76484">
        <ele>189</ele>
        <time>2016-10-08T10:02:31Z</time>
      </trkpt>
      <trkpt lat="46.04734" lon="4.76485">
        <ele>190</ele>
        <time>2016-10-08T10:02:33Z</time>
      </trkpt>
      <trkpt lat="46.04738" lon="4.76485">
        <ele>190</ele>
        <time>2016-10-08T10:02:34Z</time>
      </trkpt>
      <trkpt lat="46.04744" lon="4.76482">
        <ele>190</ele>
        <time>2016-10-08T10:02:36Z</time>
      </trkpt>
      <trkpt lat="46.04747" lon="4.7648">
        <ele>190</ele>
        <time>2016-10-08T10:02:37Z</time>
      </trkpt>
      <trkpt lat="46.04754" lon="4.76476">
        <ele>192</ele>
        <time>2016-10-08T10:02:39Z</time>
      </trkpt>
      <trkpt lat="46.04758" lon="4.76474">
        <ele>192</ele>
        <time>2016-10-08T10:02:40Z</time>
      </trkpt>
      <trkpt lat="46.04765" lon="4.7647">
        <ele>192</ele>
        <time>2016-10-08T10:02:42Z</time>
      </trkpt>
      <trkpt lat="46.04769" lon="4.76467">
        <ele>192</ele>
        <time>2016-10-08T10:02:43Z</time>
      </trkpt>
      <trkpt lat="46.04775" lon="4.7646">
        <ele>192</ele>
        <time>2016-10-08T10:02:45Z</time>
      </trkpt>
      <trkpt lat="46.04778" lon="4.76458">
        <ele>192</ele>
        <time>2016-10-08T10:02:46Z</time>
      </trkpt>
      <trkpt lat="46.04784" lon="4.76454">
        <ele>192</ele>
        <time>2016-10-08T10:02:48Z</time>
      </trkpt>
      <trkpt lat="46.04787" lon="4.76453">
        <ele>192</ele>
        <time>2016-10-08T10:02:49Z</time>
      </trkpt>
      <trkpt lat="46.04793" lon="4.76448">
        <ele>193</ele>
        <time>2016-10-08T10:02:51Z</time>
      </trkpt>
      <trkpt lat="46.04796" lon="4.76447">
        <ele>193</ele>
        <time>2016-10-08T10:02:52Z</time>
      </trkpt>
      <trkpt lat="46.04803" lon="4.76448">
        <ele>193</ele>
        <time>2016-10-08T10:02:54Z</time>
      </trkpt>
      <trkpt lat="46.04806" lon="4.76448">
        <ele>193</ele>
        <time>2016-10-08T10:02:55Z</time>
      </trkpt>
      <trkpt lat="46.04813" lon="4.76448">
        <ele>193</ele>
        <time>2016-10-08T10:02:57Z</time>
      </trkpt>
      <trkpt lat="46.04817" lon="4.76447">
        <ele>193</ele>
        <time>2016-10-08T10:02:58Z</time>
      </trkpt>
      <trkpt lat="46.04823" lon="4.76449">
        <ele>193</ele>
        <time>2016-10-08T10:03:00Z</time>
      </trkpt>
      <trkpt lat="46.04827" lon="4.76449">
        <ele>193</ele>
        <time>2016-10-08T10:03:01Z</time>
      </trkpt>
      <trkpt lat="46.04834" lon="4.76449">
        <ele>194</ele>
        <time>2016-10-08T10:03:03Z</time>
      </trkpt>
      <trkpt lat="46.04838" lon="4.7645">
        <ele>194</ele>
        <time>2016-10-08T10:03:04Z</time>
      </trkpt>
      <trkpt lat="46.04842" lon="4.76452">
        <ele>194</ele>
        <time>2016-10-08T10:03:05Z</time>
      </trkpt>
      <trkpt lat="46.04847" lon="4.76452">
        <ele>193</ele>
        <time>2016-10-08T10:03:06Z</time>
      </trkpt>
      <trkpt lat="46.04855" lon="4.76453">
        <ele>193</ele>
        <time>2016-10-08T10:03:08Z</time>
      </trkpt>
      <trkpt lat="46.04859" lon="4.76454">
        <ele>193</ele>
        <time>2016-10-08T10:03:09Z</time>
      </trkpt>
      <trkpt lat="46.04866" lon="4.76454">
        <ele>193</ele>
        <time>2016-10-08T10:03:11Z</time>
      </trkpt>
      <trkpt lat="46.0487" lon="4.76454">
        <ele>193</ele>
        <time>2016-10-08T10:03:12Z</time>
      </trkpt>
      <trkpt lat="46.04879" lon="4.76455">
        <ele>193</ele>
        <time>2016-10-08T10:03:14Z</time>
      </trkpt>
      <trkpt lat="46.04883" lon="4.76455">
        <ele>193</ele>
        <time>2016-10-08T10:03:15Z</time>
      </trkpt>
      <trkpt lat="46.04892" lon="4.76455">
        <ele>193</ele>
        <time>2016-10-08T10:03:17Z</time>
      </trkpt>
      <trkpt lat="46.04896" lon="4.76454">
        <ele>193</ele>
        <time>2016-10-08T10:03:18Z</time>
      </trkpt>
      <trkpt lat="46.04901" lon="4.76452">
        <ele>193</ele>
        <time>2016-10-08T10:03:19Z</time>
      </trkpt>
      <trkpt lat="46.04905" lon="4.76449">
        <ele>193</ele>
        <time>2016-10-08T10:03:20Z</time>
      </trkpt>
      <trkpt lat="46.0491" lon="4.76446">
        <ele>193</ele>
        <time>2016-10-08T10:03:21Z</time>
      </trkpt>
      <trkpt lat="46.04915" lon="4.76444">
        <ele>193</ele>
        <time>2016-10-08T10:03:22Z</time>
      </trkpt>
      <trkpt lat="46.04921" lon="4.76437">
        <ele>191</ele>
        <time>2016-10-08T10:03:23Z</time>
      </trkpt>
      <trkpt lat="46.04926" lon="4.76434">
        <ele>191</ele>
        <time>2016-10-08T10:03:24Z</time>
      </trkpt>
      <trkpt lat="46.04931" lon="4.76432">
        <ele>191</ele>
        <time>2016-10-08T10:03:25Z</time>
      </trkpt>
      <trkpt lat="46.04936" lon="4.76429">
        <ele>191</ele>
        <time>2016-10-08T10:03:26Z</time>
      </trkpt>
      <trkpt lat="46.04939" lon="4.76431">
        <ele>191</ele>
        <time>2016-10-08T10:03:27Z</time>
      </trkpt>
      <trkpt lat="46.04944" lon="4.76436">
        <ele>191</ele>
        <time>2016-10-08T10:03:28Z</time>
      </trkpt>
      <trkpt lat="46.04949" lon="4.7644">
        <ele>191</ele>
        <time>2016-10-08T10:03:29Z</time>
      </trkpt>
      <trkpt lat="46.04953" lon="4.76442">
        <ele>191</ele>
        <time>2016-10-08T10:03:30Z</time>
      </trkpt>
      <trkpt lat="46.04957" lon="4.76446">
        <ele>191</ele>
        <time>2016-10-08T10:03:31Z</time>
      </trkpt>
      <trkpt lat="46.0496" lon="4.76451">
        <ele>191</ele>
        <time>2016-10-08T10:03:32Z</time>
      </trkpt>
      <trkpt lat="46.04963" lon="4.76455">
        <ele>191</ele>
        <time>2016-10-08T10:03:33Z</time>
      </trkpt>
      <trkpt lat="46.04968" lon="4.76456">
        <ele>191</ele>
        <time>2016-10-08T10:03:34Z</time>
      </trkpt>
      <trkpt lat="46.04974" lon="4.76465">
        <ele>191</ele>
        <time>2016-10-08T10:03:36Z</time>
      </trkpt>
      <trkpt lat="46.04976" lon="4.76469">
        <ele>191</ele>
        <time>2016-10-08T10:03:37Z</time>
      </trkpt>
      <trkpt lat="46.04978" lon="4.76476">
        <ele>191</ele>
        <time>2016-10-08T10:03:38Z</time>
      </trkpt>
      <trkpt lat="46.0498" lon="4.76482">
        <ele>190</ele>
        <time>2016-10-08T10:03:39Z</time>
      </trkpt>
      <trkpt lat="46.04982" lon="4.76487">
        <ele>190</ele>
        <time>2016-10-08T10:03:40Z</time>
      </trkpt>
      <trkpt lat="46.04984" lon="4.76493">
        <ele>190</ele>
        <time>2016-10-08T10:03:41Z</time>
      </trkpt>
      <trkpt lat="46.04986" lon="4.76499">
        <ele>190</ele>
        <time>2016-10-08T10:03:42Z</time>
      </trkpt>
      <trkpt lat="46.04988" lon="4.76506">
        <ele>191</ele>
        <time>2016-10-08T10:03:43Z</time>
      </trkpt>
      <trkpt lat="46.0499" lon="4.76512">
        <ele>191</ele>
        <time>2016-10-08T10:03:44Z</time>
      </trkpt>
      <trkpt lat="46.04993" lon="4.76518">
        <ele>191</ele>
        <time>2016-10-08T10:03:45Z</time>
      </trkpt>
      <trkpt lat="46.04997" lon="4.76527">
        <ele>191</ele>
        <time>2016-10-08T10:03:47Z</time>
      </trkpt>
      <trkpt lat="46.04998" lon="4.76533">
        <ele>191</ele>
        <time>2016-10-08T10:03:48Z</time>
      </trkpt>
      <trkpt lat="46.05002" lon="4.76542">
        <ele>190</ele>
        <time>2016-10-08T10:03:50Z</time>
      </trkpt>
      <trkpt lat="46.05004" lon="4.76545">
        <ele>190</ele>
        <time>2016-10-08T10:03:51Z</time>
      </trkpt>
      <trkpt lat="46.05006" lon="4.76555">
        <ele>190</ele>
        <time>2016-10-08T10:03:54Z</time>
      </trkpt>
      <trkpt lat="46.05007" lon="4.76559">
        <ele>190</ele>
        <time>2016-10-08T10:03:55Z</time>
      </trkpt>
      <trkpt lat="46.05011" lon="4.76568">
        <ele>191</ele>
        <time>2016-10-08T10:03:57Z</time>
      </trkpt>
      <trkpt lat="46.05015" lon="4.76572">
        <ele>191</ele>
        <time>2016-10-08T10:03:58Z</time>
      </trkpt>
      <trkpt lat="46.0502" lon="4.76575">
        <ele>191</ele>
        <time>2016-10-08T10:03:59Z</time>
      </trkpt>
      <trkpt lat="46.05024" lon="4.76578">
        <ele>191</ele>
        <time>2016-10-08T10:04:00Z</time>
      </trkpt>
      <trkpt lat="46.05028" lon="4.7658">
        <ele>190</ele>
        <time>2016-10-08T10:04:01Z</time>
      </trkpt>
      <trkpt lat="46.05033" lon="4.76583">
        <ele>190</ele>
        <time>2016-10-08T10:04:02Z</time>
      </trkpt>
      <trkpt lat="46.05038" lon="4.76588">
        <ele>192</ele>
        <time>2016-10-08T10:04:03Z</time>
      </trkpt>
      <trkpt lat="46.05043" lon="4.76591">
        <ele>191</ele>
        <time>2016-10-08T10:04:04Z</time>
      </trkpt>
      <trkpt lat="46.05048" lon="4.76594">
        <ele>191</ele>
        <time>2016-10-08T10:04:05Z</time>
      </trkpt>
      <trkpt lat="46.05052" lon="4.76598">
        <ele>191</ele>
        <time>2016-10-08T10:04:06Z</time>
      </trkpt>
      <trkpt lat="46.05057" lon="4.76601">
        <ele>191</ele>
        <time>2016-10-08T10:04:07Z</time>
      </trkpt>
      <trkpt lat="46.05061" lon="4.76605">
        <ele>191</ele>
        <time>2016-10-08T10:04:08Z</time>
      </trkpt>
      <trkpt lat="46.05065" lon="4.76609">
        <ele>191</ele>
        <time>2016-10-08T10:04:09Z</time>
      </trkpt>
      <trkpt lat="46.0507" lon="4.76614">
        <ele>191</ele>
        <time>2016-10-08T10:04:10Z</time>
      </trkpt>
      <trkpt lat="46.05073" lon="4.7662">
        <ele>192</ele>
        <time>2016-10-08T10:04:11Z</time>
      </trkpt>
      <trkpt lat="46.05074" lon="4.76626">
        <ele>192</ele>
        <time>2016-10-08T10:04:12Z</time>
      </trkpt>
      <trkpt lat="46.05075" lon="4.76634">
        <ele>192</ele>
        <time>2016-10-08T10:04:13Z</time>
      </trkpt>
      <trkpt lat="46.05076" lon="4.76641">
        <ele>192</ele>
        <time>2016-10-08T10:04:14Z</time>
      </trkpt>
      <trkpt lat="46.05077" lon="4.76649">
        <ele>192</ele>
        <time>2016-10-08T10:04:15Z</time>
      </trkpt>
      <trkpt lat="46.05078" lon="4.76656">
        <ele>192</ele>
        <time>2016-10-08T10:04:16Z</time>
      </trkpt>
      <trkpt lat="46.05079" lon="4.76663">
        <ele>193</ele>
        <time>2016-10-08T10:04:17Z</time>
      </trkpt>
      <trkpt lat="46.0508" lon="4.7667">
        <ele>193</ele>
        <time>2016-10-08T10:04:18Z</time>
      </trkpt>
      <trkpt lat="46.0508" lon="4.76677">
        <ele>193</ele>
        <time>2016-10-08T10:04:19Z</time>
      </trkpt>
      <trkpt lat="46.05081" lon="4.76684">
        <ele>193</ele>
        <time>2016-10-08T10:04:20Z</time>
      </trkpt>
      <trkpt lat="46.05082" lon="4.7669">
        <ele>193</ele>
        <time>2016-10-08T10:04:21Z</time>
      </trkpt>
      <trkpt lat="46.05083" lon="4.76697">
        <ele>193</ele>
        <time>2016-10-08T10:04:22Z</time>
      </trkpt>
      <trkpt lat="46.05084" lon="4.76704">
        <ele>193</ele>
        <time>2016-10-08T10:04:23Z</time>
      </trkpt>
      <trkpt lat="46.05085" lon="4.76711">
        <ele>193</ele>
        <time>2016-10-08T10:04:24Z</time>
      </trkpt>
      <trkpt lat="46.05087" lon="4.76717">
        <ele>193</ele>
        <time>2016-10-08T10:04:25Z</time>
      </trkpt>
      <trkpt lat="46.05089" lon="4.76724">
        <ele>193</ele>
        <time>2016-10-08T10:04:26Z</time>
      </trkpt>
      <trkpt lat="46.05091" lon="4.7673">
        <ele>193</ele>
        <time>2016-10-08T10:04:27Z</time>
      </trkpt>
      <trkpt lat="46.05092" lon="4.76738">
        <ele>193</ele>
        <time>2016-10-08T10:04:28Z</time>
      </trkpt>
      <trkpt lat="46.05094" lon="4.76745">
        <ele>193</ele>
        <time>2016-10-08T10:04:29Z</time>
      </trkpt>
      <trkpt lat="46.05095" lon="4.76753">
        <ele>194</ele>
        <time>2016-10-08T10:04:30Z</time>
      </trkpt>
      <trkpt lat="46.05096" lon="4.76761">
        <ele>194</ele>
        <time>2016-10-08T10:04:31Z</time>
      </trkpt>
      <trkpt lat="46.05097" lon="4.76768">
        <ele>194</ele>
        <time>2016-10-08T10:04:32Z</time>
      </trkpt>
      <trkpt lat="46.051" lon="4.76774">
        <ele>194</ele>
        <time>2016-10-08T10:04:33Z</time>
      </trkpt>
      <trkpt lat="46.05102" lon="4.7678">
        <ele>194</ele>
        <time>2016-10-08T10:04:34Z</time>
      </trkpt>
      <trkpt lat="46.05103" lon="4.76787">
        <ele>194</ele>
        <time>2016-10-08T10:04:35Z</time>
      </trkpt>
      <trkpt lat="46.05104" lon="4.76793">
        <ele>194</ele>
        <time>2016-10-08T10:04:36Z</time>
      </trkpt>
      <trkpt lat="46.05108" lon="4.76805">
        <ele>194</ele>
        <time>2016-10-08T10:04:38Z</time>
      </trkpt>
      <trkpt lat="46.05109" lon="4.76813">
        <ele>194</ele>
        <time>2016-10-08T10:04:39Z</time>
      </trkpt>
      <trkpt lat="46.0511" lon="4.76821">
        <ele>194</ele>
        <time>2016-10-08T10:04:40Z</time>
      </trkpt>
      <trkpt lat="46.05112" lon="4.76827">
        <ele>194</ele>
        <time>2016-10-08T10:04:41Z</time>
      </trkpt>
      <trkpt lat="46.05115" lon="4.76839">
        <ele>195</ele>
        <time>2016-10-08T10:04:43Z</time>
      </trkpt>
      <trkpt lat="46.05118" lon="4.76844">
        <ele>195</ele>
        <time>2016-10-08T10:04:44Z</time>
      </trkpt>
      <trkpt lat="46.05122" lon="4.76855">
        <ele>195</ele>
        <time>2016-10-08T10:04:46Z</time>
      </trkpt>
      <trkpt lat="46.05125" lon="4.76861">
        <ele>195</ele>
        <time>2016-10-08T10:04:47Z</time>
      </trkpt>
      <trkpt lat="46.05127" lon="4.76867">
        <ele>195</ele>
        <time>2016-10-08T10:04:48Z</time>
      </trkpt>
      <trkpt lat="46.0513" lon="4.76872">
        <ele>195</ele>
        <time>2016-10-08T10:04:49Z</time>
      </trkpt>
      <trkpt lat="46.05133" lon="4.76878">
        <ele>195</ele>
        <time>2016-10-08T10:04:50Z</time>
      </trkpt>
      <trkpt lat="46.05135" lon="4.76883">
        <ele>195</ele>
        <time>2016-10-08T10:04:51Z</time>
      </trkpt>
      <trkpt lat="46.05138" lon="4.76889">
        <ele>195</ele>
        <time>2016-10-08T10:04:52Z</time>
      </trkpt>
      <trkpt lat="46.05141" lon="4.76894">
        <ele>195</ele>
        <time>2016-10-08T10:04:53Z</time>
      </trkpt>
      <trkpt lat="46.05146" lon="4.76904">
        <ele>195</ele>
        <time>2016-10-08T10:04:55Z</time>
      </trkpt>
      <trkpt lat="46.05148" lon="4.76907">
        <ele>195</ele>
        <time>2016-10-08T10:04:56Z</time>
      </trkpt>
      <trkpt lat="46.05155" lon="4.76913">
        <ele>196</ele>
        <time>2016-10-08T10:04:58Z</time>
      </trkpt>
      <trkpt lat="46.05158" lon="4.76918">
        <ele>196</ele>
        <time>2016-10-08T10:04:59Z</time>
      </trkpt>
      <trkpt lat="46.05163" lon="4.76928">
        <ele>196</ele>
        <time>2016-10-08T10:05:01Z</time>
      </trkpt>
      <trkpt lat="46.05165" lon="4.76933">
        <ele>196</ele>
        <time>2016-10-08T10:05:02Z</time>
      </trkpt>
      <trkpt lat="46.05168" lon="4.76943">
        <ele>197</ele>
        <time>2016-10-08T10:05:04Z</time>
      </trkpt>
      <trkpt lat="46.05171" lon="4.76947">
        <ele>197</ele>
        <time>2016-10-08T10:05:05Z</time>
      </trkpt>
      <trkpt lat="46.05175" lon="4.76956">
        <ele>197</ele>
        <time>2016-10-08T10:05:07Z</time>
      </trkpt>
      <trkpt lat="46.05177" lon="4.7696">
        <ele>198</ele>
        <time>2016-10-08T10:05:08Z</time>
      </trkpt>
      <trkpt lat="46.05181" lon="4.76968">
        <ele>198</ele>
        <time>2016-10-08T10:05:10Z</time>
      </trkpt>
      <trkpt lat="46.05182" lon="4.76974">
        <ele>198</ele>
        <time>2016-10-08T10:05:11Z</time>
      </trkpt>
      <trkpt lat="46.05185" lon="4.76984">
        <ele>198</ele>
        <time>2016-10-08T10:05:13Z</time>
      </trkpt>
      <trkpt lat="46.05186" lon="4.76988">
        <ele>198</ele>
        <time>2016-10-08T10:05:14Z</time>
      </trkpt>
      <trkpt lat="46.05189" lon="4.76998">
        <ele>198</ele>
        <time>2016-10-08T10:05:16Z</time>
      </trkpt>
      <trkpt lat="46.05191" lon="4.77002">
        <ele>199</ele>
        <time>2016-10-08T10:05:17Z</time>
      </trkpt>
      <trkpt lat="46.05194" lon="4.77011">
        <ele>200</ele>
        <time>2016-10-08T10:05:19Z</time>
      </trkpt>
      <trkpt lat="46.05195" lon="4.77016">
        <ele>200</ele>
        <time>2016-10-08T10:05:20Z</time>
      </trkpt>
      <trkpt lat="46.052" lon="4.77025">
        <ele>200</ele>
        <time>2016-10-08T10:05:22Z</time>
      </trkpt>
      <trkpt lat="46.05201" lon="4.7703">
        <ele>200</ele>
        <time>2016-10-08T10:05:23Z</time>
      </trkpt>
      <trkpt lat="46.05205" lon="4.77039">
        <ele>200</ele>
        <time>2016-10-08T10:05:25Z</time>
      </trkpt>
      <trkpt lat="46.05206" lon="4.77042">
        <ele>200</ele>
        <time>2016-10-08T10:05:26Z</time>
      </trkpt>
      <trkpt lat="46.0521" lon="4.77052">
        <ele>201</ele>
        <time>2016-10-08T10:05:28Z</time>
      </trkpt>
      <trkpt lat="46.05211" lon="4.77056">
        <ele>201</ele>
        <time>2016-10-08T10:05:29Z</time>
      </trkpt>
      <trkpt lat="46.05215" lon="4.77065">
        <ele>201</ele>
        <time>2016-10-08T10:05:31Z</time>
      </trkpt>
      <trkpt lat="46.05217" lon="4.77069">
        <ele>201</ele>
        <time>2016-10-08T10:05:32Z</time>
      </trkpt>
      <trkpt lat="46.0522" lon="4.77078">
        <ele>201</ele>
        <time>2016-10-08T10:05:34Z</time>
      </trkpt>
      <trkpt lat="46.0522" lon="4.77083">
        <ele>201</ele>
        <time>2016-10-08T10:05:35Z</time>
      </trkpt>
      <trkpt lat="46.05224" lon="4.77091">
        <ele>203</ele>
        <time>2016-10-08T10:05:37Z</time>
      </trkpt>
      <trkpt lat="46.05226" lon="4.77095">
        <ele>203</ele>
        <time>2016-10-08T10:05:38Z</time>
      </trkpt>
      <trkpt lat="46.05229" lon="4.77104">
        <ele>203</ele>
        <time>2016-10-08T10:05:40Z</time>
      </trkpt>
      <trkpt lat="46.05232" lon="4.77107">
        <ele>203</ele>
        <time>2016-10-08T10:05:41Z</time>
      </trkpt>
      <trkpt lat="46.05238" lon="4.77114">
        <ele>203</ele>
        <time>2016-10-08T10:05:43Z</time>
      </trkpt>
      <trkpt lat="46.05242" lon="4.77116">
        <ele>203</ele>
        <time>2016-10-08T10:05:44Z</time>
      </trkpt>
      <trkpt lat="46.05248" lon="4.77121">
        <ele>204</ele>
        <time>2016-10-08T10:05:46Z</time>
      </trkpt>
      <trkpt lat="46.05251" lon="4.77124">
        <ele>204</ele>
        <time>2016-10-08T10:05:47Z</time>
      </trkpt>
      <trkpt lat="46.05257" lon="4.77131">
        <ele>204</ele>
        <time>2016-10-08T10:05:49Z</time>
      </trkpt>
      <trkpt lat="46.0526" lon="4.77133">
        <ele>204</ele>
        <time>2016-10-08T10:05:50Z</time>
      </trkpt>
      <trkpt lat="46.05266" lon="4.77139">
        <ele>204</ele>
        <time>2016-10-08T10:05:52Z</time>
      </trkpt>
      <trkpt lat="46.05269" lon="4.77143">
        <ele>204</ele>
        <time>2016-10-08T10:05:53Z</time>
      </trkpt>
      <trkpt lat="46.05274" lon="4.7715">
        <ele>204</ele>
        <time>2016-10-08T10:05:55Z</time>
      </trkpt>
      <trkpt lat="46.05277" lon="4.77153">
        <ele>204</ele>
        <time>2016-10-08T10:05:56Z</time>
      </trkpt>
      <trkpt lat="46.05282" lon="4.77161">
        <ele>204</ele>
        <time>2016-10-08T10:05:58Z</time>
      </trkpt>
      <trkpt lat="46.05285" lon="4.77165">
        <ele>204</ele>
        <time>2016-10-08T10:05:59Z</time>
      </trkpt>
      <trkpt lat="46.05291" lon="4.7717">
        <ele>205</ele>
        <time>2016-10-08T10:06:01Z</time>
      </trkpt>
      <trkpt lat="46.05294" lon="4.77173">
        <ele>205</ele>
        <time>2016-10-08T10:06:02Z</time>
      </trkpt>
      <trkpt lat="46.053" lon="4.7718">
        <ele>205</ele>
        <time>2016-10-08T10:06:04Z</time>
      </trkpt>
      <trkpt lat="46.05303" lon="4.77182">
        <ele>205</ele>
        <time>2016-10-08T10:06:05Z</time>
      </trkpt>
      <trkpt lat="46.05307" lon="4.77189">
        <ele>205</ele>
        <time>2016-10-08T10:06:07Z</time>
      </trkpt>
      <trkpt lat="46.0531" lon="4.77192">
        <ele>205</ele>
        <time>2016-10-08T10:06:08Z</time>
      </trkpt>
      <trkpt lat="46.05316" lon="4.77198">
        <ele>205</ele>
        <time>2016-10-08T10:06:10Z</time>
      </trkpt>
      <trkpt lat="46.0532" lon="4.772">
        <ele>205</ele>
        <time>2016-10-08T10:06:11Z</time>
      </trkpt>
      <trkpt lat="46.05326" lon="4.77207">
        <ele>205</ele>
        <time>2016-10-08T10:06:13Z</time>
      </trkpt>
      <trkpt lat="46.05329" lon="4.7721">
        <ele>206</ele>
        <time>2016-10-08T10:06:14Z</time>
      </trkpt>
      <trkpt lat="46.05335" lon="4.77215">
        <ele>204</ele>
        <time>2016-10-08T10:06:16Z</time>
      </trkpt>
      <trkpt lat="46.05338" lon="4.77218">
        <ele>204</ele>
        <time>2016-10-08T10:06:17Z</time>
      </trkpt>
      <trkpt lat="46.05345" lon="4.77222">
        <ele>204</ele>
        <time>2016-10-08T10:06:19Z</time>
      </trkpt>
      <trkpt lat="46.05349" lon="4.77225">
        <ele>204</ele>
        <time>2016-10-08T10:06:20Z</time>
      </trkpt>
      <trkpt lat="46.05356" lon="4.7723">
        <ele>203</ele>
        <time>2016-10-08T10:06:22Z</time>
      </trkpt>
      <trkpt lat="46.0536" lon="4.77232">
        <ele>203</ele>
        <time>2016-10-08T10:06:23Z</time>
      </trkpt>
      <trkpt lat="46.05368" lon="4.77238">
        <ele>203</ele>
        <time>2016-10-08T10:06:25Z</time>
      </trkpt>
      <trkpt lat="46.05372" lon="4.77241">
        <ele>203</ele>
        <time>2016-10-08T10:06:26Z</time>
      </trkpt>
      <trkpt lat="46.05379" lon="4.77248">
        <ele>203</ele>
        <time>2016-10-08T10:06:28Z</time>
      </trkpt>
      <trkpt lat="46.05384" lon="4.7725">
        <ele>203</ele>
        <time>2016-10-08T10:06:29Z</time>
      </trkpt>
      <trkpt lat="46.05389" lon="4.77253">
        <ele>203</ele>
        <time>2016-10-08T10:06:30Z</time>
      </trkpt>
      <trkpt lat="46.05394" lon="4.77255">
        <ele>203</ele>
        <time>2016-10-08T10:06:31Z</time>
      </trkpt>
      <trkpt lat="46.05399" lon="4.77257">
        <ele>203</ele>
        <time>2016-10-08T10:06:32Z</time>
      </trkpt>
      <trkpt lat="46.05404" lon="4.77259">
        <ele>203</ele>
        <time>2016-10-08T10:06:33Z</time>
      </trkpt>
      <trkpt lat="46.05409" lon="4.77261">
        <ele>202</ele>
        <time>2016-10-08T10:06:34Z</time>
      </trkpt>
      <trkpt lat="46.05414" lon="4.77263">
        <ele>202</ele>
        <time>2016-10-08T10:06:35Z</time>
      </trkpt>
      <trkpt lat="46.05419" lon="4.77265">
        <ele>201</ele>
        <time>2016-10-08T10:06:36Z</time>
      </trkpt>
      <trkpt lat="46.05424" lon="4.77268">
        <ele>201</ele>
        <time>2016-10-08T10:06:37Z</time>
      </trkpt>
      <trkpt lat="46.05429" lon="4.7727">
        <ele>201</ele>
        <time>2016-10-08T10:06:38Z</time>
      </trkpt>
      <trkpt lat="46.05434" lon="4.77272">
        <ele>201</ele>
        <time>2016-10-08T10:06:39Z</time>
      </trkpt>
      <trkpt lat="46.05439" lon="4.77274">
        <ele>201</ele>
        <time>2016-10-08T10:06:40Z</time>
      </trkpt>
      <trkpt lat="46.05444" lon="4.77276">
        <ele>201</ele>
        <time>2016-10-08T10:06:41Z</time>
      </trkpt>
      <trkpt lat="46.05448" lon="4.77278">
        <ele>201</ele>
        <time>2016-10-08T10:06:42Z</time>
      </trkpt>
      <trkpt lat="46.05453" lon="4.7728">
        <ele>201</ele>
        <time>2016-10-08T10:06:43Z</time>
      </trkpt>
      <trkpt lat="46.05458" lon="4.77282">
        <ele>201</ele>
        <time>2016-10-08T10:06:44Z</time>
      </trkpt>
      <trkpt lat="46.05463" lon="4.77285">
        <ele>201</ele>
        <time>2016-10-08T10:06:45Z</time>
      </trkpt>
      <trkpt lat="46.05467" lon="4.77287">
        <ele>201</ele>
        <time>2016-10-08T10:06:46Z</time>
      </trkpt>
      <trkpt lat="46.05472" lon="4.77289">
        <ele>201</ele>
        <time>2016-10-08T10:06:47Z</time>
      </trkpt>
      <trkpt lat="46.05477" lon="4.77292">
        <ele>201</ele>
        <time>2016-10-08T10:06:48Z</time>
      </trkpt>
      <trkpt lat="46.05482" lon="4.77294">
        <ele>201</ele>
        <time>2016-10-08T10:06:49Z</time>
      </trkpt>
      <trkpt lat="46.05486" lon="4.77297">
        <ele>201</ele>
        <time>2016-10-08T10:06:50Z</time>
      </trkpt>
      <trkpt lat="46.05491" lon="4.773">
        <ele>201</ele>
        <time>2016-10-08T10:06:51Z</time>
      </trkpt>
      <trkpt lat="46.05496" lon="4.77302">
        <ele>201</ele>
        <time>2016-10-08T10:06:52Z</time>
      </trkpt>
      <trkpt lat="46.05501" lon="4.77304">
        <ele>200</ele>
        <time>2016-10-08T10:06:53Z</time>
      </trkpt>
      <trkpt lat="46.05506" lon="4.77307">
        <ele>200</ele>
        <time>2016-10-08T10:06:54Z</time>
      </trkpt>
      <trkpt lat="46.05511" lon="4.7731">
        <ele>200</ele>
        <time>2016-10-08T10:06:55Z</time>
      </trkpt>
      <trkpt lat="46.05516" lon="4.77312">
        <ele>200</ele>
        <time>2016-10-08T10:06:56Z</time>
      </trkpt>
      <trkpt lat="46.0552" lon="4.77315">
        <ele>200</ele>
        <time>2016-10-08T10:06:57Z</time>
      </trkpt>
      <trkpt lat="46.05527" lon="4.77321">
        <ele>200</ele>
        <time>2016-10-08T10:06:59Z</time>
      </trkpt>
      <trkpt lat="46.05531" lon="4.77324">
        <ele>200</ele>
        <time>2016-10-08T10:07:00Z</time>
      </trkpt>
      <trkpt lat="46.05535" lon="4.77327">
        <ele>200</ele>
        <time>2016-10-08T10:07:01Z</time>
      </trkpt>
      <trkpt lat="46.05539" lon="4.7733">
        <ele>200</ele>
        <time>2016-10-08T10:07:02Z</time>
      </trkpt>
      <trkpt lat="46.05544" lon="4.77333">
        <ele>200</ele>
        <time>2016-10-08T10:07:03Z</time>
      </trkpt>
      <trkpt lat="46.05548" lon="4.77335">
        <ele>201</ele>
        <time>2016-10-08T10:07:04Z</time>
      </trkpt>
      <trkpt lat="46.05557" lon="4.7734">
        <ele>201</ele>
        <time>2016-10-08T10:07:06Z</time>
      </trkpt>
      <trkpt lat="46.05561" lon="4.77342">
        <ele>201</ele>
        <time>2016-10-08T10:07:07Z</time>
      </trkpt>
      <trkpt lat="46.05564" lon="4.77345">
        <ele>201</ele>
        <time>2016-10-08T10:07:08Z</time>
      </trkpt>
      <trkpt lat="46.05569" lon="4.77348">
        <ele>201</ele>
        <time>2016-10-08T10:07:09Z</time>
      </trkpt>
      <trkpt lat="46.05573" lon="4.77349">
        <ele>201</ele>
        <time>2016-10-08T10:07:10Z</time>
      </trkpt>
      <trkpt lat="46.05578" lon="4.77352">
        <ele>201</ele>
        <time>2016-10-08T10:07:11Z</time>
      </trkpt>
      <trkpt lat="46.05582" lon="4.77354">
        <ele>201</ele>
        <time>2016-10-08T10:07:12Z</time>
      </trkpt>
      <trkpt lat="46.05587" lon="4.77356">
        <ele>202</ele>
        <time>2016-10-08T10:07:13Z</time>
      </trkpt>
      <trkpt lat="46.05591" lon="4.77358">
        <ele>202</ele>
        <time>2016-10-08T10:07:14Z</time>
      </trkpt>
      <trkpt lat="46.05595" lon="4.77361">
        <ele>202</ele>
        <time>2016-10-08T10:07:15Z</time>
      </trkpt>
      <trkpt lat="46.056" lon="4.77363">
        <ele>202</ele>
        <time>2016-10-08T10:07:16Z</time>
      </trkpt>
      <trkpt lat="46.05604" lon="4.77366">
        <ele>202</ele>
        <time>2016-10-08T10:07:17Z</time>
      </trkpt>
      <trkpt lat="46.05608" lon="4.77369">
        <ele>202</ele>
        <time>2016-10-08T10:07:18Z</time>
      </trkpt>
      <trkpt lat="46.05612" lon="4.77373">
        <ele>203</ele>
        <time>2016-10-08T10:07:19Z</time>
      </trkpt>
      <trkpt lat="46.05619" lon="4.77378">
        <ele>203</ele>
        <time>2016-10-08T10:07:21Z</time>
      </trkpt>
      <trkpt lat="46.05624" lon="4.77379">
        <ele>203</ele>
        <time>2016-10-08T10:07:22Z</time>
      </trkpt>
      <trkpt lat="46.0563" lon="4.77383">
        <ele>203</ele>
        <time>2016-10-08T10:07:24Z</time>
      </trkpt>
      <trkpt lat="46.05633" lon="4.77386">
        <ele>203</ele>
        <time>2016-10-08T10:07:25Z</time>
      </trkpt>
      <trkpt lat="46.0564" lon="4.77392">
        <ele>203</ele>
        <time>2016-10-08T10:07:27Z</time>
      </trkpt>
      <trkpt lat="46.05643" lon="4.77394">
        <ele>203</ele>
        <time>2016-10-08T10:07:28Z</time>
      </trkpt>
      <trkpt lat="46.05649" lon="4.774">
        <ele>204</ele>
        <time>2016-10-08T10:07:30Z</time>
      </trkpt>
      <trkpt lat="46.05652" lon="4.77403">
        <ele>204</ele>
        <time>2016-10-08T10:07:31Z</time>
      </trkpt>
      <trkpt lat="46.05658" lon="4.7741">
        <ele>204</ele>
        <time>2016-10-08T10:07:33Z</time>
      </trkpt>
      <trkpt lat="46.05662" lon="4.77412">
        <ele>204</ele>
        <time>2016-10-08T10:07:34Z</time>
      </trkpt>
      <trkpt lat="46.05668" lon="4.77419">
        <ele>205</ele>
        <time>2016-10-08T10:07:36Z</time>
      </trkpt>
      <trkpt lat="46.05671" lon="4.77422">
        <ele>205</ele>
        <time>2016-10-08T10:07:37Z</time>
      </trkpt>
      <trkpt lat="46.05677" lon="4.77427">
        <ele>206</ele>
        <time>2016-10-08T10:07:39Z</time>
      </trkpt>
      <trkpt lat="46.05681" lon="4.77431">
        <ele>206</ele>
        <time>2016-10-08T10:07:40Z</time>
      </trkpt>
      <trkpt lat="46.05687" lon="4.77437">
        <ele>206</ele>
        <time>2016-10-08T10:07:42Z</time>
      </trkpt>
      <trkpt lat="46.0569" lon="4.7744">
        <ele>206</ele>
        <time>2016-10-08T10:07:43Z</time>
      </trkpt>
      <trkpt lat="46.05696" lon="4.77446">
        <ele>206</ele>
        <time>2016-10-08T10:07:45Z</time>
      </trkpt>
      <trkpt lat="46.05699" lon="4.77449">
        <ele>207</ele>
        <time>2016-10-08T10:07:46Z</time>
      </trkpt>
      <trkpt lat="46.05706" lon="4.77454">
        <ele>207</ele>
        <time>2016-10-08T10:07:48Z</time>
      </trkpt>
      <trkpt lat="46.05709" lon="4.77456">
        <ele>207</ele>
        <time>2016-10-08T10:07:49Z</time>
      </trkpt>
      <trkpt lat="46.05715" lon="4.77461">
        <ele>207</ele>
        <time>2016-10-08T10:07:51Z</time>
      </trkpt>
      <trkpt lat="46.05718" lon="4.77464">
        <ele>207</ele>
        <time>2016-10-08T10:07:52Z</time>
      </trkpt>
      <trkpt lat="46.05724" lon="4.77469">
        <ele>207</ele>
        <time>2016-10-08T10:07:54Z</time>
      </trkpt>
      <trkpt lat="46.05727" lon="4.77472">
        <ele>207</ele>
        <time>2016-10-08T10:07:55Z</time>
      </trkpt>
      <trkpt lat="46.05733" lon="4.77479">
        <ele>207</ele>
        <time>2016-10-08T10:07:57Z</time>
      </trkpt>
      <trkpt lat="46.05736" lon="4.77482">
        <ele>207</ele>
        <time>2016-10-08T10:07:58Z</time>
      </trkpt>
      <trkpt lat="46.05742" lon="4.7749">
        <ele>208</ele>
        <time>2016-10-08T10:08:00Z</time>
      </trkpt>
      <trkpt lat="46.05744" lon="4.77494">
        <ele>208</ele>
        <time>2016-10-08T10:08:01Z</time>
      </trkpt>
      <trkpt lat="46.05749" lon="4.77501">
        <ele>208</ele>
        <time>2016-10-08T10:08:03Z</time>
      </trkpt>
      <trkpt lat="46.05752" lon="4.77505">
        <ele>208</ele>
        <time>2016-10-08T10:08:04Z</time>
      </trkpt>
      <trkpt lat="46.05757" lon="4.77512">
        <ele>208</ele>
        <time>2016-10-08T10:08:06Z</time>
      </trkpt>
      <trkpt lat="46.05758" lon="4.77516">
        <ele>208</ele>
        <time>2016-10-08T10:08:07Z</time>
      </trkpt>
      <trkpt lat="46.05763" lon="4.77524">
        <ele>208</ele>
        <time>2016-10-08T10:08:09Z</time>
      </trkpt>
      <trkpt lat="46.05765" lon="4.77528">
        <ele>208</ele>
        <time>2016-10-08T10:08:10Z</time>
      </trkpt>
      <trkpt lat="46.0577" lon="4.77536">
        <ele>208</ele>
        <time>2016-10-08T10:08:12Z</time>
      </trkpt>
      <trkpt lat="46.05773" lon="4.7754">
        <ele>208</ele>
        <time>2016-10-08T10:08:13Z</time>
      </trkpt>
      <trkpt lat="46.05778" lon="4.77549">
        <ele>208</ele>
        <time>2016-10-08T10:08:15Z</time>
      </trkpt>
      <trkpt lat="46.05781" lon="4.77554">
        <ele>208</ele>
        <time>2016-10-08T10:08:16Z</time>
      </trkpt>
      <trkpt lat="46.05786" lon="4.77562">
        <ele>208</ele>
        <time>2016-10-08T10:08:18Z</time>
      </trkpt>
      <trkpt lat="46.05789" lon="4.77566">
        <ele>208</ele>
        <time>2016-10-08T10:08:19Z</time>
      </trkpt>
      <trkpt lat="46.05796" lon="4.77572">
        <ele>208</ele>
        <time>2016-10-08T10:08:21Z</time>
      </trkpt>
      <trkpt lat="46.05799" lon="4.77577">
        <ele>208</ele>
        <time>2016-10-08T10:08:22Z</time>
      </trkpt>
      <trkpt lat="46.05806" lon="4.77584">
        <ele>209</ele>
        <time>2016-10-08T10:08:24Z</time>
      </trkpt>
      <trkpt lat="46.0581" lon="4.77589">
        <ele>208</ele>
        <time>2016-10-08T10:08:25Z</time>
      </trkpt>
      <trkpt lat="46.05813" lon="4.77593">
        <ele>208</ele>
        <time>2016-10-08T10:08:26Z</time>
      </trkpt>
      <trkpt lat="46.05817" lon="4.77597">
        <ele>208</ele>
        <time>2016-10-08T10:08:27Z</time>
      </trkpt>
      <trkpt lat="46.05821" lon="4.776">
        <ele>208</ele>
        <time>2016-10-08T10:08:28Z</time>
      </trkpt>
      <trkpt lat="46.05825" lon="4.77605">
        <ele>208</ele>
        <time>2016-10-08T10:08:29Z</time>
      </trkpt>
      <trkpt lat="46.05829" lon="4.77609">
        <ele>209</ele>
        <time>2016-10-08T10:08:30Z</time>
      </trkpt>
      <trkpt lat="46.05832" lon="4.77612">
        <ele>209</ele>
        <time>2016-10-08T10:08:31Z</time>
      </trkpt>
      <trkpt lat="46.05839" lon="4.77619">
        <ele>208</ele>
        <time>2016-10-08T10:08:33Z</time>
      </trkpt>
      <trkpt lat="46.05843" lon="4.77622">
        <ele>208</ele>
        <time>2016-10-08T10:08:34Z</time>
      </trkpt>
      <trkpt lat="46.05849" lon="4.77629">
        <ele>208</ele>
        <time>2016-10-08T10:08:36Z</time>
      </trkpt>
      <trkpt lat="46.05852" lon="4.77633">
        <ele>208</ele>
        <time>2016-10-08T10:08:37Z</time>
      </trkpt>
      <trkpt lat="46.05856" lon="4.77637">
        <ele>208</ele>
        <time>2016-10-08T10:08:38Z</time>
      </trkpt>
      <trkpt lat="46.0586" lon="4.77641">
        <ele>208</ele>
        <time>2016-10-08T10:08:39Z</time>
      </trkpt>
      <trkpt lat="46.05864" lon="4.77645">
        <ele>208</ele>
        <time>2016-10-08T10:08:40Z</time>
      </trkpt>
      <trkpt lat="46.05868" lon="4.7765">
        <ele>208</ele>
        <time>2016-10-08T10:08:41Z</time>
      </trkpt>
      <trkpt lat="46.05872" lon="4.77655">
        <ele>208</ele>
        <time>2016-10-08T10:08:42Z</time>
      </trkpt>
      <trkpt lat="46.05875" lon="4.77659">
        <ele>208</ele>
        <time>2016-10-08T10:08:43Z</time>
      </trkpt>
      <trkpt lat="46.05881" lon="4.77669">
        <ele>208</ele>
        <time>2016-10-08T10:08:45Z</time>
      </trkpt>
      <trkpt lat="46.05884" lon="4.77674">
        <ele>208</ele>
        <time>2016-10-08T10:08:46Z</time>
      </trkpt>
      <trkpt lat="46.05886" lon="4.7768">
        <ele>208</ele>
        <time>2016-10-08T10:08:47Z</time>
      </trkpt>
      <trkpt lat="46.05887" lon="4.77686">
        <ele>208</ele>
        <time>2016-10-08T10:08:48Z</time>
      </trkpt>
      <trkpt lat="46.05889" lon="4.77692">
        <ele>208</ele>
        <time>2016-10-08T10:08:49Z</time>
      </trkpt>
      <trkpt lat="46.0589" lon="4.77699">
        <ele>208</ele>
        <time>2016-10-08T10:08:50Z</time>
      </trkpt>
      <trkpt lat="46.05891" lon="4.77705">
        <ele>208</ele>
        <time>2016-10-08T10:08:51Z</time>
      </trkpt>
      <trkpt lat="46.05891" lon="4.77712">
        <ele>208</ele>
        <time>2016-10-08T10:08:52Z</time>
      </trkpt>
      <trkpt lat="46.05892" lon="4.77719">
        <ele>209</ele>
        <time>2016-10-08T10:08:53Z</time>
      </trkpt>
      <trkpt lat="46.05893" lon="4.77726">
        <ele>209</ele>
        <time>2016-10-08T10:08:54Z</time>
      </trkpt>
      <trkpt lat="46.05894" lon="4.77732">
        <ele>209</ele>
        <time>2016-10-08T10:08:55Z</time>
      </trkpt>
      <trkpt lat="46.05896" lon="4.77739">
        <ele>209</ele>
        <time>2016-10-08T10:08:56Z</time>
      </trkpt>
      <trkpt lat="46.05897" lon="4.77746">
        <ele>209</ele>
        <time>2016-10-08T10:08:57Z</time>
      </trkpt>
      <trkpt lat="46.05898" lon="4.77752">
        <ele>209</ele>
        <time>2016-10-08T10:08:58Z</time>
      </trkpt>
      <trkpt lat="46.059" lon="4.77759">
        <ele>209</ele>
        <time>2016-10-08T10:08:59Z</time>
      </trkpt>
      <trkpt lat="46.05901" lon="4.77766">
        <ele>209</ele>
        <time>2016-10-08T10:09:00Z</time>
      </trkpt>
      <trkpt lat="46.05903" lon="4.77771">
        <ele>210</ele>
        <time>2016-10-08T10:09:01Z</time>
      </trkpt>
      <trkpt lat="46.05906" lon="4.77777">
        <ele>210</ele>
        <time>2016-10-08T10:09:02Z</time>
      </trkpt>
      <trkpt lat="46.0591" lon="4.77783">
        <ele>210</ele>
        <time>2016-10-08T10:09:03Z</time>
      </trkpt>
      <trkpt lat="46.05913" lon="4.77788">
        <ele>210</ele>
        <time>2016-10-08T10:09:04Z</time>
      </trkpt>
      <trkpt lat="46.05919" lon="4.77798">
        <ele>210</ele>
        <time>2016-10-08T10:09:06Z</time>
      </trkpt>
      <trkpt lat="46.05921" lon="4.77802">
        <ele>210</ele>
        <time>2016-10-08T10:09:07Z</time>
      </trkpt>
      <trkpt lat="46.05926" lon="4.77812">
        <ele>210</ele>
        <time>2016-10-08T10:09:09Z</time>
      </trkpt>
      <trkpt lat="46.05928" lon="4.77817">
        <ele>210</ele>
        <time>2016-10-08T10:09:10Z</time>
      </trkpt>
      <trkpt lat="46.05934" lon="4.77825">
        <ele>210</ele>
        <time>2016-10-08T10:09:12Z</time>
      </trkpt>
      <trkpt lat="46.05937" lon="4.77829">
        <ele>210</ele>
        <time>2016-10-08T10:09:13Z</time>
      </trkpt>
      <trkpt lat="46.05943" lon="4.77838">
        <ele>211</ele>
        <time>2016-10-08T10:09:15Z</time>
      </trkpt>
      <trkpt lat="46.05945" lon="4.77843">
        <ele>211</ele>
        <time>2016-10-08T10:09:16Z</time>
      </trkpt>
      <trkpt lat="46.05948" lon="4.77849">
        <ele>211</ele>
        <time>2016-10-08T10:09:17Z</time>
      </trkpt>
      <trkpt lat="46.05951" lon="4.77854">
        <ele>211</ele>
        <time>2016-10-08T10:09:18Z</time>
      </trkpt>
      <trkpt lat="46.05954" lon="4.77859">
        <ele>211</ele>
        <time>2016-10-08T10:09:19Z</time>
      </trkpt>
      <trkpt lat="46.05957" lon="4.77864">
        <ele>211</ele>
        <time>2016-10-08T10:09:20Z</time>
      </trkpt>
      <trkpt lat="46.0596" lon="4.77869">
        <ele>211</ele>
        <time>2016-10-08T10:09:21Z</time>
      </trkpt>
      <trkpt lat="46.05963" lon="4.77874">
        <ele>211</ele>
        <time>2016-10-08T10:09:22Z</time>
      </trkpt>
      <trkpt lat="46.05966" lon="4.77885">
        <ele>211</ele>
        <time>2016-10-08T10:09:24Z</time>
      </trkpt>
      <trkpt lat="46.05969" lon="4.7789">
        <ele>211</ele>
        <time>2016-10-08T10:09:25Z</time>
      </trkpt>
      <trkpt lat="46.05973" lon="4.77899">
        <ele>211</ele>
        <time>2016-10-08T10:09:27Z</time>
      </trkpt>
      <trkpt lat="46.05975" lon="4.77903">
        <ele>211</ele>
        <time>2016-10-08T10:09:28Z</time>
      </trkpt>
      <trkpt lat="46.05978" lon="4.77908">
        <ele>211</ele>
        <time>2016-10-08T10:09:29Z</time>
      </trkpt>
      <trkpt lat="46.05982" lon="4.77914">
        <ele>211</ele>
        <time>2016-10-08T10:09:30Z</time>
      </trkpt>
      <trkpt lat="46.05985" lon="4.7792">
        <ele>212</ele>
        <time>2016-10-08T10:09:31Z</time>
      </trkpt>
      <trkpt lat="46.05987" lon="4.77926">
        <ele>212</ele>
        <time>2016-10-08T10:09:32Z</time>
      </trkpt>
      <trkpt lat="46.05989" lon="4.77932">
        <ele>212</ele>
        <time>2016-10-08T10:09:33Z</time>
      </trkpt>
      <trkpt lat="46.05991" lon="4.77938">
        <ele>212</ele>
        <time>2016-10-08T10:09:34Z</time>
      </trkpt>
      <trkpt lat="46.05993" lon="4.77944">
        <ele>212</ele>
        <time>2016-10-08T10:09:35Z</time>
      </trkpt>
      <trkpt lat="46.05996" lon="4.77951">
        <ele>212</ele>
        <time>2016-10-08T10:09:36Z</time>
      </trkpt>
      <trkpt lat="46.05998" lon="4.77958">
        <ele>212</ele>
        <time>2016-10-08T10:09:37Z</time>
      </trkpt>
      <trkpt lat="46.06003" lon="4.77964">
        <ele>211</ele>
        <time>2016-10-08T10:09:38Z</time>
      </trkpt>
      <trkpt lat="46.06006" lon="4.77969">
        <ele>211</ele>
        <time>2016-10-08T10:09:39Z</time>
      </trkpt>
      <trkpt lat="46.0601" lon="4.77974">
        <ele>211</ele>
        <time>2016-10-08T10:09:40Z</time>
      </trkpt>
      <trkpt lat="46.06014" lon="4.77979">
        <ele>211</ele>
        <time>2016-10-08T10:09:41Z</time>
      </trkpt>
      <trkpt lat="46.06018" lon="4.77983">
        <ele>211</ele>
        <time>2016-10-08T10:09:42Z</time>
      </trkpt>
      <trkpt lat="46.06022" lon="4.77988">
        <ele>211</ele>
        <time>2016-10-08T10:09:43Z</time>
      </trkpt>
      <trkpt lat="46.06026" lon="4.77992">
        <ele>211</ele>
        <time>2016-10-08T10:09:44Z</time>
      </trkpt>
      <trkpt lat="46.06031" lon="4.77995">
        <ele>211</ele>
        <time>2016-10-08T10:09:45Z</time>
      </trkpt>
      <trkpt lat="46.06036" lon="4.77998">
        <ele>211</ele>
        <time>2016-10-08T10:09:46Z</time>
      </trkpt>
      <trkpt lat="46.0604" lon="4.78003">
        <ele>211</ele>
        <time>2016-10-08T10:09:47Z</time>
      </trkpt>
      <trkpt lat="46.06044" lon="4.78007">
        <ele>211</ele>
        <time>2016-10-08T10:09:48Z</time>
      </trkpt>
      <trkpt lat="46.06047" lon="4.78013">
        <ele>211</ele>
        <time>2016-10-08T10:09:49Z</time>
      </trkpt>
      <trkpt lat="46.0605" lon="4.78018">
        <ele>211</ele>
        <time>2016-10-08T10:09:50Z</time>
      </trkpt>
      <trkpt lat="46.06054" lon="4.78024">
        <ele>211</ele>
        <time>2016-10-08T10:09:51Z</time>
      </trkpt>
      <trkpt lat="46.06057" lon="4.78028">
        <ele>211</ele>
        <time>2016-10-08T10:09:52Z</time>
      </trkpt>
      <trkpt lat="46.06061" lon="4.78032">
        <ele>211</ele>
        <time>2016-10-08T10:09:53Z</time>
      </trkpt>
      <trkpt lat="46.06065" lon="4.78035">
        <ele>211</ele>
        <time>2016-10-08T10:09:54Z</time>
      </trkpt>
      <trkpt lat="46.06074" lon="4.78039">
        <ele>211</ele>
        <time>2016-10-08T10:09:56Z</time>
      </trkpt>
      <trkpt lat="46.06078" lon="4.78041">
        <ele>211</ele>
        <time>2016-10-08T10:09:57Z</time>
      </trkpt>
      <trkpt lat="46.06084" lon="4.78048">
        <ele>210</ele>
        <time>2016-10-08T10:09:59Z</time>
      </trkpt>
      <trkpt lat="46.06088" lon="4.78049">
        <ele>210</ele>
        <time>2016-10-08T10:10:00Z</time>
      </trkpt>
      <trkpt lat="46.06096" lon="4.78054">
        <ele>210</ele>
        <time>2016-10-08T10:10:02Z</time>
      </trkpt>
      <trkpt lat="46.061" lon="4.78058">
        <ele>210</ele>
        <time>2016-10-08T10:10:03Z</time>
      </trkpt>
      <trkpt lat="46.06104" lon="4.78062">
        <ele>210</ele>
        <time>2016-10-08T10:10:04Z</time>
      </trkpt>
      <trkpt lat="46.06107" lon="4.78067">
        <ele>210</ele>
        <time>2016-10-08T10:10:05Z</time>
      </trkpt>
      <trkpt lat="46.06111" lon="4.78071">
        <ele>210</ele>
        <time>2016-10-08T10:10:06Z</time>
      </trkpt>
      <trkpt lat="46.06116" lon="4.78074">
        <ele>210</ele>
        <time>2016-10-08T10:10:07Z</time>
      </trkpt>
      <trkpt lat="46.06121" lon="4.78074">
        <ele>209</ele>
        <time>2016-10-08T10:10:08Z</time>
      </trkpt>
      <trkpt lat="46.06126" lon="4.78077">
        <ele>209</ele>
        <time>2016-10-08T10:10:09Z</time>
      </trkpt>
      <trkpt lat="46.0613" lon="4.78083">
        <ele>209</ele>
        <time>2016-10-08T10:10:10Z</time>
      </trkpt>
      <trkpt lat="46.06133" lon="4.78091">
        <ele>209</ele>
        <time>2016-10-08T10:10:11Z</time>
      </trkpt>
      <trkpt lat="46.06138" lon="4.78097">
        <ele>208</ele>
        <time>2016-10-08T10:10:12Z</time>
      </trkpt>
      <trkpt lat="46.06143" lon="4.78102">
        <ele>208</ele>
        <time>2016-10-08T10:10:13Z</time>
      </trkpt>
      <trkpt lat="46.06149" lon="4.78107">
        <ele>208</ele>
        <time>2016-10-08T10:10:14Z</time>
      </trkpt>
      <trkpt lat="46.06154" lon="4.78113">
        <ele>208</ele>
        <time>2016-10-08T10:10:15Z</time>
      </trkpt>
      <trkpt lat="46.06157" lon="4.78121">
        <ele>208</ele>
        <time>2016-10-08T10:10:16Z</time>
      </trkpt>
      <trkpt lat="46.06162" lon="4.78125">
        <ele>208</ele>
        <time>2016-10-08T10:10:17Z</time>
      </trkpt>
      <trkpt lat="46.06168" lon="4.78131">
        <ele>206</ele>
        <time>2016-10-08T10:10:18Z</time>
      </trkpt>
      <trkpt lat="46.06175" lon="4.78136">
        <ele>206</ele>
        <time>2016-10-08T10:10:19Z</time>
      </trkpt>
      <trkpt lat="46.06182" lon="4.78141">
        <ele>206</ele>
        <time>2016-10-08T10:10:20Z</time>
      </trkpt>
      <trkpt lat="46.06188" lon="4.78146">
        <ele>206</ele>
        <time>2016-10-08T10:10:21Z</time>
      </trkpt>
      <trkpt lat="46.06195" lon="4.78151">
        <ele>205</ele>
        <time>2016-10-08T10:10:22Z</time>
      </trkpt>
      <trkpt lat="46.06202" lon="4.78156">
        <ele>205</ele>
        <time>2016-10-08T10:10:23Z</time>
      </trkpt>
      <trkpt lat="46.06209" lon="4.7816">
        <ele>205</ele>
        <time>2016-10-08T10:10:24Z</time>
      </trkpt>
      <trkpt lat="46.06216" lon="4.78164">
        <ele>205</ele>
        <time>2016-10-08T10:10:25Z</time>
      </trkpt>
      <trkpt lat="46.06223" lon="4.78169">
        <ele>206</ele>
        <time>2016-10-08T10:10:26Z</time>
      </trkpt>
      <trkpt lat="46.06229" lon="4.78173">
        <ele>206</ele>
        <time>2016-10-08T10:10:27Z</time>
      </trkpt>
      <trkpt lat="46.06235" lon="4.78177">
        <ele>206</ele>
        <time>2016-10-08T10:10:28Z</time>
      </trkpt>
      <trkpt lat="46.06243" lon="4.78178">
        <ele>206</ele>
        <time>2016-10-08T10:10:29Z</time>
      </trkpt>
      <trkpt lat="46.0625" lon="4.78182">
        <ele>206</ele>
        <time>2016-10-08T10:10:30Z</time>
      </trkpt>
      <trkpt lat="46.06256" lon="4.78185">
        <ele>205</ele>
        <time>2016-10-08T10:10:31Z</time>
      </trkpt>
      <trkpt lat="46.06262" lon="4.7819">
        <ele>205</ele>
        <time>2016-10-08T10:10:32Z</time>
      </trkpt>
      <trkpt lat="46.06267" lon="4.78195">
        <ele>205</ele>
        <time>2016-10-08T10:10:33Z</time>
      </trkpt>
      <trkpt lat="46.06272" lon="4.78198">
        <ele>205</ele>
        <time>2016-10-08T10:10:34Z</time>
      </trkpt>
      <trkpt lat="46.06277" lon="4.78201">
        <ele>205</ele>
        <time>2016-10-08T10:10:35Z</time>
      </trkpt>
      <trkpt lat="46.06282" lon="4.78205">
        <ele>205</ele>
        <time>2016-10-08T10:10:36Z</time>
      </trkpt>
      <trkpt lat="46.06286" lon="4.78209">
        <ele>205</ele>
        <time>2016-10-08T10:10:37Z</time>
      </trkpt>
      <trkpt lat="46.06291" lon="4.78213">
        <ele>205</ele>
        <time>2016-10-08T10:10:38Z</time>
      </trkpt>
      <trkpt lat="46.06296" lon="4.78218">
        <ele>205</ele>
        <time>2016-10-08T10:10:39Z</time>
      </trkpt>
      <trkpt lat="46.06301" lon="4.78222">
        <ele>205</ele>
        <time>2016-10-08T10:10:40Z</time>
      </trkpt>
      <trkpt lat="46.06306" lon="4.78226">
        <ele>205</ele>
        <time>2016-10-08T10:10:41Z</time>
      </trkpt>
      <trkpt lat="46.06311" lon="4.78229">
        <ele>205</ele>
        <time>2016-10-08T10:10:42Z</time>
      </trkpt>
      <trkpt lat="46.06316" lon="4.78231">
        <ele>205</ele>
        <time>2016-10-08T10:10:43Z</time>
      </trkpt>
      <trkpt lat="46.06321" lon="4.78234">
        <ele>206</ele>
        <time>2016-10-08T10:10:44Z</time>
      </trkpt>
      <trkpt lat="46.06325" lon="4.78237">
        <ele>206</ele>
        <time>2016-10-08T10:10:45Z</time>
      </trkpt>
      <trkpt lat="46.0633" lon="4.78239">
        <ele>206</ele>
        <time>2016-10-08T10:10:46Z</time>
      </trkpt>
      <trkpt lat="46.06335" lon="4.78241">
        <ele>205</ele>
        <time>2016-10-08T10:10:47Z</time>
      </trkpt>
      <trkpt lat="46.06343" lon="4.78243">
        <ele>205</ele>
        <time>2016-10-08T10:10:49Z</time>
      </trkpt>
      <trkpt lat="46.06346" lon="4.78241">
        <ele>205</ele>
        <time>2016-10-08T10:10:50Z</time>
      </trkpt>
      <trkpt lat="46.06354" lon="4.78235">
        <ele>205</ele>
        <time>2016-10-08T10:10:52Z</time>
      </trkpt>
      <trkpt lat="46.06358" lon="4.78231">
        <ele>205</ele>
        <time>2016-10-08T10:10:53Z</time>
      </trkpt>
      <trkpt lat="46.06362" lon="4.78228">
        <ele>205</ele>
        <time>2016-10-08T10:10:54Z</time>
      </trkpt>
      <trkpt lat="46.06366" lon="4.78224">
        <ele>205</ele>
        <time>2016-10-08T10:10:55Z</time>
      </trkpt>
      <trkpt lat="46.06371" lon="4.78219">
        <ele>204</ele>
        <time>2016-10-08T10:10:56Z</time>
      </trkpt>
      <trkpt lat="46.06375" lon="4.78214">
        <ele>204</ele>
        <time>2016-10-08T10:10:57Z</time>
      </trkpt>
      <trkpt lat="46.06379" lon="4.78209">
        <ele>204</ele>
        <time>2016-10-08T10:10:58Z</time>
      </trkpt>
      <trkpt lat="46.06383" lon="4.78202">
        <ele>204</ele>
        <time>2016-10-08T10:10:59Z</time>
      </trkpt>
      <trkpt lat="46.06386" lon="4.78195">
        <ele>204</ele>
        <time>2016-10-08T10:11:00Z</time>
      </trkpt>
      <trkpt lat="46.06387" lon="4.78186">
        <ele>204</ele>
        <time>2016-10-08T10:11:01Z</time>
      </trkpt>
      <trkpt lat="46.06388" lon="4.78178">
        <ele>204</ele>
        <time>2016-10-08T10:11:02Z</time>
      </trkpt>
      <trkpt lat="46.06389" lon="4.78169">
        <ele>204</ele>
        <time>2016-10-08T10:11:03Z</time>
      </trkpt>
      <trkpt lat="46.0639" lon="4.7816">
        <ele>201</ele>
        <time>2016-10-08T10:11:04Z</time>
      </trkpt>
      <trkpt lat="46.0639" lon="4.78151">
        <ele>201</ele>
        <time>2016-10-08T10:11:05Z</time>
      </trkpt>
      <trkpt lat="46.0639" lon="4.78141">
        <ele>201</ele>
        <time>2016-10-08T10:11:06Z</time>
      </trkpt>
      <trkpt lat="46.06391" lon="4.78132">
        <ele>201</ele>
        <time>2016-10-08T10:11:07Z</time>
      </trkpt>
      <trkpt lat="46.06392" lon="4.78122">
        <ele>201</ele>
        <time>2016-10-08T10:11:08Z</time>
      </trkpt>
      <trkpt lat="46.06393" lon="4.78113">
        <ele>200</ele>
        <time>2016-10-08T10:11:09Z</time>
      </trkpt>
      <trkpt lat="46.06396" lon="4.78104">
        <ele>200</ele>
        <time>2016-10-08T10:11:10Z</time>
      </trkpt>
      <trkpt lat="46.06398" lon="4.78096">
        <ele>200</ele>
        <time>2016-10-08T10:11:11Z</time>
      </trkpt>
      <trkpt lat="46.064" lon="4.78087">
        <ele>200</ele>
        <time>2016-10-08T10:11:12Z</time>
      </trkpt>
      <trkpt lat="46.06403" lon="4.78079">
        <ele>198</ele>
        <time>2016-10-08T10:11:13Z</time>
      </trkpt>
      <trkpt lat="46.06406" lon="4.78071">
        <ele>198</ele>
        <time>2016-10-08T10:11:14Z</time>
      </trkpt>
      <trkpt lat="46.0641" lon="4.78064">
        <ele>198</ele>
        <time>2016-10-08T10:11:15Z</time>
      </trkpt>
      <trkpt lat="46.06413" lon="4.78058">
        <ele>198</ele>
        <time>2016-10-08T10:11:16Z</time>
      </trkpt>
      <trkpt lat="46.06417" lon="4.78052">
        <ele>198</ele>
        <time>2016-10-08T10:11:17Z</time>
      </trkpt>
      <trkpt lat="46.06421" lon="4.78047">
        <ele>198</ele>
        <time>2016-10-08T10:11:18Z</time>
      </trkpt>
      <trkpt lat="46.06425" lon="4.78042">
        <ele>198</ele>
        <time>2016-10-08T10:11:19Z</time>
      </trkpt>
      <trkpt lat="46.0643" lon="4.78038">
        <ele>198</ele>
        <time>2016-10-08T10:11:20Z</time>
      </trkpt>
      <trkpt lat="46.06433" lon="4.78033">
        <ele>198</ele>
        <time>2016-10-08T10:11:21Z</time>
      </trkpt>
      <trkpt lat="46.06437" lon="4.78028">
        <ele>198</ele>
        <time>2016-10-08T10:11:22Z</time>
      </trkpt>
      <trkpt lat="46.0644" lon="4.78022">
        <ele>198</ele>
        <time>2016-10-08T10:11:23Z</time>
      </trkpt>
      <trkpt lat="46.06443" lon="4.78016">
        <ele>198</ele>
        <time>2016-10-08T10:11:24Z</time>
      </trkpt>
      <trkpt lat="46.06445" lon="4.78008">
        <ele>198</ele>
        <time>2016-10-08T10:11:25Z</time>
      </trkpt>
      <trkpt lat="46.06448" lon="4.78001">
        <ele>198</ele>
        <time>2016-10-08T10:11:26Z</time>
      </trkpt>
      <trkpt lat="46.06449" lon="4.77993">
        <ele>195</ele>
        <time>2016-10-08T10:11:27Z</time>
      </trkpt>
      <trkpt lat="46.06451" lon="4.77984">
        <ele>195</ele>
        <time>2016-10-08T10:11:28Z</time>
      </trkpt>
      <trkpt lat="46.06452" lon="4.77975">
        <ele>195</ele>
        <time>2016-10-08T10:11:29Z</time>
      </trkpt>
      <trkpt lat="46.06455" lon="4.77966">
        <ele>195</ele>
        <time>2016-10-08T10:11:30Z</time>
      </trkpt>
      <trkpt lat="46.06457" lon="4.77957">
        <ele>195</ele>
        <time>2016-10-08T10:11:31Z</time>
      </trkpt>
      <trkpt lat="46.0646" lon="4.77947">
        <ele>195</ele>
        <time>2016-10-08T10:11:32Z</time>
      </trkpt>
      <trkpt lat="46.06462" lon="4.77938">
        <ele>195</ele>
        <time>2016-10-08T10:11:33Z</time>
      </trkpt>
      <trkpt lat="46.06465" lon="4.77929">
        <ele>195</ele>
        <time>2016-10-08T10:11:34Z</time>
      </trkpt>
      <trkpt lat="46.06468" lon="4.7792">
        <ele>195</ele>
        <time>2016-10-08T10:11:35Z</time>
      </trkpt>
      <trkpt lat="46.06472" lon="4.77912">
        <ele>193</ele>
        <time>2016-10-08T10:11:36Z</time>
      </trkpt>
      <trkpt lat="46.06474" lon="4.77903">
        <ele>193</ele>
        <time>2016-10-08T10:11:37Z</time>
      </trkpt>
      <trkpt lat="46.06477" lon="4.77895">
        <ele>193</ele>
        <time>2016-10-08T10:11:38Z</time>
      </trkpt>
      <trkpt lat="46.0648" lon="4.77885">
        <ele>193</ele>
        <time>2016-10-08T10:11:39Z</time>
      </trkpt>
      <trkpt lat="46.06483" lon="4.77876">
        <ele>193</ele>
        <time>2016-10-08T10:11:40Z</time>
      </trkpt>
      <trkpt lat="46.06486" lon="4.77866">
        <ele>193</ele>
        <time>2016-10-08T10:11:41Z</time>
      </trkpt>
      <trkpt lat="46.06491" lon="4.77857">
        <ele>192</ele>
        <time>2016-10-08T10:11:42Z</time>
      </trkpt>
      <trkpt lat="46.06494" lon="4.77846">
        <ele>192</ele>
        <time>2016-10-08T10:11:43Z</time>
      </trkpt>
      <trkpt lat="46.06498" lon="4.77837">
        <ele>192</ele>
        <time>2016-10-08T10:11:44Z</time>
      </trkpt>
      <trkpt lat="46.06502" lon="4.77827">
        <ele>192</ele>
        <time>2016-10-08T10:11:45Z</time>
      </trkpt>
      <trkpt lat="46.06506" lon="4.77818">
        <ele>192</ele>
        <time>2016-10-08T10:11:46Z</time>
      </trkpt>
      <trkpt lat="46.0651" lon="4.77809">
        <ele>192</ele>
        <time>2016-10-08T10:11:47Z</time>
      </trkpt>
      <trkpt lat="46.06513" lon="4.778">
        <ele>192</ele>
        <time>2016-10-08T10:11:48Z</time>
      </trkpt>
      <trkpt lat="46.06519" lon="4.77791">
        <ele>192</ele>
        <time>2016-10-08T10:11:49Z</time>
      </trkpt>
      <trkpt lat="46.06523" lon="4.77782">
        <ele>192</ele>
        <time>2016-10-08T10:11:50Z</time>
      </trkpt>
      <trkpt lat="46.06528" lon="4.77773">
        <ele>192</ele>
        <time>2016-10-08T10:11:51Z</time>
      </trkpt>
      <trkpt lat="46.06531" lon="4.77764">
        <ele>192</ele>
        <time>2016-10-08T10:11:52Z</time>
      </trkpt>
      <trkpt lat="46.06535" lon="4.77756">
        <ele>191</ele>
        <time>2016-10-08T10:11:53Z</time>
      </trkpt>
      <trkpt lat="46.0654" lon="4.77748">
        <ele>190</ele>
        <time>2016-10-08T10:11:54Z</time>
      </trkpt>
      <trkpt lat="46.06546" lon="4.77742">
        <ele>190</ele>
        <time>2016-10-08T10:11:55Z</time>
      </trkpt>
      <trkpt lat="46.06549" lon="4.77733">
        <ele>189</ele>
        <time>2016-10-08T10:11:56Z</time>
      </trkpt>
      <trkpt lat="46.06553" lon="4.77725">
        <ele>189</ele>
        <time>2016-10-08T10:11:57Z</time>
      </trkpt>
      <trkpt lat="46.06558" lon="4.77718">
        <ele>189</ele>
        <time>2016-10-08T10:11:58Z</time>
      </trkpt>
      <trkpt lat="46.06563" lon="4.77712">
        <ele>189</ele>
        <time>2016-10-08T10:11:59Z</time>
      </trkpt>
      <trkpt lat="46.06568" lon="4.77707">
        <ele>189</ele>
        <time>2016-10-08T10:12:00Z</time>
      </trkpt>
      <trkpt lat="46.06574" lon="4.77703">
        <ele>189</ele>
        <time>2016-10-08T10:12:01Z</time>
      </trkpt>
      <trkpt lat="46.0658" lon="4.77699">
        <ele>188</ele>
        <time>2016-10-08T10:12:02Z</time>
      </trkpt>
      <trkpt lat="46.06586" lon="4.77696">
        <ele>188</ele>
        <time>2016-10-08T10:12:03Z</time>
      </trkpt>
      <trkpt lat="46.06592" lon="4.77692">
        <ele>187</ele>
        <time>2016-10-08T10:12:04Z</time>
      </trkpt>
      <trkpt lat="46.06598" lon="4.77689">
        <ele>187</ele>
        <time>2016-10-08T10:12:05Z</time>
      </trkpt>
      <trkpt lat="46.06603" lon="4.77686">
        <ele>187</ele>
        <time>2016-10-08T10:12:06Z</time>
      </trkpt>
      <trkpt lat="46.06608" lon="4.77682">
        <ele>187</ele>
        <time>2016-10-08T10:12:07Z</time>
      </trkpt>
      <trkpt lat="46.06613" lon="4.77678">
        <ele>187</ele>
        <time>2016-10-08T10:12:08Z</time>
      </trkpt>
      <trkpt lat="46.06617" lon="4.77673">
        <ele>187</ele>
        <time>2016-10-08T10:12:09Z</time>
      </trkpt>
      <trkpt lat="46.06621" lon="4.77668">
        <ele>187</ele>
        <time>2016-10-08T10:12:10Z</time>
      </trkpt>
      <trkpt lat="46.06625" lon="4.77662">
        <ele>185</ele>
        <time>2016-10-08T10:12:11Z</time>
      </trkpt>
      <trkpt lat="46.06629" lon="4.77654">
        <ele>185</ele>
        <time>2016-10-08T10:12:12Z</time>
      </trkpt>
      <trkpt lat="46.06631" lon="4.77646">
        <ele>185</ele>
        <time>2016-10-08T10:12:13Z</time>
      </trkpt>
      <trkpt lat="46.06633" lon="4.77637">
        <ele>185</ele>
        <time>2016-10-08T10:12:14Z</time>
      </trkpt>
      <trkpt lat="46.06634" lon="4.77627">
        <ele>185</ele>
        <time>2016-10-08T10:12:15Z</time>
      </trkpt>
      <trkpt lat="46.06635" lon="4.77617">
        <ele>185</ele>
        <time>2016-10-08T10:12:16Z</time>
      </trkpt>
      <trkpt lat="46.06636" lon="4.77606">
        <ele>185</ele>
        <time>2016-10-08T10:12:17Z</time>
      </trkpt>
      <trkpt lat="46.06637" lon="4.77595">
        <ele>184</ele>
        <time>2016-10-08T10:12:18Z</time>
      </trkpt>
      <trkpt lat="46.06637" lon="4.77584">
        <ele>184</ele>
        <time>2016-10-08T10:12:19Z</time>
      </trkpt>
      <trkpt lat="46.06637" lon="4.77573">
        <ele>183</ele>
        <time>2016-10-08T10:12:20Z</time>
      </trkpt>
      <trkpt lat="46.06636" lon="4.77561">
        <ele>183</ele>
        <time>2016-10-08T10:12:21Z</time>
      </trkpt>
      <trkpt lat="46.06633" lon="4.77549">
        <ele>183</ele>
        <time>2016-10-08T10:12:22Z</time>
      </trkpt>
      <trkpt lat="46.0663" lon="4.77537">
        <ele>183</ele>
        <time>2016-10-08T10:12:23Z</time>
      </trkpt>
      <trkpt lat="46.06626" lon="4.77525">
        <ele>182</ele>
        <time>2016-10-08T10:12:24Z</time>
      </trkpt>
      <trkpt lat="46.06618" lon="4.77514">
        <ele>183</ele>
        <time>2016-10-08T10:12:25Z</time>
      </trkpt>
      <trkpt lat="46.06613" lon="4.77504">
        <ele>183</ele>
        <time>2016-10-08T10:12:26Z</time>
      </trkpt>
      <trkpt lat="46.06607" lon="4.77494">
        <ele>181</ele>
        <time>2016-10-08T10:12:27Z</time>
      </trkpt>
      <trkpt lat="46.06602" lon="4.77483">
        <ele>181</ele>
        <time>2016-10-08T10:12:28Z</time>
      </trkpt>
      <trkpt lat="46.06598" lon="4.77473">
        <ele>181</ele>
        <time>2016-10-08T10:12:29Z</time>
      </trkpt>
      <trkpt lat="46.06599" lon="4.77462">
        <ele>180</ele>
        <time>2016-10-08T10:12:30Z</time>
      </trkpt>
      <trkpt lat="46.06602" lon="4.77451">
        <ele>180</ele>
        <time>2016-10-08T10:12:31Z</time>
      </trkpt>
      <trkpt lat="46.06605" lon="4.7744">
        <ele>179</ele>
        <time>2016-10-08T10:12:32Z</time>
      </trkpt>
      <trkpt lat="46.06609" lon="4.77431">
        <ele>179</ele>
        <time>2016-10-08T10:12:33Z</time>
      </trkpt>
      <trkpt lat="46.06614" lon="4.77422">
        <ele>179</ele>
        <time>2016-10-08T10:12:34Z</time>
      </trkpt>
      <trkpt lat="46.06619" lon="4.77412">
        <ele>177</ele>
        <time>2016-10-08T10:12:35Z</time>
      </trkpt>
      <trkpt lat="46.06623" lon="4.77402">
        <ele>177</ele>
        <time>2016-10-08T10:12:36Z</time>
      </trkpt>
      <trkpt lat="46.06626" lon="4.77393">
        <ele>176</ele>
        <time>2016-10-08T10:12:37Z</time>
      </trkpt>
      <trkpt lat="46.06629" lon="4.77383">
        <ele>176</ele>
        <time>2016-10-08T10:12:38Z</time>
      </trkpt>
      <trkpt lat="46.06633" lon="4.77374">
        <ele>176</ele>
        <time>2016-10-08T10:12:39Z</time>
      </trkpt>
      <trkpt lat="46.06636" lon="4.77366">
        <ele>176</ele>
        <time>2016-10-08T10:12:40Z</time>
      </trkpt>
      <trkpt lat="46.06639" lon="4.77358">
        <ele>176</ele>
        <time>2016-10-08T10:12:41Z</time>
      </trkpt>
      <trkpt lat="46.06642" lon="4.7735">
        <ele>176</ele>
        <time>2016-10-08T10:12:42Z</time>
      </trkpt>
      <trkpt lat="46.06645" lon="4.77341">
        <ele>175</ele>
        <time>2016-10-08T10:12:43Z</time>
      </trkpt>
      <trkpt lat="46.06648" lon="4.77334">
        <ele>175</ele>
        <time>2016-10-08T10:12:44Z</time>
      </trkpt>
      <trkpt lat="46.06652" lon="4.77327">
        <ele>174</ele>
        <time>2016-10-08T10:12:45Z</time>
      </trkpt>
      <trkpt lat="46.06655" lon="4.7732">
        <ele>174</ele>
        <time>2016-10-08T10:12:46Z</time>
      </trkpt>
      <trkpt lat="46.06658" lon="4.77313">
        <ele>174</ele>
        <time>2016-10-08T10:12:47Z</time>
      </trkpt>
      <trkpt lat="46.06661" lon="4.77307">
        <ele>174</ele>
        <time>2016-10-08T10:12:48Z</time>
      </trkpt>
      <trkpt lat="46.06664" lon="4.773">
        <ele>174</ele>
        <time>2016-10-08T10:12:49Z</time>
      </trkpt>
      <trkpt lat="46.06667" lon="4.77292">
        <ele>174</ele>
        <time>2016-10-08T10:12:50Z</time>
      </trkpt>
      <trkpt lat="46.0667" lon="4.77285">
        <ele>173</ele>
        <time>2016-10-08T10:12:51Z</time>
      </trkpt>
      <trkpt lat="46.06673" lon="4.77277">
        <ele>173</ele>
        <time>2016-10-08T10:12:52Z</time>
      </trkpt>
      <trkpt lat="46.06676" lon="4.7727">
        <ele>173</ele>
        <time>2016-10-08T10:12:53Z</time>
      </trkpt>
      <trkpt lat="46.06679" lon="4.77263">
        <ele>173</ele>
        <time>2016-10-08T10:12:54Z</time>
      </trkpt>
      <trkpt lat="46.06681" lon="4.77255">
        <ele>173</ele>
        <time>2016-10-08T10:12:55Z</time>
      </trkpt>
      <trkpt lat="46.06684" lon="4.77248">
        <ele>172</ele>
        <time>2016-10-08T10:12:56Z</time>
      </trkpt>
      <trkpt lat="46.06687" lon="4.77241">
        <ele>172</ele>
        <time>2016-10-08T10:12:57Z</time>
      </trkpt>
      <trkpt lat="46.06689" lon="4.77234">
        <ele>172</ele>
        <time>2016-10-08T10:12:58Z</time>
      </trkpt>
      <trkpt lat="46.06691" lon="4.77227">
        <ele>172</ele>
        <time>2016-10-08T10:12:59Z</time>
      </trkpt>
      <trkpt lat="46.06693" lon="4.7722">
        <ele>172</ele>
        <time>2016-10-08T10:13:00Z</time>
      </trkpt>
      <trkpt lat="46.06695" lon="4.77215">
        <ele>172</ele>
        <time>2016-10-08T10:13:01Z</time>
      </trkpt>
      <trkpt lat="46.067" lon="4.77207">
        <ele>172</ele>
        <time>2016-10-08T10:13:03Z</time>
      </trkpt>
      <trkpt lat="46.06704" lon="4.77205">
        <ele>172</ele>
        <time>2016-10-08T10:13:04Z</time>
      </trkpt>
      <trkpt lat="46.06709" lon="4.77205">
        <ele>172</ele>
        <time>2016-10-08T10:13:05Z</time>
      </trkpt>
      <trkpt lat="46.06713" lon="4.77203">
        <ele>172</ele>
        <time>2016-10-08T10:13:06Z</time>
      </trkpt>
      <trkpt lat="46.06718" lon="4.77202">
        <ele>172</ele>
        <time>2016-10-08T10:13:07Z</time>
      </trkpt>
      <trkpt lat="46.06723" lon="4.772">
        <ele>172</ele>
        <time>2016-10-08T10:13:08Z</time>
      </trkpt>
      <trkpt lat="46.06729" lon="4.77198">
        <ele>172</ele>
        <time>2016-10-08T10:13:09Z</time>
      </trkpt>
      <trkpt lat="46.06734" lon="4.77194">
        <ele>172</ele>
        <time>2016-10-08T10:13:10Z</time>
      </trkpt>
      <trkpt lat="46.06739" lon="4.77191">
        <ele>172</ele>
        <time>2016-10-08T10:13:11Z</time>
      </trkpt>
      <trkpt lat="46.06744" lon="4.77188">
        <ele>172</ele>
        <time>2016-10-08T10:13:12Z</time>
      </trkpt>
      <trkpt lat="46.06749" lon="4.77184">
        <ele>172</ele>
        <time>2016-10-08T10:13:13Z</time>
      </trkpt>
      <trkpt lat="46.06754" lon="4.7718">
        <ele>172</ele>
        <time>2016-10-08T10:13:14Z</time>
      </trkpt>
      <trkpt lat="46.06758" lon="4.77176">
        <ele>172</ele>
        <time>2016-10-08T10:13:15Z</time>
      </trkpt>
      <trkpt lat="46.06762" lon="4.77172">
        <ele>172</ele>
        <time>2016-10-08T10:13:16Z</time>
      </trkpt>
      <trkpt lat="46.06766" lon="4.77168">
        <ele>172</ele>
        <time>2016-10-08T10:13:17Z</time>
      </trkpt>
      <trkpt lat="46.0677" lon="4.77164">
        <ele>172</ele>
        <time>2016-10-08T10:13:18Z</time>
      </trkpt>
      <trkpt lat="46.06774" lon="4.77159">
        <ele>172</ele>
        <time>2016-10-08T10:13:19Z</time>
      </trkpt>
      <trkpt lat="46.06778" lon="4.77154">
        <ele>172</ele>
        <time>2016-10-08T10:13:20Z</time>
      </trkpt>
      <trkpt lat="46.06782" lon="4.7715">
        <ele>172</ele>
        <time>2016-10-08T10:13:21Z</time>
      </trkpt>
      <trkpt lat="46.06786" lon="4.77145">
        <ele>172</ele>
        <time>2016-10-08T10:13:22Z</time>
      </trkpt>
      <trkpt lat="46.0679" lon="4.77141">
        <ele>172</ele>
        <time>2016-10-08T10:13:23Z</time>
      </trkpt>
      <trkpt lat="46.06794" lon="4.77137">
        <ele>172</ele>
        <time>2016-10-08T10:13:24Z</time>
      </trkpt>
      <trkpt lat="46.06799" lon="4.77132">
        <ele>172</ele>
        <time>2016-10-08T10:13:25Z</time>
      </trkpt>
      <trkpt lat="46.06803" lon="4.77127">
        <ele>172</ele>
        <time>2016-10-08T10:13:26Z</time>
      </trkpt>
      <trkpt lat="46.06807" lon="4.77124">
        <ele>172</ele>
        <time>2016-10-08T10:13:27Z</time>
      </trkpt>
      <trkpt lat="46.06812" lon="4.7712">
        <ele>172</ele>
        <time>2016-10-08T10:13:28Z</time>
      </trkpt>
      <trkpt lat="46.06817" lon="4.77116">
        <ele>172</ele>
        <time>2016-10-08T10:13:29Z</time>
      </trkpt>
      <trkpt lat="46.06822" lon="4.77112">
        <ele>173</ele>
        <time>2016-10-08T10:13:30Z</time>
      </trkpt>
      <trkpt lat="46.06827" lon="4.77108">
        <ele>173</ele>
        <time>2016-10-08T10:13:31Z</time>
      </trkpt>
      <trkpt lat="46.06831" lon="4.77104">
        <ele>173</ele>
        <time>2016-10-08T10:13:32Z</time>
      </trkpt>
      <trkpt lat="46.06836" lon="4.77101">
        <ele>173</ele>
        <time>2016-10-08T10:13:33Z</time>
      </trkpt>
      <trkpt lat="46.06841" lon="4.77098">
        <ele>173</ele>
        <time>2016-10-08T10:13:34Z</time>
      </trkpt>
      <trkpt lat="46.06846" lon="4.77095">
        <ele>173</ele>
        <time>2016-10-08T10:13:35Z</time>
      </trkpt>
      <trkpt lat="46.06851" lon="4.77092">
        <ele>173</ele>
        <time>2016-10-08T10:13:36Z</time>
      </trkpt>
      <trkpt lat="46.06856" lon="4.7709">
        <ele>173</ele>
        <time>2016-10-08T10:13:37Z</time>
      </trkpt>
      <trkpt lat="46.06861" lon="4.77087">
        <ele>173</ele>
        <time>2016-10-08T10:13:38Z</time>
      </trkpt>
      <trkpt lat="46.06866" lon="4.77086">
        <ele>173</ele>
        <time>2016-10-08T10:13:39Z</time>
      </trkpt>
      <trkpt lat="46.06871" lon="4.77085">
        <ele>173</ele>
        <time>2016-10-08T10:13:40Z</time>
      </trkpt>
      <trkpt lat="46.06876" lon="4.77084">
        <ele>173</ele>
        <time>2016-10-08T10:13:41Z</time>
      </trkpt>
      <trkpt lat="46.06881" lon="4.77083">
        <ele>173</ele>
        <time>2016-10-08T10:13:42Z</time>
      </trkpt>
      <trkpt lat="46.06886" lon="4.77082">
        <ele>173</ele>
        <time>2016-10-08T10:13:43Z</time>
      </trkpt>
      <trkpt lat="46.06892" lon="4.77082">
        <ele>173</ele>
        <time>2016-10-08T10:13:44Z</time>
      </trkpt>
      <trkpt lat="46.06898" lon="4.77082">
        <ele>173</ele>
        <time>2016-10-08T10:13:45Z</time>
      </trkpt>
      <trkpt lat="46.06903" lon="4.77082">
        <ele>173</ele>
        <time>2016-10-08T10:13:46Z</time>
      </trkpt>
      <trkpt lat="46.06908" lon="4.77082">
        <ele>173</ele>
        <time>2016-10-08T10:13:47Z</time>
      </trkpt>
      <trkpt lat="46.06913" lon="4.77082">
        <ele>173</ele>
        <time>2016-10-08T10:13:48Z</time>
      </trkpt>
      <trkpt lat="46.06918" lon="4.77081">
        <ele>173</ele>
        <time>2016-10-08T10:13:49Z</time>
      </trkpt>
      <trkpt lat="46.06923" lon="4.77081">
        <ele>173</ele>
        <time>2016-10-08T10:13:50Z</time>
      </trkpt>
      <trkpt lat="46.06927" lon="4.7708">
        <ele>173</ele>
        <time>2016-10-08T10:13:51Z</time>
      </trkpt>
      <trkpt lat="46.06932" lon="4.77079">
        <ele>173</ele>
        <time>2016-10-08T10:13:52Z</time>
      </trkpt>
      <trkpt lat="46.06937" lon="4.77078">
        <ele>173</ele>
        <time>2016-10-08T10:13:53Z</time>
      </trkpt>
      <trkpt lat="46.06942" lon="4.77077">
        <ele>173</ele>
        <time>2016-10-08T10:13:54Z</time>
      </trkpt>
      <trkpt lat="46.06947" lon="4.77077">
        <ele>173</ele>
        <time>2016-10-08T10:13:55Z</time>
      </trkpt>
      <trkpt lat="46.06951" lon="4.77076">
        <ele>173</ele>
        <time>2016-10-08T10:13:56Z</time>
      </trkpt>
      <trkpt lat="46.06956" lon="4.77075">
        <ele>173</ele>
        <time>2016-10-08T10:13:57Z</time>
      </trkpt>
      <trkpt lat="46.06961" lon="4.77075">
        <ele>173</ele>
        <time>2016-10-08T10:13:58Z</time>
      </trkpt>
      <trkpt lat="46.06966" lon="4.77074">
        <ele>173</ele>
        <time>2016-10-08T10:13:59Z</time>
      </trkpt>
      <trkpt lat="46.06971" lon="4.77074">
        <ele>173</ele>
        <time>2016-10-08T10:14:00Z</time>
      </trkpt>
      <trkpt lat="46.06976" lon="4.77073">
        <ele>173</ele>
        <time>2016-10-08T10:14:01Z</time>
      </trkpt>
      <trkpt lat="46.06981" lon="4.77071">
        <ele>174</ele>
        <time>2016-10-08T10:14:02Z</time>
      </trkpt>
      <trkpt lat="46.06988" lon="4.77065">
        <ele>174</ele>
        <time>2016-10-08T10:14:04Z</time>
      </trkpt>
      <trkpt lat="46.06991" lon="4.7706">
        <ele>174</ele>
        <time>2016-10-08T10:14:05Z</time>
      </trkpt>
      <trkpt lat="46.06994" lon="4.77049">
        <ele>173</ele>
        <time>2016-10-08T10:14:07Z</time>
      </trkpt>
      <trkpt lat="46.06996" lon="4.77042">
        <ele>173</ele>
        <time>2016-10-08T10:14:08Z</time>
      </trkpt>
      <trkpt lat="46.06998" lon="4.77035">
        <ele>173</ele>
        <time>2016-10-08T10:14:09Z</time>
      </trkpt>
      <trkpt lat="46.07001" lon="4.77029">
        <ele>174</ele>
        <time>2016-10-08T10:14:10Z</time>
      </trkpt>
      <trkpt lat="46.07004" lon="4.77022">
        <ele>174</ele>
        <time>2016-10-08T10:14:11Z</time>
      </trkpt>
      <trkpt lat="46.07007" lon="4.77015">
        <ele>174</ele>
        <time>2016-10-08T10:14:12Z</time>
      </trkpt>
      <trkpt lat="46.07011" lon="4.77009">
        <ele>174</ele>
        <time>2016-10-08T10:14:13Z</time>
      </trkpt>
      <trkpt lat="46.07014" lon="4.77002">
        <ele>174</ele>
        <time>2016-10-08T10:14:14Z</time>
      </trkpt>
      <trkpt lat="46.07018" lon="4.76996">
        <ele>173</ele>
        <time>2016-10-08T10:14:15Z</time>
      </trkpt>
      <trkpt lat="46.07021" lon="4.7699">
        <ele>173</ele>
        <time>2016-10-08T10:14:16Z</time>
      </trkpt>
      <trkpt lat="46.07024" lon="4.76983">
        <ele>173</ele>
        <time>2016-10-08T10:14:17Z</time>
      </trkpt>
      <trkpt lat="46.07027" lon="4.76977">
        <ele>173</ele>
        <time>2016-10-08T10:14:18Z</time>
      </trkpt>
      <trkpt lat="46.0703" lon="4.76971">
        <ele>173</ele>
        <time>2016-10-08T10:14:19Z</time>
      </trkpt>
      <trkpt lat="46.07033" lon="4.76965">
        <ele>173</ele>
        <time>2016-10-08T10:14:20Z</time>
      </trkpt>
      <trkpt lat="46.07036" lon="4.76958">
        <ele>173</ele>
        <time>2016-10-08T10:14:21Z</time>
      </trkpt>
      <trkpt lat="46.0704" lon="4.76953">
        <ele>173</ele>
        <time>2016-10-08T10:14:22Z</time>
      </trkpt>
      <trkpt lat="46.07043" lon="4.76947">
        <ele>173</ele>
        <time>2016-10-08T10:14:23Z</time>
      </trkpt>
      <trkpt lat="46.07046" lon="4.76941">
        <ele>173</ele>
        <time>2016-10-08T10:14:24Z</time>
      </trkpt>
      <trkpt lat="46.07049" lon="4.76935">
        <ele>173</ele>
        <time>2016-10-08T10:14:25Z</time>
      </trkpt>
      <trkpt lat="46.07052" lon="4.76929">
        <ele>173</ele>
        <time>2016-10-08T10:14:26Z</time>
      </trkpt>
      <trkpt lat="46.07058" lon="4.76921">
        <ele>173</ele>
        <time>2016-10-08T10:14:28Z</time>
      </trkpt>
      <trkpt lat="46.07061" lon="4.76916">
        <ele>172</ele>
        <time>2016-10-08T10:14:29Z</time>
      </trkpt>
      <trkpt lat="46.07064" lon="4.76912">
        <ele>172</ele>
        <time>2016-10-08T10:14:30Z</time>
      </trkpt>
      <trkpt lat="46.07068" lon="4.76906">
        <ele>172</ele>
        <time>2016-10-08T10:14:31Z</time>
      </trkpt>
      <trkpt lat="46.07071" lon="4.76899">
        <ele>172</ele>
        <time>2016-10-08T10:14:32Z</time>
      </trkpt>
      <trkpt lat="46.07074" lon="4.76893">
        <ele>172</ele>
        <time>2016-10-08T10:14:33Z</time>
      </trkpt>
      <trkpt lat="46.07077" lon="4.76887">
        <ele>172</ele>
        <time>2016-10-08T10:14:34Z</time>
      </trkpt>
      <trkpt lat="46.0708" lon="4.7688">
        <ele>172</ele>
        <time>2016-10-08T10:14:35Z</time>
      </trkpt>
      <trkpt lat="46.07084" lon="4.76873">
        <ele>173</ele>
        <time>2016-10-08T10:14:36Z</time>
      </trkpt>
      <trkpt lat="46.07087" lon="4.76866">
        <ele>173</ele>
        <time>2016-10-08T10:14:37Z</time>
      </trkpt>
      <trkpt lat="46.0709" lon="4.7686">
        <ele>173</ele>
        <time>2016-10-08T10:14:38Z</time>
      </trkpt>
      <trkpt lat="46.07093" lon="4.76854">
        <ele>173</ele>
        <time>2016-10-08T10:14:39Z</time>
      </trkpt>
      <trkpt lat="46.07096" lon="4.76848">
        <ele>172</ele>
        <time>2016-10-08T10:14:40Z</time>
      </trkpt>
      <trkpt lat="46.07099" lon="4.76841">
        <ele>172</ele>
        <time>2016-10-08T10:14:41Z</time>
      </trkpt>
      <trkpt lat="46.07102" lon="4.76835">
        <ele>172</ele>
        <time>2016-10-08T10:14:42Z</time>
      </trkpt>
      <trkpt lat="46.07105" lon="4.7683">
        <ele>172</ele>
        <time>2016-10-08T10:14:43Z</time>
      </trkpt>
      <trkpt lat="46.07108" lon="4.76824">
        <ele>172</ele>
        <time>2016-10-08T10:14:44Z</time>
      </trkpt>
      <trkpt lat="46.07111" lon="4.76818">
        <ele>172</ele>
        <time>2016-10-08T10:14:45Z</time>
      </trkpt>
      <trkpt lat="46.07114" lon="4.76811">
        <ele>172</ele>
        <time>2016-10-08T10:14:46Z</time>
      </trkpt>
      <trkpt lat="46.07117" lon="4.76805">
        <ele>172</ele>
        <time>2016-10-08T10:14:47Z</time>
      </trkpt>
      <trkpt lat="46.0712" lon="4.76798">
        <ele>172</ele>
        <time>2016-10-08T10:14:48Z</time>
      </trkpt>
      <trkpt lat="46.07123" lon="4.76792">
        <ele>171</ele>
        <time>2016-10-08T10:14:49Z</time>
      </trkpt>
      <trkpt lat="46.07126" lon="4.76784">
        <ele>171</ele>
        <time>2016-10-08T10:14:50Z</time>
      </trkpt>
      <trkpt lat="46.0713" lon="4.76776">
        <ele>171</ele>
        <time>2016-10-08T10:14:51Z</time>
      </trkpt>
      <trkpt lat="46.07133" lon="4.7677">
        <ele>171</ele>
        <time>2016-10-08T10:14:52Z</time>
      </trkpt>
      <trkpt lat="46.07137" lon="4.76763">
        <ele>171</ele>
        <time>2016-10-08T10:14:53Z</time>
      </trkpt>
      <trkpt lat="46.0714" lon="4.76756">
        <ele>171</ele>
        <time>2016-10-08T10:14:54Z</time>
      </trkpt>
      <trkpt lat="46.07143" lon="4.7675">
        <ele>171</ele>
        <time>2016-10-08T10:14:55Z</time>
      </trkpt>
      <trkpt lat="46.07146" lon="4.76744">
        <ele>171</ele>
        <time>2016-10-08T10:14:56Z</time>
      </trkpt>
      <trkpt lat="46.07149" lon="4.76739">
        <ele>171</ele>
        <time>2016-10-08T10:14:57Z</time>
      </trkpt>
      <trkpt lat="46.07152" lon="4.76732">
        <ele>171</ele>
        <time>2016-10-08T10:14:58Z</time>
      </trkpt>
      <trkpt lat="46.07155" lon="4.76725">
        <ele>170</ele>
        <time>2016-10-08T10:14:59Z</time>
      </trkpt>
      <trkpt lat="46.07159" lon="4.76718">
        <ele>170</ele>
        <time>2016-10-08T10:15:00Z</time>
      </trkpt>
      <trkpt lat="46.07162" lon="4.76712">
        <ele>170</ele>
        <time>2016-10-08T10:15:01Z</time>
      </trkpt>
      <trkpt lat="46.07165" lon="4.76706">
        <ele>170</ele>
        <time>2016-10-08T10:15:02Z</time>
      </trkpt>
      <trkpt lat="46.07168" lon="4.76699">
        <ele>171</ele>
        <time>2016-10-08T10:15:03Z</time>
      </trkpt>
      <trkpt lat="46.07172" lon="4.76693">
        <ele>171</ele>
        <time>2016-10-08T10:15:04Z</time>
      </trkpt>
      <trkpt lat="46.07175" lon="4.76685">
        <ele>170</ele>
        <time>2016-10-08T10:15:05Z</time>
      </trkpt>
      <trkpt lat="46.07179" lon="4.7668">
        <ele>170</ele>
        <time>2016-10-08T10:15:06Z</time>
      </trkpt>
      <trkpt lat="46.07182" lon="4.76674">
        <ele>170</ele>
        <time>2016-10-08T10:15:07Z</time>
      </trkpt>
      <trkpt lat="46.07185" lon="4.76668">
        <ele>170</ele>
        <time>2016-10-08T10:15:08Z</time>
      </trkpt>
      <trkpt lat="46.07189" lon="4.76663">
        <ele>170</ele>
        <time>2016-10-08T10:15:09Z</time>
      </trkpt>
      <trkpt lat="46.07192" lon="4.76657">
        <ele>170</ele>
        <time>2016-10-08T10:15:10Z</time>
      </trkpt>
      <trkpt lat="46.07196" lon="4.76651">
        <ele>170</ele>
        <time>2016-10-08T10:15:11Z</time>
      </trkpt>
      <trkpt lat="46.07199" lon="4.76646">
        <ele>170</ele>
        <time>2016-10-08T10:15:12Z</time>
      </trkpt>
      <trkpt lat="46.07204" lon="4.76641">
        <ele>170</ele>
        <time>2016-10-08T10:15:13Z</time>
      </trkpt>
      <trkpt lat="46.07206" lon="4.76636">
        <ele>170</ele>
        <time>2016-10-08T10:15:14Z</time>
      </trkpt>
      <trkpt lat="46.0721" lon="4.7663">
        <ele>171</ele>
        <time>2016-10-08T10:15:15Z</time>
      </trkpt>
      <trkpt lat="46.07214" lon="4.76625">
        <ele>170</ele>
        <time>2016-10-08T10:15:16Z</time>
      </trkpt>
      <trkpt lat="46.07218" lon="4.76619">
        <ele>170</ele>
        <time>2016-10-08T10:15:17Z</time>
      </trkpt>
      <trkpt lat="46.07222" lon="4.76614">
        <ele>170</ele>
        <time>2016-10-08T10:15:18Z</time>
      </trkpt>
      <trkpt lat="46.07227" lon="4.76609">
        <ele>170</ele>
        <time>2016-10-08T10:15:19Z</time>
      </trkpt>
      <trkpt lat="46.07231" lon="4.76603">
        <ele>170</ele>
        <time>2016-10-08T10:15:20Z</time>
      </trkpt>
      <trkpt lat="46.07235" lon="4.76597">
        <ele>170</ele>
        <time>2016-10-08T10:15:21Z</time>
      </trkpt>
      <trkpt lat="46.07239" lon="4.76592">
        <ele>170</ele>
        <time>2016-10-08T10:15:22Z</time>
      </trkpt>
      <trkpt lat="46.07243" lon="4.76587">
        <ele>170</ele>
        <time>2016-10-08T10:15:23Z</time>
      </trkpt>
      <trkpt lat="46.07247" lon="4.76582">
        <ele>170</ele>
        <time>2016-10-08T10:15:24Z</time>
      </trkpt>
      <trkpt lat="46.07251" lon="4.76577">
        <ele>170</ele>
        <time>2016-10-08T10:15:25Z</time>
      </trkpt>
      <trkpt lat="46.07255" lon="4.76572">
        <ele>170</ele>
        <time>2016-10-08T10:15:26Z</time>
      </trkpt>
      <trkpt lat="46.07259" lon="4.76568">
        <ele>170</ele>
        <time>2016-10-08T10:15:27Z</time>
      </trkpt>
      <trkpt lat="46.07263" lon="4.76564">
        <ele>170</ele>
        <time>2016-10-08T10:15:28Z</time>
      </trkpt>
      <trkpt lat="46.07267" lon="4.76561">
        <ele>170</ele>
        <time>2016-10-08T10:15:29Z</time>
      </trkpt>
      <trkpt lat="46.07271" lon="4.76556">
        <ele>170</ele>
        <time>2016-10-08T10:15:30Z</time>
      </trkpt>
      <trkpt lat="46.07275" lon="4.76551">
        <ele>170</ele>
        <time>2016-10-08T10:15:31Z</time>
      </trkpt>
      <trkpt lat="46.07278" lon="4.76547">
        <ele>170</ele>
        <time>2016-10-08T10:15:32Z</time>
      </trkpt>
      <trkpt lat="46.07282" lon="4.76542">
        <ele>170</ele>
        <time>2016-10-08T10:15:33Z</time>
      </trkpt>
      <trkpt lat="46.07287" lon="4.76537">
        <ele>170</ele>
        <time>2016-10-08T10:15:34Z</time>
      </trkpt>
      <trkpt lat="46.07292" lon="4.76532">
        <ele>170</ele>
        <time>2016-10-08T10:15:35Z</time>
      </trkpt>
      <trkpt lat="46.07296" lon="4.76527">
        <ele>170</ele>
        <time>2016-10-08T10:15:36Z</time>
      </trkpt>
      <trkpt lat="46.07302" lon="4.7652">
        <ele>170</ele>
        <time>2016-10-08T10:15:37Z</time>
      </trkpt>
      <trkpt lat="46.07306" lon="4.76515">
        <ele>170</ele>
        <time>2016-10-08T10:15:38Z</time>
      </trkpt>
      <trkpt lat="46.07311" lon="4.7651">
        <ele>170</ele>
        <time>2016-10-08T10:15:39Z</time>
      </trkpt>
      <trkpt lat="46.07316" lon="4.76505">
        <ele>170</ele>
        <time>2016-10-08T10:15:40Z</time>
      </trkpt>
      <trkpt lat="46.0732" lon="4.76501">
        <ele>170</ele>
        <time>2016-10-08T10:15:41Z</time>
      </trkpt>
      <trkpt lat="46.07325" lon="4.76497">
        <ele>170</ele>
        <time>2016-10-08T10:15:42Z</time>
      </trkpt>
      <trkpt lat="46.07329" lon="4.76492">
        <ele>170</ele>
        <time>2016-10-08T10:15:43Z</time>
      </trkpt>
      <trkpt lat="46.07333" lon="4.76488">
        <ele>170</ele>
        <time>2016-10-08T10:15:44Z</time>
      </trkpt>
      <trkpt lat="46.07337" lon="4.76484">
        <ele>170</ele>
        <time>2016-10-08T10:15:45Z</time>
      </trkpt>
      <trkpt lat="46.0734" lon="4.7648">
        <ele>171</ele>
        <time>2016-10-08T10:15:46Z</time>
      </trkpt>
      <trkpt lat="46.07344" lon="4.76476">
        <ele>171</ele>
        <time>2016-10-08T10:15:47Z</time>
      </trkpt>
      <trkpt lat="46.07348" lon="4.76471">
        <ele>171</ele>
        <time>2016-10-08T10:15:48Z</time>
      </trkpt>
      <trkpt lat="46.07352" lon="4.76467">
        <ele>171</ele>
        <time>2016-10-08T10:15:49Z</time>
      </trkpt>
      <trkpt lat="46.07356" lon="4.76462">
        <ele>171</ele>
        <time>2016-10-08T10:15:50Z</time>
      </trkpt>
      <trkpt lat="46.0736" lon="4.76458">
        <ele>171</ele>
        <time>2016-10-08T10:15:51Z</time>
      </trkpt>
      <trkpt lat="46.07364" lon="4.76454">
        <ele>171</ele>
        <time>2016-10-08T10:15:52Z</time>
      </trkpt>
      <trkpt lat="46.07368" lon="4.76449">
        <ele>171</ele>
        <time>2016-10-08T10:15:53Z</time>
      </trkpt>
      <trkpt lat="46.07373" lon="4.76445">
        <ele>171</ele>
        <time>2016-10-08T10:15:54Z</time>
      </trkpt>
      <trkpt lat="46.07377" lon="4.7644">
        <ele>171</ele>
        <time>2016-10-08T10:15:55Z</time>
      </trkpt>
      <trkpt lat="46.07381" lon="4.76436">
        <ele>171</ele>
        <time>2016-10-08T10:15:56Z</time>
      </trkpt>
      <trkpt lat="46.07386" lon="4.76431">
        <ele>171</ele>
        <time>2016-10-08T10:15:57Z</time>
      </trkpt>
      <trkpt lat="46.0739" lon="4.76427">
        <ele>171</ele>
        <time>2016-10-08T10:15:58Z</time>
      </trkpt>
      <trkpt lat="46.07394" lon="4.76422">
        <ele>171</ele>
        <time>2016-10-08T10:15:59Z</time>
      </trkpt>
      <trkpt lat="46.07398" lon="4.76418">
        <ele>171</ele>
        <time>2016-10-08T10:16:00Z</time>
      </trkpt>
      <trkpt lat="46.07403" lon="4.76413">
        <ele>171</ele>
        <time>2016-10-08T10:16:01Z</time>
      </trkpt>
      <trkpt lat="46.07407" lon="4.76408">
        <ele>171</ele>
        <time>2016-10-08T10:16:02Z</time>
      </trkpt>
      <trkpt lat="46.07411" lon="4.76404">
        <ele>171</ele>
        <time>2016-10-08T10:16:03Z</time>
      </trkpt>
      <trkpt lat="46.07415" lon="4.764">
        <ele>171</ele>
        <time>2016-10-08T10:16:04Z</time>
      </trkpt>
      <trkpt lat="46.07419" lon="4.76395">
        <ele>171</ele>
        <time>2016-10-08T10:16:05Z</time>
      </trkpt>
      <trkpt lat="46.07424" lon="4.76391">
        <ele>171</ele>
        <time>2016-10-08T10:16:06Z</time>
      </trkpt>
      <trkpt lat="46.07428" lon="4.76387">
        <ele>171</ele>
        <time>2016-10-08T10:16:07Z</time>
      </trkpt>
      <trkpt lat="46.07432" lon="4.76383">
        <ele>171</ele>
        <time>2016-10-08T10:16:08Z</time>
      </trkpt>
      <trkpt lat="46.07437" lon="4.76378">
        <ele>171</ele>
        <time>2016-10-08T10:16:09Z</time>
      </trkpt>
      <trkpt lat="46.07441" lon="4.76374">
        <ele>171</ele>
        <time>2016-10-08T10:16:10Z</time>
      </trkpt>
      <trkpt lat="46.07445" lon="4.76369">
        <ele>172</ele>
        <time>2016-10-08T10:16:11Z</time>
      </trkpt>
      <trkpt lat="46.07449" lon="4.76364">
        <ele>172</ele>
        <time>2016-10-08T10:16:12Z</time>
      </trkpt>
      <trkpt lat="46.07453" lon="4.76359">
        <ele>172</ele>
        <time>2016-10-08T10:16:13Z</time>
      </trkpt>
      <trkpt lat="46.07458" lon="4.76354">
        <ele>172</ele>
        <time>2016-10-08T10:16:14Z</time>
      </trkpt>
      <trkpt lat="46.07462" lon="4.76351">
        <ele>172</ele>
        <time>2016-10-08T10:16:15Z</time>
      </trkpt>
      <trkpt lat="46.07467" lon="4.76348">
        <ele>172</ele>
        <time>2016-10-08T10:16:16Z</time>
      </trkpt>
      <trkpt lat="46.07472" lon="4.76346">
        <ele>172</ele>
        <time>2016-10-08T10:16:17Z</time>
      </trkpt>
      <trkpt lat="46.07478" lon="4.76345">
        <ele>172</ele>
        <time>2016-10-08T10:16:18Z</time>
      </trkpt>
      <trkpt lat="46.07483" lon="4.76343">
        <ele>173</ele>
        <time>2016-10-08T10:16:19Z</time>
      </trkpt>
      <trkpt lat="46.07488" lon="4.76339">
        <ele>173</ele>
        <time>2016-10-08T10:16:20Z</time>
      </trkpt>
      <trkpt lat="46.07491" lon="4.76333">
        <ele>173</ele>
        <time>2016-10-08T10:16:21Z</time>
      </trkpt>
      <trkpt lat="46.07493" lon="4.76325">
        <ele>173</ele>
        <time>2016-10-08T10:16:22Z</time>
      </trkpt>
      <trkpt lat="46.07496" lon="4.76317">
        <ele>173</ele>
        <time>2016-10-08T10:16:23Z</time>
      </trkpt>
      <trkpt lat="46.07499" lon="4.7631">
        <ele>173</ele>
        <time>2016-10-08T10:16:24Z</time>
      </trkpt>
      <trkpt lat="46.07503" lon="4.76305">
        <ele>174</ele>
        <time>2016-10-08T10:16:25Z</time>
      </trkpt>
      <trkpt lat="46.07507" lon="4.763">
        <ele>174</ele>
        <time>2016-10-08T10:16:26Z</time>
      </trkpt>
      <trkpt lat="46.07511" lon="4.76295">
        <ele>174</ele>
        <time>2016-10-08T10:16:27Z</time>
      </trkpt>
      <trkpt lat="46.07516" lon="4.76291">
        <ele>174</ele>
        <time>2016-10-08T10:16:28Z</time>
      </trkpt>
      <trkpt lat="46.0752" lon="4.76286">
        <ele>174</ele>
        <time>2016-10-08T10:16:29Z</time>
      </trkpt>
      <trkpt lat="46.07524" lon="4.76281">
        <ele>174</ele>
        <time>2016-10-08T10:16:30Z</time>
      </trkpt>
      <trkpt lat="46.07528" lon="4.76277">
        <ele>174</ele>
        <time>2016-10-08T10:16:31Z</time>
      </trkpt>
      <trkpt lat="46.07532" lon="4.76273">
        <ele>174</ele>
        <time>2016-10-08T10:16:32Z</time>
      </trkpt>
      <trkpt lat="46.07536" lon="4.76268">
        <ele>174</ele>
        <time>2016-10-08T10:16:33Z</time>
      </trkpt>
      <trkpt lat="46.0754" lon="4.76264">
        <ele>174</ele>
        <time>2016-10-08T10:16:34Z</time>
      </trkpt>
      <trkpt lat="46.07545" lon="4.76259">
        <ele>174</ele>
        <time>2016-10-08T10:16:35Z</time>
      </trkpt>
      <trkpt lat="46.07549" lon="4.76254">
        <ele>174</ele>
        <time>2016-10-08T10:16:36Z</time>
      </trkpt>
      <trkpt lat="46.07554" lon="4.76249">
        <ele>173</ele>
        <time>2016-10-08T10:16:37Z</time>
      </trkpt>
      <trkpt lat="46.07558" lon="4.76243">
        <ele>173</ele>
        <time>2016-10-08T10:16:38Z</time>
      </trkpt>
      <trkpt lat="46.07563" lon="4.76239">
        <ele>173</ele>
        <time>2016-10-08T10:16:39Z</time>
      </trkpt>
      <trkpt lat="46.07568" lon="4.76235">
        <ele>173</ele>
        <time>2016-10-08T10:16:40Z</time>
      </trkpt>
      <trkpt lat="46.07573" lon="4.76231">
        <ele>173</ele>
        <time>2016-10-08T10:16:41Z</time>
      </trkpt>
      <trkpt lat="46.07577" lon="4.76225">
        <ele>173</ele>
        <time>2016-10-08T10:16:42Z</time>
      </trkpt>
      <trkpt lat="46.07582" lon="4.76219">
        <ele>173</ele>
        <time>2016-10-08T10:16:43Z</time>
      </trkpt>
      <trkpt lat="46.07586" lon="4.76214">
        <ele>173</ele>
        <time>2016-10-08T10:16:44Z</time>
      </trkpt>
      <trkpt lat="46.07591" lon="4.7621">
        <ele>173</ele>
        <time>2016-10-08T10:16:45Z</time>
      </trkpt>
      <trkpt lat="46.07597" lon="4.76206">
        <ele>173</ele>
        <time>2016-10-08T10:16:46Z</time>
      </trkpt>
      <trkpt lat="46.07601" lon="4.76201">
        <ele>173</ele>
        <time>2016-10-08T10:16:47Z</time>
      </trkpt>
      <trkpt lat="46.07606" lon="4.76195">
        <ele>173</ele>
        <time>2016-10-08T10:16:48Z</time>
      </trkpt>
      <trkpt lat="46.07611" lon="4.7619">
        <ele>173</ele>
        <time>2016-10-08T10:16:49Z</time>
      </trkpt>
      <trkpt lat="46.07617" lon="4.76184">
        <ele>173</ele>
        <time>2016-10-08T10:16:50Z</time>
      </trkpt>
      <trkpt lat="46.07622" lon="4.76179">
        <ele>173</ele>
        <time>2016-10-08T10:16:51Z</time>
      </trkpt>
      <trkpt lat="46.07628" lon="4.76173">
        <ele>173</ele>
        <time>2016-10-08T10:16:52Z</time>
      </trkpt>
      <trkpt lat="46.07633" lon="4.76168">
        <ele>173</ele>
        <time>2016-10-08T10:16:53Z</time>
      </trkpt>
      <trkpt lat="46.07638" lon="4.76162">
        <ele>172</ele>
        <time>2016-10-08T10:16:54Z</time>
      </trkpt>
      <trkpt lat="46.07643" lon="4.76156">
        <ele>172</ele>
        <time>2016-10-08T10:16:55Z</time>
      </trkpt>
      <trkpt lat="46.07647" lon="4.76151">
        <ele>172</ele>
        <time>2016-10-08T10:16:56Z</time>
      </trkpt>
      <trkpt lat="46.07652" lon="4.76146">
        <ele>172</ele>
        <time>2016-10-08T10:16:57Z</time>
      </trkpt>
      <trkpt lat="46.07656" lon="4.76141">
        <ele>172</ele>
        <time>2016-10-08T10:16:58Z</time>
      </trkpt>
      <trkpt lat="46.07661" lon="4.76137">
        <ele>172</ele>
        <time>2016-10-08T10:16:59Z</time>
      </trkpt>
      <trkpt lat="46.07666" lon="4.76133">
        <ele>172</ele>
        <time>2016-10-08T10:17:00Z</time>
      </trkpt>
      <trkpt lat="46.07671" lon="4.7613">
        <ele>173</ele>
        <time>2016-10-08T10:17:01Z</time>
      </trkpt>
      <trkpt lat="46.07675" lon="4.76126">
        <ele>173</ele>
        <time>2016-10-08T10:17:02Z</time>
      </trkpt>
      <trkpt lat="46.07679" lon="4.76122">
        <ele>173</ele>
        <time>2016-10-08T10:17:03Z</time>
      </trkpt>
      <trkpt lat="46.07683" lon="4.76117">
        <ele>173</ele>
        <time>2016-10-08T10:17:04Z</time>
      </trkpt>
      <trkpt lat="46.07686" lon="4.76112">
        <ele>173</ele>
        <time>2016-10-08T10:17:05Z</time>
      </trkpt>
      <trkpt lat="46.0769" lon="4.76107">
        <ele>173</ele>
        <time>2016-10-08T10:17:06Z</time>
      </trkpt>
      <trkpt lat="46.07694" lon="4.76103">
        <ele>173</ele>
        <time>2016-10-08T10:17:07Z</time>
      </trkpt>
      <trkpt lat="46.07698" lon="4.76098">
        <ele>174</ele>
        <time>2016-10-08T10:17:08Z</time>
      </trkpt>
      <trkpt lat="46.07702" lon="4.76094">
        <ele>174</ele>
        <time>2016-10-08T10:17:09Z</time>
      </trkpt>
      <trkpt lat="46.07707" lon="4.76084">
        <ele>174</ele>
        <time>2016-10-08T10:17:11Z</time>
      </trkpt>
      <trkpt lat="46.0771" lon="4.76081">
        <ele>175</ele>
        <time>2016-10-08T10:17:12Z</time>
      </trkpt>
      <trkpt lat="46.07713" lon="4.76077">
        <ele>175</ele>
        <time>2016-10-08T10:17:13Z</time>
      </trkpt>
      <trkpt lat="46.07717" lon="4.76072">
        <ele>175</ele>
        <time>2016-10-08T10:17:14Z</time>
      </trkpt>
      <trkpt lat="46.0772" lon="4.76062">
        <ele>175</ele>
        <time>2016-10-08T10:17:16Z</time>
      </trkpt>
      <trkpt lat="46.07723" lon="4.76058">
        <ele>175</ele>
        <time>2016-10-08T10:17:17Z</time>
      </trkpt>
      <trkpt lat="46.07729" lon="4.76045">
        <ele>175</ele>
        <time>2016-10-08T10:17:19Z</time>
      </trkpt>
      <trkpt lat="46.07734" lon="4.76041">
        <ele>175</ele>
        <time>2016-10-08T10:17:20Z</time>
      </trkpt>
      <trkpt lat="46.07739" lon="4.76036">
        <ele>175</ele>
        <time>2016-10-08T10:17:21Z</time>
      </trkpt>
      <trkpt lat="46.07744" lon="4.76033">
        <ele>175</ele>
        <time>2016-10-08T10:17:22Z</time>
      </trkpt>
      <trkpt lat="46.07748" lon="4.76029">
        <ele>176</ele>
        <time>2016-10-08T10:17:23Z</time>
      </trkpt>
      <trkpt lat="46.07753" lon="4.76028">
        <ele>176</ele>
        <time>2016-10-08T10:17:24Z</time>
      </trkpt>
      <trkpt lat="46.07758" lon="4.76025">
        <ele>176</ele>
        <time>2016-10-08T10:17:25Z</time>
      </trkpt>
      <trkpt lat="46.07766" lon="4.76019">
        <ele>176</ele>
        <time>2016-10-08T10:17:27Z</time>
      </trkpt>
      <trkpt lat="46.0777" lon="4.76017">
        <ele>176</ele>
        <time>2016-10-08T10:17:28Z</time>
      </trkpt>
      <trkpt lat="46.07774" lon="4.76014">
        <ele>176</ele>
        <time>2016-10-08T10:17:29Z</time>
      </trkpt>
      <trkpt lat="46.07779" lon="4.76011">
        <ele>176</ele>
        <time>2016-10-08T10:17:30Z</time>
      </trkpt>
      <trkpt lat="46.07784" lon="4.76009">
        <ele>176</ele>
        <time>2016-10-08T10:17:31Z</time>
      </trkpt>
      <trkpt lat="46.07789" lon="4.76006">
        <ele>176</ele>
        <time>2016-10-08T10:17:32Z</time>
      </trkpt>
      <trkpt lat="46.07794" lon="4.76003">
        <ele>176</ele>
        <time>2016-10-08T10:17:33Z</time>
      </trkpt>
      <trkpt lat="46.07798" lon="4.76">
        <ele>176</ele>
        <time>2016-10-08T10:17:34Z</time>
      </trkpt>
      <trkpt lat="46.07803" lon="4.75997">
        <ele>176</ele>
        <time>2016-10-08T10:17:35Z</time>
      </trkpt>
      <trkpt lat="46.07808" lon="4.75994">
        <ele>176</ele>
        <time>2016-10-08T10:17:36Z</time>
      </trkpt>
      <trkpt lat="46.07814" lon="4.75991">
        <ele>176</ele>
        <time>2016-10-08T10:17:37Z</time>
      </trkpt>
      <trkpt lat="46.07819" lon="4.75988">
        <ele>177</ele>
        <time>2016-10-08T10:17:38Z</time>
      </trkpt>
      <trkpt lat="46.07824" lon="4.75985">
        <ele>177</ele>
        <time>2016-10-08T10:17:39Z</time>
      </trkpt>
      <trkpt lat="46.07829" lon="4.75983">
        <ele>177</ele>
        <time>2016-10-08T10:17:40Z</time>
      </trkpt>
      <trkpt lat="46.07835" lon="4.75981">
        <ele>176</ele>
        <time>2016-10-08T10:17:41Z</time>
      </trkpt>
      <trkpt lat="46.0784" lon="4.75978">
        <ele>176</ele>
        <time>2016-10-08T10:17:42Z</time>
      </trkpt>
      <trkpt lat="46.07845" lon="4.75975">
        <ele>176</ele>
        <time>2016-10-08T10:17:43Z</time>
      </trkpt>
      <trkpt lat="46.0785" lon="4.75972">
        <ele>176</ele>
        <time>2016-10-08T10:17:44Z</time>
      </trkpt>
      <trkpt lat="46.07855" lon="4.75969">
        <ele>176</ele>
        <time>2016-10-08T10:17:45Z</time>
      </trkpt>
      <trkpt lat="46.07861" lon="4.75967">
        <ele>176</ele>
        <time>2016-10-08T10:17:46Z</time>
      </trkpt>
      <trkpt lat="46.07866" lon="4.75964">
        <ele>176</ele>
        <time>2016-10-08T10:17:47Z</time>
      </trkpt>
      <trkpt lat="46.07871" lon="4.75961">
        <ele>176</ele>
        <time>2016-10-08T10:17:48Z</time>
      </trkpt>
      <trkpt lat="46.07874" lon="4.75958">
        <ele>176</ele>
        <time>2016-10-08T10:17:50Z</time>
      </trkpt>
      <trkpt lat="46.07879" lon="4.75953">
        <ele>176</ele>
        <time>2016-10-08T10:17:51Z</time>
      </trkpt>
      <trkpt lat="46.07883" lon="4.75949">
        <ele>176</ele>
        <time>2016-10-08T10:17:52Z</time>
      </trkpt>
      <trkpt lat="46.07888" lon="4.75945">
        <ele>176</ele>
        <time>2016-10-08T10:17:53Z</time>
      </trkpt>
      <trkpt lat="46.07892" lon="4.75941">
        <ele>176</ele>
        <time>2016-10-08T10:17:54Z</time>
      </trkpt>
      <trkpt lat="46.07897" lon="4.75938">
        <ele>176</ele>
        <time>2016-10-08T10:17:55Z</time>
      </trkpt>
      <trkpt lat="46.07901" lon="4.75934">
        <ele>176</ele>
        <time>2016-10-08T10:17:56Z</time>
      </trkpt>
      <trkpt lat="46.07906" lon="4.75931">
        <ele>176</ele>
        <time>2016-10-08T10:17:57Z</time>
      </trkpt>
      <trkpt lat="46.07911" lon="4.75928">
        <ele>176</ele>
        <time>2016-10-08T10:17:58Z</time>
      </trkpt>
      <trkpt lat="46.07916" lon="4.75925">
        <ele>176</ele>
        <time>2016-10-08T10:17:59Z</time>
      </trkpt>
      <trkpt lat="46.07921" lon="4.75924">
        <ele>176</ele>
        <time>2016-10-08T10:18:00Z</time>
      </trkpt>
      <trkpt lat="46.07925" lon="4.75921">
        <ele>176</ele>
        <time>2016-10-08T10:18:01Z</time>
      </trkpt>
      <trkpt lat="46.07929" lon="4.75917">
        <ele>176</ele>
        <time>2016-10-08T10:18:02Z</time>
      </trkpt>
      <trkpt lat="46.07933" lon="4.75913">
        <ele>176</ele>
        <time>2016-10-08T10:18:03Z</time>
      </trkpt>
      <trkpt lat="46.0794" lon="4.75906">
        <ele>176</ele>
        <time>2016-10-08T10:18:05Z</time>
      </trkpt>
      <trkpt lat="46.07944" lon="4.75903">
        <ele>176</ele>
        <time>2016-10-08T10:18:06Z</time>
      </trkpt>
      <trkpt lat="46.07948" lon="4.75901">
        <ele>176</ele>
        <time>2016-10-08T10:18:07Z</time>
      </trkpt>
      <trkpt lat="46.07953" lon="4.75898">
        <ele>176</ele>
        <time>2016-10-08T10:18:08Z</time>
      </trkpt>
      <trkpt lat="46.07958" lon="4.75895">
        <ele>176</ele>
        <time>2016-10-08T10:18:09Z</time>
      </trkpt>
      <trkpt lat="46.07963" lon="4.75894">
        <ele>175</ele>
        <time>2016-10-08T10:18:10Z</time>
      </trkpt>
      <trkpt lat="46.07968" lon="4.75892">
        <ele>175</ele>
        <time>2016-10-08T10:18:11Z</time>
      </trkpt>
      <trkpt lat="46.07972" lon="4.75889">
        <ele>176</ele>
        <time>2016-10-08T10:18:12Z</time>
      </trkpt>
      <trkpt lat="46.07977" lon="4.75885">
        <ele>176</ele>
        <time>2016-10-08T10:18:13Z</time>
      </trkpt>
      <trkpt lat="46.07981" lon="4.75881">
        <ele>176</ele>
        <time>2016-10-08T10:18:14Z</time>
      </trkpt>
      <trkpt lat="46.07986" lon="4.75877">
        <ele>176</ele>
        <time>2016-10-08T10:18:15Z</time>
      </trkpt>
      <trkpt lat="46.07989" lon="4.75874">
        <ele>176</ele>
        <time>2016-10-08T10:18:16Z</time>
      </trkpt>
      <trkpt lat="46.07994" lon="4.75872">
        <ele>176</ele>
        <time>2016-10-08T10:18:17Z</time>
      </trkpt>
      <trkpt lat="46.07999" lon="4.75871">
        <ele>176</ele>
        <time>2016-10-08T10:18:18Z</time>
      </trkpt>
      <trkpt lat="46.08008" lon="4.75869">
        <ele>177</ele>
        <time>2016-10-08T10:18:20Z</time>
      </trkpt>
      <trkpt lat="46.08018" lon="4.75869">
        <ele>177</ele>
        <time>2016-10-08T10:18:22Z</time>
      </trkpt>
      <trkpt lat="46.08027" lon="4.75867">
        <ele>178</ele>
        <time>2016-10-08T10:18:24Z</time>
      </trkpt>
      <trkpt lat="46.08031" lon="4.75866">
        <ele>178</ele>
        <time>2016-10-08T10:18:25Z</time>
      </trkpt>
      <trkpt lat="46.08039" lon="4.7587">
        <ele>178</ele>
        <time>2016-10-08T10:18:27Z</time>
      </trkpt>
      <trkpt lat="46.08043" lon="4.7587">
        <ele>178</ele>
        <time>2016-10-08T10:18:28Z</time>
      </trkpt>
      <trkpt lat="46.08048" lon="4.75869">
        <ele>178</ele>
        <time>2016-10-08T10:18:29Z</time>
      </trkpt>
      <trkpt lat="46.08052" lon="4.75869">
        <ele>178</ele>
        <time>2016-10-08T10:18:30Z</time>
      </trkpt>
      <trkpt lat="46.08058" lon="4.75873">
        <ele>178</ele>
        <time>2016-10-08T10:18:32Z</time>
      </trkpt>
      <trkpt lat="46.08061" lon="4.75873">
        <ele>178</ele>
        <time>2016-10-08T10:18:33Z</time>
      </trkpt>
      <trkpt lat="46.08069" lon="4.75874">
        <ele>178</ele>
        <time>2016-10-08T10:18:36Z</time>
      </trkpt>
      <trkpt lat="46.08071" lon="4.75876">
        <ele>178</ele>
        <time>2016-10-08T10:18:37Z</time>
      </trkpt>
      <trkpt lat="46.08079" lon="4.75871">
        <ele>178</ele>
        <time>2016-10-08T10:18:41Z</time>
      </trkpt>
      <trkpt lat="46.08079" lon="4.75866">
        <ele>178</ele>
        <time>2016-10-08T10:18:42Z</time>
      </trkpt>
      <trkpt lat="46.08077" lon="4.75854">
        <ele>178</ele>
        <time>2016-10-08T10:18:44Z</time>
      </trkpt>
      <trkpt lat="46.08078" lon="4.75848">
        <ele>179</ele>
        <time>2016-10-08T10:18:45Z</time>
      </trkpt>
      <trkpt lat="46.08078" lon="4.75837">
        <ele>179</ele>
        <time>2016-10-08T10:18:47Z</time>
      </trkpt>
      <trkpt lat="46.08077" lon="4.7583">
        <ele>179</ele>
        <time>2016-10-08T10:18:48Z</time>
      </trkpt>
      <trkpt lat="46.08077" lon="4.75824">
        <ele>178</ele>
        <time>2016-10-08T10:18:49Z</time>
      </trkpt>
      <trkpt lat="46.08076" lon="4.75817">
        <ele>178</ele>
        <time>2016-10-08T10:18:50Z</time>
      </trkpt>
      <trkpt lat="46.08076" lon="4.75805">
        <ele>178</ele>
        <time>2016-10-08T10:18:52Z</time>
      </trkpt>
      <trkpt lat="46.08079" lon="4.75798">
        <ele>178</ele>
        <time>2016-10-08T10:18:53Z</time>
      </trkpt>
      <trkpt lat="46.08082" lon="4.75792">
        <ele>178</ele>
        <time>2016-10-08T10:18:54Z</time>
      </trkpt>
      <trkpt lat="46.08083" lon="4.75786">
        <ele>178</ele>
        <time>2016-10-08T10:18:55Z</time>
      </trkpt>
      <trkpt lat="46.08087" lon="4.75781">
        <ele>178</ele>
        <time>2016-10-08T10:18:56Z</time>
      </trkpt>
      <trkpt lat="46.08091" lon="4.75776">
        <ele>178</ele>
        <time>2016-10-08T10:18:57Z</time>
      </trkpt>
      <trkpt lat="46.08096" lon="4.75766">
        <ele>178</ele>
        <time>2016-10-08T10:18:59Z</time>
      </trkpt>
      <trkpt lat="46.08099" lon="4.75761">
        <ele>178</ele>
        <time>2016-10-08T10:19:00Z</time>
      </trkpt>
      <trkpt lat="46.08104" lon="4.75751">
        <ele>178</ele>
        <time>2016-10-08T10:19:02Z</time>
      </trkpt>
      <trkpt lat="46.08107" lon="4.75746">
        <ele>177</ele>
        <time>2016-10-08T10:19:03Z</time>
      </trkpt>
      <trkpt lat="46.0811" lon="4.7574">
        <ele>177</ele>
        <time>2016-10-08T10:19:04Z</time>
      </trkpt>
      <trkpt lat="46.08112" lon="4.75734">
        <ele>177</ele>
        <time>2016-10-08T10:19:05Z</time>
      </trkpt>
      <trkpt lat="46.08115" lon="4.75729">
        <ele>177</ele>
        <time>2016-10-08T10:19:06Z</time>
      </trkpt>
      <trkpt lat="46.08117" lon="4.75723">
        <ele>177</ele>
        <time>2016-10-08T10:19:07Z</time>
      </trkpt>
      <trkpt lat="46.0812" lon="4.75718">
        <ele>177</ele>
        <time>2016-10-08T10:19:08Z</time>
      </trkpt>
      <trkpt lat="46.08123" lon="4.75712">
        <ele>177</ele>
        <time>2016-10-08T10:19:09Z</time>
      </trkpt>
      <trkpt lat="46.08128" lon="4.75702">
        <ele>177</ele>
        <time>2016-10-08T10:19:11Z</time>
      </trkpt>
      <trkpt lat="46.08131" lon="4.75698">
        <ele>177</ele>
        <time>2016-10-08T10:19:12Z</time>
      </trkpt>
      <trkpt lat="46.08136" lon="4.75692">
        <ele>177</ele>
        <time>2016-10-08T10:19:14Z</time>
      </trkpt>
      <trkpt lat="46.08139" lon="4.7569">
        <ele>177</ele>
        <time>2016-10-08T10:19:15Z</time>
      </trkpt>
      <trkpt lat="46.08138" lon="4.75681">
        <ele>177</ele>
        <time>2016-10-08T10:19:18Z</time>
      </trkpt>
      <trkpt lat="46.08137" lon="4.75676">
        <ele>176</ele>
        <time>2016-10-08T10:19:19Z</time>
      </trkpt>
      <trkpt lat="46.08132" lon="4.75668">
        <ele>176</ele>
        <time>2016-10-08T10:19:21Z</time>
      </trkpt>
      <trkpt lat="46.08132" lon="4.75659">
        <ele>176</ele>
        <time>2016-10-08T10:19:22Z</time>
      </trkpt>
      <trkpt lat="46.0813" lon="4.75654">
        <ele>175</ele>
        <time>2016-10-08T10:19:23Z</time>
      </trkpt>
      <trkpt lat="46.08124" lon="4.75651">
        <ele>175</ele>
        <time>2016-10-08T10:19:24Z</time>
      </trkpt>
      <trkpt lat="46.0812" lon="4.7564">
        <ele>175</ele>
        <time>2016-10-08T10:19:26Z</time>
      </trkpt>
      <trkpt lat="46.08118" lon="4.75635">
        <ele>175</ele>
        <time>2016-10-08T10:19:27Z</time>
      </trkpt>
      <trkpt lat="46.08115" lon="4.7563">
        <ele>175</ele>
        <time>2016-10-08T10:19:28Z</time>
      </trkpt>
      <trkpt lat="46.08114" lon="4.75622">
        <ele>175</ele>
        <time>2016-10-08T10:19:29Z</time>
      </trkpt>
      <trkpt lat="46.08112" lon="4.75616">
        <ele>175</ele>
        <time>2016-10-08T10:19:30Z</time>
      </trkpt>
      <trkpt lat="46.0811" lon="4.7561">
        <ele>175</ele>
        <time>2016-10-08T10:19:31Z</time>
      </trkpt>
      <trkpt lat="46.08107" lon="4.75604">
        <ele>175</ele>
        <time>2016-10-08T10:19:32Z</time>
      </trkpt>
      <trkpt lat="46.08104" lon="4.75598">
        <ele>175</ele>
        <time>2016-10-08T10:19:33Z</time>
      </trkpt>
      <trkpt lat="46.08101" lon="4.75592">
        <ele>175</ele>
        <time>2016-10-08T10:19:34Z</time>
      </trkpt>
      <trkpt lat="46.08098" lon="4.75587">
        <ele>175</ele>
        <time>2016-10-08T10:19:35Z</time>
      </trkpt>
      <trkpt lat="46.08094" lon="4.75576">
        <ele>173</ele>
        <time>2016-10-08T10:19:37Z</time>
      </trkpt>
      <trkpt lat="46.08092" lon="4.75571">
        <ele>173</ele>
        <time>2016-10-08T10:19:38Z</time>
      </trkpt>
      <trkpt lat="46.08089" lon="4.75561">
        <ele>173</ele>
        <time>2016-10-08T10:19:40Z</time>
      </trkpt>
      <trkpt lat="46.08086" lon="4.75557">
        <ele>172</ele>
        <time>2016-10-08T10:19:41Z</time>
      </trkpt>
      <trkpt lat="46.08082" lon="4.75548">
        <ele>169</ele>
        <time>2016-10-08T10:19:43Z</time>
      </trkpt>
      <trkpt lat="46.0808" lon="4.75542">
        <ele>169</ele>
        <time>2016-10-08T10:19:44Z</time>
      </trkpt>
      <trkpt lat="46.08075" lon="4.75531">
        <ele>168</ele>
        <time>2016-10-08T10:19:46Z</time>
      </trkpt>
      <trkpt lat="46.08072" lon="4.75527">
        <ele>168</ele>
        <time>2016-10-08T10:19:47Z</time>
      </trkpt>
      <trkpt lat="46.08067" lon="4.75517">
        <ele>167</ele>
        <time>2016-10-08T10:19:49Z</time>
      </trkpt>
      <trkpt lat="46.08065" lon="4.75513">
        <ele>167</ele>
        <time>2016-10-08T10:19:50Z</time>
      </trkpt>
      <trkpt lat="46.08061" lon="4.75504">
        <ele>167</ele>
        <time>2016-10-08T10:19:52Z</time>
      </trkpt>
      <trkpt lat="46.08059" lon="4.75499">
        <ele>166</ele>
        <time>2016-10-08T10:19:53Z</time>
      </trkpt>
      <trkpt lat="46.08054" lon="4.75488">
        <ele>166</ele>
        <time>2016-10-08T10:19:55Z</time>
      </trkpt>
      <trkpt lat="46.08051" lon="4.75483">
        <ele>166</ele>
        <time>2016-10-08T10:19:56Z</time>
      </trkpt>
      <trkpt lat="46.08049" lon="4.75477">
        <ele>166</ele>
        <time>2016-10-08T10:19:57Z</time>
      </trkpt>
      <trkpt lat="46.08047" lon="4.7547">
        <ele>166</ele>
        <time>2016-10-08T10:19:58Z</time>
      </trkpt>
      <trkpt lat="46.08044" lon="4.75465">
        <ele>166</ele>
        <time>2016-10-08T10:19:59Z</time>
      </trkpt>
      <trkpt lat="46.08042" lon="4.75459">
        <ele>166</ele>
        <time>2016-10-08T10:20:00Z</time>
      </trkpt>
      <trkpt lat="46.08039" lon="4.75453">
        <ele>166</ele>
        <time>2016-10-08T10:20:01Z</time>
      </trkpt>
      <trkpt lat="46.08036" lon="4.75446">
        <ele>166</ele>
        <time>2016-10-08T10:20:02Z</time>
      </trkpt>
      <trkpt lat="46.08034" lon="4.75439">
        <ele>166</ele>
        <time>2016-10-08T10:20:03Z</time>
      </trkpt>
      <trkpt lat="46.08031" lon="4.75433">
        <ele>166</ele>
        <time>2016-10-08T10:20:04Z</time>
      </trkpt>
      <trkpt lat="46.08029" lon="4.75427">
        <ele>166</ele>
        <time>2016-10-08T10:20:05Z</time>
      </trkpt>
      <trkpt lat="46.08027" lon="4.7542">
        <ele>166</ele>
        <time>2016-10-08T10:20:06Z</time>
      </trkpt>
      <trkpt lat="46.08024" lon="4.75414">
        <ele>166</ele>
        <time>2016-10-08T10:20:07Z</time>
      </trkpt>
      <trkpt lat="46.0802" lon="4.75407">
        <ele>166</ele>
        <time>2016-10-08T10:20:08Z</time>
      </trkpt>
      <trkpt lat="46.08018" lon="4.754">
        <ele>167</ele>
        <time>2016-10-08T10:20:09Z</time>
      </trkpt>
      <trkpt lat="46.08014" lon="4.75392">
        <ele>167</ele>
        <time>2016-10-08T10:20:10Z</time>
      </trkpt>
      <trkpt lat="46.08011" lon="4.75384">
        <ele>167</ele>
        <time>2016-10-08T10:20:11Z</time>
      </trkpt>
      <trkpt lat="46.08007" lon="4.75375">
        <ele>167</ele>
        <time>2016-10-08T10:20:12Z</time>
      </trkpt>
      <trkpt lat="46.08002" lon="4.75366">
        <ele>167</ele>
        <time>2016-10-08T10:20:13Z</time>
      </trkpt>
      <trkpt lat="46.07997" lon="4.75358">
        <ele>168</ele>
        <time>2016-10-08T10:20:14Z</time>
      </trkpt>
      <trkpt lat="46.07993" lon="4.75349">
        <ele>168</ele>
        <time>2016-10-08T10:20:15Z</time>
      </trkpt>
      <trkpt lat="46.07989" lon="4.7534">
        <ele>168</ele>
        <time>2016-10-08T10:20:16Z</time>
      </trkpt>
      <trkpt lat="46.07983" lon="4.75332">
        <ele>169</ele>
        <time>2016-10-08T10:20:17Z</time>
      </trkpt>
      <trkpt lat="46.07979" lon="4.75324">
        <ele>169</ele>
        <time>2016-10-08T10:20:18Z</time>
      </trkpt>
      <trkpt lat="46.07974" lon="4.75315">
        <ele>169</ele>
        <time>2016-10-08T10:20:19Z</time>
      </trkpt>
      <trkpt lat="46.0797" lon="4.75306">
        <ele>169</ele>
        <time>2016-10-08T10:20:20Z</time>
      </trkpt>
      <trkpt lat="46.07967" lon="4.75298">
        <ele>169</ele>
        <time>2016-10-08T10:20:21Z</time>
      </trkpt>
      <trkpt lat="46.07963" lon="4.7529">
        <ele>169</ele>
        <time>2016-10-08T10:20:22Z</time>
      </trkpt>
      <trkpt lat="46.07959" lon="4.75283">
        <ele>169</ele>
        <time>2016-10-08T10:20:23Z</time>
      </trkpt>
      <trkpt lat="46.07956" lon="4.75275">
        <ele>169</ele>
        <time>2016-10-08T10:20:24Z</time>
      </trkpt>
      <trkpt lat="46.07952" lon="4.75268">
        <ele>169</ele>
        <time>2016-10-08T10:20:25Z</time>
      </trkpt>
      <trkpt lat="46.07948" lon="4.75261">
        <ele>170</ele>
        <time>2016-10-08T10:20:26Z</time>
      </trkpt>
      <trkpt lat="46.07943" lon="4.75254">
        <ele>170</ele>
        <time>2016-10-08T10:20:27Z</time>
      </trkpt>
      <trkpt lat="46.0794" lon="4.75246">
        <ele>170</ele>
        <time>2016-10-08T10:20:28Z</time>
      </trkpt>
      <trkpt lat="46.07936" lon="4.75239">
        <ele>170</ele>
        <time>2016-10-08T10:20:29Z</time>
      </trkpt>
      <trkpt lat="46.07932" lon="4.75232">
        <ele>170</ele>
        <time>2016-10-08T10:20:30Z</time>
      </trkpt>
      <trkpt lat="46.07928" lon="4.75225">
        <ele>171</ele>
        <time>2016-10-08T10:20:31Z</time>
      </trkpt>
      <trkpt lat="46.07925" lon="4.75218">
        <ele>171</ele>
        <time>2016-10-08T10:20:32Z</time>
      </trkpt>
      <trkpt lat="46.07921" lon="4.75212">
        <ele>171</ele>
        <time>2016-10-08T10:20:33Z</time>
      </trkpt>
      <trkpt lat="46.07918" lon="4.75205">
        <ele>171</ele>
        <time>2016-10-08T10:20:34Z</time>
      </trkpt>
      <trkpt lat="46.07915" lon="4.75199">
        <ele>171</ele>
        <time>2016-10-08T10:20:35Z</time>
      </trkpt>
      <trkpt lat="46.07912" lon="4.75193">
        <ele>171</ele>
        <time>2016-10-08T10:20:36Z</time>
      </trkpt>
      <trkpt lat="46.07909" lon="4.75187">
        <ele>171</ele>
        <time>2016-10-08T10:20:37Z</time>
      </trkpt>
      <trkpt lat="46.07906" lon="4.75181">
        <ele>171</ele>
        <time>2016-10-08T10:20:38Z</time>
      </trkpt>
      <trkpt lat="46.07903" lon="4.75176">
        <ele>171</ele>
        <time>2016-10-08T10:20:39Z</time>
      </trkpt>
      <trkpt lat="46.079" lon="4.7517">
        <ele>171</ele>
        <time>2016-10-08T10:20:40Z</time>
      </trkpt>
      <trkpt lat="46.07895" lon="4.7516">
        <ele>171</ele>
        <time>2016-10-08T10:20:42Z</time>
      </trkpt>
      <trkpt lat="46.07892" lon="4.75155">
        <ele>171</ele>
        <time>2016-10-08T10:20:43Z</time>
      </trkpt>
      <trkpt lat="46.07889" lon="4.7515">
        <ele>171</ele>
        <time>2016-10-08T10:20:44Z</time>
      </trkpt>
      <trkpt lat="46.07886" lon="4.75145">
        <ele>171</ele>
        <time>2016-10-08T10:20:45Z</time>
      </trkpt>
      <trkpt lat="46.07883" lon="4.7514">
        <ele>171</ele>
        <time>2016-10-08T10:20:46Z</time>
      </trkpt>
      <trkpt lat="46.07879" lon="4.75135">
        <ele>171</ele>
        <time>2016-10-08T10:20:47Z</time>
      </trkpt>
      <trkpt lat="46.07874" lon="4.75126">
        <ele>171</ele>
        <time>2016-10-08T10:20:49Z</time>
      </trkpt>
      <trkpt lat="46.07871" lon="4.75121">
        <ele>171</ele>
        <time>2016-10-08T10:20:50Z</time>
      </trkpt>
      <trkpt lat="46.07868" lon="4.75116">
        <ele>171</ele>
        <time>2016-10-08T10:20:51Z</time>
      </trkpt>
      <trkpt lat="46.07865" lon="4.7511">
        <ele>171</ele>
        <time>2016-10-08T10:20:52Z</time>
      </trkpt>
      <trkpt lat="46.07862" lon="4.75105">
        <ele>171</ele>
        <time>2016-10-08T10:20:53Z</time>
      </trkpt>
      <trkpt lat="46.07859" lon="4.751">
        <ele>171</ele>
        <time>2016-10-08T10:20:54Z</time>
      </trkpt>
      <trkpt lat="46.07856" lon="4.75095">
        <ele>171</ele>
        <time>2016-10-08T10:20:55Z</time>
      </trkpt>
      <trkpt lat="46.07853" lon="4.75089">
        <ele>171</ele>
        <time>2016-10-08T10:20:56Z</time>
      </trkpt>
      <trkpt lat="46.0785" lon="4.75083">
        <ele>171</ele>
        <time>2016-10-08T10:20:57Z</time>
      </trkpt>
      <trkpt lat="46.07847" lon="4.75076">
        <ele>171</ele>
        <time>2016-10-08T10:20:58Z</time>
      </trkpt>
      <trkpt lat="46.07843" lon="4.7507">
        <ele>171</ele>
        <time>2016-10-08T10:20:59Z</time>
      </trkpt>
      <trkpt lat="46.07838" lon="4.75063">
        <ele>171</ele>
        <time>2016-10-08T10:21:00Z</time>
      </trkpt>
      <trkpt lat="46.07834" lon="4.75058">
        <ele>171</ele>
        <time>2016-10-08T10:21:01Z</time>
      </trkpt>
      <trkpt lat="46.07829" lon="4.75052">
        <ele>171</ele>
        <time>2016-10-08T10:21:02Z</time>
      </trkpt>
      <trkpt lat="46.07824" lon="4.75047">
        <ele>171</ele>
        <time>2016-10-08T10:21:03Z</time>
      </trkpt>
      <trkpt lat="46.07819" lon="4.75043">
        <ele>171</ele>
        <time>2016-10-08T10:21:04Z</time>
      </trkpt>
      <trkpt lat="46.07814" lon="4.75038">
        <ele>171</ele>
        <time>2016-10-08T10:21:05Z</time>
      </trkpt>
      <trkpt lat="46.0781" lon="4.75034">
        <ele>171</ele>
        <time>2016-10-08T10:21:06Z</time>
      </trkpt>
      <trkpt lat="46.07805" lon="4.7503">
        <ele>171</ele>
        <time>2016-10-08T10:21:07Z</time>
      </trkpt>
      <trkpt lat="46.078" lon="4.75026">
        <ele>171</ele>
        <time>2016-10-08T10:21:08Z</time>
      </trkpt>
      <trkpt lat="46.07795" lon="4.75023">
        <ele>171</ele>
        <time>2016-10-08T10:21:09Z</time>
      </trkpt>
      <trkpt lat="46.0779" lon="4.75019">
        <ele>172</ele>
        <time>2016-10-08T10:21:10Z</time>
      </trkpt>
      <trkpt lat="46.07786" lon="4.75015">
        <ele>172</ele>
        <time>2016-10-08T10:21:11Z</time>
      </trkpt>
      <trkpt lat="46.07781" lon="4.75011">
        <ele>172</ele>
        <time>2016-10-08T10:21:12Z</time>
      </trkpt>
      <trkpt lat="46.07775" lon="4.75008">
        <ele>172</ele>
        <time>2016-10-08T10:21:13Z</time>
      </trkpt>
      <trkpt lat="46.0777" lon="4.75004">
        <ele>172</ele>
        <time>2016-10-08T10:21:14Z</time>
      </trkpt>
      <trkpt lat="46.07764" lon="4.74999">
        <ele>172</ele>
        <time>2016-10-08T10:21:15Z</time>
      </trkpt>
      <trkpt lat="46.07758" lon="4.74996">
        <ele>172</ele>
        <time>2016-10-08T10:21:16Z</time>
      </trkpt>
      <trkpt lat="46.07754" lon="4.74991">
        <ele>172</ele>
        <time>2016-10-08T10:21:17Z</time>
      </trkpt>
      <trkpt lat="46.07749" lon="4.74988">
        <ele>173</ele>
        <time>2016-10-08T10:21:18Z</time>
      </trkpt>
      <trkpt lat="46.07745" lon="4.74984">
        <ele>173</ele>
        <time>2016-10-08T10:21:19Z</time>
      </trkpt>
      <trkpt lat="46.0774" lon="4.7498">
        <ele>172</ele>
        <time>2016-10-08T10:21:20Z</time>
      </trkpt>
      <trkpt lat="46.07736" lon="4.74977">
        <ele>172</ele>
        <time>2016-10-08T10:21:21Z</time>
      </trkpt>
      <trkpt lat="46.07732" lon="4.74973">
        <ele>172</ele>
        <time>2016-10-08T10:21:22Z</time>
      </trkpt>
      <trkpt lat="46.07727" lon="4.74969">
        <ele>172</ele>
        <time>2016-10-08T10:21:23Z</time>
      </trkpt>
      <trkpt lat="46.07722" lon="4.74965">
        <ele>172</ele>
        <time>2016-10-08T10:21:24Z</time>
      </trkpt>
      <trkpt lat="46.07717" lon="4.74961">
        <ele>172</ele>
        <time>2016-10-08T10:21:25Z</time>
      </trkpt>
      <trkpt lat="46.07712" lon="4.74957">
        <ele>172</ele>
        <time>2016-10-08T10:21:26Z</time>
      </trkpt>
      <trkpt lat="46.07706" lon="4.74953">
        <ele>172</ele>
        <time>2016-10-08T10:21:27Z</time>
      </trkpt>
      <trkpt lat="46.077" lon="4.74948">
        <ele>172</ele>
        <time>2016-10-08T10:21:28Z</time>
      </trkpt>
      <trkpt lat="46.07693" lon="4.74944">
        <ele>172</ele>
        <time>2016-10-08T10:21:29Z</time>
      </trkpt>
      <trkpt lat="46.07688" lon="4.74939">
        <ele>172</ele>
        <time>2016-10-08T10:21:30Z</time>
      </trkpt>
      <trkpt lat="46.07682" lon="4.74935">
        <ele>172</ele>
        <time>2016-10-08T10:21:31Z</time>
      </trkpt>
      <trkpt lat="46.07678" lon="4.7493">
        <ele>172</ele>
        <time>2016-10-08T10:21:32Z</time>
      </trkpt>
      <trkpt lat="46.07673" lon="4.74925">
        <ele>172</ele>
        <time>2016-10-08T10:21:33Z</time>
      </trkpt>
      <trkpt lat="46.07668" lon="4.74922">
        <ele>172</ele>
        <time>2016-10-08T10:21:34Z</time>
      </trkpt>
      <trkpt lat="46.07663" lon="4.74918">
        <ele>172</ele>
        <time>2016-10-08T10:21:35Z</time>
      </trkpt>
      <trkpt lat="46.07657" lon="4.74914">
        <ele>172</ele>
        <time>2016-10-08T10:21:36Z</time>
      </trkpt>
      <trkpt lat="46.07652" lon="4.74911">
        <ele>171</ele>
        <time>2016-10-08T10:21:37Z</time>
      </trkpt>
      <trkpt lat="46.07647" lon="4.74907">
        <ele>171</ele>
        <time>2016-10-08T10:21:38Z</time>
      </trkpt>
      <trkpt lat="46.07642" lon="4.74902">
        <ele>171</ele>
        <time>2016-10-08T10:21:39Z</time>
      </trkpt>
      <trkpt lat="46.07637" lon="4.74898">
        <ele>171</ele>
        <time>2016-10-08T10:21:40Z</time>
      </trkpt>
      <trkpt lat="46.07632" lon="4.74894">
        <ele>171</ele>
        <time>2016-10-08T10:21:41Z</time>
      </trkpt>
      <trkpt lat="46.07626" lon="4.74889">
        <ele>171</ele>
        <time>2016-10-08T10:21:42Z</time>
      </trkpt>
      <trkpt lat="46.07621" lon="4.74885">
        <ele>171</ele>
        <time>2016-10-08T10:21:43Z</time>
      </trkpt>
      <trkpt lat="46.07616" lon="4.7488">
        <ele>171</ele>
        <time>2016-10-08T10:21:44Z</time>
      </trkpt>
      <trkpt lat="46.07611" lon="4.74876">
        <ele>171</ele>
        <time>2016-10-08T10:21:45Z</time>
      </trkpt>
      <trkpt lat="46.07606" lon="4.74872">
        <ele>171</ele>
        <time>2016-10-08T10:21:46Z</time>
      </trkpt>
      <trkpt lat="46.07602" lon="4.74869">
        <ele>171</ele>
        <time>2016-10-08T10:21:47Z</time>
      </trkpt>
      <trkpt lat="46.07597" lon="4.74865">
        <ele>171</ele>
        <time>2016-10-08T10:21:48Z</time>
      </trkpt>
      <trkpt lat="46.07593" lon="4.74862">
        <ele>171</ele>
        <time>2016-10-08T10:21:49Z</time>
      </trkpt>
      <trkpt lat="46.07588" lon="4.74858">
        <ele>171</ele>
        <time>2016-10-08T10:21:50Z</time>
      </trkpt>
      <trkpt lat="46.07583" lon="4.74854">
        <ele>171</ele>
        <time>2016-10-08T10:21:51Z</time>
      </trkpt>
      <trkpt lat="46.07578" lon="4.74849">
        <ele>171</ele>
        <time>2016-10-08T10:21:52Z</time>
      </trkpt>
      <trkpt lat="46.07572" lon="4.74845">
        <ele>171</ele>
        <time>2016-10-08T10:21:53Z</time>
      </trkpt>
      <trkpt lat="46.07566" lon="4.7484">
        <ele>171</ele>
        <time>2016-10-08T10:21:54Z</time>
      </trkpt>
      <trkpt lat="46.07561" lon="4.74836">
        <ele>171</ele>
        <time>2016-10-08T10:21:55Z</time>
      </trkpt>
      <trkpt lat="46.07555" lon="4.74831">
        <ele>172</ele>
        <time>2016-10-08T10:21:56Z</time>
      </trkpt>
      <trkpt lat="46.07549" lon="4.74826">
        <ele>172</ele>
        <time>2016-10-08T10:21:57Z</time>
      </trkpt>
      <trkpt lat="46.07544" lon="4.74822">
        <ele>172</ele>
        <time>2016-10-08T10:21:58Z</time>
      </trkpt>
      <trkpt lat="46.07539" lon="4.74818">
        <ele>172</ele>
        <time>2016-10-08T10:21:59Z</time>
      </trkpt>
      <trkpt lat="46.07534" lon="4.74813">
        <ele>172</ele>
        <time>2016-10-08T10:22:00Z</time>
      </trkpt>
      <trkpt lat="46.07529" lon="4.74809">
        <ele>172</ele>
        <time>2016-10-08T10:22:01Z</time>
      </trkpt>
      <trkpt lat="46.07524" lon="4.74805">
        <ele>172</ele>
        <time>2016-10-08T10:22:02Z</time>
      </trkpt>
      <trkpt lat="46.0752" lon="4.748">
        <ele>172</ele>
        <time>2016-10-08T10:22:03Z</time>
      </trkpt>
      <trkpt lat="46.07515" lon="4.74796">
        <ele>172</ele>
        <time>2016-10-08T10:22:04Z</time>
      </trkpt>
      <trkpt lat="46.0751" lon="4.74792">
        <ele>172</ele>
        <time>2016-10-08T10:22:05Z</time>
      </trkpt>
      <trkpt lat="46.07505" lon="4.74788">
        <ele>172</ele>
        <time>2016-10-08T10:22:06Z</time>
      </trkpt>
      <trkpt lat="46.075" lon="4.74784">
        <ele>173</ele>
        <time>2016-10-08T10:22:07Z</time>
      </trkpt>
      <trkpt lat="46.07495" lon="4.7478">
        <ele>173</ele>
        <time>2016-10-08T10:22:08Z</time>
      </trkpt>
      <trkpt lat="46.0749" lon="4.74776">
        <ele>173</ele>
        <time>2016-10-08T10:22:09Z</time>
      </trkpt>
      <trkpt lat="46.07485" lon="4.74772">
        <ele>173</ele>
        <time>2016-10-08T10:22:10Z</time>
      </trkpt>
      <trkpt lat="46.0748" lon="4.74768">
        <ele>173</ele>
        <time>2016-10-08T10:22:11Z</time>
      </trkpt>
      <trkpt lat="46.07475" lon="4.74763">
        <ele>173</ele>
        <time>2016-10-08T10:22:12Z</time>
      </trkpt>
      <trkpt lat="46.0747" lon="4.74758">
        <ele>173</ele>
        <time>2016-10-08T10:22:13Z</time>
      </trkpt>
      <trkpt lat="46.07466" lon="4.74752">
        <ele>173</ele>
        <time>2016-10-08T10:22:14Z</time>
      </trkpt>
      <trkpt lat="46.07461" lon="4.74747">
        <ele>173</ele>
        <time>2016-10-08T10:22:15Z</time>
      </trkpt>
      <trkpt lat="46.07457" lon="4.74741">
        <ele>173</ele>
        <time>2016-10-08T10:22:16Z</time>
      </trkpt>
      <trkpt lat="46.07453" lon="4.74736">
        <ele>173</ele>
        <time>2016-10-08T10:22:17Z</time>
      </trkpt>
      <trkpt lat="46.0745" lon="4.74729">
        <ele>173</ele>
        <time>2016-10-08T10:22:18Z</time>
      </trkpt>
      <trkpt lat="46.07447" lon="4.74723">
        <ele>173</ele>
        <time>2016-10-08T10:22:19Z</time>
      </trkpt>
      <trkpt lat="46.07443" lon="4.74717">
        <ele>173</ele>
        <time>2016-10-08T10:22:20Z</time>
      </trkpt>
      <trkpt lat="46.0744" lon="4.7471">
        <ele>173</ele>
        <time>2016-10-08T10:22:21Z</time>
      </trkpt>
      <trkpt lat="46.07436" lon="4.74702">
        <ele>173</ele>
        <time>2016-10-08T10:22:22Z</time>
      </trkpt>
      <trkpt lat="46.07432" lon="4.74695">
        <ele>173</ele>
        <time>2016-10-08T10:22:23Z</time>
      </trkpt>
      <trkpt lat="46.07428" lon="4.74687">
        <ele>173</ele>
        <time>2016-10-08T10:22:24Z</time>
      </trkpt>
      <trkpt lat="46.07424" lon="4.7468">
        <ele>172</ele>
        <time>2016-10-08T10:22:25Z</time>
      </trkpt>
      <trkpt lat="46.07421" lon="4.74672">
        <ele>172</ele>
        <time>2016-10-08T10:22:26Z</time>
      </trkpt>
      <trkpt lat="46.07417" lon="4.74665">
        <ele>172</ele>
        <time>2016-10-08T10:22:27Z</time>
      </trkpt>
      <trkpt lat="46.07414" lon="4.74657">
        <ele>173</ele>
        <time>2016-10-08T10:22:28Z</time>
      </trkpt>
      <trkpt lat="46.0741" lon="4.7465">
        <ele>173</ele>
        <time>2016-10-08T10:22:29Z</time>
      </trkpt>
      <trkpt lat="46.07406" lon="4.74643">
        <ele>173</ele>
        <time>2016-10-08T10:22:30Z</time>
      </trkpt>
      <trkpt lat="46.07403" lon="4.74636">
        <ele>174</ele>
        <time>2016-10-08T10:22:31Z</time>
      </trkpt>
      <trkpt lat="46.07399" lon="4.74629">
        <ele>174</ele>
        <time>2016-10-08T10:22:32Z</time>
      </trkpt>
      <trkpt lat="46.07396" lon="4.74622">
        <ele>174</ele>
        <time>2016-10-08T10:22:33Z</time>
      </trkpt>
      <trkpt lat="46.07392" lon="4.74616">
        <ele>174</ele>
        <time>2016-10-08T10:22:34Z</time>
      </trkpt>
      <trkpt lat="46.07389" lon="4.74609">
        <ele>174</ele>
        <time>2016-10-08T10:22:35Z</time>
      </trkpt>
      <trkpt lat="46.07385" lon="4.74603">
        <ele>174</ele>
        <time>2016-10-08T10:22:36Z</time>
      </trkpt>
      <trkpt lat="46.07382" lon="4.74596">
        <ele>174</ele>
        <time>2016-10-08T10:22:37Z</time>
      </trkpt>
      <trkpt lat="46.07378" lon="4.7459">
        <ele>174</ele>
        <time>2016-10-08T10:22:38Z</time>
      </trkpt>
      <trkpt lat="46.07374" lon="4.74583">
        <ele>175</ele>
        <time>2016-10-08T10:22:39Z</time>
      </trkpt>
      <trkpt lat="46.07371" lon="4.74576">
        <ele>175</ele>
        <time>2016-10-08T10:22:40Z</time>
      </trkpt>
      <trkpt lat="46.07367" lon="4.74569">
        <ele>175</ele>
        <time>2016-10-08T10:22:41Z</time>
      </trkpt>
      <trkpt lat="46.07363" lon="4.74562">
        <ele>175</ele>
        <time>2016-10-08T10:22:42Z</time>
      </trkpt>
      <trkpt lat="46.07359" lon="4.74555">
        <ele>175</ele>
        <time>2016-10-08T10:22:43Z</time>
      </trkpt>
      <trkpt lat="46.07355" lon="4.74549">
        <ele>175</ele>
        <time>2016-10-08T10:22:44Z</time>
      </trkpt>
      <trkpt lat="46.07351" lon="4.74542">
        <ele>175</ele>
        <time>2016-10-08T10:22:45Z</time>
      </trkpt>
      <trkpt lat="46.07347" lon="4.74536">
        <ele>175</ele>
        <time>2016-10-08T10:22:46Z</time>
      </trkpt>
      <trkpt lat="46.07343" lon="4.74531">
        <ele>175</ele>
        <time>2016-10-08T10:22:47Z</time>
      </trkpt>
      <trkpt lat="46.07339" lon="4.74525">
        <ele>175</ele>
        <time>2016-10-08T10:22:48Z</time>
      </trkpt>
      <trkpt lat="46.07335" lon="4.7452">
        <ele>175</ele>
        <time>2016-10-08T10:22:49Z</time>
      </trkpt>
      <trkpt lat="46.07331" lon="4.74514">
        <ele>176</ele>
        <time>2016-10-08T10:22:50Z</time>
      </trkpt>
      <trkpt lat="46.07329" lon="4.74508">
        <ele>176</ele>
        <time>2016-10-08T10:22:51Z</time>
      </trkpt>
      <trkpt lat="46.07326" lon="4.74501">
        <ele>176</ele>
        <time>2016-10-08T10:22:52Z</time>
      </trkpt>
      <trkpt lat="46.07323" lon="4.74495">
        <ele>176</ele>
        <time>2016-10-08T10:22:53Z</time>
      </trkpt>
      <trkpt lat="46.0732" lon="4.74489">
        <ele>175</ele>
        <time>2016-10-08T10:22:54Z</time>
      </trkpt>
      <trkpt lat="46.07317" lon="4.74482">
        <ele>175</ele>
        <time>2016-10-08T10:22:55Z</time>
      </trkpt>
      <trkpt lat="46.07315" lon="4.74474">
        <ele>175</ele>
        <time>2016-10-08T10:22:56Z</time>
      </trkpt>
      <trkpt lat="46.07313" lon="4.74466">
        <ele>175</ele>
        <time>2016-10-08T10:22:57Z</time>
      </trkpt>
      <trkpt lat="46.0731" lon="4.74458">
        <ele>175</ele>
        <time>2016-10-08T10:22:58Z</time>
      </trkpt>
      <trkpt lat="46.07308" lon="4.7445">
        <ele>175</ele>
        <time>2016-10-08T10:22:59Z</time>
      </trkpt>
      <trkpt lat="46.07306" lon="4.74441">
        <ele>175</ele>
        <time>2016-10-08T10:23:00Z</time>
      </trkpt>
      <trkpt lat="46.07305" lon="4.74433">
        <ele>175</ele>
        <time>2016-10-08T10:23:01Z</time>
      </trkpt>
      <trkpt lat="46.07304" lon="4.74425">
        <ele>175</ele>
        <time>2016-10-08T10:23:02Z</time>
      </trkpt>
      <trkpt lat="46.07303" lon="4.74417">
        <ele>174</ele>
        <time>2016-10-08T10:23:03Z</time>
      </trkpt>
      <trkpt lat="46.07303" lon="4.74409">
        <ele>174</ele>
        <time>2016-10-08T10:23:04Z</time>
      </trkpt>
      <trkpt lat="46.07302" lon="4.74402">
        <ele>174</ele>
        <time>2016-10-08T10:23:05Z</time>
      </trkpt>
      <trkpt lat="46.07301" lon="4.74394">
        <ele>174</ele>
        <time>2016-10-08T10:23:06Z</time>
      </trkpt>
      <trkpt lat="46.07301" lon="4.74387">
        <ele>174</ele>
        <time>2016-10-08T10:23:07Z</time>
      </trkpt>
      <trkpt lat="46.073" lon="4.7438">
        <ele>174</ele>
        <time>2016-10-08T10:23:08Z</time>
      </trkpt>
      <trkpt lat="46.07299" lon="4.74373">
        <ele>174</ele>
        <time>2016-10-08T10:23:09Z</time>
      </trkpt>
      <trkpt lat="46.07299" lon="4.74365">
        <ele>174</ele>
        <time>2016-10-08T10:23:10Z</time>
      </trkpt>
      <trkpt lat="46.07298" lon="4.74358">
        <ele>174</ele>
        <time>2016-10-08T10:23:11Z</time>
      </trkpt>
      <trkpt lat="46.07297" lon="4.74351">
        <ele>174</ele>
        <time>2016-10-08T10:23:12Z</time>
      </trkpt>
      <trkpt lat="46.07296" lon="4.74344">
        <ele>174</ele>
        <time>2016-10-08T10:23:13Z</time>
      </trkpt>
      <trkpt lat="46.07295" lon="4.74337">
        <ele>174</ele>
        <time>2016-10-08T10:23:14Z</time>
      </trkpt>
      <trkpt lat="46.07294" lon="4.74329">
        <ele>174</ele>
        <time>2016-10-08T10:23:15Z</time>
      </trkpt>
      <trkpt lat="46.07293" lon="4.74322">
        <ele>174</ele>
        <time>2016-10-08T10:23:16Z</time>
      </trkpt>
      <trkpt lat="46.07292" lon="4.74315">
        <ele>174</ele>
        <time>2016-10-08T10:23:17Z</time>
      </trkpt>
      <trkpt lat="46.0729" lon="4.74308">
        <ele>174</ele>
        <time>2016-10-08T10:23:18Z</time>
      </trkpt>
      <trkpt lat="46.07288" lon="4.74302">
        <ele>174</ele>
        <time>2016-10-08T10:23:19Z</time>
      </trkpt>
      <trkpt lat="46.07286" lon="4.74295">
        <ele>174</ele>
        <time>2016-10-08T10:23:20Z</time>
      </trkpt>
      <trkpt lat="46.07284" lon="4.74288">
        <ele>174</ele>
        <time>2016-10-08T10:23:21Z</time>
      </trkpt>
      <trkpt lat="46.07283" lon="4.74282">
        <ele>175</ele>
        <time>2016-10-08T10:23:22Z</time>
      </trkpt>
      <trkpt lat="46.07281" lon="4.74275">
        <ele>175</ele>
        <time>2016-10-08T10:23:23Z</time>
      </trkpt>
      <trkpt lat="46.0728" lon="4.74269">
        <ele>175</ele>
        <time>2016-10-08T10:23:24Z</time>
      </trkpt>
      <trkpt lat="46.07277" lon="4.74257">
        <ele>175</ele>
        <time>2016-10-08T10:23:26Z</time>
      </trkpt>
      <trkpt lat="46.07274" lon="4.74251">
        <ele>175</ele>
        <time>2016-10-08T10:23:27Z</time>
      </trkpt>
      <trkpt lat="46.07272" lon="4.74245">
        <ele>175</ele>
        <time>2016-10-08T10:23:28Z</time>
      </trkpt>
      <trkpt lat="46.0727" lon="4.74239">
        <ele>175</ele>
        <time>2016-10-08T10:23:29Z</time>
      </trkpt>
      <trkpt lat="46.07267" lon="4.74228">
        <ele>176</ele>
        <time>2016-10-08T10:23:31Z</time>
      </trkpt>
      <trkpt lat="46.07265" lon="4.74222">
        <ele>176</ele>
        <time>2016-10-08T10:23:32Z</time>
      </trkpt>
      <trkpt lat="46.07261" lon="4.74211">
        <ele>176</ele>
        <time>2016-10-08T10:23:34Z</time>
      </trkpt>
      <trkpt lat="46.07259" lon="4.74206">
        <ele>176</ele>
        <time>2016-10-08T10:23:35Z</time>
      </trkpt>
      <trkpt lat="46.07255" lon="4.74194">
        <ele>176</ele>
        <time>2016-10-08T10:23:37Z</time>
      </trkpt>
      <trkpt lat="46.07253" lon="4.74189">
        <ele>176</ele>
        <time>2016-10-08T10:23:38Z</time>
      </trkpt>
      <trkpt lat="46.07249" lon="4.74178">
        <ele>176</ele>
        <time>2016-10-08T10:23:40Z</time>
      </trkpt>
      <trkpt lat="46.07247" lon="4.74172">
        <ele>177</ele>
        <time>2016-10-08T10:23:41Z</time>
      </trkpt>
      <trkpt lat="46.07244" lon="4.74161">
        <ele>177</ele>
        <time>2016-10-08T10:23:43Z</time>
      </trkpt>
      <trkpt lat="46.07242" lon="4.74156">
        <ele>177</ele>
        <time>2016-10-08T10:23:44Z</time>
      </trkpt>
      <trkpt lat="46.07238" lon="4.74145">
        <ele>177</ele>
        <time>2016-10-08T10:23:46Z</time>
      </trkpt>
      <trkpt lat="46.07236" lon="4.74139">
        <ele>177</ele>
        <time>2016-10-08T10:23:47Z</time>
      </trkpt>
      <trkpt lat="46.07234" lon="4.74133">
        <ele>177</ele>
        <time>2016-10-08T10:23:48Z</time>
      </trkpt>
      <trkpt lat="46.07232" lon="4.74128">
        <ele>177</ele>
        <time>2016-10-08T10:23:49Z</time>
      </trkpt>
      <trkpt lat="46.07227" lon="4.74117">
        <ele>177</ele>
        <time>2016-10-08T10:23:51Z</time>
      </trkpt>
      <trkpt lat="46.07225" lon="4.74111">
        <ele>177</ele>
        <time>2016-10-08T10:23:52Z</time>
      </trkpt>
      <trkpt lat="46.07224" lon="4.74105">
        <ele>177</ele>
        <time>2016-10-08T10:23:53Z</time>
      </trkpt>
      <trkpt lat="46.07222" lon="4.74099">
        <ele>177</ele>
        <time>2016-10-08T10:23:54Z</time>
      </trkpt>
      <trkpt lat="46.0722" lon="4.74093">
        <ele>177</ele>
        <time>2016-10-08T10:23:55Z</time>
      </trkpt>
      <trkpt lat="46.07218" lon="4.74087">
        <ele>177</ele>
        <time>2016-10-08T10:23:56Z</time>
      </trkpt>
      <trkpt lat="46.07216" lon="4.7408">
        <ele>177</ele>
        <time>2016-10-08T10:23:57Z</time>
      </trkpt>
      <trkpt lat="46.07213" lon="4.74074">
        <ele>177</ele>
        <time>2016-10-08T10:23:58Z</time>
      </trkpt>
      <trkpt lat="46.07211" lon="4.74067">
        <ele>177</ele>
        <time>2016-10-08T10:23:59Z</time>
      </trkpt>
      <trkpt lat="46.07209" lon="4.7406">
        <ele>177</ele>
        <time>2016-10-08T10:24:00Z</time>
      </trkpt>
      <trkpt lat="46.07206" lon="4.74053">
        <ele>178</ele>
        <time>2016-10-08T10:24:01Z</time>
      </trkpt>
      <trkpt lat="46.07204" lon="4.74045">
        <ele>178</ele>
        <time>2016-10-08T10:24:02Z</time>
      </trkpt>
      <trkpt lat="46.07201" lon="4.74037">
        <ele>178</ele>
        <time>2016-10-08T10:24:03Z</time>
      </trkpt>
      <trkpt lat="46.07199" lon="4.7403">
        <ele>178</ele>
        <time>2016-10-08T10:24:04Z</time>
      </trkpt>
      <trkpt lat="46.07196" lon="4.74022">
        <ele>178</ele>
        <time>2016-10-08T10:24:05Z</time>
      </trkpt>
      <trkpt lat="46.07193" lon="4.74012">
        <ele>178</ele>
        <time>2016-10-08T10:24:06Z</time>
      </trkpt>
      <trkpt lat="46.07189" lon="4.74003">
        <ele>178</ele>
        <time>2016-10-08T10:24:07Z</time>
      </trkpt>
      <trkpt lat="46.07186" lon="4.73993">
        <ele>178</ele>
        <time>2016-10-08T10:24:08Z</time>
      </trkpt>
      <trkpt lat="46.07183" lon="4.73983">
        <ele>178</ele>
        <time>2016-10-08T10:24:09Z</time>
      </trkpt>
      <trkpt lat="46.07179" lon="4.73973">
        <ele>178</ele>
        <time>2016-10-08T10:24:10Z</time>
      </trkpt>
      <trkpt lat="46.07176" lon="4.73962">
        <ele>178</ele>
        <time>2016-10-08T10:24:11Z</time>
      </trkpt>
      <trkpt lat="46.07172" lon="4.73952">
        <ele>177</ele>
        <time>2016-10-08T10:24:12Z</time>
      </trkpt>
      <trkpt lat="46.07169" lon="4.73941">
        <ele>177</ele>
        <time>2016-10-08T10:24:13Z</time>
      </trkpt>
      <trkpt lat="46.07166" lon="4.7393">
        <ele>177</ele>
        <time>2016-10-08T10:24:14Z</time>
      </trkpt>
      <trkpt lat="46.07163" lon="4.7392">
        <ele>177</ele>
        <time>2016-10-08T10:24:15Z</time>
      </trkpt>
      <trkpt lat="46.07159" lon="4.73911">
        <ele>177</ele>
        <time>2016-10-08T10:24:16Z</time>
      </trkpt>
      <trkpt lat="46.07156" lon="4.73902">
        <ele>177</ele>
        <time>2016-10-08T10:24:17Z</time>
      </trkpt>
      <trkpt lat="46.07152" lon="4.73893">
        <ele>177</ele>
        <time>2016-10-08T10:24:18Z</time>
      </trkpt>
      <trkpt lat="46.07149" lon="4.73885">
        <ele>176</ele>
        <time>2016-10-08T10:24:19Z</time>
      </trkpt>
      <trkpt lat="46.07145" lon="4.73877">
        <ele>176</ele>
        <time>2016-10-08T10:24:20Z</time>
      </trkpt>
      <trkpt lat="46.07142" lon="4.7387">
        <ele>176</ele>
        <time>2016-10-08T10:24:21Z</time>
      </trkpt>
      <trkpt lat="46.07138" lon="4.73864">
        <ele>176</ele>
        <time>2016-10-08T10:24:22Z</time>
      </trkpt>
      <trkpt lat="46.07133" lon="4.73857">
        <ele>176</ele>
        <time>2016-10-08T10:24:23Z</time>
      </trkpt>
      <trkpt lat="46.07129" lon="4.73852">
        <ele>176</ele>
        <time>2016-10-08T10:24:24Z</time>
      </trkpt>
      <trkpt lat="46.07125" lon="4.73846">
        <ele>177</ele>
        <time>2016-10-08T10:24:25Z</time>
      </trkpt>
      <trkpt lat="46.07121" lon="4.73841">
        <ele>177</ele>
        <time>2016-10-08T10:24:26Z</time>
      </trkpt>
      <trkpt lat="46.07116" lon="4.73835">
        <ele>177</ele>
        <time>2016-10-08T10:24:27Z</time>
      </trkpt>
      <trkpt lat="46.07112" lon="4.7383">
        <ele>177</ele>
        <time>2016-10-08T10:24:28Z</time>
      </trkpt>
      <trkpt lat="46.07107" lon="4.73825">
        <ele>178</ele>
        <time>2016-10-08T10:24:29Z</time>
      </trkpt>
      <trkpt lat="46.07102" lon="4.73821">
        <ele>178</ele>
        <time>2016-10-08T10:24:30Z</time>
      </trkpt>
      <trkpt lat="46.07096" lon="4.73816">
        <ele>178</ele>
        <time>2016-10-08T10:24:31Z</time>
      </trkpt>
      <trkpt lat="46.07091" lon="4.73812">
        <ele>178</ele>
        <time>2016-10-08T10:24:32Z</time>
      </trkpt>
      <trkpt lat="46.07085" lon="4.73808">
        <ele>178</ele>
        <time>2016-10-08T10:24:33Z</time>
      </trkpt>
      <trkpt lat="46.0708" lon="4.73805">
        <ele>178</ele>
        <time>2016-10-08T10:24:34Z</time>
      </trkpt>
      <trkpt lat="46.07075" lon="4.73801">
        <ele>178</ele>
        <time>2016-10-08T10:24:35Z</time>
      </trkpt>
      <trkpt lat="46.0707" lon="4.73798">
        <ele>178</ele>
        <time>2016-10-08T10:24:36Z</time>
      </trkpt>
      <trkpt lat="46.07065" lon="4.73797">
        <ele>178</ele>
        <time>2016-10-08T10:24:37Z</time>
      </trkpt>
      <trkpt lat="46.0706" lon="4.73795">
        <ele>178</ele>
        <time>2016-10-08T10:24:38Z</time>
      </trkpt>
      <trkpt lat="46.07054" lon="4.73794">
        <ele>177</ele>
        <time>2016-10-08T10:24:39Z</time>
      </trkpt>
      <trkpt lat="46.07049" lon="4.73793">
        <ele>177</ele>
        <time>2016-10-08T10:24:40Z</time>
      </trkpt>
      <trkpt lat="46.07044" lon="4.73792">
        <ele>177</ele>
        <time>2016-10-08T10:24:41Z</time>
      </trkpt>
      <trkpt lat="46.07039" lon="4.73791">
        <ele>177</ele>
        <time>2016-10-08T10:24:42Z</time>
      </trkpt>
      <trkpt lat="46.07033" lon="4.7379">
        <ele>177</ele>
        <time>2016-10-08T10:24:43Z</time>
      </trkpt>
      <trkpt lat="46.07027" lon="4.73788">
        <ele>177</ele>
        <time>2016-10-08T10:24:44Z</time>
      </trkpt>
      <trkpt lat="46.0702" lon="4.73787">
        <ele>177</ele>
        <time>2016-10-08T10:24:45Z</time>
      </trkpt>
      <trkpt lat="46.07014" lon="4.73786">
        <ele>177</ele>
        <time>2016-10-08T10:24:46Z</time>
      </trkpt>
      <trkpt lat="46.07007" lon="4.73785">
        <ele>177</ele>
        <time>2016-10-08T10:24:47Z</time>
      </trkpt>
      <trkpt lat="46.07001" lon="4.73784">
        <ele>177</ele>
        <time>2016-10-08T10:24:48Z</time>
      </trkpt>
      <trkpt lat="46.06995" lon="4.73784">
        <ele>176</ele>
        <time>2016-10-08T10:24:49Z</time>
      </trkpt>
      <trkpt lat="46.06988" lon="4.73783">
        <ele>176</ele>
        <time>2016-10-08T10:24:50Z</time>
      </trkpt>
      <trkpt lat="46.06982" lon="4.73781">
        <ele>176</ele>
        <time>2016-10-08T10:24:51Z</time>
      </trkpt>
      <trkpt lat="46.06976" lon="4.7378">
        <ele>176</ele>
        <time>2016-10-08T10:24:52Z</time>
      </trkpt>
      <trkpt lat="46.0697" lon="4.73779">
        <ele>176</ele>
        <time>2016-10-08T10:24:53Z</time>
      </trkpt>
      <trkpt lat="46.06965" lon="4.73777">
        <ele>176</ele>
        <time>2016-10-08T10:24:54Z</time>
      </trkpt>
      <trkpt lat="46.06959" lon="4.73775">
        <ele>176</ele>
        <time>2016-10-08T10:24:55Z</time>
      </trkpt>
      <trkpt lat="46.06954" lon="4.73773">
        <ele>176</ele>
        <time>2016-10-08T10:24:56Z</time>
      </trkpt>
      <trkpt lat="46.06949" lon="4.73771">
        <ele>176</ele>
        <time>2016-10-08T10:24:57Z</time>
      </trkpt>
      <trkpt lat="46.06944" lon="4.73768">
        <ele>176</ele>
        <time>2016-10-08T10:24:58Z</time>
      </trkpt>
      <trkpt lat="46.06939" lon="4.73765">
        <ele>176</ele>
        <time>2016-10-08T10:24:59Z</time>
      </trkpt>
      <trkpt lat="46.06934" lon="4.73761">
        <ele>177</ele>
        <time>2016-10-08T10:25:00Z</time>
      </trkpt>
      <trkpt lat="46.06929" lon="4.73757">
        <ele>177</ele>
        <time>2016-10-08T10:25:01Z</time>
      </trkpt>
      <trkpt lat="46.06924" lon="4.73753">
        <ele>177</ele>
        <time>2016-10-08T10:25:02Z</time>
      </trkpt>
      <trkpt lat="46.06919" lon="4.73748">
        <ele>177</ele>
        <time>2016-10-08T10:25:03Z</time>
      </trkpt>
      <trkpt lat="46.06915" lon="4.73742">
        <ele>177</ele>
        <time>2016-10-08T10:25:04Z</time>
      </trkpt>
      <trkpt lat="46.0691" lon="4.73736">
        <ele>177</ele>
        <time>2016-10-08T10:25:05Z</time>
      </trkpt>
      <trkpt lat="46.06906" lon="4.73729">
        <ele>177</ele>
        <time>2016-10-08T10:25:06Z</time>
      </trkpt>
      <trkpt lat="46.06902" lon="4.73723">
        <ele>176</ele>
        <time>2016-10-08T10:25:07Z</time>
      </trkpt>
      <trkpt lat="46.06897" lon="4.73716">
        <ele>176</ele>
        <time>2016-10-08T10:25:08Z</time>
      </trkpt>
      <trkpt lat="46.06893" lon="4.73711">
        <ele>176</ele>
        <time>2016-10-08T10:25:09Z</time>
      </trkpt>
      <trkpt lat="46.06888" lon="4.73705">
        <ele>176</ele>
        <time>2016-10-08T10:25:10Z</time>
      </trkpt>
      <trkpt lat="46.06884" lon="4.737">
        <ele>176</ele>
        <time>2016-10-08T10:25:11Z</time>
      </trkpt>
      <trkpt lat="46.06879" lon="4.73695">
        <ele>176</ele>
        <time>2016-10-08T10:25:12Z</time>
      </trkpt>
      <trkpt lat="46.06875" lon="4.7369">
        <ele>176</ele>
        <time>2016-10-08T10:25:13Z</time>
      </trkpt>
      <trkpt lat="46.0687" lon="4.73685">
        <ele>176</ele>
        <time>2016-10-08T10:25:14Z</time>
      </trkpt>
      <trkpt lat="46.06866" lon="4.73681">
        <ele>176</ele>
        <time>2016-10-08T10:25:15Z</time>
      </trkpt>
      <trkpt lat="46.06862" lon="4.73676">
        <ele>176</ele>
        <time>2016-10-08T10:25:16Z</time>
      </trkpt>
      <trkpt lat="46.06857" lon="4.73671">
        <ele>176</ele>
        <time>2016-10-08T10:25:17Z</time>
      </trkpt>
      <trkpt lat="46.06853" lon="4.73666">
        <ele>176</ele>
        <time>2016-10-08T10:25:18Z</time>
      </trkpt>
      <trkpt lat="46.06849" lon="4.73661">
        <ele>176</ele>
        <time>2016-10-08T10:25:19Z</time>
      </trkpt>
      <trkpt lat="46.06844" lon="4.73657">
        <ele>176</ele>
        <time>2016-10-08T10:25:20Z</time>
      </trkpt>
      <trkpt lat="46.06839" lon="4.73651">
        <ele>176</ele>
        <time>2016-10-08T10:25:21Z</time>
      </trkpt>
      <trkpt lat="46.06834" lon="4.73645">
        <ele>177</ele>
        <time>2016-10-08T10:25:22Z</time>
      </trkpt>
      <trkpt lat="46.06829" lon="4.7364">
        <ele>177</ele>
        <time>2016-10-08T10:25:23Z</time>
      </trkpt>
      <trkpt lat="46.06824" lon="4.73634">
        <ele>178</ele>
        <time>2016-10-08T10:25:24Z</time>
      </trkpt>
      <trkpt lat="46.06819" lon="4.73629">
        <ele>178</ele>
        <time>2016-10-08T10:25:25Z</time>
      </trkpt>
      <trkpt lat="46.06814" lon="4.73623">
        <ele>178</ele>
        <time>2016-10-08T10:25:26Z</time>
      </trkpt>
      <trkpt lat="46.0681" lon="4.73617">
        <ele>178</ele>
        <time>2016-10-08T10:25:27Z</time>
      </trkpt>
      <trkpt lat="46.06805" lon="4.73612">
        <ele>178</ele>
        <time>2016-10-08T10:25:28Z</time>
      </trkpt>
      <trkpt lat="46.06801" lon="4.73607">
        <ele>178</ele>
        <time>2016-10-08T10:25:29Z</time>
      </trkpt>
      <trkpt lat="46.06798" lon="4.73601">
        <ele>178</ele>
        <time>2016-10-08T10:25:30Z</time>
      </trkpt>
      <trkpt lat="46.06794" lon="4.73596">
        <ele>179</ele>
        <time>2016-10-08T10:25:31Z</time>
      </trkpt>
      <trkpt lat="46.0679" lon="4.73591">
        <ele>179</ele>
        <time>2016-10-08T10:25:32Z</time>
      </trkpt>
      <trkpt lat="46.06786" lon="4.73586">
        <ele>179</ele>
        <time>2016-10-08T10:25:33Z</time>
      </trkpt>
      <trkpt lat="46.06782" lon="4.73581">
        <ele>179</ele>
        <time>2016-10-08T10:25:34Z</time>
      </trkpt>
      <trkpt lat="46.06778" lon="4.73575">
        <ele>180</ele>
        <time>2016-10-08T10:25:35Z</time>
      </trkpt>
      <trkpt lat="46.06776" lon="4.73568">
        <ele>180</ele>
        <time>2016-10-08T10:25:36Z</time>
      </trkpt>
      <trkpt lat="46.06773" lon="4.73561">
        <ele>179</ele>
        <time>2016-10-08T10:25:37Z</time>
      </trkpt>
      <trkpt lat="46.0677" lon="4.73553">
        <ele>179</ele>
        <time>2016-10-08T10:25:38Z</time>
      </trkpt>
      <trkpt lat="46.06767" lon="4.73546">
        <ele>179</ele>
        <time>2016-10-08T10:25:39Z</time>
      </trkpt>
      <trkpt lat="46.06765" lon="4.73538">
        <ele>179</ele>
        <time>2016-10-08T10:25:40Z</time>
      </trkpt>
      <trkpt lat="46.06762" lon="4.73532">
        <ele>179</ele>
        <time>2016-10-08T10:25:41Z</time>
      </trkpt>
      <trkpt lat="46.06759" lon="4.73526">
        <ele>179</ele>
        <time>2016-10-08T10:25:42Z</time>
      </trkpt>
      <trkpt lat="46.06755" lon="4.7352">
        <ele>179</ele>
        <time>2016-10-08T10:25:43Z</time>
      </trkpt>
      <trkpt lat="46.06752" lon="4.73514">
        <ele>179</ele>
        <time>2016-10-08T10:25:44Z</time>
      </trkpt>
      <trkpt lat="46.06748" lon="4.73509">
        <ele>180</ele>
        <time>2016-10-08T10:25:45Z</time>
      </trkpt>
      <trkpt lat="46.06744" lon="4.73504">
        <ele>179</ele>
        <time>2016-10-08T10:25:46Z</time>
      </trkpt>
      <trkpt lat="46.06739" lon="4.735">
        <ele>179</ele>
        <time>2016-10-08T10:25:47Z</time>
      </trkpt>
      <trkpt lat="46.06735" lon="4.73495">
        <ele>180</ele>
        <time>2016-10-08T10:25:48Z</time>
      </trkpt>
      <trkpt lat="46.06731" lon="4.73491">
        <ele>180</ele>
        <time>2016-10-08T10:25:49Z</time>
      </trkpt>
      <trkpt lat="46.06726" lon="4.73486">
        <ele>180</ele>
        <time>2016-10-08T10:25:50Z</time>
      </trkpt>
      <trkpt lat="46.06721" lon="4.73481">
        <ele>180</ele>
        <time>2016-10-08T10:25:51Z</time>
      </trkpt>
      <trkpt lat="46.06718" lon="4.73475">
        <ele>180</ele>
        <time>2016-10-08T10:25:52Z</time>
      </trkpt>
      <trkpt lat="46.06714" lon="4.7347">
        <ele>180</ele>
        <time>2016-10-08T10:25:53Z</time>
      </trkpt>
      <trkpt lat="46.06709" lon="4.73465">
        <ele>180</ele>
        <time>2016-10-08T10:25:54Z</time>
      </trkpt>
      <trkpt lat="46.06705" lon="4.7346">
        <ele>180</ele>
        <time>2016-10-08T10:25:55Z</time>
      </trkpt>
      <trkpt lat="46.06701" lon="4.73454">
        <ele>180</ele>
        <time>2016-10-08T10:25:56Z</time>
      </trkpt>
      <trkpt lat="46.06698" lon="4.73448">
        <ele>180</ele>
        <time>2016-10-08T10:25:57Z</time>
      </trkpt>
      <trkpt lat="46.06695" lon="4.73442">
        <ele>181</ele>
        <time>2016-10-08T10:25:58Z</time>
      </trkpt>
      <trkpt lat="46.06691" lon="4.73437">
        <ele>181</ele>
        <time>2016-10-08T10:25:59Z</time>
      </trkpt>
      <trkpt lat="46.06687" lon="4.73431">
        <ele>181</ele>
        <time>2016-10-08T10:26:00Z</time>
      </trkpt>
      <trkpt lat="46.06683" lon="4.73426">
        <ele>181</ele>
        <time>2016-10-08T10:26:01Z</time>
      </trkpt>
      <trkpt lat="46.06677" lon="4.7342">
        <ele>181</ele>
        <time>2016-10-08T10:26:02Z</time>
      </trkpt>
      <trkpt lat="46.06671" lon="4.73417">
        <ele>182</ele>
        <time>2016-10-08T10:26:03Z</time>
      </trkpt>
      <trkpt lat="46.06666" lon="4.73416">
        <ele>182</ele>
        <time>2016-10-08T10:26:04Z</time>
      </trkpt>
      <trkpt lat="46.06664" lon="4.73406">
        <ele>182</ele>
        <time>2016-10-08T10:26:05Z</time>
      </trkpt>
      <trkpt lat="46.06661" lon="4.73399">
        <ele>182</ele>
        <time>2016-10-08T10:26:06Z</time>
      </trkpt>
      <trkpt lat="46.06657" lon="4.73392">
        <ele>182</ele>
        <time>2016-10-08T10:26:07Z</time>
      </trkpt>
      <trkpt lat="46.06654" lon="4.73386">
        <ele>182</ele>
        <time>2016-10-08T10:26:08Z</time>
      </trkpt>
      <trkpt lat="46.0665" lon="4.73381">
        <ele>182</ele>
        <time>2016-10-08T10:26:09Z</time>
      </trkpt>
      <trkpt lat="46.06646" lon="4.73375">
        <ele>182</ele>
        <time>2016-10-08T10:26:10Z</time>
      </trkpt>
      <trkpt lat="46.06642" lon="4.7337">
        <ele>182</ele>
        <time>2016-10-08T10:26:11Z</time>
      </trkpt>
      <trkpt lat="46.06639" lon="4.73366">
        <ele>182</ele>
        <time>2016-10-08T10:26:12Z</time>
      </trkpt>
      <trkpt lat="46.06632" lon="4.7336">
        <ele>182</ele>
        <time>2016-10-08T10:26:14Z</time>
      </trkpt>
      <trkpt lat="46.0663" lon="4.73356">
        <ele>182</ele>
        <time>2016-10-08T10:26:15Z</time>
      </trkpt>
      <trkpt lat="46.06625" lon="4.73352">
        <ele>182</ele>
        <time>2016-10-08T10:26:16Z</time>
      </trkpt>
      <trkpt lat="46.06621" lon="4.73349">
        <ele>182</ele>
        <time>2016-10-08T10:26:17Z</time>
      </trkpt>
      <trkpt lat="46.06617" lon="4.73347">
        <ele>182</ele>
        <time>2016-10-08T10:26:18Z</time>
      </trkpt>
      <trkpt lat="46.06612" lon="4.73345">
        <ele>182</ele>
        <time>2016-10-08T10:26:19Z</time>
      </trkpt>
      <trkpt lat="46.06609" lon="4.73341">
        <ele>182</ele>
        <time>2016-10-08T10:26:20Z</time>
      </trkpt>
      <trkpt lat="46.06606" lon="4.73336">
        <ele>182</ele>
        <time>2016-10-08T10:26:21Z</time>
      </trkpt>
      <trkpt lat="46.06603" lon="4.7333">
        <ele>182</ele>
        <time>2016-10-08T10:26:22Z</time>
      </trkpt>
      <trkpt lat="46.06601" lon="4.73324">
        <ele>182</ele>
        <time>2016-10-08T10:26:23Z</time>
      </trkpt>
      <trkpt lat="46.06595" lon="4.73314">
        <ele>182</ele>
        <time>2016-10-08T10:26:25Z</time>
      </trkpt>
      <trkpt lat="46.06591" lon="4.7331">
        <ele>182</ele>
        <time>2016-10-08T10:26:26Z</time>
      </trkpt>
      <trkpt lat="46.06588" lon="4.73304">
        <ele>183</ele>
        <time>2016-10-08T10:26:27Z</time>
      </trkpt>
      <trkpt lat="46.06585" lon="4.73299">
        <ele>183</ele>
        <time>2016-10-08T10:26:28Z</time>
      </trkpt>
      <trkpt lat="46.06582" lon="4.73293">
        <ele>184</ele>
        <time>2016-10-08T10:26:29Z</time>
      </trkpt>
      <trkpt lat="46.0658" lon="4.73286">
        <ele>184</ele>
        <time>2016-10-08T10:26:30Z</time>
      </trkpt>
      <trkpt lat="46.06578" lon="4.7328">
        <ele>184</ele>
        <time>2016-10-08T10:26:31Z</time>
      </trkpt>
      <trkpt lat="46.06576" lon="4.73273">
        <ele>184</ele>
        <time>2016-10-08T10:26:32Z</time>
      </trkpt>
      <trkpt lat="46.06574" lon="4.73268">
        <ele>184</ele>
        <time>2016-10-08T10:26:33Z</time>
      </trkpt>
      <trkpt lat="46.06571" lon="4.73262">
        <ele>184</ele>
        <time>2016-10-08T10:26:34Z</time>
      </trkpt>
      <trkpt lat="46.06569" lon="4.73256">
        <ele>184</ele>
        <time>2016-10-08T10:26:35Z</time>
      </trkpt>
      <trkpt lat="46.06567" lon="4.7325">
        <ele>186</ele>
        <time>2016-10-08T10:26:36Z</time>
      </trkpt>
      <trkpt lat="46.06563" lon="4.73239">
        <ele>186</ele>
        <time>2016-10-08T10:26:38Z</time>
      </trkpt>
      <trkpt lat="46.06561" lon="4.73233">
        <ele>186</ele>
        <time>2016-10-08T10:26:39Z</time>
      </trkpt>
      <trkpt lat="46.06559" lon="4.73227">
        <ele>186</ele>
        <time>2016-10-08T10:26:40Z</time>
      </trkpt>
      <trkpt lat="46.06557" lon="4.7322">
        <ele>186</ele>
        <time>2016-10-08T10:26:41Z</time>
      </trkpt>
      <trkpt lat="46.06556" lon="4.73214">
        <ele>186</ele>
        <time>2016-10-08T10:26:42Z</time>
      </trkpt>
      <trkpt lat="46.06554" lon="4.73208">
        <ele>186</ele>
        <time>2016-10-08T10:26:43Z</time>
      </trkpt>
      <trkpt lat="46.06553" lon="4.73201">
        <ele>186</ele>
        <time>2016-10-08T10:26:44Z</time>
      </trkpt>
      <trkpt lat="46.06552" lon="4.73195">
        <ele>187</ele>
        <time>2016-10-08T10:26:45Z</time>
      </trkpt>
      <trkpt lat="46.06552" lon="4.73188">
        <ele>187</ele>
        <time>2016-10-08T10:26:46Z</time>
      </trkpt>
      <trkpt lat="46.06552" lon="4.73181">
        <ele>187</ele>
        <time>2016-10-08T10:26:47Z</time>
      </trkpt>
      <trkpt lat="46.06551" lon="4.73174">
        <ele>187</ele>
        <time>2016-10-08T10:26:48Z</time>
      </trkpt>
      <trkpt lat="46.06551" lon="4.73167">
        <ele>187</ele>
        <time>2016-10-08T10:26:49Z</time>
      </trkpt>
      <trkpt lat="46.0655" lon="4.73154">
        <ele>187</ele>
        <time>2016-10-08T10:26:51Z</time>
      </trkpt>
      <trkpt lat="46.06549" lon="4.73147">
        <ele>187</ele>
        <time>2016-10-08T10:26:52Z</time>
      </trkpt>
      <trkpt lat="46.06548" lon="4.7314">
        <ele>187</ele>
        <time>2016-10-08T10:26:53Z</time>
      </trkpt>
      <trkpt lat="46.06546" lon="4.73133">
        <ele>187</ele>
        <time>2016-10-08T10:26:54Z</time>
      </trkpt>
      <trkpt lat="46.06544" lon="4.73125">
        <ele>187</ele>
        <time>2016-10-08T10:26:55Z</time>
      </trkpt>
      <trkpt lat="46.06542" lon="4.73118">
        <ele>188</ele>
        <time>2016-10-08T10:26:56Z</time>
      </trkpt>
      <trkpt lat="46.06539" lon="4.7311">
        <ele>188</ele>
        <time>2016-10-08T10:26:57Z</time>
      </trkpt>
      <trkpt lat="46.06538" lon="4.73103">
        <ele>188</ele>
        <time>2016-10-08T10:26:58Z</time>
      </trkpt>
      <trkpt lat="46.06536" lon="4.73097">
        <ele>188</ele>
        <time>2016-10-08T10:26:59Z</time>
      </trkpt>
      <trkpt lat="46.06534" lon="4.73091">
        <ele>188</ele>
        <time>2016-10-08T10:27:00Z</time>
      </trkpt>
      <trkpt lat="46.06531" lon="4.73085">
        <ele>188</ele>
        <time>2016-10-08T10:27:01Z</time>
      </trkpt>
      <trkpt lat="46.06529" lon="4.73079">
        <ele>188</ele>
        <time>2016-10-08T10:27:02Z</time>
      </trkpt>
      <trkpt lat="46.06527" lon="4.73073">
        <ele>188</ele>
        <time>2016-10-08T10:27:03Z</time>
      </trkpt>
      <trkpt lat="46.06525" lon="4.73067">
        <ele>188</ele>
        <time>2016-10-08T10:27:04Z</time>
      </trkpt>
      <trkpt lat="46.06521" lon="4.73056">
        <ele>188</ele>
        <time>2016-10-08T10:27:06Z</time>
      </trkpt>
      <trkpt lat="46.06519" lon="4.7305">
        <ele>188</ele>
        <time>2016-10-08T10:27:07Z</time>
      </trkpt>
      <trkpt lat="46.06513" lon="4.7304">
        <ele>188</ele>
        <time>2016-10-08T10:27:09Z</time>
      </trkpt>
      <trkpt lat="46.06511" lon="4.73034">
        <ele>189</ele>
        <time>2016-10-08T10:27:10Z</time>
      </trkpt>
      <trkpt lat="46.06507" lon="4.73024">
        <ele>189</ele>
        <time>2016-10-08T10:27:12Z</time>
      </trkpt>
      <trkpt lat="46.06505" lon="4.7302">
        <ele>189</ele>
        <time>2016-10-08T10:27:13Z</time>
      </trkpt>
      <trkpt lat="46.06501" lon="4.73009">
        <ele>189</ele>
        <time>2016-10-08T10:27:15Z</time>
      </trkpt>
      <trkpt lat="46.06498" lon="4.73004">
        <ele>189</ele>
        <time>2016-10-08T10:27:16Z</time>
      </trkpt>
      <trkpt lat="46.06494" lon="4.72993">
        <ele>189</ele>
        <time>2016-10-08T10:27:18Z</time>
      </trkpt>
      <trkpt lat="46.06493" lon="4.72987">
        <ele>189</ele>
        <time>2016-10-08T10:27:19Z</time>
      </trkpt>
      <trkpt lat="46.06491" lon="4.72974">
        <ele>189</ele>
        <time>2016-10-08T10:27:21Z</time>
      </trkpt>
      <trkpt lat="46.06491" lon="4.72968">
        <ele>189</ele>
        <time>2016-10-08T10:27:22Z</time>
      </trkpt>
      <trkpt lat="46.0649" lon="4.72962">
        <ele>189</ele>
        <time>2016-10-08T10:27:23Z</time>
      </trkpt>
      <trkpt lat="46.06489" lon="4.72955">
        <ele>188</ele>
        <time>2016-10-08T10:27:24Z</time>
      </trkpt>
      <trkpt lat="46.06487" lon="4.72948">
        <ele>188</ele>
        <time>2016-10-08T10:27:25Z</time>
      </trkpt>
      <trkpt lat="46.06486" lon="4.7294">
        <ele>189</ele>
        <time>2016-10-08T10:27:26Z</time>
      </trkpt>
      <trkpt lat="46.06485" lon="4.72932">
        <ele>189</ele>
        <time>2016-10-08T10:27:27Z</time>
      </trkpt>
      <trkpt lat="46.06484" lon="4.72925">
        <ele>189</ele>
        <time>2016-10-08T10:27:28Z</time>
      </trkpt>
      <trkpt lat="46.06483" lon="4.72916">
        <ele>189</ele>
        <time>2016-10-08T10:27:29Z</time>
      </trkpt>
      <trkpt lat="46.06482" lon="4.72908">
        <ele>189</ele>
        <time>2016-10-08T10:27:30Z</time>
      </trkpt>
      <trkpt lat="46.0648" lon="4.72901">
        <ele>188</ele>
        <time>2016-10-08T10:27:31Z</time>
      </trkpt>
      <trkpt lat="46.06478" lon="4.72894">
        <ele>188</ele>
        <time>2016-10-08T10:27:32Z</time>
      </trkpt>
      <trkpt lat="46.06475" lon="4.72882">
        <ele>188</ele>
        <time>2016-10-08T10:27:34Z</time>
      </trkpt>
      <trkpt lat="46.06473" lon="4.72875">
        <ele>188</ele>
        <time>2016-10-08T10:27:35Z</time>
      </trkpt>
      <trkpt lat="46.06471" lon="4.72869">
        <ele>188</ele>
        <time>2016-10-08T10:27:36Z</time>
      </trkpt>
      <trkpt lat="46.06469" lon="4.72862">
        <ele>188</ele>
        <time>2016-10-08T10:27:37Z</time>
      </trkpt>
      <trkpt lat="46.06469" lon="4.72855">
        <ele>188</ele>
        <time>2016-10-08T10:27:38Z</time>
      </trkpt>
      <trkpt lat="46.06468" lon="4.72848">
        <ele>188</ele>
        <time>2016-10-08T10:27:39Z</time>
      </trkpt>
      <trkpt lat="46.06467" lon="4.7284">
        <ele>188</ele>
        <time>2016-10-08T10:27:40Z</time>
      </trkpt>
      <trkpt lat="46.06466" lon="4.72831">
        <ele>188</ele>
        <time>2016-10-08T10:27:41Z</time>
      </trkpt>
      <trkpt lat="46.06465" lon="4.72823">
        <ele>188</ele>
        <time>2016-10-08T10:27:42Z</time>
      </trkpt>
      <trkpt lat="46.06465" lon="4.72815">
        <ele>188</ele>
        <time>2016-10-08T10:27:43Z</time>
      </trkpt>
      <trkpt lat="46.06464" lon="4.72807">
        <ele>188</ele>
        <time>2016-10-08T10:27:44Z</time>
      </trkpt>
      <trkpt lat="46.06463" lon="4.728">
        <ele>188</ele>
        <time>2016-10-08T10:27:45Z</time>
      </trkpt>
      <trkpt lat="46.06461" lon="4.72793">
        <ele>188</ele>
        <time>2016-10-08T10:27:46Z</time>
      </trkpt>
      <trkpt lat="46.06459" lon="4.72787">
        <ele>188</ele>
        <time>2016-10-08T10:27:47Z</time>
      </trkpt>
      <trkpt lat="46.06458" lon="4.72781">
        <ele>188</ele>
        <time>2016-10-08T10:27:48Z</time>
      </trkpt>
      <trkpt lat="46.06456" lon="4.72774">
        <ele>188</ele>
        <time>2016-10-08T10:27:49Z</time>
      </trkpt>
      <trkpt lat="46.06455" lon="4.72767">
        <ele>188</ele>
        <time>2016-10-08T10:27:50Z</time>
      </trkpt>
      <trkpt lat="46.06453" lon="4.72761">
        <ele>188</ele>
        <time>2016-10-08T10:27:51Z</time>
      </trkpt>
      <trkpt lat="46.06452" lon="4.72754">
        <ele>188</ele>
        <time>2016-10-08T10:27:52Z</time>
      </trkpt>
      <trkpt lat="46.06451" lon="4.72748">
        <ele>189</ele>
        <time>2016-10-08T10:27:53Z</time>
      </trkpt>
      <trkpt lat="46.06449" lon="4.72742">
        <ele>189</ele>
        <time>2016-10-08T10:27:54Z</time>
      </trkpt>
      <trkpt lat="46.06448" lon="4.72735">
        <ele>189</ele>
        <time>2016-10-08T10:27:55Z</time>
      </trkpt>
      <trkpt lat="46.06446" lon="4.72723">
        <ele>190</ele>
        <time>2016-10-08T10:27:57Z</time>
      </trkpt>
      <trkpt lat="46.06445" lon="4.72716">
        <ele>190</ele>
        <time>2016-10-08T10:27:58Z</time>
      </trkpt>
      <trkpt lat="46.06444" lon="4.72708">
        <ele>190</ele>
        <time>2016-10-08T10:27:59Z</time>
      </trkpt>
      <trkpt lat="46.06442" lon="4.72702">
        <ele>190</ele>
        <time>2016-10-08T10:28:00Z</time>
      </trkpt>
      <trkpt lat="46.06441" lon="4.72695">
        <ele>190</ele>
        <time>2016-10-08T10:28:01Z</time>
      </trkpt>
      <trkpt lat="46.06439" lon="4.72689">
        <ele>190</ele>
        <time>2016-10-08T10:28:02Z</time>
      </trkpt>
      <trkpt lat="46.06438" lon="4.72683">
        <ele>191</ele>
        <time>2016-10-08T10:28:03Z</time>
      </trkpt>
      <trkpt lat="46.06437" lon="4.72677">
        <ele>191</ele>
        <time>2016-10-08T10:28:04Z</time>
      </trkpt>
      <trkpt lat="46.06435" lon="4.72665">
        <ele>192</ele>
        <time>2016-10-08T10:28:06Z</time>
      </trkpt>
      <trkpt lat="46.06433" lon="4.72659">
        <ele>192</ele>
        <time>2016-10-08T10:28:07Z</time>
      </trkpt>
      <trkpt lat="46.06431" lon="4.72648">
        <ele>192</ele>
        <time>2016-10-08T10:28:09Z</time>
      </trkpt>
      <trkpt lat="46.0643" lon="4.72642">
        <ele>192</ele>
        <time>2016-10-08T10:28:10Z</time>
      </trkpt>
      <trkpt lat="46.06427" lon="4.72632">
        <ele>193</ele>
        <time>2016-10-08T10:28:12Z</time>
      </trkpt>
      <trkpt lat="46.06424" lon="4.7263">
        <ele>193</ele>
        <time>2016-10-08T10:28:13Z</time>
      </trkpt>
      <trkpt lat="46.06423" lon="4.72621">
        <ele>193</ele>
        <time>2016-10-08T10:28:15Z</time>
      </trkpt>
      <trkpt lat="46.06422" lon="4.72616">
        <ele>193</ele>
        <time>2016-10-08T10:28:16Z</time>
      </trkpt>
      <trkpt lat="46.0642" lon="4.72605">
        <ele>193</ele>
        <time>2016-10-08T10:28:18Z</time>
      </trkpt>
      <trkpt lat="46.06419" lon="4.726">
        <ele>194</ele>
        <time>2016-10-08T10:28:19Z</time>
      </trkpt>
      <trkpt lat="46.06417" lon="4.7259">
        <ele>195</ele>
        <time>2016-10-08T10:28:21Z</time>
      </trkpt>
      <trkpt lat="46.06416" lon="4.72584">
        <ele>195</ele>
        <time>2016-10-08T10:28:22Z</time>
      </trkpt>
      <trkpt lat="46.06414" lon="4.72572">
        <ele>195</ele>
        <time>2016-10-08T10:28:24Z</time>
      </trkpt>
      <trkpt lat="46.06414" lon="4.72565">
        <ele>196</ele>
        <time>2016-10-08T10:28:25Z</time>
      </trkpt>
      <trkpt lat="46.06412" lon="4.72554">
        <ele>196</ele>
        <time>2016-10-08T10:28:27Z</time>
      </trkpt>
      <trkpt lat="46.06411" lon="4.72547">
        <ele>196</ele>
        <time>2016-10-08T10:28:28Z</time>
      </trkpt>
      <trkpt lat="46.06407" lon="4.72537">
        <ele>197</ele>
        <time>2016-10-08T10:28:30Z</time>
      </trkpt>
      <trkpt lat="46.06406" lon="4.72532">
        <ele>197</ele>
        <time>2016-10-08T10:28:31Z</time>
      </trkpt>
      <trkpt lat="46.06406" lon="4.72527">
        <ele>197</ele>
        <time>2016-10-08T10:28:32Z</time>
      </trkpt>
      <trkpt lat="46.06405" lon="4.72519">
        <ele>198</ele>
        <time>2016-10-08T10:28:33Z</time>
      </trkpt>
      <trkpt lat="46.06404" lon="4.72507">
        <ele>198</ele>
        <time>2016-10-08T10:28:35Z</time>
      </trkpt>
      <trkpt lat="46.06403" lon="4.72501">
        <ele>198</ele>
        <time>2016-10-08T10:28:36Z</time>
      </trkpt>
      <trkpt lat="46.06402" lon="4.7249">
        <ele>198</ele>
        <time>2016-10-08T10:28:38Z</time>
      </trkpt>
      <trkpt lat="46.06401" lon="4.72484">
        <ele>198</ele>
        <time>2016-10-08T10:28:39Z</time>
      </trkpt>
      <trkpt lat="46.06397" lon="4.72475">
        <ele>198</ele>
        <time>2016-10-08T10:28:41Z</time>
      </trkpt>
      <trkpt lat="46.06395" lon="4.7247">
        <ele>197</ele>
        <time>2016-10-08T10:28:42Z</time>
      </trkpt>
      <trkpt lat="46.0639" lon="4.72465">
        <ele>197</ele>
        <time>2016-10-08T10:28:44Z</time>
      </trkpt>
      <trkpt lat="46.06387" lon="4.7246">
        <ele>197</ele>
        <time>2016-10-08T10:28:45Z</time>
      </trkpt>
      <trkpt lat="46.06381" lon="4.72452">
        <ele>197</ele>
        <time>2016-10-08T10:28:47Z</time>
      </trkpt>
      <trkpt lat="46.06378" lon="4.72446">
        <ele>197</ele>
        <time>2016-10-08T10:28:48Z</time>
      </trkpt>
      <trkpt lat="46.06375" lon="4.7244">
        <ele>197</ele>
        <time>2016-10-08T10:28:49Z</time>
      </trkpt>
      <trkpt lat="46.06372" lon="4.72435">
        <ele>197</ele>
        <time>2016-10-08T10:28:50Z</time>
      </trkpt>
      <trkpt lat="46.06372" lon="4.72427">
        <ele>197</ele>
        <time>2016-10-08T10:28:52Z</time>
      </trkpt>
      <trkpt lat="46.06374" lon="4.7242">
        <ele>197</ele>
        <time>2016-10-08T10:28:53Z</time>
      </trkpt>
      <trkpt lat="46.06372" lon="4.72408">
        <ele>196</ele>
        <time>2016-10-08T10:28:55Z</time>
      </trkpt>
      <trkpt lat="46.0637" lon="4.72402">
        <ele>196</ele>
        <time>2016-10-08T10:28:56Z</time>
      </trkpt>
      <trkpt lat="46.06369" lon="4.72391">
        <ele>196</ele>
        <time>2016-10-08T10:28:58Z</time>
      </trkpt>
      <trkpt lat="46.0637" lon="4.72385">
        <ele>196</ele>
        <time>2016-10-08T10:28:59Z</time>
      </trkpt>
      <trkpt lat="46.06372" lon="4.72374">
        <ele>196</ele>
        <time>2016-10-08T10:29:01Z</time>
      </trkpt>
      <trkpt lat="46.06373" lon="4.72369">
        <ele>195</ele>
        <time>2016-10-08T10:29:02Z</time>
      </trkpt>
      <trkpt lat="46.06373" lon="4.72361">
        <ele>195</ele>
        <time>2016-10-08T10:29:03Z</time>
      </trkpt>
      <trkpt lat="46.06374" lon="4.72354">
        <ele>195</ele>
        <time>2016-10-08T10:29:04Z</time>
      </trkpt>
      <trkpt lat="46.06375" lon="4.72346">
        <ele>195</ele>
        <time>2016-10-08T10:29:05Z</time>
      </trkpt>
      <trkpt lat="46.06376" lon="4.72338">
        <ele>195</ele>
        <time>2016-10-08T10:29:06Z</time>
      </trkpt>
      <trkpt lat="46.06377" lon="4.7233">
        <ele>193</ele>
        <time>2016-10-08T10:29:07Z</time>
      </trkpt>
      <trkpt lat="46.06378" lon="4.72323">
        <ele>193</ele>
        <time>2016-10-08T10:29:08Z</time>
      </trkpt>
      <trkpt lat="46.0638" lon="4.72316">
        <ele>193</ele>
        <time>2016-10-08T10:29:09Z</time>
      </trkpt>
      <trkpt lat="46.06382" lon="4.72311">
        <ele>193</ele>
        <time>2016-10-08T10:29:10Z</time>
      </trkpt>
      <trkpt lat="46.06384" lon="4.72301">
        <ele>193</ele>
        <time>2016-10-08T10:29:12Z</time>
      </trkpt>
      <trkpt lat="46.06383" lon="4.72296">
        <ele>193</ele>
        <time>2016-10-08T10:29:13Z</time>
      </trkpt>
      <trkpt lat="46.0639" lon="4.72288">
        <ele>193</ele>
        <time>2016-10-08T10:29:18Z</time>
      </trkpt>
      <trkpt lat="46.06393" lon="4.72288">
        <ele>192</ele>
        <time>2016-10-08T10:29:19Z</time>
      </trkpt>
      <trkpt lat="46.064" lon="4.72284">
        <ele>192</ele>
        <time>2016-10-08T10:29:21Z</time>
      </trkpt>
      <trkpt lat="46.06405" lon="4.72284">
        <ele>192</ele>
        <time>2016-10-08T10:29:22Z</time>
      </trkpt>
      <trkpt lat="46.06413" lon="4.72285">
        <ele>192</ele>
        <time>2016-10-08T10:29:25Z</time>
      </trkpt>
      <trkpt lat="46.06416" lon="4.72285">
        <ele>192</ele>
        <time>2016-10-08T10:29:26Z</time>
      </trkpt>
      <trkpt lat="46.06423" lon="4.72286">
        <ele>190</ele>
        <time>2016-10-08T10:29:28Z</time>
      </trkpt>
      <trkpt lat="46.06427" lon="4.72285">
        <ele>190</ele>
        <time>2016-10-08T10:29:29Z</time>
      </trkpt>
      <trkpt lat="46.06433" lon="4.72278">
        <ele>190</ele>
        <time>2016-10-08T10:29:31Z</time>
      </trkpt>
      <trkpt lat="46.06435" lon="4.72273">
        <ele>190</ele>
        <time>2016-10-08T10:29:32Z</time>
      </trkpt>
      <trkpt lat="46.0643" lon="4.72262">
        <ele>189</ele>
        <time>2016-10-08T10:29:34Z</time>
      </trkpt>
      <trkpt lat="46.06427" lon="4.72257">
        <ele>189</ele>
        <time>2016-10-08T10:29:35Z</time>
      </trkpt>
      <trkpt lat="46.06422" lon="4.72252">
        <ele>189</ele>
        <time>2016-10-08T10:29:36Z</time>
      </trkpt>
      <trkpt lat="46.06418" lon="4.72247">
        <ele>189</ele>
        <time>2016-10-08T10:29:37Z</time>
      </trkpt>
      <trkpt lat="46.06415" lon="4.72241">
        <ele>189</ele>
        <time>2016-10-08T10:29:38Z</time>
      </trkpt>
      <trkpt lat="46.06412" lon="4.72235">
        <ele>190</ele>
        <time>2016-10-08T10:29:39Z</time>
      </trkpt>
      <trkpt lat="46.0641" lon="4.72228">
        <ele>190</ele>
        <time>2016-10-08T10:29:40Z</time>
      </trkpt>
      <trkpt lat="46.06408" lon="4.72221">
        <ele>190</ele>
        <time>2016-10-08T10:29:41Z</time>
      </trkpt>
      <trkpt lat="46.06405" lon="4.72213">
        <ele>190</ele>
        <time>2016-10-08T10:29:42Z</time>
      </trkpt>
      <trkpt lat="46.06402" lon="4.72206">
        <ele>190</ele>
        <time>2016-10-08T10:29:43Z</time>
      </trkpt>
      <trkpt lat="46.06399" lon="4.72197">
        <ele>189</ele>
        <time>2016-10-08T10:29:44Z</time>
      </trkpt>
      <trkpt lat="46.06397" lon="4.72189">
        <ele>189</ele>
        <time>2016-10-08T10:29:45Z</time>
      </trkpt>
      <trkpt lat="46.06394" lon="4.72179">
        <ele>189</ele>
        <time>2016-10-08T10:29:46Z</time>
      </trkpt>
      <trkpt lat="46.06391" lon="4.72169">
        <ele>189</ele>
        <time>2016-10-08T10:29:47Z</time>
      </trkpt>
      <trkpt lat="46.06388" lon="4.7216">
        <ele>188</ele>
        <time>2016-10-08T10:29:48Z</time>
      </trkpt>
      <trkpt lat="46.06384" lon="4.72151">
        <ele>189</ele>
        <time>2016-10-08T10:29:49Z</time>
      </trkpt>
      <trkpt lat="46.06382" lon="4.72142">
        <ele>189</ele>
        <time>2016-10-08T10:29:50Z</time>
      </trkpt>
      <trkpt lat="46.06379" lon="4.72133">
        <ele>189</ele>
        <time>2016-10-08T10:29:51Z</time>
      </trkpt>
      <trkpt lat="46.06377" lon="4.72124">
        <ele>189</ele>
        <time>2016-10-08T10:29:52Z</time>
      </trkpt>
      <trkpt lat="46.06374" lon="4.72116">
        <ele>189</ele>
        <time>2016-10-08T10:29:53Z</time>
      </trkpt>
      <trkpt lat="46.06371" lon="4.72108">
        <ele>189</ele>
        <time>2016-10-08T10:29:54Z</time>
      </trkpt>
      <trkpt lat="46.06368" lon="4.721">
        <ele>189</ele>
        <time>2016-10-08T10:29:55Z</time>
      </trkpt>
      <trkpt lat="46.06365" lon="4.72092">
        <ele>189</ele>
        <time>2016-10-08T10:29:56Z</time>
      </trkpt>
      <trkpt lat="46.06362" lon="4.72085">
        <ele>189</ele>
        <time>2016-10-08T10:29:57Z</time>
      </trkpt>
      <trkpt lat="46.0636" lon="4.72077">
        <ele>189</ele>
        <time>2016-10-08T10:29:58Z</time>
      </trkpt>
      <trkpt lat="46.06357" lon="4.7207">
        <ele>189</ele>
        <time>2016-10-08T10:29:59Z</time>
      </trkpt>
      <trkpt lat="46.06355" lon="4.72062">
        <ele>189</ele>
        <time>2016-10-08T10:30:00Z</time>
      </trkpt>
      <trkpt lat="46.06352" lon="4.72055">
        <ele>189</ele>
        <time>2016-10-08T10:30:01Z</time>
      </trkpt>
      <trkpt lat="46.06349" lon="4.72047">
        <ele>189</ele>
        <time>2016-10-08T10:30:02Z</time>
      </trkpt>
      <trkpt lat="46.06346" lon="4.7204">
        <ele>189</ele>
        <time>2016-10-08T10:30:03Z</time>
      </trkpt>
      <trkpt lat="46.06343" lon="4.72034">
        <ele>189</ele>
        <time>2016-10-08T10:30:04Z</time>
      </trkpt>
      <trkpt lat="46.06341" lon="4.72027">
        <ele>189</ele>
        <time>2016-10-08T10:30:05Z</time>
      </trkpt>
      <trkpt lat="46.06338" lon="4.7202">
        <ele>189</ele>
        <time>2016-10-08T10:30:06Z</time>
      </trkpt>
      <trkpt lat="46.06335" lon="4.72012">
        <ele>189</ele>
        <time>2016-10-08T10:30:07Z</time>
      </trkpt>
      <trkpt lat="46.06332" lon="4.72006">
        <ele>189</ele>
        <time>2016-10-08T10:30:08Z</time>
      </trkpt>
      <trkpt lat="46.0633" lon="4.71999">
        <ele>189</ele>
        <time>2016-10-08T10:30:09Z</time>
      </trkpt>
      <trkpt lat="46.06327" lon="4.71993">
        <ele>189</ele>
        <time>2016-10-08T10:30:10Z</time>
      </trkpt>
      <trkpt lat="46.06326" lon="4.71987">
        <ele>190</ele>
        <time>2016-10-08T10:30:11Z</time>
      </trkpt>
      <trkpt lat="46.06324" lon="4.71981">
        <ele>190</ele>
        <time>2016-10-08T10:30:12Z</time>
      </trkpt>
      <trkpt lat="46.06322" lon="4.71973">
        <ele>190</ele>
        <time>2016-10-08T10:30:13Z</time>
      </trkpt>
      <trkpt lat="46.06321" lon="4.71966">
        <ele>190</ele>
        <time>2016-10-08T10:30:14Z</time>
      </trkpt>
      <trkpt lat="46.06319" lon="4.7196">
        <ele>190</ele>
        <time>2016-10-08T10:30:15Z</time>
      </trkpt>
      <trkpt lat="46.06315" lon="4.71956">
        <ele>190</ele>
        <time>2016-10-08T10:30:16Z</time>
      </trkpt>
      <trkpt lat="46.06312" lon="4.71951">
        <ele>190</ele>
        <time>2016-10-08T10:30:17Z</time>
      </trkpt>
      <trkpt lat="46.0631" lon="4.71943">
        <ele>190</ele>
        <time>2016-10-08T10:30:18Z</time>
      </trkpt>
      <trkpt lat="46.06308" lon="4.71936">
        <ele>190</ele>
        <time>2016-10-08T10:30:19Z</time>
      </trkpt>
      <trkpt lat="46.06306" lon="4.71928">
        <ele>190</ele>
        <time>2016-10-08T10:30:20Z</time>
      </trkpt>
      <trkpt lat="46.06304" lon="4.7192">
        <ele>190</ele>
        <time>2016-10-08T10:30:21Z</time>
      </trkpt>
      <trkpt lat="46.06298" lon="4.71911">
        <ele>190</ele>
        <time>2016-10-08T10:30:23Z</time>
      </trkpt>
      <trkpt lat="46.06296" lon="4.71904">
        <ele>190</ele>
        <time>2016-10-08T10:30:24Z</time>
      </trkpt>
      <trkpt lat="46.06294" lon="4.71897">
        <ele>190</ele>
        <time>2016-10-08T10:30:25Z</time>
      </trkpt>
      <trkpt lat="46.06292" lon="4.7189">
        <ele>190</ele>
        <time>2016-10-08T10:30:26Z</time>
      </trkpt>
      <trkpt lat="46.0629" lon="4.71884">
        <ele>190</ele>
        <time>2016-10-08T10:30:27Z</time>
      </trkpt>
      <trkpt lat="46.06289" lon="4.71877">
        <ele>190</ele>
        <time>2016-10-08T10:30:28Z</time>
      </trkpt>
      <trkpt lat="46.06287" lon="4.7187">
        <ele>190</ele>
        <time>2016-10-08T10:30:29Z</time>
      </trkpt>
      <trkpt lat="46.06286" lon="4.71862">
        <ele>190</ele>
        <time>2016-10-08T10:30:30Z</time>
      </trkpt>
      <trkpt lat="46.06284" lon="4.71855">
        <ele>189</ele>
        <time>2016-10-08T10:30:31Z</time>
      </trkpt>
      <trkpt lat="46.06282" lon="4.71848">
        <ele>189</ele>
        <time>2016-10-08T10:30:32Z</time>
      </trkpt>
      <trkpt lat="46.06283" lon="4.71839">
        <ele>189</ele>
        <time>2016-10-08T10:30:33Z</time>
      </trkpt>
      <trkpt lat="46.06282" lon="4.71831">
        <ele>189</ele>
        <time>2016-10-08T10:30:34Z</time>
      </trkpt>
      <trkpt lat="46.06284" lon="4.71819">
        <ele>189</ele>
        <time>2016-10-08T10:30:35Z</time>
      </trkpt>
      <trkpt lat="46.06282" lon="4.71811">
        <ele>190</ele>
        <time>2016-10-08T10:30:36Z</time>
      </trkpt>
      <trkpt lat="46.06281" lon="4.71804">
        <ele>190</ele>
        <time>2016-10-08T10:30:37Z</time>
      </trkpt>
      <trkpt lat="46.0628" lon="4.71797">
        <ele>190</ele>
        <time>2016-10-08T10:30:38Z</time>
      </trkpt>
      <trkpt lat="46.06279" lon="4.7179">
        <ele>190</ele>
        <time>2016-10-08T10:30:39Z</time>
      </trkpt>
      <trkpt lat="46.06278" lon="4.71783">
        <ele>190</ele>
        <time>2016-10-08T10:30:40Z</time>
      </trkpt>
      <trkpt lat="46.06277" lon="4.71776">
        <ele>190</ele>
        <time>2016-10-08T10:30:41Z</time>
      </trkpt>
      <trkpt lat="46.06275" lon="4.71771">
        <ele>190</ele>
        <time>2016-10-08T10:30:42Z</time>
      </trkpt>
      <trkpt lat="46.06273" lon="4.71765">
        <ele>190</ele>
        <time>2016-10-08T10:30:43Z</time>
      </trkpt>
      <trkpt lat="46.0627" lon="4.71759">
        <ele>190</ele>
        <time>2016-10-08T10:30:44Z</time>
      </trkpt>
      <trkpt lat="46.06268" lon="4.71753">
        <ele>190</ele>
        <time>2016-10-08T10:30:45Z</time>
      </trkpt>
      <trkpt lat="46.06266" lon="4.71745">
        <ele>190</ele>
        <time>2016-10-08T10:30:46Z</time>
      </trkpt>
      <trkpt lat="46.06265" lon="4.71736">
        <ele>190</ele>
        <time>2016-10-08T10:30:47Z</time>
      </trkpt>
      <trkpt lat="46.06263" lon="4.71728">
        <ele>190</ele>
        <time>2016-10-08T10:30:48Z</time>
      </trkpt>
      <trkpt lat="46.06262" lon="4.7172">
        <ele>190</ele>
        <time>2016-10-08T10:30:49Z</time>
      </trkpt>
      <trkpt lat="46.06259" lon="4.71712">
        <ele>190</ele>
        <time>2016-10-08T10:30:50Z</time>
      </trkpt>
      <trkpt lat="46.06256" lon="4.71704">
        <ele>190</ele>
        <time>2016-10-08T10:30:51Z</time>
      </trkpt>
      <trkpt lat="46.06253" lon="4.71697">
        <ele>190</ele>
        <time>2016-10-08T10:30:52Z</time>
      </trkpt>
      <trkpt lat="46.0625" lon="4.71689">
        <ele>191</ele>
        <time>2016-10-08T10:30:53Z</time>
      </trkpt>
      <trkpt lat="46.06246" lon="4.71682">
        <ele>191</ele>
        <time>2016-10-08T10:30:54Z</time>
      </trkpt>
      <trkpt lat="46.06243" lon="4.71674">
        <ele>191</ele>
        <time>2016-10-08T10:30:55Z</time>
      </trkpt>
      <trkpt lat="46.0624" lon="4.71667">
        <ele>191</ele>
        <time>2016-10-08T10:30:56Z</time>
      </trkpt>
      <trkpt lat="46.06238" lon="4.71661">
        <ele>190</ele>
        <time>2016-10-08T10:30:57Z</time>
      </trkpt>
      <trkpt lat="46.06235" lon="4.71655">
        <ele>191</ele>
        <time>2016-10-08T10:30:58Z</time>
      </trkpt>
      <trkpt lat="46.06232" lon="4.71649">
        <ele>191</ele>
        <time>2016-10-08T10:30:59Z</time>
      </trkpt>
      <trkpt lat="46.06229" lon="4.71642">
        <ele>191</ele>
        <time>2016-10-08T10:31:00Z</time>
      </trkpt>
      <trkpt lat="46.06226" lon="4.71637">
        <ele>191</ele>
        <time>2016-10-08T10:31:01Z</time>
      </trkpt>
      <trkpt lat="46.06222" lon="4.71631">
        <ele>191</ele>
        <time>2016-10-08T10:31:02Z</time>
      </trkpt>
      <trkpt lat="46.06218" lon="4.71625">
        <ele>191</ele>
        <time>2016-10-08T10:31:03Z</time>
      </trkpt>
      <trkpt lat="46.06214" lon="4.71617">
        <ele>191</ele>
        <time>2016-10-08T10:31:04Z</time>
      </trkpt>
      <trkpt lat="46.0621" lon="4.7161">
        <ele>191</ele>
        <time>2016-10-08T10:31:05Z</time>
      </trkpt>
      <trkpt lat="46.06207" lon="4.71604">
        <ele>191</ele>
        <time>2016-10-08T10:31:06Z</time>
      </trkpt>
      <trkpt lat="46.06202" lon="4.71599">
        <ele>191</ele>
        <time>2016-10-08T10:31:07Z</time>
      </trkpt>
      <trkpt lat="46.06199" lon="4.71593">
        <ele>191</ele>
        <time>2016-10-08T10:31:08Z</time>
      </trkpt>
      <trkpt lat="46.06193" lon="4.71584">
        <ele>191</ele>
        <time>2016-10-08T10:31:10Z</time>
      </trkpt>
      <trkpt lat="46.06189" lon="4.7158">
        <ele>191</ele>
        <time>2016-10-08T10:31:11Z</time>
      </trkpt>
      <trkpt lat="46.06186" lon="4.71575">
        <ele>191</ele>
        <time>2016-10-08T10:31:12Z</time>
      </trkpt>
      <trkpt lat="46.06183" lon="4.71571">
        <ele>191</ele>
        <time>2016-10-08T10:31:13Z</time>
      </trkpt>
      <trkpt lat="46.06176" lon="4.71563">
        <ele>191</ele>
        <time>2016-10-08T10:31:15Z</time>
      </trkpt>
      <trkpt lat="46.06173" lon="4.71559">
        <ele>191</ele>
        <time>2016-10-08T10:31:16Z</time>
      </trkpt>
      <trkpt lat="46.0617" lon="4.71554">
        <ele>191</ele>
        <time>2016-10-08T10:31:17Z</time>
      </trkpt>
      <trkpt lat="46.06166" lon="4.7155">
        <ele>192</ele>
        <time>2016-10-08T10:31:18Z</time>
      </trkpt>
      <trkpt lat="46.06159" lon="4.71542">
        <ele>192</ele>
        <time>2016-10-08T10:31:20Z</time>
      </trkpt>
      <trkpt lat="46.06155" lon="4.71538">
        <ele>192</ele>
        <time>2016-10-08T10:31:21Z</time>
      </trkpt>
      <trkpt lat="46.06152" lon="4.71533">
        <ele>192</ele>
        <time>2016-10-08T10:31:22Z</time>
      </trkpt>
      <trkpt lat="46.06149" lon="4.71527">
        <ele>192</ele>
        <time>2016-10-08T10:31:23Z</time>
      </trkpt>
      <trkpt lat="46.06146" lon="4.71521">
        <ele>192</ele>
        <time>2016-10-08T10:31:24Z</time>
      </trkpt>
      <trkpt lat="46.06144" lon="4.71515">
        <ele>192</ele>
        <time>2016-10-08T10:31:25Z</time>
      </trkpt>
      <trkpt lat="46.06141" lon="4.71509">
        <ele>192</ele>
        <time>2016-10-08T10:31:26Z</time>
      </trkpt>
      <trkpt lat="46.06139" lon="4.71503">
        <ele>192</ele>
        <time>2016-10-08T10:31:27Z</time>
      </trkpt>
      <trkpt lat="46.06136" lon="4.71497">
        <ele>192</ele>
        <time>2016-10-08T10:31:28Z</time>
      </trkpt>
      <trkpt lat="46.06134" lon="4.71491">
        <ele>192</ele>
        <time>2016-10-08T10:31:29Z</time>
      </trkpt>
      <trkpt lat="46.0613" lon="4.7148">
        <ele>192</ele>
        <time>2016-10-08T10:31:31Z</time>
      </trkpt>
      <trkpt lat="46.06128" lon="4.71475">
        <ele>192</ele>
        <time>2016-10-08T10:31:32Z</time>
      </trkpt>
      <trkpt lat="46.06126" lon="4.71468">
        <ele>192</ele>
        <time>2016-10-08T10:31:33Z</time>
      </trkpt>
      <trkpt lat="46.06124" lon="4.71461">
        <ele>193</ele>
        <time>2016-10-08T10:31:34Z</time>
      </trkpt>
      <trkpt lat="46.06124" lon="4.71453">
        <ele>193</ele>
        <time>2016-10-08T10:31:35Z</time>
      </trkpt>
      <trkpt lat="46.06123" lon="4.71446">
        <ele>193</ele>
        <time>2016-10-08T10:31:36Z</time>
      </trkpt>
      <trkpt lat="46.0612" lon="4.71438">
        <ele>193</ele>
        <time>2016-10-08T10:31:37Z</time>
      </trkpt>
      <trkpt lat="46.06118" lon="4.7143">
        <ele>193</ele>
        <time>2016-10-08T10:31:38Z</time>
      </trkpt>
      <trkpt lat="46.06115" lon="4.71423">
        <ele>193</ele>
        <time>2016-10-08T10:31:39Z</time>
      </trkpt>
      <trkpt lat="46.06113" lon="4.71415">
        <ele>193</ele>
        <time>2016-10-08T10:31:40Z</time>
      </trkpt>
      <trkpt lat="46.06111" lon="4.71408">
        <ele>193</ele>
        <time>2016-10-08T10:31:41Z</time>
      </trkpt>
      <trkpt lat="46.06108" lon="4.71401">
        <ele>193</ele>
        <time>2016-10-08T10:31:42Z</time>
      </trkpt>
      <trkpt lat="46.06106" lon="4.71394">
        <ele>193</ele>
        <time>2016-10-08T10:31:43Z</time>
      </trkpt>
      <trkpt lat="46.06104" lon="4.71388">
        <ele>193</ele>
        <time>2016-10-08T10:31:44Z</time>
      </trkpt>
      <trkpt lat="46.06102" lon="4.71381">
        <ele>193</ele>
        <time>2016-10-08T10:31:45Z</time>
      </trkpt>
      <trkpt lat="46.061" lon="4.71375">
        <ele>193</ele>
        <time>2016-10-08T10:31:46Z</time>
      </trkpt>
      <trkpt lat="46.06098" lon="4.71368">
        <ele>193</ele>
        <time>2016-10-08T10:31:47Z</time>
      </trkpt>
      <trkpt lat="46.06096" lon="4.71361">
        <ele>193</ele>
        <time>2016-10-08T10:31:48Z</time>
      </trkpt>
      <trkpt lat="46.06094" lon="4.71354">
        <ele>193</ele>
        <time>2016-10-08T10:31:49Z</time>
      </trkpt>
      <trkpt lat="46.06091" lon="4.71347">
        <ele>193</ele>
        <time>2016-10-08T10:31:50Z</time>
      </trkpt>
      <trkpt lat="46.0609" lon="4.7134">
        <ele>193</ele>
        <time>2016-10-08T10:31:51Z</time>
      </trkpt>
      <trkpt lat="46.06087" lon="4.71333">
        <ele>193</ele>
        <time>2016-10-08T10:31:52Z</time>
      </trkpt>
      <trkpt lat="46.06084" lon="4.71326">
        <ele>193</ele>
        <time>2016-10-08T10:31:53Z</time>
      </trkpt>
      <trkpt lat="46.06081" lon="4.71319">
        <ele>193</ele>
        <time>2016-10-08T10:31:54Z</time>
      </trkpt>
      <trkpt lat="46.06079" lon="4.71312">
        <ele>193</ele>
        <time>2016-10-08T10:31:55Z</time>
      </trkpt>
      <trkpt lat="46.06078" lon="4.71306">
        <ele>193</ele>
        <time>2016-10-08T10:31:56Z</time>
      </trkpt>
      <trkpt lat="46.06076" lon="4.71299">
        <ele>193</ele>
        <time>2016-10-08T10:31:57Z</time>
      </trkpt>
      <trkpt lat="46.06074" lon="4.71293">
        <ele>193</ele>
        <time>2016-10-08T10:31:58Z</time>
      </trkpt>
      <trkpt lat="46.06071" lon="4.71287">
        <ele>193</ele>
        <time>2016-10-08T10:31:59Z</time>
      </trkpt>
      <trkpt lat="46.06069" lon="4.7128">
        <ele>193</ele>
        <time>2016-10-08T10:32:00Z</time>
      </trkpt>
      <trkpt lat="46.06066" lon="4.71273">
        <ele>193</ele>
        <time>2016-10-08T10:32:01Z</time>
      </trkpt>
      <trkpt lat="46.06063" lon="4.71265">
        <ele>193</ele>
        <time>2016-10-08T10:32:02Z</time>
      </trkpt>
      <trkpt lat="46.0606" lon="4.71257">
        <ele>193</ele>
        <time>2016-10-08T10:32:03Z</time>
      </trkpt>
      <trkpt lat="46.06058" lon="4.71249">
        <ele>193</ele>
        <time>2016-10-08T10:32:04Z</time>
      </trkpt>
      <trkpt lat="46.06055" lon="4.71241">
        <ele>193</ele>
        <time>2016-10-08T10:32:05Z</time>
      </trkpt>
      <trkpt lat="46.06051" lon="4.71233">
        <ele>193</ele>
        <time>2016-10-08T10:32:06Z</time>
      </trkpt>
      <trkpt lat="46.06048" lon="4.71226">
        <ele>193</ele>
        <time>2016-10-08T10:32:07Z</time>
      </trkpt>
      <trkpt lat="46.06045" lon="4.71218">
        <ele>193</ele>
        <time>2016-10-08T10:32:08Z</time>
      </trkpt>
      <trkpt lat="46.06042" lon="4.71211">
        <ele>193</ele>
        <time>2016-10-08T10:32:09Z</time>
      </trkpt>
      <trkpt lat="46.06038" lon="4.71204">
        <ele>193</ele>
        <time>2016-10-08T10:32:10Z</time>
      </trkpt>
      <trkpt lat="46.06036" lon="4.71196">
        <ele>193</ele>
        <time>2016-10-08T10:32:11Z</time>
      </trkpt>
      <trkpt lat="46.06033" lon="4.71189">
        <ele>193</ele>
        <time>2016-10-08T10:32:12Z</time>
      </trkpt>
      <trkpt lat="46.0603" lon="4.71182">
        <ele>193</ele>
        <time>2016-10-08T10:32:13Z</time>
      </trkpt>
      <trkpt lat="46.06027" lon="4.71175">
        <ele>193</ele>
        <time>2016-10-08T10:32:14Z</time>
      </trkpt>
      <trkpt lat="46.06024" lon="4.71168">
        <ele>194</ele>
        <time>2016-10-08T10:32:15Z</time>
      </trkpt>
      <trkpt lat="46.06021" lon="4.7116">
        <ele>194</ele>
        <time>2016-10-08T10:32:16Z</time>
      </trkpt>
      <trkpt lat="46.06019" lon="4.71153">
        <ele>194</ele>
        <time>2016-10-08T10:32:17Z</time>
      </trkpt>
      <trkpt lat="46.06015" lon="4.71145">
        <ele>193</ele>
        <time>2016-10-08T10:32:18Z</time>
      </trkpt>
      <trkpt lat="46.06012" lon="4.71138">
        <ele>193</ele>
        <time>2016-10-08T10:32:19Z</time>
      </trkpt>
      <trkpt lat="46.0601" lon="4.71131">
        <ele>193</ele>
        <time>2016-10-08T10:32:20Z</time>
      </trkpt>
      <trkpt lat="46.06007" lon="4.71124">
        <ele>193</ele>
        <time>2016-10-08T10:32:21Z</time>
      </trkpt>
      <trkpt lat="46.06005" lon="4.71117">
        <ele>193</ele>
        <time>2016-10-08T10:32:22Z</time>
      </trkpt>
      <trkpt lat="46.06003" lon="4.7111">
        <ele>193</ele>
        <time>2016-10-08T10:32:23Z</time>
      </trkpt>
      <trkpt lat="46.06" lon="4.71102">
        <ele>193</ele>
        <time>2016-10-08T10:32:24Z</time>
      </trkpt>
      <trkpt lat="46.05998" lon="4.71095">
        <ele>193</ele>
        <time>2016-10-08T10:32:25Z</time>
      </trkpt>
      <trkpt lat="46.05996" lon="4.71088">
        <ele>193</ele>
        <time>2016-10-08T10:32:26Z</time>
      </trkpt>
      <trkpt lat="46.05995" lon="4.7108">
        <ele>193</ele>
        <time>2016-10-08T10:32:27Z</time>
      </trkpt>
      <trkpt lat="46.05991" lon="4.71072">
        <ele>193</ele>
        <time>2016-10-08T10:32:28Z</time>
      </trkpt>
      <trkpt lat="46.05988" lon="4.71065">
        <ele>193</ele>
        <time>2016-10-08T10:32:29Z</time>
      </trkpt>
      <trkpt lat="46.05984" lon="4.71058">
        <ele>193</ele>
        <time>2016-10-08T10:32:30Z</time>
      </trkpt>
      <trkpt lat="46.05981" lon="4.7105">
        <ele>193</ele>
        <time>2016-10-08T10:32:31Z</time>
      </trkpt>
      <trkpt lat="46.05978" lon="4.71043">
        <ele>193</ele>
        <time>2016-10-08T10:32:32Z</time>
      </trkpt>
      <trkpt lat="46.05975" lon="4.71037">
        <ele>192</ele>
        <time>2016-10-08T10:32:33Z</time>
      </trkpt>
      <trkpt lat="46.05972" lon="4.7103">
        <ele>193</ele>
        <time>2016-10-08T10:32:34Z</time>
      </trkpt>
      <trkpt lat="46.05969" lon="4.71023">
        <ele>193</ele>
        <time>2016-10-08T10:32:35Z</time>
      </trkpt>
      <trkpt lat="46.05966" lon="4.71016">
        <ele>193</ele>
        <time>2016-10-08T10:32:36Z</time>
      </trkpt>
      <trkpt lat="46.05964" lon="4.7101">
        <ele>193</ele>
        <time>2016-10-08T10:32:37Z</time>
      </trkpt>
      <trkpt lat="46.05962" lon="4.71004">
        <ele>193</ele>
        <time>2016-10-08T10:32:38Z</time>
      </trkpt>
      <trkpt lat="46.0596" lon="4.70998">
        <ele>193</ele>
        <time>2016-10-08T10:32:39Z</time>
      </trkpt>
      <trkpt lat="46.05957" lon="4.70992">
        <ele>193</ele>
        <time>2016-10-08T10:32:40Z</time>
      </trkpt>
      <trkpt lat="46.05955" lon="4.70986">
        <ele>193</ele>
        <time>2016-10-08T10:32:41Z</time>
      </trkpt>
      <trkpt lat="46.05953" lon="4.70979">
        <ele>193</ele>
        <time>2016-10-08T10:32:42Z</time>
      </trkpt>
      <trkpt lat="46.05951" lon="4.70973">
        <ele>193</ele>
        <time>2016-10-08T10:32:43Z</time>
      </trkpt>
      <trkpt lat="46.0595" lon="4.70965">
        <ele>193</ele>
        <time>2016-10-08T10:32:44Z</time>
      </trkpt>
      <trkpt lat="46.05947" lon="4.70958">
        <ele>193</ele>
        <time>2016-10-08T10:32:45Z</time>
      </trkpt>
      <trkpt lat="46.05945" lon="4.7095">
        <ele>193</ele>
        <time>2016-10-08T10:32:46Z</time>
      </trkpt>
      <trkpt lat="46.05943" lon="4.70942">
        <ele>193</ele>
        <time>2016-10-08T10:32:47Z</time>
      </trkpt>
      <trkpt lat="46.05942" lon="4.70933">
        <ele>193</ele>
        <time>2016-10-08T10:32:48Z</time>
      </trkpt>
      <trkpt lat="46.0594" lon="4.70925">
        <ele>194</ele>
        <time>2016-10-08T10:32:49Z</time>
      </trkpt>
      <trkpt lat="46.05939" lon="4.70917">
        <ele>194</ele>
        <time>2016-10-08T10:32:50Z</time>
      </trkpt>
      <trkpt lat="46.05938" lon="4.70909">
        <ele>194</ele>
        <time>2016-10-08T10:32:51Z</time>
      </trkpt>
      <trkpt lat="46.05937" lon="4.70902">
        <ele>194</ele>
        <time>2016-10-08T10:32:52Z</time>
      </trkpt>
      <trkpt lat="46.05936" lon="4.70895">
        <ele>194</ele>
        <time>2016-10-08T10:32:53Z</time>
      </trkpt>
      <trkpt lat="46.05936" lon="4.70889">
        <ele>194</ele>
        <time>2016-10-08T10:32:54Z</time>
      </trkpt>
      <trkpt lat="46.05935" lon="4.70882">
        <ele>194</ele>
        <time>2016-10-08T10:32:55Z</time>
      </trkpt>
      <trkpt lat="46.05935" lon="4.70875">
        <ele>194</ele>
        <time>2016-10-08T10:32:56Z</time>
      </trkpt>
      <trkpt lat="46.05934" lon="4.70868">
        <ele>194</ele>
        <time>2016-10-08T10:32:57Z</time>
      </trkpt>
      <trkpt lat="46.05934" lon="4.70861">
        <ele>194</ele>
        <time>2016-10-08T10:32:58Z</time>
      </trkpt>
      <trkpt lat="46.05933" lon="4.70854">
        <ele>194</ele>
        <time>2016-10-08T10:32:59Z</time>
      </trkpt>
      <trkpt lat="46.05933" lon="4.70846">
        <ele>194</ele>
        <time>2016-10-08T10:33:00Z</time>
      </trkpt>
      <trkpt lat="46.05932" lon="4.70838">
        <ele>194</ele>
        <time>2016-10-08T10:33:01Z</time>
      </trkpt>
      <trkpt lat="46.05931" lon="4.70831">
        <ele>195</ele>
        <time>2016-10-08T10:33:02Z</time>
      </trkpt>
      <trkpt lat="46.0593" lon="4.70823">
        <ele>194</ele>
        <time>2016-10-08T10:33:03Z</time>
      </trkpt>
      <trkpt lat="46.0593" lon="4.70814">
        <ele>194</ele>
        <time>2016-10-08T10:33:04Z</time>
      </trkpt>
      <trkpt lat="46.05929" lon="4.70807">
        <ele>194</ele>
        <time>2016-10-08T10:33:05Z</time>
      </trkpt>
      <trkpt lat="46.05928" lon="4.708">
        <ele>194</ele>
        <time>2016-10-08T10:33:06Z</time>
      </trkpt>
      <trkpt lat="46.05927" lon="4.70792">
        <ele>194</ele>
        <time>2016-10-08T10:33:07Z</time>
      </trkpt>
      <trkpt lat="46.05925" lon="4.70785">
        <ele>194</ele>
        <time>2016-10-08T10:33:08Z</time>
      </trkpt>
      <trkpt lat="46.05923" lon="4.70772">
        <ele>194</ele>
        <time>2016-10-08T10:33:10Z</time>
      </trkpt>
      <trkpt lat="46.05922" lon="4.70766">
        <ele>194</ele>
        <time>2016-10-08T10:33:11Z</time>
      </trkpt>
      <trkpt lat="46.05919" lon="4.70754">
        <ele>194</ele>
        <time>2016-10-08T10:33:13Z</time>
      </trkpt>
      <trkpt lat="46.05918" lon="4.70747">
        <ele>194</ele>
        <time>2016-10-08T10:33:14Z</time>
      </trkpt>
      <trkpt lat="46.05917" lon="4.70741">
        <ele>194</ele>
        <time>2016-10-08T10:33:15Z</time>
      </trkpt>
      <trkpt lat="46.05915" lon="4.70734">
        <ele>194</ele>
        <time>2016-10-08T10:33:16Z</time>
      </trkpt>
      <trkpt lat="46.05913" lon="4.70727">
        <ele>194</ele>
        <time>2016-10-08T10:33:17Z</time>
      </trkpt>
      <trkpt lat="46.05912" lon="4.70721">
        <ele>194</ele>
        <time>2016-10-08T10:33:18Z</time>
      </trkpt>
      <trkpt lat="46.05911" lon="4.70713">
        <ele>194</ele>
        <time>2016-10-08T10:33:19Z</time>
      </trkpt>
      <trkpt lat="46.05909" lon="4.70706">
        <ele>194</ele>
        <time>2016-10-08T10:33:20Z</time>
      </trkpt>
      <trkpt lat="46.05908" lon="4.70698">
        <ele>194</ele>
        <time>2016-10-08T10:33:21Z</time>
      </trkpt>
      <trkpt lat="46.05907" lon="4.70689">
        <ele>194</ele>
        <time>2016-10-08T10:33:22Z</time>
      </trkpt>
      <trkpt lat="46.05906" lon="4.70681">
        <ele>194</ele>
        <time>2016-10-08T10:33:23Z</time>
      </trkpt>
      <trkpt lat="46.05906" lon="4.70672">
        <ele>194</ele>
        <time>2016-10-08T10:33:24Z</time>
      </trkpt>
      <trkpt lat="46.05906" lon="4.70664">
        <ele>194</ele>
        <time>2016-10-08T10:33:25Z</time>
      </trkpt>
      <trkpt lat="46.05906" lon="4.70655">
        <ele>194</ele>
        <time>2016-10-08T10:33:26Z</time>
      </trkpt>
      <trkpt lat="46.05907" lon="4.70648">
        <ele>194</ele>
        <time>2016-10-08T10:33:27Z</time>
      </trkpt>
      <trkpt lat="46.05907" lon="4.7064">
        <ele>194</ele>
        <time>2016-10-08T10:33:28Z</time>
      </trkpt>
      <trkpt lat="46.05908" lon="4.70633">
        <ele>194</ele>
        <time>2016-10-08T10:33:29Z</time>
      </trkpt>
      <trkpt lat="46.05909" lon="4.70626">
        <ele>194</ele>
        <time>2016-10-08T10:33:30Z</time>
      </trkpt>
      <trkpt lat="46.05909" lon="4.70619">
        <ele>194</ele>
        <time>2016-10-08T10:33:31Z</time>
      </trkpt>
      <trkpt lat="46.0591" lon="4.70612">
        <ele>194</ele>
        <time>2016-10-08T10:33:32Z</time>
      </trkpt>
      <trkpt lat="46.05911" lon="4.70605">
        <ele>194</ele>
        <time>2016-10-08T10:33:33Z</time>
      </trkpt>
      <trkpt lat="46.05912" lon="4.70598">
        <ele>194</ele>
        <time>2016-10-08T10:33:34Z</time>
      </trkpt>
      <trkpt lat="46.05913" lon="4.7059">
        <ele>195</ele>
        <time>2016-10-08T10:33:35Z</time>
      </trkpt>
      <trkpt lat="46.05914" lon="4.70583">
        <ele>195</ele>
        <time>2016-10-08T10:33:36Z</time>
      </trkpt>
      <trkpt lat="46.05917" lon="4.70576">
        <ele>195</ele>
        <time>2016-10-08T10:33:37Z</time>
      </trkpt>
      <trkpt lat="46.05919" lon="4.70571">
        <ele>195</ele>
        <time>2016-10-08T10:33:38Z</time>
      </trkpt>
      <trkpt lat="46.05916" lon="4.70562">
        <ele>195</ele>
        <time>2016-10-08T10:33:39Z</time>
      </trkpt>
      <trkpt lat="46.05923" lon="4.70558">
        <ele>195</ele>
        <time>2016-10-08T10:33:40Z</time>
      </trkpt>
      <trkpt lat="46.05926" lon="4.7055">
        <ele>195</ele>
        <time>2016-10-08T10:33:41Z</time>
      </trkpt>
      <trkpt lat="46.05929" lon="4.70542">
        <ele>195</ele>
        <time>2016-10-08T10:33:42Z</time>
      </trkpt>
      <trkpt lat="46.05932" lon="4.70533">
        <ele>195</ele>
        <time>2016-10-08T10:33:43Z</time>
      </trkpt>
      <trkpt lat="46.05933" lon="4.70525">
        <ele>195</ele>
        <time>2016-10-08T10:33:44Z</time>
      </trkpt>
      <trkpt lat="46.05935" lon="4.70516">
        <ele>195</ele>
        <time>2016-10-08T10:33:45Z</time>
      </trkpt>
      <trkpt lat="46.05935" lon="4.70507">
        <ele>195</ele>
        <time>2016-10-08T10:33:46Z</time>
      </trkpt>
      <trkpt lat="46.05935" lon="4.70497">
        <ele>195</ele>
        <time>2016-10-08T10:33:47Z</time>
      </trkpt>
      <trkpt lat="46.05933" lon="4.70488">
        <ele>195</ele>
        <time>2016-10-08T10:33:48Z</time>
      </trkpt>
      <trkpt lat="46.0593" lon="4.70479">
        <ele>195</ele>
        <time>2016-10-08T10:33:49Z</time>
      </trkpt>
      <trkpt lat="46.05926" lon="4.70471">
        <ele>195</ele>
        <time>2016-10-08T10:33:50Z</time>
      </trkpt>
      <trkpt lat="46.05923" lon="4.70463">
        <ele>195</ele>
        <time>2016-10-08T10:33:51Z</time>
      </trkpt>
      <trkpt lat="46.05918" lon="4.70456">
        <ele>195</ele>
        <time>2016-10-08T10:33:52Z</time>
      </trkpt>
      <trkpt lat="46.05913" lon="4.70449">
        <ele>195</ele>
        <time>2016-10-08T10:33:53Z</time>
      </trkpt>
      <trkpt lat="46.05909" lon="4.70441">
        <ele>195</ele>
        <time>2016-10-08T10:33:54Z</time>
      </trkpt>
      <trkpt lat="46.05904" lon="4.70434">
        <ele>195</ele>
        <time>2016-10-08T10:33:55Z</time>
      </trkpt>
      <trkpt lat="46.059" lon="4.70427">
        <ele>195</ele>
        <time>2016-10-08T10:33:56Z</time>
      </trkpt>
      <trkpt lat="46.05896" lon="4.70421">
        <ele>195</ele>
        <time>2016-10-08T10:33:57Z</time>
      </trkpt>
      <trkpt lat="46.05892" lon="4.70415">
        <ele>196</ele>
        <time>2016-10-08T10:33:58Z</time>
      </trkpt>
      <trkpt lat="46.05889" lon="4.70409">
        <ele>196</ele>
        <time>2016-10-08T10:33:59Z</time>
      </trkpt>
      <trkpt lat="46.05885" lon="4.70403">
        <ele>196</ele>
        <time>2016-10-08T10:34:00Z</time>
      </trkpt>
      <trkpt lat="46.05881" lon="4.70396">
        <ele>196</ele>
        <time>2016-10-08T10:34:01Z</time>
      </trkpt>
      <trkpt lat="46.05877" lon="4.70389">
        <ele>196</ele>
        <time>2016-10-08T10:34:02Z</time>
      </trkpt>
      <trkpt lat="46.05872" lon="4.70383">
        <ele>196</ele>
        <time>2016-10-08T10:34:03Z</time>
      </trkpt>
      <trkpt lat="46.05868" lon="4.70376">
        <ele>196</ele>
        <time>2016-10-08T10:34:04Z</time>
      </trkpt>
      <trkpt lat="46.05864" lon="4.7037">
        <ele>196</ele>
        <time>2016-10-08T10:34:05Z</time>
      </trkpt>
      <trkpt lat="46.05859" lon="4.70364">
        <ele>196</ele>
        <time>2016-10-08T10:34:06Z</time>
      </trkpt>
      <trkpt lat="46.05854" lon="4.70358">
        <ele>196</ele>
        <time>2016-10-08T10:34:07Z</time>
      </trkpt>
      <trkpt lat="46.05851" lon="4.70352">
        <ele>196</ele>
        <time>2016-10-08T10:34:08Z</time>
      </trkpt>
      <trkpt lat="46.05845" lon="4.70342">
        <ele>197</ele>
        <time>2016-10-08T10:34:10Z</time>
      </trkpt>
      <trkpt lat="46.05841" lon="4.70338">
        <ele>197</ele>
        <time>2016-10-08T10:34:11Z</time>
      </trkpt>
      <trkpt lat="46.05837" lon="4.70334">
        <ele>197</ele>
        <time>2016-10-08T10:34:12Z</time>
      </trkpt>
      <trkpt lat="46.05833" lon="4.7033">
        <ele>197</ele>
        <time>2016-10-08T10:34:13Z</time>
      </trkpt>
      <trkpt lat="46.05829" lon="4.70326">
        <ele>197</ele>
        <time>2016-10-08T10:34:14Z</time>
      </trkpt>
      <trkpt lat="46.05826" lon="4.7032">
        <ele>197</ele>
        <time>2016-10-08T10:34:15Z</time>
      </trkpt>
      <trkpt lat="46.05822" lon="4.70314">
        <ele>197</ele>
        <time>2016-10-08T10:34:16Z</time>
      </trkpt>
      <trkpt lat="46.05819" lon="4.70307">
        <ele>197</ele>
        <time>2016-10-08T10:34:17Z</time>
      </trkpt>
      <trkpt lat="46.05814" lon="4.70302">
        <ele>197</ele>
        <time>2016-10-08T10:34:18Z</time>
      </trkpt>
      <trkpt lat="46.0581" lon="4.70297">
        <ele>197</ele>
        <time>2016-10-08T10:34:19Z</time>
      </trkpt>
      <trkpt lat="46.05804" lon="4.70291">
        <ele>197</ele>
        <time>2016-10-08T10:34:20Z</time>
      </trkpt>
      <trkpt lat="46.058" lon="4.70285">
        <ele>197</ele>
        <time>2016-10-08T10:34:21Z</time>
      </trkpt>
      <trkpt lat="46.05795" lon="4.70279">
        <ele>197</ele>
        <time>2016-10-08T10:34:22Z</time>
      </trkpt>
      <trkpt lat="46.0579" lon="4.70273">
        <ele>198</ele>
        <time>2016-10-08T10:34:23Z</time>
      </trkpt>
      <trkpt lat="46.05787" lon="4.70266">
        <ele>198</ele>
        <time>2016-10-08T10:34:24Z</time>
      </trkpt>
      <trkpt lat="46.05784" lon="4.70259">
        <ele>198</ele>
        <time>2016-10-08T10:34:25Z</time>
      </trkpt>
      <trkpt lat="46.05781" lon="4.70251">
        <ele>198</ele>
        <time>2016-10-08T10:34:26Z</time>
      </trkpt>
      <trkpt lat="46.05778" lon="4.70245">
        <ele>198</ele>
        <time>2016-10-08T10:34:27Z</time>
      </trkpt>
      <trkpt lat="46.05774" lon="4.70239">
        <ele>198</ele>
        <time>2016-10-08T10:34:28Z</time>
      </trkpt>
      <trkpt lat="46.0577" lon="4.70233">
        <ele>198</ele>
        <time>2016-10-08T10:34:29Z</time>
      </trkpt>
      <trkpt lat="46.05766" lon="4.70226">
        <ele>198</ele>
        <time>2016-10-08T10:34:30Z</time>
      </trkpt>
      <trkpt lat="46.05762" lon="4.7022">
        <ele>198</ele>
        <time>2016-10-08T10:34:31Z</time>
      </trkpt>
      <trkpt lat="46.05758" lon="4.70214">
        <ele>198</ele>
        <time>2016-10-08T10:34:32Z</time>
      </trkpt>
      <trkpt lat="46.05754" lon="4.70208">
        <ele>198</ele>
        <time>2016-10-08T10:34:33Z</time>
      </trkpt>
      <trkpt lat="46.0575" lon="4.70201">
        <ele>198</ele>
        <time>2016-10-08T10:34:34Z</time>
      </trkpt>
      <trkpt lat="46.05749" lon="4.70193">
        <ele>198</ele>
        <time>2016-10-08T10:34:35Z</time>
      </trkpt>
      <trkpt lat="46.05745" lon="4.70188">
        <ele>198</ele>
        <time>2016-10-08T10:34:36Z</time>
      </trkpt>
      <trkpt lat="46.05743" lon="4.70182">
        <ele>198</ele>
        <time>2016-10-08T10:34:37Z</time>
      </trkpt>
      <trkpt lat="46.05739" lon="4.70176">
        <ele>198</ele>
        <time>2016-10-08T10:34:38Z</time>
      </trkpt>
      <trkpt lat="46.05738" lon="4.70169">
        <ele>198</ele>
        <time>2016-10-08T10:34:39Z</time>
      </trkpt>
      <trkpt lat="46.05736" lon="4.70162">
        <ele>199</ele>
        <time>2016-10-08T10:34:40Z</time>
      </trkpt>
      <trkpt lat="46.05734" lon="4.70156">
        <ele>199</ele>
        <time>2016-10-08T10:34:41Z</time>
      </trkpt>
      <trkpt lat="46.05732" lon="4.70149">
        <ele>198</ele>
        <time>2016-10-08T10:34:42Z</time>
      </trkpt>
      <trkpt lat="46.05731" lon="4.70141">
        <ele>198</ele>
        <time>2016-10-08T10:34:43Z</time>
      </trkpt>
      <trkpt lat="46.05728" lon="4.70137">
        <ele>198</ele>
        <time>2016-10-08T10:34:44Z</time>
      </trkpt>
      <trkpt lat="46.05725" lon="4.70131">
        <ele>198</ele>
        <time>2016-10-08T10:34:45Z</time>
      </trkpt>
      <trkpt lat="46.0572" lon="4.70121">
        <ele>198</ele>
        <time>2016-10-08T10:34:47Z</time>
      </trkpt>
      <trkpt lat="46.05717" lon="4.70116">
        <ele>198</ele>
        <time>2016-10-08T10:34:48Z</time>
      </trkpt>
      <trkpt lat="46.05714" lon="4.70111">
        <ele>198</ele>
        <time>2016-10-08T10:34:49Z</time>
      </trkpt>
      <trkpt lat="46.05711" lon="4.70105">
        <ele>198</ele>
        <time>2016-10-08T10:34:50Z</time>
      </trkpt>
      <trkpt lat="46.05709" lon="4.70099">
        <ele>198</ele>
        <time>2016-10-08T10:34:51Z</time>
      </trkpt>
      <trkpt lat="46.05705" lon="4.70093">
        <ele>198</ele>
        <time>2016-10-08T10:34:52Z</time>
      </trkpt>
      <trkpt lat="46.05702" lon="4.70088">
        <ele>198</ele>
        <time>2016-10-08T10:34:53Z</time>
      </trkpt>
      <trkpt lat="46.05697" lon="4.70083">
        <ele>199</ele>
        <time>2016-10-08T10:34:54Z</time>
      </trkpt>
      <trkpt lat="46.05692" lon="4.70077">
        <ele>199</ele>
        <time>2016-10-08T10:34:55Z</time>
      </trkpt>
      <trkpt lat="46.05689" lon="4.70071">
        <ele>199</ele>
        <time>2016-10-08T10:34:56Z</time>
      </trkpt>
      <trkpt lat="46.05685" lon="4.70066">
        <ele>199</ele>
        <time>2016-10-08T10:34:57Z</time>
      </trkpt>
      <trkpt lat="46.05681" lon="4.7006">
        <ele>199</ele>
        <time>2016-10-08T10:34:58Z</time>
      </trkpt>
      <trkpt lat="46.05678" lon="4.70055">
        <ele>199</ele>
        <time>2016-10-08T10:34:59Z</time>
      </trkpt>
      <trkpt lat="46.05675" lon="4.70049">
        <ele>199</ele>
        <time>2016-10-08T10:35:00Z</time>
      </trkpt>
      <trkpt lat="46.0567" lon="4.70039">
        <ele>199</ele>
        <time>2016-10-08T10:35:02Z</time>
      </trkpt>
      <trkpt lat="46.05667" lon="4.70034">
        <ele>199</ele>
        <time>2016-10-08T10:35:03Z</time>
      </trkpt>
      <trkpt lat="46.05664" lon="4.70028">
        <ele>200</ele>
        <time>2016-10-08T10:35:04Z</time>
      </trkpt>
      <trkpt lat="46.05661" lon="4.70024">
        <ele>200</ele>
        <time>2016-10-08T10:35:05Z</time>
      </trkpt>
      <trkpt lat="46.05656" lon="4.70013">
        <ele>200</ele>
        <time>2016-10-08T10:35:07Z</time>
      </trkpt>
      <trkpt lat="46.05653" lon="4.70008">
        <ele>200</ele>
        <time>2016-10-08T10:35:08Z</time>
      </trkpt>
      <trkpt lat="46.0565" lon="4.70003">
        <ele>200</ele>
        <time>2016-10-08T10:35:09Z</time>
      </trkpt>
      <trkpt lat="46.05647" lon="4.69998">
        <ele>200</ele>
        <time>2016-10-08T10:35:10Z</time>
      </trkpt>
      <trkpt lat="46.05644" lon="4.69993">
        <ele>200</ele>
        <time>2016-10-08T10:35:11Z</time>
      </trkpt>
      <trkpt lat="46.05641" lon="4.69987">
        <ele>200</ele>
        <time>2016-10-08T10:35:12Z</time>
      </trkpt>
      <trkpt lat="46.05638" lon="4.69979">
        <ele>200</ele>
        <time>2016-10-08T10:35:13Z</time>
      </trkpt>
      <trkpt lat="46.05635" lon="4.69972">
        <ele>200</ele>
        <time>2016-10-08T10:35:14Z</time>
      </trkpt>
      <trkpt lat="46.05631" lon="4.69966">
        <ele>200</ele>
        <time>2016-10-08T10:35:15Z</time>
      </trkpt>
      <trkpt lat="46.05628" lon="4.69959">
        <ele>200</ele>
        <time>2016-10-08T10:35:16Z</time>
      </trkpt>
      <trkpt lat="46.05624" lon="4.69953">
        <ele>200</ele>
        <time>2016-10-08T10:35:17Z</time>
      </trkpt>
      <trkpt lat="46.0562" lon="4.69948">
        <ele>200</ele>
        <time>2016-10-08T10:35:18Z</time>
      </trkpt>
      <trkpt lat="46.05618" lon="4.69942">
        <ele>201</ele>
        <time>2016-10-08T10:35:19Z</time>
      </trkpt>
      <trkpt lat="46.05615" lon="4.69937">
        <ele>201</ele>
        <time>2016-10-08T10:35:20Z</time>
      </trkpt>
      <trkpt lat="46.05612" lon="4.69931">
        <ele>201</ele>
        <time>2016-10-08T10:35:21Z</time>
      </trkpt>
      <trkpt lat="46.05609" lon="4.69926">
        <ele>201</ele>
        <time>2016-10-08T10:35:22Z</time>
      </trkpt>
      <trkpt lat="46.05604" lon="4.69916">
        <ele>201</ele>
        <time>2016-10-08T10:35:24Z</time>
      </trkpt>
      <trkpt lat="46.056" lon="4.69911">
        <ele>201</ele>
        <time>2016-10-08T10:35:25Z</time>
      </trkpt>
      <trkpt lat="46.05596" lon="4.69901">
        <ele>201</ele>
        <time>2016-10-08T10:35:27Z</time>
      </trkpt>
      <trkpt lat="46.05593" lon="4.69896">
        <ele>201</ele>
        <time>2016-10-08T10:35:28Z</time>
      </trkpt>
      <trkpt lat="46.05587" lon="4.69886">
        <ele>201</ele>
        <time>2016-10-08T10:35:30Z</time>
      </trkpt>
      <trkpt lat="46.05584" lon="4.6988">
        <ele>201</ele>
        <time>2016-10-08T10:35:31Z</time>
      </trkpt>
      <trkpt lat="46.0558" lon="4.69875">
        <ele>200</ele>
        <time>2016-10-08T10:35:32Z</time>
      </trkpt>
      <trkpt lat="46.05578" lon="4.69869">
        <ele>200</ele>
        <time>2016-10-08T10:35:33Z</time>
      </trkpt>
      <trkpt lat="46.05574" lon="4.69863">
        <ele>200</ele>
        <time>2016-10-08T10:35:34Z</time>
      </trkpt>
      <trkpt lat="46.05571" lon="4.69858">
        <ele>200</ele>
        <time>2016-10-08T10:35:35Z</time>
      </trkpt>
      <trkpt lat="46.05568" lon="4.69853">
        <ele>200</ele>
        <time>2016-10-08T10:35:36Z</time>
      </trkpt>
      <trkpt lat="46.05563" lon="4.69852">
        <ele>200</ele>
        <time>2016-10-08T10:35:37Z</time>
      </trkpt>
      <trkpt lat="46.05558" lon="4.69852">
        <ele>200</ele>
        <time>2016-10-08T10:35:38Z</time>
      </trkpt>
      <trkpt lat="46.05553" lon="4.69854">
        <ele>200</ele>
        <time>2016-10-08T10:35:39Z</time>
      </trkpt>
      <trkpt lat="46.05548" lon="4.69856">
        <ele>200</ele>
        <time>2016-10-08T10:35:40Z</time>
      </trkpt>
      <trkpt lat="46.05544" lon="4.69858">
        <ele>200</ele>
        <time>2016-10-08T10:35:41Z</time>
      </trkpt>
      <trkpt lat="46.05539" lon="4.69859">
        <ele>200</ele>
        <time>2016-10-08T10:35:42Z</time>
      </trkpt>
      <trkpt lat="46.05534" lon="4.69861">
        <ele>200</ele>
        <time>2016-10-08T10:35:43Z</time>
      </trkpt>
      <trkpt lat="46.05528" lon="4.69864">
        <ele>200</ele>
        <time>2016-10-08T10:35:44Z</time>
      </trkpt>
      <trkpt lat="46.05522" lon="4.69866">
        <ele>200</ele>
        <time>2016-10-08T10:35:45Z</time>
      </trkpt>
      <trkpt lat="46.05517" lon="4.69868">
        <ele>199</ele>
        <time>2016-10-08T10:35:46Z</time>
      </trkpt>
      <trkpt lat="46.05512" lon="4.69868">
        <ele>199</ele>
        <time>2016-10-08T10:35:47Z</time>
      </trkpt>
      <trkpt lat="46.05506" lon="4.6987">
        <ele>199</ele>
        <time>2016-10-08T10:35:48Z</time>
      </trkpt>
      <trkpt lat="46.05501" lon="4.69871">
        <ele>199</ele>
        <time>2016-10-08T10:35:49Z</time>
      </trkpt>
      <trkpt lat="46.05496" lon="4.69873">
        <ele>199</ele>
        <time>2016-10-08T10:35:50Z</time>
      </trkpt>
      <trkpt lat="46.0549" lon="4.69874">
        <ele>199</ele>
        <time>2016-10-08T10:35:51Z</time>
      </trkpt>
      <trkpt lat="46.05484" lon="4.69876">
        <ele>199</ele>
        <time>2016-10-08T10:35:52Z</time>
      </trkpt>
      <trkpt lat="46.05478" lon="4.69878">
        <ele>199</ele>
        <time>2016-10-08T10:35:53Z</time>
      </trkpt>
      <trkpt lat="46.05472" lon="4.6988">
        <ele>199</ele>
        <time>2016-10-08T10:35:54Z</time>
      </trkpt>
      <trkpt lat="46.05466" lon="4.69882">
        <ele>199</ele>
        <time>2016-10-08T10:35:55Z</time>
      </trkpt>
      <trkpt lat="46.05461" lon="4.69884">
        <ele>199</ele>
        <time>2016-10-08T10:35:56Z</time>
      </trkpt>
      <trkpt lat="46.05455" lon="4.69887">
        <ele>199</ele>
        <time>2016-10-08T10:35:57Z</time>
      </trkpt>
      <trkpt lat="46.05451" lon="4.69888">
        <ele>199</ele>
        <time>2016-10-08T10:35:58Z</time>
      </trkpt>
      <trkpt lat="46.05446" lon="4.69891">
        <ele>199</ele>
        <time>2016-10-08T10:35:59Z</time>
      </trkpt>
      <trkpt lat="46.05442" lon="4.69893">
        <ele>199</ele>
        <time>2016-10-08T10:36:00Z</time>
      </trkpt>
      <trkpt lat="46.05436" lon="4.69895">
        <ele>199</ele>
        <time>2016-10-08T10:36:01Z</time>
      </trkpt>
      <trkpt lat="46.05431" lon="4.69896">
        <ele>199</ele>
        <time>2016-10-08T10:36:02Z</time>
      </trkpt>
      <trkpt lat="46.05425" lon="4.69898">
        <ele>199</ele>
        <time>2016-10-08T10:36:03Z</time>
      </trkpt>
      <trkpt lat="46.05419" lon="4.69899">
        <ele>199</ele>
        <time>2016-10-08T10:36:04Z</time>
      </trkpt>
      <trkpt lat="46.05413" lon="4.699">
        <ele>199</ele>
        <time>2016-10-08T10:36:05Z</time>
      </trkpt>
      <trkpt lat="46.05408" lon="4.69901">
        <ele>199</ele>
        <time>2016-10-08T10:36:06Z</time>
      </trkpt>
      <trkpt lat="46.05402" lon="4.69902">
        <ele>199</ele>
        <time>2016-10-08T10:36:07Z</time>
      </trkpt>
      <trkpt lat="46.05397" lon="4.69902">
        <ele>199</ele>
        <time>2016-10-08T10:36:08Z</time>
      </trkpt>
      <trkpt lat="46.05392" lon="4.699">
        <ele>199</ele>
        <time>2016-10-08T10:36:09Z</time>
      </trkpt>
      <trkpt lat="46.05387" lon="4.69898">
        <ele>199</ele>
        <time>2016-10-08T10:36:10Z</time>
      </trkpt>
      <trkpt lat="46.05381" lon="4.69895">
        <ele>199</ele>
        <time>2016-10-08T10:36:11Z</time>
      </trkpt>
      <trkpt lat="46.05376" lon="4.69894">
        <ele>199</ele>
        <time>2016-10-08T10:36:12Z</time>
      </trkpt>
      <trkpt lat="46.05371" lon="4.69891">
        <ele>199</ele>
        <time>2016-10-08T10:36:13Z</time>
      </trkpt>
      <trkpt lat="46.05366" lon="4.69889">
        <ele>199</ele>
        <time>2016-10-08T10:36:14Z</time>
      </trkpt>
      <trkpt lat="46.0536" lon="4.69887">
        <ele>199</ele>
        <time>2016-10-08T10:36:15Z</time>
      </trkpt>
      <trkpt lat="46.05354" lon="4.69884">
        <ele>199</ele>
        <time>2016-10-08T10:36:16Z</time>
      </trkpt>
      <trkpt lat="46.05349" lon="4.69883">
        <ele>199</ele>
        <time>2016-10-08T10:36:17Z</time>
      </trkpt>
      <trkpt lat="46.05344" lon="4.69881">
        <ele>199</ele>
        <time>2016-10-08T10:36:18Z</time>
      </trkpt>
      <trkpt lat="46.05339" lon="4.6988">
        <ele>199</ele>
        <time>2016-10-08T10:36:19Z</time>
      </trkpt>
      <trkpt lat="46.0533" lon="4.69877">
        <ele>199</ele>
        <time>2016-10-08T10:36:21Z</time>
      </trkpt>
      <trkpt lat="46.05326" lon="4.69876">
        <ele>199</ele>
        <time>2016-10-08T10:36:22Z</time>
      </trkpt>
      <trkpt lat="46.05321" lon="4.69875">
        <ele>199</ele>
        <time>2016-10-08T10:36:23Z</time>
      </trkpt>
      <trkpt lat="46.05316" lon="4.69874">
        <ele>199</ele>
        <time>2016-10-08T10:36:24Z</time>
      </trkpt>
      <trkpt lat="46.05312" lon="4.69873">
        <ele>199</ele>
        <time>2016-10-08T10:36:25Z</time>
      </trkpt>
      <trkpt lat="46.05307" lon="4.69872">
        <ele>199</ele>
        <time>2016-10-08T10:36:26Z</time>
      </trkpt>
      <trkpt lat="46.05303" lon="4.69871">
        <ele>199</ele>
        <time>2016-10-08T10:36:27Z</time>
      </trkpt>
      <trkpt lat="46.05298" lon="4.69869">
        <ele>199</ele>
        <time>2016-10-08T10:36:28Z</time>
      </trkpt>
      <trkpt lat="46.0529" lon="4.69868">
        <ele>199</ele>
        <time>2016-10-08T10:36:30Z</time>
      </trkpt>
      <trkpt lat="46.05285" lon="4.69867">
        <ele>199</ele>
        <time>2016-10-08T10:36:31Z</time>
      </trkpt>
      <trkpt lat="46.0528" lon="4.69866">
        <ele>199</ele>
        <time>2016-10-08T10:36:32Z</time>
      </trkpt>
      <trkpt lat="46.05275" lon="4.69865">
        <ele>199</ele>
        <time>2016-10-08T10:36:33Z</time>
      </trkpt>
      <trkpt lat="46.05271" lon="4.69865">
        <ele>199</ele>
        <time>2016-10-08T10:36:34Z</time>
      </trkpt>
      <trkpt lat="46.05266" lon="4.69863">
        <ele>199</ele>
        <time>2016-10-08T10:36:35Z</time>
      </trkpt>
      <trkpt lat="46.05261" lon="4.69862">
        <ele>199</ele>
        <time>2016-10-08T10:36:36Z</time>
      </trkpt>
      <trkpt lat="46.05257" lon="4.69861">
        <ele>199</ele>
        <time>2016-10-08T10:36:37Z</time>
      </trkpt>
      <trkpt lat="46.05248" lon="4.69859">
        <ele>200</ele>
        <time>2016-10-08T10:36:39Z</time>
      </trkpt>
      <trkpt lat="46.05244" lon="4.69857">
        <ele>201</ele>
        <time>2016-10-08T10:36:40Z</time>
      </trkpt>
      <trkpt lat="46.05239" lon="4.69856">
        <ele>201</ele>
        <time>2016-10-08T10:36:41Z</time>
      </trkpt>
      <trkpt lat="46.05234" lon="4.69855">
        <ele>201</ele>
        <time>2016-10-08T10:36:42Z</time>
      </trkpt>
      <trkpt lat="46.05226" lon="4.69851">
        <ele>201</ele>
        <time>2016-10-08T10:36:44Z</time>
      </trkpt>
      <trkpt lat="46.05222" lon="4.6985">
        <ele>201</ele>
        <time>2016-10-08T10:36:45Z</time>
      </trkpt>
      <trkpt lat="46.05218" lon="4.69849">
        <ele>201</ele>
        <time>2016-10-08T10:36:46Z</time>
      </trkpt>
      <trkpt lat="46.05213" lon="4.69848">
        <ele>201</ele>
        <time>2016-10-08T10:36:47Z</time>
      </trkpt>
      <trkpt lat="46.05208" lon="4.69846">
        <ele>201</ele>
        <time>2016-10-08T10:36:48Z</time>
      </trkpt>
      <trkpt lat="46.05204" lon="4.69845">
        <ele>201</ele>
        <time>2016-10-08T10:36:49Z</time>
      </trkpt>
      <trkpt lat="46.05196" lon="4.69842">
        <ele>202</ele>
        <time>2016-10-08T10:36:51Z</time>
      </trkpt>
      <trkpt lat="46.05191" lon="4.69841">
        <ele>202</ele>
        <time>2016-10-08T10:36:52Z</time>
      </trkpt>
      <trkpt lat="46.05187" lon="4.69839">
        <ele>202</ele>
        <time>2016-10-08T10:36:53Z</time>
      </trkpt>
      <trkpt lat="46.05182" lon="4.69838">
        <ele>202</ele>
        <time>2016-10-08T10:36:54Z</time>
      </trkpt>
      <trkpt lat="46.05177" lon="4.69836">
        <ele>202</ele>
        <time>2016-10-08T10:36:55Z</time>
      </trkpt>
      <trkpt lat="46.05173" lon="4.69834">
        <ele>203</ele>
        <time>2016-10-08T10:36:56Z</time>
      </trkpt>
      <trkpt lat="46.05168" lon="4.69832">
        <ele>203</ele>
        <time>2016-10-08T10:36:57Z</time>
      </trkpt>
      <trkpt lat="46.05164" lon="4.69831">
        <ele>203</ele>
        <time>2016-10-08T10:36:58Z</time>
      </trkpt>
      <trkpt lat="46.05159" lon="4.69829">
        <ele>203</ele>
        <time>2016-10-08T10:36:59Z</time>
      </trkpt>
      <trkpt lat="46.05155" lon="4.69828">
        <ele>204</ele>
        <time>2016-10-08T10:37:00Z</time>
      </trkpt>
      <trkpt lat="46.05146" lon="4.69826">
        <ele>204</ele>
        <time>2016-10-08T10:37:02Z</time>
      </trkpt>
      <trkpt lat="46.05142" lon="4.69825">
        <ele>204</ele>
        <time>2016-10-08T10:37:03Z</time>
      </trkpt>
      <trkpt lat="46.05134" lon="4.69824">
        <ele>204</ele>
        <time>2016-10-08T10:37:05Z</time>
      </trkpt>
      <trkpt lat="46.0513" lon="4.69826">
        <ele>204</ele>
        <time>2016-10-08T10:37:06Z</time>
      </trkpt>
      <trkpt lat="46.05124" lon="4.69834">
        <ele>204</ele>
        <time>2016-10-08T10:37:08Z</time>
      </trkpt>
      <trkpt lat="46.05122" lon="4.69841">
        <ele>204</ele>
        <time>2016-10-08T10:37:09Z</time>
      </trkpt>
      <trkpt lat="46.05121" lon="4.69847">
        <ele>204</ele>
        <time>2016-10-08T10:37:10Z</time>
      </trkpt>
      <trkpt lat="46.0512" lon="4.69854">
        <ele>204</ele>
        <time>2016-10-08T10:37:11Z</time>
      </trkpt>
      <trkpt lat="46.0512" lon="4.69861">
        <ele>204</ele>
        <time>2016-10-08T10:37:12Z</time>
      </trkpt>
      <trkpt lat="46.05119" lon="4.69869">
        <ele>204</ele>
        <time>2016-10-08T10:37:13Z</time>
      </trkpt>
      <trkpt lat="46.05117" lon="4.69876">
        <ele>204</ele>
        <time>2016-10-08T10:37:14Z</time>
      </trkpt>
      <trkpt lat="46.05116" lon="4.69884">
        <ele>204</ele>
        <time>2016-10-08T10:37:15Z</time>
      </trkpt>
      <trkpt lat="46.05115" lon="4.69891">
        <ele>204</ele>
        <time>2016-10-08T10:37:16Z</time>
      </trkpt>
      <trkpt lat="46.05114" lon="4.69899">
        <ele>204</ele>
        <time>2016-10-08T10:37:17Z</time>
      </trkpt>
      <trkpt lat="46.05114" lon="4.69907">
        <ele>204</ele>
        <time>2016-10-08T10:37:18Z</time>
      </trkpt>
      <trkpt lat="46.05112" lon="4.69914">
        <ele>204</ele>
        <time>2016-10-08T10:37:19Z</time>
      </trkpt>
      <trkpt lat="46.05111" lon="4.69922">
        <ele>203</ele>
        <time>2016-10-08T10:37:20Z</time>
      </trkpt>
      <trkpt lat="46.0511" lon="4.6993">
        <ele>203</ele>
        <time>2016-10-08T10:37:21Z</time>
      </trkpt>
      <trkpt lat="46.05108" lon="4.69937">
        <ele>203</ele>
        <time>2016-10-08T10:37:22Z</time>
      </trkpt>
      <trkpt lat="46.05107" lon="4.69944">
        <ele>203</ele>
        <time>2016-10-08T10:37:23Z</time>
      </trkpt>
      <trkpt lat="46.05106" lon="4.69951">
        <ele>203</ele>
        <time>2016-10-08T10:37:24Z</time>
      </trkpt>
      <trkpt lat="46.05105" lon="4.69958">
        <ele>203</ele>
        <time>2016-10-08T10:37:25Z</time>
      </trkpt>
      <trkpt lat="46.05104" lon="4.69966">
        <ele>203</ele>
        <time>2016-10-08T10:37:26Z</time>
      </trkpt>
      <trkpt lat="46.05103" lon="4.69973">
        <ele>203</ele>
        <time>2016-10-08T10:37:27Z</time>
      </trkpt>
      <trkpt lat="46.05102" lon="4.6998">
        <ele>203</ele>
        <time>2016-10-08T10:37:28Z</time>
      </trkpt>
      <trkpt lat="46.05101" lon="4.69987">
        <ele>204</ele>
        <time>2016-10-08T10:37:29Z</time>
      </trkpt>
      <trkpt lat="46.051" lon="4.69994">
        <ele>204</ele>
        <time>2016-10-08T10:37:30Z</time>
      </trkpt>
      <trkpt lat="46.05098" lon="4.70001">
        <ele>204</ele>
        <time>2016-10-08T10:37:31Z</time>
      </trkpt>
      <trkpt lat="46.05096" lon="4.70007">
        <ele>204</ele>
        <time>2016-10-08T10:37:32Z</time>
      </trkpt>
      <trkpt lat="46.05094" lon="4.70013">
        <ele>203</ele>
        <time>2016-10-08T10:37:33Z</time>
      </trkpt>
      <trkpt lat="46.05091" lon="4.70019">
        <ele>203</ele>
        <time>2016-10-08T10:37:34Z</time>
      </trkpt>
      <trkpt lat="46.05087" lon="4.70025">
        <ele>203</ele>
        <time>2016-10-08T10:37:35Z</time>
      </trkpt>
      <trkpt lat="46.05083" lon="4.70029">
        <ele>204</ele>
        <time>2016-10-08T10:37:36Z</time>
      </trkpt>
      <trkpt lat="46.05078" lon="4.70032">
        <ele>204</ele>
        <time>2016-10-08T10:37:37Z</time>
      </trkpt>
      <trkpt lat="46.05074" lon="4.70034">
        <ele>204</ele>
        <time>2016-10-08T10:37:38Z</time>
      </trkpt>
      <trkpt lat="46.05068" lon="4.70034">
        <ele>204</ele>
        <time>2016-10-08T10:37:39Z</time>
      </trkpt>
      <trkpt lat="46.05064" lon="4.70033">
        <ele>204</ele>
        <time>2016-10-08T10:37:40Z</time>
      </trkpt>
      <trkpt lat="46.05059" lon="4.70031">
        <ele>204</ele>
        <time>2016-10-08T10:37:41Z</time>
      </trkpt>
      <trkpt lat="46.05055" lon="4.70028">
        <ele>204</ele>
        <time>2016-10-08T10:37:42Z</time>
      </trkpt>
      <trkpt lat="46.0505" lon="4.70026">
        <ele>204</ele>
        <time>2016-10-08T10:37:43Z</time>
      </trkpt>
      <trkpt lat="46.05042" lon="4.7002">
        <ele>204</ele>
        <time>2016-10-08T10:37:45Z</time>
      </trkpt>
      <trkpt lat="46.05038" lon="4.70017">
        <ele>204</ele>
        <time>2016-10-08T10:37:46Z</time>
      </trkpt>
      <trkpt lat="46.05031" lon="4.70012">
        <ele>204</ele>
        <time>2016-10-08T10:37:48Z</time>
      </trkpt>
      <trkpt lat="46.05027" lon="4.70008">
        <ele>204</ele>
        <time>2016-10-08T10:37:49Z</time>
      </trkpt>
      <trkpt lat="46.05024" lon="4.70004">
        <ele>204</ele>
        <time>2016-10-08T10:37:50Z</time>
      </trkpt>
      <trkpt lat="46.0502" lon="4.69999">
        <ele>205</ele>
        <time>2016-10-08T10:37:51Z</time>
      </trkpt>
      <trkpt lat="46.05016" lon="4.69994">
        <ele>205</ele>
        <time>2016-10-08T10:37:52Z</time>
      </trkpt>
      <trkpt lat="46.05013" lon="4.69988">
        <ele>205</ele>
        <time>2016-10-08T10:37:53Z</time>
      </trkpt>
      <trkpt lat="46.05009" lon="4.69983">
        <ele>205</ele>
        <time>2016-10-08T10:37:54Z</time>
      </trkpt>
      <trkpt lat="46.05005" lon="4.69977">
        <ele>205</ele>
        <time>2016-10-08T10:37:55Z</time>
      </trkpt>
      <trkpt lat="46.05001" lon="4.69972">
        <ele>205</ele>
        <time>2016-10-08T10:37:56Z</time>
      </trkpt>
      <trkpt lat="46.04997" lon="4.69966">
        <ele>205</ele>
        <time>2016-10-08T10:37:57Z</time>
      </trkpt>
      <trkpt lat="46.04992" lon="4.6996">
        <ele>205</ele>
        <time>2016-10-08T10:37:58Z</time>
      </trkpt>
      <trkpt lat="46.04988" lon="4.69954">
        <ele>206</ele>
        <time>2016-10-08T10:37:59Z</time>
      </trkpt>
      <trkpt lat="46.04984" lon="4.69948">
        <ele>206</ele>
        <time>2016-10-08T10:38:00Z</time>
      </trkpt>
      <trkpt lat="46.0498" lon="4.69942">
        <ele>206</ele>
        <time>2016-10-08T10:38:01Z</time>
      </trkpt>
      <trkpt lat="46.04977" lon="4.69936">
        <ele>206</ele>
        <time>2016-10-08T10:38:02Z</time>
      </trkpt>
      <trkpt lat="46.04974" lon="4.6993">
        <ele>206</ele>
        <time>2016-10-08T10:38:03Z</time>
      </trkpt>
      <trkpt lat="46.0497" lon="4.69924">
        <ele>206</ele>
        <time>2016-10-08T10:38:04Z</time>
      </trkpt>
      <trkpt lat="46.04968" lon="4.6992">
        <ele>206</ele>
        <time>2016-10-08T10:38:05Z</time>
      </trkpt>
      <trkpt lat="46.04964" lon="4.69915">
        <ele>206</ele>
        <time>2016-10-08T10:38:06Z</time>
      </trkpt>
      <trkpt lat="46.04961" lon="4.6991">
        <ele>206</ele>
        <time>2016-10-08T10:38:07Z</time>
      </trkpt>
      <trkpt lat="46.04958" lon="4.69904">
        <ele>207</ele>
        <time>2016-10-08T10:38:08Z</time>
      </trkpt>
      <trkpt lat="46.04954" lon="4.69898">
        <ele>207</ele>
        <time>2016-10-08T10:38:09Z</time>
      </trkpt>
      <trkpt lat="46.0495" lon="4.69893">
        <ele>207</ele>
        <time>2016-10-08T10:38:10Z</time>
      </trkpt>
      <trkpt lat="46.04946" lon="4.69888">
        <ele>207</ele>
        <time>2016-10-08T10:38:11Z</time>
      </trkpt>
      <trkpt lat="46.04941" lon="4.69883">
        <ele>207</ele>
        <time>2016-10-08T10:38:12Z</time>
      </trkpt>
      <trkpt lat="46.04937" lon="4.69879">
        <ele>207</ele>
        <time>2016-10-08T10:38:13Z</time>
      </trkpt>
      <trkpt lat="46.04931" lon="4.69875">
        <ele>207</ele>
        <time>2016-10-08T10:38:14Z</time>
      </trkpt>
      <trkpt lat="46.04927" lon="4.69872">
        <ele>207</ele>
        <time>2016-10-08T10:38:15Z</time>
      </trkpt>
      <trkpt lat="46.04918" lon="4.69868">
        <ele>207</ele>
        <time>2016-10-08T10:38:17Z</time>
      </trkpt>
      <trkpt lat="46.04914" lon="4.69866">
        <ele>206</ele>
        <time>2016-10-08T10:38:18Z</time>
      </trkpt>
      <trkpt lat="46.04909" lon="4.69863">
        <ele>206</ele>
        <time>2016-10-08T10:38:19Z</time>
      </trkpt>
      <trkpt lat="46.04904" lon="4.69861">
        <ele>206</ele>
        <time>2016-10-08T10:38:20Z</time>
      </trkpt>
      <trkpt lat="46.04899" lon="4.69859">
        <ele>206</ele>
        <time>2016-10-08T10:38:21Z</time>
      </trkpt>
      <trkpt lat="46.04894" lon="4.69857">
        <ele>206</ele>
        <time>2016-10-08T10:38:22Z</time>
      </trkpt>
      <trkpt lat="46.04889" lon="4.69852">
        <ele>206</ele>
        <time>2016-10-08T10:38:23Z</time>
      </trkpt>
      <trkpt lat="46.04885" lon="4.69844">
        <ele>206</ele>
        <time>2016-10-08T10:38:24Z</time>
      </trkpt>
      <trkpt lat="46.04881" lon="4.69839">
        <ele>206</ele>
        <time>2016-10-08T10:38:25Z</time>
      </trkpt>
      <trkpt lat="46.04875" lon="4.69835">
        <ele>206</ele>
        <time>2016-10-08T10:38:26Z</time>
      </trkpt>
      <trkpt lat="46.04867" lon="4.69831">
        <ele>207</ele>
        <time>2016-10-08T10:38:28Z</time>
      </trkpt>
      <trkpt lat="46.04863" lon="4.69829">
        <ele>207</ele>
        <time>2016-10-08T10:38:29Z</time>
      </trkpt>
      <trkpt lat="46.04855" lon="4.69825">
        <ele>207</ele>
        <time>2016-10-08T10:38:31Z</time>
      </trkpt>
      <trkpt lat="46.04851" lon="4.69823">
        <ele>207</ele>
        <time>2016-10-08T10:38:32Z</time>
      </trkpt>
      <trkpt lat="46.04843" lon="4.69821">
        <ele>207</ele>
        <time>2016-10-08T10:38:34Z</time>
      </trkpt>
      <trkpt lat="46.0484" lon="4.69819">
        <ele>207</ele>
        <time>2016-10-08T10:38:35Z</time>
      </trkpt>
      <trkpt lat="46.04832" lon="4.69817">
        <ele>207</ele>
        <time>2016-10-08T10:38:37Z</time>
      </trkpt>
      <trkpt lat="46.04829" lon="4.69816">
        <ele>207</ele>
        <time>2016-10-08T10:38:38Z</time>
      </trkpt>
      <trkpt lat="46.0482" lon="4.69813">
        <ele>207</ele>
        <time>2016-10-08T10:38:40Z</time>
      </trkpt>
      <trkpt lat="46.04816" lon="4.69813">
        <ele>207</ele>
        <time>2016-10-08T10:38:41Z</time>
      </trkpt>
      <trkpt lat="46.04809" lon="4.69811">
        <ele>206</ele>
        <time>2016-10-08T10:38:43Z</time>
      </trkpt>
      <trkpt lat="46.04805" lon="4.69811">
        <ele>206</ele>
        <time>2016-10-08T10:38:44Z</time>
      </trkpt>
      <trkpt lat="46.04799" lon="4.69813">
        <ele>206</ele>
        <time>2016-10-08T10:38:46Z</time>
      </trkpt>
      <trkpt lat="46.04797" lon="4.69817">
        <ele>206</ele>
        <time>2016-10-08T10:38:47Z</time>
      </trkpt>
      <trkpt lat="46.04795" lon="4.69828">
        <ele>206</ele>
        <time>2016-10-08T10:38:49Z</time>
      </trkpt>
      <trkpt lat="46.04793" lon="4.69833">
        <ele>206</ele>
        <time>2016-10-08T10:38:50Z</time>
      </trkpt>
      <trkpt lat="46.04789" lon="4.69837">
        <ele>205</ele>
        <time>2016-10-08T10:38:51Z</time>
      </trkpt>
      <trkpt lat="46.04785" lon="4.6984">
        <ele>205</ele>
        <time>2016-10-08T10:38:52Z</time>
      </trkpt>
      <trkpt lat="46.04779" lon="4.69842">
        <ele>205</ele>
        <time>2016-10-08T10:38:53Z</time>
      </trkpt>
      <trkpt lat="46.04774" lon="4.69843">
        <ele>204</ele>
        <time>2016-10-08T10:38:54Z</time>
      </trkpt>
      <trkpt lat="46.04769" lon="4.69843">
        <ele>205</ele>
        <time>2016-10-08T10:38:55Z</time>
      </trkpt>
      <trkpt lat="46.04761" lon="4.69842">
        <ele>205</ele>
        <time>2016-10-08T10:38:56Z</time>
      </trkpt>
      <trkpt lat="46.04755" lon="4.69841">
        <ele>205</ele>
        <time>2016-10-08T10:38:57Z</time>
      </trkpt>
      <trkpt lat="46.04748" lon="4.69842">
        <ele>204</ele>
        <time>2016-10-08T10:38:58Z</time>
      </trkpt>
      <trkpt lat="46.04742" lon="4.69842">
        <ele>204</ele>
        <time>2016-10-08T10:38:59Z</time>
      </trkpt>
      <trkpt lat="46.04736" lon="4.69843">
        <ele>203</ele>
        <time>2016-10-08T10:39:00Z</time>
      </trkpt>
      <trkpt lat="46.04729" lon="4.69842">
        <ele>203</ele>
        <time>2016-10-08T10:39:01Z</time>
      </trkpt>
      <trkpt lat="46.04722" lon="4.69841">
        <ele>203</ele>
        <time>2016-10-08T10:39:02Z</time>
      </trkpt>
      <trkpt lat="46.04716" lon="4.69841">
        <ele>203</ele>
        <time>2016-10-08T10:39:03Z</time>
      </trkpt>
      <trkpt lat="46.04711" lon="4.6984">
        <ele>203</ele>
        <time>2016-10-08T10:39:04Z</time>
      </trkpt>
      <trkpt lat="46.04706" lon="4.6984">
        <ele>202</ele>
        <time>2016-10-08T10:39:05Z</time>
      </trkpt>
      <trkpt lat="46.047" lon="4.69839">
        <ele>202</ele>
        <time>2016-10-08T10:39:06Z</time>
      </trkpt>
      <trkpt lat="46.04694" lon="4.69838">
        <ele>202</ele>
        <time>2016-10-08T10:39:07Z</time>
      </trkpt>
      <trkpt lat="46.04689" lon="4.69837">
        <ele>202</ele>
        <time>2016-10-08T10:39:08Z</time>
      </trkpt>
      <trkpt lat="46.04682" lon="4.69836">
        <ele>202</ele>
        <time>2016-10-08T10:39:09Z</time>
      </trkpt>
      <trkpt lat="46.04676" lon="4.69833">
        <ele>203</ele>
        <time>2016-10-08T10:39:10Z</time>
      </trkpt>
      <trkpt lat="46.0467" lon="4.69831">
        <ele>203</ele>
        <time>2016-10-08T10:39:11Z</time>
      </trkpt>
      <trkpt lat="46.04664" lon="4.69829">
        <ele>203</ele>
        <time>2016-10-08T10:39:12Z</time>
      </trkpt>
      <trkpt lat="46.04657" lon="4.69827">
        <ele>203</ele>
        <time>2016-10-08T10:39:13Z</time>
      </trkpt>
      <trkpt lat="46.04649" lon="4.69826">
        <ele>202</ele>
        <time>2016-10-08T10:39:14Z</time>
      </trkpt>
      <trkpt lat="46.04644" lon="4.69823">
        <ele>202</ele>
        <time>2016-10-08T10:39:15Z</time>
      </trkpt>
      <trkpt lat="46.04639" lon="4.69821">
        <ele>202</ele>
        <time>2016-10-08T10:39:16Z</time>
      </trkpt>
      <trkpt lat="46.04633" lon="4.69818">
        <ele>202</ele>
        <time>2016-10-08T10:39:17Z</time>
      </trkpt>
      <trkpt lat="46.04627" lon="4.69816">
        <ele>202</ele>
        <time>2016-10-08T10:39:18Z</time>
      </trkpt>
      <trkpt lat="46.04621" lon="4.69814">
        <ele>202</ele>
        <time>2016-10-08T10:39:19Z</time>
      </trkpt>
      <trkpt lat="46.04615" lon="4.69812">
        <ele>201</ele>
        <time>2016-10-08T10:39:20Z</time>
      </trkpt>
      <trkpt lat="46.0461" lon="4.69811">
        <ele>201</ele>
        <time>2016-10-08T10:39:21Z</time>
      </trkpt>
      <trkpt lat="46.04604" lon="4.69809">
        <ele>201</ele>
        <time>2016-10-08T10:39:22Z</time>
      </trkpt>
      <trkpt lat="46.04598" lon="4.69806">
        <ele>201</ele>
        <time>2016-10-08T10:39:23Z</time>
      </trkpt>
      <trkpt lat="46.04594" lon="4.69803">
        <ele>201</ele>
        <time>2016-10-08T10:39:24Z</time>
      </trkpt>
      <trkpt lat="46.04587" lon="4.69802">
        <ele>201</ele>
        <time>2016-10-08T10:39:25Z</time>
      </trkpt>
      <trkpt lat="46.0458" lon="4.698">
        <ele>200</ele>
        <time>2016-10-08T10:39:26Z</time>
      </trkpt>
      <trkpt lat="46.04574" lon="4.69799">
        <ele>200</ele>
        <time>2016-10-08T10:39:27Z</time>
      </trkpt>
      <trkpt lat="46.04567" lon="4.69797">
        <ele>200</ele>
        <time>2016-10-08T10:39:28Z</time>
      </trkpt>
      <trkpt lat="46.04561" lon="4.69796">
        <ele>200</ele>
        <time>2016-10-08T10:39:29Z</time>
      </trkpt>
      <trkpt lat="46.04554" lon="4.69794">
        <ele>199</ele>
        <time>2016-10-08T10:39:30Z</time>
      </trkpt>
      <trkpt lat="46.04548" lon="4.69794">
        <ele>199</ele>
        <time>2016-10-08T10:39:31Z</time>
      </trkpt>
      <trkpt lat="46.04542" lon="4.69793">
        <ele>199</ele>
        <time>2016-10-08T10:39:32Z</time>
      </trkpt>
      <trkpt lat="46.04536" lon="4.69792">
        <ele>199</ele>
        <time>2016-10-08T10:39:33Z</time>
      </trkpt>
      <trkpt lat="46.04529" lon="4.69792">
        <ele>199</ele>
        <time>2016-10-08T10:39:34Z</time>
      </trkpt>
      <trkpt lat="46.04521" lon="4.69792">
        <ele>199</ele>
        <time>2016-10-08T10:39:35Z</time>
      </trkpt>
      <trkpt lat="46.04514" lon="4.69791">
        <ele>199</ele>
        <time>2016-10-08T10:39:36Z</time>
      </trkpt>
      <trkpt lat="46.04507" lon="4.6979">
        <ele>199</ele>
        <time>2016-10-08T10:39:37Z</time>
      </trkpt>
      <trkpt lat="46.045" lon="4.69791">
        <ele>199</ele>
        <time>2016-10-08T10:39:38Z</time>
      </trkpt>
      <trkpt lat="46.04493" lon="4.69791">
        <ele>197</ele>
        <time>2016-10-08T10:39:39Z</time>
      </trkpt>
      <trkpt lat="46.04485" lon="4.69792">
        <ele>197</ele>
        <time>2016-10-08T10:39:40Z</time>
      </trkpt>
      <trkpt lat="46.04477" lon="4.69794">
        <ele>197</ele>
        <time>2016-10-08T10:39:41Z</time>
      </trkpt>
      <trkpt lat="46.0447" lon="4.69796">
        <ele>197</ele>
        <time>2016-10-08T10:39:42Z</time>
      </trkpt>
      <trkpt lat="46.04462" lon="4.69797">
        <ele>197</ele>
        <time>2016-10-08T10:39:43Z</time>
      </trkpt>
      <trkpt lat="46.04454" lon="4.69799">
        <ele>196</ele>
        <time>2016-10-08T10:39:44Z</time>
      </trkpt>
      <trkpt lat="46.04446" lon="4.69801">
        <ele>196</ele>
        <time>2016-10-08T10:39:45Z</time>
      </trkpt>
      <trkpt lat="46.04438" lon="4.69802">
        <ele>196</ele>
        <time>2016-10-08T10:39:46Z</time>
      </trkpt>
      <trkpt lat="46.0443" lon="4.69804">
        <ele>196</ele>
        <time>2016-10-08T10:39:47Z</time>
      </trkpt>
      <trkpt lat="46.04422" lon="4.69807">
        <ele>196</ele>
        <time>2016-10-08T10:39:48Z</time>
      </trkpt>
      <trkpt lat="46.04414" lon="4.69809">
        <ele>194</ele>
        <time>2016-10-08T10:39:49Z</time>
      </trkpt>
      <trkpt lat="46.04407" lon="4.69811">
        <ele>194</ele>
        <time>2016-10-08T10:39:50Z</time>
      </trkpt>
      <trkpt lat="46.04399" lon="4.69814">
        <ele>194</ele>
        <time>2016-10-08T10:39:51Z</time>
      </trkpt>
      <trkpt lat="46.0439" lon="4.69817">
        <ele>194</ele>
        <time>2016-10-08T10:39:52Z</time>
      </trkpt>
      <trkpt lat="46.04382" lon="4.6982">
        <ele>194</ele>
        <time>2016-10-08T10:39:53Z</time>
      </trkpt>
      <trkpt lat="46.04374" lon="4.69824">
        <ele>194</ele>
        <time>2016-10-08T10:39:54Z</time>
      </trkpt>
      <trkpt lat="46.04366" lon="4.69828">
        <ele>193</ele>
        <time>2016-10-08T10:39:55Z</time>
      </trkpt>
      <trkpt lat="46.04359" lon="4.69832">
        <ele>193</ele>
        <time>2016-10-08T10:39:56Z</time>
      </trkpt>
      <trkpt lat="46.04351" lon="4.69837">
        <ele>193</ele>
        <time>2016-10-08T10:39:57Z</time>
      </trkpt>
      <trkpt lat="46.04344" lon="4.69843">
        <ele>192</ele>
        <time>2016-10-08T10:39:58Z</time>
      </trkpt>
      <trkpt lat="46.04337" lon="4.6985">
        <ele>192</ele>
        <time>2016-10-08T10:39:59Z</time>
      </trkpt>
      <trkpt lat="46.04331" lon="4.69859">
        <ele>191</ele>
        <time>2016-10-08T10:40:00Z</time>
      </trkpt>
      <trkpt lat="46.04325" lon="4.69868">
        <ele>191</ele>
        <time>2016-10-08T10:40:01Z</time>
      </trkpt>
      <trkpt lat="46.0432" lon="4.69878">
        <ele>190</ele>
        <time>2016-10-08T10:40:02Z</time>
      </trkpt>
      <trkpt lat="46.04314" lon="4.69888">
        <ele>190</ele>
        <time>2016-10-08T10:40:03Z</time>
      </trkpt>
      <trkpt lat="46.04308" lon="4.69897">
        <ele>190</ele>
        <time>2016-10-08T10:40:04Z</time>
      </trkpt>
      <trkpt lat="46.04302" lon="4.69906">
        <ele>190</ele>
        <time>2016-10-08T10:40:05Z</time>
      </trkpt>
      <trkpt lat="46.04296" lon="4.69914">
        <ele>190</ele>
        <time>2016-10-08T10:40:06Z</time>
      </trkpt>
      <trkpt lat="46.04289" lon="4.69921">
        <ele>189</ele>
        <time>2016-10-08T10:40:07Z</time>
      </trkpt>
      <trkpt lat="46.04282" lon="4.69927">
        <ele>189</ele>
        <time>2016-10-08T10:40:08Z</time>
      </trkpt>
      <trkpt lat="46.04275" lon="4.69933">
        <ele>189</ele>
        <time>2016-10-08T10:40:09Z</time>
      </trkpt>
      <trkpt lat="46.04269" lon="4.69939">
        <ele>189</ele>
        <time>2016-10-08T10:40:10Z</time>
      </trkpt>
      <trkpt lat="46.04263" lon="4.69946">
        <ele>188</ele>
        <time>2016-10-08T10:40:11Z</time>
      </trkpt>
      <trkpt lat="46.04257" lon="4.69953">
        <ele>188</ele>
        <time>2016-10-08T10:40:12Z</time>
      </trkpt>
      <trkpt lat="46.04251" lon="4.69959">
        <ele>188</ele>
        <time>2016-10-08T10:40:13Z</time>
      </trkpt>
      <trkpt lat="46.04245" lon="4.69965">
        <ele>188</ele>
        <time>2016-10-08T10:40:14Z</time>
      </trkpt>
      <trkpt lat="46.04239" lon="4.69971">
        <ele>188</ele>
        <time>2016-10-08T10:40:15Z</time>
      </trkpt>
      <trkpt lat="46.04233" lon="4.69977">
        <ele>188</ele>
        <time>2016-10-08T10:40:16Z</time>
      </trkpt>
      <trkpt lat="46.04228" lon="4.69983">
        <ele>188</ele>
        <time>2016-10-08T10:40:17Z</time>
      </trkpt>
      <trkpt lat="46.04222" lon="4.69988">
        <ele>188</ele>
        <time>2016-10-08T10:40:18Z</time>
      </trkpt>
      <trkpt lat="46.04217" lon="4.69993">
        <ele>188</ele>
        <time>2016-10-08T10:40:19Z</time>
      </trkpt>
      <trkpt lat="46.04213" lon="4.69999">
        <ele>188</ele>
        <time>2016-10-08T10:40:20Z</time>
      </trkpt>
      <trkpt lat="46.04208" lon="4.70004">
        <ele>188</ele>
        <time>2016-10-08T10:40:21Z</time>
      </trkpt>
      <trkpt lat="46.04203" lon="4.70008">
        <ele>188</ele>
        <time>2016-10-08T10:40:22Z</time>
      </trkpt>
      <trkpt lat="46.04198" lon="4.70013">
        <ele>188</ele>
        <time>2016-10-08T10:40:23Z</time>
      </trkpt>
      <trkpt lat="46.04192" lon="4.70018">
        <ele>188</ele>
        <time>2016-10-08T10:40:24Z</time>
      </trkpt>
      <trkpt lat="46.04187" lon="4.70022">
        <ele>189</ele>
        <time>2016-10-08T10:40:25Z</time>
      </trkpt>
      <trkpt lat="46.04181" lon="4.70025">
        <ele>189</ele>
        <time>2016-10-08T10:40:26Z</time>
      </trkpt>
      <trkpt lat="46.04175" lon="4.70029">
        <ele>189</ele>
        <time>2016-10-08T10:40:27Z</time>
      </trkpt>
      <trkpt lat="46.0417" lon="4.70031">
        <ele>189</ele>
        <time>2016-10-08T10:40:28Z</time>
      </trkpt>
      <trkpt lat="46.04165" lon="4.70034">
        <ele>191</ele>
        <time>2016-10-08T10:40:29Z</time>
      </trkpt>
      <trkpt lat="46.04159" lon="4.70038">
        <ele>191</ele>
        <time>2016-10-08T10:40:30Z</time>
      </trkpt>
      <trkpt lat="46.04153" lon="4.70041">
        <ele>191</ele>
        <time>2016-10-08T10:40:31Z</time>
      </trkpt>
      <trkpt lat="46.04148" lon="4.70045">
        <ele>191</ele>
        <time>2016-10-08T10:40:32Z</time>
      </trkpt>
      <trkpt lat="46.04143" lon="4.70049">
        <ele>192</ele>
        <time>2016-10-08T10:40:33Z</time>
      </trkpt>
      <trkpt lat="46.04137" lon="4.70052">
        <ele>192</ele>
        <time>2016-10-08T10:40:34Z</time>
      </trkpt>
      <trkpt lat="46.04132" lon="4.70056">
        <ele>192</ele>
        <time>2016-10-08T10:40:35Z</time>
      </trkpt>
      <trkpt lat="46.04127" lon="4.70059">
        <ele>192</ele>
        <time>2016-10-08T10:40:36Z</time>
      </trkpt>
      <trkpt lat="46.04122" lon="4.70063">
        <ele>192</ele>
        <time>2016-10-08T10:40:37Z</time>
      </trkpt>
      <trkpt lat="46.04117" lon="4.70067">
        <ele>192</ele>
        <time>2016-10-08T10:40:38Z</time>
      </trkpt>
      <trkpt lat="46.04112" lon="4.70071">
        <ele>192</ele>
        <time>2016-10-08T10:40:39Z</time>
      </trkpt>
      <trkpt lat="46.04106" lon="4.70073">
        <ele>193</ele>
        <time>2016-10-08T10:40:40Z</time>
      </trkpt>
      <trkpt lat="46.041" lon="4.70075">
        <ele>193</ele>
        <time>2016-10-08T10:40:41Z</time>
      </trkpt>
      <trkpt lat="46.04095" lon="4.70077">
        <ele>193</ele>
        <time>2016-10-08T10:40:42Z</time>
      </trkpt>
      <trkpt lat="46.04091" lon="4.70077">
        <ele>193</ele>
        <time>2016-10-08T10:40:43Z</time>
      </trkpt>
      <trkpt lat="46.04085" lon="4.70077">
        <ele>194</ele>
        <time>2016-10-08T10:40:44Z</time>
      </trkpt>
      <trkpt lat="46.0408" lon="4.70078">
        <ele>194</ele>
        <time>2016-10-08T10:40:45Z</time>
      </trkpt>
      <trkpt lat="46.04074" lon="4.70078">
        <ele>194</ele>
        <time>2016-10-08T10:40:46Z</time>
      </trkpt>
      <trkpt lat="46.04069" lon="4.70079">
        <ele>194</ele>
        <time>2016-10-08T10:40:47Z</time>
      </trkpt>
      <trkpt lat="46.04063" lon="4.70079">
        <ele>194</ele>
        <time>2016-10-08T10:40:48Z</time>
      </trkpt>
      <trkpt lat="46.04059" lon="4.70079">
        <ele>194</ele>
        <time>2016-10-08T10:40:49Z</time>
      </trkpt>
      <trkpt lat="46.04053" lon="4.7008">
        <ele>194</ele>
        <time>2016-10-08T10:40:50Z</time>
      </trkpt>
      <trkpt lat="46.04045" lon="4.70079">
        <ele>194</ele>
        <time>2016-10-08T10:40:51Z</time>
      </trkpt>
      <trkpt lat="46.04037" lon="4.7008">
        <ele>195</ele>
        <time>2016-10-08T10:40:52Z</time>
      </trkpt>
      <trkpt lat="46.04028" lon="4.70081">
        <ele>195</ele>
        <time>2016-10-08T10:40:54Z</time>
      </trkpt>
      <trkpt lat="46.04023" lon="4.70082">
        <ele>195</ele>
        <time>2016-10-08T10:40:55Z</time>
      </trkpt>
      <trkpt lat="46.04017" lon="4.70082">
        <ele>195</ele>
        <time>2016-10-08T10:40:56Z</time>
      </trkpt>
      <trkpt lat="46.04011" lon="4.70082">
        <ele>195</ele>
        <time>2016-10-08T10:40:57Z</time>
      </trkpt>
      <trkpt lat="46.04005" lon="4.70083">
        <ele>196</ele>
        <time>2016-10-08T10:40:58Z</time>
      </trkpt>
      <trkpt lat="46.03999" lon="4.70084">
        <ele>196</ele>
        <time>2016-10-08T10:40:59Z</time>
      </trkpt>
      <trkpt lat="46.03995" lon="4.70084">
        <ele>196</ele>
        <time>2016-10-08T10:41:00Z</time>
      </trkpt>
      <trkpt lat="46.03989" lon="4.70086">
        <ele>196</ele>
        <time>2016-10-08T10:41:01Z</time>
      </trkpt>
      <trkpt lat="46.03984" lon="4.70087">
        <ele>196</ele>
        <time>2016-10-08T10:41:02Z</time>
      </trkpt>
      <trkpt lat="46.03977" lon="4.70089">
        <ele>196</ele>
        <time>2016-10-08T10:41:03Z</time>
      </trkpt>
      <trkpt lat="46.03972" lon="4.70091">
        <ele>196</ele>
        <time>2016-10-08T10:41:04Z</time>
      </trkpt>
      <trkpt lat="46.03966" lon="4.70093">
        <ele>196</ele>
        <time>2016-10-08T10:41:05Z</time>
      </trkpt>
      <trkpt lat="46.0396" lon="4.70095">
        <ele>196</ele>
        <time>2016-10-08T10:41:06Z</time>
      </trkpt>
      <trkpt lat="46.03953" lon="4.70097">
        <ele>196</ele>
        <time>2016-10-08T10:41:07Z</time>
      </trkpt>
      <trkpt lat="46.03948" lon="4.70099">
        <ele>196</ele>
        <time>2016-10-08T10:41:08Z</time>
      </trkpt>
      <trkpt lat="46.03942" lon="4.70101">
        <ele>196</ele>
        <time>2016-10-08T10:41:09Z</time>
      </trkpt>
      <trkpt lat="46.03936" lon="4.70104">
        <ele>196</ele>
        <time>2016-10-08T10:41:10Z</time>
      </trkpt>
      <trkpt lat="46.0393" lon="4.70106">
        <ele>196</ele>
        <time>2016-10-08T10:41:11Z</time>
      </trkpt>
      <trkpt lat="46.03925" lon="4.70108">
        <ele>196</ele>
        <time>2016-10-08T10:41:12Z</time>
      </trkpt>
      <trkpt lat="46.03919" lon="4.7011">
        <ele>196</ele>
        <time>2016-10-08T10:41:13Z</time>
      </trkpt>
      <trkpt lat="46.03913" lon="4.70112">
        <ele>194</ele>
        <time>2016-10-08T10:41:14Z</time>
      </trkpt>
      <trkpt lat="46.03907" lon="4.70115">
        <ele>194</ele>
        <time>2016-10-08T10:41:15Z</time>
      </trkpt>
      <trkpt lat="46.03901" lon="4.70117">
        <ele>194</ele>
        <time>2016-10-08T10:41:16Z</time>
      </trkpt>
      <trkpt lat="46.03895" lon="4.70119">
        <ele>194</ele>
        <time>2016-10-08T10:41:17Z</time>
      </trkpt>
      <trkpt lat="46.03889" lon="4.70121">
        <ele>193</ele>
        <time>2016-10-08T10:41:18Z</time>
      </trkpt>
      <trkpt lat="46.03883" lon="4.70123">
        <ele>193</ele>
        <time>2016-10-08T10:41:19Z</time>
      </trkpt>
      <trkpt lat="46.03877" lon="4.70125">
        <ele>193</ele>
        <time>2016-10-08T10:41:20Z</time>
      </trkpt>
      <trkpt lat="46.03871" lon="4.70127">
        <ele>193</ele>
        <time>2016-10-08T10:41:21Z</time>
      </trkpt>
      <trkpt lat="46.03862" lon="4.70131">
        <ele>193</ele>
        <time>2016-10-08T10:41:22Z</time>
      </trkpt>
      <trkpt lat="46.03855" lon="4.70134">
        <ele>193</ele>
        <time>2016-10-08T10:41:23Z</time>
      </trkpt>
      <trkpt lat="46.03847" lon="4.70136">
        <ele>192</ele>
        <time>2016-10-08T10:41:24Z</time>
      </trkpt>
      <trkpt lat="46.03841" lon="4.70137">
        <ele>192</ele>
        <time>2016-10-08T10:41:25Z</time>
      </trkpt>
      <trkpt lat="46.03834" lon="4.70139">
        <ele>192</ele>
        <time>2016-10-08T10:41:26Z</time>
      </trkpt>
      <trkpt lat="46.03828" lon="4.70141">
        <ele>190</ele>
        <time>2016-10-08T10:41:27Z</time>
      </trkpt>
      <trkpt lat="46.03823" lon="4.70142">
        <ele>190</ele>
        <time>2016-10-08T10:41:28Z</time>
      </trkpt>
      <trkpt lat="46.03817" lon="4.70143">
        <ele>190</ele>
        <time>2016-10-08T10:41:29Z</time>
      </trkpt>
      <trkpt lat="46.0381" lon="4.70145">
        <ele>190</ele>
        <time>2016-10-08T10:41:30Z</time>
      </trkpt>
      <trkpt lat="46.03805" lon="4.70147">
        <ele>190</ele>
        <time>2016-10-08T10:41:31Z</time>
      </trkpt>
      <trkpt lat="46.038" lon="4.70149">
        <ele>189</ele>
        <time>2016-10-08T10:41:32Z</time>
      </trkpt>
      <trkpt lat="46.03795" lon="4.7015">
        <ele>189</ele>
        <time>2016-10-08T10:41:33Z</time>
      </trkpt>
      <trkpt lat="46.0379" lon="4.70152">
        <ele>189</ele>
        <time>2016-10-08T10:41:34Z</time>
      </trkpt>
      <trkpt lat="46.03784" lon="4.70153">
        <ele>189</ele>
        <time>2016-10-08T10:41:35Z</time>
      </trkpt>
      <trkpt lat="46.03779" lon="4.70155">
        <ele>189</ele>
        <time>2016-10-08T10:41:36Z</time>
      </trkpt>
      <trkpt lat="46.03773" lon="4.70157">
        <ele>188</ele>
        <time>2016-10-08T10:41:37Z</time>
      </trkpt>
      <trkpt lat="46.03767" lon="4.70159">
        <ele>188</ele>
        <time>2016-10-08T10:41:38Z</time>
      </trkpt>
      <trkpt lat="46.03762" lon="4.70161">
        <ele>188</ele>
        <time>2016-10-08T10:41:39Z</time>
      </trkpt>
      <trkpt lat="46.03757" lon="4.70163">
        <ele>188</ele>
        <time>2016-10-08T10:41:40Z</time>
      </trkpt>
      <trkpt lat="46.03752" lon="4.70165">
        <ele>187</ele>
        <time>2016-10-08T10:41:41Z</time>
      </trkpt>
      <trkpt lat="46.03747" lon="4.70167">
        <ele>187</ele>
        <time>2016-10-08T10:41:42Z</time>
      </trkpt>
      <trkpt lat="46.03743" lon="4.70169">
        <ele>187</ele>
        <time>2016-10-08T10:41:43Z</time>
      </trkpt>
      <trkpt lat="46.03738" lon="4.7017">
        <ele>188</ele>
        <time>2016-10-08T10:41:44Z</time>
      </trkpt>
      <trkpt lat="46.03734" lon="4.70171">
        <ele>188</ele>
        <time>2016-10-08T10:41:45Z</time>
      </trkpt>
      <trkpt lat="46.03729" lon="4.70172">
        <ele>188</ele>
        <time>2016-10-08T10:41:46Z</time>
      </trkpt>
      <trkpt lat="46.03723" lon="4.70174">
        <ele>188</ele>
        <time>2016-10-08T10:41:47Z</time>
      </trkpt>
      <trkpt lat="46.03718" lon="4.70176">
        <ele>188</ele>
        <time>2016-10-08T10:41:48Z</time>
      </trkpt>
      <trkpt lat="46.03713" lon="4.70178">
        <ele>188</ele>
        <time>2016-10-08T10:41:49Z</time>
      </trkpt>
      <trkpt lat="46.03708" lon="4.7018">
        <ele>189</ele>
        <time>2016-10-08T10:41:50Z</time>
      </trkpt>
      <trkpt lat="46.03702" lon="4.70181">
        <ele>189</ele>
        <time>2016-10-08T10:41:51Z</time>
      </trkpt>
      <trkpt lat="46.03697" lon="4.70184">
        <ele>189</ele>
        <time>2016-10-08T10:41:52Z</time>
      </trkpt>
      <trkpt lat="46.03692" lon="4.70186">
        <ele>189</ele>
        <time>2016-10-08T10:41:53Z</time>
      </trkpt>
      <trkpt lat="46.03687" lon="4.70189">
        <ele>189</ele>
        <time>2016-10-08T10:41:54Z</time>
      </trkpt>
      <trkpt lat="46.03681" lon="4.70191">
        <ele>189</ele>
        <time>2016-10-08T10:41:55Z</time>
      </trkpt>
      <trkpt lat="46.03677" lon="4.70195">
        <ele>189</ele>
        <time>2016-10-08T10:41:56Z</time>
      </trkpt>
      <trkpt lat="46.03669" lon="4.70201">
        <ele>189</ele>
        <time>2016-10-08T10:41:58Z</time>
      </trkpt>
      <trkpt lat="46.03666" lon="4.70202">
        <ele>190</ele>
        <time>2016-10-08T10:41:59Z</time>
      </trkpt>
      <trkpt lat="46.03659" lon="4.70205">
        <ele>190</ele>
        <time>2016-10-08T10:42:01Z</time>
      </trkpt>
      <trkpt lat="46.03655" lon="4.70207">
        <ele>190</ele>
        <time>2016-10-08T10:42:02Z</time>
      </trkpt>
      <trkpt lat="46.03648" lon="4.70211">
        <ele>190</ele>
        <time>2016-10-08T10:42:04Z</time>
      </trkpt>
      <trkpt lat="46.03643" lon="4.70213">
        <ele>190</ele>
        <time>2016-10-08T10:42:05Z</time>
      </trkpt>
      <trkpt lat="46.03638" lon="4.70216">
        <ele>190</ele>
        <time>2016-10-08T10:42:06Z</time>
      </trkpt>
      <trkpt lat="46.03633" lon="4.70218">
        <ele>190</ele>
        <time>2016-10-08T10:42:07Z</time>
      </trkpt>
      <trkpt lat="46.03629" lon="4.70219">
        <ele>190</ele>
        <time>2016-10-08T10:42:08Z</time>
      </trkpt>
      <trkpt lat="46.03624" lon="4.70221">
        <ele>190</ele>
        <time>2016-10-08T10:42:09Z</time>
      </trkpt>
      <trkpt lat="46.03616" lon="4.70224">
        <ele>190</ele>
        <time>2016-10-08T10:42:11Z</time>
      </trkpt>
      <trkpt lat="46.03612" lon="4.70225">
        <ele>190</ele>
        <time>2016-10-08T10:42:12Z</time>
      </trkpt>
      <trkpt lat="46.03604" lon="4.70227">
        <ele>190</ele>
        <time>2016-10-08T10:42:14Z</time>
      </trkpt>
      <trkpt lat="46.036" lon="4.70229">
        <ele>190</ele>
        <time>2016-10-08T10:42:15Z</time>
      </trkpt>
      <trkpt lat="46.03594" lon="4.7023">
        <ele>190</ele>
        <time>2016-10-08T10:42:16Z</time>
      </trkpt>
      <trkpt lat="46.03589" lon="4.70232">
        <ele>190</ele>
        <time>2016-10-08T10:42:17Z</time>
      </trkpt>
      <trkpt lat="46.03583" lon="4.70234">
        <ele>190</ele>
        <time>2016-10-08T10:42:18Z</time>
      </trkpt>
      <trkpt lat="46.03578" lon="4.70236">
        <ele>190</ele>
        <time>2016-10-08T10:42:19Z</time>
      </trkpt>
      <trkpt lat="46.03573" lon="4.70238">
        <ele>190</ele>
        <time>2016-10-08T10:42:20Z</time>
      </trkpt>
      <trkpt lat="46.03568" lon="4.7024">
        <ele>190</ele>
        <time>2016-10-08T10:42:21Z</time>
      </trkpt>
      <trkpt lat="46.03562" lon="4.70242">
        <ele>190</ele>
        <time>2016-10-08T10:42:22Z</time>
      </trkpt>
      <trkpt lat="46.03556" lon="4.70244">
        <ele>190</ele>
        <time>2016-10-08T10:42:23Z</time>
      </trkpt>
      <trkpt lat="46.0355" lon="4.70246">
        <ele>189</ele>
        <time>2016-10-08T10:42:24Z</time>
      </trkpt>
      <trkpt lat="46.03544" lon="4.70248">
        <ele>189</ele>
        <time>2016-10-08T10:42:25Z</time>
      </trkpt>
      <trkpt lat="46.03538" lon="4.7025">
        <ele>189</ele>
        <time>2016-10-08T10:42:26Z</time>
      </trkpt>
      <trkpt lat="46.03533" lon="4.70251">
        <ele>188</ele>
        <time>2016-10-08T10:42:27Z</time>
      </trkpt>
      <trkpt lat="46.03528" lon="4.70254">
        <ele>187</ele>
        <time>2016-10-08T10:42:28Z</time>
      </trkpt>
      <trkpt lat="46.03522" lon="4.70256">
        <ele>187</ele>
        <time>2016-10-08T10:42:29Z</time>
      </trkpt>
      <trkpt lat="46.03517" lon="4.70258">
        <ele>187</ele>
        <time>2016-10-08T10:42:30Z</time>
      </trkpt>
      <trkpt lat="46.03512" lon="4.70259">
        <ele>187</ele>
        <time>2016-10-08T10:42:31Z</time>
      </trkpt>
      <trkpt lat="46.03506" lon="4.70261">
        <ele>187</ele>
        <time>2016-10-08T10:42:32Z</time>
      </trkpt>
      <trkpt lat="46.03501" lon="4.70264">
        <ele>187</ele>
        <time>2016-10-08T10:42:33Z</time>
      </trkpt>
      <trkpt lat="46.03496" lon="4.70266">
        <ele>187</ele>
        <time>2016-10-08T10:42:34Z</time>
      </trkpt>
      <trkpt lat="46.03492" lon="4.70268">
        <ele>188</ele>
        <time>2016-10-08T10:42:35Z</time>
      </trkpt>
      <trkpt lat="46.03484" lon="4.70272">
        <ele>188</ele>
        <time>2016-10-08T10:42:37Z</time>
      </trkpt>
      <trkpt lat="46.0348" lon="4.70274">
        <ele>188</ele>
        <time>2016-10-08T10:42:38Z</time>
      </trkpt>
      <trkpt lat="46.03472" lon="4.70277">
        <ele>188</ele>
        <time>2016-10-08T10:42:40Z</time>
      </trkpt>
      <trkpt lat="46.03467" lon="4.70279">
        <ele>188</ele>
        <time>2016-10-08T10:42:41Z</time>
      </trkpt>
      <trkpt lat="46.03462" lon="4.70281">
        <ele>188</ele>
        <time>2016-10-08T10:42:42Z</time>
      </trkpt>
      <trkpt lat="46.03456" lon="4.70283">
        <ele>188</ele>
        <time>2016-10-08T10:42:43Z</time>
      </trkpt>
      <trkpt lat="46.0345" lon="4.70285">
        <ele>188</ele>
        <time>2016-10-08T10:42:44Z</time>
      </trkpt>
      <trkpt lat="46.03445" lon="4.70287">
        <ele>188</ele>
        <time>2016-10-08T10:42:45Z</time>
      </trkpt>
      <trkpt lat="46.03437" lon="4.70289">
        <ele>188</ele>
        <time>2016-10-08T10:42:46Z</time>
      </trkpt>
      <trkpt lat="46.0343" lon="4.70291">
        <ele>188</ele>
        <time>2016-10-08T10:42:47Z</time>
      </trkpt>
      <trkpt lat="46.03424" lon="4.70293">
        <ele>188</ele>
        <time>2016-10-08T10:42:48Z</time>
      </trkpt>
      <trkpt lat="46.03418" lon="4.70294">
        <ele>188</ele>
        <time>2016-10-08T10:42:49Z</time>
      </trkpt>
      <trkpt lat="46.03413" lon="4.70296">
        <ele>190</ele>
        <time>2016-10-08T10:42:50Z</time>
      </trkpt>
      <trkpt lat="46.03409" lon="4.70298">
        <ele>190</ele>
        <time>2016-10-08T10:42:51Z</time>
      </trkpt>
      <trkpt lat="46.03405" lon="4.70299">
        <ele>190</ele>
        <time>2016-10-08T10:42:52Z</time>
      </trkpt>
      <trkpt lat="46.034" lon="4.70301">
        <ele>191</ele>
        <time>2016-10-08T10:42:53Z</time>
      </trkpt>
      <trkpt lat="46.03394" lon="4.70302">
        <ele>191</ele>
        <time>2016-10-08T10:42:54Z</time>
      </trkpt>
      <trkpt lat="46.03388" lon="4.70303">
        <ele>191</ele>
        <time>2016-10-08T10:42:55Z</time>
      </trkpt>
      <trkpt lat="46.03382" lon="4.70305">
        <ele>191</ele>
        <time>2016-10-08T10:42:56Z</time>
      </trkpt>
      <trkpt lat="46.03376" lon="4.70306">
        <ele>191</ele>
        <time>2016-10-08T10:42:57Z</time>
      </trkpt>
      <trkpt lat="46.03371" lon="4.70308">
        <ele>191</ele>
        <time>2016-10-08T10:42:58Z</time>
      </trkpt>
      <trkpt lat="46.03366" lon="4.7031">
        <ele>191</ele>
        <time>2016-10-08T10:42:59Z</time>
      </trkpt>
      <trkpt lat="46.03357" lon="4.70313">
        <ele>191</ele>
        <time>2016-10-08T10:43:01Z</time>
      </trkpt>
      <trkpt lat="46.03353" lon="4.70314">
        <ele>191</ele>
        <time>2016-10-08T10:43:02Z</time>
      </trkpt>
      <trkpt lat="46.03345" lon="4.70318">
        <ele>191</ele>
        <time>2016-10-08T10:43:04Z</time>
      </trkpt>
      <trkpt lat="46.03341" lon="4.7032">
        <ele>191</ele>
        <time>2016-10-08T10:43:05Z</time>
      </trkpt>
      <trkpt lat="46.03334" lon="4.70324">
        <ele>191</ele>
        <time>2016-10-08T10:43:07Z</time>
      </trkpt>
      <trkpt lat="46.03331" lon="4.70325">
        <ele>192</ele>
        <time>2016-10-08T10:43:08Z</time>
      </trkpt>
      <trkpt lat="46.03323" lon="4.70329">
        <ele>192</ele>
        <time>2016-10-08T10:43:10Z</time>
      </trkpt>
      <trkpt lat="46.03319" lon="4.7033">
        <ele>192</ele>
        <time>2016-10-08T10:43:11Z</time>
      </trkpt>
      <trkpt lat="46.03311" lon="4.70333">
        <ele>192</ele>
        <time>2016-10-08T10:43:13Z</time>
      </trkpt>
      <trkpt lat="46.03307" lon="4.70334">
        <ele>191</ele>
        <time>2016-10-08T10:43:14Z</time>
      </trkpt>
      <trkpt lat="46.033" lon="4.70337">
        <ele>191</ele>
        <time>2016-10-08T10:43:16Z</time>
      </trkpt>
      <trkpt lat="46.03296" lon="4.70338">
        <ele>191</ele>
        <time>2016-10-08T10:43:17Z</time>
      </trkpt>
      <trkpt lat="46.03288" lon="4.70341">
        <ele>191</ele>
        <time>2016-10-08T10:43:19Z</time>
      </trkpt>
      <trkpt lat="46.03284" lon="4.70342">
        <ele>191</ele>
        <time>2016-10-08T10:43:20Z</time>
      </trkpt>
      <trkpt lat="46.03279" lon="4.70343">
        <ele>191</ele>
        <time>2016-10-08T10:43:21Z</time>
      </trkpt>
      <trkpt lat="46.03275" lon="4.70344">
        <ele>191</ele>
        <time>2016-10-08T10:43:22Z</time>
      </trkpt>
      <trkpt lat="46.03266" lon="4.70347">
        <ele>191</ele>
        <time>2016-10-08T10:43:24Z</time>
      </trkpt>
      <trkpt lat="46.03261" lon="4.70349">
        <ele>191</ele>
        <time>2016-10-08T10:43:25Z</time>
      </trkpt>
      <trkpt lat="46.03256" lon="4.7035">
        <ele>191</ele>
        <time>2016-10-08T10:43:26Z</time>
      </trkpt>
      <trkpt lat="46.03252" lon="4.70352">
        <ele>191</ele>
        <time>2016-10-08T10:43:27Z</time>
      </trkpt>
      <trkpt lat="46.03247" lon="4.70354">
        <ele>192</ele>
        <time>2016-10-08T10:43:28Z</time>
      </trkpt>
      <trkpt lat="46.03243" lon="4.70356">
        <ele>192</ele>
        <time>2016-10-08T10:43:29Z</time>
      </trkpt>
      <trkpt lat="46.03238" lon="4.70358">
        <ele>192</ele>
        <time>2016-10-08T10:43:30Z</time>
      </trkpt>
      <trkpt lat="46.03234" lon="4.7036">
        <ele>192</ele>
        <time>2016-10-08T10:43:31Z</time>
      </trkpt>
      <trkpt lat="46.03229" lon="4.70362">
        <ele>192</ele>
        <time>2016-10-08T10:43:32Z</time>
      </trkpt>
      <trkpt lat="46.03225" lon="4.70364">
        <ele>192</ele>
        <time>2016-10-08T10:43:33Z</time>
      </trkpt>
      <trkpt lat="46.03217" lon="4.70368">
        <ele>192</ele>
        <time>2016-10-08T10:43:35Z</time>
      </trkpt>
      <trkpt lat="46.03214" lon="4.7037">
        <ele>192</ele>
        <time>2016-10-08T10:43:36Z</time>
      </trkpt>
      <trkpt lat="46.03211" lon="4.70373">
        <ele>192</ele>
        <time>2016-10-08T10:43:37Z</time>
      </trkpt>
      <trkpt lat="46.03188" lon="4.70385">
        <ele>192</ele>
        <time>2016-10-08T10:43:38Z</time>
      </trkpt>
      <trkpt lat="46.03183" lon="4.70387">
        <ele>192</ele>
        <time>2016-10-08T10:43:39Z</time>
      </trkpt>
      <trkpt lat="46.03178" lon="4.7039">
        <ele>192</ele>
        <time>2016-10-08T10:43:40Z</time>
      </trkpt>
      <trkpt lat="46.03173" lon="4.70392">
        <ele>192</ele>
        <time>2016-10-08T10:43:41Z</time>
      </trkpt>
      <trkpt lat="46.03168" lon="4.70395">
        <ele>192</ele>
        <time>2016-10-08T10:43:42Z</time>
      </trkpt>
      <trkpt lat="46.03163" lon="4.704">
        <ele>192</ele>
        <time>2016-10-08T10:43:43Z</time>
      </trkpt>
      <trkpt lat="46.03159" lon="4.70404">
        <ele>192</ele>
        <time>2016-10-08T10:43:44Z</time>
      </trkpt>
      <trkpt lat="46.03154" lon="4.70407">
        <ele>192</ele>
        <time>2016-10-08T10:43:45Z</time>
      </trkpt>
      <trkpt lat="46.0315" lon="4.70409">
        <ele>192</ele>
        <time>2016-10-08T10:43:46Z</time>
      </trkpt>
      <trkpt lat="46.03145" lon="4.70412">
        <ele>192</ele>
        <time>2016-10-08T10:43:47Z</time>
      </trkpt>
      <trkpt lat="46.0314" lon="4.70415">
        <ele>192</ele>
        <time>2016-10-08T10:43:48Z</time>
      </trkpt>
      <trkpt lat="46.03135" lon="4.70418">
        <ele>192</ele>
        <time>2016-10-08T10:43:49Z</time>
      </trkpt>
      <trkpt lat="46.0313" lon="4.70421">
        <ele>192</ele>
        <time>2016-10-08T10:43:50Z</time>
      </trkpt>
      <trkpt lat="46.03125" lon="4.70424">
        <ele>192</ele>
        <time>2016-10-08T10:43:51Z</time>
      </trkpt>
      <trkpt lat="46.03119" lon="4.70427">
        <ele>192</ele>
        <time>2016-10-08T10:43:52Z</time>
      </trkpt>
      <trkpt lat="46.03114" lon="4.7043">
        <ele>192</ele>
        <time>2016-10-08T10:43:53Z</time>
      </trkpt>
      <trkpt lat="46.03109" lon="4.70432">
        <ele>192</ele>
        <time>2016-10-08T10:43:54Z</time>
      </trkpt>
      <trkpt lat="46.03105" lon="4.70437">
        <ele>192</ele>
        <time>2016-10-08T10:43:55Z</time>
      </trkpt>
      <trkpt lat="46.03099" lon="4.7044">
        <ele>192</ele>
        <time>2016-10-08T10:43:56Z</time>
      </trkpt>
      <trkpt lat="46.03094" lon="4.70442">
        <ele>192</ele>
        <time>2016-10-08T10:43:57Z</time>
      </trkpt>
      <trkpt lat="46.0309" lon="4.70444">
        <ele>192</ele>
        <time>2016-10-08T10:43:58Z</time>
      </trkpt>
      <trkpt lat="46.03085" lon="4.70446">
        <ele>192</ele>
        <time>2016-10-08T10:43:59Z</time>
      </trkpt>
      <trkpt lat="46.03081" lon="4.70448">
        <ele>191</ele>
        <time>2016-10-08T10:44:00Z</time>
      </trkpt>
      <trkpt lat="46.03076" lon="4.7045">
        <ele>191</ele>
        <time>2016-10-08T10:44:01Z</time>
      </trkpt>
      <trkpt lat="46.0307" lon="4.70453">
        <ele>191</ele>
        <time>2016-10-08T10:44:02Z</time>
      </trkpt>
      <trkpt lat="46.03064" lon="4.70456">
        <ele>191</ele>
        <time>2016-10-08T10:44:03Z</time>
      </trkpt>
      <trkpt lat="46.03059" lon="4.70461">
        <ele>191</ele>
        <time>2016-10-08T10:44:04Z</time>
      </trkpt>
      <trkpt lat="46.03054" lon="4.70465">
        <ele>191</ele>
        <time>2016-10-08T10:44:05Z</time>
      </trkpt>
      <trkpt lat="46.03049" lon="4.7047">
        <ele>191</ele>
        <time>2016-10-08T10:44:06Z</time>
      </trkpt>
      <trkpt lat="46.03044" lon="4.70474">
        <ele>191</ele>
        <time>2016-10-08T10:44:07Z</time>
      </trkpt>
      <trkpt lat="46.03038" lon="4.70478">
        <ele>191</ele>
        <time>2016-10-08T10:44:08Z</time>
      </trkpt>
      <trkpt lat="46.03033" lon="4.70482">
        <ele>191</ele>
        <time>2016-10-08T10:44:09Z</time>
      </trkpt>
      <trkpt lat="46.03028" lon="4.70487">
        <ele>191</ele>
        <time>2016-10-08T10:44:10Z</time>
      </trkpt>
      <trkpt lat="46.03023" lon="4.7049">
        <ele>191</ele>
        <time>2016-10-08T10:44:11Z</time>
      </trkpt>
      <trkpt lat="46.03018" lon="4.70495">
        <ele>191</ele>
        <time>2016-10-08T10:44:12Z</time>
      </trkpt>
      <trkpt lat="46.03013" lon="4.70499">
        <ele>191</ele>
        <time>2016-10-08T10:44:13Z</time>
      </trkpt>
      <trkpt lat="46.03008" lon="4.70504">
        <ele>191</ele>
        <time>2016-10-08T10:44:14Z</time>
      </trkpt>
      <trkpt lat="46.03004" lon="4.70508">
        <ele>191</ele>
        <time>2016-10-08T10:44:15Z</time>
      </trkpt>
      <trkpt lat="46.02999" lon="4.70512">
        <ele>191</ele>
        <time>2016-10-08T10:44:16Z</time>
      </trkpt>
      <trkpt lat="46.02994" lon="4.70517">
        <ele>191</ele>
        <time>2016-10-08T10:44:17Z</time>
      </trkpt>
      <trkpt lat="46.02989" lon="4.70521">
        <ele>191</ele>
        <time>2016-10-08T10:44:18Z</time>
      </trkpt>
      <trkpt lat="46.02985" lon="4.70525">
        <ele>191</ele>
        <time>2016-10-08T10:44:19Z</time>
      </trkpt>
      <trkpt lat="46.0298" lon="4.70529">
        <ele>191</ele>
        <time>2016-10-08T10:44:20Z</time>
      </trkpt>
      <trkpt lat="46.02975" lon="4.70533">
        <ele>191</ele>
        <time>2016-10-08T10:44:21Z</time>
      </trkpt>
      <trkpt lat="46.02971" lon="4.70538">
        <ele>191</ele>
        <time>2016-10-08T10:44:22Z</time>
      </trkpt>
      <trkpt lat="46.02966" lon="4.70543">
        <ele>191</ele>
        <time>2016-10-08T10:44:23Z</time>
      </trkpt>
      <trkpt lat="46.02962" lon="4.70548">
        <ele>191</ele>
        <time>2016-10-08T10:44:24Z</time>
      </trkpt>
      <trkpt lat="46.02957" lon="4.70553">
        <ele>191</ele>
        <time>2016-10-08T10:44:25Z</time>
      </trkpt>
      <trkpt lat="46.02953" lon="4.70558">
        <ele>191</ele>
        <time>2016-10-08T10:44:26Z</time>
      </trkpt>
      <trkpt lat="46.02948" lon="4.70564">
        <ele>191</ele>
        <time>2016-10-08T10:44:27Z</time>
      </trkpt>
      <trkpt lat="46.02945" lon="4.70571">
        <ele>191</ele>
        <time>2016-10-08T10:44:28Z</time>
      </trkpt>
      <trkpt lat="46.02942" lon="4.70579">
        <ele>191</ele>
        <time>2016-10-08T10:44:29Z</time>
      </trkpt>
      <trkpt lat="46.0294" lon="4.70587">
        <ele>192</ele>
        <time>2016-10-08T10:44:30Z</time>
      </trkpt>
      <trkpt lat="46.02937" lon="4.70595">
        <ele>192</ele>
        <time>2016-10-08T10:44:31Z</time>
      </trkpt>
      <trkpt lat="46.02935" lon="4.70602">
        <ele>192</ele>
        <time>2016-10-08T10:44:32Z</time>
      </trkpt>
      <trkpt lat="46.02932" lon="4.7061">
        <ele>192</ele>
        <time>2016-10-08T10:44:33Z</time>
      </trkpt>
      <trkpt lat="46.02931" lon="4.70617">
        <ele>192</ele>
        <time>2016-10-08T10:44:34Z</time>
      </trkpt>
      <trkpt lat="46.02929" lon="4.70624">
        <ele>192</ele>
        <time>2016-10-08T10:44:35Z</time>
      </trkpt>
      <trkpt lat="46.02927" lon="4.70631">
        <ele>192</ele>
        <time>2016-10-08T10:44:36Z</time>
      </trkpt>
      <trkpt lat="46.02925" lon="4.70638">
        <ele>192</ele>
        <time>2016-10-08T10:44:37Z</time>
      </trkpt>
      <trkpt lat="46.02923" lon="4.70645">
        <ele>192</ele>
        <time>2016-10-08T10:44:38Z</time>
      </trkpt>
      <trkpt lat="46.0292" lon="4.70652">
        <ele>191</ele>
        <time>2016-10-08T10:44:39Z</time>
      </trkpt>
      <trkpt lat="46.02916" lon="4.70656">
        <ele>191</ele>
        <time>2016-10-08T10:44:40Z</time>
      </trkpt>
      <trkpt lat="46.02911" lon="4.70658">
        <ele>191</ele>
        <time>2016-10-08T10:44:41Z</time>
      </trkpt>
      <trkpt lat="46.02905" lon="4.70659">
        <ele>191</ele>
        <time>2016-10-08T10:44:42Z</time>
      </trkpt>
      <trkpt lat="46.02899" lon="4.70659">
        <ele>191</ele>
        <time>2016-10-08T10:44:43Z</time>
      </trkpt>
      <trkpt lat="46.02894" lon="4.70659">
        <ele>190</ele>
        <time>2016-10-08T10:44:44Z</time>
      </trkpt>
      <trkpt lat="46.02888" lon="4.70659">
        <ele>190</ele>
        <time>2016-10-08T10:44:45Z</time>
      </trkpt>
      <trkpt lat="46.02882" lon="4.70659">
        <ele>190</ele>
        <time>2016-10-08T10:44:46Z</time>
      </trkpt>
      <trkpt lat="46.02876" lon="4.70659">
        <ele>190</ele>
        <time>2016-10-08T10:44:47Z</time>
      </trkpt>
      <trkpt lat="46.02869" lon="4.70659">
        <ele>190</ele>
        <time>2016-10-08T10:44:48Z</time>
      </trkpt>
      <trkpt lat="46.02863" lon="4.7066">
        <ele>190</ele>
        <time>2016-10-08T10:44:49Z</time>
      </trkpt>
      <trkpt lat="46.02856" lon="4.7066">
        <ele>190</ele>
        <time>2016-10-08T10:44:50Z</time>
      </trkpt>
      <trkpt lat="46.0285" lon="4.70662">
        <ele>190</ele>
        <time>2016-10-08T10:44:51Z</time>
      </trkpt>
      <trkpt lat="46.02843" lon="4.70663">
        <ele>189</ele>
        <time>2016-10-08T10:44:52Z</time>
      </trkpt>
      <trkpt lat="46.02837" lon="4.70665">
        <ele>189</ele>
        <time>2016-10-08T10:44:53Z</time>
      </trkpt>
      <trkpt lat="46.02831" lon="4.70666">
        <ele>189</ele>
        <time>2016-10-08T10:44:54Z</time>
      </trkpt>
      <trkpt lat="46.02825" lon="4.70667">
        <ele>189</ele>
        <time>2016-10-08T10:44:55Z</time>
      </trkpt>
      <trkpt lat="46.02819" lon="4.70667">
        <ele>189</ele>
        <time>2016-10-08T10:44:56Z</time>
      </trkpt>
      <trkpt lat="46.02813" lon="4.70668">
        <ele>189</ele>
        <time>2016-10-08T10:44:57Z</time>
      </trkpt>
      <trkpt lat="46.02806" lon="4.70669">
        <ele>189</ele>
        <time>2016-10-08T10:44:58Z</time>
      </trkpt>
      <trkpt lat="46.028" lon="4.7067">
        <ele>189</ele>
        <time>2016-10-08T10:44:59Z</time>
      </trkpt>
      <trkpt lat="46.02794" lon="4.7067">
        <ele>189</ele>
        <time>2016-10-08T10:45:00Z</time>
      </trkpt>
      <trkpt lat="46.02788" lon="4.70671">
        <ele>189</ele>
        <time>2016-10-08T10:45:01Z</time>
      </trkpt>
      <trkpt lat="46.02782" lon="4.70671">
        <ele>189</ele>
        <time>2016-10-08T10:45:02Z</time>
      </trkpt>
      <trkpt lat="46.02776" lon="4.7067">
        <ele>189</ele>
        <time>2016-10-08T10:45:03Z</time>
      </trkpt>
      <trkpt lat="46.0277" lon="4.7067">
        <ele>189</ele>
        <time>2016-10-08T10:45:04Z</time>
      </trkpt>
      <trkpt lat="46.02764" lon="4.70669">
        <ele>189</ele>
        <time>2016-10-08T10:45:05Z</time>
      </trkpt>
      <trkpt lat="46.02757" lon="4.70668">
        <ele>189</ele>
        <time>2016-10-08T10:45:06Z</time>
      </trkpt>
      <trkpt lat="46.02751" lon="4.70668">
        <ele>189</ele>
        <time>2016-10-08T10:45:07Z</time>
      </trkpt>
      <trkpt lat="46.02745" lon="4.70667">
        <ele>189</ele>
        <time>2016-10-08T10:45:08Z</time>
      </trkpt>
      <trkpt lat="46.02738" lon="4.70666">
        <ele>189</ele>
        <time>2016-10-08T10:45:09Z</time>
      </trkpt>
      <trkpt lat="46.02732" lon="4.70665">
        <ele>189</ele>
        <time>2016-10-08T10:45:10Z</time>
      </trkpt>
      <trkpt lat="46.02725" lon="4.70665">
        <ele>189</ele>
        <time>2016-10-08T10:45:11Z</time>
      </trkpt>
      <trkpt lat="46.02719" lon="4.70664">
        <ele>189</ele>
        <time>2016-10-08T10:45:12Z</time>
      </trkpt>
      <trkpt lat="46.02713" lon="4.70663">
        <ele>189</ele>
        <time>2016-10-08T10:45:13Z</time>
      </trkpt>
      <trkpt lat="46.02707" lon="4.70662">
        <ele>189</ele>
        <time>2016-10-08T10:45:14Z</time>
      </trkpt>
      <trkpt lat="46.02701" lon="4.70661">
        <ele>189</ele>
        <time>2016-10-08T10:45:15Z</time>
      </trkpt>
      <trkpt lat="46.02695" lon="4.7066">
        <ele>189</ele>
        <time>2016-10-08T10:45:16Z</time>
      </trkpt>
      <trkpt lat="46.02689" lon="4.70659">
        <ele>190</ele>
        <time>2016-10-08T10:45:17Z</time>
      </trkpt>
      <trkpt lat="46.02683" lon="4.70659">
        <ele>190</ele>
        <time>2016-10-08T10:45:18Z</time>
      </trkpt>
      <trkpt lat="46.02678" lon="4.70658">
        <ele>190</ele>
        <time>2016-10-08T10:45:19Z</time>
      </trkpt>
      <trkpt lat="46.02672" lon="4.70657">
        <ele>190</ele>
        <time>2016-10-08T10:45:20Z</time>
      </trkpt>
      <trkpt lat="46.02667" lon="4.70656">
        <ele>190</ele>
        <time>2016-10-08T10:45:21Z</time>
      </trkpt>
      <trkpt lat="46.02661" lon="4.70656">
        <ele>190</ele>
        <time>2016-10-08T10:45:22Z</time>
      </trkpt>
      <trkpt lat="46.02655" lon="4.70655">
        <ele>190</ele>
        <time>2016-10-08T10:45:23Z</time>
      </trkpt>
      <trkpt lat="46.02649" lon="4.70654">
        <ele>190</ele>
        <time>2016-10-08T10:45:24Z</time>
      </trkpt>
      <trkpt lat="46.02643" lon="4.70653">
        <ele>190</ele>
        <time>2016-10-08T10:45:25Z</time>
      </trkpt>
      <trkpt lat="46.02636" lon="4.70654">
        <ele>190</ele>
        <time>2016-10-08T10:45:26Z</time>
      </trkpt>
      <trkpt lat="46.02631" lon="4.70655">
        <ele>190</ele>
        <time>2016-10-08T10:45:27Z</time>
      </trkpt>
      <trkpt lat="46.02625" lon="4.70654">
        <ele>190</ele>
        <time>2016-10-08T10:45:28Z</time>
      </trkpt>
      <trkpt lat="46.02619" lon="4.7065">
        <ele>190</ele>
        <time>2016-10-08T10:45:29Z</time>
      </trkpt>
      <trkpt lat="46.02613" lon="4.70649">
        <ele>190</ele>
        <time>2016-10-08T10:45:30Z</time>
      </trkpt>
      <trkpt lat="46.02607" lon="4.70648">
        <ele>190</ele>
        <time>2016-10-08T10:45:31Z</time>
      </trkpt>
      <trkpt lat="46.02601" lon="4.70647">
        <ele>190</ele>
        <time>2016-10-08T10:45:32Z</time>
      </trkpt>
      <trkpt lat="46.02594" lon="4.70645">
        <ele>190</ele>
        <time>2016-10-08T10:45:33Z</time>
      </trkpt>
      <trkpt lat="46.02588" lon="4.70643">
        <ele>190</ele>
        <time>2016-10-08T10:45:34Z</time>
      </trkpt>
      <trkpt lat="46.02581" lon="4.70642">
        <ele>190</ele>
        <time>2016-10-08T10:45:35Z</time>
      </trkpt>
      <trkpt lat="46.02574" lon="4.7064">
        <ele>189</ele>
        <time>2016-10-08T10:45:36Z</time>
      </trkpt>
      <trkpt lat="46.02567" lon="4.70639">
        <ele>189</ele>
        <time>2016-10-08T10:45:37Z</time>
      </trkpt>
      <trkpt lat="46.02561" lon="4.70637">
        <ele>189</ele>
        <time>2016-10-08T10:45:38Z</time>
      </trkpt>
      <trkpt lat="46.02555" lon="4.70635">
        <ele>189</ele>
        <time>2016-10-08T10:45:39Z</time>
      </trkpt>
      <trkpt lat="46.02548" lon="4.70634">
        <ele>189</ele>
        <time>2016-10-08T10:45:40Z</time>
      </trkpt>
      <trkpt lat="46.02542" lon="4.70632">
        <ele>189</ele>
        <time>2016-10-08T10:45:41Z</time>
      </trkpt>
      <trkpt lat="46.02536" lon="4.70631">
        <ele>189</ele>
        <time>2016-10-08T10:45:42Z</time>
      </trkpt>
      <trkpt lat="46.0253" lon="4.70629">
        <ele>189</ele>
        <time>2016-10-08T10:45:43Z</time>
      </trkpt>
      <trkpt lat="46.02524" lon="4.70627">
        <ele>189</ele>
        <time>2016-10-08T10:45:44Z</time>
      </trkpt>
      <trkpt lat="46.02517" lon="4.70625">
        <ele>189</ele>
        <time>2016-10-08T10:45:45Z</time>
      </trkpt>
      <trkpt lat="46.02511" lon="4.70623">
        <ele>189</ele>
        <time>2016-10-08T10:45:46Z</time>
      </trkpt>
      <trkpt lat="46.02505" lon="4.70622">
        <ele>189</ele>
        <time>2016-10-08T10:45:47Z</time>
      </trkpt>
      <trkpt lat="46.025" lon="4.7062">
        <ele>188</ele>
        <time>2016-10-08T10:45:48Z</time>
      </trkpt>
      <trkpt lat="46.02495" lon="4.70618">
        <ele>188</ele>
        <time>2016-10-08T10:45:49Z</time>
      </trkpt>
      <trkpt lat="46.0249" lon="4.70617">
        <ele>188</ele>
        <time>2016-10-08T10:45:50Z</time>
      </trkpt>
      <trkpt lat="46.02482" lon="4.70616">
        <ele>188</ele>
        <time>2016-10-08T10:45:53Z</time>
      </trkpt>
      <trkpt lat="46.02479" lon="4.70618">
        <ele>188</ele>
        <time>2016-10-08T10:45:54Z</time>
      </trkpt>
      <trkpt lat="46.02475" lon="4.70626">
        <ele>188</ele>
        <time>2016-10-08T10:45:56Z</time>
      </trkpt>
      <trkpt lat="46.02473" lon="4.70632">
        <ele>188</ele>
        <time>2016-10-08T10:45:57Z</time>
      </trkpt>
      <trkpt lat="46.02469" lon="4.70643">
        <ele>188</ele>
        <time>2016-10-08T10:45:59Z</time>
      </trkpt>
      <trkpt lat="46.02468" lon="4.70648">
        <ele>189</ele>
        <time>2016-10-08T10:46:00Z</time>
      </trkpt>
      <trkpt lat="46.02467" lon="4.70654">
        <ele>189</ele>
        <time>2016-10-08T10:46:01Z</time>
      </trkpt>
      <trkpt lat="46.02465" lon="4.70661">
        <ele>189</ele>
        <time>2016-10-08T10:46:02Z</time>
      </trkpt>
      <trkpt lat="46.02463" lon="4.70668">
        <ele>190</ele>
        <time>2016-10-08T10:46:03Z</time>
      </trkpt>
      <trkpt lat="46.02461" lon="4.70675">
        <ele>190</ele>
        <time>2016-10-08T10:46:04Z</time>
      </trkpt>
      <trkpt lat="46.02458" lon="4.70682">
        <ele>190</ele>
        <time>2016-10-08T10:46:05Z</time>
      </trkpt>
      <trkpt lat="46.02456" lon="4.70689">
        <ele>190</ele>
        <time>2016-10-08T10:46:06Z</time>
      </trkpt>
      <trkpt lat="46.02455" lon="4.70696">
        <ele>190</ele>
        <time>2016-10-08T10:46:07Z</time>
      </trkpt>
      <trkpt lat="46.02453" lon="4.70703">
        <ele>190</ele>
        <time>2016-10-08T10:46:08Z</time>
      </trkpt>
      <trkpt lat="46.02452" lon="4.7071">
        <ele>190</ele>
        <time>2016-10-08T10:46:09Z</time>
      </trkpt>
      <trkpt lat="46.0245" lon="4.70717">
        <ele>190</ele>
        <time>2016-10-08T10:46:10Z</time>
      </trkpt>
      <trkpt lat="46.02447" lon="4.70724">
        <ele>190</ele>
        <time>2016-10-08T10:46:11Z</time>
      </trkpt>
      <trkpt lat="46.02445" lon="4.7073">
        <ele>190</ele>
        <time>2016-10-08T10:46:12Z</time>
      </trkpt>
      <trkpt lat="46.02442" lon="4.70736">
        <ele>190</ele>
        <time>2016-10-08T10:46:13Z</time>
      </trkpt>
      <trkpt lat="46.02438" lon="4.70742">
        <ele>189</ele>
        <time>2016-10-08T10:46:14Z</time>
      </trkpt>
      <trkpt lat="46.02434" lon="4.70748">
        <ele>189</ele>
        <time>2016-10-08T10:46:15Z</time>
      </trkpt>
      <trkpt lat="46.0243" lon="4.70753">
        <ele>189</ele>
        <time>2016-10-08T10:46:16Z</time>
      </trkpt>
      <trkpt lat="46.02425" lon="4.70757">
        <ele>189</ele>
        <time>2016-10-08T10:46:17Z</time>
      </trkpt>
      <trkpt lat="46.0242" lon="4.70762">
        <ele>189</ele>
        <time>2016-10-08T10:46:18Z</time>
      </trkpt>
      <trkpt lat="46.02415" lon="4.70766">
        <ele>186</ele>
        <time>2016-10-08T10:46:19Z</time>
      </trkpt>
      <trkpt lat="46.0241" lon="4.70771">
        <ele>186</ele>
        <time>2016-10-08T10:46:20Z</time>
      </trkpt>
      <trkpt lat="46.02404" lon="4.70774">
        <ele>185</ele>
        <time>2016-10-08T10:46:21Z</time>
      </trkpt>
      <trkpt lat="46.02399" lon="4.70777">
        <ele>185</ele>
        <time>2016-10-08T10:46:22Z</time>
      </trkpt>
      <trkpt lat="46.02394" lon="4.70779">
        <ele>185</ele>
        <time>2016-10-08T10:46:23Z</time>
      </trkpt>
      <trkpt lat="46.02388" lon="4.70779">
        <ele>184</ele>
        <time>2016-10-08T10:46:24Z</time>
      </trkpt>
      <trkpt lat="46.02381" lon="4.70778">
        <ele>184</ele>
        <time>2016-10-08T10:46:25Z</time>
      </trkpt>
      <trkpt lat="46.02375" lon="4.70777">
        <ele>184</ele>
        <time>2016-10-08T10:46:26Z</time>
      </trkpt>
      <trkpt lat="46.02368" lon="4.70776">
        <ele>183</ele>
        <time>2016-10-08T10:46:27Z</time>
      </trkpt>
      <trkpt lat="46.02361" lon="4.70774">
        <ele>183</ele>
        <time>2016-10-08T10:46:28Z</time>
      </trkpt>
      <trkpt lat="46.02355" lon="4.70773">
        <ele>183</ele>
        <time>2016-10-08T10:46:29Z</time>
      </trkpt>
      <trkpt lat="46.02348" lon="4.70773">
        <ele>182</ele>
        <time>2016-10-08T10:46:30Z</time>
      </trkpt>
      <trkpt lat="46.0234" lon="4.70772">
        <ele>182</ele>
        <time>2016-10-08T10:46:31Z</time>
      </trkpt>
      <trkpt lat="46.02333" lon="4.7077">
        <ele>180</ele>
        <time>2016-10-08T10:46:32Z</time>
      </trkpt>
      <trkpt lat="46.02326" lon="4.7077">
        <ele>180</ele>
        <time>2016-10-08T10:46:33Z</time>
      </trkpt>
      <trkpt lat="46.02319" lon="4.70769">
        <ele>180</ele>
        <time>2016-10-08T10:46:34Z</time>
      </trkpt>
      <trkpt lat="46.02311" lon="4.70768">
        <ele>180</ele>
        <time>2016-10-08T10:46:35Z</time>
      </trkpt>
      <trkpt lat="46.02303" lon="4.70766">
        <ele>180</ele>
        <time>2016-10-08T10:46:36Z</time>
      </trkpt>
      <trkpt lat="46.02296" lon="4.70765">
        <ele>180</ele>
        <time>2016-10-08T10:46:37Z</time>
      </trkpt>
      <trkpt lat="46.02288" lon="4.70763">
        <ele>181</ele>
        <time>2016-10-08T10:46:38Z</time>
      </trkpt>
      <trkpt lat="46.02281" lon="4.70761">
        <ele>181</ele>
        <time>2016-10-08T10:46:39Z</time>
      </trkpt>
      <trkpt lat="46.02273" lon="4.70759">
        <ele>181</ele>
        <time>2016-10-08T10:46:40Z</time>
      </trkpt>
      <trkpt lat="46.02265" lon="4.70758">
        <ele>181</ele>
        <time>2016-10-08T10:46:41Z</time>
      </trkpt>
      <trkpt lat="46.02258" lon="4.70756">
        <ele>181</ele>
        <time>2016-10-08T10:46:42Z</time>
      </trkpt>
      <trkpt lat="46.02251" lon="4.70755">
        <ele>181</ele>
        <time>2016-10-08T10:46:43Z</time>
      </trkpt>
      <trkpt lat="46.02243" lon="4.70753">
        <ele>181</ele>
        <time>2016-10-08T10:46:44Z</time>
      </trkpt>
      <trkpt lat="46.02236" lon="4.70752">
        <ele>180</ele>
        <time>2016-10-08T10:46:45Z</time>
      </trkpt>
      <trkpt lat="46.02228" lon="4.7075">
        <ele>181</ele>
        <time>2016-10-08T10:46:46Z</time>
      </trkpt>
      <trkpt lat="46.02219" lon="4.70749">
        <ele>180</ele>
        <time>2016-10-08T10:46:47Z</time>
      </trkpt>
      <trkpt lat="46.0221" lon="4.70745">
        <ele>180</ele>
        <time>2016-10-08T10:46:48Z</time>
      </trkpt>
      <trkpt lat="46.02203" lon="4.70743">
        <ele>180</ele>
        <time>2016-10-08T10:46:49Z</time>
      </trkpt>
      <trkpt lat="46.02195" lon="4.70741">
        <ele>180</ele>
        <time>2016-10-08T10:46:50Z</time>
      </trkpt>
      <trkpt lat="46.02188" lon="4.70739">
        <ele>180</ele>
        <time>2016-10-08T10:46:51Z</time>
      </trkpt>
      <trkpt lat="46.02182" lon="4.70739">
        <ele>180</ele>
        <time>2016-10-08T10:46:52Z</time>
      </trkpt>
      <trkpt lat="46.02175" lon="4.70739">
        <ele>180</ele>
        <time>2016-10-08T10:46:53Z</time>
      </trkpt>
      <trkpt lat="46.02168" lon="4.70736">
        <ele>180</ele>
        <time>2016-10-08T10:46:54Z</time>
      </trkpt>
      <trkpt lat="46.02161" lon="4.70733">
        <ele>179</ele>
        <time>2016-10-08T10:46:55Z</time>
      </trkpt>
      <trkpt lat="46.02154" lon="4.70731">
        <ele>179</ele>
        <time>2016-10-08T10:46:56Z</time>
      </trkpt>
      <trkpt lat="46.02148" lon="4.7073">
        <ele>179</ele>
        <time>2016-10-08T10:46:57Z</time>
      </trkpt>
      <trkpt lat="46.02142" lon="4.70729">
        <ele>179</ele>
        <time>2016-10-08T10:46:58Z</time>
      </trkpt>
      <trkpt lat="46.02136" lon="4.70727">
        <ele>179</ele>
        <time>2016-10-08T10:46:59Z</time>
      </trkpt>
      <trkpt lat="46.0213" lon="4.70726">
        <ele>179</ele>
        <time>2016-10-08T10:47:00Z</time>
      </trkpt>
      <trkpt lat="46.02124" lon="4.70725">
        <ele>179</ele>
        <time>2016-10-08T10:47:01Z</time>
      </trkpt>
      <trkpt lat="46.02118" lon="4.70723">
        <ele>179</ele>
        <time>2016-10-08T10:47:02Z</time>
      </trkpt>
      <trkpt lat="46.02112" lon="4.70722">
        <ele>179</ele>
        <time>2016-10-08T10:47:03Z</time>
      </trkpt>
      <trkpt lat="46.02105" lon="4.7072">
        <ele>179</ele>
        <time>2016-10-08T10:47:04Z</time>
      </trkpt>
      <trkpt lat="46.02099" lon="4.70719">
        <ele>179</ele>
        <time>2016-10-08T10:47:05Z</time>
      </trkpt>
      <trkpt lat="46.02093" lon="4.70718">
        <ele>179</ele>
        <time>2016-10-08T10:47:06Z</time>
      </trkpt>
      <trkpt lat="46.02087" lon="4.70717">
        <ele>179</ele>
        <time>2016-10-08T10:47:07Z</time>
      </trkpt>
      <trkpt lat="46.02081" lon="4.70715">
        <ele>179</ele>
        <time>2016-10-08T10:47:08Z</time>
      </trkpt>
      <trkpt lat="46.02074" lon="4.70714">
        <ele>179</ele>
        <time>2016-10-08T10:47:09Z</time>
      </trkpt>
      <trkpt lat="46.02069" lon="4.70713">
        <ele>179</ele>
        <time>2016-10-08T10:47:10Z</time>
      </trkpt>
      <trkpt lat="46.02065" lon="4.70712">
        <ele>179</ele>
        <time>2016-10-08T10:47:11Z</time>
      </trkpt>
      <trkpt lat="46.02059" lon="4.70711">
        <ele>179</ele>
        <time>2016-10-08T10:47:12Z</time>
      </trkpt>
      <trkpt lat="46.02054" lon="4.7071">
        <ele>179</ele>
        <time>2016-10-08T10:47:13Z</time>
      </trkpt>
      <trkpt lat="46.02049" lon="4.7071">
        <ele>179</ele>
        <time>2016-10-08T10:47:14Z</time>
      </trkpt>
      <trkpt lat="46.02043" lon="4.70709">
        <ele>179</ele>
        <time>2016-10-08T10:47:15Z</time>
      </trkpt>
      <trkpt lat="46.02037" lon="4.70709">
        <ele>179</ele>
        <time>2016-10-08T10:47:16Z</time>
      </trkpt>
      <trkpt lat="46.02031" lon="4.70708">
        <ele>179</ele>
        <time>2016-10-08T10:47:17Z</time>
      </trkpt>
      <trkpt lat="46.02025" lon="4.70707">
        <ele>179</ele>
        <time>2016-10-08T10:47:18Z</time>
      </trkpt>
      <trkpt lat="46.02019" lon="4.70705">
        <ele>179</ele>
        <time>2016-10-08T10:47:19Z</time>
      </trkpt>
      <trkpt lat="46.02012" lon="4.70704">
        <ele>179</ele>
        <time>2016-10-08T10:47:20Z</time>
      </trkpt>
      <trkpt lat="46.02007" lon="4.70703">
        <ele>179</ele>
        <time>2016-10-08T10:47:21Z</time>
      </trkpt>
      <trkpt lat="46.02001" lon="4.70702">
        <ele>179</ele>
        <time>2016-10-08T10:47:22Z</time>
      </trkpt>
      <trkpt lat="46.01995" lon="4.70701">
        <ele>181</ele>
        <time>2016-10-08T10:47:23Z</time>
      </trkpt>
      <trkpt lat="46.0199" lon="4.70701">
        <ele>181</ele>
        <time>2016-10-08T10:47:24Z</time>
      </trkpt>
      <trkpt lat="46.01985" lon="4.70699">
        <ele>181</ele>
        <time>2016-10-08T10:47:25Z</time>
      </trkpt>
      <trkpt lat="46.0198" lon="4.70699">
        <ele>181</ele>
        <time>2016-10-08T10:47:26Z</time>
      </trkpt>
      <trkpt lat="46.01976" lon="4.70698">
        <ele>181</ele>
        <time>2016-10-08T10:47:27Z</time>
      </trkpt>
      <trkpt lat="46.01971" lon="4.70698">
        <ele>181</ele>
        <time>2016-10-08T10:47:28Z</time>
      </trkpt>
      <trkpt lat="46.01966" lon="4.70697">
        <ele>181</ele>
        <time>2016-10-08T10:47:29Z</time>
      </trkpt>
      <trkpt lat="46.01961" lon="4.70696">
        <ele>181</ele>
        <time>2016-10-08T10:47:30Z</time>
      </trkpt>
      <trkpt lat="46.01957" lon="4.70695">
        <ele>181</ele>
        <time>2016-10-08T10:47:31Z</time>
      </trkpt>
      <trkpt lat="46.01952" lon="4.70694">
        <ele>181</ele>
        <time>2016-10-08T10:47:32Z</time>
      </trkpt>
      <trkpt lat="46.01946" lon="4.70693">
        <ele>182</ele>
        <time>2016-10-08T10:47:33Z</time>
      </trkpt>
      <trkpt lat="46.0194" lon="4.70691">
        <ele>182</ele>
        <time>2016-10-08T10:47:34Z</time>
      </trkpt>
      <trkpt lat="46.01935" lon="4.7069">
        <ele>182</ele>
        <time>2016-10-08T10:47:35Z</time>
      </trkpt>
      <trkpt lat="46.0193" lon="4.7069">
        <ele>182</ele>
        <time>2016-10-08T10:47:36Z</time>
      </trkpt>
      <trkpt lat="46.01926" lon="4.70689">
        <ele>182</ele>
        <time>2016-10-08T10:47:37Z</time>
      </trkpt>
      <trkpt lat="46.01921" lon="4.70689">
        <ele>182</ele>
        <time>2016-10-08T10:47:38Z</time>
      </trkpt>
      <trkpt lat="46.01916" lon="4.70689">
        <ele>184</ele>
        <time>2016-10-08T10:47:39Z</time>
      </trkpt>
      <trkpt lat="46.01911" lon="4.70687">
        <ele>184</ele>
        <time>2016-10-08T10:47:40Z</time>
      </trkpt>
      <trkpt lat="46.01906" lon="4.70687">
        <ele>184</ele>
        <time>2016-10-08T10:47:41Z</time>
      </trkpt>
      <trkpt lat="46.01901" lon="4.70686">
        <ele>184</ele>
        <time>2016-10-08T10:47:42Z</time>
      </trkpt>
      <trkpt lat="46.01896" lon="4.70686">
        <ele>184</ele>
        <time>2016-10-08T10:47:43Z</time>
      </trkpt>
      <trkpt lat="46.0189" lon="4.70686">
        <ele>184</ele>
        <time>2016-10-08T10:47:44Z</time>
      </trkpt>
      <trkpt lat="46.01885" lon="4.70686">
        <ele>185</ele>
        <time>2016-10-08T10:47:45Z</time>
      </trkpt>
      <trkpt lat="46.0188" lon="4.70686">
        <ele>185</ele>
        <time>2016-10-08T10:47:46Z</time>
      </trkpt>
      <trkpt lat="46.01875" lon="4.70686">
        <ele>185</ele>
        <time>2016-10-08T10:47:47Z</time>
      </trkpt>
      <trkpt lat="46.0187" lon="4.70686">
        <ele>185</ele>
        <time>2016-10-08T10:47:48Z</time>
      </trkpt>
      <trkpt lat="46.01865" lon="4.70686">
        <ele>185</ele>
        <time>2016-10-08T10:47:49Z</time>
      </trkpt>
      <trkpt lat="46.0186" lon="4.70686">
        <ele>185</ele>
        <time>2016-10-08T10:47:50Z</time>
      </trkpt>
      <trkpt lat="46.01855" lon="4.70686">
        <ele>185</ele>
        <time>2016-10-08T10:47:51Z</time>
      </trkpt>
      <trkpt lat="46.0185" lon="4.70686">
        <ele>185</ele>
        <time>2016-10-08T10:47:52Z</time>
      </trkpt>
      <trkpt lat="46.01845" lon="4.70687">
        <ele>186</ele>
        <time>2016-10-08T10:47:53Z</time>
      </trkpt>
      <trkpt lat="46.0184" lon="4.70687">
        <ele>186</ele>
        <time>2016-10-08T10:47:54Z</time>
      </trkpt>
      <trkpt lat="46.01831" lon="4.70687">
        <ele>187</ele>
        <time>2016-10-08T10:47:56Z</time>
      </trkpt>
      <trkpt lat="46.01826" lon="4.70688">
        <ele>187</ele>
        <time>2016-10-08T10:47:57Z</time>
      </trkpt>
      <trkpt lat="46.01817" lon="4.7069">
        <ele>187</ele>
        <time>2016-10-08T10:47:59Z</time>
      </trkpt>
      <trkpt lat="46.01813" lon="4.7069">
        <ele>187</ele>
        <time>2016-10-08T10:48:00Z</time>
      </trkpt>
      <trkpt lat="46.01808" lon="4.7069">
        <ele>187</ele>
        <time>2016-10-08T10:48:01Z</time>
      </trkpt>
      <trkpt lat="46.01802" lon="4.70691">
        <ele>187</ele>
        <time>2016-10-08T10:48:02Z</time>
      </trkpt>
      <trkpt lat="46.01797" lon="4.70692">
        <ele>187</ele>
        <time>2016-10-08T10:48:03Z</time>
      </trkpt>
      <trkpt lat="46.01792" lon="4.70692">
        <ele>187</ele>
        <time>2016-10-08T10:48:04Z</time>
      </trkpt>
      <trkpt lat="46.01787" lon="4.70693">
        <ele>187</ele>
        <time>2016-10-08T10:48:05Z</time>
      </trkpt>
      <trkpt lat="46.01782" lon="4.70693">
        <ele>187</ele>
        <time>2016-10-08T10:48:06Z</time>
      </trkpt>
      <trkpt lat="46.01777" lon="4.70693">
        <ele>187</ele>
        <time>2016-10-08T10:48:07Z</time>
      </trkpt>
      <trkpt lat="46.01772" lon="4.70694">
        <ele>187</ele>
        <time>2016-10-08T10:48:08Z</time>
      </trkpt>
      <trkpt lat="46.01764" lon="4.70695">
        <ele>187</ele>
        <time>2016-10-08T10:48:10Z</time>
      </trkpt>
      <trkpt lat="46.01759" lon="4.70693">
        <ele>187</ele>
        <time>2016-10-08T10:48:11Z</time>
      </trkpt>
      <trkpt lat="46.01755" lon="4.70692">
        <ele>187</ele>
        <time>2016-10-08T10:48:12Z</time>
      </trkpt>
      <trkpt lat="46.0175" lon="4.70692">
        <ele>188</ele>
        <time>2016-10-08T10:48:13Z</time>
      </trkpt>
      <trkpt lat="46.01744" lon="4.70696">
        <ele>188</ele>
        <time>2016-10-08T10:48:14Z</time>
      </trkpt>
      <trkpt lat="46.01739" lon="4.70697">
        <ele>188</ele>
        <time>2016-10-08T10:48:15Z</time>
      </trkpt>
      <trkpt lat="46.01735" lon="4.70698">
        <ele>188</ele>
        <time>2016-10-08T10:48:16Z</time>
      </trkpt>
      <trkpt lat="46.0173" lon="4.70698">
        <ele>188</ele>
        <time>2016-10-08T10:48:17Z</time>
      </trkpt>
      <trkpt lat="46.01725" lon="4.70699">
        <ele>188</ele>
        <time>2016-10-08T10:48:18Z</time>
      </trkpt>
      <trkpt lat="46.0172" lon="4.70699">
        <ele>188</ele>
        <time>2016-10-08T10:48:19Z</time>
      </trkpt>
      <trkpt lat="46.01715" lon="4.707">
        <ele>188</ele>
        <time>2016-10-08T10:48:20Z</time>
      </trkpt>
      <trkpt lat="46.0171" lon="4.707">
        <ele>188</ele>
        <time>2016-10-08T10:48:21Z</time>
      </trkpt>
      <trkpt lat="46.01705" lon="4.70701">
        <ele>189</ele>
        <time>2016-10-08T10:48:22Z</time>
      </trkpt>
      <trkpt lat="46.017" lon="4.70702">
        <ele>189</ele>
        <time>2016-10-08T10:48:23Z</time>
      </trkpt>
      <trkpt lat="46.01695" lon="4.70702">
        <ele>189</ele>
        <time>2016-10-08T10:48:24Z</time>
      </trkpt>
      <trkpt lat="46.01689" lon="4.70703">
        <ele>189</ele>
        <time>2016-10-08T10:48:25Z</time>
      </trkpt>
      <trkpt lat="46.01684" lon="4.70704">
        <ele>189</ele>
        <time>2016-10-08T10:48:26Z</time>
      </trkpt>
      <trkpt lat="46.01679" lon="4.70705">
        <ele>189</ele>
        <time>2016-10-08T10:48:27Z</time>
      </trkpt>
      <trkpt lat="46.01675" lon="4.70705">
        <ele>189</ele>
        <time>2016-10-08T10:48:28Z</time>
      </trkpt>
      <trkpt lat="46.0167" lon="4.70705">
        <ele>189</ele>
        <time>2016-10-08T10:48:29Z</time>
      </trkpt>
      <trkpt lat="46.01664" lon="4.70705">
        <ele>189</ele>
        <time>2016-10-08T10:48:30Z</time>
      </trkpt>
      <trkpt lat="46.01659" lon="4.70706">
        <ele>189</ele>
        <time>2016-10-08T10:48:31Z</time>
      </trkpt>
      <trkpt lat="46.01654" lon="4.70707">
        <ele>189</ele>
        <time>2016-10-08T10:48:32Z</time>
      </trkpt>
      <trkpt lat="46.01648" lon="4.70707">
        <ele>189</ele>
        <time>2016-10-08T10:48:33Z</time>
      </trkpt>
      <trkpt lat="46.01643" lon="4.70708">
        <ele>189</ele>
        <time>2016-10-08T10:48:34Z</time>
      </trkpt>
      <trkpt lat="46.01638" lon="4.70709">
        <ele>190</ele>
        <time>2016-10-08T10:48:35Z</time>
      </trkpt>
      <trkpt lat="46.01633" lon="4.7071">
        <ele>190</ele>
        <time>2016-10-08T10:48:36Z</time>
      </trkpt>
      <trkpt lat="46.01628" lon="4.7071">
        <ele>190</ele>
        <time>2016-10-08T10:48:37Z</time>
      </trkpt>
      <trkpt lat="46.01623" lon="4.70711">
        <ele>190</ele>
        <time>2016-10-08T10:48:38Z</time>
      </trkpt>
      <trkpt lat="46.01618" lon="4.70711">
        <ele>190</ele>
        <time>2016-10-08T10:48:39Z</time>
      </trkpt>
      <trkpt lat="46.01614" lon="4.70712">
        <ele>190</ele>
        <time>2016-10-08T10:48:40Z</time>
      </trkpt>
      <trkpt lat="46.01609" lon="4.70712">
        <ele>190</ele>
        <time>2016-10-08T10:48:41Z</time>
      </trkpt>
      <trkpt lat="46.01601" lon="4.70714">
        <ele>190</ele>
        <time>2016-10-08T10:48:43Z</time>
      </trkpt>
      <trkpt lat="46.01597" lon="4.70715">
        <ele>190</ele>
        <time>2016-10-08T10:48:44Z</time>
      </trkpt>
      <trkpt lat="46.01592" lon="4.70715">
        <ele>190</ele>
        <time>2016-10-08T10:48:45Z</time>
      </trkpt>
      <trkpt lat="46.01587" lon="4.70716">
        <ele>190</ele>
        <time>2016-10-08T10:48:46Z</time>
      </trkpt>
      <trkpt lat="46.01583" lon="4.70717">
        <ele>190</ele>
        <time>2016-10-08T10:48:47Z</time>
      </trkpt>
      <trkpt lat="46.01577" lon="4.70717">
        <ele>190</ele>
        <time>2016-10-08T10:48:48Z</time>
      </trkpt>
      <trkpt lat="46.01568" lon="4.70719">
        <ele>190</ele>
        <time>2016-10-08T10:48:50Z</time>
      </trkpt>
      <trkpt lat="46.01564" lon="4.7072">
        <ele>190</ele>
        <time>2016-10-08T10:48:51Z</time>
      </trkpt>
      <trkpt lat="46.01555" lon="4.70721">
        <ele>190</ele>
        <time>2016-10-08T10:48:53Z</time>
      </trkpt>
      <trkpt lat="46.0155" lon="4.70722">
        <ele>190</ele>
        <time>2016-10-08T10:48:54Z</time>
      </trkpt>
      <trkpt lat="46.01545" lon="4.70721">
        <ele>190</ele>
        <time>2016-10-08T10:48:55Z</time>
      </trkpt>
      <trkpt lat="46.0154" lon="4.70721">
        <ele>190</ele>
        <time>2016-10-08T10:48:56Z</time>
      </trkpt>
      <trkpt lat="46.01536" lon="4.70722">
        <ele>190</ele>
        <time>2016-10-08T10:48:57Z</time>
      </trkpt>
      <trkpt lat="46.01531" lon="4.70723">
        <ele>190</ele>
        <time>2016-10-08T10:48:58Z</time>
      </trkpt>
      <trkpt lat="46.01526" lon="4.70723">
        <ele>190</ele>
        <time>2016-10-08T10:48:59Z</time>
      </trkpt>
      <trkpt lat="46.01521" lon="4.70724">
        <ele>190</ele>
        <time>2016-10-08T10:49:00Z</time>
      </trkpt>
      <trkpt lat="46.01517" lon="4.70724">
        <ele>190</ele>
        <time>2016-10-08T10:49:01Z</time>
      </trkpt>
      <trkpt lat="46.01511" lon="4.70725">
        <ele>190</ele>
        <time>2016-10-08T10:49:02Z</time>
      </trkpt>
      <trkpt lat="46.01506" lon="4.70726">
        <ele>190</ele>
        <time>2016-10-08T10:49:03Z</time>
      </trkpt>
      <trkpt lat="46.01501" lon="4.70726">
        <ele>190</ele>
        <time>2016-10-08T10:49:04Z</time>
      </trkpt>
      <trkpt lat="46.01497" lon="4.70726">
        <ele>190</ele>
        <time>2016-10-08T10:49:05Z</time>
      </trkpt>
      <trkpt lat="46.01492" lon="4.70726">
        <ele>190</ele>
        <time>2016-10-08T10:49:06Z</time>
      </trkpt>
      <trkpt lat="46.01487" lon="4.70727">
        <ele>190</ele>
        <time>2016-10-08T10:49:07Z</time>
      </trkpt>
      <trkpt lat="46.01482" lon="4.70727">
        <ele>190</ele>
        <time>2016-10-08T10:49:08Z</time>
      </trkpt>
      <trkpt lat="46.01477" lon="4.70728">
        <ele>190</ele>
        <time>2016-10-08T10:49:09Z</time>
      </trkpt>
      <trkpt lat="46.01472" lon="4.70727">
        <ele>190</ele>
        <time>2016-10-08T10:49:10Z</time>
      </trkpt>
      <trkpt lat="46.01467" lon="4.70727">
        <ele>190</ele>
        <time>2016-10-08T10:49:11Z</time>
      </trkpt>
      <trkpt lat="46.01462" lon="4.70728">
        <ele>189</ele>
        <time>2016-10-08T10:49:12Z</time>
      </trkpt>
      <trkpt lat="46.01456" lon="4.70729">
        <ele>189</ele>
        <time>2016-10-08T10:49:13Z</time>
      </trkpt>
      <trkpt lat="46.01452" lon="4.7073">
        <ele>189</ele>
        <time>2016-10-08T10:49:14Z</time>
      </trkpt>
      <trkpt lat="46.01443" lon="4.70731">
        <ele>189</ele>
        <time>2016-10-08T10:49:16Z</time>
      </trkpt>
      <trkpt lat="46.01439" lon="4.7073">
        <ele>189</ele>
        <time>2016-10-08T10:49:17Z</time>
      </trkpt>
      <trkpt lat="46.01434" lon="4.70731">
        <ele>189</ele>
        <time>2016-10-08T10:49:18Z</time>
      </trkpt>
      <trkpt lat="46.01429" lon="4.70732">
        <ele>189</ele>
        <time>2016-10-08T10:49:19Z</time>
      </trkpt>
      <trkpt lat="46.01425" lon="4.70733">
        <ele>189</ele>
        <time>2016-10-08T10:49:20Z</time>
      </trkpt>
      <trkpt lat="46.0142" lon="4.70733">
        <ele>189</ele>
        <time>2016-10-08T10:49:21Z</time>
      </trkpt>
      <trkpt lat="46.01415" lon="4.70734">
        <ele>189</ele>
        <time>2016-10-08T10:49:22Z</time>
      </trkpt>
      <trkpt lat="46.0141" lon="4.70734">
        <ele>189</ele>
        <time>2016-10-08T10:49:23Z</time>
      </trkpt>
      <trkpt lat="46.01406" lon="4.70735">
        <ele>189</ele>
        <time>2016-10-08T10:49:24Z</time>
      </trkpt>
      <trkpt lat="46.01401" lon="4.70736">
        <ele>189</ele>
        <time>2016-10-08T10:49:25Z</time>
      </trkpt>
      <trkpt lat="46.01396" lon="4.70736">
        <ele>189</ele>
        <time>2016-10-08T10:49:26Z</time>
      </trkpt>
      <trkpt lat="46.01391" lon="4.70736">
        <ele>189</ele>
        <time>2016-10-08T10:49:27Z</time>
      </trkpt>
      <trkpt lat="46.01383" lon="4.70738">
        <ele>189</ele>
        <time>2016-10-08T10:49:29Z</time>
      </trkpt>
      <trkpt lat="46.01378" lon="4.70738">
        <ele>189</ele>
        <time>2016-10-08T10:49:30Z</time>
      </trkpt>
      <trkpt lat="46.01374" lon="4.70739">
        <ele>189</ele>
        <time>2016-10-08T10:49:31Z</time>
      </trkpt>
      <trkpt lat="46.01369" lon="4.70739">
        <ele>189</ele>
        <time>2016-10-08T10:49:32Z</time>
      </trkpt>
      <trkpt lat="46.01364" lon="4.70739">
        <ele>189</ele>
        <time>2016-10-08T10:49:33Z</time>
      </trkpt>
      <trkpt lat="46.01359" lon="4.70739">
        <ele>189</ele>
        <time>2016-10-08T10:49:34Z</time>
      </trkpt>
      <trkpt lat="46.01354" lon="4.70738">
        <ele>189</ele>
        <time>2016-10-08T10:49:35Z</time>
      </trkpt>
      <trkpt lat="46.01349" lon="4.70738">
        <ele>189</ele>
        <time>2016-10-08T10:49:36Z</time>
      </trkpt>
      <trkpt lat="46.01344" lon="4.70738">
        <ele>189</ele>
        <time>2016-10-08T10:49:37Z</time>
      </trkpt>
      <trkpt lat="46.01339" lon="4.70738">
        <ele>189</ele>
        <time>2016-10-08T10:49:38Z</time>
      </trkpt>
      <trkpt lat="46.01334" lon="4.70737">
        <ele>189</ele>
        <time>2016-10-08T10:49:39Z</time>
      </trkpt>
      <trkpt lat="46.01328" lon="4.70737">
        <ele>190</ele>
        <time>2016-10-08T10:49:40Z</time>
      </trkpt>
      <trkpt lat="46.01322" lon="4.70737">
        <ele>190</ele>
        <time>2016-10-08T10:49:41Z</time>
      </trkpt>
      <trkpt lat="46.01316" lon="4.70736">
        <ele>190</ele>
        <time>2016-10-08T10:49:42Z</time>
      </trkpt>
      <trkpt lat="46.01311" lon="4.70735">
        <ele>191</ele>
        <time>2016-10-08T10:49:43Z</time>
      </trkpt>
      <trkpt lat="46.01305" lon="4.70734">
        <ele>191</ele>
        <time>2016-10-08T10:49:44Z</time>
      </trkpt>
      <trkpt lat="46.013" lon="4.70734">
        <ele>191</ele>
        <time>2016-10-08T10:49:45Z</time>
      </trkpt>
      <trkpt lat="46.01295" lon="4.70733">
        <ele>191</ele>
        <time>2016-10-08T10:49:46Z</time>
      </trkpt>
      <trkpt lat="46.01289" lon="4.70732">
        <ele>191</ele>
        <time>2016-10-08T10:49:47Z</time>
      </trkpt>
      <trkpt lat="46.01284" lon="4.70731">
        <ele>191</ele>
        <time>2016-10-08T10:49:48Z</time>
      </trkpt>
      <trkpt lat="46.01278" lon="4.7073">
        <ele>192</ele>
        <time>2016-10-08T10:49:49Z</time>
      </trkpt>
      <trkpt lat="46.01273" lon="4.70729">
        <ele>192</ele>
        <time>2016-10-08T10:49:50Z</time>
      </trkpt>
      <trkpt lat="46.01268" lon="4.70728">
        <ele>192</ele>
        <time>2016-10-08T10:49:51Z</time>
      </trkpt>
      <trkpt lat="46.01263" lon="4.70726">
        <ele>192</ele>
        <time>2016-10-08T10:49:52Z</time>
      </trkpt>
      <trkpt lat="46.01258" lon="4.70725">
        <ele>192</ele>
        <time>2016-10-08T10:49:53Z</time>
      </trkpt>
      <trkpt lat="46.01253" lon="4.70724">
        <ele>192</ele>
        <time>2016-10-08T10:49:54Z</time>
      </trkpt>
      <trkpt lat="46.01248" lon="4.70722">
        <ele>193</ele>
        <time>2016-10-08T10:49:55Z</time>
      </trkpt>
      <trkpt lat="46.01244" lon="4.70721">
        <ele>193</ele>
        <time>2016-10-08T10:49:56Z</time>
      </trkpt>
      <trkpt lat="46.01239" lon="4.70718">
        <ele>194</ele>
        <time>2016-10-08T10:49:57Z</time>
      </trkpt>
      <trkpt lat="46.01234" lon="4.70716">
        <ele>194</ele>
        <time>2016-10-08T10:49:58Z</time>
      </trkpt>
      <trkpt lat="46.01229" lon="4.70713">
        <ele>194</ele>
        <time>2016-10-08T10:49:59Z</time>
      </trkpt>
      <trkpt lat="46.01224" lon="4.70711">
        <ele>194</ele>
        <time>2016-10-08T10:50:00Z</time>
      </trkpt>
      <trkpt lat="46.01218" lon="4.70709">
        <ele>194</ele>
        <time>2016-10-08T10:50:01Z</time>
      </trkpt>
      <trkpt lat="46.01212" lon="4.70706">
        <ele>194</ele>
        <time>2016-10-08T10:50:02Z</time>
      </trkpt>
      <trkpt lat="46.01207" lon="4.70704">
        <ele>194</ele>
        <time>2016-10-08T10:50:03Z</time>
      </trkpt>
      <trkpt lat="46.01202" lon="4.70703">
        <ele>194</ele>
        <time>2016-10-08T10:50:04Z</time>
      </trkpt>
      <trkpt lat="46.01198" lon="4.70701">
        <ele>194</ele>
        <time>2016-10-08T10:50:05Z</time>
      </trkpt>
      <trkpt lat="46.01193" lon="4.70699">
        <ele>194</ele>
        <time>2016-10-08T10:50:06Z</time>
      </trkpt>
      <trkpt lat="46.01188" lon="4.70697">
        <ele>194</ele>
        <time>2016-10-08T10:50:07Z</time>
      </trkpt>
      <trkpt lat="46.01184" lon="4.70695">
        <ele>194</ele>
        <time>2016-10-08T10:50:08Z</time>
      </trkpt>
      <trkpt lat="46.01176" lon="4.7069">
        <ele>194</ele>
        <time>2016-10-08T10:50:10Z</time>
      </trkpt>
      <trkpt lat="46.01173" lon="4.70688">
        <ele>194</ele>
        <time>2016-10-08T10:50:11Z</time>
      </trkpt>
      <trkpt lat="46.01165" lon="4.70683">
        <ele>194</ele>
        <time>2016-10-08T10:50:13Z</time>
      </trkpt>
      <trkpt lat="46.01161" lon="4.70681">
        <ele>194</ele>
        <time>2016-10-08T10:50:14Z</time>
      </trkpt>
      <trkpt lat="46.01156" lon="4.70679">
        <ele>194</ele>
        <time>2016-10-08T10:50:15Z</time>
      </trkpt>
      <trkpt lat="46.01152" lon="4.70676">
        <ele>194</ele>
        <time>2016-10-08T10:50:16Z</time>
      </trkpt>
      <trkpt lat="46.01144" lon="4.70671">
        <ele>194</ele>
        <time>2016-10-08T10:50:18Z</time>
      </trkpt>
      <trkpt lat="46.01139" lon="4.7067">
        <ele>194</ele>
        <time>2016-10-08T10:50:19Z</time>
      </trkpt>
      <trkpt lat="46.01133" lon="4.70668">
        <ele>194</ele>
        <time>2016-10-08T10:50:20Z</time>
      </trkpt>
      <trkpt lat="46.01127" lon="4.70666">
        <ele>194</ele>
        <time>2016-10-08T10:50:21Z</time>
      </trkpt>
      <trkpt lat="46.01122" lon="4.70664">
        <ele>194</ele>
        <time>2016-10-08T10:50:22Z</time>
      </trkpt>
      <trkpt lat="46.01116" lon="4.70662">
        <ele>194</ele>
        <time>2016-10-08T10:50:23Z</time>
      </trkpt>
      <trkpt lat="46.01111" lon="4.7066">
        <ele>194</ele>
        <time>2016-10-08T10:50:24Z</time>
      </trkpt>
      <trkpt lat="46.01105" lon="4.70657">
        <ele>195</ele>
        <time>2016-10-08T10:50:25Z</time>
      </trkpt>
      <trkpt lat="46.01099" lon="4.70655">
        <ele>195</ele>
        <time>2016-10-08T10:50:26Z</time>
      </trkpt>
      <trkpt lat="46.01093" lon="4.70653">
        <ele>195</ele>
        <time>2016-10-08T10:50:27Z</time>
      </trkpt>
      <trkpt lat="46.01088" lon="4.70651">
        <ele>195</ele>
        <time>2016-10-08T10:50:28Z</time>
      </trkpt>
      <trkpt lat="46.01083" lon="4.70649">
        <ele>195</ele>
        <time>2016-10-08T10:50:29Z</time>
      </trkpt>
      <trkpt lat="46.01078" lon="4.70647">
        <ele>195</ele>
        <time>2016-10-08T10:50:30Z</time>
      </trkpt>
      <trkpt lat="46.01074" lon="4.70645">
        <ele>195</ele>
        <time>2016-10-08T10:50:31Z</time>
      </trkpt>
      <trkpt lat="46.01069" lon="4.70643">
        <ele>195</ele>
        <time>2016-10-08T10:50:32Z</time>
      </trkpt>
      <trkpt lat="46.01064" lon="4.70641">
        <ele>195</ele>
        <time>2016-10-08T10:50:33Z</time>
      </trkpt>
      <trkpt lat="46.01059" lon="4.70639">
        <ele>195</ele>
        <time>2016-10-08T10:50:34Z</time>
      </trkpt>
      <trkpt lat="46.01055" lon="4.70637">
        <ele>195</ele>
        <time>2016-10-08T10:50:35Z</time>
      </trkpt>
      <trkpt lat="46.0105" lon="4.70635">
        <ele>195</ele>
        <time>2016-10-08T10:50:36Z</time>
      </trkpt>
      <trkpt lat="46.01045" lon="4.70633">
        <ele>195</ele>
        <time>2016-10-08T10:50:37Z</time>
      </trkpt>
      <trkpt lat="46.0104" lon="4.70631">
        <ele>196</ele>
        <time>2016-10-08T10:50:38Z</time>
      </trkpt>
      <trkpt lat="46.01035" lon="4.70629">
        <ele>196</ele>
        <time>2016-10-08T10:50:39Z</time>
      </trkpt>
      <trkpt lat="46.0103" lon="4.70627">
        <ele>196</ele>
        <time>2016-10-08T10:50:40Z</time>
      </trkpt>
      <trkpt lat="46.01026" lon="4.70624">
        <ele>196</ele>
        <time>2016-10-08T10:50:41Z</time>
      </trkpt>
      <trkpt lat="46.01021" lon="4.70622">
        <ele>196</ele>
        <time>2016-10-08T10:50:42Z</time>
      </trkpt>
      <trkpt lat="46.01016" lon="4.7062">
        <ele>196</ele>
        <time>2016-10-08T10:50:43Z</time>
      </trkpt>
      <trkpt lat="46.01012" lon="4.70618">
        <ele>196</ele>
        <time>2016-10-08T10:50:44Z</time>
      </trkpt>
      <trkpt lat="46.01007" lon="4.70616">
        <ele>196</ele>
        <time>2016-10-08T10:50:45Z</time>
      </trkpt>
      <trkpt lat="46.01001" lon="4.70613">
        <ele>196</ele>
        <time>2016-10-08T10:50:46Z</time>
      </trkpt>
      <trkpt lat="46.00996" lon="4.70611">
        <ele>197</ele>
        <time>2016-10-08T10:50:47Z</time>
      </trkpt>
      <trkpt lat="46.00991" lon="4.70608">
        <ele>197</ele>
        <time>2016-10-08T10:50:48Z</time>
      </trkpt>
      <trkpt lat="46.00986" lon="4.70606">
        <ele>197</ele>
        <time>2016-10-08T10:50:49Z</time>
      </trkpt>
      <trkpt lat="46.00978" lon="4.70602">
        <ele>197</ele>
        <time>2016-10-08T10:50:51Z</time>
      </trkpt>
      <trkpt lat="46.00974" lon="4.706">
        <ele>197</ele>
        <time>2016-10-08T10:50:52Z</time>
      </trkpt>
      <trkpt lat="46.00966" lon="4.70595">
        <ele>197</ele>
        <time>2016-10-08T10:50:54Z</time>
      </trkpt>
      <trkpt lat="46.00961" lon="4.70593">
        <ele>197</ele>
        <time>2016-10-08T10:50:55Z</time>
      </trkpt>
      <trkpt lat="46.00956" lon="4.70591">
        <ele>197</ele>
        <time>2016-10-08T10:50:56Z</time>
      </trkpt>
      <trkpt lat="46.00951" lon="4.70589">
        <ele>197</ele>
        <time>2016-10-08T10:50:57Z</time>
      </trkpt>
      <trkpt lat="46.00947" lon="4.70586">
        <ele>197</ele>
        <time>2016-10-08T10:50:58Z</time>
      </trkpt>
      <trkpt lat="46.00942" lon="4.70584">
        <ele>198</ele>
        <time>2016-10-08T10:50:59Z</time>
      </trkpt>
      <trkpt lat="46.00937" lon="4.70582">
        <ele>198</ele>
        <time>2016-10-08T10:51:00Z</time>
      </trkpt>
      <trkpt lat="46.00933" lon="4.7058">
        <ele>198</ele>
        <time>2016-10-08T10:51:01Z</time>
      </trkpt>
      <trkpt lat="46.00928" lon="4.70578">
        <ele>198</ele>
        <time>2016-10-08T10:51:02Z</time>
      </trkpt>
      <trkpt lat="46.00924" lon="4.70576">
        <ele>198</ele>
        <time>2016-10-08T10:51:03Z</time>
      </trkpt>
      <trkpt lat="46.00919" lon="4.70574">
        <ele>198</ele>
        <time>2016-10-08T10:51:04Z</time>
      </trkpt>
      <trkpt lat="46.00914" lon="4.70571">
        <ele>199</ele>
        <time>2016-10-08T10:51:05Z</time>
      </trkpt>
      <trkpt lat="46.00906" lon="4.70568">
        <ele>200</ele>
        <time>2016-10-08T10:51:07Z</time>
      </trkpt>
      <trkpt lat="46.00901" lon="4.70566">
        <ele>200</ele>
        <time>2016-10-08T10:51:08Z</time>
      </trkpt>
      <trkpt lat="46.00893" lon="4.70562">
        <ele>200</ele>
        <time>2016-10-08T10:51:10Z</time>
      </trkpt>
      <trkpt lat="46.00889" lon="4.7056">
        <ele>200</ele>
        <time>2016-10-08T10:51:11Z</time>
      </trkpt>
      <trkpt lat="46.00884" lon="4.70558">
        <ele>200</ele>
        <time>2016-10-08T10:51:12Z</time>
      </trkpt>
      <trkpt lat="46.0088" lon="4.70556">
        <ele>201</ele>
        <time>2016-10-08T10:51:13Z</time>
      </trkpt>
      <trkpt lat="46.00875" lon="4.70554">
        <ele>201</ele>
        <time>2016-10-08T10:51:14Z</time>
      </trkpt>
      <trkpt lat="46.00871" lon="4.70552">
        <ele>201</ele>
        <time>2016-10-08T10:51:15Z</time>
      </trkpt>
      <trkpt lat="46.00863" lon="4.70548">
        <ele>201</ele>
        <time>2016-10-08T10:51:17Z</time>
      </trkpt>
      <trkpt lat="46.00858" lon="4.70546">
        <ele>201</ele>
        <time>2016-10-08T10:51:18Z</time>
      </trkpt>
      <trkpt lat="46.00854" lon="4.70544">
        <ele>201</ele>
        <time>2016-10-08T10:51:19Z</time>
      </trkpt>
      <trkpt lat="46.00849" lon="4.70542">
        <ele>201</ele>
        <time>2016-10-08T10:51:20Z</time>
      </trkpt>
      <trkpt lat="46.00844" lon="4.70541">
        <ele>202</ele>
        <time>2016-10-08T10:51:21Z</time>
      </trkpt>
      <trkpt lat="46.00839" lon="4.70538">
        <ele>202</ele>
        <time>2016-10-08T10:51:22Z</time>
      </trkpt>
      <trkpt lat="46.00834" lon="4.70536">
        <ele>202</ele>
        <time>2016-10-08T10:51:23Z</time>
      </trkpt>
      <trkpt lat="46.00829" lon="4.70533">
        <ele>204</ele>
        <time>2016-10-08T10:51:24Z</time>
      </trkpt>
      <trkpt lat="46.00824" lon="4.70531">
        <ele>204</ele>
        <time>2016-10-08T10:51:25Z</time>
      </trkpt>
      <trkpt lat="46.00819" lon="4.70529">
        <ele>204</ele>
        <time>2016-10-08T10:51:26Z</time>
      </trkpt>
      <trkpt lat="46.00814" lon="4.70526">
        <ele>204</ele>
        <time>2016-10-08T10:51:27Z</time>
      </trkpt>
      <trkpt lat="46.00809" lon="4.70523">
        <ele>204</ele>
        <time>2016-10-08T10:51:28Z</time>
      </trkpt>
      <trkpt lat="46.00804" lon="4.70521">
        <ele>204</ele>
        <time>2016-10-08T10:51:29Z</time>
      </trkpt>
      <trkpt lat="46.00799" lon="4.70519">
        <ele>204</ele>
        <time>2016-10-08T10:51:30Z</time>
      </trkpt>
      <trkpt lat="46.00794" lon="4.70517">
        <ele>204</ele>
        <time>2016-10-08T10:51:31Z</time>
      </trkpt>
      <trkpt lat="46.00789" lon="4.70515">
        <ele>204</ele>
        <time>2016-10-08T10:51:32Z</time>
      </trkpt>
      <trkpt lat="46.00785" lon="4.70512">
        <ele>205</ele>
        <time>2016-10-08T10:51:33Z</time>
      </trkpt>
      <trkpt lat="46.00781" lon="4.7051">
        <ele>205</ele>
        <time>2016-10-08T10:51:34Z</time>
      </trkpt>
      <trkpt lat="46.00776" lon="4.70508">
        <ele>205</ele>
        <time>2016-10-08T10:51:35Z</time>
      </trkpt>
      <trkpt lat="46.00772" lon="4.70507">
        <ele>205</ele>
        <time>2016-10-08T10:51:36Z</time>
      </trkpt>
      <trkpt lat="46.00767" lon="4.70504">
        <ele>206</ele>
        <time>2016-10-08T10:51:37Z</time>
      </trkpt>
      <trkpt lat="46.00763" lon="4.70503">
        <ele>206</ele>
        <time>2016-10-08T10:51:38Z</time>
      </trkpt>
      <trkpt lat="46.00759" lon="4.70501">
        <ele>207</ele>
        <time>2016-10-08T10:51:39Z</time>
      </trkpt>
      <trkpt lat="46.00754" lon="4.70499">
        <ele>208</ele>
        <time>2016-10-08T10:51:40Z</time>
      </trkpt>
      <trkpt lat="46.00747" lon="4.70497">
        <ele>208</ele>
        <time>2016-10-08T10:51:42Z</time>
      </trkpt>
      <trkpt lat="46.00744" lon="4.70496">
        <ele>209</ele>
        <time>2016-10-08T10:51:43Z</time>
      </trkpt>
      <trkpt lat="46.00739" lon="4.70494">
        <ele>209</ele>
        <time>2016-10-08T10:51:44Z</time>
      </trkpt>
      <trkpt lat="46.00734" lon="4.70493">
        <ele>209</ele>
        <time>2016-10-08T10:51:45Z</time>
      </trkpt>
      <trkpt lat="46.0073" lon="4.70493">
        <ele>210</ele>
        <time>2016-10-08T10:51:46Z</time>
      </trkpt>
      <trkpt lat="46.00725" lon="4.70493">
        <ele>210</ele>
        <time>2016-10-08T10:51:47Z</time>
      </trkpt>
      <trkpt lat="46.0072" lon="4.70492">
        <ele>210</ele>
        <time>2016-10-08T10:51:48Z</time>
      </trkpt>
      <trkpt lat="46.00715" lon="4.70492">
        <ele>210</ele>
        <time>2016-10-08T10:51:49Z</time>
      </trkpt>
      <trkpt lat="46.0071" lon="4.70492">
        <ele>210</ele>
        <time>2016-10-08T10:51:50Z</time>
      </trkpt>
      <trkpt lat="46.00705" lon="4.70491">
        <ele>211</ele>
        <time>2016-10-08T10:51:51Z</time>
      </trkpt>
      <trkpt lat="46.00701" lon="4.70491">
        <ele>211</ele>
        <time>2016-10-08T10:51:52Z</time>
      </trkpt>
      <trkpt lat="46.00696" lon="4.70491">
        <ele>211</ele>
        <time>2016-10-08T10:51:53Z</time>
      </trkpt>
      <trkpt lat="46.00692" lon="4.70491">
        <ele>211</ele>
        <time>2016-10-08T10:51:54Z</time>
      </trkpt>
      <trkpt lat="46.00687" lon="4.70491">
        <ele>211</ele>
        <time>2016-10-08T10:51:55Z</time>
      </trkpt>
      <trkpt lat="46.00682" lon="4.70491">
        <ele>211</ele>
        <time>2016-10-08T10:51:56Z</time>
      </trkpt>
      <trkpt lat="46.00678" lon="4.70491">
        <ele>211</ele>
        <time>2016-10-08T10:51:57Z</time>
      </trkpt>
      <trkpt lat="46.00672" lon="4.70496">
        <ele>212</ele>
        <time>2016-10-08T10:51:58Z</time>
      </trkpt>
      <trkpt lat="46.00667" lon="4.705">
        <ele>212</ele>
        <time>2016-10-08T10:51:59Z</time>
      </trkpt>
      <trkpt lat="46.00663" lon="4.70503">
        <ele>211</ele>
        <time>2016-10-08T10:52:00Z</time>
      </trkpt>
      <trkpt lat="46.00656" lon="4.70505">
        <ele>210</ele>
        <time>2016-10-08T10:52:01Z</time>
      </trkpt>
      <trkpt lat="46.00652" lon="4.70505">
        <ele>209</ele>
        <time>2016-10-08T10:52:02Z</time>
      </trkpt>
      <trkpt lat="46.00646" lon="4.70505">
        <ele>209</ele>
        <time>2016-10-08T10:52:03Z</time>
      </trkpt>
      <trkpt lat="46.00641" lon="4.70505">
        <ele>208</ele>
        <time>2016-10-08T10:52:04Z</time>
      </trkpt>
      <trkpt lat="46.00635" lon="4.70505">
        <ele>208</ele>
        <time>2016-10-08T10:52:05Z</time>
      </trkpt>
      <trkpt lat="46.0063" lon="4.70507">
        <ele>207</ele>
        <time>2016-10-08T10:52:06Z</time>
      </trkpt>
      <trkpt lat="46.00624" lon="4.70507">
        <ele>207</ele>
        <time>2016-10-08T10:52:07Z</time>
      </trkpt>
      <trkpt lat="46.00619" lon="4.70507">
        <ele>207</ele>
        <time>2016-10-08T10:52:08Z</time>
      </trkpt>
      <trkpt lat="46.00613" lon="4.70509">
        <ele>207</ele>
        <time>2016-10-08T10:52:09Z</time>
      </trkpt>
      <trkpt lat="46.00608" lon="4.7051">
        <ele>207</ele>
        <time>2016-10-08T10:52:10Z</time>
      </trkpt>
      <trkpt lat="46.00601" lon="4.70509">
        <ele>207</ele>
        <time>2016-10-08T10:52:11Z</time>
      </trkpt>
      <trkpt lat="46.00595" lon="4.7051">
        <ele>207</ele>
        <time>2016-10-08T10:52:12Z</time>
      </trkpt>
      <trkpt lat="46.00589" lon="4.70511">
        <ele>207</ele>
        <time>2016-10-08T10:52:13Z</time>
      </trkpt>
      <trkpt lat="46.00583" lon="4.70511">
        <ele>206</ele>
        <time>2016-10-08T10:52:14Z</time>
      </trkpt>
      <trkpt lat="46.00578" lon="4.70507">
        <ele>206</ele>
        <time>2016-10-08T10:52:15Z</time>
      </trkpt>
      <trkpt lat="46.00572" lon="4.70506">
        <ele>205</ele>
        <time>2016-10-08T10:52:16Z</time>
      </trkpt>
      <trkpt lat="46.00565" lon="4.70507">
        <ele>205</ele>
        <time>2016-10-08T10:52:17Z</time>
      </trkpt>
      <trkpt lat="46.00558" lon="4.70506">
        <ele>205</ele>
        <time>2016-10-08T10:52:18Z</time>
      </trkpt>
      <trkpt lat="46.0055" lon="4.70506">
        <ele>204</ele>
        <time>2016-10-08T10:52:19Z</time>
      </trkpt>
      <trkpt lat="46.00543" lon="4.70506">
        <ele>204</ele>
        <time>2016-10-08T10:52:20Z</time>
      </trkpt>
      <trkpt lat="46.00535" lon="4.70506">
        <ele>204</ele>
        <time>2016-10-08T10:52:21Z</time>
      </trkpt>
      <trkpt lat="46.00527" lon="4.70506">
        <ele>204</ele>
        <time>2016-10-08T10:52:22Z</time>
      </trkpt>
      <trkpt lat="46.0052" lon="4.70505">
        <ele>204</ele>
        <time>2016-10-08T10:52:23Z</time>
      </trkpt>
      <trkpt lat="46.00513" lon="4.70505">
        <ele>204</ele>
        <time>2016-10-08T10:52:24Z</time>
      </trkpt>
      <trkpt lat="46.00505" lon="4.70506">
        <ele>204</ele>
        <time>2016-10-08T10:52:25Z</time>
      </trkpt>
      <trkpt lat="46.00499" lon="4.70506">
        <ele>203</ele>
        <time>2016-10-08T10:52:26Z</time>
      </trkpt>
      <trkpt lat="46.00492" lon="4.70506">
        <ele>203</ele>
        <time>2016-10-08T10:52:27Z</time>
      </trkpt>
      <trkpt lat="46.00486" lon="4.70505">
        <ele>202</ele>
        <time>2016-10-08T10:52:28Z</time>
      </trkpt>
      <trkpt lat="46.00478" lon="4.70505">
        <ele>202</ele>
        <time>2016-10-08T10:52:29Z</time>
      </trkpt>
      <trkpt lat="46.00473" lon="4.70505">
        <ele>202</ele>
        <time>2016-10-08T10:52:30Z</time>
      </trkpt>
      <trkpt lat="46.00467" lon="4.70503">
        <ele>201</ele>
        <time>2016-10-08T10:52:31Z</time>
      </trkpt>
      <trkpt lat="46.0046" lon="4.70501">
        <ele>201</ele>
        <time>2016-10-08T10:52:32Z</time>
      </trkpt>
      <trkpt lat="46.00453" lon="4.70497">
        <ele>203</ele>
        <time>2016-10-08T10:52:33Z</time>
      </trkpt>
      <trkpt lat="46.00447" lon="4.70495">
        <ele>202</ele>
        <time>2016-10-08T10:52:34Z</time>
      </trkpt>
      <trkpt lat="46.0044" lon="4.70493">
        <ele>202</ele>
        <time>2016-10-08T10:52:35Z</time>
      </trkpt>
      <trkpt lat="46.00433" lon="4.70492">
        <ele>202</ele>
        <time>2016-10-08T10:52:36Z</time>
      </trkpt>
      <trkpt lat="46.00427" lon="4.70491">
        <ele>201</ele>
        <time>2016-10-08T10:52:37Z</time>
      </trkpt>
      <trkpt lat="46.0042" lon="4.7049">
        <ele>201</ele>
        <time>2016-10-08T10:52:38Z</time>
      </trkpt>
      <trkpt lat="46.00414" lon="4.70489">
        <ele>200</ele>
        <time>2016-10-08T10:52:39Z</time>
      </trkpt>
      <trkpt lat="46.00407" lon="4.70489">
        <ele>200</ele>
        <time>2016-10-08T10:52:40Z</time>
      </trkpt>
      <trkpt lat="46.004" lon="4.70489">
        <ele>200</ele>
        <time>2016-10-08T10:52:41Z</time>
      </trkpt>
      <trkpt lat="46.00393" lon="4.7049">
        <ele>200</ele>
        <time>2016-10-08T10:52:42Z</time>
      </trkpt>
      <trkpt lat="46.00386" lon="4.7049">
        <ele>200</ele>
        <time>2016-10-08T10:52:43Z</time>
      </trkpt>
      <trkpt lat="46.00379" lon="4.7049">
        <ele>200</ele>
        <time>2016-10-08T10:52:44Z</time>
      </trkpt>
      <trkpt lat="46.00373" lon="4.70492">
        <ele>200</ele>
        <time>2016-10-08T10:52:45Z</time>
      </trkpt>
      <trkpt lat="46.00367" lon="4.70492">
        <ele>200</ele>
        <time>2016-10-08T10:52:46Z</time>
      </trkpt>
      <trkpt lat="46.00361" lon="4.70494">
        <ele>200</ele>
        <time>2016-10-08T10:52:47Z</time>
      </trkpt>
      <trkpt lat="46.00355" lon="4.70496">
        <ele>200</ele>
        <time>2016-10-08T10:52:48Z</time>
      </trkpt>
      <trkpt lat="46.00348" lon="4.70497">
        <ele>199</ele>
        <time>2016-10-08T10:52:49Z</time>
      </trkpt>
      <trkpt lat="46.0034" lon="4.70499">
        <ele>199</ele>
        <time>2016-10-08T10:52:50Z</time>
      </trkpt>
      <trkpt lat="46.00333" lon="4.705">
        <ele>198</ele>
        <time>2016-10-08T10:52:51Z</time>
      </trkpt>
      <trkpt lat="46.00326" lon="4.70501">
        <ele>198</ele>
        <time>2016-10-08T10:52:52Z</time>
      </trkpt>
      <trkpt lat="46.00319" lon="4.70503">
        <ele>198</ele>
        <time>2016-10-08T10:52:53Z</time>
      </trkpt>
      <trkpt lat="46.00312" lon="4.70504">
        <ele>197</ele>
        <time>2016-10-08T10:52:54Z</time>
      </trkpt>
      <trkpt lat="46.00304" lon="4.70505">
        <ele>197</ele>
        <time>2016-10-08T10:52:55Z</time>
      </trkpt>
      <trkpt lat="46.00298" lon="4.70506">
        <ele>197</ele>
        <time>2016-10-08T10:52:56Z</time>
      </trkpt>
      <trkpt lat="46.00291" lon="4.70508">
        <ele>197</ele>
        <time>2016-10-08T10:52:57Z</time>
      </trkpt>
      <trkpt lat="46.00285" lon="4.70509">
        <ele>197</ele>
        <time>2016-10-08T10:52:58Z</time>
      </trkpt>
      <trkpt lat="46.00278" lon="4.7051">
        <ele>197</ele>
        <time>2016-10-08T10:52:59Z</time>
      </trkpt>
      <trkpt lat="46.00271" lon="4.70513">
        <ele>197</ele>
        <time>2016-10-08T10:53:00Z</time>
      </trkpt>
      <trkpt lat="46.00263" lon="4.70515">
        <ele>197</ele>
        <time>2016-10-08T10:53:01Z</time>
      </trkpt>
      <trkpt lat="46.00256" lon="4.70517">
        <ele>197</ele>
        <time>2016-10-08T10:53:02Z</time>
      </trkpt>
      <trkpt lat="46.0025" lon="4.70518">
        <ele>198</ele>
        <time>2016-10-08T10:53:03Z</time>
      </trkpt>
      <trkpt lat="46.00244" lon="4.7052">
        <ele>198</ele>
        <time>2016-10-08T10:53:04Z</time>
      </trkpt>
      <trkpt lat="46.00237" lon="4.7052">
        <ele>198</ele>
        <time>2016-10-08T10:53:05Z</time>
      </trkpt>
      <trkpt lat="46.00231" lon="4.70522">
        <ele>198</ele>
        <time>2016-10-08T10:53:06Z</time>
      </trkpt>
      <trkpt lat="46.00225" lon="4.70523">
        <ele>198</ele>
        <time>2016-10-08T10:53:07Z</time>
      </trkpt>
      <trkpt lat="46.00219" lon="4.70525">
        <ele>198</ele>
        <time>2016-10-08T10:53:08Z</time>
      </trkpt>
      <trkpt lat="46.00214" lon="4.70526">
        <ele>198</ele>
        <time>2016-10-08T10:53:09Z</time>
      </trkpt>
      <trkpt lat="46.00208" lon="4.70528">
        <ele>198</ele>
        <time>2016-10-08T10:53:10Z</time>
      </trkpt>
      <trkpt lat="46.00202" lon="4.70529">
        <ele>198</ele>
        <time>2016-10-08T10:53:11Z</time>
      </trkpt>
      <trkpt lat="46.00197" lon="4.70529">
        <ele>198</ele>
        <time>2016-10-08T10:53:12Z</time>
      </trkpt>
      <trkpt lat="46.00191" lon="4.7053">
        <ele>198</ele>
        <time>2016-10-08T10:53:13Z</time>
      </trkpt>
      <trkpt lat="46.00185" lon="4.7053">
        <ele>198</ele>
        <time>2016-10-08T10:53:14Z</time>
      </trkpt>
      <trkpt lat="46.00179" lon="4.7053">
        <ele>198</ele>
        <time>2016-10-08T10:53:15Z</time>
      </trkpt>
      <trkpt lat="46.00174" lon="4.70529">
        <ele>198</ele>
        <time>2016-10-08T10:53:16Z</time>
      </trkpt>
      <trkpt lat="46.00169" lon="4.70526">
        <ele>198</ele>
        <time>2016-10-08T10:53:17Z</time>
      </trkpt>
      <trkpt lat="46.00164" lon="4.70522">
        <ele>198</ele>
        <time>2016-10-08T10:53:18Z</time>
      </trkpt>
      <trkpt lat="46.0016" lon="4.70518">
        <ele>198</ele>
        <time>2016-10-08T10:53:19Z</time>
      </trkpt>
      <trkpt lat="46.00155" lon="4.70515">
        <ele>198</ele>
        <time>2016-10-08T10:53:20Z</time>
      </trkpt>
      <trkpt lat="46.00149" lon="4.70515">
        <ele>198</ele>
        <time>2016-10-08T10:53:21Z</time>
      </trkpt>
      <trkpt lat="46.00144" lon="4.70517">
        <ele>198</ele>
        <time>2016-10-08T10:53:22Z</time>
      </trkpt>
      <trkpt lat="46.00139" lon="4.70522">
        <ele>198</ele>
        <time>2016-10-08T10:53:23Z</time>
      </trkpt>
      <trkpt lat="46.00136" lon="4.70529">
        <ele>198</ele>
        <time>2016-10-08T10:53:24Z</time>
      </trkpt>
      <trkpt lat="46.00133" lon="4.70537">
        <ele>198</ele>
        <time>2016-10-08T10:53:25Z</time>
      </trkpt>
      <trkpt lat="46.00131" lon="4.70545">
        <ele>198</ele>
        <time>2016-10-08T10:53:26Z</time>
      </trkpt>
      <trkpt lat="46.00129" lon="4.70554">
        <ele>198</ele>
        <time>2016-10-08T10:53:27Z</time>
      </trkpt>
      <trkpt lat="46.00125" lon="4.70561">
        <ele>198</ele>
        <time>2016-10-08T10:53:28Z</time>
      </trkpt>
      <trkpt lat="46.00121" lon="4.70566">
        <ele>198</ele>
        <time>2016-10-08T10:53:29Z</time>
      </trkpt>
      <trkpt lat="46.00115" lon="4.70569">
        <ele>198</ele>
        <time>2016-10-08T10:53:30Z</time>
      </trkpt>
      <trkpt lat="46.0011" lon="4.70571">
        <ele>198</ele>
        <time>2016-10-08T10:53:31Z</time>
      </trkpt>
      <trkpt lat="46.00105" lon="4.70573">
        <ele>198</ele>
        <time>2016-10-08T10:53:32Z</time>
      </trkpt>
      <trkpt lat="46.001" lon="4.70576">
        <ele>198</ele>
        <time>2016-10-08T10:53:33Z</time>
      </trkpt>
      <trkpt lat="46.00095" lon="4.70579">
        <ele>198</ele>
        <time>2016-10-08T10:53:34Z</time>
      </trkpt>
      <trkpt lat="46.00089" lon="4.70583">
        <ele>198</ele>
        <time>2016-10-08T10:53:35Z</time>
      </trkpt>
      <trkpt lat="46.00084" lon="4.70586">
        <ele>198</ele>
        <time>2016-10-08T10:53:36Z</time>
      </trkpt>
      <trkpt lat="46.00078" lon="4.70589">
        <ele>198</ele>
        <time>2016-10-08T10:53:37Z</time>
      </trkpt>
      <trkpt lat="46.00072" lon="4.70592">
        <ele>198</ele>
        <time>2016-10-08T10:53:38Z</time>
      </trkpt>
      <trkpt lat="46.00066" lon="4.70594">
        <ele>198</ele>
        <time>2016-10-08T10:53:39Z</time>
      </trkpt>
      <trkpt lat="46.0006" lon="4.70596">
        <ele>198</ele>
        <time>2016-10-08T10:53:40Z</time>
      </trkpt>
      <trkpt lat="46.00055" lon="4.70597">
        <ele>198</ele>
        <time>2016-10-08T10:53:41Z</time>
      </trkpt>
      <trkpt lat="46.00049" lon="4.70599">
        <ele>198</ele>
        <time>2016-10-08T10:53:42Z</time>
      </trkpt>
      <trkpt lat="46.00044" lon="4.70601">
        <ele>198</ele>
        <time>2016-10-08T10:53:43Z</time>
      </trkpt>
      <trkpt lat="46.0004" lon="4.70602">
        <ele>199</ele>
        <time>2016-10-08T10:53:44Z</time>
      </trkpt>
      <trkpt lat="46.00035" lon="4.70603">
        <ele>199</ele>
        <time>2016-10-08T10:53:45Z</time>
      </trkpt>
      <trkpt lat="46.00027" lon="4.70605">
        <ele>199</ele>
        <time>2016-10-08T10:53:47Z</time>
      </trkpt>
      <trkpt lat="46.00022" lon="4.70606">
        <ele>199</ele>
        <time>2016-10-08T10:53:48Z</time>
      </trkpt>
      <trkpt lat="46.00017" lon="4.70607">
        <ele>199</ele>
        <time>2016-10-08T10:53:49Z</time>
      </trkpt>
      <trkpt lat="46.00012" lon="4.70609">
        <ele>199</ele>
        <time>2016-10-08T10:53:50Z</time>
      </trkpt>
      <trkpt lat="46.00005" lon="4.70611">
        <ele>199</ele>
        <time>2016-10-08T10:53:51Z</time>
      </trkpt>
      <trkpt lat="45.99999" lon="4.70612">
        <ele>199</ele>
        <time>2016-10-08T10:53:52Z</time>
      </trkpt>
      <trkpt lat="45.99993" lon="4.70613">
        <ele>199</ele>
        <time>2016-10-08T10:53:53Z</time>
      </trkpt>
      <trkpt lat="45.99986" lon="4.70615">
        <ele>199</ele>
        <time>2016-10-08T10:53:54Z</time>
      </trkpt>
      <trkpt lat="45.99979" lon="4.70616">
        <ele>199</ele>
        <time>2016-10-08T10:53:55Z</time>
      </trkpt>
      <trkpt lat="45.99973" lon="4.70617">
        <ele>199</ele>
        <time>2016-10-08T10:53:56Z</time>
      </trkpt>
      <trkpt lat="45.99968" lon="4.70618">
        <ele>199</ele>
        <time>2016-10-08T10:53:57Z</time>
      </trkpt>
      <trkpt lat="45.99962" lon="4.7062">
        <ele>199</ele>
        <time>2016-10-08T10:53:58Z</time>
      </trkpt>
      <trkpt lat="45.99957" lon="4.70621">
        <ele>199</ele>
        <time>2016-10-08T10:53:59Z</time>
      </trkpt>
      <trkpt lat="45.99951" lon="4.70622">
        <ele>199</ele>
        <time>2016-10-08T10:54:00Z</time>
      </trkpt>
      <trkpt lat="45.99945" lon="4.70622">
        <ele>199</ele>
        <time>2016-10-08T10:54:01Z</time>
      </trkpt>
      <trkpt lat="45.9994" lon="4.70621">
        <ele>199</ele>
        <time>2016-10-08T10:54:02Z</time>
      </trkpt>
      <trkpt lat="45.99933" lon="4.70621">
        <ele>199</ele>
        <time>2016-10-08T10:54:03Z</time>
      </trkpt>
      <trkpt lat="45.99927" lon="4.70622">
        <ele>199</ele>
        <time>2016-10-08T10:54:04Z</time>
      </trkpt>
      <trkpt lat="45.99922" lon="4.70622">
        <ele>199</ele>
        <time>2016-10-08T10:54:05Z</time>
      </trkpt>
      <trkpt lat="45.99918" lon="4.70623">
        <ele>199</ele>
        <time>2016-10-08T10:54:06Z</time>
      </trkpt>
      <trkpt lat="45.9991" lon="4.70624">
        <ele>200</ele>
        <time>2016-10-08T10:54:08Z</time>
      </trkpt>
      <trkpt lat="45.99906" lon="4.70625">
        <ele>200</ele>
        <time>2016-10-08T10:54:09Z</time>
      </trkpt>
      <trkpt lat="45.99898" lon="4.70626">
        <ele>200</ele>
        <time>2016-10-08T10:54:12Z</time>
      </trkpt>
      <trkpt lat="45.99895" lon="4.70626">
        <ele>200</ele>
        <time>2016-10-08T10:54:13Z</time>
      </trkpt>
      <trkpt lat="45.99888" lon="4.70628">
        <ele>200</ele>
        <time>2016-10-08T10:54:16Z</time>
      </trkpt>
      <trkpt lat="45.99885" lon="4.70631">
        <ele>200</ele>
        <time>2016-10-08T10:54:17Z</time>
      </trkpt>
      <trkpt lat="45.99877" lon="4.70634">
        <ele>201</ele>
        <time>2016-10-08T10:54:19Z</time>
      </trkpt>
      <trkpt lat="45.99872" lon="4.70635">
        <ele>201</ele>
        <time>2016-10-08T10:54:20Z</time>
      </trkpt>
      <trkpt lat="45.99867" lon="4.70637">
        <ele>201</ele>
        <time>2016-10-08T10:54:21Z</time>
      </trkpt>
      <trkpt lat="45.99862" lon="4.7064">
        <ele>201</ele>
        <time>2016-10-08T10:54:22Z</time>
      </trkpt>
      <trkpt lat="45.99857" lon="4.70642">
        <ele>201</ele>
        <time>2016-10-08T10:54:23Z</time>
      </trkpt>
      <trkpt lat="45.99851" lon="4.70643">
        <ele>201</ele>
        <time>2016-10-08T10:54:24Z</time>
      </trkpt>
      <trkpt lat="45.99846" lon="4.70644">
        <ele>201</ele>
        <time>2016-10-08T10:54:25Z</time>
      </trkpt>
      <trkpt lat="45.9984" lon="4.70645">
        <ele>201</ele>
        <time>2016-10-08T10:54:26Z</time>
      </trkpt>
      <trkpt lat="45.99834" lon="4.70646">
        <ele>201</ele>
        <time>2016-10-08T10:54:27Z</time>
      </trkpt>
      <trkpt lat="45.99828" lon="4.70647">
        <ele>202</ele>
        <time>2016-10-08T10:54:28Z</time>
      </trkpt>
      <trkpt lat="45.99822" lon="4.70648">
        <ele>202</ele>
        <time>2016-10-08T10:54:29Z</time>
      </trkpt>
      <trkpt lat="45.99817" lon="4.70649">
        <ele>202</ele>
        <time>2016-10-08T10:54:30Z</time>
      </trkpt>
      <trkpt lat="45.99812" lon="4.70651">
        <ele>202</ele>
        <time>2016-10-08T10:54:31Z</time>
      </trkpt>
      <trkpt lat="45.99806" lon="4.70652">
        <ele>202</ele>
        <time>2016-10-08T10:54:32Z</time>
      </trkpt>
      <trkpt lat="45.99801" lon="4.70653">
        <ele>202</ele>
        <time>2016-10-08T10:54:33Z</time>
      </trkpt>
      <trkpt lat="45.99795" lon="4.70655">
        <ele>202</ele>
        <time>2016-10-08T10:54:34Z</time>
      </trkpt>
      <trkpt lat="45.99789" lon="4.70655">
        <ele>202</ele>
        <time>2016-10-08T10:54:35Z</time>
      </trkpt>
      <trkpt lat="45.99783" lon="4.70657">
        <ele>202</ele>
        <time>2016-10-08T10:54:36Z</time>
      </trkpt>
      <trkpt lat="45.99777" lon="4.70659">
        <ele>202</ele>
        <time>2016-10-08T10:54:37Z</time>
      </trkpt>
      <trkpt lat="45.99771" lon="4.7066">
        <ele>202</ele>
        <time>2016-10-08T10:54:38Z</time>
      </trkpt>
      <trkpt lat="45.99766" lon="4.70661">
        <ele>202</ele>
        <time>2016-10-08T10:54:39Z</time>
      </trkpt>
      <trkpt lat="45.9976" lon="4.70661">
        <ele>202</ele>
        <time>2016-10-08T10:54:40Z</time>
      </trkpt>
      <trkpt lat="45.99756" lon="4.70662">
        <ele>202</ele>
        <time>2016-10-08T10:54:41Z</time>
      </trkpt>
      <trkpt lat="45.99751" lon="4.70663">
        <ele>202</ele>
        <time>2016-10-08T10:54:42Z</time>
      </trkpt>
      <trkpt lat="45.99746" lon="4.70664">
        <ele>202</ele>
        <time>2016-10-08T10:54:43Z</time>
      </trkpt>
      <trkpt lat="45.99741" lon="4.70665">
        <ele>202</ele>
        <time>2016-10-08T10:54:44Z</time>
      </trkpt>
      <trkpt lat="45.99733" lon="4.70666">
        <ele>202</ele>
        <time>2016-10-08T10:54:46Z</time>
      </trkpt>
      <trkpt lat="45.9973" lon="4.70666">
        <ele>202</ele>
        <time>2016-10-08T10:54:47Z</time>
      </trkpt>
      <trkpt lat="45.99721" lon="4.70666">
        <ele>202</ele>
        <time>2016-10-08T10:54:49Z</time>
      </trkpt>
      <trkpt lat="45.99717" lon="4.70667">
        <ele>202</ele>
        <time>2016-10-08T10:54:50Z</time>
      </trkpt>
      <trkpt lat="45.99712" lon="4.70668">
        <ele>201</ele>
        <time>2016-10-08T10:54:51Z</time>
      </trkpt>
      <trkpt lat="45.99707" lon="4.70669">
        <ele>201</ele>
        <time>2016-10-08T10:54:52Z</time>
      </trkpt>
      <trkpt lat="45.99702" lon="4.7067">
        <ele>201</ele>
        <time>2016-10-08T10:54:53Z</time>
      </trkpt>
      <trkpt lat="45.99698" lon="4.70673">
        <ele>201</ele>
        <time>2016-10-08T10:54:54Z</time>
      </trkpt>
      <trkpt lat="45.99694" lon="4.70676">
        <ele>201</ele>
        <time>2016-10-08T10:54:55Z</time>
      </trkpt>
      <trkpt lat="45.99689" lon="4.70677">
        <ele>201</ele>
        <time>2016-10-08T10:54:56Z</time>
      </trkpt>
      <trkpt lat="45.99685" lon="4.70679">
        <ele>201</ele>
        <time>2016-10-08T10:54:57Z</time>
      </trkpt>
      <trkpt lat="45.9968" lon="4.7068">
        <ele>201</ele>
        <time>2016-10-08T10:54:58Z</time>
      </trkpt>
      <trkpt lat="45.99675" lon="4.70682">
        <ele>201</ele>
        <time>2016-10-08T10:54:59Z</time>
      </trkpt>
      <trkpt lat="45.99669" lon="4.70683">
        <ele>201</ele>
        <time>2016-10-08T10:55:00Z</time>
      </trkpt>
      <trkpt lat="45.99663" lon="4.70685">
        <ele>201</ele>
        <time>2016-10-08T10:55:01Z</time>
      </trkpt>
      <trkpt lat="45.99657" lon="4.70686">
        <ele>201</ele>
        <time>2016-10-08T10:55:02Z</time>
      </trkpt>
      <trkpt lat="45.99652" lon="4.70687">
        <ele>201</ele>
        <time>2016-10-08T10:55:03Z</time>
      </trkpt>
      <trkpt lat="45.99647" lon="4.70688">
        <ele>200</ele>
        <time>2016-10-08T10:55:04Z</time>
      </trkpt>
      <trkpt lat="45.99641" lon="4.7069">
        <ele>200</ele>
        <time>2016-10-08T10:55:05Z</time>
      </trkpt>
      <trkpt lat="45.99635" lon="4.70692">
        <ele>200</ele>
        <time>2016-10-08T10:55:06Z</time>
      </trkpt>
      <trkpt lat="45.9963" lon="4.70691">
        <ele>200</ele>
        <time>2016-10-08T10:55:07Z</time>
      </trkpt>
      <trkpt lat="45.99625" lon="4.70692">
        <ele>200</ele>
        <time>2016-10-08T10:55:08Z</time>
      </trkpt>
      <trkpt lat="45.99618" lon="4.70693">
        <ele>200</ele>
        <time>2016-10-08T10:55:09Z</time>
      </trkpt>
      <trkpt lat="45.99612" lon="4.70695">
        <ele>200</ele>
        <time>2016-10-08T10:55:10Z</time>
      </trkpt>
      <trkpt lat="45.99607" lon="4.70697">
        <ele>200</ele>
        <time>2016-10-08T10:55:11Z</time>
      </trkpt>
      <trkpt lat="45.99601" lon="4.70699">
        <ele>200</ele>
        <time>2016-10-08T10:55:12Z</time>
      </trkpt>
      <trkpt lat="45.99596" lon="4.70701">
        <ele>200</ele>
        <time>2016-10-08T10:55:13Z</time>
      </trkpt>
      <trkpt lat="45.9959" lon="4.70702">
        <ele>200</ele>
        <time>2016-10-08T10:55:14Z</time>
      </trkpt>
      <trkpt lat="45.99585" lon="4.70705">
        <ele>200</ele>
        <time>2016-10-08T10:55:15Z</time>
      </trkpt>
      <trkpt lat="45.99581" lon="4.70707">
        <ele>200</ele>
        <time>2016-10-08T10:55:16Z</time>
      </trkpt>
      <trkpt lat="45.99576" lon="4.7071">
        <ele>200</ele>
        <time>2016-10-08T10:55:17Z</time>
      </trkpt>
      <trkpt lat="45.9957" lon="4.7071">
        <ele>200</ele>
        <time>2016-10-08T10:55:18Z</time>
      </trkpt>
      <trkpt lat="45.99564" lon="4.70713">
        <ele>200</ele>
        <time>2016-10-08T10:55:19Z</time>
      </trkpt>
      <trkpt lat="45.99558" lon="4.70714">
        <ele>200</ele>
        <time>2016-10-08T10:55:20Z</time>
      </trkpt>
      <trkpt lat="45.99553" lon="4.70715">
        <ele>199</ele>
        <time>2016-10-08T10:55:21Z</time>
      </trkpt>
      <trkpt lat="45.99544" lon="4.70715">
        <ele>199</ele>
        <time>2016-10-08T10:55:22Z</time>
      </trkpt>
      <trkpt lat="45.99538" lon="4.70716">
        <ele>199</ele>
        <time>2016-10-08T10:55:23Z</time>
      </trkpt>
      <trkpt lat="45.99532" lon="4.70716">
        <ele>199</ele>
        <time>2016-10-08T10:55:24Z</time>
      </trkpt>
      <trkpt lat="45.99527" lon="4.70717">
        <ele>199</ele>
        <time>2016-10-08T10:55:25Z</time>
      </trkpt>
      <trkpt lat="45.99522" lon="4.70718">
        <ele>199</ele>
        <time>2016-10-08T10:55:26Z</time>
      </trkpt>
      <trkpt lat="45.99516" lon="4.7072">
        <ele>199</ele>
        <time>2016-10-08T10:55:27Z</time>
      </trkpt>
      <trkpt lat="45.9951" lon="4.70721">
        <ele>199</ele>
        <time>2016-10-08T10:55:28Z</time>
      </trkpt>
      <trkpt lat="45.99504" lon="4.70722">
        <ele>199</ele>
        <time>2016-10-08T10:55:29Z</time>
      </trkpt>
      <trkpt lat="45.99497" lon="4.70723">
        <ele>199</ele>
        <time>2016-10-08T10:55:30Z</time>
      </trkpt>
      <trkpt lat="45.9949" lon="4.70724">
        <ele>199</ele>
        <time>2016-10-08T10:55:31Z</time>
      </trkpt>
      <trkpt lat="45.99486" lon="4.70726">
        <ele>199</ele>
        <time>2016-10-08T10:55:32Z</time>
      </trkpt>
      <trkpt lat="45.99481" lon="4.70725">
        <ele>199</ele>
        <time>2016-10-08T10:55:33Z</time>
      </trkpt>
      <trkpt lat="45.99475" lon="4.70724">
        <ele>199</ele>
        <time>2016-10-08T10:55:34Z</time>
      </trkpt>
      <trkpt lat="45.99469" lon="4.70725">
        <ele>200</ele>
        <time>2016-10-08T10:55:35Z</time>
      </trkpt>
      <trkpt lat="45.99462" lon="4.70726">
        <ele>200</ele>
        <time>2016-10-08T10:55:36Z</time>
      </trkpt>
      <trkpt lat="45.99456" lon="4.70723">
        <ele>200</ele>
        <time>2016-10-08T10:55:37Z</time>
      </trkpt>
      <trkpt lat="45.99449" lon="4.7072">
        <ele>200</ele>
        <time>2016-10-08T10:55:38Z</time>
      </trkpt>
      <trkpt lat="45.99442" lon="4.70718">
        <ele>200</ele>
        <time>2016-10-08T10:55:39Z</time>
      </trkpt>
      <trkpt lat="45.99436" lon="4.70718">
        <ele>200</ele>
        <time>2016-10-08T10:55:40Z</time>
      </trkpt>
      <trkpt lat="45.99429" lon="4.70718">
        <ele>200</ele>
        <time>2016-10-08T10:55:41Z</time>
      </trkpt>
      <trkpt lat="45.99424" lon="4.70719">
        <ele>200</ele>
        <time>2016-10-08T10:55:42Z</time>
      </trkpt>
      <trkpt lat="45.99419" lon="4.70718">
        <ele>200</ele>
        <time>2016-10-08T10:55:43Z</time>
      </trkpt>
      <trkpt lat="45.99413" lon="4.70717">
        <ele>199</ele>
        <time>2016-10-08T10:55:44Z</time>
      </trkpt>
      <trkpt lat="45.99408" lon="4.70717">
        <ele>199</ele>
        <time>2016-10-08T10:55:45Z</time>
      </trkpt>
      <trkpt lat="45.99402" lon="4.70718">
        <ele>199</ele>
        <time>2016-10-08T10:55:46Z</time>
      </trkpt>
      <trkpt lat="45.99397" lon="4.70717">
        <ele>199</ele>
        <time>2016-10-08T10:55:47Z</time>
      </trkpt>
      <trkpt lat="45.99392" lon="4.70716">
        <ele>199</ele>
        <time>2016-10-08T10:55:48Z</time>
      </trkpt>
      <trkpt lat="45.99386" lon="4.70716">
        <ele>199</ele>
        <time>2016-10-08T10:55:49Z</time>
      </trkpt>
      <trkpt lat="45.9938" lon="4.70714">
        <ele>198</ele>
        <time>2016-10-08T10:55:50Z</time>
      </trkpt>
      <trkpt lat="45.99372" lon="4.70714">
        <ele>198</ele>
        <time>2016-10-08T10:55:51Z</time>
      </trkpt>
      <trkpt lat="45.99366" lon="4.70715">
        <ele>198</ele>
        <time>2016-10-08T10:55:52Z</time>
      </trkpt>
      <trkpt lat="45.9936" lon="4.70715">
        <ele>198</ele>
        <time>2016-10-08T10:55:53Z</time>
      </trkpt>
      <trkpt lat="45.99353" lon="4.70714">
        <ele>198</ele>
        <time>2016-10-08T10:55:54Z</time>
      </trkpt>
      <trkpt lat="45.99347" lon="4.70714">
        <ele>197</ele>
        <time>2016-10-08T10:55:55Z</time>
      </trkpt>
      <trkpt lat="45.99342" lon="4.70716">
        <ele>197</ele>
        <time>2016-10-08T10:55:56Z</time>
      </trkpt>
      <trkpt lat="45.99334" lon="4.70713">
        <ele>197</ele>
        <time>2016-10-08T10:55:59Z</time>
      </trkpt>
      <trkpt lat="45.99327" lon="4.70714">
        <ele>196</ele>
        <time>2016-10-08T10:56:00Z</time>
      </trkpt>
      <trkpt lat="45.99322" lon="4.70713">
        <ele>196</ele>
        <time>2016-10-08T10:56:01Z</time>
      </trkpt>
      <trkpt lat="45.99317" lon="4.70713">
        <ele>196</ele>
        <time>2016-10-08T10:56:08Z</time>
      </trkpt>
      <trkpt lat="45.99311" lon="4.70712">
        <ele>196</ele>
        <time>2016-10-08T10:56:09Z</time>
      </trkpt>
      <trkpt lat="45.99306" lon="4.70712">
        <ele>196</ele>
        <time>2016-10-08T10:56:10Z</time>
      </trkpt>
      <trkpt lat="45.99298" lon="4.70712">
        <ele>196</ele>
        <time>2016-10-08T10:56:11Z</time>
      </trkpt>
      <trkpt lat="45.99292" lon="4.70712">
        <ele>196</ele>
        <time>2016-10-08T10:56:12Z</time>
      </trkpt>
      <trkpt lat="45.99285" lon="4.70711">
        <ele>196</ele>
        <time>2016-10-08T10:56:13Z</time>
      </trkpt>
      <trkpt lat="45.99278" lon="4.70711">
        <ele>196</ele>
        <time>2016-10-08T10:56:14Z</time>
      </trkpt>
      <trkpt lat="45.99272" lon="4.70711">
        <ele>196</ele>
        <time>2016-10-08T10:56:15Z</time>
      </trkpt>
      <trkpt lat="45.99265" lon="4.70711">
        <ele>196</ele>
        <time>2016-10-08T10:56:16Z</time>
      </trkpt>
      <trkpt lat="45.99259" lon="4.70711">
        <ele>196</ele>
        <time>2016-10-08T10:56:17Z</time>
      </trkpt>
      <trkpt lat="45.99252" lon="4.70712">
        <ele>196</ele>
        <time>2016-10-08T10:56:18Z</time>
      </trkpt>
      <trkpt lat="45.99245" lon="4.70713">
        <ele>196</ele>
        <time>2016-10-08T10:56:19Z</time>
      </trkpt>
      <trkpt lat="45.99237" lon="4.70713">
        <ele>196</ele>
        <time>2016-10-08T10:56:20Z</time>
      </trkpt>
      <trkpt lat="45.9923" lon="4.70712">
        <ele>196</ele>
        <time>2016-10-08T10:56:21Z</time>
      </trkpt>
      <trkpt lat="45.99224" lon="4.70712">
        <ele>196</ele>
        <time>2016-10-08T10:56:22Z</time>
      </trkpt>
      <trkpt lat="45.99218" lon="4.70712">
        <ele>196</ele>
        <time>2016-10-08T10:56:23Z</time>
      </trkpt>
      <trkpt lat="45.99211" lon="4.70712">
        <ele>196</ele>
        <time>2016-10-08T10:56:24Z</time>
      </trkpt>
      <trkpt lat="45.99205" lon="4.70712">
        <ele>196</ele>
        <time>2016-10-08T10:56:25Z</time>
      </trkpt>
      <trkpt lat="45.99199" lon="4.70712">
        <ele>196</ele>
        <time>2016-10-08T10:56:26Z</time>
      </trkpt>
      <trkpt lat="45.99191" lon="4.70711">
        <ele>196</ele>
        <time>2016-10-08T10:56:27Z</time>
      </trkpt>
      <trkpt lat="45.99184" lon="4.7071">
        <ele>196</ele>
        <time>2016-10-08T10:56:28Z</time>
      </trkpt>
      <trkpt lat="45.99178" lon="4.7071">
        <ele>196</ele>
        <time>2016-10-08T10:56:29Z</time>
      </trkpt>
      <trkpt lat="45.99171" lon="4.70709">
        <ele>196</ele>
        <time>2016-10-08T10:56:30Z</time>
      </trkpt>
      <trkpt lat="45.99164" lon="4.70707">
        <ele>195</ele>
        <time>2016-10-08T10:56:31Z</time>
      </trkpt>
      <trkpt lat="45.99159" lon="4.70707">
        <ele>195</ele>
        <time>2016-10-08T10:56:32Z</time>
      </trkpt>
      <trkpt lat="45.99152" lon="4.70708">
        <ele>195</ele>
        <time>2016-10-08T10:56:33Z</time>
      </trkpt>
      <trkpt lat="45.99146" lon="4.70708">
        <ele>195</ele>
        <time>2016-10-08T10:56:34Z</time>
      </trkpt>
      <trkpt lat="45.99139" lon="4.70707">
        <ele>195</ele>
        <time>2016-10-08T10:56:35Z</time>
      </trkpt>
      <trkpt lat="45.99133" lon="4.70706">
        <ele>195</ele>
        <time>2016-10-08T10:56:36Z</time>
      </trkpt>
      <trkpt lat="45.99126" lon="4.70706">
        <ele>195</ele>
        <time>2016-10-08T10:56:37Z</time>
      </trkpt>
      <trkpt lat="45.99119" lon="4.70705">
        <ele>195</ele>
        <time>2016-10-08T10:56:38Z</time>
      </trkpt>
      <trkpt lat="45.99113" lon="4.70706">
        <ele>195</ele>
        <time>2016-10-08T10:56:39Z</time>
      </trkpt>
      <trkpt lat="45.99106" lon="4.70706">
        <ele>195</ele>
        <time>2016-10-08T10:56:40Z</time>
      </trkpt>
      <trkpt lat="45.991" lon="4.70705">
        <ele>195</ele>
        <time>2016-10-08T10:56:41Z</time>
      </trkpt>
      <trkpt lat="45.99093" lon="4.70705">
        <ele>195</ele>
        <time>2016-10-08T10:56:42Z</time>
      </trkpt>
      <trkpt lat="45.99087" lon="4.70706">
        <ele>195</ele>
        <time>2016-10-08T10:56:43Z</time>
      </trkpt>
      <trkpt lat="45.99083" lon="4.70706">
        <ele>193</ele>
        <time>2016-10-08T10:56:44Z</time>
      </trkpt>
      <trkpt lat="45.99074" lon="4.70705">
        <ele>193</ele>
        <time>2016-10-08T10:56:46Z</time>
      </trkpt>
      <trkpt lat="45.9907" lon="4.70706">
        <ele>193</ele>
        <time>2016-10-08T10:56:47Z</time>
      </trkpt>
      <trkpt lat="45.99063" lon="4.70707">
        <ele>193</ele>
        <time>2016-10-08T10:56:49Z</time>
      </trkpt>
      <trkpt lat="45.9906" lon="4.70706">
        <ele>193</ele>
        <time>2016-10-08T10:56:50Z</time>
      </trkpt>
      <trkpt lat="45.99052" lon="4.70706">
        <ele>193</ele>
        <time>2016-10-08T10:56:53Z</time>
      </trkpt>
      <trkpt lat="45.9905" lon="4.70705">
        <ele>193</ele>
        <time>2016-10-08T10:56:54Z</time>
      </trkpt>
      <trkpt lat="45.99044" lon="4.70705">
        <ele>193</ele>
        <time>2016-10-08T10:56:56Z</time>
      </trkpt>
      <trkpt lat="45.9904" lon="4.70705">
        <ele>193</ele>
        <time>2016-10-08T10:56:57Z</time>
      </trkpt>
      <trkpt lat="45.99034" lon="4.70705">
        <ele>192</ele>
        <time>2016-10-08T10:56:58Z</time>
      </trkpt>
      <trkpt lat="45.99029" lon="4.70704">
        <ele>192</ele>
        <time>2016-10-08T10:56:59Z</time>
      </trkpt>
      <trkpt lat="45.99024" lon="4.70705">
        <ele>192</ele>
        <time>2016-10-08T10:57:00Z</time>
      </trkpt>
      <trkpt lat="45.99019" lon="4.70706">
        <ele>192</ele>
        <time>2016-10-08T10:57:01Z</time>
      </trkpt>
      <trkpt lat="45.99012" lon="4.70707">
        <ele>192</ele>
        <time>2016-10-08T10:57:02Z</time>
      </trkpt>
      <trkpt lat="45.99004" lon="4.70709">
        <ele>192</ele>
        <time>2016-10-08T10:57:03Z</time>
      </trkpt>
      <trkpt lat="45.98995" lon="4.70712">
        <ele>191</ele>
        <time>2016-10-08T10:57:04Z</time>
      </trkpt>
      <trkpt lat="45.98988" lon="4.70716">
        <ele>191</ele>
        <time>2016-10-08T10:57:05Z</time>
      </trkpt>
      <trkpt lat="45.98981" lon="4.70721">
        <ele>191</ele>
        <time>2016-10-08T10:57:06Z</time>
      </trkpt>
      <trkpt lat="45.98975" lon="4.70728">
        <ele>191</ele>
        <time>2016-10-08T10:57:07Z</time>
      </trkpt>
      <trkpt lat="45.98969" lon="4.70735">
        <ele>191</ele>
        <time>2016-10-08T10:57:08Z</time>
      </trkpt>
      <trkpt lat="45.98962" lon="4.70742">
        <ele>190</ele>
        <time>2016-10-08T10:57:09Z</time>
      </trkpt>
      <trkpt lat="45.98958" lon="4.7075">
        <ele>190</ele>
        <time>2016-10-08T10:57:10Z</time>
      </trkpt>
      <trkpt lat="45.98954" lon="4.70757">
        <ele>189</ele>
        <time>2016-10-08T10:57:11Z</time>
      </trkpt>
      <trkpt lat="45.98951" lon="4.70765">
        <ele>189</ele>
        <time>2016-10-08T10:57:12Z</time>
      </trkpt>
      <trkpt lat="45.98947" lon="4.70773">
        <ele>189</ele>
        <time>2016-10-08T10:57:13Z</time>
      </trkpt>
      <trkpt lat="45.98942" lon="4.70781">
        <ele>189</ele>
        <time>2016-10-08T10:57:14Z</time>
      </trkpt>
      <trkpt lat="45.98938" lon="4.7079">
        <ele>189</ele>
        <time>2016-10-08T10:57:15Z</time>
      </trkpt>
      <trkpt lat="45.98934" lon="4.708">
        <ele>189</ele>
        <time>2016-10-08T10:57:16Z</time>
      </trkpt>
      <trkpt lat="45.98928" lon="4.70809">
        <ele>188</ele>
        <time>2016-10-08T10:57:17Z</time>
      </trkpt>
      <trkpt lat="45.98923" lon="4.70818">
        <ele>188</ele>
        <time>2016-10-08T10:57:18Z</time>
      </trkpt>
      <trkpt lat="45.98918" lon="4.70827">
        <ele>187</ele>
        <time>2016-10-08T10:57:19Z</time>
      </trkpt>
      <trkpt lat="45.98913" lon="4.70836">
        <ele>187</ele>
        <time>2016-10-08T10:57:20Z</time>
      </trkpt>
      <trkpt lat="45.98909" lon="4.70845">
        <ele>187</ele>
        <time>2016-10-08T10:57:21Z</time>
      </trkpt>
      <trkpt lat="45.98904" lon="4.70854">
        <ele>186</ele>
        <time>2016-10-08T10:57:22Z</time>
      </trkpt>
      <trkpt lat="45.989" lon="4.70863">
        <ele>186</ele>
        <time>2016-10-08T10:57:23Z</time>
      </trkpt>
      <trkpt lat="45.98895" lon="4.70872">
        <ele>186</ele>
        <time>2016-10-08T10:57:24Z</time>
      </trkpt>
      <trkpt lat="45.98891" lon="4.7088">
        <ele>186</ele>
        <time>2016-10-08T10:57:25Z</time>
      </trkpt>
      <trkpt lat="45.98886" lon="4.70888">
        <ele>186</ele>
        <time>2016-10-08T10:57:26Z</time>
      </trkpt>
      <trkpt lat="45.98882" lon="4.70896">
        <ele>186</ele>
        <time>2016-10-08T10:57:27Z</time>
      </trkpt>
      <trkpt lat="45.98878" lon="4.70904">
        <ele>186</ele>
        <time>2016-10-08T10:57:28Z</time>
      </trkpt>
      <trkpt lat="45.98874" lon="4.70912">
        <ele>186</ele>
        <time>2016-10-08T10:57:29Z</time>
      </trkpt>
      <trkpt lat="45.9887" lon="4.70919">
        <ele>185</ele>
        <time>2016-10-08T10:57:30Z</time>
      </trkpt>
      <trkpt lat="45.98866" lon="4.70926">
        <ele>185</ele>
        <time>2016-10-08T10:57:31Z</time>
      </trkpt>
      <trkpt lat="45.98862" lon="4.70934">
        <ele>185</ele>
        <time>2016-10-08T10:57:32Z</time>
      </trkpt>
      <trkpt lat="45.98859" lon="4.70943">
        <ele>185</ele>
        <time>2016-10-08T10:57:33Z</time>
      </trkpt>
      <trkpt lat="45.98857" lon="4.7095">
        <ele>185</ele>
        <time>2016-10-08T10:57:34Z</time>
      </trkpt>
      <trkpt lat="45.98854" lon="4.70958">
        <ele>185</ele>
        <time>2016-10-08T10:57:35Z</time>
      </trkpt>
      <trkpt lat="45.98852" lon="4.70966">
        <ele>185</ele>
        <time>2016-10-08T10:57:36Z</time>
      </trkpt>
      <trkpt lat="45.98848" lon="4.70974">
        <ele>185</ele>
        <time>2016-10-08T10:57:37Z</time>
      </trkpt>
      <trkpt lat="45.98847" lon="4.70982">
        <ele>185</ele>
        <time>2016-10-08T10:57:38Z</time>
      </trkpt>
      <trkpt lat="45.98844" lon="4.7099">
        <ele>185</ele>
        <time>2016-10-08T10:57:39Z</time>
      </trkpt>
      <trkpt lat="45.98841" lon="4.70999">
        <ele>185</ele>
        <time>2016-10-08T10:57:40Z</time>
      </trkpt>
      <trkpt lat="45.98839" lon="4.71008">
        <ele>185</ele>
        <time>2016-10-08T10:57:41Z</time>
      </trkpt>
      <trkpt lat="45.98838" lon="4.71017">
        <ele>185</ele>
        <time>2016-10-08T10:57:42Z</time>
      </trkpt>
      <trkpt lat="45.98837" lon="4.71026">
        <ele>186</ele>
        <time>2016-10-08T10:57:43Z</time>
      </trkpt>
      <trkpt lat="45.98834" lon="4.71035">
        <ele>186</ele>
        <time>2016-10-08T10:57:44Z</time>
      </trkpt>
      <trkpt lat="45.98831" lon="4.71042">
        <ele>187</ele>
        <time>2016-10-08T10:57:45Z</time>
      </trkpt>
      <trkpt lat="45.98828" lon="4.7105">
        <ele>187</ele>
        <time>2016-10-08T10:57:46Z</time>
      </trkpt>
      <trkpt lat="45.98825" lon="4.71057">
        <ele>187</ele>
        <time>2016-10-08T10:57:47Z</time>
      </trkpt>
      <trkpt lat="45.98823" lon="4.71066">
        <ele>187</ele>
        <time>2016-10-08T10:57:48Z</time>
      </trkpt>
      <trkpt lat="45.9882" lon="4.71074">
        <ele>187</ele>
        <time>2016-10-08T10:57:49Z</time>
      </trkpt>
      <trkpt lat="45.98817" lon="4.71082">
        <ele>187</ele>
        <time>2016-10-08T10:57:50Z</time>
      </trkpt>
      <trkpt lat="45.98812" lon="4.7109">
        <ele>188</ele>
        <time>2016-10-08T10:57:51Z</time>
      </trkpt>
      <trkpt lat="45.98809" lon="4.71099">
        <ele>188</ele>
        <time>2016-10-08T10:57:52Z</time>
      </trkpt>
      <trkpt lat="45.98809" lon="4.71102">
        <ele>187</ele>
        <time>2016-10-08T10:57:53Z</time>
      </trkpt>
      <trkpt lat="45.98808" lon="4.71103">
        <ele>187</ele>
        <time>2016-10-08T10:57:54Z</time>
      </trkpt>
      <trkpt lat="45.98806" lon="4.71111">
        <ele>187</ele>
        <time>2016-10-08T10:57:55Z</time>
      </trkpt>
      <trkpt lat="45.98804" lon="4.71119">
        <ele>187</ele>
        <time>2016-10-08T10:57:56Z</time>
      </trkpt>
      <trkpt lat="45.98801" lon="4.71127">
        <ele>187</ele>
        <time>2016-10-08T10:57:57Z</time>
      </trkpt>
      <trkpt lat="45.98799" lon="4.71135">
        <ele>187</ele>
        <time>2016-10-08T10:57:58Z</time>
      </trkpt>
      <trkpt lat="45.98798" lon="4.71144">
        <ele>187</ele>
        <time>2016-10-08T10:57:59Z</time>
      </trkpt>
      <trkpt lat="45.98797" lon="4.71154">
        <ele>187</ele>
        <time>2016-10-08T10:58:00Z</time>
      </trkpt>
      <trkpt lat="45.98794" lon="4.71162">
        <ele>187</ele>
        <time>2016-10-08T10:58:01Z</time>
      </trkpt>
      <trkpt lat="45.98793" lon="4.71171">
        <ele>186</ele>
        <time>2016-10-08T10:58:02Z</time>
      </trkpt>
      <trkpt lat="45.98788" lon="4.71181">
        <ele>186</ele>
        <time>2016-10-08T10:58:03Z</time>
      </trkpt>
      <trkpt lat="45.98776" lon="4.71189">
        <ele>186</ele>
        <time>2016-10-08T10:58:04Z</time>
      </trkpt>
      <trkpt lat="45.98772" lon="4.71198">
        <ele>186</ele>
        <time>2016-10-08T10:58:05Z</time>
      </trkpt>
      <trkpt lat="45.98768" lon="4.71207">
        <ele>186</ele>
        <time>2016-10-08T10:58:06Z</time>
      </trkpt>
      <trkpt lat="45.98765" lon="4.71215">
        <ele>186</ele>
        <time>2016-10-08T10:58:07Z</time>
      </trkpt>
      <trkpt lat="45.98763" lon="4.71223">
        <ele>186</ele>
        <time>2016-10-08T10:58:08Z</time>
      </trkpt>
      <trkpt lat="45.98761" lon="4.71231">
        <ele>186</ele>
        <time>2016-10-08T10:58:09Z</time>
      </trkpt>
      <trkpt lat="45.98759" lon="4.71239">
        <ele>186</ele>
        <time>2016-10-08T10:58:10Z</time>
      </trkpt>
      <trkpt lat="45.98757" lon="4.71247">
        <ele>187</ele>
        <time>2016-10-08T10:58:11Z</time>
      </trkpt>
      <trkpt lat="45.98754" lon="4.71253">
        <ele>187</ele>
        <time>2016-10-08T10:58:12Z</time>
      </trkpt>
      <trkpt lat="45.98751" lon="4.71259">
        <ele>186</ele>
        <time>2016-10-08T10:58:13Z</time>
      </trkpt>
      <trkpt lat="45.98749" lon="4.71266">
        <ele>188</ele>
        <time>2016-10-08T10:58:14Z</time>
      </trkpt>
      <trkpt lat="45.98746" lon="4.71273">
        <ele>188</ele>
        <time>2016-10-08T10:58:15Z</time>
      </trkpt>
      <trkpt lat="45.98744" lon="4.7128">
        <ele>188</ele>
        <time>2016-10-08T10:58:16Z</time>
      </trkpt>
      <trkpt lat="45.98742" lon="4.71287">
        <ele>188</ele>
        <time>2016-10-08T10:58:17Z</time>
      </trkpt>
      <trkpt lat="45.9874" lon="4.71295">
        <ele>188</ele>
        <time>2016-10-08T10:58:18Z</time>
      </trkpt>
      <trkpt lat="45.98738" lon="4.71303">
        <ele>188</ele>
        <time>2016-10-08T10:58:19Z</time>
      </trkpt>
      <trkpt lat="45.98736" lon="4.7131">
        <ele>188</ele>
        <time>2016-10-08T10:58:20Z</time>
      </trkpt>
      <trkpt lat="45.98734" lon="4.71317">
        <ele>188</ele>
        <time>2016-10-08T10:58:21Z</time>
      </trkpt>
      <trkpt lat="45.98732" lon="4.71324">
        <ele>188</ele>
        <time>2016-10-08T10:58:22Z</time>
      </trkpt>
      <trkpt lat="45.9873" lon="4.71331">
        <ele>188</ele>
        <time>2016-10-08T10:58:23Z</time>
      </trkpt>
      <trkpt lat="45.98729" lon="4.71337">
        <ele>187</ele>
        <time>2016-10-08T10:58:24Z</time>
      </trkpt>
      <trkpt lat="45.98727" lon="4.71344">
        <ele>187</ele>
        <time>2016-10-08T10:58:25Z</time>
      </trkpt>
      <trkpt lat="45.98725" lon="4.71351">
        <ele>187</ele>
        <time>2016-10-08T10:58:26Z</time>
      </trkpt>
      <trkpt lat="45.98721" lon="4.71358">
        <ele>187</ele>
        <time>2016-10-08T10:58:27Z</time>
      </trkpt>
      <trkpt lat="45.9872" lon="4.71367">
        <ele>187</ele>
        <time>2016-10-08T10:58:28Z</time>
      </trkpt>
      <trkpt lat="45.98718" lon="4.71374">
        <ele>187</ele>
        <time>2016-10-08T10:58:29Z</time>
      </trkpt>
      <trkpt lat="45.98716" lon="4.71382">
        <ele>187</ele>
        <time>2016-10-08T10:58:30Z</time>
      </trkpt>
      <trkpt lat="45.98713" lon="4.71389">
        <ele>187</ele>
        <time>2016-10-08T10:58:31Z</time>
      </trkpt>
      <trkpt lat="45.98711" lon="4.71397">
        <ele>187</ele>
        <time>2016-10-08T10:58:32Z</time>
      </trkpt>
      <trkpt lat="45.98709" lon="4.71405">
        <ele>187</ele>
        <time>2016-10-08T10:58:33Z</time>
      </trkpt>
      <trkpt lat="45.98704" lon="4.71411">
        <ele>187</ele>
        <time>2016-10-08T10:58:34Z</time>
      </trkpt>
      <trkpt lat="45.987" lon="4.71417">
        <ele>187</ele>
        <time>2016-10-08T10:58:35Z</time>
      </trkpt>
      <trkpt lat="45.98697" lon="4.71423">
        <ele>187</ele>
        <time>2016-10-08T10:58:36Z</time>
      </trkpt>
      <trkpt lat="45.98695" lon="4.71436">
        <ele>187</ele>
        <time>2016-10-08T10:58:38Z</time>
      </trkpt>
      <trkpt lat="45.98695" lon="4.7144">
        <ele>187</ele>
        <time>2016-10-08T10:58:39Z</time>
      </trkpt>
      <trkpt lat="45.98693" lon="4.71448">
        <ele>187</ele>
        <time>2016-10-08T10:58:42Z</time>
      </trkpt>
      <trkpt lat="45.98694" lon="4.71449">
        <ele>187</ele>
        <time>2016-10-08T10:58:43Z</time>
      </trkpt>
      <trkpt lat="45.98691" lon="4.71458">
        <ele>187</ele>
        <time>2016-10-08T10:58:51Z</time>
      </trkpt>
      <trkpt lat="45.9869" lon="4.7146">
        <ele>187</ele>
        <time>2016-10-08T10:58:52Z</time>
      </trkpt>
      <trkpt lat="45.98684" lon="4.71464">
        <ele>187</ele>
        <time>2016-10-08T10:58:54Z</time>
      </trkpt>
      <trkpt lat="45.9868" lon="4.71465">
        <ele>187</ele>
        <time>2016-10-08T10:58:55Z</time>
      </trkpt>
      <trkpt lat="45.98674" lon="4.71469">
        <ele>187</ele>
        <time>2016-10-08T10:58:57Z</time>
      </trkpt>
      <trkpt lat="45.98668" lon="4.71475">
        <ele>188</ele>
        <time>2016-10-08T10:58:59Z</time>
      </trkpt>
      <trkpt lat="45.9866" lon="4.71479">
        <ele>190</ele>
        <time>2016-10-08T10:59:01Z</time>
      </trkpt>
      <trkpt lat="45.98656" lon="4.71479">
        <ele>190</ele>
        <time>2016-10-08T10:59:02Z</time>
      </trkpt>
      <trkpt lat="45.98647" lon="4.71481">
        <ele>190</ele>
        <time>2016-10-08T10:59:04Z</time>
      </trkpt>
      <trkpt lat="45.98644" lon="4.71485">
        <ele>190</ele>
        <time>2016-10-08T10:59:05Z</time>
      </trkpt>
      <trkpt lat="45.98638" lon="4.71488">
        <ele>190</ele>
        <time>2016-10-08T10:59:07Z</time>
      </trkpt>
      <trkpt lat="45.98633" lon="4.7149">
        <ele>190</ele>
        <time>2016-10-08T10:59:08Z</time>
      </trkpt>
      <trkpt lat="45.98624" lon="4.71493">
        <ele>190</ele>
        <time>2016-10-08T10:59:11Z</time>
      </trkpt>
      <trkpt lat="45.98621" lon="4.71497">
        <ele>190</ele>
        <time>2016-10-08T10:59:12Z</time>
      </trkpt>
      <trkpt lat="45.98614" lon="4.71497">
        <ele>191</ele>
        <time>2016-10-08T10:59:13Z</time>
      </trkpt>
      <trkpt lat="45.9861" lon="4.71498">
        <ele>191</ele>
        <time>2016-10-08T10:59:14Z</time>
      </trkpt>
      <trkpt lat="45.98604" lon="4.71498">
        <ele>191</ele>
        <time>2016-10-08T10:59:15Z</time>
      </trkpt>
      <trkpt lat="45.98599" lon="4.71498">
        <ele>191</ele>
        <time>2016-10-08T10:59:16Z</time>
      </trkpt>
      <trkpt lat="45.98591" lon="4.71502">
        <ele>192</ele>
        <time>2016-10-08T10:59:20Z</time>
      </trkpt>
      <trkpt lat="45.98587" lon="4.71503">
        <ele>192</ele>
        <time>2016-10-08T10:59:21Z</time>
      </trkpt>
      <trkpt lat="45.98578" lon="4.71504">
        <ele>193</ele>
        <time>2016-10-08T10:59:24Z</time>
      </trkpt>
      <trkpt lat="45.98573" lon="4.71504">
        <ele>193</ele>
        <time>2016-10-08T10:59:25Z</time>
      </trkpt>
      <trkpt lat="45.98564" lon="4.71505">
        <ele>193</ele>
        <time>2016-10-08T10:59:27Z</time>
      </trkpt>
      <trkpt lat="45.98562" lon="4.71505">
        <ele>193</ele>
        <time>2016-10-08T10:59:28Z</time>
      </trkpt>
      <trkpt lat="45.98556" lon="4.71504">
        <ele>194</ele>
        <time>2016-10-08T10:59:30Z</time>
      </trkpt>
      <trkpt lat="45.98552" lon="4.71504">
        <ele>194</ele>
        <time>2016-10-08T10:59:31Z</time>
      </trkpt>
      <trkpt lat="45.98544" lon="4.71506">
        <ele>194</ele>
        <time>2016-10-08T10:59:34Z</time>
      </trkpt>
      <trkpt lat="45.98541" lon="4.71505">
        <ele>194</ele>
        <time>2016-10-08T10:59:35Z</time>
      </trkpt>
      <trkpt lat="45.98534" lon="4.7151">
        <ele>194</ele>
        <time>2016-10-08T10:59:37Z</time>
      </trkpt>
      <trkpt lat="45.98532" lon="4.71512">
        <ele>194</ele>
        <time>2016-10-08T10:59:38Z</time>
      </trkpt>
      <trkpt lat="45.98524" lon="4.71518">
        <ele>194</ele>
        <time>2016-10-08T10:59:45Z</time>
      </trkpt>
      <trkpt lat="45.98523" lon="4.71518">
        <ele>194</ele>
        <time>2016-10-08T10:59:46Z</time>
      </trkpt>
      <trkpt lat="45.98515" lon="4.71517">
        <ele>195</ele>
        <time>2016-10-08T10:59:52Z</time>
      </trkpt>
      <trkpt lat="45.98512" lon="4.71518">
        <ele>195</ele>
        <time>2016-10-08T10:59:53Z</time>
      </trkpt>
      <trkpt lat="45.98504" lon="4.71522">
        <ele>195</ele>
        <time>2016-10-08T10:59:55Z</time>
      </trkpt>
      <trkpt lat="45.98501" lon="4.71521">
        <ele>195</ele>
        <time>2016-10-08T10:59:56Z</time>
      </trkpt>
      <trkpt lat="45.98494" lon="4.71518">
        <ele>196</ele>
        <time>2016-10-08T10:59:58Z</time>
      </trkpt>
      <trkpt lat="45.98489" lon="4.71518">
        <ele>196</ele>
        <time>2016-10-08T10:59:59Z</time>
      </trkpt>
      <trkpt lat="45.98483" lon="4.71519">
        <ele>196</ele>
        <time>2016-10-08T11:00:00Z</time>
      </trkpt>
      <trkpt lat="45.98478" lon="4.71518">
        <ele>196</ele>
        <time>2016-10-08T11:00:01Z</time>
      </trkpt>
      <trkpt lat="45.9847" lon="4.7152">
        <ele>197</ele>
        <time>2016-10-08T11:00:03Z</time>
      </trkpt>
      <trkpt lat="45.98465" lon="4.7152">
        <ele>197</ele>
        <time>2016-10-08T11:00:04Z</time>
      </trkpt>
      <trkpt lat="45.98457" lon="4.71523">
        <ele>197</ele>
        <time>2016-10-08T11:00:06Z</time>
      </trkpt>
      <trkpt lat="45.98453" lon="4.71523">
        <ele>197</ele>
        <time>2016-10-08T11:00:07Z</time>
      </trkpt>
      <trkpt lat="45.98445" lon="4.71526">
        <ele>197</ele>
        <time>2016-10-08T11:00:09Z</time>
      </trkpt>
      <trkpt lat="45.98442" lon="4.71528">
        <ele>197</ele>
        <time>2016-10-08T11:00:10Z</time>
      </trkpt>
      <trkpt lat="45.98435" lon="4.71529">
        <ele>197</ele>
        <time>2016-10-08T11:00:12Z</time>
      </trkpt>
      <trkpt lat="45.98432" lon="4.71529">
        <ele>197</ele>
        <time>2016-10-08T11:00:13Z</time>
      </trkpt>
      <trkpt lat="45.98424" lon="4.71531">
        <ele>197</ele>
        <time>2016-10-08T11:00:15Z</time>
      </trkpt>
      <trkpt lat="45.98421" lon="4.71533">
        <ele>197</ele>
        <time>2016-10-08T11:00:16Z</time>
      </trkpt>
      <trkpt lat="45.98415" lon="4.71541">
        <ele>198</ele>
        <time>2016-10-08T11:00:18Z</time>
      </trkpt>
      <trkpt lat="45.98412" lon="4.71544">
        <ele>198</ele>
        <time>2016-10-08T11:00:19Z</time>
      </trkpt>
      <trkpt lat="45.98408" lon="4.71547">
        <ele>198</ele>
        <time>2016-10-08T11:00:20Z</time>
      </trkpt>
      <trkpt lat="45.98403" lon="4.71551">
        <ele>198</ele>
        <time>2016-10-08T11:00:21Z</time>
      </trkpt>
      <trkpt lat="45.98399" lon="4.71554">
        <ele>198</ele>
        <time>2016-10-08T11:00:22Z</time>
      </trkpt>
      <trkpt lat="45.98396" lon="4.71559">
        <ele>198</ele>
        <time>2016-10-08T11:00:23Z</time>
      </trkpt>
      <trkpt lat="45.98389" lon="4.71567">
        <ele>198</ele>
        <time>2016-10-08T11:00:25Z</time>
      </trkpt>
      <trkpt lat="45.98386" lon="4.71571">
        <ele>198</ele>
        <time>2016-10-08T11:00:26Z</time>
      </trkpt>
      <trkpt lat="45.98382" lon="4.71575">
        <ele>198</ele>
        <time>2016-10-08T11:00:27Z</time>
      </trkpt>
      <trkpt lat="45.98377" lon="4.71579">
        <ele>198</ele>
        <time>2016-10-08T11:00:28Z</time>
      </trkpt>
      <trkpt lat="45.98373" lon="4.71581">
        <ele>198</ele>
        <time>2016-10-08T11:00:29Z</time>
      </trkpt>
      <trkpt lat="45.98368" lon="4.71582">
        <ele>198</ele>
        <time>2016-10-08T11:00:30Z</time>
      </trkpt>
      <trkpt lat="45.98363" lon="4.71582">
        <ele>198</ele>
        <time>2016-10-08T11:00:31Z</time>
      </trkpt>
      <trkpt lat="45.98358" lon="4.7158">
        <ele>199</ele>
        <time>2016-10-08T11:00:32Z</time>
      </trkpt>
      <trkpt lat="45.98353" lon="4.71576">
        <ele>199</ele>
        <time>2016-10-08T11:00:33Z</time>
      </trkpt>
      <trkpt lat="45.98347" lon="4.71573">
        <ele>199</ele>
        <time>2016-10-08T11:00:34Z</time>
      </trkpt>
      <trkpt lat="45.98342" lon="4.71569">
        <ele>199</ele>
        <time>2016-10-08T11:00:35Z</time>
      </trkpt>
      <trkpt lat="45.98337" lon="4.71566">
        <ele>199</ele>
        <time>2016-10-08T11:00:36Z</time>
      </trkpt>
      <trkpt lat="45.98332" lon="4.71563">
        <ele>198</ele>
        <time>2016-10-08T11:00:37Z</time>
      </trkpt>
      <trkpt lat="45.98327" lon="4.71562">
        <ele>198</ele>
        <time>2016-10-08T11:00:38Z</time>
      </trkpt>
      <trkpt lat="45.98319" lon="4.71557">
        <ele>198</ele>
        <time>2016-10-08T11:00:40Z</time>
      </trkpt>
      <trkpt lat="45.98314" lon="4.71555">
        <ele>198</ele>
        <time>2016-10-08T11:00:41Z</time>
      </trkpt>
      <trkpt lat="45.98308" lon="4.71551">
        <ele>198</ele>
        <time>2016-10-08T11:00:42Z</time>
      </trkpt>
      <trkpt lat="45.98303" lon="4.71548">
        <ele>198</ele>
        <time>2016-10-08T11:00:43Z</time>
      </trkpt>
      <trkpt lat="45.98298" lon="4.71545">
        <ele>198</ele>
        <time>2016-10-08T11:00:44Z</time>
      </trkpt>
      <trkpt lat="45.98293" lon="4.71542">
        <ele>198</ele>
        <time>2016-10-08T11:00:45Z</time>
      </trkpt>
      <trkpt lat="45.98288" lon="4.71538">
        <ele>198</ele>
        <time>2016-10-08T11:00:46Z</time>
      </trkpt>
      <trkpt lat="45.98284" lon="4.71536">
        <ele>198</ele>
        <time>2016-10-08T11:00:47Z</time>
      </trkpt>
      <trkpt lat="45.9828" lon="4.71534">
        <ele>198</ele>
        <time>2016-10-08T11:00:48Z</time>
      </trkpt>
      <trkpt lat="45.98276" lon="4.71531">
        <ele>197</ele>
        <time>2016-10-08T11:00:49Z</time>
      </trkpt>
      <trkpt lat="45.98271" lon="4.71528">
        <ele>197</ele>
        <time>2016-10-08T11:00:50Z</time>
      </trkpt>
      <trkpt lat="45.98267" lon="4.71526">
        <ele>197</ele>
        <time>2016-10-08T11:00:51Z</time>
      </trkpt>
      <trkpt lat="45.98258" lon="4.71521">
        <ele>197</ele>
        <time>2016-10-08T11:00:53Z</time>
      </trkpt>
      <trkpt lat="45.98254" lon="4.71518">
        <ele>197</ele>
        <time>2016-10-08T11:00:54Z</time>
      </trkpt>
      <trkpt lat="45.9825" lon="4.71515">
        <ele>196</ele>
        <time>2016-10-08T11:00:55Z</time>
      </trkpt>
      <trkpt lat="45.98245" lon="4.71513">
        <ele>196</ele>
        <time>2016-10-08T11:00:56Z</time>
      </trkpt>
      <trkpt lat="45.98238" lon="4.71507">
        <ele>196</ele>
        <time>2016-10-08T11:00:58Z</time>
      </trkpt>
      <trkpt lat="45.98235" lon="4.71504">
        <ele>196</ele>
        <time>2016-10-08T11:00:59Z</time>
      </trkpt>
      <trkpt lat="45.98227" lon="4.71502">
        <ele>196</ele>
        <time>2016-10-08T11:01:01Z</time>
      </trkpt>
      <trkpt lat="45.98224" lon="4.715">
        <ele>197</ele>
        <time>2016-10-08T11:01:02Z</time>
      </trkpt>
      <trkpt lat="45.98218" lon="4.71496">
        <ele>197</ele>
        <time>2016-10-08T11:01:04Z</time>
      </trkpt>
      <trkpt lat="45.98215" lon="4.71494">
        <ele>197</ele>
        <time>2016-10-08T11:01:05Z</time>
      </trkpt>
      <trkpt lat="45.98209" lon="4.71492">
        <ele>197</ele>
        <time>2016-10-08T11:01:07Z</time>
      </trkpt>
      <trkpt lat="45.98206" lon="4.71491">
        <ele>197</ele>
        <time>2016-10-08T11:01:08Z</time>
      </trkpt>
      <trkpt lat="45.98198" lon="4.71488">
        <ele>197</ele>
        <time>2016-10-08T11:01:10Z</time>
      </trkpt>
      <trkpt lat="45.98193" lon="4.71488">
        <ele>197</ele>
        <time>2016-10-08T11:01:11Z</time>
      </trkpt>
      <trkpt lat="45.98188" lon="4.71487">
        <ele>197</ele>
        <time>2016-10-08T11:01:12Z</time>
      </trkpt>
      <trkpt lat="45.98182" lon="4.71487">
        <ele>197</ele>
        <time>2016-10-08T11:01:13Z</time>
      </trkpt>
      <trkpt lat="45.98178" lon="4.71489">
        <ele>197</ele>
        <time>2016-10-08T11:01:14Z</time>
      </trkpt>
      <trkpt lat="45.98172" lon="4.71492">
        <ele>197</ele>
        <time>2016-10-08T11:01:15Z</time>
      </trkpt>
      <trkpt lat="45.98164" lon="4.71494">
        <ele>197</ele>
        <time>2016-10-08T11:01:17Z</time>
      </trkpt>
      <trkpt lat="45.9816" lon="4.71495">
        <ele>197</ele>
        <time>2016-10-08T11:01:18Z</time>
      </trkpt>
      <trkpt lat="45.98155" lon="4.71497">
        <ele>197</ele>
        <time>2016-10-08T11:01:19Z</time>
      </trkpt>
      <trkpt lat="45.98151" lon="4.715">
        <ele>197</ele>
        <time>2016-10-08T11:01:20Z</time>
      </trkpt>
      <trkpt lat="45.98147" lon="4.71503">
        <ele>197</ele>
        <time>2016-10-08T11:01:21Z</time>
      </trkpt>
      <trkpt lat="45.98143" lon="4.71507">
        <ele>197</ele>
        <time>2016-10-08T11:01:22Z</time>
      </trkpt>
      <trkpt lat="45.98139" lon="4.7151">
        <ele>197</ele>
        <time>2016-10-08T11:01:23Z</time>
      </trkpt>
      <trkpt lat="45.98135" lon="4.71514">
        <ele>197</ele>
        <time>2016-10-08T11:01:24Z</time>
      </trkpt>
      <trkpt lat="45.9813" lon="4.71518">
        <ele>197</ele>
        <time>2016-10-08T11:01:25Z</time>
      </trkpt>
      <trkpt lat="45.98125" lon="4.71521">
        <ele>197</ele>
        <time>2016-10-08T11:01:26Z</time>
      </trkpt>
      <trkpt lat="45.98121" lon="4.71524">
        <ele>197</ele>
        <time>2016-10-08T11:01:27Z</time>
      </trkpt>
      <trkpt lat="45.98115" lon="4.71528">
        <ele>197</ele>
        <time>2016-10-08T11:01:28Z</time>
      </trkpt>
      <trkpt lat="45.98111" lon="4.7153">
        <ele>197</ele>
        <time>2016-10-08T11:01:29Z</time>
      </trkpt>
      <trkpt lat="45.98107" lon="4.71534">
        <ele>197</ele>
        <time>2016-10-08T11:01:30Z</time>
      </trkpt>
      <trkpt lat="45.98103" lon="4.71537">
        <ele>197</ele>
        <time>2016-10-08T11:01:31Z</time>
      </trkpt>
      <trkpt lat="45.98099" lon="4.71541">
        <ele>197</ele>
        <time>2016-10-08T11:01:32Z</time>
      </trkpt>
      <trkpt lat="45.98092" lon="4.71547">
        <ele>198</ele>
        <time>2016-10-08T11:01:34Z</time>
      </trkpt>
      <trkpt lat="45.98088" lon="4.71549">
        <ele>198</ele>
        <time>2016-10-08T11:01:35Z</time>
      </trkpt>
      <trkpt lat="45.9808" lon="4.71553">
        <ele>198</ele>
        <time>2016-10-08T11:01:37Z</time>
      </trkpt>
      <trkpt lat="45.98076" lon="4.71557">
        <ele>198</ele>
        <time>2016-10-08T11:01:38Z</time>
      </trkpt>
      <trkpt lat="45.98071" lon="4.7156">
        <ele>198</ele>
        <time>2016-10-08T11:01:39Z</time>
      </trkpt>
      <trkpt lat="45.98066" lon="4.71564">
        <ele>198</ele>
        <time>2016-10-08T11:01:40Z</time>
      </trkpt>
      <trkpt lat="45.98062" lon="4.71568">
        <ele>198</ele>
        <time>2016-10-08T11:01:41Z</time>
      </trkpt>
      <trkpt lat="45.98058" lon="4.71571">
        <ele>198</ele>
        <time>2016-10-08T11:01:42Z</time>
      </trkpt>
      <trkpt lat="45.98053" lon="4.71575">
        <ele>198</ele>
        <time>2016-10-08T11:01:43Z</time>
      </trkpt>
      <trkpt lat="45.98049" lon="4.71578">
        <ele>198</ele>
        <time>2016-10-08T11:01:44Z</time>
      </trkpt>
      <trkpt lat="45.9804" lon="4.71585">
        <ele>198</ele>
        <time>2016-10-08T11:01:46Z</time>
      </trkpt>
      <trkpt lat="45.98036" lon="4.71589">
        <ele>198</ele>
        <time>2016-10-08T11:01:47Z</time>
      </trkpt>
      <trkpt lat="45.98031" lon="4.71592">
        <ele>198</ele>
        <time>2016-10-08T11:01:48Z</time>
      </trkpt>
      <trkpt lat="45.98019" lon="4.71598">
        <ele>198</ele>
        <time>2016-10-08T11:01:50Z</time>
      </trkpt>
      <trkpt lat="45.98012" lon="4.71602">
        <ele>198</ele>
        <time>2016-10-08T11:01:51Z</time>
      </trkpt>
      <trkpt lat="45.98005" lon="4.71605">
        <ele>198</ele>
        <time>2016-10-08T11:01:52Z</time>
      </trkpt>
      <trkpt lat="45.97999" lon="4.7161">
        <ele>198</ele>
        <time>2016-10-08T11:01:53Z</time>
      </trkpt>
      <trkpt lat="45.97994" lon="4.71614">
        <ele>198</ele>
        <time>2016-10-08T11:01:54Z</time>
      </trkpt>
      <trkpt lat="45.9799" lon="4.71618">
        <ele>197</ele>
        <time>2016-10-08T11:01:55Z</time>
      </trkpt>
      <trkpt lat="45.97987" lon="4.71622">
        <ele>197</ele>
        <time>2016-10-08T11:01:56Z</time>
      </trkpt>
      <trkpt lat="45.97983" lon="4.71626">
        <ele>197</ele>
        <time>2016-10-08T11:01:57Z</time>
      </trkpt>
      <trkpt lat="45.97978" lon="4.7163">
        <ele>197</ele>
        <time>2016-10-08T11:01:58Z</time>
      </trkpt>
      <trkpt lat="45.97974" lon="4.71634">
        <ele>197</ele>
        <time>2016-10-08T11:01:59Z</time>
      </trkpt>
      <trkpt lat="45.97969" lon="4.71638">
        <ele>197</ele>
        <time>2016-10-08T11:02:00Z</time>
      </trkpt>
      <trkpt lat="45.97964" lon="4.71642">
        <ele>197</ele>
        <time>2016-10-08T11:02:01Z</time>
      </trkpt>
      <trkpt lat="45.97959" lon="4.71646">
        <ele>197</ele>
        <time>2016-10-08T11:02:02Z</time>
      </trkpt>
      <trkpt lat="45.97953" lon="4.71651">
        <ele>197</ele>
        <time>2016-10-08T11:02:03Z</time>
      </trkpt>
      <trkpt lat="45.97948" lon="4.71656">
        <ele>197</ele>
        <time>2016-10-08T11:02:04Z</time>
      </trkpt>
      <trkpt lat="45.97943" lon="4.7166">
        <ele>197</ele>
        <time>2016-10-08T11:02:05Z</time>
      </trkpt>
      <trkpt lat="45.97937" lon="4.71665">
        <ele>197</ele>
        <time>2016-10-08T11:02:06Z</time>
      </trkpt>
      <trkpt lat="45.97932" lon="4.71669">
        <ele>197</ele>
        <time>2016-10-08T11:02:07Z</time>
      </trkpt>
      <trkpt lat="45.97927" lon="4.71674">
        <ele>197</ele>
        <time>2016-10-08T11:02:08Z</time>
      </trkpt>
      <trkpt lat="45.97921" lon="4.71678">
        <ele>197</ele>
        <time>2016-10-08T11:02:09Z</time>
      </trkpt>
      <trkpt lat="45.97914" lon="4.71682">
        <ele>197</ele>
        <time>2016-10-08T11:02:10Z</time>
      </trkpt>
      <trkpt lat="45.97909" lon="4.71687">
        <ele>196</ele>
        <time>2016-10-08T11:02:11Z</time>
      </trkpt>
      <trkpt lat="45.97904" lon="4.71693">
        <ele>196</ele>
        <time>2016-10-08T11:02:12Z</time>
      </trkpt>
      <trkpt lat="45.979" lon="4.71699">
        <ele>196</ele>
        <time>2016-10-08T11:02:13Z</time>
      </trkpt>
      <trkpt lat="45.97896" lon="4.71704">
        <ele>196</ele>
        <time>2016-10-08T11:02:14Z</time>
      </trkpt>
      <trkpt lat="45.97891" lon="4.71707">
        <ele>196</ele>
        <time>2016-10-08T11:02:15Z</time>
      </trkpt>
      <trkpt lat="45.97886" lon="4.71708">
        <ele>196</ele>
        <time>2016-10-08T11:02:16Z</time>
      </trkpt>
      <trkpt lat="45.9788" lon="4.71709">
        <ele>196</ele>
        <time>2016-10-08T11:02:17Z</time>
      </trkpt>
      <trkpt lat="45.97875" lon="4.7171">
        <ele>196</ele>
        <time>2016-10-08T11:02:18Z</time>
      </trkpt>
      <trkpt lat="45.9787" lon="4.71713">
        <ele>196</ele>
        <time>2016-10-08T11:02:19Z</time>
      </trkpt>
      <trkpt lat="45.97865" lon="4.71716">
        <ele>196</ele>
        <time>2016-10-08T11:02:20Z</time>
      </trkpt>
      <trkpt lat="45.9786" lon="4.7172">
        <ele>196</ele>
        <time>2016-10-08T11:02:21Z</time>
      </trkpt>
      <trkpt lat="45.97855" lon="4.71725">
        <ele>196</ele>
        <time>2016-10-08T11:02:22Z</time>
      </trkpt>
      <trkpt lat="45.97851" lon="4.71732">
        <ele>196</ele>
        <time>2016-10-08T11:02:23Z</time>
      </trkpt>
      <trkpt lat="45.97846" lon="4.71739">
        <ele>195</ele>
        <time>2016-10-08T11:02:24Z</time>
      </trkpt>
      <trkpt lat="45.97841" lon="4.71743">
        <ele>195</ele>
        <time>2016-10-08T11:02:25Z</time>
      </trkpt>
      <trkpt lat="45.97835" lon="4.71744">
        <ele>195</ele>
        <time>2016-10-08T11:02:26Z</time>
      </trkpt>
      <trkpt lat="45.97829" lon="4.71743">
        <ele>195</ele>
        <time>2016-10-08T11:02:27Z</time>
      </trkpt>
      <trkpt lat="45.97823" lon="4.71742">
        <ele>196</ele>
        <time>2016-10-08T11:02:28Z</time>
      </trkpt>
      <trkpt lat="45.97817" lon="4.71741">
        <ele>196</ele>
        <time>2016-10-08T11:02:29Z</time>
      </trkpt>
      <trkpt lat="45.9781" lon="4.71741">
        <ele>196</ele>
        <time>2016-10-08T11:02:30Z</time>
      </trkpt>
      <trkpt lat="45.97804" lon="4.71741">
        <ele>196</ele>
        <time>2016-10-08T11:02:31Z</time>
      </trkpt>
      <trkpt lat="45.97798" lon="4.71742">
        <ele>196</ele>
        <time>2016-10-08T11:02:32Z</time>
      </trkpt>
      <trkpt lat="45.97791" lon="4.71742">
        <ele>196</ele>
        <time>2016-10-08T11:02:33Z</time>
      </trkpt>
      <trkpt lat="45.97785" lon="4.71741">
        <ele>196</ele>
        <time>2016-10-08T11:02:34Z</time>
      </trkpt>
      <trkpt lat="45.97779" lon="4.7174">
        <ele>196</ele>
        <time>2016-10-08T11:02:35Z</time>
      </trkpt>
      <trkpt lat="45.97773" lon="4.71738">
        <ele>196</ele>
        <time>2016-10-08T11:02:36Z</time>
      </trkpt>
      <trkpt lat="45.97767" lon="4.71738">
        <ele>196</ele>
        <time>2016-10-08T11:02:37Z</time>
      </trkpt>
      <trkpt lat="45.97762" lon="4.71736">
        <ele>196</ele>
        <time>2016-10-08T11:02:38Z</time>
      </trkpt>
      <trkpt lat="45.97756" lon="4.71735">
        <ele>196</ele>
        <time>2016-10-08T11:02:39Z</time>
      </trkpt>
      <trkpt lat="45.9775" lon="4.71734">
        <ele>196</ele>
        <time>2016-10-08T11:02:40Z</time>
      </trkpt>
      <trkpt lat="45.97744" lon="4.71734">
        <ele>196</ele>
        <time>2016-10-08T11:02:41Z</time>
      </trkpt>
      <trkpt lat="45.97738" lon="4.71733">
        <ele>196</ele>
        <time>2016-10-08T11:02:42Z</time>
      </trkpt>
      <trkpt lat="45.97731" lon="4.71732">
        <ele>196</ele>
        <time>2016-10-08T11:02:43Z</time>
      </trkpt>
      <trkpt lat="45.97722" lon="4.71732">
        <ele>196</ele>
        <time>2016-10-08T11:02:44Z</time>
      </trkpt>
      <trkpt lat="45.97717" lon="4.71732">
        <ele>196</ele>
        <time>2016-10-08T11:02:45Z</time>
      </trkpt>
      <trkpt lat="45.97711" lon="4.71732">
        <ele>196</ele>
        <time>2016-10-08T11:02:46Z</time>
      </trkpt>
      <trkpt lat="45.97704" lon="4.71732">
        <ele>196</ele>
        <time>2016-10-08T11:02:47Z</time>
      </trkpt>
      <trkpt lat="45.97698" lon="4.71731">
        <ele>196</ele>
        <time>2016-10-08T11:02:48Z</time>
      </trkpt>
      <trkpt lat="45.97691" lon="4.71731">
        <ele>196</ele>
        <time>2016-10-08T11:02:49Z</time>
      </trkpt>
      <trkpt lat="45.97685" lon="4.7173">
        <ele>196</ele>
        <time>2016-10-08T11:02:50Z</time>
      </trkpt>
      <trkpt lat="45.97678" lon="4.71725">
        <ele>196</ele>
        <time>2016-10-08T11:02:51Z</time>
      </trkpt>
      <trkpt lat="45.97672" lon="4.71724">
        <ele>196</ele>
        <time>2016-10-08T11:02:52Z</time>
      </trkpt>
      <trkpt lat="45.97666" lon="4.71723">
        <ele>196</ele>
        <time>2016-10-08T11:02:53Z</time>
      </trkpt>
      <trkpt lat="45.9766" lon="4.71723">
        <ele>196</ele>
        <time>2016-10-08T11:02:54Z</time>
      </trkpt>
      <trkpt lat="45.97655" lon="4.71723">
        <ele>196</ele>
        <time>2016-10-08T11:02:55Z</time>
      </trkpt>
      <trkpt lat="45.9765" lon="4.71723">
        <ele>196</ele>
        <time>2016-10-08T11:02:56Z</time>
      </trkpt>
      <trkpt lat="45.97642" lon="4.71721">
        <ele>196</ele>
        <time>2016-10-08T11:02:58Z</time>
      </trkpt>
      <trkpt lat="45.97638" lon="4.71719">
        <ele>197</ele>
        <time>2016-10-08T11:02:59Z</time>
      </trkpt>
      <trkpt lat="45.97632" lon="4.71711">
        <ele>197</ele>
        <time>2016-10-08T11:03:01Z</time>
      </trkpt>
      <trkpt lat="45.97627" lon="4.71708">
        <ele>197</ele>
        <time>2016-10-08T11:03:02Z</time>
      </trkpt>
      <trkpt lat="45.97621" lon="4.71707">
        <ele>197</ele>
        <time>2016-10-08T11:03:03Z</time>
      </trkpt>
      <trkpt lat="45.97615" lon="4.71708">
        <ele>197</ele>
        <time>2016-10-08T11:03:04Z</time>
      </trkpt>
      <trkpt lat="45.9761" lon="4.71711">
        <ele>197</ele>
        <time>2016-10-08T11:03:05Z</time>
      </trkpt>
      <trkpt lat="45.97606" lon="4.71714">
        <ele>197</ele>
        <time>2016-10-08T11:03:06Z</time>
      </trkpt>
      <trkpt lat="45.97601" lon="4.71717">
        <ele>197</ele>
        <time>2016-10-08T11:03:07Z</time>
      </trkpt>
      <trkpt lat="45.97597" lon="4.71719">
        <ele>197</ele>
        <time>2016-10-08T11:03:08Z</time>
      </trkpt>
      <trkpt lat="45.97592" lon="4.71719">
        <ele>197</ele>
        <time>2016-10-08T11:03:09Z</time>
      </trkpt>
      <trkpt lat="45.97587" lon="4.71719">
        <ele>197</ele>
        <time>2016-10-08T11:03:10Z</time>
      </trkpt>
      <trkpt lat="45.97581" lon="4.71718">
        <ele>198</ele>
        <time>2016-10-08T11:03:11Z</time>
      </trkpt>
      <trkpt lat="45.97575" lon="4.71719">
        <ele>198</ele>
        <time>2016-10-08T11:03:12Z</time>
      </trkpt>
      <trkpt lat="45.97569" lon="4.71719">
        <ele>198</ele>
        <time>2016-10-08T11:03:13Z</time>
      </trkpt>
      <trkpt lat="45.97563" lon="4.71719">
        <ele>198</ele>
        <time>2016-10-08T11:03:14Z</time>
      </trkpt>
      <trkpt lat="45.97557" lon="4.71718">
        <ele>198</ele>
        <time>2016-10-08T11:03:15Z</time>
      </trkpt>
      <trkpt lat="45.97551" lon="4.71718">
        <ele>198</ele>
        <time>2016-10-08T11:03:16Z</time>
      </trkpt>
      <trkpt lat="45.97545" lon="4.71718">
        <ele>198</ele>
        <time>2016-10-08T11:03:17Z</time>
      </trkpt>
      <trkpt lat="45.97539" lon="4.71717">
        <ele>198</ele>
        <time>2016-10-08T11:03:18Z</time>
      </trkpt>
      <trkpt lat="45.97534" lon="4.71717">
        <ele>198</ele>
        <time>2016-10-08T11:03:19Z</time>
      </trkpt>
      <trkpt lat="45.97529" lon="4.71718">
        <ele>198</ele>
        <time>2016-10-08T11:03:20Z</time>
      </trkpt>
      <trkpt lat="45.97524" lon="4.71718">
        <ele>198</ele>
        <time>2016-10-08T11:03:21Z</time>
      </trkpt>
      <trkpt lat="45.97519" lon="4.71718">
        <ele>198</ele>
        <time>2016-10-08T11:03:22Z</time>
      </trkpt>
      <trkpt lat="45.97511" lon="4.71716">
        <ele>198</ele>
        <time>2016-10-08T11:03:23Z</time>
      </trkpt>
      <trkpt lat="45.97504" lon="4.71715">
        <ele>198</ele>
        <time>2016-10-08T11:03:24Z</time>
      </trkpt>
      <trkpt lat="45.97498" lon="4.71716">
        <ele>198</ele>
        <time>2016-10-08T11:03:25Z</time>
      </trkpt>
      <trkpt lat="45.97492" lon="4.71716">
        <ele>198</ele>
        <time>2016-10-08T11:03:26Z</time>
      </trkpt>
      <trkpt lat="45.97486" lon="4.71715">
        <ele>198</ele>
        <time>2016-10-08T11:03:27Z</time>
      </trkpt>
      <trkpt lat="45.9748" lon="4.71715">
        <ele>197</ele>
        <time>2016-10-08T11:03:28Z</time>
      </trkpt>
      <trkpt lat="45.97475" lon="4.71714">
        <ele>197</ele>
        <time>2016-10-08T11:03:29Z</time>
      </trkpt>
      <trkpt lat="45.9747" lon="4.71713">
        <ele>197</ele>
        <time>2016-10-08T11:03:30Z</time>
      </trkpt>
      <trkpt lat="45.97464" lon="4.71712">
        <ele>197</ele>
        <time>2016-10-08T11:03:31Z</time>
      </trkpt>
      <trkpt lat="45.97459" lon="4.71711">
        <ele>197</ele>
        <time>2016-10-08T11:03:32Z</time>
      </trkpt>
      <trkpt lat="45.97453" lon="4.7171">
        <ele>197</ele>
        <time>2016-10-08T11:03:33Z</time>
      </trkpt>
      <trkpt lat="45.97447" lon="4.7171">
        <ele>197</ele>
        <time>2016-10-08T11:03:34Z</time>
      </trkpt>
      <trkpt lat="45.97441" lon="4.71709">
        <ele>197</ele>
        <time>2016-10-08T11:03:35Z</time>
      </trkpt>
      <trkpt lat="45.97436" lon="4.71709">
        <ele>197</ele>
        <time>2016-10-08T11:03:36Z</time>
      </trkpt>
      <trkpt lat="45.9743" lon="4.71708">
        <ele>197</ele>
        <time>2016-10-08T11:03:37Z</time>
      </trkpt>
      <trkpt lat="45.97424" lon="4.71708">
        <ele>196</ele>
        <time>2016-10-08T11:03:38Z</time>
      </trkpt>
      <trkpt lat="45.97418" lon="4.71708">
        <ele>196</ele>
        <time>2016-10-08T11:03:39Z</time>
      </trkpt>
      <trkpt lat="45.97412" lon="4.71707">
        <ele>195</ele>
        <time>2016-10-08T11:03:40Z</time>
      </trkpt>
      <trkpt lat="45.97405" lon="4.71706">
        <ele>195</ele>
        <time>2016-10-08T11:03:41Z</time>
      </trkpt>
      <trkpt lat="45.97398" lon="4.71706">
        <ele>195</ele>
        <time>2016-10-08T11:03:42Z</time>
      </trkpt>
      <trkpt lat="45.97392" lon="4.71705">
        <ele>195</ele>
        <time>2016-10-08T11:03:43Z</time>
      </trkpt>
      <trkpt lat="45.97385" lon="4.71706">
        <ele>195</ele>
        <time>2016-10-08T11:03:44Z</time>
      </trkpt>
      <trkpt lat="45.97379" lon="4.71706">
        <ele>195</ele>
        <time>2016-10-08T11:03:45Z</time>
      </trkpt>
      <trkpt lat="45.97373" lon="4.71705">
        <ele>195</ele>
        <time>2016-10-08T11:03:46Z</time>
      </trkpt>
      <trkpt lat="45.97366" lon="4.71705">
        <ele>195</ele>
        <time>2016-10-08T11:03:47Z</time>
      </trkpt>
      <trkpt lat="45.9736" lon="4.71705">
        <ele>195</ele>
        <time>2016-10-08T11:03:48Z</time>
      </trkpt>
      <trkpt lat="45.97353" lon="4.71704">
        <ele>195</ele>
        <time>2016-10-08T11:03:49Z</time>
      </trkpt>
      <trkpt lat="45.97347" lon="4.71704">
        <ele>195</ele>
        <time>2016-10-08T11:03:50Z</time>
      </trkpt>
      <trkpt lat="45.97341" lon="4.71703">
        <ele>195</ele>
        <time>2016-10-08T11:03:51Z</time>
      </trkpt>
      <trkpt lat="45.97335" lon="4.71703">
        <ele>196</ele>
        <time>2016-10-08T11:03:52Z</time>
      </trkpt>
      <trkpt lat="45.97329" lon="4.71702">
        <ele>196</ele>
        <time>2016-10-08T11:03:53Z</time>
      </trkpt>
      <trkpt lat="45.97324" lon="4.71699">
        <ele>196</ele>
        <time>2016-10-08T11:03:54Z</time>
      </trkpt>
      <trkpt lat="45.97318" lon="4.71696">
        <ele>196</ele>
        <time>2016-10-08T11:03:55Z</time>
      </trkpt>
      <trkpt lat="45.97312" lon="4.71693">
        <ele>196</ele>
        <time>2016-10-08T11:03:56Z</time>
      </trkpt>
      <trkpt lat="45.97306" lon="4.71692">
        <ele>196</ele>
        <time>2016-10-08T11:03:57Z</time>
      </trkpt>
      <trkpt lat="45.97299" lon="4.71692">
        <ele>197</ele>
        <time>2016-10-08T11:03:58Z</time>
      </trkpt>
      <trkpt lat="45.97292" lon="4.71694">
        <ele>197</ele>
        <time>2016-10-08T11:03:59Z</time>
      </trkpt>
      <trkpt lat="45.97285" lon="4.71697">
        <ele>197</ele>
        <time>2016-10-08T11:04:00Z</time>
      </trkpt>
      <trkpt lat="45.97277" lon="4.71699">
        <ele>197</ele>
        <time>2016-10-08T11:04:01Z</time>
      </trkpt>
      <trkpt lat="45.97271" lon="4.71698">
        <ele>197</ele>
        <time>2016-10-08T11:04:02Z</time>
      </trkpt>
      <trkpt lat="45.97265" lon="4.71697">
        <ele>197</ele>
        <time>2016-10-08T11:04:03Z</time>
      </trkpt>
      <trkpt lat="45.97259" lon="4.71696">
        <ele>197</ele>
        <time>2016-10-08T11:04:04Z</time>
      </trkpt>
      <trkpt lat="45.97252" lon="4.71695">
        <ele>197</ele>
        <time>2016-10-08T11:04:05Z</time>
      </trkpt>
      <trkpt lat="45.97245" lon="4.71694">
        <ele>197</ele>
        <time>2016-10-08T11:04:06Z</time>
      </trkpt>
      <trkpt lat="45.97239" lon="4.71693">
        <ele>197</ele>
        <time>2016-10-08T11:04:07Z</time>
      </trkpt>
      <trkpt lat="45.97232" lon="4.71692">
        <ele>197</ele>
        <time>2016-10-08T11:04:08Z</time>
      </trkpt>
      <trkpt lat="45.97226" lon="4.71692">
        <ele>197</ele>
        <time>2016-10-08T11:04:09Z</time>
      </trkpt>
      <trkpt lat="45.9722" lon="4.71691">
        <ele>197</ele>
        <time>2016-10-08T11:04:10Z</time>
      </trkpt>
      <trkpt lat="45.97213" lon="4.7169">
        <ele>197</ele>
        <time>2016-10-08T11:04:11Z</time>
      </trkpt>
      <trkpt lat="45.97206" lon="4.7169">
        <ele>197</ele>
        <time>2016-10-08T11:04:12Z</time>
      </trkpt>
      <trkpt lat="45.972" lon="4.7169">
        <ele>197</ele>
        <time>2016-10-08T11:04:13Z</time>
      </trkpt>
      <trkpt lat="45.97193" lon="4.71689">
        <ele>197</ele>
        <time>2016-10-08T11:04:14Z</time>
      </trkpt>
      <trkpt lat="45.97187" lon="4.71688">
        <ele>197</ele>
        <time>2016-10-08T11:04:15Z</time>
      </trkpt>
      <trkpt lat="45.9718" lon="4.71687">
        <ele>197</ele>
        <time>2016-10-08T11:04:16Z</time>
      </trkpt>
      <trkpt lat="45.97174" lon="4.71686">
        <ele>197</ele>
        <time>2016-10-08T11:04:17Z</time>
      </trkpt>
      <trkpt lat="45.97168" lon="4.71686">
        <ele>197</ele>
        <time>2016-10-08T11:04:18Z</time>
      </trkpt>
      <trkpt lat="45.97161" lon="4.71686">
        <ele>196</ele>
        <time>2016-10-08T11:04:19Z</time>
      </trkpt>
      <trkpt lat="45.97155" lon="4.71685">
        <ele>196</ele>
        <time>2016-10-08T11:04:20Z</time>
      </trkpt>
      <trkpt lat="45.97148" lon="4.71685">
        <ele>195</ele>
        <time>2016-10-08T11:04:21Z</time>
      </trkpt>
      <trkpt lat="45.97142" lon="4.71684">
        <ele>195</ele>
        <time>2016-10-08T11:04:22Z</time>
      </trkpt>
      <trkpt lat="45.97136" lon="4.71684">
        <ele>195</ele>
        <time>2016-10-08T11:04:23Z</time>
      </trkpt>
      <trkpt lat="45.9713" lon="4.71684">
        <ele>195</ele>
        <time>2016-10-08T11:04:24Z</time>
      </trkpt>
      <trkpt lat="45.97123" lon="4.71684">
        <ele>195</ele>
        <time>2016-10-08T11:04:25Z</time>
      </trkpt>
      <trkpt lat="45.97117" lon="4.71684">
        <ele>194</ele>
        <time>2016-10-08T11:04:26Z</time>
      </trkpt>
      <trkpt lat="45.97109" lon="4.71684">
        <ele>194</ele>
        <time>2016-10-08T11:04:27Z</time>
      </trkpt>
      <trkpt lat="45.97102" lon="4.71684">
        <ele>194</ele>
        <time>2016-10-08T11:04:28Z</time>
      </trkpt>
      <trkpt lat="45.97095" lon="4.71683">
        <ele>194</ele>
        <time>2016-10-08T11:04:29Z</time>
      </trkpt>
      <trkpt lat="45.97088" lon="4.71682">
        <ele>194</ele>
        <time>2016-10-08T11:04:30Z</time>
      </trkpt>
      <trkpt lat="45.97081" lon="4.7168">
        <ele>194</ele>
        <time>2016-10-08T11:04:31Z</time>
      </trkpt>
      <trkpt lat="45.97074" lon="4.71679">
        <ele>194</ele>
        <time>2016-10-08T11:04:32Z</time>
      </trkpt>
      <trkpt lat="45.97066" lon="4.71677">
        <ele>193</ele>
        <time>2016-10-08T11:04:33Z</time>
      </trkpt>
      <trkpt lat="45.97059" lon="4.71676">
        <ele>193</ele>
        <time>2016-10-08T11:04:34Z</time>
      </trkpt>
      <trkpt lat="45.97052" lon="4.71675">
        <ele>193</ele>
        <time>2016-10-08T11:04:35Z</time>
      </trkpt>
      <trkpt lat="45.97045" lon="4.71674">
        <ele>193</ele>
        <time>2016-10-08T11:04:36Z</time>
      </trkpt>
      <trkpt lat="45.97038" lon="4.71673">
        <ele>193</ele>
        <time>2016-10-08T11:04:37Z</time>
      </trkpt>
      <trkpt lat="45.97031" lon="4.71673">
        <ele>193</ele>
        <time>2016-10-08T11:04:38Z</time>
      </trkpt>
      <trkpt lat="45.97024" lon="4.71673">
        <ele>193</ele>
        <time>2016-10-08T11:04:39Z</time>
      </trkpt>
      <trkpt lat="45.97017" lon="4.71672">
        <ele>193</ele>
        <time>2016-10-08T11:04:40Z</time>
      </trkpt>
      <trkpt lat="45.9701" lon="4.71673">
        <ele>193</ele>
        <time>2016-10-08T11:04:41Z</time>
      </trkpt>
      <trkpt lat="45.97003" lon="4.71673">
        <ele>194</ele>
        <time>2016-10-08T11:04:42Z</time>
      </trkpt>
      <trkpt lat="45.96996" lon="4.71673">
        <ele>193</ele>
        <time>2016-10-08T11:04:43Z</time>
      </trkpt>
      <trkpt lat="45.96989" lon="4.71672">
        <ele>193</ele>
        <time>2016-10-08T11:04:44Z</time>
      </trkpt>
      <trkpt lat="45.96981" lon="4.71672">
        <ele>192</ele>
        <time>2016-10-08T11:04:45Z</time>
      </trkpt>
      <trkpt lat="45.96974" lon="4.71672">
        <ele>192</ele>
        <time>2016-10-08T11:04:46Z</time>
      </trkpt>
      <trkpt lat="45.96967" lon="4.71671">
        <ele>192</ele>
        <time>2016-10-08T11:04:47Z</time>
      </trkpt>
      <trkpt lat="45.96959" lon="4.7167">
        <ele>192</ele>
        <time>2016-10-08T11:04:48Z</time>
      </trkpt>
      <trkpt lat="45.96952" lon="4.7167">
        <ele>192</ele>
        <time>2016-10-08T11:04:49Z</time>
      </trkpt>
      <trkpt lat="45.96945" lon="4.71669">
        <ele>192</ele>
        <time>2016-10-08T11:04:50Z</time>
      </trkpt>
      <trkpt lat="45.96938" lon="4.71669">
        <ele>193</ele>
        <time>2016-10-08T11:04:51Z</time>
      </trkpt>
      <trkpt lat="45.96931" lon="4.71668">
        <ele>193</ele>
        <time>2016-10-08T11:04:52Z</time>
      </trkpt>
      <trkpt lat="45.96924" lon="4.71667">
        <ele>194</ele>
        <time>2016-10-08T11:04:53Z</time>
      </trkpt>
      <trkpt lat="45.96916" lon="4.71667">
        <ele>195</ele>
        <time>2016-10-08T11:04:54Z</time>
      </trkpt>
      <trkpt lat="45.96908" lon="4.71666">
        <ele>195</ele>
        <time>2016-10-08T11:04:55Z</time>
      </trkpt>
      <trkpt lat="45.96901" lon="4.71666">
        <ele>195</ele>
        <time>2016-10-08T11:04:56Z</time>
      </trkpt>
      <trkpt lat="45.96893" lon="4.71665">
        <ele>195</ele>
        <time>2016-10-08T11:04:57Z</time>
      </trkpt>
      <trkpt lat="45.96885" lon="4.71664">
        <ele>195</ele>
        <time>2016-10-08T11:04:58Z</time>
      </trkpt>
      <trkpt lat="45.96878" lon="4.71664">
        <ele>195</ele>
        <time>2016-10-08T11:04:59Z</time>
      </trkpt>
      <trkpt lat="45.9687" lon="4.71663">
        <ele>195</ele>
        <time>2016-10-08T11:05:00Z</time>
      </trkpt>
      <trkpt lat="45.96863" lon="4.71662">
        <ele>195</ele>
        <time>2016-10-08T11:05:01Z</time>
      </trkpt>
      <trkpt lat="45.96856" lon="4.71661">
        <ele>194</ele>
        <time>2016-10-08T11:05:02Z</time>
      </trkpt>
      <trkpt lat="45.96848" lon="4.7166">
        <ele>194</ele>
        <time>2016-10-08T11:05:03Z</time>
      </trkpt>
      <trkpt lat="45.96841" lon="4.71659">
        <ele>193</ele>
        <time>2016-10-08T11:05:04Z</time>
      </trkpt>
      <trkpt lat="45.96833" lon="4.71658">
        <ele>192</ele>
        <time>2016-10-08T11:05:05Z</time>
      </trkpt>
      <trkpt lat="45.96826" lon="4.71657">
        <ele>193</ele>
        <time>2016-10-08T11:05:06Z</time>
      </trkpt>
      <trkpt lat="45.96819" lon="4.71656">
        <ele>193</ele>
        <time>2016-10-08T11:05:07Z</time>
      </trkpt>
      <trkpt lat="45.96812" lon="4.71655">
        <ele>193</ele>
        <time>2016-10-08T11:05:08Z</time>
      </trkpt>
      <trkpt lat="45.96805" lon="4.71653">
        <ele>193</ele>
        <time>2016-10-08T11:05:09Z</time>
      </trkpt>
      <trkpt lat="45.96797" lon="4.71652">
        <ele>193</ele>
        <time>2016-10-08T11:05:10Z</time>
      </trkpt>
      <trkpt lat="45.9679" lon="4.71651">
        <ele>192</ele>
        <time>2016-10-08T11:05:11Z</time>
      </trkpt>
      <trkpt lat="45.96782" lon="4.7165">
        <ele>192</ele>
        <time>2016-10-08T11:05:12Z</time>
      </trkpt>
      <trkpt lat="45.96775" lon="4.71649">
        <ele>192</ele>
        <time>2016-10-08T11:05:13Z</time>
      </trkpt>
      <trkpt lat="45.96768" lon="4.71647">
        <ele>192</ele>
        <time>2016-10-08T11:05:14Z</time>
      </trkpt>
      <trkpt lat="45.9676" lon="4.71646">
        <ele>192</ele>
        <time>2016-10-08T11:05:15Z</time>
      </trkpt>
      <trkpt lat="45.96753" lon="4.71645">
        <ele>191</ele>
        <time>2016-10-08T11:05:16Z</time>
      </trkpt>
      <trkpt lat="45.96746" lon="4.71643">
        <ele>190</ele>
        <time>2016-10-08T11:05:17Z</time>
      </trkpt>
      <trkpt lat="45.96739" lon="4.71642">
        <ele>190</ele>
        <time>2016-10-08T11:05:18Z</time>
      </trkpt>
      <trkpt lat="45.96731" lon="4.71641">
        <ele>190</ele>
        <time>2016-10-08T11:05:19Z</time>
      </trkpt>
      <trkpt lat="45.96724" lon="4.7164">
        <ele>190</ele>
        <time>2016-10-08T11:05:20Z</time>
      </trkpt>
      <trkpt lat="45.96716" lon="4.71639">
        <ele>190</ele>
        <time>2016-10-08T11:05:21Z</time>
      </trkpt>
      <trkpt lat="45.96709" lon="4.71638">
        <ele>190</ele>
        <time>2016-10-08T11:05:22Z</time>
      </trkpt>
      <trkpt lat="45.96701" lon="4.71636">
        <ele>190</ele>
        <time>2016-10-08T11:05:23Z</time>
      </trkpt>
      <trkpt lat="45.96693" lon="4.71635">
        <ele>190</ele>
        <time>2016-10-08T11:05:24Z</time>
      </trkpt>
      <trkpt lat="45.96685" lon="4.71634">
        <ele>190</ele>
        <time>2016-10-08T11:05:25Z</time>
      </trkpt>
      <trkpt lat="45.96677" lon="4.71632">
        <ele>190</ele>
        <time>2016-10-08T11:05:26Z</time>
      </trkpt>
      <trkpt lat="45.9667" lon="4.71631">
        <ele>190</ele>
        <time>2016-10-08T11:05:27Z</time>
      </trkpt>
      <trkpt lat="45.96663" lon="4.7163">
        <ele>188</ele>
        <time>2016-10-08T11:05:28Z</time>
      </trkpt>
      <trkpt lat="45.96655" lon="4.71629">
        <ele>188</ele>
        <time>2016-10-08T11:05:29Z</time>
      </trkpt>
      <trkpt lat="45.96647" lon="4.71628">
        <ele>188</ele>
        <time>2016-10-08T11:05:30Z</time>
      </trkpt>
      <trkpt lat="45.9664" lon="4.71626">
        <ele>188</ele>
        <time>2016-10-08T11:05:31Z</time>
      </trkpt>
      <trkpt lat="45.96633" lon="4.71625">
        <ele>188</ele>
        <time>2016-10-08T11:05:32Z</time>
      </trkpt>
      <trkpt lat="45.96626" lon="4.71624">
        <ele>188</ele>
        <time>2016-10-08T11:05:33Z</time>
      </trkpt>
      <trkpt lat="45.96619" lon="4.71623">
        <ele>188</ele>
        <time>2016-10-08T11:05:34Z</time>
      </trkpt>
      <trkpt lat="45.96612" lon="4.71622">
        <ele>188</ele>
        <time>2016-10-08T11:05:35Z</time>
      </trkpt>
      <trkpt lat="45.96605" lon="4.71621">
        <ele>188</ele>
        <time>2016-10-08T11:05:36Z</time>
      </trkpt>
      <trkpt lat="45.96598" lon="4.71621">
        <ele>187</ele>
        <time>2016-10-08T11:05:37Z</time>
      </trkpt>
      <trkpt lat="45.9659" lon="4.7162">
        <ele>187</ele>
        <time>2016-10-08T11:05:38Z</time>
      </trkpt>
      <trkpt lat="45.96583" lon="4.71619">
        <ele>185</ele>
        <time>2016-10-08T11:05:39Z</time>
      </trkpt>
      <trkpt lat="45.96576" lon="4.71619">
        <ele>185</ele>
        <time>2016-10-08T11:05:40Z</time>
      </trkpt>
      <trkpt lat="45.9657" lon="4.71618">
        <ele>185</ele>
        <time>2016-10-08T11:05:41Z</time>
      </trkpt>
      <trkpt lat="45.96563" lon="4.71616">
        <ele>185</ele>
        <time>2016-10-08T11:05:42Z</time>
      </trkpt>
      <trkpt lat="45.96556" lon="4.71615">
        <ele>185</ele>
        <time>2016-10-08T11:05:43Z</time>
      </trkpt>
      <trkpt lat="45.9655" lon="4.71613">
        <ele>185</ele>
        <time>2016-10-08T11:05:44Z</time>
      </trkpt>
      <trkpt lat="45.96544" lon="4.7161">
        <ele>185</ele>
        <time>2016-10-08T11:05:45Z</time>
      </trkpt>
      <trkpt lat="45.96537" lon="4.71606">
        <ele>185</ele>
        <time>2016-10-08T11:05:46Z</time>
      </trkpt>
      <trkpt lat="45.96531" lon="4.71604">
        <ele>185</ele>
        <time>2016-10-08T11:05:47Z</time>
      </trkpt>
      <trkpt lat="45.96524" lon="4.71605">
        <ele>185</ele>
        <time>2016-10-08T11:05:48Z</time>
      </trkpt>
      <trkpt lat="45.96517" lon="4.71607">
        <ele>184</ele>
        <time>2016-10-08T11:05:49Z</time>
      </trkpt>
      <trkpt lat="45.9651" lon="4.71609">
        <ele>184</ele>
        <time>2016-10-08T11:05:50Z</time>
      </trkpt>
      <trkpt lat="45.96502" lon="4.71609">
        <ele>184</ele>
        <time>2016-10-08T11:05:51Z</time>
      </trkpt>
      <trkpt lat="45.96495" lon="4.71607">
        <ele>183</ele>
        <time>2016-10-08T11:05:52Z</time>
      </trkpt>
      <trkpt lat="45.96487" lon="4.71606">
        <ele>183</ele>
        <time>2016-10-08T11:05:53Z</time>
      </trkpt>
      <trkpt lat="45.9648" lon="4.71605">
        <ele>183</ele>
        <time>2016-10-08T11:05:54Z</time>
      </trkpt>
      <trkpt lat="45.96473" lon="4.71604">
        <ele>183</ele>
        <time>2016-10-08T11:05:55Z</time>
      </trkpt>
      <trkpt lat="45.96466" lon="4.71603">
        <ele>183</ele>
        <time>2016-10-08T11:05:56Z</time>
      </trkpt>
      <trkpt lat="45.9646" lon="4.71601">
        <ele>183</ele>
        <time>2016-10-08T11:05:57Z</time>
      </trkpt>
      <trkpt lat="45.96453" lon="4.716">
        <ele>183</ele>
        <time>2016-10-08T11:05:58Z</time>
      </trkpt>
      <trkpt lat="45.96446" lon="4.71598">
        <ele>183</ele>
        <time>2016-10-08T11:05:59Z</time>
      </trkpt>
      <trkpt lat="45.96439" lon="4.71597">
        <ele>183</ele>
        <time>2016-10-08T11:06:00Z</time>
      </trkpt>
      <trkpt lat="45.96432" lon="4.71596">
        <ele>184</ele>
        <time>2016-10-08T11:06:01Z</time>
      </trkpt>
      <trkpt lat="45.96424" lon="4.71595">
        <ele>184</ele>
        <time>2016-10-08T11:06:02Z</time>
      </trkpt>
      <trkpt lat="45.96417" lon="4.71593">
        <ele>184</ele>
        <time>2016-10-08T11:06:03Z</time>
      </trkpt>
      <trkpt lat="45.9641" lon="4.71592">
        <ele>184</ele>
        <time>2016-10-08T11:06:04Z</time>
      </trkpt>
      <trkpt lat="45.96403" lon="4.7159">
        <ele>183</ele>
        <time>2016-10-08T11:06:05Z</time>
      </trkpt>
      <trkpt lat="45.96395" lon="4.71589">
        <ele>183</ele>
        <time>2016-10-08T11:06:06Z</time>
      </trkpt>
      <trkpt lat="45.96388" lon="4.71587">
        <ele>183</ele>
        <time>2016-10-08T11:06:07Z</time>
      </trkpt>
      <trkpt lat="45.96381" lon="4.71586">
        <ele>183</ele>
        <time>2016-10-08T11:06:08Z</time>
      </trkpt>
      <trkpt lat="45.96374" lon="4.71585">
        <ele>182</ele>
        <time>2016-10-08T11:06:09Z</time>
      </trkpt>
      <trkpt lat="45.96366" lon="4.71584">
        <ele>182</ele>
        <time>2016-10-08T11:06:10Z</time>
      </trkpt>
      <trkpt lat="45.96358" lon="4.71582">
        <ele>185</ele>
        <time>2016-10-08T11:06:11Z</time>
      </trkpt>
      <trkpt lat="45.9635" lon="4.7158">
        <ele>185</ele>
        <time>2016-10-08T11:06:12Z</time>
      </trkpt>
      <trkpt lat="45.96344" lon="4.71579">
        <ele>184</ele>
        <time>2016-10-08T11:06:13Z</time>
      </trkpt>
      <trkpt lat="45.96337" lon="4.71578">
        <ele>184</ele>
        <time>2016-10-08T11:06:14Z</time>
      </trkpt>
      <trkpt lat="45.96329" lon="4.71577">
        <ele>184</ele>
        <time>2016-10-08T11:06:15Z</time>
      </trkpt>
      <trkpt lat="45.96323" lon="4.71576">
        <ele>184</ele>
        <time>2016-10-08T11:06:16Z</time>
      </trkpt>
      <trkpt lat="45.96316" lon="4.71575">
        <ele>184</ele>
        <time>2016-10-08T11:06:17Z</time>
      </trkpt>
      <trkpt lat="45.96309" lon="4.71574">
        <ele>184</ele>
        <time>2016-10-08T11:06:18Z</time>
      </trkpt>
      <trkpt lat="45.96302" lon="4.71574">
        <ele>184</ele>
        <time>2016-10-08T11:06:19Z</time>
      </trkpt>
      <trkpt lat="45.96296" lon="4.71573">
        <ele>184</ele>
        <time>2016-10-08T11:06:20Z</time>
      </trkpt>
      <trkpt lat="45.96289" lon="4.71572">
        <ele>184</ele>
        <time>2016-10-08T11:06:21Z</time>
      </trkpt>
      <trkpt lat="45.96282" lon="4.71571">
        <ele>184</ele>
        <time>2016-10-08T11:06:22Z</time>
      </trkpt>
      <trkpt lat="45.96276" lon="4.71569">
        <ele>184</ele>
        <time>2016-10-08T11:06:23Z</time>
      </trkpt>
      <trkpt lat="45.96269" lon="4.71568">
        <ele>184</ele>
        <time>2016-10-08T11:06:24Z</time>
      </trkpt>
      <trkpt lat="45.96262" lon="4.71567">
        <ele>183</ele>
        <time>2016-10-08T11:06:25Z</time>
      </trkpt>
      <trkpt lat="45.96256" lon="4.71567">
        <ele>183</ele>
        <time>2016-10-08T11:06:26Z</time>
      </trkpt>
      <trkpt lat="45.9625" lon="4.71565">
        <ele>183</ele>
        <time>2016-10-08T11:06:27Z</time>
      </trkpt>
      <trkpt lat="45.96243" lon="4.71563">
        <ele>183</ele>
        <time>2016-10-08T11:06:28Z</time>
      </trkpt>
      <trkpt lat="45.96237" lon="4.71562">
        <ele>183</ele>
        <time>2016-10-08T11:06:29Z</time>
      </trkpt>
      <trkpt lat="45.96231" lon="4.71561">
        <ele>183</ele>
        <time>2016-10-08T11:06:30Z</time>
      </trkpt>
      <trkpt lat="45.96223" lon="4.71562">
        <ele>183</ele>
        <time>2016-10-08T11:06:31Z</time>
      </trkpt>
      <trkpt lat="45.96215" lon="4.71561">
        <ele>183</ele>
        <time>2016-10-08T11:06:32Z</time>
      </trkpt>
      <trkpt lat="45.962" lon="4.71559">
        <ele>183</ele>
        <time>2016-10-08T11:06:34Z</time>
      </trkpt>
      <trkpt lat="45.96193" lon="4.71558">
        <ele>183</ele>
        <time>2016-10-08T11:06:35Z</time>
      </trkpt>
      <trkpt lat="45.96186" lon="4.71556">
        <ele>183</ele>
        <time>2016-10-08T11:06:36Z</time>
      </trkpt>
      <trkpt lat="45.96178" lon="4.71555">
        <ele>183</ele>
        <time>2016-10-08T11:06:37Z</time>
      </trkpt>
      <trkpt lat="45.96171" lon="4.71554">
        <ele>183</ele>
        <time>2016-10-08T11:06:38Z</time>
      </trkpt>
      <trkpt lat="45.96164" lon="4.71553">
        <ele>184</ele>
        <time>2016-10-08T11:06:39Z</time>
      </trkpt>
      <trkpt lat="45.96157" lon="4.71551">
        <ele>184</ele>
        <time>2016-10-08T11:06:40Z</time>
      </trkpt>
      <trkpt lat="45.9615" lon="4.7155">
        <ele>184</ele>
        <time>2016-10-08T11:06:41Z</time>
      </trkpt>
      <trkpt lat="45.96142" lon="4.71548">
        <ele>184</ele>
        <time>2016-10-08T11:06:42Z</time>
      </trkpt>
      <trkpt lat="45.96136" lon="4.71547">
        <ele>184</ele>
        <time>2016-10-08T11:06:43Z</time>
      </trkpt>
      <trkpt lat="45.96129" lon="4.71545">
        <ele>185</ele>
        <time>2016-10-08T11:06:44Z</time>
      </trkpt>
      <trkpt lat="45.96122" lon="4.71544">
        <ele>185</ele>
        <time>2016-10-08T11:06:45Z</time>
      </trkpt>
      <trkpt lat="45.96116" lon="4.71543">
        <ele>185</ele>
        <time>2016-10-08T11:06:46Z</time>
      </trkpt>
      <trkpt lat="45.9611" lon="4.71542">
        <ele>185</ele>
        <time>2016-10-08T11:06:47Z</time>
      </trkpt>
      <trkpt lat="45.96104" lon="4.71541">
        <ele>185</ele>
        <time>2016-10-08T11:06:48Z</time>
      </trkpt>
      <trkpt lat="45.96098" lon="4.7154">
        <ele>185</ele>
        <time>2016-10-08T11:06:49Z</time>
      </trkpt>
      <trkpt lat="45.96093" lon="4.71539">
        <ele>185</ele>
        <time>2016-10-08T11:06:50Z</time>
      </trkpt>
      <trkpt lat="45.96087" lon="4.71538">
        <ele>185</ele>
        <time>2016-10-08T11:06:51Z</time>
      </trkpt>
      <trkpt lat="45.96082" lon="4.71537">
        <ele>186</ele>
        <time>2016-10-08T11:06:52Z</time>
      </trkpt>
      <trkpt lat="45.96077" lon="4.71536">
        <ele>186</ele>
        <time>2016-10-08T11:06:53Z</time>
      </trkpt>
      <trkpt lat="45.96071" lon="4.71535">
        <ele>186</ele>
        <time>2016-10-08T11:06:54Z</time>
      </trkpt>
      <trkpt lat="45.96066" lon="4.71533">
        <ele>186</ele>
        <time>2016-10-08T11:06:55Z</time>
      </trkpt>
      <trkpt lat="45.9606" lon="4.71531">
        <ele>186</ele>
        <time>2016-10-08T11:06:56Z</time>
      </trkpt>
      <trkpt lat="45.96054" lon="4.7153">
        <ele>186</ele>
        <time>2016-10-08T11:06:57Z</time>
      </trkpt>
      <trkpt lat="45.96048" lon="4.71528">
        <ele>186</ele>
        <time>2016-10-08T11:06:58Z</time>
      </trkpt>
      <trkpt lat="45.96041" lon="4.71527">
        <ele>186</ele>
        <time>2016-10-08T11:06:59Z</time>
      </trkpt>
      <trkpt lat="45.96035" lon="4.71526">
        <ele>186</ele>
        <time>2016-10-08T11:07:00Z</time>
      </trkpt>
      <trkpt lat="45.96028" lon="4.71525">
        <ele>186</ele>
        <time>2016-10-08T11:07:01Z</time>
      </trkpt>
      <trkpt lat="45.96022" lon="4.71523">
        <ele>186</ele>
        <time>2016-10-08T11:07:02Z</time>
      </trkpt>
      <trkpt lat="45.96014" lon="4.71522">
        <ele>186</ele>
        <time>2016-10-08T11:07:03Z</time>
      </trkpt>
      <trkpt lat="45.96008" lon="4.7152">
        <ele>186</ele>
        <time>2016-10-08T11:07:04Z</time>
      </trkpt>
      <trkpt lat="45.96002" lon="4.71517">
        <ele>187</ele>
        <time>2016-10-08T11:07:05Z</time>
      </trkpt>
      <trkpt lat="45.95996" lon="4.71514">
        <ele>186</ele>
        <time>2016-10-08T11:07:06Z</time>
      </trkpt>
      <trkpt lat="45.9599" lon="4.71512">
        <ele>186</ele>
        <time>2016-10-08T11:07:07Z</time>
      </trkpt>
      <trkpt lat="45.95983" lon="4.71511">
        <ele>185</ele>
        <time>2016-10-08T11:07:08Z</time>
      </trkpt>
      <trkpt lat="45.95977" lon="4.71512">
        <ele>185</ele>
        <time>2016-10-08T11:07:09Z</time>
      </trkpt>
      <trkpt lat="45.9597" lon="4.71513">
        <ele>185</ele>
        <time>2016-10-08T11:07:10Z</time>
      </trkpt>
      <trkpt lat="45.95964" lon="4.71515">
        <ele>184</ele>
        <time>2016-10-08T11:07:11Z</time>
      </trkpt>
      <trkpt lat="45.95958" lon="4.71517">
        <ele>184</ele>
        <time>2016-10-08T11:07:12Z</time>
      </trkpt>
      <trkpt lat="45.95951" lon="4.71518">
        <ele>184</ele>
        <time>2016-10-08T11:07:13Z</time>
      </trkpt>
      <trkpt lat="45.95944" lon="4.71517">
        <ele>184</ele>
        <time>2016-10-08T11:07:14Z</time>
      </trkpt>
      <trkpt lat="45.95937" lon="4.71517">
        <ele>184</ele>
        <time>2016-10-08T11:07:15Z</time>
      </trkpt>
      <trkpt lat="45.9593" lon="4.71517">
        <ele>184</ele>
        <time>2016-10-08T11:07:16Z</time>
      </trkpt>
      <trkpt lat="45.95923" lon="4.71518">
        <ele>184</ele>
        <time>2016-10-08T11:07:17Z</time>
      </trkpt>
      <trkpt lat="45.95916" lon="4.71518">
        <ele>183</ele>
        <time>2016-10-08T11:07:18Z</time>
      </trkpt>
      <trkpt lat="45.95909" lon="4.71517">
        <ele>183</ele>
        <time>2016-10-08T11:07:19Z</time>
      </trkpt>
      <trkpt lat="45.95901" lon="4.71517">
        <ele>183</ele>
        <time>2016-10-08T11:07:20Z</time>
      </trkpt>
      <trkpt lat="45.95893" lon="4.71518">
        <ele>182</ele>
        <time>2016-10-08T11:07:21Z</time>
      </trkpt>
      <trkpt lat="45.95886" lon="4.71517">
        <ele>182</ele>
        <time>2016-10-08T11:07:22Z</time>
      </trkpt>
      <trkpt lat="45.95878" lon="4.71517">
        <ele>182</ele>
        <time>2016-10-08T11:07:23Z</time>
      </trkpt>
      <trkpt lat="45.95871" lon="4.71517">
        <ele>182</ele>
        <time>2016-10-08T11:07:24Z</time>
      </trkpt>
      <trkpt lat="45.95863" lon="4.71517">
        <ele>182</ele>
        <time>2016-10-08T11:07:25Z</time>
      </trkpt>
      <trkpt lat="45.95856" lon="4.71517">
        <ele>182</ele>
        <time>2016-10-08T11:07:26Z</time>
      </trkpt>
      <trkpt lat="45.95848" lon="4.71517">
        <ele>182</ele>
        <time>2016-10-08T11:07:27Z</time>
      </trkpt>
      <trkpt lat="45.95841" lon="4.71517">
        <ele>183</ele>
        <time>2016-10-08T11:07:28Z</time>
      </trkpt>
      <trkpt lat="45.95833" lon="4.71516">
        <ele>182</ele>
        <time>2016-10-08T11:07:29Z</time>
      </trkpt>
      <trkpt lat="45.95826" lon="4.71516">
        <ele>182</ele>
        <time>2016-10-08T11:07:30Z</time>
      </trkpt>
      <trkpt lat="45.95818" lon="4.71516">
        <ele>182</ele>
        <time>2016-10-08T11:07:31Z</time>
      </trkpt>
      <trkpt lat="45.95811" lon="4.71515">
        <ele>182</ele>
        <time>2016-10-08T11:07:32Z</time>
      </trkpt>
      <trkpt lat="45.95803" lon="4.71515">
        <ele>181</ele>
        <time>2016-10-08T11:07:33Z</time>
      </trkpt>
      <trkpt lat="45.95796" lon="4.71514">
        <ele>181</ele>
        <time>2016-10-08T11:07:34Z</time>
      </trkpt>
      <trkpt lat="45.95789" lon="4.71512">
        <ele>181</ele>
        <time>2016-10-08T11:07:35Z</time>
      </trkpt>
      <trkpt lat="45.95782" lon="4.71512">
        <ele>181</ele>
        <time>2016-10-08T11:07:36Z</time>
      </trkpt>
      <trkpt lat="45.95775" lon="4.71512">
        <ele>181</ele>
        <time>2016-10-08T11:07:37Z</time>
      </trkpt>
      <trkpt lat="45.95767" lon="4.71512">
        <ele>181</ele>
        <time>2016-10-08T11:07:38Z</time>
      </trkpt>
      <trkpt lat="45.9576" lon="4.71511">
        <ele>181</ele>
        <time>2016-10-08T11:07:39Z</time>
      </trkpt>
      <trkpt lat="45.95753" lon="4.71511">
        <ele>181</ele>
        <time>2016-10-08T11:07:40Z</time>
      </trkpt>
      <trkpt lat="45.95746" lon="4.71511">
        <ele>181</ele>
        <time>2016-10-08T11:07:41Z</time>
      </trkpt>
      <trkpt lat="45.95739" lon="4.7151">
        <ele>181</ele>
        <time>2016-10-08T11:07:42Z</time>
      </trkpt>
      <trkpt lat="45.95732" lon="4.7151">
        <ele>181</ele>
        <time>2016-10-08T11:07:43Z</time>
      </trkpt>
      <trkpt lat="45.95724" lon="4.71509">
        <ele>180</ele>
        <time>2016-10-08T11:07:44Z</time>
      </trkpt>
      <trkpt lat="45.95717" lon="4.71509">
        <ele>180</ele>
        <time>2016-10-08T11:07:45Z</time>
      </trkpt>
      <trkpt lat="45.9571" lon="4.71508">
        <ele>180</ele>
        <time>2016-10-08T11:07:46Z</time>
      </trkpt>
      <trkpt lat="45.95702" lon="4.71508">
        <ele>180</ele>
        <time>2016-10-08T11:07:47Z</time>
      </trkpt>
      <trkpt lat="45.95694" lon="4.71507">
        <ele>180</ele>
        <time>2016-10-08T11:07:48Z</time>
      </trkpt>
      <trkpt lat="45.95687" lon="4.71507">
        <ele>181</ele>
        <time>2016-10-08T11:07:49Z</time>
      </trkpt>
      <trkpt lat="45.95679" lon="4.71506">
        <ele>181</ele>
        <time>2016-10-08T11:07:50Z</time>
      </trkpt>
      <trkpt lat="45.95671" lon="4.71505">
        <ele>181</ele>
        <time>2016-10-08T11:07:51Z</time>
      </trkpt>
      <trkpt lat="45.95663" lon="4.71505">
        <ele>181</ele>
        <time>2016-10-08T11:07:52Z</time>
      </trkpt>
      <trkpt lat="45.95655" lon="4.71504">
        <ele>181</ele>
        <time>2016-10-08T11:07:53Z</time>
      </trkpt>
      <trkpt lat="45.95647" lon="4.71504">
        <ele>180</ele>
        <time>2016-10-08T11:07:54Z</time>
      </trkpt>
      <trkpt lat="45.95639" lon="4.71503">
        <ele>180</ele>
        <time>2016-10-08T11:07:55Z</time>
      </trkpt>
      <trkpt lat="45.9563" lon="4.71503">
        <ele>180</ele>
        <time>2016-10-08T11:07:56Z</time>
      </trkpt>
      <trkpt lat="45.95622" lon="4.71502">
        <ele>180</ele>
        <time>2016-10-08T11:07:57Z</time>
      </trkpt>
      <trkpt lat="45.95614" lon="4.71502">
        <ele>179</ele>
        <time>2016-10-08T11:07:58Z</time>
      </trkpt>
      <trkpt lat="45.95606" lon="4.71502">
        <ele>179</ele>
        <time>2016-10-08T11:07:59Z</time>
      </trkpt>
      <trkpt lat="45.95597" lon="4.71501">
        <ele>180</ele>
        <time>2016-10-08T11:08:00Z</time>
      </trkpt>
      <trkpt lat="45.95589" lon="4.71501">
        <ele>180</ele>
        <time>2016-10-08T11:08:01Z</time>
      </trkpt>
      <trkpt lat="45.95581" lon="4.715">
        <ele>180</ele>
        <time>2016-10-08T11:08:02Z</time>
      </trkpt>
      <trkpt lat="45.95573" lon="4.71499">
        <ele>180</ele>
        <time>2016-10-08T11:08:03Z</time>
      </trkpt>
      <trkpt lat="45.95564" lon="4.71499">
        <ele>179</ele>
        <time>2016-10-08T11:08:04Z</time>
      </trkpt>
      <trkpt lat="45.95556" lon="4.71497">
        <ele>179</ele>
        <time>2016-10-08T11:08:05Z</time>
      </trkpt>
      <trkpt lat="45.95548" lon="4.71496">
        <ele>179</ele>
        <time>2016-10-08T11:08:06Z</time>
      </trkpt>
      <trkpt lat="45.95539" lon="4.71496">
        <ele>179</ele>
        <time>2016-10-08T11:08:07Z</time>
      </trkpt>
      <trkpt lat="45.9553" lon="4.71495">
        <ele>178</ele>
        <time>2016-10-08T11:08:08Z</time>
      </trkpt>
      <trkpt lat="45.95521" lon="4.71495">
        <ele>178</ele>
        <time>2016-10-08T11:08:09Z</time>
      </trkpt>
      <trkpt lat="45.95513" lon="4.71494">
        <ele>178</ele>
        <time>2016-10-08T11:08:10Z</time>
      </trkpt>
      <trkpt lat="45.95504" lon="4.71493">
        <ele>178</ele>
        <time>2016-10-08T11:08:11Z</time>
      </trkpt>
      <trkpt lat="45.95496" lon="4.71493">
        <ele>177</ele>
        <time>2016-10-08T11:08:12Z</time>
      </trkpt>
      <trkpt lat="45.95487" lon="4.71492">
        <ele>177</ele>
        <time>2016-10-08T11:08:13Z</time>
      </trkpt>
      <trkpt lat="45.95479" lon="4.71492">
        <ele>176</ele>
        <time>2016-10-08T11:08:14Z</time>
      </trkpt>
      <trkpt lat="45.9547" lon="4.71491">
        <ele>176</ele>
        <time>2016-10-08T11:08:15Z</time>
      </trkpt>
      <trkpt lat="45.95461" lon="4.7149">
        <ele>176</ele>
        <time>2016-10-08T11:08:16Z</time>
      </trkpt>
      <trkpt lat="45.95453" lon="4.7149">
        <ele>176</ele>
        <time>2016-10-08T11:08:17Z</time>
      </trkpt>
      <trkpt lat="45.95444" lon="4.71489">
        <ele>176</ele>
        <time>2016-10-08T11:08:18Z</time>
      </trkpt>
      <trkpt lat="45.95436" lon="4.71489">
        <ele>175</ele>
        <time>2016-10-08T11:08:19Z</time>
      </trkpt>
      <trkpt lat="45.95427" lon="4.71489">
        <ele>175</ele>
        <time>2016-10-08T11:08:20Z</time>
      </trkpt>
      <trkpt lat="45.95418" lon="4.71487">
        <ele>175</ele>
        <time>2016-10-08T11:08:21Z</time>
      </trkpt>
      <trkpt lat="45.9541" lon="4.71485">
        <ele>175</ele>
        <time>2016-10-08T11:08:22Z</time>
      </trkpt>
      <trkpt lat="45.954" lon="4.71487">
        <ele>175</ele>
        <time>2016-10-08T11:08:23Z</time>
      </trkpt>
      <trkpt lat="45.95391" lon="4.71487">
        <ele>175</ele>
        <time>2016-10-08T11:08:24Z</time>
      </trkpt>
      <trkpt lat="45.95383" lon="4.71488">
        <ele>175</ele>
        <time>2016-10-08T11:08:25Z</time>
      </trkpt>
      <trkpt lat="45.95375" lon="4.71487">
        <ele>175</ele>
        <time>2016-10-08T11:08:26Z</time>
      </trkpt>
      <trkpt lat="45.95366" lon="4.7149">
        <ele>175</ele>
        <time>2016-10-08T11:08:27Z</time>
      </trkpt>
      <trkpt lat="45.95356" lon="4.71491">
        <ele>175</ele>
        <time>2016-10-08T11:08:28Z</time>
      </trkpt>
      <trkpt lat="45.95347" lon="4.7149">
        <ele>175</ele>
        <time>2016-10-08T11:08:29Z</time>
      </trkpt>
      <trkpt lat="45.9534" lon="4.71488">
        <ele>175</ele>
        <time>2016-10-08T11:08:30Z</time>
      </trkpt>
      <trkpt lat="45.95332" lon="4.71487">
        <ele>175</ele>
        <time>2016-10-08T11:08:31Z</time>
      </trkpt>
      <trkpt lat="45.95324" lon="4.71485">
        <ele>175</ele>
        <time>2016-10-08T11:08:32Z</time>
      </trkpt>
      <trkpt lat="45.95316" lon="4.71485">
        <ele>175</ele>
        <time>2016-10-08T11:08:33Z</time>
      </trkpt>
      <trkpt lat="45.95307" lon="4.71484">
        <ele>175</ele>
        <time>2016-10-08T11:08:34Z</time>
      </trkpt>
      <trkpt lat="45.95299" lon="4.71484">
        <ele>176</ele>
        <time>2016-10-08T11:08:35Z</time>
      </trkpt>
      <trkpt lat="45.95292" lon="4.71484">
        <ele>176</ele>
        <time>2016-10-08T11:08:36Z</time>
      </trkpt>
      <trkpt lat="45.95285" lon="4.71484">
        <ele>176</ele>
        <time>2016-10-08T11:08:37Z</time>
      </trkpt>
      <trkpt lat="45.95279" lon="4.71484">
        <ele>176</ele>
        <time>2016-10-08T11:08:38Z</time>
      </trkpt>
      <trkpt lat="45.95272" lon="4.71485">
        <ele>176</ele>
        <time>2016-10-08T11:08:39Z</time>
      </trkpt>
      <trkpt lat="45.95265" lon="4.71487">
        <ele>176</ele>
        <time>2016-10-08T11:08:40Z</time>
      </trkpt>
      <trkpt lat="45.95259" lon="4.71486">
        <ele>176</ele>
        <time>2016-10-08T11:08:41Z</time>
      </trkpt>
      <trkpt lat="45.95252" lon="4.71485">
        <ele>176</ele>
        <time>2016-10-08T11:08:42Z</time>
      </trkpt>
      <trkpt lat="45.95245" lon="4.71485">
        <ele>177</ele>
        <time>2016-10-08T11:08:43Z</time>
      </trkpt>
      <trkpt lat="45.95238" lon="4.71483">
        <ele>177</ele>
        <time>2016-10-08T11:08:44Z</time>
      </trkpt>
      <trkpt lat="45.95231" lon="4.71482">
        <ele>177</ele>
        <time>2016-10-08T11:08:45Z</time>
      </trkpt>
      <trkpt lat="45.95224" lon="4.7148">
        <ele>177</ele>
        <time>2016-10-08T11:08:46Z</time>
      </trkpt>
      <trkpt lat="45.95218" lon="4.71479">
        <ele>177</ele>
        <time>2016-10-08T11:08:47Z</time>
      </trkpt>
      <trkpt lat="45.95211" lon="4.71479">
        <ele>177</ele>
        <time>2016-10-08T11:08:48Z</time>
      </trkpt>
      <trkpt lat="45.95204" lon="4.71478">
        <ele>177</ele>
        <time>2016-10-08T11:08:49Z</time>
      </trkpt>
      <trkpt lat="45.95198" lon="4.71478">
        <ele>177</ele>
        <time>2016-10-08T11:08:50Z</time>
      </trkpt>
      <trkpt lat="45.95192" lon="4.71477">
        <ele>177</ele>
        <time>2016-10-08T11:08:51Z</time>
      </trkpt>
      <trkpt lat="45.95186" lon="4.71476">
        <ele>177</ele>
        <time>2016-10-08T11:08:52Z</time>
      </trkpt>
      <trkpt lat="45.9518" lon="4.71475">
        <ele>177</ele>
        <time>2016-10-08T11:08:53Z</time>
      </trkpt>
      <trkpt lat="45.95174" lon="4.71475">
        <ele>177</ele>
        <time>2016-10-08T11:08:54Z</time>
      </trkpt>
      <trkpt lat="45.95168" lon="4.71473">
        <ele>177</ele>
        <time>2016-10-08T11:08:55Z</time>
      </trkpt>
      <trkpt lat="45.95162" lon="4.71473">
        <ele>178</ele>
        <time>2016-10-08T11:08:56Z</time>
      </trkpt>
      <trkpt lat="45.95156" lon="4.71473">
        <ele>178</ele>
        <time>2016-10-08T11:08:57Z</time>
      </trkpt>
      <trkpt lat="45.9515" lon="4.71473">
        <ele>178</ele>
        <time>2016-10-08T11:08:58Z</time>
      </trkpt>
      <trkpt lat="45.95145" lon="4.71472">
        <ele>178</ele>
        <time>2016-10-08T11:08:59Z</time>
      </trkpt>
      <trkpt lat="45.95139" lon="4.71471">
        <ele>178</ele>
        <time>2016-10-08T11:09:00Z</time>
      </trkpt>
      <trkpt lat="45.95133" lon="4.7147">
        <ele>178</ele>
        <time>2016-10-08T11:09:01Z</time>
      </trkpt>
      <trkpt lat="45.95128" lon="4.71469">
        <ele>178</ele>
        <time>2016-10-08T11:09:02Z</time>
      </trkpt>
      <trkpt lat="45.95123" lon="4.71469">
        <ele>178</ele>
        <time>2016-10-08T11:09:03Z</time>
      </trkpt>
      <trkpt lat="45.95117" lon="4.71468">
        <ele>179</ele>
        <time>2016-10-08T11:09:04Z</time>
      </trkpt>
      <trkpt lat="45.95112" lon="4.71468">
        <ele>179</ele>
        <time>2016-10-08T11:09:05Z</time>
      </trkpt>
      <trkpt lat="45.95107" lon="4.71467">
        <ele>179</ele>
        <time>2016-10-08T11:09:06Z</time>
      </trkpt>
      <trkpt lat="45.95101" lon="4.71466">
        <ele>179</ele>
        <time>2016-10-08T11:09:07Z</time>
      </trkpt>
      <trkpt lat="45.95096" lon="4.71466">
        <ele>179</ele>
        <time>2016-10-08T11:09:08Z</time>
      </trkpt>
      <trkpt lat="45.9509" lon="4.71466">
        <ele>179</ele>
        <time>2016-10-08T11:09:09Z</time>
      </trkpt>
      <trkpt lat="45.95085" lon="4.71465">
        <ele>179</ele>
        <time>2016-10-08T11:09:10Z</time>
      </trkpt>
      <trkpt lat="45.9508" lon="4.71465">
        <ele>181</ele>
        <time>2016-10-08T11:09:11Z</time>
      </trkpt>
      <trkpt lat="45.95075" lon="4.71464">
        <ele>181</ele>
        <time>2016-10-08T11:09:12Z</time>
      </trkpt>
      <trkpt lat="45.9507" lon="4.71463">
        <ele>181</ele>
        <time>2016-10-08T11:09:13Z</time>
      </trkpt>
      <trkpt lat="45.95065" lon="4.71463">
        <ele>181</ele>
        <time>2016-10-08T11:09:14Z</time>
      </trkpt>
      <trkpt lat="45.9506" lon="4.71463">
        <ele>181</ele>
        <time>2016-10-08T11:09:15Z</time>
      </trkpt>
      <trkpt lat="45.95055" lon="4.71463">
        <ele>181</ele>
        <time>2016-10-08T11:09:16Z</time>
      </trkpt>
      <trkpt lat="45.95046" lon="4.71462">
        <ele>182</ele>
        <time>2016-10-08T11:09:18Z</time>
      </trkpt>
      <trkpt lat="45.95042" lon="4.71462">
        <ele>182</ele>
        <time>2016-10-08T11:09:19Z</time>
      </trkpt>
      <trkpt lat="45.95033" lon="4.71461">
        <ele>182</ele>
        <time>2016-10-08T11:09:21Z</time>
      </trkpt>
      <trkpt lat="45.95029" lon="4.71461">
        <ele>182</ele>
        <time>2016-10-08T11:09:22Z</time>
      </trkpt>
      <trkpt lat="45.95024" lon="4.71461">
        <ele>182</ele>
        <time>2016-10-08T11:09:23Z</time>
      </trkpt>
      <trkpt lat="45.95019" lon="4.7146">
        <ele>182</ele>
        <time>2016-10-08T11:09:24Z</time>
      </trkpt>
      <trkpt lat="45.95014" lon="4.7146">
        <ele>182</ele>
        <time>2016-10-08T11:09:25Z</time>
      </trkpt>
      <trkpt lat="45.9501" lon="4.7146">
        <ele>182</ele>
        <time>2016-10-08T11:09:26Z</time>
      </trkpt>
      <trkpt lat="45.95005" lon="4.71459">
        <ele>182</ele>
        <time>2016-10-08T11:09:27Z</time>
      </trkpt>
      <trkpt lat="45.95001" lon="4.71457">
        <ele>182</ele>
        <time>2016-10-08T11:09:28Z</time>
      </trkpt>
      <trkpt lat="45.94996" lon="4.71453">
        <ele>184</ele>
        <time>2016-10-08T11:09:29Z</time>
      </trkpt>
      <trkpt lat="45.94993" lon="4.71448">
        <ele>184</ele>
        <time>2016-10-08T11:09:30Z</time>
      </trkpt>
      <trkpt lat="45.94989" lon="4.71442">
        <ele>184</ele>
        <time>2016-10-08T11:09:31Z</time>
      </trkpt>
      <trkpt lat="45.94985" lon="4.71437">
        <ele>185</ele>
        <time>2016-10-08T11:09:32Z</time>
      </trkpt>
      <trkpt lat="45.9498" lon="4.71434">
        <ele>185</ele>
        <time>2016-10-08T11:09:33Z</time>
      </trkpt>
      <trkpt lat="45.94973" lon="4.71433">
        <ele>185</ele>
        <time>2016-10-08T11:09:34Z</time>
      </trkpt>
      <trkpt lat="45.94968" lon="4.71435">
        <ele>184</ele>
        <time>2016-10-08T11:09:35Z</time>
      </trkpt>
      <trkpt lat="45.94961" lon="4.71438">
        <ele>184</ele>
        <time>2016-10-08T11:09:36Z</time>
      </trkpt>
      <trkpt lat="45.94956" lon="4.71442">
        <ele>184</ele>
        <time>2016-10-08T11:09:37Z</time>
      </trkpt>
      <trkpt lat="45.94951" lon="4.71447">
        <ele>184</ele>
        <time>2016-10-08T11:09:38Z</time>
      </trkpt>
      <trkpt lat="45.94945" lon="4.71451">
        <ele>184</ele>
        <time>2016-10-08T11:09:39Z</time>
      </trkpt>
      <trkpt lat="45.9494" lon="4.71454">
        <ele>184</ele>
        <time>2016-10-08T11:09:40Z</time>
      </trkpt>
      <trkpt lat="45.94934" lon="4.71456">
        <ele>184</ele>
        <time>2016-10-08T11:09:41Z</time>
      </trkpt>
      <trkpt lat="45.94928" lon="4.71456">
        <ele>184</ele>
        <time>2016-10-08T11:09:42Z</time>
      </trkpt>
      <trkpt lat="45.94923" lon="4.71456">
        <ele>184</ele>
        <time>2016-10-08T11:09:43Z</time>
      </trkpt>
      <trkpt lat="45.94917" lon="4.71456">
        <ele>184</ele>
        <time>2016-10-08T11:09:44Z</time>
      </trkpt>
      <trkpt lat="45.94911" lon="4.71455">
        <ele>184</ele>
        <time>2016-10-08T11:09:45Z</time>
      </trkpt>
      <trkpt lat="45.94906" lon="4.71455">
        <ele>184</ele>
        <time>2016-10-08T11:09:46Z</time>
      </trkpt>
      <trkpt lat="45.94901" lon="4.71454">
        <ele>184</ele>
        <time>2016-10-08T11:09:47Z</time>
      </trkpt>
      <trkpt lat="45.94895" lon="4.71454">
        <ele>184</ele>
        <time>2016-10-08T11:09:48Z</time>
      </trkpt>
      <trkpt lat="45.9489" lon="4.71453">
        <ele>184</ele>
        <time>2016-10-08T11:09:49Z</time>
      </trkpt>
      <trkpt lat="45.94884" lon="4.71453">
        <ele>184</ele>
        <time>2016-10-08T11:09:50Z</time>
      </trkpt>
      <trkpt lat="45.94878" lon="4.71452">
        <ele>184</ele>
        <time>2016-10-08T11:09:51Z</time>
      </trkpt>
      <trkpt lat="45.94872" lon="4.71452">
        <ele>184</ele>
        <time>2016-10-08T11:09:52Z</time>
      </trkpt>
      <trkpt lat="45.94867" lon="4.71451">
        <ele>184</ele>
        <time>2016-10-08T11:09:53Z</time>
      </trkpt>
      <trkpt lat="45.94862" lon="4.71451">
        <ele>184</ele>
        <time>2016-10-08T11:09:54Z</time>
      </trkpt>
      <trkpt lat="45.94857" lon="4.7145">
        <ele>184</ele>
        <time>2016-10-08T11:09:55Z</time>
      </trkpt>
      <trkpt lat="45.94853" lon="4.7145">
        <ele>184</ele>
        <time>2016-10-08T11:09:56Z</time>
      </trkpt>
      <trkpt lat="45.94848" lon="4.7145">
        <ele>184</ele>
        <time>2016-10-08T11:09:57Z</time>
      </trkpt>
      <trkpt lat="45.94843" lon="4.7145">
        <ele>184</ele>
        <time>2016-10-08T11:09:58Z</time>
      </trkpt>
      <trkpt lat="45.94837" lon="4.71449">
        <ele>184</ele>
        <time>2016-10-08T11:09:59Z</time>
      </trkpt>
      <trkpt lat="45.94832" lon="4.71449">
        <ele>184</ele>
        <time>2016-10-08T11:10:00Z</time>
      </trkpt>
      <trkpt lat="45.94827" lon="4.71448">
        <ele>184</ele>
        <time>2016-10-08T11:10:01Z</time>
      </trkpt>
      <trkpt lat="45.94821" lon="4.71448">
        <ele>184</ele>
        <time>2016-10-08T11:10:02Z</time>
      </trkpt>
      <trkpt lat="45.94817" lon="4.71447">
        <ele>184</ele>
        <time>2016-10-08T11:10:03Z</time>
      </trkpt>
      <trkpt lat="45.94811" lon="4.71447">
        <ele>184</ele>
        <time>2016-10-08T11:10:04Z</time>
      </trkpt>
      <trkpt lat="45.94806" lon="4.71446">
        <ele>184</ele>
        <time>2016-10-08T11:10:05Z</time>
      </trkpt>
      <trkpt lat="45.94799" lon="4.71445">
        <ele>184</ele>
        <time>2016-10-08T11:10:06Z</time>
      </trkpt>
      <trkpt lat="45.94793" lon="4.71444">
        <ele>184</ele>
        <time>2016-10-08T11:10:07Z</time>
      </trkpt>
      <trkpt lat="45.94787" lon="4.71443">
        <ele>184</ele>
        <time>2016-10-08T11:10:08Z</time>
      </trkpt>
      <trkpt lat="45.94781" lon="4.71443">
        <ele>184</ele>
        <time>2016-10-08T11:10:09Z</time>
      </trkpt>
      <trkpt lat="45.94775" lon="4.71443">
        <ele>184</ele>
        <time>2016-10-08T11:10:10Z</time>
      </trkpt>
      <trkpt lat="45.94769" lon="4.71441">
        <ele>184</ele>
        <time>2016-10-08T11:10:11Z</time>
      </trkpt>
      <trkpt lat="45.94763" lon="4.71441">
        <ele>184</ele>
        <time>2016-10-08T11:10:12Z</time>
      </trkpt>
      <trkpt lat="45.94757" lon="4.7144">
        <ele>184</ele>
        <time>2016-10-08T11:10:13Z</time>
      </trkpt>
      <trkpt lat="45.94752" lon="4.7144">
        <ele>184</ele>
        <time>2016-10-08T11:10:14Z</time>
      </trkpt>
      <trkpt lat="45.94746" lon="4.7144">
        <ele>183</ele>
        <time>2016-10-08T11:10:15Z</time>
      </trkpt>
      <trkpt lat="45.94741" lon="4.71439">
        <ele>183</ele>
        <time>2016-10-08T11:10:16Z</time>
      </trkpt>
      <trkpt lat="45.94735" lon="4.71439">
        <ele>183</ele>
        <time>2016-10-08T11:10:17Z</time>
      </trkpt>
      <trkpt lat="45.94729" lon="4.71438">
        <ele>183</ele>
        <time>2016-10-08T11:10:18Z</time>
      </trkpt>
      <trkpt lat="45.94724" lon="4.71438">
        <ele>183</ele>
        <time>2016-10-08T11:10:19Z</time>
      </trkpt>
      <trkpt lat="45.94718" lon="4.71437">
        <ele>183</ele>
        <time>2016-10-08T11:10:20Z</time>
      </trkpt>
      <trkpt lat="45.94713" lon="4.71437">
        <ele>182</ele>
        <time>2016-10-08T11:10:21Z</time>
      </trkpt>
      <trkpt lat="45.94707" lon="4.71437">
        <ele>182</ele>
        <time>2016-10-08T11:10:22Z</time>
      </trkpt>
      <trkpt lat="45.94701" lon="4.71436">
        <ele>182</ele>
        <time>2016-10-08T11:10:23Z</time>
      </trkpt>
      <trkpt lat="45.94695" lon="4.71436">
        <ele>182</ele>
        <time>2016-10-08T11:10:24Z</time>
      </trkpt>
      <trkpt lat="45.94689" lon="4.71435">
        <ele>182</ele>
        <time>2016-10-08T11:10:25Z</time>
      </trkpt>
      <trkpt lat="45.94682" lon="4.71432">
        <ele>183</ele>
        <time>2016-10-08T11:10:26Z</time>
      </trkpt>
      <trkpt lat="45.94677" lon="4.71431">
        <ele>183</ele>
        <time>2016-10-08T11:10:27Z</time>
      </trkpt>
      <trkpt lat="45.9467" lon="4.71434">
        <ele>183</ele>
        <time>2016-10-08T11:10:28Z</time>
      </trkpt>
      <trkpt lat="45.94665" lon="4.71434">
        <ele>182</ele>
        <time>2016-10-08T11:10:29Z</time>
      </trkpt>
      <trkpt lat="45.94659" lon="4.71434">
        <ele>182</ele>
        <time>2016-10-08T11:10:30Z</time>
      </trkpt>
      <trkpt lat="45.94653" lon="4.71434">
        <ele>182</ele>
        <time>2016-10-08T11:10:31Z</time>
      </trkpt>
      <trkpt lat="45.94647" lon="4.71433">
        <ele>182</ele>
        <time>2016-10-08T11:10:32Z</time>
      </trkpt>
      <trkpt lat="45.94642" lon="4.71432">
        <ele>182</ele>
        <time>2016-10-08T11:10:33Z</time>
      </trkpt>
      <trkpt lat="45.94636" lon="4.71432">
        <ele>182</ele>
        <time>2016-10-08T11:10:34Z</time>
      </trkpt>
      <trkpt lat="45.94631" lon="4.71433">
        <ele>182</ele>
        <time>2016-10-08T11:10:35Z</time>
      </trkpt>
      <trkpt lat="45.94625" lon="4.71432">
        <ele>182</ele>
        <time>2016-10-08T11:10:36Z</time>
      </trkpt>
      <trkpt lat="45.9462" lon="4.71432">
        <ele>182</ele>
        <time>2016-10-08T11:10:37Z</time>
      </trkpt>
      <trkpt lat="45.94615" lon="4.71431">
        <ele>182</ele>
        <time>2016-10-08T11:10:38Z</time>
      </trkpt>
      <trkpt lat="45.94609" lon="4.71431">
        <ele>182</ele>
        <time>2016-10-08T11:10:39Z</time>
      </trkpt>
      <trkpt lat="45.94603" lon="4.71431">
        <ele>182</ele>
        <time>2016-10-08T11:10:40Z</time>
      </trkpt>
      <trkpt lat="45.94597" lon="4.7143">
        <ele>183</ele>
        <time>2016-10-08T11:10:41Z</time>
      </trkpt>
      <trkpt lat="45.94591" lon="4.71431">
        <ele>183</ele>
        <time>2016-10-08T11:10:42Z</time>
      </trkpt>
      <trkpt lat="45.94585" lon="4.71431">
        <ele>183</ele>
        <time>2016-10-08T11:10:43Z</time>
      </trkpt>
      <trkpt lat="45.94578" lon="4.71432">
        <ele>183</ele>
        <time>2016-10-08T11:10:44Z</time>
      </trkpt>
      <trkpt lat="45.94572" lon="4.71433">
        <ele>182</ele>
        <time>2016-10-08T11:10:45Z</time>
      </trkpt>
      <trkpt lat="45.94565" lon="4.71435">
        <ele>182</ele>
        <time>2016-10-08T11:10:46Z</time>
      </trkpt>
      <trkpt lat="45.94558" lon="4.71436">
        <ele>181</ele>
        <time>2016-10-08T11:10:47Z</time>
      </trkpt>
      <trkpt lat="45.94551" lon="4.71438">
        <ele>181</ele>
        <time>2016-10-08T11:10:48Z</time>
      </trkpt>
      <trkpt lat="45.94543" lon="4.7144">
        <ele>181</ele>
        <time>2016-10-08T11:10:49Z</time>
      </trkpt>
      <trkpt lat="45.94536" lon="4.71442">
        <ele>181</ele>
        <time>2016-10-08T11:10:50Z</time>
      </trkpt>
      <trkpt lat="45.9453" lon="4.71444">
        <ele>180</ele>
        <time>2016-10-08T11:10:51Z</time>
      </trkpt>
      <trkpt lat="45.94523" lon="4.71447">
        <ele>180</ele>
        <time>2016-10-08T11:10:52Z</time>
      </trkpt>
      <trkpt lat="45.94516" lon="4.71449">
        <ele>180</ele>
        <time>2016-10-08T11:10:53Z</time>
      </trkpt>
      <trkpt lat="45.94509" lon="4.71452">
        <ele>180</ele>
        <time>2016-10-08T11:10:54Z</time>
      </trkpt>
      <trkpt lat="45.94502" lon="4.71455">
        <ele>180</ele>
        <time>2016-10-08T11:10:55Z</time>
      </trkpt>
      <trkpt lat="45.94495" lon="4.71457">
        <ele>179</ele>
        <time>2016-10-08T11:10:56Z</time>
      </trkpt>
      <trkpt lat="45.94488" lon="4.71461">
        <ele>179</ele>
        <time>2016-10-08T11:10:57Z</time>
      </trkpt>
      <trkpt lat="45.94481" lon="4.71463">
        <ele>179</ele>
        <time>2016-10-08T11:10:58Z</time>
      </trkpt>
      <trkpt lat="45.94473" lon="4.71466">
        <ele>179</ele>
        <time>2016-10-08T11:10:59Z</time>
      </trkpt>
      <trkpt lat="45.94465" lon="4.71469">
        <ele>179</ele>
        <time>2016-10-08T11:11:00Z</time>
      </trkpt>
      <trkpt lat="45.94458" lon="4.71472">
        <ele>179</ele>
        <time>2016-10-08T11:11:01Z</time>
      </trkpt>
      <trkpt lat="45.94452" lon="4.71474">
        <ele>179</ele>
        <time>2016-10-08T11:11:02Z</time>
      </trkpt>
      <trkpt lat="45.94445" lon="4.71477">
        <ele>179</ele>
        <time>2016-10-08T11:11:03Z</time>
      </trkpt>
      <trkpt lat="45.94438" lon="4.7148">
        <ele>179</ele>
        <time>2016-10-08T11:11:04Z</time>
      </trkpt>
      <trkpt lat="45.94431" lon="4.71482">
        <ele>179</ele>
        <time>2016-10-08T11:11:05Z</time>
      </trkpt>
      <trkpt lat="45.94424" lon="4.71485">
        <ele>178</ele>
        <time>2016-10-08T11:11:06Z</time>
      </trkpt>
      <trkpt lat="45.94417" lon="4.71488">
        <ele>178</ele>
        <time>2016-10-08T11:11:07Z</time>
      </trkpt>
      <trkpt lat="45.9441" lon="4.71491">
        <ele>178</ele>
        <time>2016-10-08T11:11:08Z</time>
      </trkpt>
      <trkpt lat="45.94403" lon="4.71494">
        <ele>178</ele>
        <time>2016-10-08T11:11:09Z</time>
      </trkpt>
      <trkpt lat="45.94396" lon="4.71497">
        <ele>178</ele>
        <time>2016-10-08T11:11:10Z</time>
      </trkpt>
      <trkpt lat="45.94389" lon="4.715">
        <ele>177</ele>
        <time>2016-10-08T11:11:11Z</time>
      </trkpt>
      <trkpt lat="45.94383" lon="4.71501">
        <ele>177</ele>
        <time>2016-10-08T11:11:12Z</time>
      </trkpt>
      <trkpt lat="45.94376" lon="4.71504">
        <ele>177</ele>
        <time>2016-10-08T11:11:13Z</time>
      </trkpt>
      <trkpt lat="45.94369" lon="4.71506">
        <ele>176</ele>
        <time>2016-10-08T11:11:14Z</time>
      </trkpt>
      <trkpt lat="45.94362" lon="4.71508">
        <ele>176</ele>
        <time>2016-10-08T11:11:15Z</time>
      </trkpt>
      <trkpt lat="45.94354" lon="4.71509">
        <ele>176</ele>
        <time>2016-10-08T11:11:16Z</time>
      </trkpt>
      <trkpt lat="45.94346" lon="4.71512">
        <ele>176</ele>
        <time>2016-10-08T11:11:17Z</time>
      </trkpt>
      <trkpt lat="45.94339" lon="4.71515">
        <ele>176</ele>
        <time>2016-10-08T11:11:18Z</time>
      </trkpt>
      <trkpt lat="45.94331" lon="4.71514">
        <ele>176</ele>
        <time>2016-10-08T11:11:19Z</time>
      </trkpt>
      <trkpt lat="45.94324" lon="4.71515">
        <ele>176</ele>
        <time>2016-10-08T11:11:20Z</time>
      </trkpt>
      <trkpt lat="45.94317" lon="4.71518">
        <ele>176</ele>
        <time>2016-10-08T11:11:21Z</time>
      </trkpt>
      <trkpt lat="45.94311" lon="4.7152">
        <ele>175</ele>
        <time>2016-10-08T11:11:22Z</time>
      </trkpt>
      <trkpt lat="45.94304" lon="4.71523">
        <ele>175</ele>
        <time>2016-10-08T11:11:23Z</time>
      </trkpt>
      <trkpt lat="45.94297" lon="4.71527">
        <ele>175</ele>
        <time>2016-10-08T11:11:24Z</time>
      </trkpt>
      <trkpt lat="45.9429" lon="4.71529">
        <ele>175</ele>
        <time>2016-10-08T11:11:25Z</time>
      </trkpt>
      <trkpt lat="45.94283" lon="4.71532">
        <ele>175</ele>
        <time>2016-10-08T11:11:26Z</time>
      </trkpt>
      <trkpt lat="45.94276" lon="4.71536">
        <ele>175</ele>
        <time>2016-10-08T11:11:27Z</time>
      </trkpt>
      <trkpt lat="45.94268" lon="4.71539">
        <ele>175</ele>
        <time>2016-10-08T11:11:28Z</time>
      </trkpt>
      <trkpt lat="45.94261" lon="4.71543">
        <ele>175</ele>
        <time>2016-10-08T11:11:29Z</time>
      </trkpt>
      <trkpt lat="45.94254" lon="4.71546">
        <ele>175</ele>
        <time>2016-10-08T11:11:30Z</time>
      </trkpt>
      <trkpt lat="45.94245" lon="4.71551">
        <ele>174</ele>
        <time>2016-10-08T11:11:31Z</time>
      </trkpt>
      <trkpt lat="45.94238" lon="4.71556">
        <ele>174</ele>
        <time>2016-10-08T11:11:32Z</time>
      </trkpt>
      <trkpt lat="45.94231" lon="4.71559">
        <ele>174</ele>
        <time>2016-10-08T11:11:33Z</time>
      </trkpt>
      <trkpt lat="45.94224" lon="4.71562">
        <ele>174</ele>
        <time>2016-10-08T11:11:34Z</time>
      </trkpt>
      <trkpt lat="45.94216" lon="4.71564">
        <ele>174</ele>
        <time>2016-10-08T11:11:35Z</time>
      </trkpt>
      <trkpt lat="45.9421" lon="4.71567">
        <ele>174</ele>
        <time>2016-10-08T11:11:36Z</time>
      </trkpt>
      <trkpt lat="45.94203" lon="4.71569">
        <ele>174</ele>
        <time>2016-10-08T11:11:37Z</time>
      </trkpt>
      <trkpt lat="45.94197" lon="4.7157">
        <ele>174</ele>
        <time>2016-10-08T11:11:38Z</time>
      </trkpt>
      <trkpt lat="45.9419" lon="4.71575">
        <ele>174</ele>
        <time>2016-10-08T11:11:39Z</time>
      </trkpt>
      <trkpt lat="45.94184" lon="4.71578">
        <ele>174</ele>
        <time>2016-10-08T11:11:40Z</time>
      </trkpt>
      <trkpt lat="45.94178" lon="4.71581">
        <ele>174</ele>
        <time>2016-10-08T11:11:41Z</time>
      </trkpt>
      <trkpt lat="45.94171" lon="4.71583">
        <ele>174</ele>
        <time>2016-10-08T11:11:42Z</time>
      </trkpt>
      <trkpt lat="45.94165" lon="4.71586">
        <ele>174</ele>
        <time>2016-10-08T11:11:43Z</time>
      </trkpt>
      <trkpt lat="45.94158" lon="4.71588">
        <ele>174</ele>
        <time>2016-10-08T11:11:44Z</time>
      </trkpt>
      <trkpt lat="45.94152" lon="4.71591">
        <ele>173</ele>
        <time>2016-10-08T11:11:45Z</time>
      </trkpt>
      <trkpt lat="45.94145" lon="4.71594">
        <ele>173</ele>
        <time>2016-10-08T11:11:46Z</time>
      </trkpt>
      <trkpt lat="45.94138" lon="4.71597">
        <ele>173</ele>
        <time>2016-10-08T11:11:47Z</time>
      </trkpt>
      <trkpt lat="45.94132" lon="4.716">
        <ele>173</ele>
        <time>2016-10-08T11:11:48Z</time>
      </trkpt>
      <trkpt lat="45.94125" lon="4.71602">
        <ele>173</ele>
        <time>2016-10-08T11:11:49Z</time>
      </trkpt>
      <trkpt lat="45.94119" lon="4.71604">
        <ele>173</ele>
        <time>2016-10-08T11:11:50Z</time>
      </trkpt>
      <trkpt lat="45.94114" lon="4.71606">
        <ele>173</ele>
        <time>2016-10-08T11:11:51Z</time>
      </trkpt>
      <trkpt lat="45.94108" lon="4.71609">
        <ele>173</ele>
        <time>2016-10-08T11:11:52Z</time>
      </trkpt>
      <trkpt lat="45.94102" lon="4.71611">
        <ele>173</ele>
        <time>2016-10-08T11:11:53Z</time>
      </trkpt>
      <trkpt lat="45.94096" lon="4.71613">
        <ele>173</ele>
        <time>2016-10-08T11:11:54Z</time>
      </trkpt>
      <trkpt lat="45.9409" lon="4.71615">
        <ele>173</ele>
        <time>2016-10-08T11:11:55Z</time>
      </trkpt>
      <trkpt lat="45.94085" lon="4.71617">
        <ele>173</ele>
        <time>2016-10-08T11:11:56Z</time>
      </trkpt>
      <trkpt lat="45.94079" lon="4.71619">
        <ele>174</ele>
        <time>2016-10-08T11:11:57Z</time>
      </trkpt>
      <trkpt lat="45.94073" lon="4.71621">
        <ele>174</ele>
        <time>2016-10-08T11:11:58Z</time>
      </trkpt>
      <trkpt lat="45.94067" lon="4.71623">
        <ele>174</ele>
        <time>2016-10-08T11:11:59Z</time>
      </trkpt>
      <trkpt lat="45.94061" lon="4.71625">
        <ele>174</ele>
        <time>2016-10-08T11:12:00Z</time>
      </trkpt>
      <trkpt lat="45.94056" lon="4.7163">
        <ele>174</ele>
        <time>2016-10-08T11:12:01Z</time>
      </trkpt>
      <trkpt lat="45.94052" lon="4.71633">
        <ele>175</ele>
        <time>2016-10-08T11:12:02Z</time>
      </trkpt>
      <trkpt lat="45.94045" lon="4.71636">
        <ele>175</ele>
        <time>2016-10-08T11:12:03Z</time>
      </trkpt>
      <trkpt lat="45.94039" lon="4.71639">
        <ele>175</ele>
        <time>2016-10-08T11:12:04Z</time>
      </trkpt>
      <trkpt lat="45.94034" lon="4.71642">
        <ele>175</ele>
        <time>2016-10-08T11:12:05Z</time>
      </trkpt>
      <trkpt lat="45.94027" lon="4.71645">
        <ele>175</ele>
        <time>2016-10-08T11:12:06Z</time>
      </trkpt>
      <trkpt lat="45.9402" lon="4.71647">
        <ele>175</ele>
        <time>2016-10-08T11:12:07Z</time>
      </trkpt>
      <trkpt lat="45.94014" lon="4.71651">
        <ele>176</ele>
        <time>2016-10-08T11:12:08Z</time>
      </trkpt>
      <trkpt lat="45.94008" lon="4.71654">
        <ele>176</ele>
        <time>2016-10-08T11:12:09Z</time>
      </trkpt>
      <trkpt lat="45.94002" lon="4.71657">
        <ele>176</ele>
        <time>2016-10-08T11:12:10Z</time>
      </trkpt>
      <trkpt lat="45.93996" lon="4.7166">
        <ele>177</ele>
        <time>2016-10-08T11:12:11Z</time>
      </trkpt>
      <trkpt lat="45.9399" lon="4.71662">
        <ele>177</ele>
        <time>2016-10-08T11:12:12Z</time>
      </trkpt>
      <trkpt lat="45.93984" lon="4.71664">
        <ele>177</ele>
        <time>2016-10-08T11:12:13Z</time>
      </trkpt>
      <trkpt lat="45.93978" lon="4.71666">
        <ele>177</ele>
        <time>2016-10-08T11:12:14Z</time>
      </trkpt>
      <trkpt lat="45.93972" lon="4.71668">
        <ele>175</ele>
        <time>2016-10-08T11:12:15Z</time>
      </trkpt>
      <trkpt lat="45.93966" lon="4.71669">
        <ele>175</ele>
        <time>2016-10-08T11:12:16Z</time>
      </trkpt>
      <trkpt lat="45.93961" lon="4.71674">
        <ele>175</ele>
        <time>2016-10-08T11:12:17Z</time>
      </trkpt>
      <trkpt lat="45.93956" lon="4.71677">
        <ele>175</ele>
        <time>2016-10-08T11:12:18Z</time>
      </trkpt>
      <trkpt lat="45.9395" lon="4.7168">
        <ele>175</ele>
        <time>2016-10-08T11:12:19Z</time>
      </trkpt>
      <trkpt lat="45.93943" lon="4.71679">
        <ele>175</ele>
        <time>2016-10-08T11:12:20Z</time>
      </trkpt>
      <trkpt lat="45.93938" lon="4.71681">
        <ele>175</ele>
        <time>2016-10-08T11:12:21Z</time>
      </trkpt>
      <trkpt lat="45.93932" lon="4.71684">
        <ele>175</ele>
        <time>2016-10-08T11:12:22Z</time>
      </trkpt>
      <trkpt lat="45.93926" lon="4.71685">
        <ele>175</ele>
        <time>2016-10-08T11:12:23Z</time>
      </trkpt>
      <trkpt lat="45.93919" lon="4.71687">
        <ele>175</ele>
        <time>2016-10-08T11:12:24Z</time>
      </trkpt>
      <trkpt lat="45.93913" lon="4.71689">
        <ele>174</ele>
        <time>2016-10-08T11:12:25Z</time>
      </trkpt>
      <trkpt lat="45.93909" lon="4.71692">
        <ele>174</ele>
        <time>2016-10-08T11:12:26Z</time>
      </trkpt>
      <trkpt lat="45.93905" lon="4.71696">
        <ele>174</ele>
        <time>2016-10-08T11:12:27Z</time>
      </trkpt>
      <trkpt lat="45.939" lon="4.71699">
        <ele>174</ele>
        <time>2016-10-08T11:12:28Z</time>
      </trkpt>
      <trkpt lat="45.93892" lon="4.717">
        <ele>174</ele>
        <time>2016-10-08T11:12:29Z</time>
      </trkpt>
      <trkpt lat="45.93886" lon="4.71702">
        <ele>174</ele>
        <time>2016-10-08T11:12:30Z</time>
      </trkpt>
      <trkpt lat="45.9388" lon="4.71708">
        <ele>174</ele>
        <time>2016-10-08T11:12:31Z</time>
      </trkpt>
      <trkpt lat="45.93873" lon="4.71714">
        <ele>174</ele>
        <time>2016-10-08T11:12:32Z</time>
      </trkpt>
      <trkpt lat="45.93868" lon="4.71715">
        <ele>174</ele>
        <time>2016-10-08T11:12:33Z</time>
      </trkpt>
      <trkpt lat="45.93862" lon="4.71717">
        <ele>174</ele>
        <time>2016-10-08T11:12:34Z</time>
      </trkpt>
      <trkpt lat="45.93856" lon="4.71721">
        <ele>174</ele>
        <time>2016-10-08T11:12:35Z</time>
      </trkpt>
      <trkpt lat="45.9385" lon="4.71724">
        <ele>174</ele>
        <time>2016-10-08T11:12:36Z</time>
      </trkpt>
      <trkpt lat="45.93844" lon="4.71727">
        <ele>175</ele>
        <time>2016-10-08T11:12:37Z</time>
      </trkpt>
      <trkpt lat="45.93838" lon="4.71728">
        <ele>175</ele>
        <time>2016-10-08T11:12:38Z</time>
      </trkpt>
      <trkpt lat="45.93831" lon="4.7173">
        <ele>175</ele>
        <time>2016-10-08T11:12:39Z</time>
      </trkpt>
      <trkpt lat="45.93825" lon="4.71731">
        <ele>175</ele>
        <time>2016-10-08T11:12:40Z</time>
      </trkpt>
      <trkpt lat="45.93818" lon="4.71732">
        <ele>175</ele>
        <time>2016-10-08T11:12:41Z</time>
      </trkpt>
      <trkpt lat="45.93812" lon="4.71733">
        <ele>175</ele>
        <time>2016-10-08T11:12:42Z</time>
      </trkpt>
      <trkpt lat="45.93807" lon="4.71735">
        <ele>175</ele>
        <time>2016-10-08T11:12:43Z</time>
      </trkpt>
      <trkpt lat="45.93802" lon="4.71737">
        <ele>175</ele>
        <time>2016-10-08T11:12:44Z</time>
      </trkpt>
      <trkpt lat="45.93797" lon="4.7174">
        <ele>175</ele>
        <time>2016-10-08T11:12:45Z</time>
      </trkpt>
      <trkpt lat="45.93792" lon="4.71742">
        <ele>175</ele>
        <time>2016-10-08T11:12:46Z</time>
      </trkpt>
      <trkpt lat="45.93787" lon="4.71744">
        <ele>175</ele>
        <time>2016-10-08T11:12:47Z</time>
      </trkpt>
      <trkpt lat="45.93781" lon="4.71746">
        <ele>175</ele>
        <time>2016-10-08T11:12:48Z</time>
      </trkpt>
      <trkpt lat="45.93774" lon="4.71746">
        <ele>175</ele>
        <time>2016-10-08T11:12:49Z</time>
      </trkpt>
      <trkpt lat="45.93767" lon="4.71748">
        <ele>175</ele>
        <time>2016-10-08T11:12:50Z</time>
      </trkpt>
      <trkpt lat="45.93761" lon="4.7175">
        <ele>175</ele>
        <time>2016-10-08T11:12:51Z</time>
      </trkpt>
      <trkpt lat="45.93755" lon="4.71751">
        <ele>175</ele>
        <time>2016-10-08T11:12:52Z</time>
      </trkpt>
      <trkpt lat="45.9375" lon="4.71753">
        <ele>175</ele>
        <time>2016-10-08T11:12:53Z</time>
      </trkpt>
      <trkpt lat="45.93746" lon="4.71756">
        <ele>175</ele>
        <time>2016-10-08T11:12:54Z</time>
      </trkpt>
      <trkpt lat="45.93742" lon="4.71758">
        <ele>175</ele>
        <time>2016-10-08T11:12:55Z</time>
      </trkpt>
      <trkpt lat="45.93735" lon="4.71762">
        <ele>176</ele>
        <time>2016-10-08T11:12:57Z</time>
      </trkpt>
      <trkpt lat="45.93731" lon="4.71764">
        <ele>176</ele>
        <time>2016-10-08T11:12:58Z</time>
      </trkpt>
      <trkpt lat="45.93723" lon="4.7177">
        <ele>176</ele>
        <time>2016-10-08T11:13:01Z</time>
      </trkpt>
      <trkpt lat="45.93722" lon="4.71771">
        <ele>176</ele>
        <time>2016-10-08T11:13:02Z</time>
      </trkpt>
      <trkpt lat="45.93722" lon="4.71771">
        <ele>176</ele>
        <time>2016-10-08T11:13:03Z</time>
      </trkpt>
      <trkpt lat="45.9372" lon="4.71771">
        <ele>176</ele>
        <time>2016-10-08T11:13:13Z</time>
      </trkpt>
      <trkpt lat="45.93719" lon="4.71773">
        <ele>176</ele>
        <time>2016-10-08T11:13:14Z</time>
      </trkpt>
      <trkpt lat="45.93716" lon="4.7178">
        <ele>176</ele>
        <time>2016-10-08T11:13:16Z</time>
      </trkpt>
      <trkpt lat="45.93715" lon="4.71785">
        <ele>176</ele>
        <time>2016-10-08T11:13:17Z</time>
      </trkpt>
      <trkpt lat="45.93713" lon="4.71791">
        <ele>176</ele>
        <time>2016-10-08T11:13:18Z</time>
      </trkpt>
      <trkpt lat="45.93712" lon="4.71798">
        <ele>176</ele>
        <time>2016-10-08T11:13:19Z</time>
      </trkpt>
      <trkpt lat="45.93711" lon="4.71804">
        <ele>176</ele>
        <time>2016-10-08T11:13:20Z</time>
      </trkpt>
      <trkpt lat="45.93709" lon="4.71812">
        <ele>176</ele>
        <time>2016-10-08T11:13:21Z</time>
      </trkpt>
      <trkpt lat="45.93705" lon="4.7182">
        <ele>176</ele>
        <time>2016-10-08T11:13:22Z</time>
      </trkpt>
      <trkpt lat="45.93703" lon="4.71827">
        <ele>176</ele>
        <time>2016-10-08T11:13:23Z</time>
      </trkpt>
      <trkpt lat="45.937" lon="4.71833">
        <ele>176</ele>
        <time>2016-10-08T11:13:24Z</time>
      </trkpt>
      <trkpt lat="45.93698" lon="4.71839">
        <ele>175</ele>
        <time>2016-10-08T11:13:25Z</time>
      </trkpt>
      <trkpt lat="45.93695" lon="4.71845">
        <ele>175</ele>
        <time>2016-10-08T11:13:26Z</time>
      </trkpt>
      <trkpt lat="45.93693" lon="4.71851">
        <ele>175</ele>
        <time>2016-10-08T11:13:27Z</time>
      </trkpt>
      <trkpt lat="45.93691" lon="4.71857">
        <ele>175</ele>
        <time>2016-10-08T11:13:28Z</time>
      </trkpt>
      <trkpt lat="45.93689" lon="4.71863">
        <ele>175</ele>
        <time>2016-10-08T11:13:29Z</time>
      </trkpt>
      <trkpt lat="45.93686" lon="4.71868">
        <ele>175</ele>
        <time>2016-10-08T11:13:30Z</time>
      </trkpt>
      <trkpt lat="45.93681" lon="4.71873">
        <ele>175</ele>
        <time>2016-10-08T11:13:31Z</time>
      </trkpt>
      <trkpt lat="45.93677" lon="4.7188">
        <ele>175</ele>
        <time>2016-10-08T11:13:32Z</time>
      </trkpt>
      <trkpt lat="45.93675" lon="4.71888">
        <ele>175</ele>
        <time>2016-10-08T11:13:33Z</time>
      </trkpt>
      <trkpt lat="45.93672" lon="4.71898">
        <ele>175</ele>
        <time>2016-10-08T11:13:34Z</time>
      </trkpt>
      <trkpt lat="45.93668" lon="4.71911">
        <ele>175</ele>
        <time>2016-10-08T11:13:35Z</time>
      </trkpt>
      <trkpt lat="45.93666" lon="4.71918">
        <ele>175</ele>
        <time>2016-10-08T11:13:36Z</time>
      </trkpt>
      <trkpt lat="45.93662" lon="4.71925">
        <ele>175</ele>
        <time>2016-10-08T11:13:37Z</time>
      </trkpt>
      <trkpt lat="45.93659" lon="4.71932">
        <ele>175</ele>
        <time>2016-10-08T11:13:38Z</time>
      </trkpt>
      <trkpt lat="45.93656" lon="4.71939">
        <ele>175</ele>
        <time>2016-10-08T11:13:39Z</time>
      </trkpt>
      <trkpt lat="45.93654" lon="4.71949">
        <ele>175</ele>
        <time>2016-10-08T11:13:40Z</time>
      </trkpt>
      <trkpt lat="45.93653" lon="4.71956">
        <ele>175</ele>
        <time>2016-10-08T11:13:41Z</time>
      </trkpt>
      <trkpt lat="45.93651" lon="4.71963">
        <ele>175</ele>
        <time>2016-10-08T11:13:42Z</time>
      </trkpt>
      <trkpt lat="45.93649" lon="4.71969">
        <ele>175</ele>
        <time>2016-10-08T11:13:43Z</time>
      </trkpt>
      <trkpt lat="45.93647" lon="4.71975">
        <ele>175</ele>
        <time>2016-10-08T11:13:44Z</time>
      </trkpt>
      <trkpt lat="45.93644" lon="4.71982">
        <ele>175</ele>
        <time>2016-10-08T11:13:45Z</time>
      </trkpt>
      <trkpt lat="45.93641" lon="4.71988">
        <ele>175</ele>
        <time>2016-10-08T11:13:46Z</time>
      </trkpt>
      <trkpt lat="45.93638" lon="4.71995">
        <ele>175</ele>
        <time>2016-10-08T11:13:47Z</time>
      </trkpt>
      <trkpt lat="45.93635" lon="4.72002">
        <ele>174</ele>
        <time>2016-10-08T11:13:48Z</time>
      </trkpt>
      <trkpt lat="45.93632" lon="4.72008">
        <ele>174</ele>
        <time>2016-10-08T11:13:49Z</time>
      </trkpt>
      <trkpt lat="45.93629" lon="4.72015">
        <ele>175</ele>
        <time>2016-10-08T11:13:50Z</time>
      </trkpt>
      <trkpt lat="45.93627" lon="4.72022">
        <ele>175</ele>
        <time>2016-10-08T11:13:51Z</time>
      </trkpt>
      <trkpt lat="45.93624" lon="4.72028">
        <ele>175</ele>
        <time>2016-10-08T11:13:52Z</time>
      </trkpt>
      <trkpt lat="45.93621" lon="4.72034">
        <ele>175</ele>
        <time>2016-10-08T11:13:53Z</time>
      </trkpt>
      <trkpt lat="45.93619" lon="4.72042">
        <ele>175</ele>
        <time>2016-10-08T11:13:54Z</time>
      </trkpt>
      <trkpt lat="45.93616" lon="4.72048">
        <ele>175</ele>
        <time>2016-10-08T11:13:55Z</time>
      </trkpt>
      <trkpt lat="45.93613" lon="4.72055">
        <ele>175</ele>
        <time>2016-10-08T11:13:56Z</time>
      </trkpt>
      <trkpt lat="45.93611" lon="4.72062">
        <ele>175</ele>
        <time>2016-10-08T11:13:57Z</time>
      </trkpt>
      <trkpt lat="45.93608" lon="4.7207">
        <ele>175</ele>
        <time>2016-10-08T11:13:58Z</time>
      </trkpt>
      <trkpt lat="45.93604" lon="4.72077">
        <ele>175</ele>
        <time>2016-10-08T11:13:59Z</time>
      </trkpt>
      <trkpt lat="45.93601" lon="4.72085">
        <ele>175</ele>
        <time>2016-10-08T11:14:00Z</time>
      </trkpt>
      <trkpt lat="45.93599" lon="4.72092">
        <ele>175</ele>
        <time>2016-10-08T11:14:01Z</time>
      </trkpt>
      <trkpt lat="45.93595" lon="4.721">
        <ele>174</ele>
        <time>2016-10-08T11:14:02Z</time>
      </trkpt>
      <trkpt lat="45.93592" lon="4.72107">
        <ele>174</ele>
        <time>2016-10-08T11:14:03Z</time>
      </trkpt>
      <trkpt lat="45.9359" lon="4.72112">
        <ele>174</ele>
        <time>2016-10-08T11:14:04Z</time>
      </trkpt>
      <trkpt lat="45.93587" lon="4.72119">
        <ele>174</ele>
        <time>2016-10-08T11:14:05Z</time>
      </trkpt>
      <trkpt lat="45.93584" lon="4.72125">
        <ele>174</ele>
        <time>2016-10-08T11:14:06Z</time>
      </trkpt>
      <trkpt lat="45.93581" lon="4.72131">
        <ele>174</ele>
        <time>2016-10-08T11:14:07Z</time>
      </trkpt>
      <trkpt lat="45.93578" lon="4.72137">
        <ele>174</ele>
        <time>2016-10-08T11:14:08Z</time>
      </trkpt>
      <trkpt lat="45.93577" lon="4.72146">
        <ele>174</ele>
        <time>2016-10-08T11:14:09Z</time>
      </trkpt>
      <trkpt lat="45.93576" lon="4.72154">
        <ele>174</ele>
        <time>2016-10-08T11:14:10Z</time>
      </trkpt>
      <trkpt lat="45.93574" lon="4.7216">
        <ele>174</ele>
        <time>2016-10-08T11:14:11Z</time>
      </trkpt>
      <trkpt lat="45.93572" lon="4.72167">
        <ele>174</ele>
        <time>2016-10-08T11:14:12Z</time>
      </trkpt>
      <trkpt lat="45.9357" lon="4.72174">
        <ele>173</ele>
        <time>2016-10-08T11:14:13Z</time>
      </trkpt>
      <trkpt lat="45.93567" lon="4.7218">
        <ele>173</ele>
        <time>2016-10-08T11:14:14Z</time>
      </trkpt>
      <trkpt lat="45.93564" lon="4.72186">
        <ele>173</ele>
        <time>2016-10-08T11:14:15Z</time>
      </trkpt>
      <trkpt lat="45.93561" lon="4.72192">
        <ele>173</ele>
        <time>2016-10-08T11:14:16Z</time>
      </trkpt>
      <trkpt lat="45.93559" lon="4.72199">
        <ele>173</ele>
        <time>2016-10-08T11:14:17Z</time>
      </trkpt>
      <trkpt lat="45.93555" lon="4.72206">
        <ele>173</ele>
        <time>2016-10-08T11:14:18Z</time>
      </trkpt>
      <trkpt lat="45.93552" lon="4.72213">
        <ele>173</ele>
        <time>2016-10-08T11:14:19Z</time>
      </trkpt>
      <trkpt lat="45.93549" lon="4.7222">
        <ele>172</ele>
        <time>2016-10-08T11:14:20Z</time>
      </trkpt>
      <trkpt lat="45.93546" lon="4.72226">
        <ele>172</ele>
        <time>2016-10-08T11:14:21Z</time>
      </trkpt>
      <trkpt lat="45.93543" lon="4.72232">
        <ele>172</ele>
        <time>2016-10-08T11:14:22Z</time>
      </trkpt>
      <trkpt lat="45.93539" lon="4.72239">
        <ele>172</ele>
        <time>2016-10-08T11:14:23Z</time>
      </trkpt>
      <trkpt lat="45.93536" lon="4.72245">
        <ele>172</ele>
        <time>2016-10-08T11:14:24Z</time>
      </trkpt>
      <trkpt lat="45.93534" lon="4.72252">
        <ele>172</ele>
        <time>2016-10-08T11:14:25Z</time>
      </trkpt>
      <trkpt lat="45.93532" lon="4.72259">
        <ele>172</ele>
        <time>2016-10-08T11:14:26Z</time>
      </trkpt>
      <trkpt lat="45.93529" lon="4.72265">
        <ele>172</ele>
        <time>2016-10-08T11:14:27Z</time>
      </trkpt>
      <trkpt lat="45.93526" lon="4.72271">
        <ele>172</ele>
        <time>2016-10-08T11:14:28Z</time>
      </trkpt>
      <trkpt lat="45.93524" lon="4.72278">
        <ele>172</ele>
        <time>2016-10-08T11:14:29Z</time>
      </trkpt>
      <trkpt lat="45.93521" lon="4.72285">
        <ele>172</ele>
        <time>2016-10-08T11:14:30Z</time>
      </trkpt>
      <trkpt lat="45.93518" lon="4.72292">
        <ele>172</ele>
        <time>2016-10-08T11:14:31Z</time>
      </trkpt>
      <trkpt lat="45.93515" lon="4.72298">
        <ele>172</ele>
        <time>2016-10-08T11:14:32Z</time>
      </trkpt>
      <trkpt lat="45.93511" lon="4.72305">
        <ele>173</ele>
        <time>2016-10-08T11:14:33Z</time>
      </trkpt>
      <trkpt lat="45.93507" lon="4.72311">
        <ele>173</ele>
        <time>2016-10-08T11:14:34Z</time>
      </trkpt>
      <trkpt lat="45.93503" lon="4.72317">
        <ele>173</ele>
        <time>2016-10-08T11:14:35Z</time>
      </trkpt>
      <trkpt lat="45.93499" lon="4.72323">
        <ele>173</ele>
        <time>2016-10-08T11:14:36Z</time>
      </trkpt>
      <trkpt lat="45.93494" lon="4.7233">
        <ele>173</ele>
        <time>2016-10-08T11:14:37Z</time>
      </trkpt>
      <trkpt lat="45.9349" lon="4.72336">
        <ele>173</ele>
        <time>2016-10-08T11:14:38Z</time>
      </trkpt>
      <trkpt lat="45.93485" lon="4.72342">
        <ele>173</ele>
        <time>2016-10-08T11:14:39Z</time>
      </trkpt>
      <trkpt lat="45.9348" lon="4.72348">
        <ele>173</ele>
        <time>2016-10-08T11:14:40Z</time>
      </trkpt>
      <trkpt lat="45.93475" lon="4.72352">
        <ele>173</ele>
        <time>2016-10-08T11:14:41Z</time>
      </trkpt>
      <trkpt lat="45.9347" lon="4.72358">
        <ele>173</ele>
        <time>2016-10-08T11:14:42Z</time>
      </trkpt>
      <trkpt lat="45.93466" lon="4.72365">
        <ele>173</ele>
        <time>2016-10-08T11:14:43Z</time>
      </trkpt>
      <trkpt lat="45.93462" lon="4.72371">
        <ele>173</ele>
        <time>2016-10-08T11:14:44Z</time>
      </trkpt>
      <trkpt lat="45.93457" lon="4.72377">
        <ele>173</ele>
        <time>2016-10-08T11:14:45Z</time>
      </trkpt>
      <trkpt lat="45.93452" lon="4.72382">
        <ele>173</ele>
        <time>2016-10-08T11:14:46Z</time>
      </trkpt>
      <trkpt lat="45.93448" lon="4.72387">
        <ele>173</ele>
        <time>2016-10-08T11:14:47Z</time>
      </trkpt>
      <trkpt lat="45.93443" lon="4.7239">
        <ele>173</ele>
        <time>2016-10-08T11:14:48Z</time>
      </trkpt>
      <trkpt lat="45.93438" lon="4.72394">
        <ele>173</ele>
        <time>2016-10-08T11:14:49Z</time>
      </trkpt>
      <trkpt lat="45.93432" lon="4.72398">
        <ele>174</ele>
        <time>2016-10-08T11:14:50Z</time>
      </trkpt>
      <trkpt lat="45.93426" lon="4.72401">
        <ele>174</ele>
        <time>2016-10-08T11:14:51Z</time>
      </trkpt>
      <trkpt lat="45.9342" lon="4.72403">
        <ele>174</ele>
        <time>2016-10-08T11:14:52Z</time>
      </trkpt>
      <trkpt lat="45.93414" lon="4.72405">
        <ele>174</ele>
        <time>2016-10-08T11:14:53Z</time>
      </trkpt>
      <trkpt lat="45.93408" lon="4.72406">
        <ele>174</ele>
        <time>2016-10-08T11:14:54Z</time>
      </trkpt>
      <trkpt lat="45.93403" lon="4.72405">
        <ele>174</ele>
        <time>2016-10-08T11:14:55Z</time>
      </trkpt>
      <trkpt lat="45.93397" lon="4.72404">
        <ele>174</ele>
        <time>2016-10-08T11:14:56Z</time>
      </trkpt>
      <trkpt lat="45.93392" lon="4.72405">
        <ele>174</ele>
        <time>2016-10-08T11:14:57Z</time>
      </trkpt>
      <trkpt lat="45.93387" lon="4.72408">
        <ele>174</ele>
        <time>2016-10-08T11:14:58Z</time>
      </trkpt>
      <trkpt lat="45.93385" lon="4.72413">
        <ele>174</ele>
        <time>2016-10-08T11:14:59Z</time>
      </trkpt>
      <trkpt lat="45.93384" lon="4.7242">
        <ele>173</ele>
        <time>2016-10-08T11:15:00Z</time>
      </trkpt>
      <trkpt lat="45.93385" lon="4.72428">
        <ele>173</ele>
        <time>2016-10-08T11:15:01Z</time>
      </trkpt>
      <trkpt lat="45.93387" lon="4.72435">
        <ele>173</ele>
        <time>2016-10-08T11:15:02Z</time>
      </trkpt>
      <trkpt lat="45.93389" lon="4.72443">
        <ele>173</ele>
        <time>2016-10-08T11:15:03Z</time>
      </trkpt>
      <trkpt lat="45.93391" lon="4.7245">
        <ele>173</ele>
        <time>2016-10-08T11:15:04Z</time>
      </trkpt>
      <trkpt lat="45.93391" lon="4.72458">
        <ele>173</ele>
        <time>2016-10-08T11:15:05Z</time>
      </trkpt>
      <trkpt lat="45.93389" lon="4.72465">
        <ele>173</ele>
        <time>2016-10-08T11:15:06Z</time>
      </trkpt>
      <trkpt lat="45.93385" lon="4.7247">
        <ele>173</ele>
        <time>2016-10-08T11:15:07Z</time>
      </trkpt>
      <trkpt lat="45.9338" lon="4.72475">
        <ele>173</ele>
        <time>2016-10-08T11:15:08Z</time>
      </trkpt>
      <trkpt lat="45.93375" lon="4.72479">
        <ele>173</ele>
        <time>2016-10-08T11:15:09Z</time>
      </trkpt>
      <trkpt lat="45.9337" lon="4.72484">
        <ele>173</ele>
        <time>2016-10-08T11:15:10Z</time>
      </trkpt>
      <trkpt lat="45.93365" lon="4.7249">
        <ele>173</ele>
        <time>2016-10-08T11:15:11Z</time>
      </trkpt>
      <trkpt lat="45.93361" lon="4.72496">
        <ele>173</ele>
        <time>2016-10-08T11:15:12Z</time>
      </trkpt>
      <trkpt lat="45.93356" lon="4.72502">
        <ele>172</ele>
        <time>2016-10-08T11:15:13Z</time>
      </trkpt>
      <trkpt lat="45.93352" lon="4.72508">
        <ele>172</ele>
        <time>2016-10-08T11:15:14Z</time>
      </trkpt>
      <trkpt lat="45.93347" lon="4.72514">
        <ele>172</ele>
        <time>2016-10-08T11:15:15Z</time>
      </trkpt>
      <trkpt lat="45.93342" lon="4.72519">
        <ele>172</ele>
        <time>2016-10-08T11:15:16Z</time>
      </trkpt>
      <trkpt lat="45.93337" lon="4.72524">
        <ele>172</ele>
        <time>2016-10-08T11:15:17Z</time>
      </trkpt>
      <trkpt lat="45.93332" lon="4.72529">
        <ele>172</ele>
        <time>2016-10-08T11:15:18Z</time>
      </trkpt>
      <trkpt lat="45.93327" lon="4.72534">
        <ele>172</ele>
        <time>2016-10-08T11:15:19Z</time>
      </trkpt>
      <trkpt lat="45.93323" lon="4.72539">
        <ele>172</ele>
        <time>2016-10-08T11:15:20Z</time>
      </trkpt>
      <trkpt lat="45.93318" lon="4.72545">
        <ele>172</ele>
        <time>2016-10-08T11:15:21Z</time>
      </trkpt>
      <trkpt lat="45.93314" lon="4.72551">
        <ele>172</ele>
        <time>2016-10-08T11:15:22Z</time>
      </trkpt>
      <trkpt lat="45.93309" lon="4.72557">
        <ele>172</ele>
        <time>2016-10-08T11:15:23Z</time>
      </trkpt>
      <trkpt lat="45.93304" lon="4.72563">
        <ele>172</ele>
        <time>2016-10-08T11:15:24Z</time>
      </trkpt>
      <trkpt lat="45.93299" lon="4.72569">
        <ele>171</ele>
        <time>2016-10-08T11:15:25Z</time>
      </trkpt>
      <trkpt lat="45.93294" lon="4.72575">
        <ele>171</ele>
        <time>2016-10-08T11:15:26Z</time>
      </trkpt>
      <trkpt lat="45.93289" lon="4.72581">
        <ele>171</ele>
        <time>2016-10-08T11:15:27Z</time>
      </trkpt>
      <trkpt lat="45.93283" lon="4.72587">
        <ele>170</ele>
        <time>2016-10-08T11:15:28Z</time>
      </trkpt>
      <trkpt lat="45.93278" lon="4.72593">
        <ele>170</ele>
        <time>2016-10-08T11:15:29Z</time>
      </trkpt>
      <trkpt lat="45.93273" lon="4.72599">
        <ele>170</ele>
        <time>2016-10-08T11:15:30Z</time>
      </trkpt>
      <trkpt lat="45.93268" lon="4.72604">
        <ele>170</ele>
        <time>2016-10-08T11:15:31Z</time>
      </trkpt>
      <trkpt lat="45.93263" lon="4.72609">
        <ele>170</ele>
        <time>2016-10-08T11:15:32Z</time>
      </trkpt>
      <trkpt lat="45.93259" lon="4.72615">
        <ele>170</ele>
        <time>2016-10-08T11:15:33Z</time>
      </trkpt>
      <trkpt lat="45.93254" lon="4.7262">
        <ele>170</ele>
        <time>2016-10-08T11:15:34Z</time>
      </trkpt>
      <trkpt lat="45.9325" lon="4.72625">
        <ele>170</ele>
        <time>2016-10-08T11:15:35Z</time>
      </trkpt>
      <trkpt lat="45.93247" lon="4.7263">
        <ele>170</ele>
        <time>2016-10-08T11:15:36Z</time>
      </trkpt>
      <trkpt lat="45.93243" lon="4.72634">
        <ele>170</ele>
        <time>2016-10-08T11:15:37Z</time>
      </trkpt>
      <trkpt lat="45.93239" lon="4.72639">
        <ele>170</ele>
        <time>2016-10-08T11:15:38Z</time>
      </trkpt>
      <trkpt lat="45.93235" lon="4.72643">
        <ele>170</ele>
        <time>2016-10-08T11:15:39Z</time>
      </trkpt>
      <trkpt lat="45.9323" lon="4.72649">
        <ele>170</ele>
        <time>2016-10-08T11:15:40Z</time>
      </trkpt>
      <trkpt lat="45.93225" lon="4.72655">
        <ele>170</ele>
        <time>2016-10-08T11:15:41Z</time>
      </trkpt>
      <trkpt lat="45.93221" lon="4.7266">
        <ele>170</ele>
        <time>2016-10-08T11:15:42Z</time>
      </trkpt>
      <trkpt lat="45.93217" lon="4.72665">
        <ele>170</ele>
        <time>2016-10-08T11:15:43Z</time>
      </trkpt>
      <trkpt lat="45.93212" lon="4.72669">
        <ele>169</ele>
        <time>2016-10-08T11:15:44Z</time>
      </trkpt>
      <trkpt lat="45.93208" lon="4.72674">
        <ele>169</ele>
        <time>2016-10-08T11:15:45Z</time>
      </trkpt>
      <trkpt lat="45.93204" lon="4.72678">
        <ele>169</ele>
        <time>2016-10-08T11:15:46Z</time>
      </trkpt>
      <trkpt lat="45.932" lon="4.72683">
        <ele>169</ele>
        <time>2016-10-08T11:15:47Z</time>
      </trkpt>
      <trkpt lat="45.93197" lon="4.72687">
        <ele>169</ele>
        <time>2016-10-08T11:15:48Z</time>
      </trkpt>
      <trkpt lat="45.93193" lon="4.72692">
        <ele>169</ele>
        <time>2016-10-08T11:15:49Z</time>
      </trkpt>
      <trkpt lat="45.93187" lon="4.727">
        <ele>169</ele>
        <time>2016-10-08T11:15:51Z</time>
      </trkpt>
      <trkpt lat="45.93183" lon="4.72704">
        <ele>169</ele>
        <time>2016-10-08T11:15:52Z</time>
      </trkpt>
      <trkpt lat="45.93177" lon="4.72712">
        <ele>169</ele>
        <time>2016-10-08T11:15:54Z</time>
      </trkpt>
      <trkpt lat="45.93174" lon="4.72715">
        <ele>170</ele>
        <time>2016-10-08T11:15:55Z</time>
      </trkpt>
      <trkpt lat="45.93168" lon="4.72722">
        <ele>170</ele>
        <time>2016-10-08T11:15:57Z</time>
      </trkpt>
      <trkpt lat="45.93166" lon="4.72725">
        <ele>170</ele>
        <time>2016-10-08T11:15:58Z</time>
      </trkpt>
      <trkpt lat="45.93159" lon="4.72731">
        <ele>170</ele>
        <time>2016-10-08T11:16:01Z</time>
      </trkpt>
      <trkpt lat="45.93158" lon="4.72733">
        <ele>170</ele>
        <time>2016-10-08T11:16:02Z</time>
      </trkpt>
      <trkpt lat="45.93156" lon="4.72736">
        <ele>170</ele>
        <time>2016-10-08T11:16:10Z</time>
      </trkpt>
      <trkpt lat="45.93156" lon="4.72736">
        <ele>170</ele>
        <time>2016-10-08T11:16:11Z</time>
      </trkpt>
      <trkpt lat="45.93154" lon="4.72737">
        <ele>170</ele>
        <time>2016-10-08T11:16:12Z</time>
      </trkpt>
      <trkpt lat="45.93147" lon="4.72743">
        <ele>170</ele>
        <time>2016-10-08T11:16:15Z</time>
      </trkpt>
      <trkpt lat="45.93144" lon="4.72747">
        <ele>170</ele>
        <time>2016-10-08T11:16:16Z</time>
      </trkpt>
      <trkpt lat="45.93141" lon="4.72751">
        <ele>171</ele>
        <time>2016-10-08T11:16:17Z</time>
      </trkpt>
      <trkpt lat="45.93137" lon="4.72755">
        <ele>171</ele>
        <time>2016-10-08T11:16:18Z</time>
      </trkpt>
      <trkpt lat="45.93133" lon="4.7276">
        <ele>171</ele>
        <time>2016-10-08T11:16:19Z</time>
      </trkpt>
      <trkpt lat="45.93129" lon="4.72764">
        <ele>171</ele>
        <time>2016-10-08T11:16:20Z</time>
      </trkpt>
      <trkpt lat="45.93125" lon="4.72769">
        <ele>171</ele>
        <time>2016-10-08T11:16:21Z</time>
      </trkpt>
      <trkpt lat="45.93121" lon="4.72775">
        <ele>171</ele>
        <time>2016-10-08T11:16:22Z</time>
      </trkpt>
      <trkpt lat="45.93117" lon="4.72781">
        <ele>171</ele>
        <time>2016-10-08T11:16:23Z</time>
      </trkpt>
      <trkpt lat="45.93112" lon="4.72787">
        <ele>171</ele>
        <time>2016-10-08T11:16:24Z</time>
      </trkpt>
      <trkpt lat="45.93107" lon="4.72791">
        <ele>171</ele>
        <time>2016-10-08T11:16:25Z</time>
      </trkpt>
      <trkpt lat="45.93103" lon="4.72796">
        <ele>171</ele>
        <time>2016-10-08T11:16:26Z</time>
      </trkpt>
      <trkpt lat="45.93098" lon="4.72802">
        <ele>171</ele>
        <time>2016-10-08T11:16:27Z</time>
      </trkpt>
      <trkpt lat="45.93093" lon="4.72808">
        <ele>172</ele>
        <time>2016-10-08T11:16:28Z</time>
      </trkpt>
      <trkpt lat="45.93088" lon="4.72815">
        <ele>172</ele>
        <time>2016-10-08T11:16:29Z</time>
      </trkpt>
      <trkpt lat="45.93083" lon="4.72823">
        <ele>173</ele>
        <time>2016-10-08T11:16:30Z</time>
      </trkpt>
      <trkpt lat="45.93077" lon="4.72831">
        <ele>173</ele>
        <time>2016-10-08T11:16:31Z</time>
      </trkpt>
      <trkpt lat="45.93072" lon="4.72839">
        <ele>173</ele>
        <time>2016-10-08T11:16:32Z</time>
      </trkpt>
      <trkpt lat="45.93066" lon="4.72848">
        <ele>172</ele>
        <time>2016-10-08T11:16:33Z</time>
      </trkpt>
      <trkpt lat="45.93061" lon="4.72856">
        <ele>172</ele>
        <time>2016-10-08T11:16:34Z</time>
      </trkpt>
      <trkpt lat="45.93054" lon="4.72855">
        <ele>172</ele>
        <time>2016-10-08T11:16:36Z</time>
      </trkpt>
      <trkpt lat="45.93051" lon="4.72859">
        <ele>172</ele>
        <time>2016-10-08T11:16:37Z</time>
      </trkpt>
      <trkpt lat="45.93046" lon="4.72868">
        <ele>172</ele>
        <time>2016-10-08T11:16:38Z</time>
      </trkpt>
      <trkpt lat="45.93041" lon="4.72873">
        <ele>172</ele>
        <time>2016-10-08T11:16:39Z</time>
      </trkpt>
      <trkpt lat="45.93036" lon="4.72878">
        <ele>172</ele>
        <time>2016-10-08T11:16:40Z</time>
      </trkpt>
      <trkpt lat="45.9303" lon="4.72884">
        <ele>172</ele>
        <time>2016-10-08T11:16:41Z</time>
      </trkpt>
      <trkpt lat="45.93025" lon="4.7289">
        <ele>172</ele>
        <time>2016-10-08T11:16:42Z</time>
      </trkpt>
      <trkpt lat="45.9302" lon="4.72895">
        <ele>172</ele>
        <time>2016-10-08T11:16:43Z</time>
      </trkpt>
      <trkpt lat="45.93015" lon="4.72901">
        <ele>172</ele>
        <time>2016-10-08T11:16:44Z</time>
      </trkpt>
      <trkpt lat="45.93011" lon="4.72907">
        <ele>171</ele>
        <time>2016-10-08T11:16:45Z</time>
      </trkpt>
      <trkpt lat="45.93007" lon="4.72913">
        <ele>171</ele>
        <time>2016-10-08T11:16:46Z</time>
      </trkpt>
      <trkpt lat="45.93003" lon="4.72918">
        <ele>171</ele>
        <time>2016-10-08T11:16:47Z</time>
      </trkpt>
      <trkpt lat="45.92999" lon="4.72922">
        <ele>171</ele>
        <time>2016-10-08T11:16:48Z</time>
      </trkpt>
      <trkpt lat="45.92994" lon="4.72927">
        <ele>171</ele>
        <time>2016-10-08T11:16:49Z</time>
      </trkpt>
      <trkpt lat="45.9299" lon="4.72931">
        <ele>171</ele>
        <time>2016-10-08T11:16:50Z</time>
      </trkpt>
      <trkpt lat="45.92985" lon="4.72936">
        <ele>171</ele>
        <time>2016-10-08T11:16:51Z</time>
      </trkpt>
      <trkpt lat="45.92981" lon="4.72941">
        <ele>171</ele>
        <time>2016-10-08T11:16:52Z</time>
      </trkpt>
      <trkpt lat="45.92976" lon="4.72946">
        <ele>171</ele>
        <time>2016-10-08T11:16:53Z</time>
      </trkpt>
      <trkpt lat="45.92971" lon="4.72951">
        <ele>171</ele>
        <time>2016-10-08T11:16:54Z</time>
      </trkpt>
      <trkpt lat="45.92966" lon="4.72957">
        <ele>171</ele>
        <time>2016-10-08T11:16:55Z</time>
      </trkpt>
      <trkpt lat="45.92961" lon="4.72962">
        <ele>171</ele>
        <time>2016-10-08T11:16:56Z</time>
      </trkpt>
      <trkpt lat="45.92957" lon="4.72968">
        <ele>171</ele>
        <time>2016-10-08T11:16:57Z</time>
      </trkpt>
      <trkpt lat="45.92953" lon="4.72973">
        <ele>171</ele>
        <time>2016-10-08T11:16:58Z</time>
      </trkpt>
      <trkpt lat="45.92948" lon="4.72978">
        <ele>171</ele>
        <time>2016-10-08T11:16:59Z</time>
      </trkpt>
      <trkpt lat="45.92944" lon="4.72982">
        <ele>171</ele>
        <time>2016-10-08T11:17:00Z</time>
      </trkpt>
      <trkpt lat="45.9294" lon="4.72986">
        <ele>171</ele>
        <time>2016-10-08T11:17:01Z</time>
      </trkpt>
      <trkpt lat="45.92932" lon="4.72995">
        <ele>172</ele>
        <time>2016-10-08T11:17:03Z</time>
      </trkpt>
      <trkpt lat="45.92928" lon="4.73">
        <ele>172</ele>
        <time>2016-10-08T11:17:04Z</time>
      </trkpt>
      <trkpt lat="45.92924" lon="4.73005">
        <ele>172</ele>
        <time>2016-10-08T11:17:05Z</time>
      </trkpt>
      <trkpt lat="45.9292" lon="4.7301">
        <ele>172</ele>
        <time>2016-10-08T11:17:06Z</time>
      </trkpt>
      <trkpt lat="45.92916" lon="4.73015">
        <ele>172</ele>
        <time>2016-10-08T11:17:07Z</time>
      </trkpt>
      <trkpt lat="45.92908" lon="4.73026">
        <ele>172</ele>
        <time>2016-10-08T11:17:09Z</time>
      </trkpt>
      <trkpt lat="45.92904" lon="4.73032">
        <ele>172</ele>
        <time>2016-10-08T11:17:10Z</time>
      </trkpt>
      <trkpt lat="45.92899" lon="4.73038">
        <ele>172</ele>
        <time>2016-10-08T11:17:11Z</time>
      </trkpt>
      <trkpt lat="45.92895" lon="4.73044">
        <ele>172</ele>
        <time>2016-10-08T11:17:12Z</time>
      </trkpt>
      <trkpt lat="45.92888" lon="4.73059">
        <ele>172</ele>
        <time>2016-10-08T11:17:14Z</time>
      </trkpt>
      <trkpt lat="45.92881" lon="4.73072">
        <ele>172</ele>
        <time>2016-10-08T11:17:16Z</time>
      </trkpt>
      <trkpt lat="45.92878" lon="4.73079">
        <ele>172</ele>
        <time>2016-10-08T11:17:17Z</time>
      </trkpt>
      <trkpt lat="45.92875" lon="4.73086">
        <ele>172</ele>
        <time>2016-10-08T11:17:18Z</time>
      </trkpt>
      <trkpt lat="45.92873" lon="4.73093">
        <ele>172</ele>
        <time>2016-10-08T11:17:19Z</time>
      </trkpt>
      <trkpt lat="45.9287" lon="4.73101">
        <ele>172</ele>
        <time>2016-10-08T11:17:20Z</time>
      </trkpt>
      <trkpt lat="45.92868" lon="4.73108">
        <ele>172</ele>
        <time>2016-10-08T11:17:21Z</time>
      </trkpt>
      <trkpt lat="45.92867" lon="4.73116">
        <ele>171</ele>
        <time>2016-10-08T11:17:22Z</time>
      </trkpt>
      <trkpt lat="45.92866" lon="4.73124">
        <ele>171</ele>
        <time>2016-10-08T11:17:23Z</time>
      </trkpt>
      <trkpt lat="45.92865" lon="4.73132">
        <ele>171</ele>
        <time>2016-10-08T11:17:24Z</time>
      </trkpt>
      <trkpt lat="45.92864" lon="4.7314">
        <ele>171</ele>
        <time>2016-10-08T11:17:25Z</time>
      </trkpt>
      <trkpt lat="45.92863" lon="4.73148">
        <ele>171</ele>
        <time>2016-10-08T11:17:26Z</time>
      </trkpt>
      <trkpt lat="45.92862" lon="4.73156">
        <ele>171</ele>
        <time>2016-10-08T11:17:27Z</time>
      </trkpt>
      <trkpt lat="45.92861" lon="4.73163">
        <ele>171</ele>
        <time>2016-10-08T11:17:28Z</time>
      </trkpt>
      <trkpt lat="45.9286" lon="4.73171">
        <ele>171</ele>
        <time>2016-10-08T11:17:29Z</time>
      </trkpt>
      <trkpt lat="45.9286" lon="4.73178">
        <ele>171</ele>
        <time>2016-10-08T11:17:30Z</time>
      </trkpt>
      <trkpt lat="45.92859" lon="4.73185">
        <ele>171</ele>
        <time>2016-10-08T11:17:31Z</time>
      </trkpt>
      <trkpt lat="45.92858" lon="4.73193">
        <ele>171</ele>
        <time>2016-10-08T11:17:32Z</time>
      </trkpt>
      <trkpt lat="45.92857" lon="4.732">
        <ele>171</ele>
        <time>2016-10-08T11:17:33Z</time>
      </trkpt>
      <trkpt lat="45.92856" lon="4.73209">
        <ele>171</ele>
        <time>2016-10-08T11:17:34Z</time>
      </trkpt>
      <trkpt lat="45.92855" lon="4.73217">
        <ele>171</ele>
        <time>2016-10-08T11:17:35Z</time>
      </trkpt>
      <trkpt lat="45.92855" lon="4.73226">
        <ele>171</ele>
        <time>2016-10-08T11:17:36Z</time>
      </trkpt>
      <trkpt lat="45.92854" lon="4.73234">
        <ele>171</ele>
        <time>2016-10-08T11:17:37Z</time>
      </trkpt>
      <trkpt lat="45.92852" lon="4.73242">
        <ele>171</ele>
        <time>2016-10-08T11:17:38Z</time>
      </trkpt>
      <trkpt lat="45.92852" lon="4.73251">
        <ele>171</ele>
        <time>2016-10-08T11:17:39Z</time>
      </trkpt>
      <trkpt lat="45.9285" lon="4.73258">
        <ele>171</ele>
        <time>2016-10-08T11:17:40Z</time>
      </trkpt>
      <trkpt lat="45.92849" lon="4.73266">
        <ele>171</ele>
        <time>2016-10-08T11:17:41Z</time>
      </trkpt>
      <trkpt lat="45.92848" lon="4.73273">
        <ele>171</ele>
        <time>2016-10-08T11:17:42Z</time>
      </trkpt>
      <trkpt lat="45.92847" lon="4.73281">
        <ele>171</ele>
        <time>2016-10-08T11:17:43Z</time>
      </trkpt>
      <trkpt lat="45.92846" lon="4.73289">
        <ele>171</ele>
        <time>2016-10-08T11:17:44Z</time>
      </trkpt>
      <trkpt lat="45.92845" lon="4.73296">
        <ele>171</ele>
        <time>2016-10-08T11:17:45Z</time>
      </trkpt>
      <trkpt lat="45.92844" lon="4.73304">
        <ele>171</ele>
        <time>2016-10-08T11:17:46Z</time>
      </trkpt>
      <trkpt lat="45.92843" lon="4.73311">
        <ele>171</ele>
        <time>2016-10-08T11:17:47Z</time>
      </trkpt>
      <trkpt lat="45.92842" lon="4.73319">
        <ele>171</ele>
        <time>2016-10-08T11:17:48Z</time>
      </trkpt>
      <trkpt lat="45.92841" lon="4.73327">
        <ele>171</ele>
        <time>2016-10-08T11:17:49Z</time>
      </trkpt>
      <trkpt lat="45.9284" lon="4.73335">
        <ele>171</ele>
        <time>2016-10-08T11:17:50Z</time>
      </trkpt>
      <trkpt lat="45.9284" lon="4.73344">
        <ele>171</ele>
        <time>2016-10-08T11:17:51Z</time>
      </trkpt>
      <trkpt lat="45.92839" lon="4.73352">
        <ele>171</ele>
        <time>2016-10-08T11:17:52Z</time>
      </trkpt>
      <trkpt lat="45.92838" lon="4.73361">
        <ele>171</ele>
        <time>2016-10-08T11:17:53Z</time>
      </trkpt>
      <trkpt lat="45.92837" lon="4.7337">
        <ele>171</ele>
        <time>2016-10-08T11:17:54Z</time>
      </trkpt>
      <trkpt lat="45.92836" lon="4.73378">
        <ele>172</ele>
        <time>2016-10-08T11:17:55Z</time>
      </trkpt>
      <trkpt lat="45.92835" lon="4.73386">
        <ele>172</ele>
        <time>2016-10-08T11:17:56Z</time>
      </trkpt>
      <trkpt lat="45.92835" lon="4.73394">
        <ele>172</ele>
        <time>2016-10-08T11:17:57Z</time>
      </trkpt>
      <trkpt lat="45.92833" lon="4.734">
        <ele>172</ele>
        <time>2016-10-08T11:17:58Z</time>
      </trkpt>
      <trkpt lat="45.92832" lon="4.73407">
        <ele>172</ele>
        <time>2016-10-08T11:17:59Z</time>
      </trkpt>
      <trkpt lat="45.92831" lon="4.73414">
        <ele>172</ele>
        <time>2016-10-08T11:18:00Z</time>
      </trkpt>
      <trkpt lat="45.9283" lon="4.73422">
        <ele>172</ele>
        <time>2016-10-08T11:18:01Z</time>
      </trkpt>
      <trkpt lat="45.92829" lon="4.7343">
        <ele>172</ele>
        <time>2016-10-08T11:18:02Z</time>
      </trkpt>
      <trkpt lat="45.92828" lon="4.73436">
        <ele>172</ele>
        <time>2016-10-08T11:18:03Z</time>
      </trkpt>
      <trkpt lat="45.92828" lon="4.73443">
        <ele>172</ele>
        <time>2016-10-08T11:18:04Z</time>
      </trkpt>
      <trkpt lat="45.92826" lon="4.7345">
        <ele>172</ele>
        <time>2016-10-08T11:18:05Z</time>
      </trkpt>
      <trkpt lat="45.92825" lon="4.73458">
        <ele>172</ele>
        <time>2016-10-08T11:18:06Z</time>
      </trkpt>
      <trkpt lat="45.92824" lon="4.73465">
        <ele>171</ele>
        <time>2016-10-08T11:18:07Z</time>
      </trkpt>
      <trkpt lat="45.92823" lon="4.73473">
        <ele>172</ele>
        <time>2016-10-08T11:18:08Z</time>
      </trkpt>
      <trkpt lat="45.92822" lon="4.7348">
        <ele>172</ele>
        <time>2016-10-08T11:18:09Z</time>
      </trkpt>
      <trkpt lat="45.92822" lon="4.73487">
        <ele>172</ele>
        <time>2016-10-08T11:18:10Z</time>
      </trkpt>
      <trkpt lat="45.92822" lon="4.73493">
        <ele>172</ele>
        <time>2016-10-08T11:18:11Z</time>
      </trkpt>
      <trkpt lat="45.92821" lon="4.73501">
        <ele>172</ele>
        <time>2016-10-08T11:18:12Z</time>
      </trkpt>
      <trkpt lat="45.9282" lon="4.73508">
        <ele>172</ele>
        <time>2016-10-08T11:18:13Z</time>
      </trkpt>
      <trkpt lat="45.9282" lon="4.73515">
        <ele>172</ele>
        <time>2016-10-08T11:18:14Z</time>
      </trkpt>
      <trkpt lat="45.92819" lon="4.73522">
        <ele>172</ele>
        <time>2016-10-08T11:18:15Z</time>
      </trkpt>
      <trkpt lat="45.92818" lon="4.73529">
        <ele>172</ele>
        <time>2016-10-08T11:18:16Z</time>
      </trkpt>
      <trkpt lat="45.92818" lon="4.73536">
        <ele>172</ele>
        <time>2016-10-08T11:18:17Z</time>
      </trkpt>
      <trkpt lat="45.92817" lon="4.73544">
        <ele>171</ele>
        <time>2016-10-08T11:18:18Z</time>
      </trkpt>
      <trkpt lat="45.92816" lon="4.73551">
        <ele>171</ele>
        <time>2016-10-08T11:18:19Z</time>
      </trkpt>
      <trkpt lat="45.92816" lon="4.73559">
        <ele>171</ele>
        <time>2016-10-08T11:18:20Z</time>
      </trkpt>
      <trkpt lat="45.92815" lon="4.73566">
        <ele>171</ele>
        <time>2016-10-08T11:18:21Z</time>
      </trkpt>
      <trkpt lat="45.92815" lon="4.73574">
        <ele>171</ele>
        <time>2016-10-08T11:18:22Z</time>
      </trkpt>
      <trkpt lat="45.92813" lon="4.73581">
        <ele>171</ele>
        <time>2016-10-08T11:18:23Z</time>
      </trkpt>
      <trkpt lat="45.92815" lon="4.73589">
        <ele>171</ele>
        <time>2016-10-08T11:18:24Z</time>
      </trkpt>
      <trkpt lat="45.92815" lon="4.73596">
        <ele>171</ele>
        <time>2016-10-08T11:18:25Z</time>
      </trkpt>
      <trkpt lat="45.92816" lon="4.73603">
        <ele>172</ele>
        <time>2016-10-08T11:18:26Z</time>
      </trkpt>
      <trkpt lat="45.92816" lon="4.7361">
        <ele>172</ele>
        <time>2016-10-08T11:18:27Z</time>
      </trkpt>
      <trkpt lat="45.92815" lon="4.73617">
        <ele>172</ele>
        <time>2016-10-08T11:18:28Z</time>
      </trkpt>
      <trkpt lat="45.92814" lon="4.73624">
        <ele>172</ele>
        <time>2016-10-08T11:18:29Z</time>
      </trkpt>
      <trkpt lat="45.9281" lon="4.73629">
        <ele>172</ele>
        <time>2016-10-08T11:18:30Z</time>
      </trkpt>
      <trkpt lat="45.92806" lon="4.73634">
        <ele>172</ele>
        <time>2016-10-08T11:18:31Z</time>
      </trkpt>
      <trkpt lat="45.92803" lon="4.73639">
        <ele>172</ele>
        <time>2016-10-08T11:18:32Z</time>
      </trkpt>
      <trkpt lat="45.928" lon="4.73646">
        <ele>172</ele>
        <time>2016-10-08T11:18:33Z</time>
      </trkpt>
      <trkpt lat="45.92798" lon="4.73653">
        <ele>172</ele>
        <time>2016-10-08T11:18:34Z</time>
      </trkpt>
      <trkpt lat="45.92796" lon="4.73661">
        <ele>172</ele>
        <time>2016-10-08T11:18:35Z</time>
      </trkpt>
      <trkpt lat="45.92793" lon="4.73668">
        <ele>172</ele>
        <time>2016-10-08T11:18:36Z</time>
      </trkpt>
      <trkpt lat="45.92791" lon="4.73675">
        <ele>172</ele>
        <time>2016-10-08T11:18:37Z</time>
      </trkpt>
      <trkpt lat="45.92789" lon="4.73682">
        <ele>172</ele>
        <time>2016-10-08T11:18:38Z</time>
      </trkpt>
      <trkpt lat="45.92787" lon="4.73688">
        <ele>172</ele>
        <time>2016-10-08T11:18:39Z</time>
      </trkpt>
      <trkpt lat="45.92785" lon="4.73695">
        <ele>172</ele>
        <time>2016-10-08T11:18:40Z</time>
      </trkpt>
      <trkpt lat="45.92784" lon="4.73701">
        <ele>172</ele>
        <time>2016-10-08T11:18:41Z</time>
      </trkpt>
      <trkpt lat="45.92783" lon="4.73707">
        <ele>172</ele>
        <time>2016-10-08T11:18:42Z</time>
      </trkpt>
      <trkpt lat="45.92781" lon="4.73718">
        <ele>172</ele>
        <time>2016-10-08T11:18:44Z</time>
      </trkpt>
      <trkpt lat="45.9278" lon="4.73724">
        <ele>172</ele>
        <time>2016-10-08T11:18:45Z</time>
      </trkpt>
      <trkpt lat="45.92774" lon="4.73731">
        <ele>172</ele>
        <time>2016-10-08T11:18:47Z</time>
      </trkpt>
      <trkpt lat="45.92771" lon="4.73731">
        <ele>172</ele>
        <time>2016-10-08T11:18:48Z</time>
      </trkpt>
      <trkpt lat="45.92767" lon="4.73729">
        <ele>172</ele>
        <time>2016-10-08T11:18:49Z</time>
      </trkpt>
      <trkpt lat="45.92762" lon="4.73726">
        <ele>172</ele>
        <time>2016-10-08T11:18:50Z</time>
      </trkpt>
      <trkpt lat="45.92757" lon="4.73724">
        <ele>172</ele>
        <time>2016-10-08T11:18:51Z</time>
      </trkpt>
      <trkpt lat="45.92753" lon="4.73723">
        <ele>172</ele>
        <time>2016-10-08T11:18:52Z</time>
      </trkpt>
      <trkpt lat="45.92747" lon="4.73722">
        <ele>173</ele>
        <time>2016-10-08T11:18:53Z</time>
      </trkpt>
      <trkpt lat="45.92742" lon="4.73721">
        <ele>173</ele>
        <time>2016-10-08T11:18:54Z</time>
      </trkpt>
      <trkpt lat="45.92736" lon="4.7372">
        <ele>173</ele>
        <time>2016-10-08T11:18:55Z</time>
      </trkpt>
      <trkpt lat="45.92731" lon="4.73719">
        <ele>173</ele>
        <time>2016-10-08T11:18:56Z</time>
      </trkpt>
      <trkpt lat="45.92725" lon="4.73718">
        <ele>173</ele>
        <time>2016-10-08T11:18:57Z</time>
      </trkpt>
      <trkpt lat="45.92719" lon="4.73716">
        <ele>173</ele>
        <time>2016-10-08T11:18:58Z</time>
      </trkpt>
      <trkpt lat="45.92714" lon="4.73714">
        <ele>173</ele>
        <time>2016-10-08T11:18:59Z</time>
      </trkpt>
      <trkpt lat="45.92709" lon="4.73712">
        <ele>173</ele>
        <time>2016-10-08T11:19:00Z</time>
      </trkpt>
      <trkpt lat="45.92704" lon="4.73711">
        <ele>173</ele>
        <time>2016-10-08T11:19:01Z</time>
      </trkpt>
      <trkpt lat="45.92699" lon="4.73709">
        <ele>173</ele>
        <time>2016-10-08T11:19:02Z</time>
      </trkpt>
      <trkpt lat="45.92693" lon="4.73708">
        <ele>173</ele>
        <time>2016-10-08T11:19:03Z</time>
      </trkpt>
      <trkpt lat="45.92688" lon="4.73707">
        <ele>173</ele>
        <time>2016-10-08T11:19:04Z</time>
      </trkpt>
      <trkpt lat="45.92683" lon="4.73706">
        <ele>173</ele>
        <time>2016-10-08T11:19:05Z</time>
      </trkpt>
      <trkpt lat="45.92678" lon="4.73705">
        <ele>173</ele>
        <time>2016-10-08T11:19:06Z</time>
      </trkpt>
      <trkpt lat="45.92673" lon="4.73702">
        <ele>174</ele>
        <time>2016-10-08T11:19:07Z</time>
      </trkpt>
      <trkpt lat="45.92668" lon="4.737">
        <ele>174</ele>
        <time>2016-10-08T11:19:08Z</time>
      </trkpt>
      <trkpt lat="45.92663" lon="4.73697">
        <ele>173</ele>
        <time>2016-10-08T11:19:09Z</time>
      </trkpt>
      <trkpt lat="45.92658" lon="4.73693">
        <ele>173</ele>
        <time>2016-10-08T11:19:10Z</time>
      </trkpt>
      <trkpt lat="45.92654" lon="4.73688">
        <ele>173</ele>
        <time>2016-10-08T11:19:11Z</time>
      </trkpt>
      <trkpt lat="45.9265" lon="4.73684">
        <ele>173</ele>
        <time>2016-10-08T11:19:12Z</time>
      </trkpt>
      <trkpt lat="45.92646" lon="4.73678">
        <ele>173</ele>
        <time>2016-10-08T11:19:13Z</time>
      </trkpt>
      <trkpt lat="45.92643" lon="4.73671">
        <ele>173</ele>
        <time>2016-10-08T11:19:14Z</time>
      </trkpt>
      <trkpt lat="45.9264" lon="4.73665">
        <ele>173</ele>
        <time>2016-10-08T11:19:15Z</time>
      </trkpt>
      <trkpt lat="45.92637" lon="4.73658">
        <ele>173</ele>
        <time>2016-10-08T11:19:16Z</time>
      </trkpt>
      <trkpt lat="45.92635" lon="4.73652">
        <ele>173</ele>
        <time>2016-10-08T11:19:17Z</time>
      </trkpt>
      <trkpt lat="45.92632" lon="4.73646">
        <ele>173</ele>
        <time>2016-10-08T11:19:18Z</time>
      </trkpt>
      <trkpt lat="45.92629" lon="4.7364">
        <ele>173</ele>
        <time>2016-10-08T11:19:19Z</time>
      </trkpt>
      <trkpt lat="45.92626" lon="4.73634">
        <ele>173</ele>
        <time>2016-10-08T11:19:20Z</time>
      </trkpt>
      <trkpt lat="45.92621" lon="4.73628">
        <ele>173</ele>
        <time>2016-10-08T11:19:21Z</time>
      </trkpt>
      <trkpt lat="45.92617" lon="4.73624">
        <ele>173</ele>
        <time>2016-10-08T11:19:22Z</time>
      </trkpt>
      <trkpt lat="45.92612" lon="4.73621">
        <ele>173</ele>
        <time>2016-10-08T11:19:23Z</time>
      </trkpt>
      <trkpt lat="45.92606" lon="4.73619">
        <ele>173</ele>
        <time>2016-10-08T11:19:24Z</time>
      </trkpt>
      <trkpt lat="45.92599" lon="4.73619">
        <ele>173</ele>
        <time>2016-10-08T11:19:25Z</time>
      </trkpt>
      <trkpt lat="45.92593" lon="4.7362">
        <ele>173</ele>
        <time>2016-10-08T11:19:26Z</time>
      </trkpt>
      <trkpt lat="45.92587" lon="4.7362">
        <ele>173</ele>
        <time>2016-10-08T11:19:27Z</time>
      </trkpt>
      <trkpt lat="45.92581" lon="4.73622">
        <ele>173</ele>
        <time>2016-10-08T11:19:28Z</time>
      </trkpt>
      <trkpt lat="45.92575" lon="4.73624">
        <ele>173</ele>
        <time>2016-10-08T11:19:29Z</time>
      </trkpt>
      <trkpt lat="45.92569" lon="4.73626">
        <ele>173</ele>
        <time>2016-10-08T11:19:30Z</time>
      </trkpt>
      <trkpt lat="45.92564" lon="4.73628">
        <ele>173</ele>
        <time>2016-10-08T11:19:31Z</time>
      </trkpt>
      <trkpt lat="45.92559" lon="4.7363">
        <ele>173</ele>
        <time>2016-10-08T11:19:32Z</time>
      </trkpt>
      <trkpt lat="45.92553" lon="4.73631">
        <ele>173</ele>
        <time>2016-10-08T11:19:33Z</time>
      </trkpt>
      <trkpt lat="45.92548" lon="4.73633">
        <ele>173</ele>
        <time>2016-10-08T11:19:34Z</time>
      </trkpt>
      <trkpt lat="45.92543" lon="4.73634">
        <ele>173</ele>
        <time>2016-10-08T11:19:35Z</time>
      </trkpt>
      <trkpt lat="45.92536" lon="4.73635">
        <ele>173</ele>
        <time>2016-10-08T11:19:36Z</time>
      </trkpt>
      <trkpt lat="45.92531" lon="4.73635">
        <ele>173</ele>
        <time>2016-10-08T11:19:37Z</time>
      </trkpt>
      <trkpt lat="45.92526" lon="4.73636">
        <ele>173</ele>
        <time>2016-10-08T11:19:38Z</time>
      </trkpt>
      <trkpt lat="45.92522" lon="4.73636">
        <ele>173</ele>
        <time>2016-10-08T11:19:39Z</time>
      </trkpt>
      <trkpt lat="45.92517" lon="4.73637">
        <ele>173</ele>
        <time>2016-10-08T11:19:40Z</time>
      </trkpt>
      <trkpt lat="45.92509" lon="4.73635">
        <ele>173</ele>
        <time>2016-10-08T11:19:42Z</time>
      </trkpt>
      <trkpt lat="45.92506" lon="4.73634">
        <ele>174</ele>
        <time>2016-10-08T11:19:43Z</time>
      </trkpt>
      <trkpt lat="45.92498" lon="4.73633">
        <ele>174</ele>
        <time>2016-10-08T11:19:45Z</time>
      </trkpt>
      <trkpt lat="45.92494" lon="4.73633">
        <ele>174</ele>
        <time>2016-10-08T11:19:46Z</time>
      </trkpt>
      <trkpt lat="45.92486" lon="4.73635">
        <ele>174</ele>
        <time>2016-10-08T11:19:48Z</time>
      </trkpt>
      <trkpt lat="45.92482" lon="4.73636">
        <ele>174</ele>
        <time>2016-10-08T11:19:49Z</time>
      </trkpt>
      <trkpt lat="45.92473" lon="4.7364">
        <ele>174</ele>
        <time>2016-10-08T11:19:51Z</time>
      </trkpt>
      <trkpt lat="45.9247" lon="4.73645">
        <ele>174</ele>
        <time>2016-10-08T11:19:52Z</time>
      </trkpt>
      <trkpt lat="45.92467" lon="4.73657">
        <ele>174</ele>
        <time>2016-10-08T11:19:54Z</time>
      </trkpt>
      <trkpt lat="45.92466" lon="4.73662">
        <ele>174</ele>
        <time>2016-10-08T11:19:55Z</time>
      </trkpt>
      <trkpt lat="45.92467" lon="4.73673">
        <ele>174</ele>
        <time>2016-10-08T11:19:57Z</time>
      </trkpt>
      <trkpt lat="45.92467" lon="4.73679">
        <ele>174</ele>
        <time>2016-10-08T11:19:58Z</time>
      </trkpt>
      <trkpt lat="45.92466" lon="4.73689">
        <ele>174</ele>
        <time>2016-10-08T11:20:00Z</time>
      </trkpt>
      <trkpt lat="45.92466" lon="4.73694">
        <ele>174</ele>
        <time>2016-10-08T11:20:01Z</time>
      </trkpt>
      <trkpt lat="45.92462" lon="4.73705">
        <ele>174</ele>
        <time>2016-10-08T11:20:40.459Z</time>
      </trkpt>
    </trkseg>
  </trk>
</gpx>